<?xml version="1.0" encoding="UTF-8"?>
<gpx
  version="1.0"
  creator="GPSBabel - http://www.gpsbabel.org"
  xmlns:xsi="http://www.w3.org/2001/XMLSchema-instance"
  xmlns="http://www.topografix.com/GPX/1/0"
  xsi:schemaLocation="http://www.topografix.com/GPX/1/0 http://www.topografix.com/GPX/1/0/gpx.xsd">
<time>2012-06-20T17:25:50Z</time>
<bounds minlat="46.235070000" minlon="7.330410000" maxlat="46.332760000" maxlon="7.441830000"/>
<trk>
  <name>
    </name>
<trkseg>
<trkpt lat="46.239210000" lon="7.374040000">
  <ele>503.799990</ele>
  <time>2012-05-28T12:40:09Z</time>
</trkpt>
<trkpt lat="46.239170000" lon="7.373990000">
  <ele>503.959990</ele>
  <time>2012-05-28T12:40:10Z</time>
</trkpt>
<trkpt lat="46.239120000" lon="7.373890000">
  <ele>504.280000</ele>
  <time>2012-05-28T12:40:12Z</time>
</trkpt>
<trkpt lat="46.239100000" lon="7.373830000">
  <ele>504.440000</ele>
  <time>2012-05-28T12:40:13Z</time>
</trkpt>
<trkpt lat="46.239090000" lon="7.373770000">
  <ele>504.600010</ele>
  <time>2012-05-28T12:40:14Z</time>
</trkpt>
<trkpt lat="46.239100000" lon="7.373640000">
  <ele>504.600010</ele>
  <time>2012-05-28T12:40:15Z</time>
</trkpt>
<trkpt lat="46.239100000" lon="7.373640000">
  <ele>504.717650</ele>
  <time>2012-05-28T12:40:16Z</time>
</trkpt>
<trkpt lat="46.239130000" lon="7.373590000">
  <ele>504.835300</ele>
  <time>2012-05-28T12:40:17Z</time>
</trkpt>
<trkpt lat="46.239220000" lon="7.373590000">
  <ele>505.070590</ele>
  <time>2012-05-28T12:40:19Z</time>
</trkpt>
<trkpt lat="46.239270000" lon="7.373590000">
  <ele>505.188230</ele>
  <time>2012-05-28T12:40:20Z</time>
</trkpt>
<trkpt lat="46.239310000" lon="7.373570000">
  <ele>505.305880</ele>
  <time>2012-05-28T12:40:21Z</time>
</trkpt>
<trkpt lat="46.239430000" lon="7.373490000">
  <ele>505.658840</ele>
  <time>2012-05-28T12:40:24Z</time>
</trkpt>
<trkpt lat="46.239470000" lon="7.373470000">
  <ele>505.776490</ele>
  <time>2012-05-28T12:40:25Z</time>
</trkpt>
<trkpt lat="46.239520000" lon="7.373460000">
  <ele>505.894130</ele>
  <time>2012-05-28T12:40:26Z</time>
</trkpt>
<trkpt lat="46.239590000" lon="7.373510000">
  <ele>506.129430</ele>
  <time>2012-05-28T12:40:28Z</time>
</trkpt>
<trkpt lat="46.239630000" lon="7.373550000">
  <ele>506.247070</ele>
  <time>2012-05-28T12:40:29Z</time>
</trkpt>
<trkpt lat="46.239670000" lon="7.373590000">
  <ele>506.364720</ele>
  <time>2012-05-28T12:40:30Z</time>
</trkpt>
<trkpt lat="46.239700000" lon="7.373620000">
  <ele>506.482360</ele>
  <time>2012-05-28T12:40:31Z</time>
</trkpt>
<trkpt lat="46.239740000" lon="7.373650000">
  <ele>506.600010</ele>
  <time>2012-05-28T12:40:32Z</time>
</trkpt>
<trkpt lat="46.239780000" lon="7.373670000">
  <ele>506.600010</ele>
  <time>2012-05-28T12:40:33Z</time>
</trkpt>
<trkpt lat="46.240010000" lon="7.373750000">
  <ele>507.600010</ele>
  <time>2012-05-28T12:40:39Z</time>
</trkpt>
<trkpt lat="46.240050000" lon="7.373750000">
  <ele>507.766660</ele>
  <time>2012-05-28T12:40:40Z</time>
</trkpt>
<trkpt lat="46.240130000" lon="7.373740000">
  <ele>508.100010</ele>
  <time>2012-05-28T12:40:42Z</time>
</trkpt>
<trkpt lat="46.240170000" lon="7.373730000">
  <ele>508.266660</ele>
  <time>2012-05-28T12:40:43Z</time>
</trkpt>
<trkpt lat="46.240210000" lon="7.373720000">
  <ele>508.433350</ele>
  <time>2012-05-28T12:40:44Z</time>
</trkpt>
<trkpt lat="46.240250000" lon="7.373710000">
  <ele>508.600010</ele>
  <time>2012-05-28T12:40:45Z</time>
</trkpt>
<trkpt lat="46.240320000" lon="7.373660000">
  <ele>508.600010</ele>
  <time>2012-05-28T12:40:47Z</time>
</trkpt>
<trkpt lat="46.240350000" lon="7.373640000">
  <ele>508.875000</ele>
  <time>2012-05-28T12:40:48Z</time>
</trkpt>
<trkpt lat="46.240440000" lon="7.373560000">
  <ele>509.700010</ele>
  <time>2012-05-28T12:40:51Z</time>
</trkpt>
<trkpt lat="46.240470000" lon="7.373520000">
  <ele>509.975010</ele>
  <time>2012-05-28T12:40:52Z</time>
</trkpt>
<trkpt lat="46.240500000" lon="7.373490000">
  <ele>510.250000</ele>
  <time>2012-05-28T12:40:53Z</time>
</trkpt>
<trkpt lat="46.240530000" lon="7.373450000">
  <ele>510.524990</ele>
  <time>2012-05-28T12:40:54Z</time>
</trkpt>
<trkpt lat="46.240550000" lon="7.373410000">
  <ele>510.799990</ele>
  <time>2012-05-28T12:40:55Z</time>
</trkpt>
<trkpt lat="46.240630000" lon="7.373250000">
  <ele>510.799990</ele>
  <time>2012-05-28T12:40:59Z</time>
</trkpt>
<trkpt lat="46.240670000" lon="7.373170000">
  <ele>511.476930</ele>
  <time>2012-05-28T12:41:01Z</time>
</trkpt>
<trkpt lat="46.240680000" lon="7.373120000">
  <ele>511.815370</ele>
  <time>2012-05-28T12:41:02Z</time>
</trkpt>
<trkpt lat="46.240700000" lon="7.373080000">
  <ele>512.153870</ele>
  <time>2012-05-28T12:41:03Z</time>
</trkpt>
<trkpt lat="46.240700000" lon="7.373030000">
  <ele>512.492310</ele>
  <time>2012-05-28T12:41:04Z</time>
</trkpt>
<trkpt lat="46.240710000" lon="7.372980000">
  <ele>512.830750</ele>
  <time>2012-05-28T12:41:05Z</time>
</trkpt>
<trkpt lat="46.240710000" lon="7.372850000">
  <ele>513.846130</ele>
  <time>2012-05-28T12:41:08Z</time>
</trkpt>
<trkpt lat="46.240720000" lon="7.372810000">
  <ele>514.184630</ele>
  <time>2012-05-28T12:41:09Z</time>
</trkpt>
<trkpt lat="46.240720000" lon="7.372770000">
  <ele>514.523070</ele>
  <time>2012-05-28T12:41:10Z</time>
</trkpt>
<trkpt lat="46.240710000" lon="7.372730000">
  <ele>514.861570</ele>
  <time>2012-05-28T12:41:11Z</time>
</trkpt>
<trkpt lat="46.240710000" lon="7.372690000">
  <ele>515.200010</ele>
  <time>2012-05-28T12:41:12Z</time>
</trkpt>
<trkpt lat="46.240690000" lon="7.372530000">
  <ele>515.200010</ele>
  <time>2012-05-28T12:41:15Z</time>
</trkpt>
<trkpt lat="46.240680000" lon="7.372490000">
  <ele>515.600040</ele>
  <time>2012-05-28T12:41:16Z</time>
</trkpt>
<trkpt lat="46.240680000" lon="7.372440000">
  <ele>516.000000</ele>
  <time>2012-05-28T12:41:17Z</time>
</trkpt>
<trkpt lat="46.240660000" lon="7.372400000">
  <ele>516.400020</ele>
  <time>2012-05-28T12:41:18Z</time>
</trkpt>
<trkpt lat="46.240650000" lon="7.372360000">
  <ele>516.799990</ele>
  <time>2012-05-28T12:41:19Z</time>
</trkpt>
<trkpt lat="46.240650000" lon="7.372320000">
  <ele>517.200010</ele>
  <time>2012-05-28T12:41:20Z</time>
</trkpt>
<trkpt lat="46.240630000" lon="7.372240000">
  <ele>517.200010</ele>
  <time>2012-05-28T12:41:22Z</time>
</trkpt>
<trkpt lat="46.240600000" lon="7.372080000">
  <ele>518.250000</ele>
  <time>2012-05-28T12:41:26Z</time>
</trkpt>
<trkpt lat="46.240590000" lon="7.372040000">
  <ele>518.512510</ele>
  <time>2012-05-28T12:41:27Z</time>
</trkpt>
<trkpt lat="46.240570000" lon="7.372000000">
  <ele>518.775020</ele>
  <time>2012-05-28T12:41:28Z</time>
</trkpt>
<trkpt lat="46.240570000" lon="7.371960000">
  <ele>519.037540</ele>
  <time>2012-05-28T12:41:29Z</time>
</trkpt>
<trkpt lat="46.240550000" lon="7.371910000">
  <ele>519.300050</ele>
  <time>2012-05-28T12:41:30Z</time>
</trkpt>
<trkpt lat="46.240500000" lon="7.371740000">
  <ele>520.350040</ele>
  <time>2012-05-28T12:41:34Z</time>
</trkpt>
<trkpt lat="46.240490000" lon="7.371700000">
  <ele>520.612550</ele>
  <time>2012-05-28T12:41:35Z</time>
</trkpt>
<trkpt lat="46.240470000" lon="7.371660000">
  <ele>520.875000</ele>
  <time>2012-05-28T12:41:36Z</time>
</trkpt>
<trkpt lat="46.240470000" lon="7.371620000">
  <ele>521.137510</ele>
  <time>2012-05-28T12:41:37Z</time>
</trkpt>
<trkpt lat="46.240460000" lon="7.371580000">
  <ele>521.400020</ele>
  <time>2012-05-28T12:41:38Z</time>
</trkpt>
<trkpt lat="46.240400000" lon="7.371420000">
  <ele>521.400020</ele>
  <time>2012-05-28T12:41:42Z</time>
</trkpt>
<trkpt lat="46.240390000" lon="7.371370000">
  <ele>521.840030</ele>
  <time>2012-05-28T12:41:43Z</time>
</trkpt>
<trkpt lat="46.240370000" lon="7.371330000">
  <ele>522.280030</ele>
  <time>2012-05-28T12:41:44Z</time>
</trkpt>
<trkpt lat="46.240360000" lon="7.371290000">
  <ele>522.719970</ele>
  <time>2012-05-28T12:41:45Z</time>
</trkpt>
<trkpt lat="46.240350000" lon="7.371250000">
  <ele>523.159970</ele>
  <time>2012-05-28T12:41:46Z</time>
</trkpt>
<trkpt lat="46.240340000" lon="7.371210000">
  <ele>523.599980</ele>
  <time>2012-05-28T12:41:47Z</time>
</trkpt>
<trkpt lat="46.240320000" lon="7.371140000">
  <ele>523.599980</ele>
  <time>2012-05-28T12:41:49Z</time>
</trkpt>
<trkpt lat="46.240310000" lon="7.371070000">
  <ele>524.266660</ele>
  <time>2012-05-28T12:41:51Z</time>
</trkpt>
<trkpt lat="46.240300000" lon="7.371030000">
  <ele>524.599980</ele>
  <time>2012-05-28T12:41:52Z</time>
</trkpt>
<trkpt lat="46.240280000" lon="7.371000000">
  <ele>524.933290</ele>
  <time>2012-05-28T12:41:53Z</time>
</trkpt>
<trkpt lat="46.240270000" lon="7.370960000">
  <ele>525.266660</ele>
  <time>2012-05-28T12:41:54Z</time>
</trkpt>
<trkpt lat="46.240260000" lon="7.370930000">
  <ele>525.599980</ele>
  <time>2012-05-28T12:41:55Z</time>
</trkpt>
<trkpt lat="46.240230000" lon="7.370820000">
  <ele>525.599980</ele>
  <time>2012-05-28T12:41:58Z</time>
</trkpt>
<trkpt lat="46.240210000" lon="7.370740000">
  <ele>526.333310</ele>
  <time>2012-05-28T12:42:00Z</time>
</trkpt>
<trkpt lat="46.240200000" lon="7.370700000">
  <ele>526.699950</ele>
  <time>2012-05-28T12:42:01Z</time>
</trkpt>
<trkpt lat="46.240190000" lon="7.370670000">
  <ele>527.066650</ele>
  <time>2012-05-28T12:42:02Z</time>
</trkpt>
<trkpt lat="46.240180000" lon="7.370630000">
  <ele>527.433350</ele>
  <time>2012-05-28T12:42:03Z</time>
</trkpt>
<trkpt lat="46.240170000" lon="7.370590000">
  <ele>527.799990</ele>
  <time>2012-05-28T12:42:04Z</time>
</trkpt>
<trkpt lat="46.240160000" lon="7.370550000">
  <ele>527.799990</ele>
  <time>2012-05-28T12:42:05Z</time>
</trkpt>
<trkpt lat="46.240090000" lon="7.370330000">
  <ele>529.000000</ele>
  <time>2012-05-28T12:42:11Z</time>
</trkpt>
<trkpt lat="46.240080000" lon="7.370300000">
  <ele>529.200010</ele>
  <time>2012-05-28T12:42:12Z</time>
</trkpt>
<trkpt lat="46.240070000" lon="7.370260000">
  <ele>529.400020</ele>
  <time>2012-05-28T12:42:13Z</time>
</trkpt>
<trkpt lat="46.240060000" lon="7.370220000">
  <ele>529.599980</ele>
  <time>2012-05-28T12:42:14Z</time>
</trkpt>
<trkpt lat="46.240050000" lon="7.370190000">
  <ele>529.799990</ele>
  <time>2012-05-28T12:42:15Z</time>
</trkpt>
<trkpt lat="46.240040000" lon="7.370160000">
  <ele>530.000000</ele>
  <time>2012-05-28T12:42:16Z</time>
</trkpt>
<trkpt lat="46.240020000" lon="7.370090000">
  <ele>530.000000</ele>
  <time>2012-05-28T12:42:18Z</time>
</trkpt>
<trkpt lat="46.240000000" lon="7.370000000">
  <ele>531.000000</ele>
  <time>2012-05-28T12:42:21Z</time>
</trkpt>
<trkpt lat="46.240000000" lon="7.369970000">
  <ele>531.333310</ele>
  <time>2012-05-28T12:42:22Z</time>
</trkpt>
<trkpt lat="46.239990000" lon="7.369940000">
  <ele>531.666690</ele>
  <time>2012-05-28T12:42:23Z</time>
</trkpt>
<trkpt lat="46.239990000" lon="7.369910000">
  <ele>532.000000</ele>
  <time>2012-05-28T12:42:24Z</time>
</trkpt>
<trkpt lat="46.239960000" lon="7.369780000">
  <ele>532.000000</ele>
  <time>2012-05-28T12:42:27Z</time>
</trkpt>
<trkpt lat="46.239890000" lon="7.369570000">
  <ele>533.222230</ele>
  <time>2012-05-28T12:42:32Z</time>
</trkpt>
<trkpt lat="46.239890000" lon="7.369530000">
  <ele>533.466670</ele>
  <time>2012-05-28T12:42:33Z</time>
</trkpt>
<trkpt lat="46.239880000" lon="7.369480000">
  <ele>533.711120</ele>
  <time>2012-05-28T12:42:34Z</time>
</trkpt>
<trkpt lat="46.239870000" lon="7.369440000">
  <ele>533.955570</ele>
  <time>2012-05-28T12:42:35Z</time>
</trkpt>
<trkpt lat="46.239860000" lon="7.369400000">
  <ele>534.200010</ele>
  <time>2012-05-28T12:42:36Z</time>
</trkpt>
<trkpt lat="46.239800000" lon="7.369240000">
  <ele>534.200010</ele>
  <time>2012-05-28T12:42:40Z</time>
</trkpt>
<trkpt lat="46.239760000" lon="7.369120000">
  <ele>534.866700</ele>
  <time>2012-05-28T12:42:43Z</time>
</trkpt>
<trkpt lat="46.239720000" lon="7.368980000">
  <ele>535.533330</ele>
  <time>2012-05-28T12:42:46Z</time>
</trkpt>
<trkpt lat="46.239700000" lon="7.368940000">
  <ele>535.755550</ele>
  <time>2012-05-28T12:42:47Z</time>
</trkpt>
<trkpt lat="46.239690000" lon="7.368890000">
  <ele>535.977780</ele>
  <time>2012-05-28T12:42:48Z</time>
</trkpt>
<trkpt lat="46.239670000" lon="7.368850000">
  <ele>536.200010</ele>
  <time>2012-05-28T12:42:49Z</time>
</trkpt>
<trkpt lat="46.239650000" lon="7.368800000">
  <ele>536.200010</ele>
  <time>2012-05-28T12:42:50Z</time>
</trkpt>
<trkpt lat="46.239550000" lon="7.368460000">
  <ele>537.276920</ele>
  <time>2012-05-28T12:42:57Z</time>
</trkpt>
<trkpt lat="46.239530000" lon="7.368370000">
  <ele>537.584660</ele>
  <time>2012-05-28T12:42:59Z</time>
</trkpt>
<trkpt lat="46.239520000" lon="7.368320000">
  <ele>537.738460</ele>
  <time>2012-05-28T12:43:00Z</time>
</trkpt>
<trkpt lat="46.239500000" lon="7.368270000">
  <ele>537.892330</ele>
  <time>2012-05-28T12:43:01Z</time>
</trkpt>
<trkpt lat="46.239490000" lon="7.368220000">
  <ele>538.046140</ele>
  <time>2012-05-28T12:43:02Z</time>
</trkpt>
<trkpt lat="46.239480000" lon="7.368170000">
  <ele>538.200010</ele>
  <time>2012-05-28T12:43:03Z</time>
</trkpt>
<trkpt lat="46.239450000" lon="7.368070000">
  <ele>538.200010</ele>
  <time>2012-05-28T12:43:05Z</time>
</trkpt>
<trkpt lat="46.239380000" lon="7.367750000">
  <ele>539.520020</ele>
  <time>2012-05-28T12:43:11Z</time>
</trkpt>
<trkpt lat="46.239370000" lon="7.367700000">
  <ele>539.739990</ele>
  <time>2012-05-28T12:43:12Z</time>
</trkpt>
<trkpt lat="46.239360000" lon="7.367650000">
  <ele>539.960020</ele>
  <time>2012-05-28T12:43:13Z</time>
</trkpt>
<trkpt lat="46.239350000" lon="7.367600000">
  <ele>540.180050</ele>
  <time>2012-05-28T12:43:14Z</time>
</trkpt>
<trkpt lat="46.239340000" lon="7.367540000">
  <ele>540.400020</ele>
  <time>2012-05-28T12:43:15Z</time>
</trkpt>
<trkpt lat="46.239270000" lon="7.367270000">
  <ele>540.400020</ele>
  <time>2012-05-28T12:43:20Z</time>
</trkpt>
<trkpt lat="46.239200000" lon="7.366900000">
  <ele>541.799990</ele>
  <time>2012-05-28T12:43:27Z</time>
</trkpt>
<trkpt lat="46.239190000" lon="7.366850000">
  <ele>542.000000</ele>
  <time>2012-05-28T12:43:28Z</time>
</trkpt>
<trkpt lat="46.239170000" lon="7.366800000">
  <ele>542.200010</ele>
  <time>2012-05-28T12:43:29Z</time>
</trkpt>
<trkpt lat="46.239160000" lon="7.366740000">
  <ele>542.399960</ele>
  <time>2012-05-28T12:43:30Z</time>
</trkpt>
<trkpt lat="46.239150000" lon="7.366690000">
  <ele>542.599980</ele>
  <time>2012-05-28T12:43:31Z</time>
</trkpt>
<trkpt lat="46.239120000" lon="7.366570000">
  <ele>542.599980</ele>
  <time>2012-05-28T12:43:33Z</time>
</trkpt>
<trkpt lat="46.239110000" lon="7.366530000">
  <ele>542.711060</ele>
  <time>2012-05-28T12:43:34Z</time>
</trkpt>
<trkpt lat="46.239100000" lon="7.366480000">
  <ele>542.822200</ele>
  <time>2012-05-28T12:43:35Z</time>
</trkpt>
<trkpt lat="46.239080000" lon="7.366380000">
  <ele>543.044430</ele>
  <time>2012-05-28T12:43:37Z</time>
</trkpt>
<trkpt lat="46.239060000" lon="7.366210000">
  <ele>543.377750</ele>
  <time>2012-05-28T12:43:40Z</time>
</trkpt>
<trkpt lat="46.238980000" lon="7.365820000">
  <ele>544.155520</ele>
  <time>2012-05-28T12:43:47Z</time>
</trkpt>
<trkpt lat="46.238970000" lon="7.365770000">
  <ele>544.266660</ele>
  <time>2012-05-28T12:43:48Z</time>
</trkpt>
<trkpt lat="46.238960000" lon="7.365710000">
  <ele>544.377750</ele>
  <time>2012-05-28T12:43:49Z</time>
</trkpt>
<trkpt lat="46.238950000" lon="7.365660000">
  <ele>544.488890</ele>
  <time>2012-05-28T12:43:50Z</time>
</trkpt>
<trkpt lat="46.238940000" lon="7.365610000">
  <ele>544.599980</ele>
  <time>2012-05-28T12:43:51Z</time>
</trkpt>
<trkpt lat="46.238870000" lon="7.365330000">
  <ele>544.599980</ele>
  <time>2012-05-28T12:43:56Z</time>
</trkpt>
<trkpt lat="46.238750000" lon="7.364840000">
  <ele>545.699950</ele>
  <time>2012-05-28T12:44:05Z</time>
</trkpt>
<trkpt lat="46.238720000" lon="7.364560000">
  <ele>546.311100</ele>
  <time>2012-05-28T12:44:10Z</time>
</trkpt>
<trkpt lat="46.238730000" lon="7.364500000">
  <ele>546.433350</ele>
  <time>2012-05-28T12:44:11Z</time>
</trkpt>
<trkpt lat="46.238740000" lon="7.364460000">
  <ele>546.555540</ele>
  <time>2012-05-28T12:44:12Z</time>
</trkpt>
<trkpt lat="46.238750000" lon="7.364410000">
  <ele>546.677730</ele>
  <time>2012-05-28T12:44:13Z</time>
</trkpt>
<trkpt lat="46.238760000" lon="7.364360000">
  <ele>546.799990</ele>
  <time>2012-05-28T12:44:14Z</time>
</trkpt>
<trkpt lat="46.238760000" lon="7.364240000">
  <ele>546.799990</ele>
  <time>2012-05-28T12:44:16Z</time>
</trkpt>
<trkpt lat="46.238780000" lon="7.363850000">
  <ele>548.479980</ele>
  <time>2012-05-28T12:44:23Z</time>
</trkpt>
<trkpt lat="46.238780000" lon="7.363790000">
  <ele>548.720030</ele>
  <time>2012-05-28T12:44:24Z</time>
</trkpt>
<trkpt lat="46.238780000" lon="7.363740000">
  <ele>548.960020</ele>
  <time>2012-05-28T12:44:25Z</time>
</trkpt>
<trkpt lat="46.238780000" lon="7.363670000">
  <ele>549.200010</ele>
  <time>2012-05-28T12:44:26Z</time>
</trkpt>
<trkpt lat="46.238800000" lon="7.363330000">
  <ele>549.200010</ele>
  <time>2012-05-28T12:44:32Z</time>
</trkpt>
<trkpt lat="46.238810000" lon="7.363120000">
  <ele>550.300050</ele>
  <time>2012-05-28T12:44:36Z</time>
</trkpt>
<trkpt lat="46.238810000" lon="7.363060000">
  <ele>550.575010</ele>
  <time>2012-05-28T12:44:37Z</time>
</trkpt>
<trkpt lat="46.238810000" lon="7.363010000">
  <ele>550.850040</ele>
  <time>2012-05-28T12:44:38Z</time>
</trkpt>
<trkpt lat="46.238810000" lon="7.362950000">
  <ele>551.125000</ele>
  <time>2012-05-28T12:44:39Z</time>
</trkpt>
<trkpt lat="46.238810000" lon="7.362900000">
  <ele>551.400020</ele>
  <time>2012-05-28T12:44:40Z</time>
</trkpt>
<trkpt lat="46.238820000" lon="7.362580000">
  <ele>551.400020</ele>
  <time>2012-05-28T12:44:46Z</time>
</trkpt>
<trkpt lat="46.238850000" lon="7.362180000">
  <ele>552.672730</ele>
  <time>2012-05-28T12:44:53Z</time>
</trkpt>
<trkpt lat="46.238850000" lon="7.362120000">
  <ele>552.854550</ele>
  <time>2012-05-28T12:44:54Z</time>
</trkpt>
<trkpt lat="46.238850000" lon="7.362070000">
  <ele>553.036380</ele>
  <time>2012-05-28T12:44:55Z</time>
</trkpt>
<trkpt lat="46.238850000" lon="7.362010000">
  <ele>553.218200</ele>
  <time>2012-05-28T12:44:56Z</time>
</trkpt>
<trkpt lat="46.238860000" lon="7.361960000">
  <ele>553.400020</ele>
  <time>2012-05-28T12:44:57Z</time>
</trkpt>
<trkpt lat="46.238860000" lon="7.361850000">
  <ele>553.400020</ele>
  <time>2012-05-28T12:44:59Z</time>
</trkpt>
<trkpt lat="46.238870000" lon="7.361680000">
  <ele>553.212520</ele>
  <time>2012-05-28T12:45:02Z</time>
</trkpt>
<trkpt lat="46.238880000" lon="7.361330000">
  <ele>552.837520</ele>
  <time>2012-05-28T12:45:08Z</time>
</trkpt>
<trkpt lat="46.238890000" lon="7.361210000">
  <ele>552.712520</ele>
  <time>2012-05-28T12:45:10Z</time>
</trkpt>
<trkpt lat="46.238900000" lon="7.360700000">
  <ele>552.212520</ele>
  <time>2012-05-28T12:45:18Z</time>
</trkpt>
<trkpt lat="46.238890000" lon="7.360480000">
  <ele>552.025020</ele>
  <time>2012-05-28T12:45:21Z</time>
</trkpt>
<trkpt lat="46.238880000" lon="7.360390000">
  <ele>551.962520</ele>
  <time>2012-05-28T12:45:22Z</time>
</trkpt>
<trkpt lat="46.238860000" lon="7.360230000">
  <ele>551.837520</ele>
  <time>2012-05-28T12:45:24Z</time>
</trkpt>
<trkpt lat="46.238840000" lon="7.360150000">
  <ele>551.775020</ele>
  <time>2012-05-28T12:45:25Z</time>
</trkpt>
<trkpt lat="46.238840000" lon="7.360000000">
  <ele>551.650020</ele>
  <time>2012-05-28T12:45:27Z</time>
</trkpt>
<trkpt lat="46.238870000" lon="7.359940000">
  <ele>551.587520</ele>
  <time>2012-05-28T12:45:28Z</time>
</trkpt>
<trkpt lat="46.238900000" lon="7.359920000">
  <ele>551.525020</ele>
  <time>2012-05-28T12:45:29Z</time>
</trkpt>
<trkpt lat="46.238940000" lon="7.359900000">
  <ele>551.462520</ele>
  <time>2012-05-28T12:45:30Z</time>
</trkpt>
<trkpt lat="46.238980000" lon="7.359890000">
  <ele>551.400020</ele>
  <time>2012-05-28T12:45:31Z</time>
</trkpt>
<trkpt lat="46.239070000" lon="7.359900000">
  <ele>551.799990</ele>
  <time>2012-05-28T12:45:33Z</time>
</trkpt>
<trkpt lat="46.239110000" lon="7.359900000">
  <ele>552.089970</ele>
  <time>2012-05-28T12:45:34Z</time>
</trkpt>
<trkpt lat="46.239140000" lon="7.359900000">
  <ele>552.380000</ele>
  <time>2012-05-28T12:45:35Z</time>
</trkpt>
<trkpt lat="46.239170000" lon="7.359890000">
  <ele>552.669980</ele>
  <time>2012-05-28T12:45:36Z</time>
</trkpt>
<trkpt lat="46.239200000" lon="7.359890000">
  <ele>552.959960</ele>
  <time>2012-05-28T12:45:37Z</time>
</trkpt>
<trkpt lat="46.239270000" lon="7.359880000">
  <ele>553.539980</ele>
  <time>2012-05-28T12:45:39Z</time>
</trkpt>
<trkpt lat="46.239300000" lon="7.359880000">
  <ele>553.829960</ele>
  <time>2012-05-28T12:45:40Z</time>
</trkpt>
<trkpt lat="46.239340000" lon="7.359890000">
  <ele>554.120000</ele>
  <time>2012-05-28T12:45:41Z</time>
</trkpt>
<trkpt lat="46.239370000" lon="7.359900000">
  <ele>554.409970</ele>
  <time>2012-05-28T12:45:42Z</time>
</trkpt>
<trkpt lat="46.239410000" lon="7.359900000">
  <ele>554.699950</ele>
  <time>2012-05-28T12:45:43Z</time>
</trkpt>
<trkpt lat="46.239600000" lon="7.359920000">
  <ele>556.440000</ele>
  <time>2012-05-28T12:45:49Z</time>
</trkpt>
<trkpt lat="46.239620000" lon="7.359930000">
  <ele>556.729980</ele>
  <time>2012-05-28T12:45:50Z</time>
</trkpt>
<trkpt lat="46.239650000" lon="7.359940000">
  <ele>557.019960</ele>
  <time>2012-05-28T12:45:51Z</time>
</trkpt>
<trkpt lat="46.239680000" lon="7.359950000">
  <ele>557.310000</ele>
  <time>2012-05-28T12:45:52Z</time>
</trkpt>
<trkpt lat="46.239710000" lon="7.359950000">
  <ele>557.599980</ele>
  <time>2012-05-28T12:45:53Z</time>
</trkpt>
<trkpt lat="46.239810000" lon="7.359990000">
  <ele>557.599980</ele>
  <time>2012-05-28T12:45:57Z</time>
</trkpt>
<trkpt lat="46.239850000" lon="7.360010000">
  <ele>558.039980</ele>
  <time>2012-05-28T12:45:58Z</time>
</trkpt>
<trkpt lat="46.239870000" lon="7.360010000">
  <ele>558.479980</ele>
  <time>2012-05-28T12:45:59Z</time>
</trkpt>
<trkpt lat="46.239900000" lon="7.360020000">
  <ele>558.919980</ele>
  <time>2012-05-28T12:46:00Z</time>
</trkpt>
<trkpt lat="46.239930000" lon="7.360040000">
  <ele>559.359990</ele>
  <time>2012-05-28T12:46:01Z</time>
</trkpt>
<trkpt lat="46.239960000" lon="7.360040000">
  <ele>559.799990</ele>
  <time>2012-05-28T12:46:02Z</time>
</trkpt>
<trkpt lat="46.240030000" lon="7.360070000">
  <ele>559.799990</ele>
  <time>2012-05-28T12:46:04Z</time>
</trkpt>
<trkpt lat="46.240150000" lon="7.360110000">
  <ele>560.866640</ele>
  <time>2012-05-28T12:46:08Z</time>
</trkpt>
<trkpt lat="46.240180000" lon="7.360120000">
  <ele>561.133300</ele>
  <time>2012-05-28T12:46:09Z</time>
</trkpt>
<trkpt lat="46.240210000" lon="7.360130000">
  <ele>561.400020</ele>
  <time>2012-05-28T12:46:10Z</time>
</trkpt>
<trkpt lat="46.240240000" lon="7.360150000">
  <ele>561.666690</ele>
  <time>2012-05-28T12:46:11Z</time>
</trkpt>
<trkpt lat="46.240270000" lon="7.360160000">
  <ele>561.933350</ele>
  <time>2012-05-28T12:46:12Z</time>
</trkpt>
<trkpt lat="46.240380000" lon="7.360220000">
  <ele>563.000000</ele>
  <time>2012-05-28T12:46:16Z</time>
</trkpt>
<trkpt lat="46.240410000" lon="7.360230000">
  <ele>563.266660</ele>
  <time>2012-05-28T12:46:17Z</time>
</trkpt>
<trkpt lat="46.240440000" lon="7.360250000">
  <ele>563.533330</ele>
  <time>2012-05-28T12:46:18Z</time>
</trkpt>
<trkpt lat="46.240460000" lon="7.360260000">
  <ele>563.799990</ele>
  <time>2012-05-28T12:46:19Z</time>
</trkpt>
<trkpt lat="46.240490000" lon="7.360270000">
  <ele>564.066650</ele>
  <time>2012-05-28T12:46:20Z</time>
</trkpt>
<trkpt lat="46.240560000" lon="7.360310000">
  <ele>565.133360</ele>
  <time>2012-05-28T12:46:24Z</time>
</trkpt>
<trkpt lat="46.240590000" lon="7.360320000">
  <ele>565.400020</ele>
  <time>2012-05-28T12:46:25Z</time>
</trkpt>
<trkpt lat="46.240620000" lon="7.360340000">
  <ele>565.666690</ele>
  <time>2012-05-28T12:46:26Z</time>
</trkpt>
<trkpt lat="46.240640000" lon="7.360370000">
  <ele>565.933350</ele>
  <time>2012-05-28T12:46:27Z</time>
</trkpt>
<trkpt lat="46.240670000" lon="7.360380000">
  <ele>566.200010</ele>
  <time>2012-05-28T12:46:28Z</time>
</trkpt>
<trkpt lat="46.240710000" lon="7.360400000">
  <ele>566.200010</ele>
  <time>2012-05-28T12:46:29Z</time>
</trkpt>
<trkpt lat="46.240800000" lon="7.360470000">
  <ele>566.938480</ele>
  <time>2012-05-28T12:46:32Z</time>
</trkpt>
<trkpt lat="46.240840000" lon="7.360480000">
  <ele>567.184630</ele>
  <time>2012-05-28T12:46:33Z</time>
</trkpt>
<trkpt lat="46.240860000" lon="7.360500000">
  <ele>567.430790</ele>
  <time>2012-05-28T12:46:34Z</time>
</trkpt>
<trkpt lat="46.240890000" lon="7.360520000">
  <ele>567.676940</ele>
  <time>2012-05-28T12:46:35Z</time>
</trkpt>
<trkpt lat="46.240910000" lon="7.360530000">
  <ele>567.923100</ele>
  <time>2012-05-28T12:46:36Z</time>
</trkpt>
<trkpt lat="46.241080000" lon="7.360630000">
  <ele>569.400020</ele>
  <time>2012-05-28T12:46:42Z</time>
</trkpt>
<trkpt lat="46.241110000" lon="7.360640000">
  <ele>569.646120</ele>
  <time>2012-05-28T12:46:43Z</time>
</trkpt>
<trkpt lat="46.241140000" lon="7.360660000">
  <ele>569.892270</ele>
  <time>2012-05-28T12:46:44Z</time>
</trkpt>
<trkpt lat="46.241180000" lon="7.360670000">
  <ele>570.138430</ele>
  <time>2012-05-28T12:46:45Z</time>
</trkpt>
<trkpt lat="46.241210000" lon="7.360690000">
  <ele>570.384580</ele>
  <time>2012-05-28T12:46:46Z</time>
</trkpt>
<trkpt lat="46.241390000" lon="7.360780000">
  <ele>571.861510</ele>
  <time>2012-05-28T12:46:52Z</time>
</trkpt>
<trkpt lat="46.241420000" lon="7.360800000">
  <ele>572.107670</ele>
  <time>2012-05-28T12:46:53Z</time>
</trkpt>
<trkpt lat="46.241450000" lon="7.360810000">
  <ele>572.353820</ele>
  <time>2012-05-28T12:46:54Z</time>
</trkpt>
<trkpt lat="46.241490000" lon="7.360820000">
  <ele>572.599980</ele>
  <time>2012-05-28T12:46:55Z</time>
</trkpt>
<trkpt lat="46.241570000" lon="7.360870000">
  <ele>572.599980</ele>
  <time>2012-05-28T12:46:58Z</time>
</trkpt>
<trkpt lat="46.241620000" lon="7.360920000">
  <ele>573.044430</ele>
  <time>2012-05-28T12:47:00Z</time>
</trkpt>
<trkpt lat="46.241720000" lon="7.360970000">
  <ele>573.711060</ele>
  <time>2012-05-28T12:47:03Z</time>
</trkpt>
<trkpt lat="46.241750000" lon="7.360950000">
  <ele>573.933290</ele>
  <time>2012-05-28T12:47:04Z</time>
</trkpt>
<trkpt lat="46.241780000" lon="7.360910000">
  <ele>574.155520</ele>
  <time>2012-05-28T12:47:05Z</time>
</trkpt>
<trkpt lat="46.241800000" lon="7.360870000">
  <ele>574.377750</ele>
  <time>2012-05-28T12:47:06Z</time>
</trkpt>
<trkpt lat="46.241820000" lon="7.360820000">
  <ele>574.599980</ele>
  <time>2012-05-28T12:47:07Z</time>
</trkpt>
<trkpt lat="46.241800000" lon="7.360640000">
  <ele>574.599980</ele>
  <time>2012-05-28T12:47:10Z</time>
</trkpt>
<trkpt lat="46.241760000" lon="7.360540000">
  <ele>574.721190</ele>
  <time>2012-05-28T12:47:12Z</time>
</trkpt>
<trkpt lat="46.241740000" lon="7.360480000">
  <ele>574.781800</ele>
  <time>2012-05-28T12:47:13Z</time>
</trkpt>
<trkpt lat="46.241730000" lon="7.360420000">
  <ele>574.842410</ele>
  <time>2012-05-28T12:47:14Z</time>
</trkpt>
<trkpt lat="46.241690000" lon="7.360300000">
  <ele>574.963620</ele>
  <time>2012-05-28T12:47:16Z</time>
</trkpt>
<trkpt lat="46.241540000" lon="7.359920000">
  <ele>575.387880</ele>
  <time>2012-05-28T12:47:23Z</time>
</trkpt>
<trkpt lat="46.241500000" lon="7.359810000">
  <ele>575.509090</ele>
  <time>2012-05-28T12:47:25Z</time>
</trkpt>
<trkpt lat="46.241470000" lon="7.359690000">
  <ele>575.630250</ele>
  <time>2012-05-28T12:47:27Z</time>
</trkpt>
<trkpt lat="46.241440000" lon="7.359580000">
  <ele>575.751460</ele>
  <time>2012-05-28T12:47:29Z</time>
</trkpt>
<trkpt lat="46.241380000" lon="7.359350000">
  <ele>575.993900</ele>
  <time>2012-05-28T12:47:33Z</time>
</trkpt>
<trkpt lat="46.241340000" lon="7.359190000">
  <ele>576.175720</ele>
  <time>2012-05-28T12:47:36Z</time>
</trkpt>
<trkpt lat="46.241280000" lon="7.359030000">
  <ele>576.357540</ele>
  <time>2012-05-28T12:47:39Z</time>
</trkpt>
<trkpt lat="46.241260000" lon="7.358970000">
  <ele>576.418150</ele>
  <time>2012-05-28T12:47:40Z</time>
</trkpt>
<trkpt lat="46.241240000" lon="7.358920000">
  <ele>576.478760</ele>
  <time>2012-05-28T12:47:41Z</time>
</trkpt>
<trkpt lat="46.241210000" lon="7.358870000">
  <ele>576.539370</ele>
  <time>2012-05-28T12:47:42Z</time>
</trkpt>
<trkpt lat="46.241180000" lon="7.358820000">
  <ele>576.599980</ele>
  <time>2012-05-28T12:47:43Z</time>
</trkpt>
<trkpt lat="46.241090000" lon="7.358630000">
  <ele>576.599980</ele>
  <time>2012-05-28T12:47:47Z</time>
</trkpt>
<trkpt lat="46.240930000" lon="7.358430000">
  <ele>577.333310</ele>
  <time>2012-05-28T12:47:52Z</time>
</trkpt>
<trkpt lat="46.240900000" lon="7.358390000">
  <ele>577.479980</ele>
  <time>2012-05-28T12:47:53Z</time>
</trkpt>
<trkpt lat="46.240810000" lon="7.358260000">
  <ele>577.919980</ele>
  <time>2012-05-28T12:47:56Z</time>
</trkpt>
<trkpt lat="46.240750000" lon="7.358180000">
  <ele>578.213320</ele>
  <time>2012-05-28T12:47:58Z</time>
</trkpt>
<trkpt lat="46.240720000" lon="7.358130000">
  <ele>578.359990</ele>
  <time>2012-05-28T12:47:59Z</time>
</trkpt>
<trkpt lat="46.240690000" lon="7.358090000">
  <ele>578.506650</ele>
  <time>2012-05-28T12:48:00Z</time>
</trkpt>
<trkpt lat="46.240650000" lon="7.358050000">
  <ele>578.653320</ele>
  <time>2012-05-28T12:48:01Z</time>
</trkpt>
<trkpt lat="46.240630000" lon="7.358010000">
  <ele>578.799990</ele>
  <time>2012-05-28T12:48:02Z</time>
</trkpt>
<trkpt lat="46.240570000" lon="7.357930000">
  <ele>578.799990</ele>
  <time>2012-05-28T12:48:04Z</time>
</trkpt>
<trkpt lat="46.240410000" lon="7.357700000">
  <ele>579.890870</ele>
  <time>2012-05-28T12:48:10Z</time>
</trkpt>
<trkpt lat="46.240380000" lon="7.357660000">
  <ele>580.072690</ele>
  <time>2012-05-28T12:48:11Z</time>
</trkpt>
<trkpt lat="46.240350000" lon="7.357620000">
  <ele>580.254520</ele>
  <time>2012-05-28T12:48:12Z</time>
</trkpt>
<trkpt lat="46.240320000" lon="7.357570000">
  <ele>580.436340</ele>
  <time>2012-05-28T12:48:13Z</time>
</trkpt>
<trkpt lat="46.240300000" lon="7.357530000">
  <ele>580.618160</ele>
  <time>2012-05-28T12:48:14Z</time>
</trkpt>
<trkpt lat="46.240270000" lon="7.357480000">
  <ele>580.799990</ele>
  <time>2012-05-28T12:48:15Z</time>
</trkpt>
<trkpt lat="46.240220000" lon="7.357400000">
  <ele>580.799990</ele>
  <time>2012-05-28T12:48:17Z</time>
</trkpt>
<trkpt lat="46.240040000" lon="7.357160000">
  <ele>582.000000</ele>
  <time>2012-05-28T12:48:23Z</time>
</trkpt>
<trkpt lat="46.240010000" lon="7.357120000">
  <ele>582.200010</ele>
  <time>2012-05-28T12:48:24Z</time>
</trkpt>
<trkpt lat="46.239990000" lon="7.357070000">
  <ele>582.399960</ele>
  <time>2012-05-28T12:48:25Z</time>
</trkpt>
<trkpt lat="46.239960000" lon="7.357030000">
  <ele>582.599980</ele>
  <time>2012-05-28T12:48:26Z</time>
</trkpt>
<trkpt lat="46.239930000" lon="7.357000000">
  <ele>582.799990</ele>
  <time>2012-05-28T12:48:27Z</time>
</trkpt>
<trkpt lat="46.239810000" lon="7.356850000">
  <ele>582.799990</ele>
  <time>2012-05-28T12:48:31Z</time>
</trkpt>
<trkpt lat="46.239660000" lon="7.356660000">
  <ele>583.911070</ele>
  <time>2012-05-28T12:48:36Z</time>
</trkpt>
<trkpt lat="46.239640000" lon="7.356620000">
  <ele>584.133300</ele>
  <time>2012-05-28T12:48:37Z</time>
</trkpt>
<trkpt lat="46.239610000" lon="7.356580000">
  <ele>584.355530</ele>
  <time>2012-05-28T12:48:38Z</time>
</trkpt>
<trkpt lat="46.239590000" lon="7.356540000">
  <ele>584.577760</ele>
  <time>2012-05-28T12:48:39Z</time>
</trkpt>
<trkpt lat="46.239560000" lon="7.356510000">
  <ele>584.799990</ele>
  <time>2012-05-28T12:48:40Z</time>
</trkpt>
<trkpt lat="46.239540000" lon="7.356470000">
  <ele>584.799990</ele>
  <time>2012-05-28T12:48:41Z</time>
</trkpt>
<trkpt lat="46.239400000" lon="7.356270000">
  <ele>586.133360</ele>
  <time>2012-05-28T12:48:46Z</time>
</trkpt>
<trkpt lat="46.239370000" lon="7.356230000">
  <ele>586.400020</ele>
  <time>2012-05-28T12:48:47Z</time>
</trkpt>
<trkpt lat="46.239350000" lon="7.356190000">
  <ele>586.666690</ele>
  <time>2012-05-28T12:48:48Z</time>
</trkpt>
<trkpt lat="46.239330000" lon="7.356150000">
  <ele>586.933350</ele>
  <time>2012-05-28T12:48:49Z</time>
</trkpt>
<trkpt lat="46.239310000" lon="7.356110000">
  <ele>587.200010</ele>
  <time>2012-05-28T12:48:50Z</time>
</trkpt>
<trkpt lat="46.239260000" lon="7.356030000">
  <ele>587.200010</ele>
  <time>2012-05-28T12:48:52Z</time>
</trkpt>
<trkpt lat="46.239150000" lon="7.355830000">
  <ele>588.575010</ele>
  <time>2012-05-28T12:48:57Z</time>
</trkpt>
<trkpt lat="46.239120000" lon="7.355790000">
  <ele>588.850040</ele>
  <time>2012-05-28T12:48:58Z</time>
</trkpt>
<trkpt lat="46.239100000" lon="7.355750000">
  <ele>589.125000</ele>
  <time>2012-05-28T12:48:59Z</time>
</trkpt>
<trkpt lat="46.239080000" lon="7.355710000">
  <ele>589.400020</ele>
  <time>2012-05-28T12:49:00Z</time>
</trkpt>
<trkpt lat="46.239070000" lon="7.355670000">
  <ele>589.400020</ele>
  <time>2012-05-28T12:49:01Z</time>
</trkpt>
<trkpt lat="46.239000000" lon="7.355490000">
  <ele>590.435300</ele>
  <time>2012-05-28T12:49:05Z</time>
</trkpt>
<trkpt lat="46.238980000" lon="7.355450000">
  <ele>590.694150</ele>
  <time>2012-05-28T12:49:06Z</time>
</trkpt>
<trkpt lat="46.238960000" lon="7.355410000">
  <ele>590.952940</ele>
  <time>2012-05-28T12:49:07Z</time>
</trkpt>
<trkpt lat="46.238940000" lon="7.355370000">
  <ele>591.211790</ele>
  <time>2012-05-28T12:49:08Z</time>
</trkpt>
<trkpt lat="46.238910000" lon="7.355330000">
  <ele>591.470580</ele>
  <time>2012-05-28T12:49:09Z</time>
</trkpt>
<trkpt lat="46.238820000" lon="7.355120000">
  <ele>592.764710</ele>
  <time>2012-05-28T12:49:14Z</time>
</trkpt>
<trkpt lat="46.238800000" lon="7.355080000">
  <ele>593.023500</ele>
  <time>2012-05-28T12:49:15Z</time>
</trkpt>
<trkpt lat="46.238780000" lon="7.355040000">
  <ele>593.282350</ele>
  <time>2012-05-28T12:49:16Z</time>
</trkpt>
<trkpt lat="46.238770000" lon="7.355000000">
  <ele>593.541140</ele>
  <time>2012-05-28T12:49:17Z</time>
</trkpt>
<trkpt lat="46.238740000" lon="7.354970000">
  <ele>593.799990</ele>
  <time>2012-05-28T12:49:18Z</time>
</trkpt>
<trkpt lat="46.238610000" lon="7.354700000">
  <ele>593.799990</ele>
  <time>2012-05-28T12:49:25Z</time>
</trkpt>
<trkpt lat="46.238590000" lon="7.354660000">
  <ele>594.239990</ele>
  <time>2012-05-28T12:49:26Z</time>
</trkpt>
<trkpt lat="46.238570000" lon="7.354620000">
  <ele>594.679990</ele>
  <time>2012-05-28T12:49:27Z</time>
</trkpt>
<trkpt lat="46.238550000" lon="7.354580000">
  <ele>595.120000</ele>
  <time>2012-05-28T12:49:28Z</time>
</trkpt>
<trkpt lat="46.238530000" lon="7.354540000">
  <ele>595.560000</ele>
  <time>2012-05-28T12:49:29Z</time>
</trkpt>
<trkpt lat="46.238500000" lon="7.354500000">
  <ele>596.000000</ele>
  <time>2012-05-28T12:49:30Z</time>
</trkpt>
<trkpt lat="46.238460000" lon="7.354420000">
  <ele>596.000000</ele>
  <time>2012-05-28T12:49:32Z</time>
</trkpt>
<trkpt lat="46.238420000" lon="7.354340000">
  <ele>596.666690</ele>
  <time>2012-05-28T12:49:34Z</time>
</trkpt>
<trkpt lat="46.238400000" lon="7.354290000">
  <ele>597.000000</ele>
  <time>2012-05-28T12:49:35Z</time>
</trkpt>
<trkpt lat="46.238380000" lon="7.354260000">
  <ele>597.333310</ele>
  <time>2012-05-28T12:49:36Z</time>
</trkpt>
<trkpt lat="46.238350000" lon="7.354210000">
  <ele>597.666690</ele>
  <time>2012-05-28T12:49:37Z</time>
</trkpt>
<trkpt lat="46.238330000" lon="7.354180000">
  <ele>598.000000</ele>
  <time>2012-05-28T12:49:38Z</time>
</trkpt>
<trkpt lat="46.238290000" lon="7.354100000">
  <ele>598.000000</ele>
  <time>2012-05-28T12:49:40Z</time>
</trkpt>
<trkpt lat="46.238080000" lon="7.353760000">
  <ele>599.200010</ele>
  <time>2012-05-28T12:49:49Z</time>
</trkpt>
<trkpt lat="46.238030000" lon="7.353680000">
  <ele>599.466670</ele>
  <time>2012-05-28T12:49:51Z</time>
</trkpt>
<trkpt lat="46.238010000" lon="7.353640000">
  <ele>599.599980</ele>
  <time>2012-05-28T12:49:52Z</time>
</trkpt>
<trkpt lat="46.237990000" lon="7.353590000">
  <ele>599.733340</ele>
  <time>2012-05-28T12:49:53Z</time>
</trkpt>
<trkpt lat="46.237970000" lon="7.353550000">
  <ele>599.866640</ele>
  <time>2012-05-28T12:49:54Z</time>
</trkpt>
<trkpt lat="46.237950000" lon="7.353510000">
  <ele>600.000000</ele>
  <time>2012-05-28T12:49:55Z</time>
</trkpt>
<trkpt lat="46.237880000" lon="7.353390000">
  <ele>600.000000</ele>
  <time>2012-05-28T12:49:58Z</time>
</trkpt>
<trkpt lat="46.237740000" lon="7.353150000">
  <ele>600.923100</ele>
  <time>2012-05-28T12:50:04Z</time>
</trkpt>
<trkpt lat="46.237710000" lon="7.353070000">
  <ele>601.230770</ele>
  <time>2012-05-28T12:50:06Z</time>
</trkpt>
<trkpt lat="46.237680000" lon="7.353020000">
  <ele>601.384640</ele>
  <time>2012-05-28T12:50:07Z</time>
</trkpt>
<trkpt lat="46.237660000" lon="7.352970000">
  <ele>601.538450</ele>
  <time>2012-05-28T12:50:08Z</time>
</trkpt>
<trkpt lat="46.237640000" lon="7.352930000">
  <ele>601.692320</ele>
  <time>2012-05-28T12:50:09Z</time>
</trkpt>
<trkpt lat="46.237620000" lon="7.352890000">
  <ele>601.846130</ele>
  <time>2012-05-28T12:50:10Z</time>
</trkpt>
<trkpt lat="46.237600000" lon="7.352840000">
  <ele>602.000000</ele>
  <time>2012-05-28T12:50:11Z</time>
</trkpt>
<trkpt lat="46.237520000" lon="7.352680000">
  <ele>602.000000</ele>
  <time>2012-05-28T12:50:15Z</time>
</trkpt>
<trkpt lat="46.237510000" lon="7.352640000">
  <ele>602.440000</ele>
  <time>2012-05-28T12:50:16Z</time>
</trkpt>
<trkpt lat="46.237490000" lon="7.352590000">
  <ele>602.880000</ele>
  <time>2012-05-28T12:50:17Z</time>
</trkpt>
<trkpt lat="46.237480000" lon="7.352540000">
  <ele>603.320010</ele>
  <time>2012-05-28T12:50:18Z</time>
</trkpt>
<trkpt lat="46.237450000" lon="7.352500000">
  <ele>603.760010</ele>
  <time>2012-05-28T12:50:19Z</time>
</trkpt>
<trkpt lat="46.237440000" lon="7.352450000">
  <ele>604.200010</ele>
  <time>2012-05-28T12:50:20Z</time>
</trkpt>
<trkpt lat="46.237430000" lon="7.352400000">
  <ele>604.200010</ele>
  <time>2012-05-28T12:50:21Z</time>
</trkpt>
<trkpt lat="46.237340000" lon="7.352080000">
  <ele>605.600040</ele>
  <time>2012-05-28T12:50:28Z</time>
</trkpt>
<trkpt lat="46.237320000" lon="7.352030000">
  <ele>605.800050</ele>
  <time>2012-05-28T12:50:29Z</time>
</trkpt>
<trkpt lat="46.237300000" lon="7.351990000">
  <ele>606.000000</ele>
  <time>2012-05-28T12:50:30Z</time>
</trkpt>
<trkpt lat="46.237290000" lon="7.351950000">
  <ele>606.200010</ele>
  <time>2012-05-28T12:50:31Z</time>
</trkpt>
<trkpt lat="46.237280000" lon="7.351900000">
  <ele>606.400020</ele>
  <time>2012-05-28T12:50:32Z</time>
</trkpt>
<trkpt lat="46.237250000" lon="7.351790000">
  <ele>606.400020</ele>
  <time>2012-05-28T12:50:35Z</time>
</trkpt>
<trkpt lat="46.237210000" lon="7.351660000">
  <ele>607.428590</ele>
  <time>2012-05-28T12:50:38Z</time>
</trkpt>
<trkpt lat="46.237200000" lon="7.351610000">
  <ele>607.771420</ele>
  <time>2012-05-28T12:50:39Z</time>
</trkpt>
<trkpt lat="46.237190000" lon="7.351560000">
  <ele>608.114260</ele>
  <time>2012-05-28T12:50:40Z</time>
</trkpt>
<trkpt lat="46.237180000" lon="7.351520000">
  <ele>608.457150</ele>
  <time>2012-05-28T12:50:41Z</time>
</trkpt>
<trkpt lat="46.237180000" lon="7.351480000">
  <ele>608.799990</ele>
  <time>2012-05-28T12:50:42Z</time>
</trkpt>
<trkpt lat="46.237150000" lon="7.351360000">
  <ele>608.799990</ele>
  <time>2012-05-28T12:50:45Z</time>
</trkpt>
<trkpt lat="46.237110000" lon="7.351170000">
  <ele>609.563600</ele>
  <time>2012-05-28T12:50:49Z</time>
</trkpt>
<trkpt lat="46.237040000" lon="7.350970000">
  <ele>610.518190</ele>
  <time>2012-05-28T12:50:54Z</time>
</trkpt>
<trkpt lat="46.237040000" lon="7.350920000">
  <ele>610.709110</ele>
  <time>2012-05-28T12:50:55Z</time>
</trkpt>
<trkpt lat="46.237030000" lon="7.350870000">
  <ele>610.900020</ele>
  <time>2012-05-28T12:50:56Z</time>
</trkpt>
<trkpt lat="46.237010000" lon="7.350830000">
  <ele>611.090880</ele>
  <time>2012-05-28T12:50:57Z</time>
</trkpt>
<trkpt lat="46.237000000" lon="7.350780000">
  <ele>611.281800</ele>
  <time>2012-05-28T12:50:58Z</time>
</trkpt>
<trkpt lat="46.236930000" lon="7.350570000">
  <ele>612.236390</ele>
  <time>2012-05-28T12:51:03Z</time>
</trkpt>
<trkpt lat="46.236920000" lon="7.350530000">
  <ele>612.427250</ele>
  <time>2012-05-28T12:51:04Z</time>
</trkpt>
<trkpt lat="46.236910000" lon="7.350490000">
  <ele>612.618160</ele>
  <time>2012-05-28T12:51:05Z</time>
</trkpt>
<trkpt lat="46.236910000" lon="7.350440000">
  <ele>612.809080</ele>
  <time>2012-05-28T12:51:06Z</time>
</trkpt>
<trkpt lat="46.236900000" lon="7.350390000">
  <ele>613.000000</ele>
  <time>2012-05-28T12:51:07Z</time>
</trkpt>
<trkpt lat="46.236880000" lon="7.350290000">
  <ele>613.000000</ele>
  <time>2012-05-28T12:51:09Z</time>
</trkpt>
<trkpt lat="46.236850000" lon="7.350200000">
  <ele>613.733340</ele>
  <time>2012-05-28T12:51:11Z</time>
</trkpt>
<trkpt lat="46.236840000" lon="7.350160000">
  <ele>614.099980</ele>
  <time>2012-05-28T12:51:12Z</time>
</trkpt>
<trkpt lat="46.236830000" lon="7.350120000">
  <ele>614.466670</ele>
  <time>2012-05-28T12:51:13Z</time>
</trkpt>
<trkpt lat="46.236820000" lon="7.350080000">
  <ele>614.833370</ele>
  <time>2012-05-28T12:51:14Z</time>
</trkpt>
<trkpt lat="46.236810000" lon="7.350040000">
  <ele>615.200010</ele>
  <time>2012-05-28T12:51:15Z</time>
</trkpt>
<trkpt lat="46.236800000" lon="7.350000000">
  <ele>615.200010</ele>
  <time>2012-05-28T12:51:16Z</time>
</trkpt>
<trkpt lat="46.236770000" lon="7.349880000">
  <ele>616.228580</ele>
  <time>2012-05-28T12:51:19Z</time>
</trkpt>
<trkpt lat="46.236760000" lon="7.349840000">
  <ele>616.571410</ele>
  <time>2012-05-28T12:51:20Z</time>
</trkpt>
<trkpt lat="46.236740000" lon="7.349800000">
  <ele>616.914250</ele>
  <time>2012-05-28T12:51:21Z</time>
</trkpt>
<trkpt lat="46.236730000" lon="7.349760000">
  <ele>617.257140</ele>
  <time>2012-05-28T12:51:22Z</time>
</trkpt>
<trkpt lat="46.236720000" lon="7.349720000">
  <ele>617.599980</ele>
  <time>2012-05-28T12:51:23Z</time>
</trkpt>
<trkpt lat="46.236700000" lon="7.349680000">
  <ele>617.599980</ele>
  <time>2012-05-28T12:51:24Z</time>
</trkpt>
<trkpt lat="46.236630000" lon="7.349450000">
  <ele>618.699950</ele>
  <time>2012-05-28T12:51:30Z</time>
</trkpt>
<trkpt lat="46.236610000" lon="7.349370000">
  <ele>619.066650</ele>
  <time>2012-05-28T12:51:32Z</time>
</trkpt>
<trkpt lat="46.236590000" lon="7.349330000">
  <ele>619.250000</ele>
  <time>2012-05-28T12:51:33Z</time>
</trkpt>
<trkpt lat="46.236580000" lon="7.349290000">
  <ele>619.433350</ele>
  <time>2012-05-28T12:51:34Z</time>
</trkpt>
<trkpt lat="46.236560000" lon="7.349260000">
  <ele>619.616640</ele>
  <time>2012-05-28T12:51:35Z</time>
</trkpt>
<trkpt lat="46.236550000" lon="7.349220000">
  <ele>619.799990</ele>
  <time>2012-05-28T12:51:36Z</time>
</trkpt>
<trkpt lat="46.236520000" lon="7.349130000">
  <ele>619.799990</ele>
  <time>2012-05-28T12:51:38Z</time>
</trkpt>
<trkpt lat="46.236460000" lon="7.348990000">
  <ele>620.900020</ele>
  <time>2012-05-28T12:51:42Z</time>
</trkpt>
<trkpt lat="46.236450000" lon="7.348950000">
  <ele>621.174990</ele>
  <time>2012-05-28T12:51:43Z</time>
</trkpt>
<trkpt lat="46.236430000" lon="7.348910000">
  <ele>621.450010</ele>
  <time>2012-05-28T12:51:44Z</time>
</trkpt>
<trkpt lat="46.236420000" lon="7.348870000">
  <ele>621.724980</ele>
  <time>2012-05-28T12:51:45Z</time>
</trkpt>
<trkpt lat="46.236400000" lon="7.348830000">
  <ele>622.000000</ele>
  <time>2012-05-28T12:51:46Z</time>
</trkpt>
<trkpt lat="46.236310000" lon="7.348620000">
  <ele>622.000000</ele>
  <time>2012-05-28T12:51:52Z</time>
</trkpt>
<trkpt lat="46.236230000" lon="7.348430000">
  <ele>623.222230</ele>
  <time>2012-05-28T12:51:57Z</time>
</trkpt>
<trkpt lat="46.236220000" lon="7.348400000">
  <ele>623.466670</ele>
  <time>2012-05-28T12:51:58Z</time>
</trkpt>
<trkpt lat="46.236200000" lon="7.348360000">
  <ele>623.711120</ele>
  <time>2012-05-28T12:51:59Z</time>
</trkpt>
<trkpt lat="46.236180000" lon="7.348320000">
  <ele>623.955570</ele>
  <time>2012-05-28T12:52:00Z</time>
</trkpt>
<trkpt lat="46.236170000" lon="7.348290000">
  <ele>624.200010</ele>
  <time>2012-05-28T12:52:01Z</time>
</trkpt>
<trkpt lat="46.236090000" lon="7.348080000">
  <ele>625.666630</ele>
  <time>2012-05-28T12:52:07Z</time>
</trkpt>
<trkpt lat="46.236070000" lon="7.348040000">
  <ele>625.911070</ele>
  <time>2012-05-28T12:52:08Z</time>
</trkpt>
<trkpt lat="46.236060000" lon="7.348000000">
  <ele>626.155520</ele>
  <time>2012-05-28T12:52:09Z</time>
</trkpt>
<trkpt lat="46.236050000" lon="7.347970000">
  <ele>626.399960</ele>
  <time>2012-05-28T12:52:10Z</time>
</trkpt>
<trkpt lat="46.236040000" lon="7.347930000">
  <ele>626.644410</ele>
  <time>2012-05-28T12:52:11Z</time>
</trkpt>
<trkpt lat="46.235980000" lon="7.347780000">
  <ele>627.622190</ele>
  <time>2012-05-28T12:52:15Z</time>
</trkpt>
<trkpt lat="46.235970000" lon="7.347740000">
  <ele>627.866640</ele>
  <time>2012-05-28T12:52:16Z</time>
</trkpt>
<trkpt lat="46.235960000" lon="7.347700000">
  <ele>628.111080</ele>
  <time>2012-05-28T12:52:17Z</time>
</trkpt>
<trkpt lat="46.235950000" lon="7.347660000">
  <ele>628.355530</ele>
  <time>2012-05-28T12:52:18Z</time>
</trkpt>
<trkpt lat="46.235940000" lon="7.347620000">
  <ele>628.599980</ele>
  <time>2012-05-28T12:52:19Z</time>
</trkpt>
<trkpt lat="46.235890000" lon="7.347410000">
  <ele>628.599980</ele>
  <time>2012-05-28T12:52:24Z</time>
</trkpt>
<trkpt lat="46.235870000" lon="7.347300000">
  <ele>629.542850</ele>
  <time>2012-05-28T12:52:27Z</time>
</trkpt>
<trkpt lat="46.235860000" lon="7.347250000">
  <ele>629.857120</ele>
  <time>2012-05-28T12:52:28Z</time>
</trkpt>
<trkpt lat="46.235860000" lon="7.347210000">
  <ele>630.171390</ele>
  <time>2012-05-28T12:52:29Z</time>
</trkpt>
<trkpt lat="46.235850000" lon="7.347170000">
  <ele>630.485720</ele>
  <time>2012-05-28T12:52:30Z</time>
</trkpt>
<trkpt lat="46.235840000" lon="7.347140000">
  <ele>630.799990</ele>
  <time>2012-05-28T12:52:31Z</time>
</trkpt>
<trkpt lat="46.235830000" lon="7.347070000">
  <ele>630.799990</ele>
  <time>2012-05-28T12:52:33Z</time>
</trkpt>
<trkpt lat="46.235820000" lon="7.347010000">
  <ele>631.533330</ele>
  <time>2012-05-28T12:52:35Z</time>
</trkpt>
<trkpt lat="46.235810000" lon="7.346970000">
  <ele>631.900020</ele>
  <time>2012-05-28T12:52:36Z</time>
</trkpt>
<trkpt lat="46.235810000" lon="7.346940000">
  <ele>632.266660</ele>
  <time>2012-05-28T12:52:37Z</time>
</trkpt>
<trkpt lat="46.235810000" lon="7.346890000">
  <ele>632.633300</ele>
  <time>2012-05-28T12:52:38Z</time>
</trkpt>
<trkpt lat="46.235810000" lon="7.346860000">
  <ele>633.000000</ele>
  <time>2012-05-28T12:52:39Z</time>
</trkpt>
<trkpt lat="46.235750000" lon="7.346630000">
  <ele>633.000000</ele>
  <time>2012-05-28T12:52:45Z</time>
</trkpt>
<trkpt lat="46.235720000" lon="7.346500000">
  <ele>633.840030</ele>
  <time>2012-05-28T12:52:48Z</time>
</trkpt>
<trkpt lat="46.235710000" lon="7.346470000">
  <ele>634.120000</ele>
  <time>2012-05-28T12:52:49Z</time>
</trkpt>
<trkpt lat="46.235700000" lon="7.346430000">
  <ele>634.400020</ele>
  <time>2012-05-28T12:52:50Z</time>
</trkpt>
<trkpt lat="46.235690000" lon="7.346380000">
  <ele>634.679990</ele>
  <time>2012-05-28T12:52:51Z</time>
</trkpt>
<trkpt lat="46.235690000" lon="7.346350000">
  <ele>634.960020</ele>
  <time>2012-05-28T12:52:52Z</time>
</trkpt>
<trkpt lat="46.235630000" lon="7.346200000">
  <ele>636.080020</ele>
  <time>2012-05-28T12:52:56Z</time>
</trkpt>
<trkpt lat="46.235620000" lon="7.346160000">
  <ele>636.359990</ele>
  <time>2012-05-28T12:52:57Z</time>
</trkpt>
<trkpt lat="46.235610000" lon="7.346120000">
  <ele>636.640010</ele>
  <time>2012-05-28T12:52:58Z</time>
</trkpt>
<trkpt lat="46.235590000" lon="7.346080000">
  <ele>636.919980</ele>
  <time>2012-05-28T12:52:59Z</time>
</trkpt>
<trkpt lat="46.235580000" lon="7.346050000">
  <ele>637.200010</ele>
  <time>2012-05-28T12:53:00Z</time>
</trkpt>
<trkpt lat="46.235520000" lon="7.345840000">
  <ele>637.200010</ele>
  <time>2012-05-28T12:53:05Z</time>
</trkpt>
<trkpt lat="46.235490000" lon="7.345760000">
  <ele>637.933350</ele>
  <time>2012-05-28T12:53:07Z</time>
</trkpt>
<trkpt lat="46.235490000" lon="7.345720000">
  <ele>638.300050</ele>
  <time>2012-05-28T12:53:08Z</time>
</trkpt>
<trkpt lat="46.235480000" lon="7.345680000">
  <ele>638.666690</ele>
  <time>2012-05-28T12:53:09Z</time>
</trkpt>
<trkpt lat="46.235470000" lon="7.345640000">
  <ele>639.033330</ele>
  <time>2012-05-28T12:53:10Z</time>
</trkpt>
<trkpt lat="46.235460000" lon="7.345600000">
  <ele>639.400020</ele>
  <time>2012-05-28T12:53:11Z</time>
</trkpt>
<trkpt lat="46.235420000" lon="7.345450000">
  <ele>639.400020</ele>
  <time>2012-05-28T12:53:15Z</time>
</trkpt>
<trkpt lat="46.235370000" lon="7.345220000">
  <ele>640.794620</ele>
  <time>2012-05-28T12:53:21Z</time>
</trkpt>
<trkpt lat="46.235360000" lon="7.345180000">
  <ele>641.027040</ele>
  <time>2012-05-28T12:53:22Z</time>
</trkpt>
<trkpt lat="46.235360000" lon="7.345140000">
  <ele>641.259460</ele>
  <time>2012-05-28T12:53:23Z</time>
</trkpt>
<trkpt lat="46.235350000" lon="7.345100000">
  <ele>641.491880</ele>
  <time>2012-05-28T12:53:24Z</time>
</trkpt>
<trkpt lat="46.235340000" lon="7.345060000">
  <ele>641.724370</ele>
  <time>2012-05-28T12:53:25Z</time>
</trkpt>
<trkpt lat="46.235320000" lon="7.344930000">
  <ele>642.421630</ele>
  <time>2012-05-28T12:53:28Z</time>
</trkpt>
<trkpt lat="46.235310000" lon="7.344890000">
  <ele>642.654050</ele>
  <time>2012-05-28T12:53:29Z</time>
</trkpt>
<trkpt lat="46.235310000" lon="7.344850000">
  <ele>642.886470</ele>
  <time>2012-05-28T12:53:30Z</time>
</trkpt>
<trkpt lat="46.235310000" lon="7.344810000">
  <ele>643.118960</ele>
  <time>2012-05-28T12:53:31Z</time>
</trkpt>
<trkpt lat="46.235300000" lon="7.344770000">
  <ele>643.351380</ele>
  <time>2012-05-28T12:53:32Z</time>
</trkpt>
<trkpt lat="46.235260000" lon="7.344490000">
  <ele>644.978390</ele>
  <time>2012-05-28T12:53:39Z</time>
</trkpt>
<trkpt lat="46.235250000" lon="7.344450000">
  <ele>645.210820</ele>
  <time>2012-05-28T12:53:40Z</time>
</trkpt>
<trkpt lat="46.235250000" lon="7.344410000">
  <ele>645.443240</ele>
  <time>2012-05-28T12:53:41Z</time>
</trkpt>
<trkpt lat="46.235240000" lon="7.344370000">
  <ele>645.675660</ele>
  <time>2012-05-28T12:53:42Z</time>
</trkpt>
<trkpt lat="46.235240000" lon="7.344320000">
  <ele>645.908140</ele>
  <time>2012-05-28T12:53:43Z</time>
</trkpt>
<trkpt lat="46.235220000" lon="7.344050000">
  <ele>647.302730</ele>
  <time>2012-05-28T12:53:49Z</time>
</trkpt>
<trkpt lat="46.235220000" lon="7.344000000">
  <ele>647.535160</ele>
  <time>2012-05-28T12:53:50Z</time>
</trkpt>
<trkpt lat="46.235210000" lon="7.343960000">
  <ele>647.767580</ele>
  <time>2012-05-28T12:53:51Z</time>
</trkpt>
<trkpt lat="46.235210000" lon="7.343910000">
  <ele>648.000000</ele>
  <time>2012-05-28T12:53:52Z</time>
</trkpt>
<trkpt lat="46.235210000" lon="7.343640000">
  <ele>648.000000</ele>
  <time>2012-05-28T12:53:58Z</time>
</trkpt>
<trkpt lat="46.235220000" lon="7.343240000">
  <ele>649.353880</ele>
  <time>2012-05-28T12:54:06Z</time>
</trkpt>
<trkpt lat="46.235220000" lon="7.343190000">
  <ele>649.523070</ele>
  <time>2012-05-28T12:54:07Z</time>
</trkpt>
<trkpt lat="46.235230000" lon="7.343140000">
  <ele>649.692320</ele>
  <time>2012-05-28T12:54:08Z</time>
</trkpt>
<trkpt lat="46.235230000" lon="7.343090000">
  <ele>649.861570</ele>
  <time>2012-05-28T12:54:09Z</time>
</trkpt>
<trkpt lat="46.235230000" lon="7.343030000">
  <ele>650.030760</ele>
  <time>2012-05-28T12:54:10Z</time>
</trkpt>
<trkpt lat="46.235230000" lon="7.342980000">
  <ele>650.200010</ele>
  <time>2012-05-28T12:54:11Z</time>
</trkpt>
<trkpt lat="46.235230000" lon="7.342840000">
  <ele>650.200010</ele>
  <time>2012-05-28T12:54:14Z</time>
</trkpt>
<trkpt lat="46.235230000" lon="7.342700000">
  <ele>651.057130</ele>
  <time>2012-05-28T12:54:17Z</time>
</trkpt>
<trkpt lat="46.235230000" lon="7.342650000">
  <ele>651.342900</ele>
  <time>2012-05-28T12:54:18Z</time>
</trkpt>
<trkpt lat="46.235240000" lon="7.342590000">
  <ele>651.628600</ele>
  <time>2012-05-28T12:54:19Z</time>
</trkpt>
<trkpt lat="46.235240000" lon="7.342540000">
  <ele>651.914310</ele>
  <time>2012-05-28T12:54:20Z</time>
</trkpt>
<trkpt lat="46.235240000" lon="7.342490000">
  <ele>652.200010</ele>
  <time>2012-05-28T12:54:21Z</time>
</trkpt>
<trkpt lat="46.235240000" lon="7.342440000">
  <ele>652.200010</ele>
  <time>2012-05-28T12:54:22Z</time>
</trkpt>
<trkpt lat="46.235240000" lon="7.342120000">
  <ele>653.483340</ele>
  <time>2012-05-28T12:54:29Z</time>
</trkpt>
<trkpt lat="46.235240000" lon="7.341840000">
  <ele>654.583310</ele>
  <time>2012-05-28T12:54:35Z</time>
</trkpt>
<trkpt lat="46.235240000" lon="7.341790000">
  <ele>654.766660</ele>
  <time>2012-05-28T12:54:36Z</time>
</trkpt>
<trkpt lat="46.235230000" lon="7.341740000">
  <ele>654.950010</ele>
  <time>2012-05-28T12:54:37Z</time>
</trkpt>
<trkpt lat="46.235230000" lon="7.341700000">
  <ele>655.133300</ele>
  <time>2012-05-28T12:54:38Z</time>
</trkpt>
<trkpt lat="46.235220000" lon="7.341650000">
  <ele>655.316650</ele>
  <time>2012-05-28T12:54:39Z</time>
</trkpt>
<trkpt lat="46.235210000" lon="7.341500000">
  <ele>655.866640</ele>
  <time>2012-05-28T12:54:42Z</time>
</trkpt>
<trkpt lat="46.235210000" lon="7.341450000">
  <ele>656.049990</ele>
  <time>2012-05-28T12:54:43Z</time>
</trkpt>
<trkpt lat="46.235200000" lon="7.341400000">
  <ele>656.233340</ele>
  <time>2012-05-28T12:54:44Z</time>
</trkpt>
<trkpt lat="46.235200000" lon="7.341360000">
  <ele>656.416630</ele>
  <time>2012-05-28T12:54:45Z</time>
</trkpt>
<trkpt lat="46.235200000" lon="7.341310000">
  <ele>656.599980</ele>
  <time>2012-05-28T12:54:46Z</time>
</trkpt>
<trkpt lat="46.235160000" lon="7.341060000">
  <ele>656.599980</ele>
  <time>2012-05-28T12:54:52Z</time>
</trkpt>
<trkpt lat="46.235160000" lon="7.341020000">
  <ele>657.039980</ele>
  <time>2012-05-28T12:54:53Z</time>
</trkpt>
<trkpt lat="46.235160000" lon="7.340970000">
  <ele>657.479980</ele>
  <time>2012-05-28T12:54:54Z</time>
</trkpt>
<trkpt lat="46.235150000" lon="7.340920000">
  <ele>657.919980</ele>
  <time>2012-05-28T12:54:55Z</time>
</trkpt>
<trkpt lat="46.235150000" lon="7.340880000">
  <ele>658.359990</ele>
  <time>2012-05-28T12:54:56Z</time>
</trkpt>
<trkpt lat="46.235140000" lon="7.340830000">
  <ele>658.799990</ele>
  <time>2012-05-28T12:54:57Z</time>
</trkpt>
<trkpt lat="46.235130000" lon="7.340740000">
  <ele>658.799990</ele>
  <time>2012-05-28T12:54:59Z</time>
</trkpt>
<trkpt lat="46.235090000" lon="7.340450000">
  <ele>660.133300</ele>
  <time>2012-05-28T12:55:05Z</time>
</trkpt>
<trkpt lat="46.235080000" lon="7.340400000">
  <ele>660.355530</ele>
  <time>2012-05-28T12:55:06Z</time>
</trkpt>
<trkpt lat="46.235080000" lon="7.340350000">
  <ele>660.577760</ele>
  <time>2012-05-28T12:55:07Z</time>
</trkpt>
<trkpt lat="46.235080000" lon="7.340310000">
  <ele>660.799990</ele>
  <time>2012-05-28T12:55:08Z</time>
</trkpt>
<trkpt lat="46.235070000" lon="7.340000000">
  <ele>660.799990</ele>
  <time>2012-05-28T12:55:14Z</time>
</trkpt>
<trkpt lat="46.235080000" lon="7.339770000">
  <ele>662.022220</ele>
  <time>2012-05-28T12:55:19Z</time>
</trkpt>
<trkpt lat="46.235090000" lon="7.339720000">
  <ele>662.266660</ele>
  <time>2012-05-28T12:55:20Z</time>
</trkpt>
<trkpt lat="46.235090000" lon="7.339670000">
  <ele>662.511110</ele>
  <time>2012-05-28T12:55:21Z</time>
</trkpt>
<trkpt lat="46.235100000" lon="7.339630000">
  <ele>662.755550</ele>
  <time>2012-05-28T12:55:22Z</time>
</trkpt>
<trkpt lat="46.235110000" lon="7.339580000">
  <ele>663.000000</ele>
  <time>2012-05-28T12:55:23Z</time>
</trkpt>
<trkpt lat="46.235150000" lon="7.339380000">
  <ele>663.000000</ele>
  <time>2012-05-28T12:55:27Z</time>
</trkpt>
<trkpt lat="46.235240000" lon="7.339080000">
  <ele>664.272710</ele>
  <time>2012-05-28T12:55:34Z</time>
</trkpt>
<trkpt lat="46.235250000" lon="7.339030000">
  <ele>664.454530</ele>
  <time>2012-05-28T12:55:35Z</time>
</trkpt>
<trkpt lat="46.235260000" lon="7.338990000">
  <ele>664.636350</ele>
  <time>2012-05-28T12:55:36Z</time>
</trkpt>
<trkpt lat="46.235280000" lon="7.338950000">
  <ele>664.818180</ele>
  <time>2012-05-28T12:55:37Z</time>
</trkpt>
<trkpt lat="46.235290000" lon="7.338910000">
  <ele>665.000000</ele>
  <time>2012-05-28T12:55:38Z</time>
</trkpt>
<trkpt lat="46.235360000" lon="7.338750000">
  <ele>665.000000</ele>
  <time>2012-05-28T12:55:42Z</time>
</trkpt>
<trkpt lat="46.235370000" lon="7.338700000">
  <ele>665.400020</ele>
  <time>2012-05-28T12:55:43Z</time>
</trkpt>
<trkpt lat="46.235390000" lon="7.338670000">
  <ele>665.799990</ele>
  <time>2012-05-28T12:55:44Z</time>
</trkpt>
<trkpt lat="46.235400000" lon="7.338630000">
  <ele>666.200010</ele>
  <time>2012-05-28T12:55:45Z</time>
</trkpt>
<trkpt lat="46.235420000" lon="7.338590000">
  <ele>666.599980</ele>
  <time>2012-05-28T12:55:46Z</time>
</trkpt>
<trkpt lat="46.235440000" lon="7.338550000">
  <ele>667.000000</ele>
  <time>2012-05-28T12:55:47Z</time>
</trkpt>
<trkpt lat="46.235480000" lon="7.338470000">
  <ele>667.000000</ele>
  <time>2012-05-28T12:55:49Z</time>
</trkpt>
<trkpt lat="46.235550000" lon="7.338310000">
  <ele>667.906680</ele>
  <time>2012-05-28T12:55:53Z</time>
</trkpt>
<trkpt lat="46.235570000" lon="7.338280000">
  <ele>668.133300</ele>
  <time>2012-05-28T12:55:54Z</time>
</trkpt>
<trkpt lat="46.235580000" lon="7.338240000">
  <ele>668.359990</ele>
  <time>2012-05-28T12:55:55Z</time>
</trkpt>
<trkpt lat="46.235600000" lon="7.338210000">
  <ele>668.586670</ele>
  <time>2012-05-28T12:55:56Z</time>
</trkpt>
<trkpt lat="46.235810000" lon="7.337920000">
  <ele>670.400020</ele>
  <time>2012-05-28T12:56:04Z</time>
</trkpt>
<trkpt lat="46.235840000" lon="7.337880000">
  <ele>670.626650</ele>
  <time>2012-05-28T12:56:05Z</time>
</trkpt>
<trkpt lat="46.235860000" lon="7.337850000">
  <ele>670.853330</ele>
  <time>2012-05-28T12:56:06Z</time>
</trkpt>
<trkpt lat="46.235880000" lon="7.337820000">
  <ele>671.080020</ele>
  <time>2012-05-28T12:56:07Z</time>
</trkpt>
<trkpt lat="46.235900000" lon="7.337780000">
  <ele>671.306640</ele>
  <time>2012-05-28T12:56:08Z</time>
</trkpt>
<trkpt lat="46.236050000" lon="7.337510000">
  <ele>672.893310</ele>
  <time>2012-05-28T12:56:15Z</time>
</trkpt>
<trkpt lat="46.236070000" lon="7.337470000">
  <ele>673.120000</ele>
  <time>2012-05-28T12:56:16Z</time>
</trkpt>
<trkpt lat="46.236080000" lon="7.337430000">
  <ele>673.346680</ele>
  <time>2012-05-28T12:56:17Z</time>
</trkpt>
<trkpt lat="46.236100000" lon="7.337390000">
  <ele>673.573300</ele>
  <time>2012-05-28T12:56:18Z</time>
</trkpt>
<trkpt lat="46.236120000" lon="7.337350000">
  <ele>673.799990</ele>
  <time>2012-05-28T12:56:19Z</time>
</trkpt>
<trkpt lat="46.236240000" lon="7.337060000">
  <ele>673.799990</ele>
  <time>2012-05-28T12:56:26Z</time>
</trkpt>
<trkpt lat="46.236250000" lon="7.337020000">
  <ele>674.239990</ele>
  <time>2012-05-28T12:56:27Z</time>
</trkpt>
<trkpt lat="46.236260000" lon="7.336970000">
  <ele>674.679990</ele>
  <time>2012-05-28T12:56:28Z</time>
</trkpt>
<trkpt lat="46.236280000" lon="7.336930000">
  <ele>675.120000</ele>
  <time>2012-05-28T12:56:29Z</time>
</trkpt>
<trkpt lat="46.236290000" lon="7.336880000">
  <ele>675.560000</ele>
  <time>2012-05-28T12:56:30Z</time>
</trkpt>
<trkpt lat="46.236310000" lon="7.336830000">
  <ele>676.000000</ele>
  <time>2012-05-28T12:56:31Z</time>
</trkpt>
<trkpt lat="46.236350000" lon="7.336640000">
  <ele>676.000000</ele>
  <time>2012-05-28T12:56:35Z</time>
</trkpt>
<trkpt lat="46.236370000" lon="7.336490000">
  <ele>676.942870</ele>
  <time>2012-05-28T12:56:38Z</time>
</trkpt>
<trkpt lat="46.236380000" lon="7.336450000">
  <ele>677.257140</ele>
  <time>2012-05-28T12:56:39Z</time>
</trkpt>
<trkpt lat="46.236390000" lon="7.336400000">
  <ele>677.571410</ele>
  <time>2012-05-28T12:56:40Z</time>
</trkpt>
<trkpt lat="46.236400000" lon="7.336360000">
  <ele>677.885740</ele>
  <time>2012-05-28T12:56:41Z</time>
</trkpt>
<trkpt lat="46.236400000" lon="7.336310000">
  <ele>678.200010</ele>
  <time>2012-05-28T12:56:42Z</time>
</trkpt>
<trkpt lat="46.236410000" lon="7.336260000">
  <ele>678.200010</ele>
  <time>2012-05-28T12:56:43Z</time>
</trkpt>
<trkpt lat="46.236450000" lon="7.335980000">
  <ele>679.640010</ele>
  <time>2012-05-28T12:56:49Z</time>
</trkpt>
<trkpt lat="46.236450000" lon="7.335930000">
  <ele>679.880000</ele>
  <time>2012-05-28T12:56:50Z</time>
</trkpt>
<trkpt lat="46.236460000" lon="7.335880000">
  <ele>680.120000</ele>
  <time>2012-05-28T12:56:51Z</time>
</trkpt>
<trkpt lat="46.236460000" lon="7.335830000">
  <ele>680.359990</ele>
  <time>2012-05-28T12:56:52Z</time>
</trkpt>
<trkpt lat="46.236470000" lon="7.335790000">
  <ele>680.599980</ele>
  <time>2012-05-28T12:56:53Z</time>
</trkpt>
<trkpt lat="46.236480000" lon="7.335500000">
  <ele>680.599980</ele>
  <time>2012-05-28T12:56:59Z</time>
</trkpt>
<trkpt lat="46.236500000" lon="7.335360000">
  <ele>681.457090</ele>
  <time>2012-05-28T12:57:02Z</time>
</trkpt>
<trkpt lat="46.236500000" lon="7.335310000">
  <ele>681.742860</ele>
  <time>2012-05-28T12:57:03Z</time>
</trkpt>
<trkpt lat="46.236500000" lon="7.335260000">
  <ele>682.028560</ele>
  <time>2012-05-28T12:57:04Z</time>
</trkpt>
<trkpt lat="46.236510000" lon="7.335220000">
  <ele>682.314270</ele>
  <time>2012-05-28T12:57:05Z</time>
</trkpt>
<trkpt lat="46.236520000" lon="7.335170000">
  <ele>682.599980</ele>
  <time>2012-05-28T12:57:06Z</time>
</trkpt>
<trkpt lat="46.236540000" lon="7.334990000">
  <ele>682.599980</ele>
  <time>2012-05-28T12:57:10Z</time>
</trkpt>
<trkpt lat="46.236600000" lon="7.334650000">
  <ele>684.000000</ele>
  <time>2012-05-28T12:57:17Z</time>
</trkpt>
<trkpt lat="46.236610000" lon="7.334610000">
  <ele>684.200010</ele>
  <time>2012-05-28T12:57:18Z</time>
</trkpt>
<trkpt lat="46.236620000" lon="7.334570000">
  <ele>684.399960</ele>
  <time>2012-05-28T12:57:19Z</time>
</trkpt>
<trkpt lat="46.236630000" lon="7.334520000">
  <ele>684.599980</ele>
  <time>2012-05-28T12:57:20Z</time>
</trkpt>
<trkpt lat="46.236640000" lon="7.334480000">
  <ele>684.799990</ele>
  <time>2012-05-28T12:57:21Z</time>
</trkpt>
<trkpt lat="46.236690000" lon="7.334340000">
  <ele>684.799990</ele>
  <time>2012-05-28T12:57:24Z</time>
</trkpt>
<trkpt lat="46.236730000" lon="7.334200000">
  <ele>685.657100</ele>
  <time>2012-05-28T12:57:27Z</time>
</trkpt>
<trkpt lat="46.236750000" lon="7.334150000">
  <ele>685.942870</ele>
  <time>2012-05-28T12:57:28Z</time>
</trkpt>
<trkpt lat="46.236760000" lon="7.334100000">
  <ele>686.228580</ele>
  <time>2012-05-28T12:57:29Z</time>
</trkpt>
<trkpt lat="46.236780000" lon="7.334050000">
  <ele>686.514280</ele>
  <time>2012-05-28T12:57:30Z</time>
</trkpt>
<trkpt lat="46.236790000" lon="7.334000000">
  <ele>686.799990</ele>
  <time>2012-05-28T12:57:31Z</time>
</trkpt>
<trkpt lat="46.236820000" lon="7.333900000">
  <ele>686.799990</ele>
  <time>2012-05-28T12:57:33Z</time>
</trkpt>
<trkpt lat="46.236940000" lon="7.333550000">
  <ele>687.331050</ele>
  <time>2012-05-28T12:57:40Z</time>
</trkpt>
<trkpt lat="46.237040000" lon="7.333160000">
  <ele>687.937930</ele>
  <time>2012-05-28T12:57:48Z</time>
</trkpt>
<trkpt lat="46.237070000" lon="7.333050000">
  <ele>688.089660</ele>
  <time>2012-05-28T12:57:50Z</time>
</trkpt>
<trkpt lat="46.237090000" lon="7.332950000">
  <ele>688.241390</ele>
  <time>2012-05-28T12:57:52Z</time>
</trkpt>
<trkpt lat="46.237110000" lon="7.332830000">
  <ele>688.393130</ele>
  <time>2012-05-28T12:57:54Z</time>
</trkpt>
<trkpt lat="46.237140000" lon="7.332590000">
  <ele>688.696530</ele>
  <time>2012-05-28T12:57:58Z</time>
</trkpt>
<trkpt lat="46.237140000" lon="7.332530000">
  <ele>688.772400</ele>
  <time>2012-05-28T12:57:59Z</time>
</trkpt>
<trkpt lat="46.237150000" lon="7.332480000">
  <ele>688.848270</ele>
  <time>2012-05-28T12:58:00Z</time>
</trkpt>
<trkpt lat="46.237150000" lon="7.332420000">
  <ele>688.924130</ele>
  <time>2012-05-28T12:58:01Z</time>
</trkpt>
<trkpt lat="46.237160000" lon="7.332360000">
  <ele>689.000000</ele>
  <time>2012-05-28T12:58:02Z</time>
</trkpt>
<trkpt lat="46.237160000" lon="7.332300000">
  <ele>689.000000</ele>
  <time>2012-05-28T12:58:03Z</time>
</trkpt>
<trkpt lat="46.237180000" lon="7.331860000">
  <ele>689.518490</ele>
  <time>2012-05-28T12:58:10Z</time>
</trkpt>
<trkpt lat="46.237240000" lon="7.331490000">
  <ele>689.962950</ele>
  <time>2012-05-28T12:58:16Z</time>
</trkpt>
<trkpt lat="46.237260000" lon="7.331440000">
  <ele>690.037050</ele>
  <time>2012-05-28T12:58:17Z</time>
</trkpt>
<trkpt lat="46.237390000" lon="7.331050000">
  <ele>690.555540</ele>
  <time>2012-05-28T12:58:24Z</time>
</trkpt>
<trkpt lat="46.237420000" lon="7.331010000">
  <ele>690.629640</ele>
  <time>2012-05-28T12:58:25Z</time>
</trkpt>
<trkpt lat="46.237440000" lon="7.330960000">
  <ele>690.703670</ele>
  <time>2012-05-28T12:58:26Z</time>
</trkpt>
<trkpt lat="46.237470000" lon="7.330910000">
  <ele>690.777770</ele>
  <time>2012-05-28T12:58:27Z</time>
</trkpt>
<trkpt lat="46.237500000" lon="7.330870000">
  <ele>690.851870</ele>
  <time>2012-05-28T12:58:28Z</time>
</trkpt>
<trkpt lat="46.237530000" lon="7.330830000">
  <ele>690.925900</ele>
  <time>2012-05-28T12:58:29Z</time>
</trkpt>
<trkpt lat="46.237560000" lon="7.330790000">
  <ele>691.000000</ele>
  <time>2012-05-28T12:58:30Z</time>
</trkpt>
<trkpt lat="46.237780000" lon="7.330590000">
  <ele>691.000000</ele>
  <time>2012-05-28T12:58:36Z</time>
</trkpt>
<trkpt lat="46.238070000" lon="7.330450000">
  <ele>692.166690</ele>
  <time>2012-05-28T12:58:43Z</time>
</trkpt>
<trkpt lat="46.238120000" lon="7.330430000">
  <ele>692.333310</ele>
  <time>2012-05-28T12:58:44Z</time>
</trkpt>
<trkpt lat="46.238160000" lon="7.330430000">
  <ele>692.500000</ele>
  <time>2012-05-28T12:58:45Z</time>
</trkpt>
<trkpt lat="46.238210000" lon="7.330420000">
  <ele>692.666690</ele>
  <time>2012-05-28T12:58:46Z</time>
</trkpt>
<trkpt lat="46.238260000" lon="7.330420000">
  <ele>692.833310</ele>
  <time>2012-05-28T12:58:47Z</time>
</trkpt>
<trkpt lat="46.238300000" lon="7.330410000">
  <ele>693.000000</ele>
  <time>2012-05-28T12:58:48Z</time>
</trkpt>
<trkpt lat="46.238350000" lon="7.330410000">
  <ele>693.000000</ele>
  <time>2012-05-28T12:58:49Z</time>
</trkpt>
<trkpt lat="46.238660000" lon="7.330500000">
  <ele>694.400020</ele>
  <time>2012-05-28T12:58:56Z</time>
</trkpt>
<trkpt lat="46.238710000" lon="7.330530000">
  <ele>694.600040</ele>
  <time>2012-05-28T12:58:57Z</time>
</trkpt>
<trkpt lat="46.238750000" lon="7.330550000">
  <ele>694.799990</ele>
  <time>2012-05-28T12:58:58Z</time>
</trkpt>
<trkpt lat="46.238780000" lon="7.330580000">
  <ele>695.000000</ele>
  <time>2012-05-28T12:58:59Z</time>
</trkpt>
<trkpt lat="46.238820000" lon="7.330610000">
  <ele>695.200010</ele>
  <time>2012-05-28T12:59:00Z</time>
</trkpt>
<trkpt lat="46.238970000" lon="7.330740000">
  <ele>695.200010</ele>
  <time>2012-05-28T12:59:04Z</time>
</trkpt>
<trkpt lat="46.239140000" lon="7.330970000">
  <ele>696.463200</ele>
  <time>2012-05-28T12:59:10Z</time>
</trkpt>
<trkpt lat="46.239170000" lon="7.331020000">
  <ele>696.673710</ele>
  <time>2012-05-28T12:59:11Z</time>
</trkpt>
<trkpt lat="46.239190000" lon="7.331060000">
  <ele>696.884220</ele>
  <time>2012-05-28T12:59:12Z</time>
</trkpt>
<trkpt lat="46.239210000" lon="7.331110000">
  <ele>697.094730</ele>
  <time>2012-05-28T12:59:13Z</time>
</trkpt>
<trkpt lat="46.239230000" lon="7.331160000">
  <ele>697.305300</ele>
  <time>2012-05-28T12:59:14Z</time>
</trkpt>
<trkpt lat="46.239330000" lon="7.331390000">
  <ele>698.357910</ele>
  <time>2012-05-28T12:59:19Z</time>
</trkpt>
<trkpt lat="46.239340000" lon="7.331440000">
  <ele>698.568420</ele>
  <time>2012-05-28T12:59:20Z</time>
</trkpt>
<trkpt lat="46.239360000" lon="7.331490000">
  <ele>698.778930</ele>
  <time>2012-05-28T12:59:21Z</time>
</trkpt>
<trkpt lat="46.239370000" lon="7.331540000">
  <ele>698.989500</ele>
  <time>2012-05-28T12:59:22Z</time>
</trkpt>
<trkpt lat="46.239390000" lon="7.331580000">
  <ele>699.200010</ele>
  <time>2012-05-28T12:59:23Z</time>
</trkpt>
<trkpt lat="46.239430000" lon="7.331730000">
  <ele>699.200010</ele>
  <time>2012-05-28T12:59:26Z</time>
</trkpt>
<trkpt lat="46.239510000" lon="7.331920000">
  <ele>700.300050</ele>
  <time>2012-05-28T12:59:30Z</time>
</trkpt>
<trkpt lat="46.239520000" lon="7.331970000">
  <ele>700.575010</ele>
  <time>2012-05-28T12:59:31Z</time>
</trkpt>
<trkpt lat="46.239540000" lon="7.332020000">
  <ele>700.850040</ele>
  <time>2012-05-28T12:59:32Z</time>
</trkpt>
<trkpt lat="46.239550000" lon="7.332070000">
  <ele>701.125000</ele>
  <time>2012-05-28T12:59:33Z</time>
</trkpt>
<trkpt lat="46.239570000" lon="7.332110000">
  <ele>701.400020</ele>
  <time>2012-05-28T12:59:34Z</time>
</trkpt>
<trkpt lat="46.239630000" lon="7.332240000">
  <ele>701.400020</ele>
  <time>2012-05-28T12:59:37Z</time>
</trkpt>
<trkpt lat="46.239640000" lon="7.332290000">
  <ele>701.900020</ele>
  <time>2012-05-28T12:59:38Z</time>
</trkpt>
<trkpt lat="46.239660000" lon="7.332340000">
  <ele>702.400020</ele>
  <time>2012-05-28T12:59:39Z</time>
</trkpt>
<trkpt lat="46.239670000" lon="7.332380000">
  <ele>702.900020</ele>
  <time>2012-05-28T12:59:40Z</time>
</trkpt>
<trkpt lat="46.239690000" lon="7.332430000">
  <ele>703.400020</ele>
  <time>2012-05-28T12:59:41Z</time>
</trkpt>
<trkpt lat="46.239700000" lon="7.332470000">
  <ele>703.400020</ele>
  <time>2012-05-28T12:59:42Z</time>
</trkpt>
<trkpt lat="46.239740000" lon="7.332610000">
  <ele>704.342830</ele>
  <time>2012-05-28T12:59:45Z</time>
</trkpt>
<trkpt lat="46.239760000" lon="7.332660000">
  <ele>704.657170</ele>
  <time>2012-05-28T12:59:46Z</time>
</trkpt>
<trkpt lat="46.239780000" lon="7.332700000">
  <ele>704.971440</ele>
  <time>2012-05-28T12:59:47Z</time>
</trkpt>
<trkpt lat="46.239800000" lon="7.332740000">
  <ele>705.285710</ele>
  <time>2012-05-28T12:59:48Z</time>
</trkpt>
<trkpt lat="46.239810000" lon="7.332780000">
  <ele>705.599980</ele>
  <time>2012-05-28T12:59:49Z</time>
</trkpt>
<trkpt lat="46.239820000" lon="7.332820000">
  <ele>705.599980</ele>
  <time>2012-05-28T12:59:50Z</time>
</trkpt>
<trkpt lat="46.239860000" lon="7.332940000">
  <ele>706.333310</ele>
  <time>2012-05-28T12:59:53Z</time>
</trkpt>
<trkpt lat="46.239870000" lon="7.332980000">
  <ele>706.577760</ele>
  <time>2012-05-28T12:59:54Z</time>
</trkpt>
<trkpt lat="46.239880000" lon="7.333020000">
  <ele>706.822200</ele>
  <time>2012-05-28T12:59:55Z</time>
</trkpt>
<trkpt lat="46.239900000" lon="7.333060000">
  <ele>707.066650</ele>
  <time>2012-05-28T12:59:56Z</time>
</trkpt>
<trkpt lat="46.239910000" lon="7.333090000">
  <ele>707.311100</ele>
  <time>2012-05-28T12:59:57Z</time>
</trkpt>
<trkpt lat="46.240010000" lon="7.333370000">
  <ele>709.022220</ele>
  <time>2012-05-28T13:00:04Z</time>
</trkpt>
<trkpt lat="46.240020000" lon="7.333420000">
  <ele>709.266660</ele>
  <time>2012-05-28T13:00:05Z</time>
</trkpt>
<trkpt lat="46.240040000" lon="7.333460000">
  <ele>709.511110</ele>
  <time>2012-05-28T13:00:06Z</time>
</trkpt>
<trkpt lat="46.240060000" lon="7.333500000">
  <ele>709.755550</ele>
  <time>2012-05-28T13:00:07Z</time>
</trkpt>
<trkpt lat="46.240070000" lon="7.333530000">
  <ele>710.000000</ele>
  <time>2012-05-28T13:00:08Z</time>
</trkpt>
<trkpt lat="46.240150000" lon="7.333730000">
  <ele>710.000000</ele>
  <time>2012-05-28T13:00:13Z</time>
</trkpt>
<trkpt lat="46.240170000" lon="7.333810000">
  <ele>710.733340</ele>
  <time>2012-05-28T13:00:15Z</time>
</trkpt>
<trkpt lat="46.240190000" lon="7.333850000">
  <ele>711.099980</ele>
  <time>2012-05-28T13:00:16Z</time>
</trkpt>
<trkpt lat="46.240200000" lon="7.333890000">
  <ele>711.466670</ele>
  <time>2012-05-28T13:00:17Z</time>
</trkpt>
<trkpt lat="46.240220000" lon="7.333930000">
  <ele>711.833370</ele>
  <time>2012-05-28T13:00:18Z</time>
</trkpt>
<trkpt lat="46.240230000" lon="7.333970000">
  <ele>712.200010</ele>
  <time>2012-05-28T13:00:19Z</time>
</trkpt>
<trkpt lat="46.240270000" lon="7.334050000">
  <ele>712.200010</ele>
  <time>2012-05-28T13:00:21Z</time>
</trkpt>
<trkpt lat="46.240330000" lon="7.334200000">
  <ele>713.300050</ele>
  <time>2012-05-28T13:00:25Z</time>
</trkpt>
<trkpt lat="46.240350000" lon="7.334240000">
  <ele>713.575010</ele>
  <time>2012-05-28T13:00:26Z</time>
</trkpt>
<trkpt lat="46.240360000" lon="7.334280000">
  <ele>713.850040</ele>
  <time>2012-05-28T13:00:27Z</time>
</trkpt>
<trkpt lat="46.240380000" lon="7.334320000">
  <ele>714.125000</ele>
  <time>2012-05-28T13:00:28Z</time>
</trkpt>
<trkpt lat="46.240390000" lon="7.334360000">
  <ele>714.400020</ele>
  <time>2012-05-28T13:00:29Z</time>
</trkpt>
<trkpt lat="46.240420000" lon="7.334440000">
  <ele>714.400020</ele>
  <time>2012-05-28T13:00:31Z</time>
</trkpt>
<trkpt lat="46.240450000" lon="7.334520000">
  <ele>715.133360</ele>
  <time>2012-05-28T13:00:33Z</time>
</trkpt>
<trkpt lat="46.240460000" lon="7.334550000">
  <ele>715.500000</ele>
  <time>2012-05-28T13:00:34Z</time>
</trkpt>
<trkpt lat="46.240480000" lon="7.334590000">
  <ele>715.866640</ele>
  <time>2012-05-28T13:00:35Z</time>
</trkpt>
<trkpt lat="46.240490000" lon="7.334630000">
  <ele>716.233340</ele>
  <time>2012-05-28T13:00:36Z</time>
</trkpt>
<trkpt lat="46.240510000" lon="7.334670000">
  <ele>716.599980</ele>
  <time>2012-05-28T13:00:37Z</time>
</trkpt>
<trkpt lat="46.240520000" lon="7.334700000">
  <ele>716.599980</ele>
  <time>2012-05-28T13:00:38Z</time>
</trkpt>
<trkpt lat="46.240620000" lon="7.334930000">
  <ele>717.926270</ele>
  <time>2012-05-28T13:00:44Z</time>
</trkpt>
<trkpt lat="46.240630000" lon="7.334960000">
  <ele>718.147340</ele>
  <time>2012-05-28T13:00:45Z</time>
</trkpt>
<trkpt lat="46.240650000" lon="7.335000000">
  <ele>718.368410</ele>
  <time>2012-05-28T13:00:46Z</time>
</trkpt>
<trkpt lat="46.240670000" lon="7.335030000">
  <ele>718.589480</ele>
  <time>2012-05-28T13:00:47Z</time>
</trkpt>
<trkpt lat="46.240680000" lon="7.335070000">
  <ele>718.810490</ele>
  <time>2012-05-28T13:00:48Z</time>
</trkpt>
<trkpt lat="46.240770000" lon="7.335300000">
  <ele>720.136840</ele>
  <time>2012-05-28T13:00:54Z</time>
</trkpt>
<trkpt lat="46.240780000" lon="7.335340000">
  <ele>720.357910</ele>
  <time>2012-05-28T13:00:55Z</time>
</trkpt>
<trkpt lat="46.240800000" lon="7.335380000">
  <ele>720.578920</ele>
  <time>2012-05-28T13:00:56Z</time>
</trkpt>
<trkpt lat="46.240810000" lon="7.335420000">
  <ele>720.799990</ele>
  <time>2012-05-28T13:00:57Z</time>
</trkpt>
<trkpt lat="46.240830000" lon="7.335450000">
  <ele>720.799990</ele>
  <time>2012-05-28T13:00:58Z</time>
</trkpt>
<trkpt lat="46.240910000" lon="7.335640000">
  <ele>721.966670</ele>
  <time>2012-05-28T13:01:03Z</time>
</trkpt>
<trkpt lat="46.240930000" lon="7.335680000">
  <ele>722.200010</ele>
  <time>2012-05-28T13:01:04Z</time>
</trkpt>
<trkpt lat="46.240950000" lon="7.335720000">
  <ele>722.433350</ele>
  <time>2012-05-28T13:01:05Z</time>
</trkpt>
<trkpt lat="46.240970000" lon="7.335760000">
  <ele>722.666690</ele>
  <time>2012-05-28T13:01:06Z</time>
</trkpt>
<trkpt lat="46.240980000" lon="7.335800000">
  <ele>722.900020</ele>
  <time>2012-05-28T13:01:07Z</time>
</trkpt>
<trkpt lat="46.241070000" lon="7.335990000">
  <ele>724.066650</ele>
  <time>2012-05-28T13:01:12Z</time>
</trkpt>
<trkpt lat="46.241090000" lon="7.336020000">
  <ele>724.299990</ele>
  <time>2012-05-28T13:01:13Z</time>
</trkpt>
<trkpt lat="46.241100000" lon="7.336060000">
  <ele>724.533330</ele>
  <time>2012-05-28T13:01:14Z</time>
</trkpt>
<trkpt lat="46.241120000" lon="7.336100000">
  <ele>724.766660</ele>
  <time>2012-05-28T13:01:15Z</time>
</trkpt>
<trkpt lat="46.241130000" lon="7.336140000">
  <ele>725.000000</ele>
  <time>2012-05-28T13:01:16Z</time>
</trkpt>
<trkpt lat="46.241200000" lon="7.336290000">
  <ele>725.000000</ele>
  <time>2012-05-28T13:01:20Z</time>
</trkpt>
<trkpt lat="46.241230000" lon="7.336350000">
  <ele>725.525020</ele>
  <time>2012-05-28T13:01:22Z</time>
</trkpt>
<trkpt lat="46.241250000" lon="7.336390000">
  <ele>725.787480</ele>
  <time>2012-05-28T13:01:23Z</time>
</trkpt>
<trkpt lat="46.241260000" lon="7.336430000">
  <ele>726.049990</ele>
  <time>2012-05-28T13:01:24Z</time>
</trkpt>
<trkpt lat="46.241280000" lon="7.336470000">
  <ele>726.312500</ele>
  <time>2012-05-28T13:01:25Z</time>
</trkpt>
<trkpt lat="46.241290000" lon="7.336520000">
  <ele>726.575010</ele>
  <time>2012-05-28T13:01:26Z</time>
</trkpt>
<trkpt lat="46.241400000" lon="7.336740000">
  <ele>728.150020</ele>
  <time>2012-05-28T13:01:32Z</time>
</trkpt>
<trkpt lat="46.241410000" lon="7.336770000">
  <ele>728.412540</ele>
  <time>2012-05-28T13:01:33Z</time>
</trkpt>
<trkpt lat="46.241430000" lon="7.336810000">
  <ele>728.674990</ele>
  <time>2012-05-28T13:01:34Z</time>
</trkpt>
<trkpt lat="46.241450000" lon="7.336850000">
  <ele>728.937500</ele>
  <time>2012-05-28T13:01:35Z</time>
</trkpt>
<trkpt lat="46.241470000" lon="7.336880000">
  <ele>729.200010</ele>
  <time>2012-05-28T13:01:36Z</time>
</trkpt>
<trkpt lat="46.241590000" lon="7.337140000">
  <ele>729.200010</ele>
  <time>2012-05-28T13:01:43Z</time>
</trkpt>
<trkpt lat="46.241600000" lon="7.337170000">
  <ele>729.750000</ele>
  <time>2012-05-28T13:01:44Z</time>
</trkpt>
<trkpt lat="46.241620000" lon="7.337200000">
  <ele>730.300050</ele>
  <time>2012-05-28T13:01:45Z</time>
</trkpt>
<trkpt lat="46.241630000" lon="7.337240000">
  <ele>730.850040</ele>
  <time>2012-05-28T13:01:46Z</time>
</trkpt>
<trkpt lat="46.241650000" lon="7.337270000">
  <ele>731.400020</ele>
  <time>2012-05-28T13:01:47Z</time>
</trkpt>
<trkpt lat="46.241680000" lon="7.337330000">
  <ele>731.400020</ele>
  <time>2012-05-28T13:01:49Z</time>
</trkpt>
<trkpt lat="46.241730000" lon="7.337440000">
  <ele>732.138490</ele>
  <time>2012-05-28T13:01:52Z</time>
</trkpt>
<trkpt lat="46.241740000" lon="7.337470000">
  <ele>732.384640</ele>
  <time>2012-05-28T13:01:53Z</time>
</trkpt>
<trkpt lat="46.241760000" lon="7.337510000">
  <ele>732.630800</ele>
  <time>2012-05-28T13:01:54Z</time>
</trkpt>
<trkpt lat="46.241780000" lon="7.337550000">
  <ele>732.876950</ele>
  <time>2012-05-28T13:01:55Z</time>
</trkpt>
<trkpt lat="46.241790000" lon="7.337580000">
  <ele>733.123110</ele>
  <time>2012-05-28T13:01:56Z</time>
</trkpt>
<trkpt lat="46.241890000" lon="7.337800000">
  <ele>734.599980</ele>
  <time>2012-05-28T13:02:02Z</time>
</trkpt>
<trkpt lat="46.241900000" lon="7.337830000">
  <ele>734.846130</ele>
  <time>2012-05-28T13:02:03Z</time>
</trkpt>
<trkpt lat="46.241910000" lon="7.337860000">
  <ele>735.092290</ele>
  <time>2012-05-28T13:02:04Z</time>
</trkpt>
<trkpt lat="46.241930000" lon="7.337900000">
  <ele>735.338440</ele>
  <time>2012-05-28T13:02:05Z</time>
</trkpt>
<trkpt lat="46.241950000" lon="7.337930000">
  <ele>735.584590</ele>
  <time>2012-05-28T13:02:06Z</time>
</trkpt>
<trkpt lat="46.242030000" lon="7.338110000">
  <ele>736.815370</ele>
  <time>2012-05-28T13:02:11Z</time>
</trkpt>
<trkpt lat="46.242050000" lon="7.338150000">
  <ele>737.061520</ele>
  <time>2012-05-28T13:02:12Z</time>
</trkpt>
<trkpt lat="46.242070000" lon="7.338190000">
  <ele>737.307680</ele>
  <time>2012-05-28T13:02:13Z</time>
</trkpt>
<trkpt lat="46.242080000" lon="7.338230000">
  <ele>737.553830</ele>
  <time>2012-05-28T13:02:14Z</time>
</trkpt>
<trkpt lat="46.242100000" lon="7.338260000">
  <ele>737.799990</ele>
  <time>2012-05-28T13:02:15Z</time>
</trkpt>
<trkpt lat="46.242150000" lon="7.338370000">
  <ele>737.799990</ele>
  <time>2012-05-28T13:02:18Z</time>
</trkpt>
<trkpt lat="46.242210000" lon="7.338520000">
  <ele>738.718510</ele>
  <time>2012-05-28T13:02:22Z</time>
</trkpt>
<trkpt lat="46.242230000" lon="7.338560000">
  <ele>738.948120</ele>
  <time>2012-05-28T13:02:23Z</time>
</trkpt>
<trkpt lat="46.242240000" lon="7.338600000">
  <ele>739.177800</ele>
  <time>2012-05-28T13:02:24Z</time>
</trkpt>
<trkpt lat="46.242250000" lon="7.338630000">
  <ele>739.407410</ele>
  <time>2012-05-28T13:02:25Z</time>
</trkpt>
<trkpt lat="46.242260000" lon="7.338670000">
  <ele>739.637020</ele>
  <time>2012-05-28T13:02:26Z</time>
</trkpt>
<trkpt lat="46.242340000" lon="7.338870000">
  <ele>740.785160</ele>
  <time>2012-05-28T13:02:31Z</time>
</trkpt>
<trkpt lat="46.242350000" lon="7.338910000">
  <ele>741.014830</ele>
  <time>2012-05-28T13:02:32Z</time>
</trkpt>
<trkpt lat="46.242370000" lon="7.338950000">
  <ele>741.244450</ele>
  <time>2012-05-28T13:02:33Z</time>
</trkpt>
<trkpt lat="46.242380000" lon="7.338990000">
  <ele>741.474060</ele>
  <time>2012-05-28T13:02:34Z</time>
</trkpt>
<trkpt lat="46.242400000" lon="7.339030000">
  <ele>741.703670</ele>
  <time>2012-05-28T13:02:35Z</time>
</trkpt>
<trkpt lat="46.242470000" lon="7.339250000">
  <ele>743.081480</ele>
  <time>2012-05-28T13:02:41Z</time>
</trkpt>
<trkpt lat="46.242490000" lon="7.339290000">
  <ele>743.311100</ele>
  <time>2012-05-28T13:02:42Z</time>
</trkpt>
<trkpt lat="46.242500000" lon="7.339330000">
  <ele>743.540710</ele>
  <time>2012-05-28T13:02:43Z</time>
</trkpt>
<trkpt lat="46.242520000" lon="7.339370000">
  <ele>743.770390</ele>
  <time>2012-05-28T13:02:44Z</time>
</trkpt>
<trkpt lat="46.242530000" lon="7.339410000">
  <ele>744.000000</ele>
  <time>2012-05-28T13:02:45Z</time>
</trkpt>
<trkpt lat="46.242590000" lon="7.339600000">
  <ele>744.000000</ele>
  <time>2012-05-28T13:02:50Z</time>
</trkpt>
<trkpt lat="46.242600000" lon="7.339640000">
  <ele>744.260860</ele>
  <time>2012-05-28T13:02:51Z</time>
</trkpt>
<trkpt lat="46.242610000" lon="7.339690000">
  <ele>744.521730</ele>
  <time>2012-05-28T13:02:52Z</time>
</trkpt>
<trkpt lat="46.242620000" lon="7.339730000">
  <ele>744.782590</ele>
  <time>2012-05-28T13:02:53Z</time>
</trkpt>
<trkpt lat="46.242640000" lon="7.339770000">
  <ele>745.043460</ele>
  <time>2012-05-28T13:02:54Z</time>
</trkpt>
<trkpt lat="46.242650000" lon="7.339810000">
  <ele>745.304320</ele>
  <time>2012-05-28T13:02:55Z</time>
</trkpt>
<trkpt lat="46.242700000" lon="7.340010000">
  <ele>746.608700</ele>
  <time>2012-05-28T13:03:00Z</time>
</trkpt>
<trkpt lat="46.242710000" lon="7.340050000">
  <ele>746.869570</ele>
  <time>2012-05-28T13:03:01Z</time>
</trkpt>
<trkpt lat="46.242720000" lon="7.340100000">
  <ele>747.130430</ele>
  <time>2012-05-28T13:03:02Z</time>
</trkpt>
<trkpt lat="46.242730000" lon="7.340140000">
  <ele>747.391300</ele>
  <time>2012-05-28T13:03:03Z</time>
</trkpt>
<trkpt lat="46.242740000" lon="7.340180000">
  <ele>747.652160</ele>
  <time>2012-05-28T13:03:04Z</time>
</trkpt>
<trkpt lat="46.242800000" lon="7.340400000">
  <ele>748.956540</ele>
  <time>2012-05-28T13:03:09Z</time>
</trkpt>
<trkpt lat="46.242810000" lon="7.340450000">
  <ele>749.217410</ele>
  <time>2012-05-28T13:03:10Z</time>
</trkpt>
<trkpt lat="46.242820000" lon="7.340490000">
  <ele>749.478270</ele>
  <time>2012-05-28T13:03:11Z</time>
</trkpt>
<trkpt lat="46.242840000" lon="7.340530000">
  <ele>749.739140</ele>
  <time>2012-05-28T13:03:12Z</time>
</trkpt>
<trkpt lat="46.242840000" lon="7.340570000">
  <ele>750.000000</ele>
  <time>2012-05-28T13:03:13Z</time>
</trkpt>
<trkpt lat="46.242870000" lon="7.340710000">
  <ele>750.000000</ele>
  <time>2012-05-28T13:03:16Z</time>
</trkpt>
<trkpt lat="46.242900000" lon="7.340830000">
  <ele>751.000000</ele>
  <time>2012-05-28T13:03:19Z</time>
</trkpt>
<trkpt lat="46.242910000" lon="7.340880000">
  <ele>751.333310</ele>
  <time>2012-05-28T13:03:20Z</time>
</trkpt>
<trkpt lat="46.242920000" lon="7.340920000">
  <ele>751.666690</ele>
  <time>2012-05-28T13:03:21Z</time>
</trkpt>
<trkpt lat="46.242930000" lon="7.340960000">
  <ele>752.000000</ele>
  <time>2012-05-28T13:03:22Z</time>
</trkpt>
<trkpt lat="46.242940000" lon="7.341000000">
  <ele>752.000000</ele>
  <time>2012-05-28T13:03:23Z</time>
</trkpt>
<trkpt lat="46.243000000" lon="7.341280000">
  <ele>753.320010</ele>
  <time>2012-05-28T13:03:29Z</time>
</trkpt>
<trkpt lat="46.243000000" lon="7.341330000">
  <ele>753.540040</ele>
  <time>2012-05-28T13:03:30Z</time>
</trkpt>
<trkpt lat="46.243010000" lon="7.341370000">
  <ele>753.760010</ele>
  <time>2012-05-28T13:03:31Z</time>
</trkpt>
<trkpt lat="46.243020000" lon="7.341420000">
  <ele>753.979980</ele>
  <time>2012-05-28T13:03:32Z</time>
</trkpt>
<trkpt lat="46.243020000" lon="7.341470000">
  <ele>754.200010</ele>
  <time>2012-05-28T13:03:33Z</time>
</trkpt>
<trkpt lat="46.243080000" lon="7.341860000">
  <ele>754.200010</ele>
  <time>2012-05-28T13:03:41Z</time>
</trkpt>
<trkpt lat="46.243090000" lon="7.341900000">
  <ele>754.640010</ele>
  <time>2012-05-28T13:03:42Z</time>
</trkpt>
<trkpt lat="46.243100000" lon="7.341950000">
  <ele>755.080020</ele>
  <time>2012-05-28T13:03:43Z</time>
</trkpt>
<trkpt lat="46.243100000" lon="7.342010000">
  <ele>755.520020</ele>
  <time>2012-05-28T13:03:44Z</time>
</trkpt>
<trkpt lat="46.243110000" lon="7.342060000">
  <ele>755.960020</ele>
  <time>2012-05-28T13:03:45Z</time>
</trkpt>
<trkpt lat="46.243110000" lon="7.342110000">
  <ele>756.400020</ele>
  <time>2012-05-28T13:03:46Z</time>
</trkpt>
<trkpt lat="46.243120000" lon="7.342210000">
  <ele>756.400020</ele>
  <time>2012-05-28T13:03:48Z</time>
</trkpt>
<trkpt lat="46.243160000" lon="7.342660000">
  <ele>757.685730</ele>
  <time>2012-05-28T13:03:57Z</time>
</trkpt>
<trkpt lat="46.243170000" lon="7.342710000">
  <ele>757.828610</ele>
  <time>2012-05-28T13:03:58Z</time>
</trkpt>
<trkpt lat="46.243170000" lon="7.342770000">
  <ele>757.971440</ele>
  <time>2012-05-28T13:03:59Z</time>
</trkpt>
<trkpt lat="46.243180000" lon="7.342820000">
  <ele>758.114320</ele>
  <time>2012-05-28T13:04:00Z</time>
</trkpt>
<trkpt lat="46.243180000" lon="7.342870000">
  <ele>758.257140</ele>
  <time>2012-05-28T13:04:01Z</time>
</trkpt>
<trkpt lat="46.243190000" lon="7.342920000">
  <ele>758.400020</ele>
  <time>2012-05-28T13:04:02Z</time>
</trkpt>
<trkpt lat="46.243200000" lon="7.343080000">
  <ele>758.400020</ele>
  <time>2012-05-28T13:04:05Z</time>
</trkpt>
<trkpt lat="46.243230000" lon="7.343390000">
  <ele>759.733340</ele>
  <time>2012-05-28T13:04:11Z</time>
</trkpt>
<trkpt lat="46.243230000" lon="7.343450000">
  <ele>759.955570</ele>
  <time>2012-05-28T13:04:12Z</time>
</trkpt>
<trkpt lat="46.243240000" lon="7.343500000">
  <ele>760.177800</ele>
  <time>2012-05-28T13:04:13Z</time>
</trkpt>
<trkpt lat="46.243240000" lon="7.343560000">
  <ele>760.400020</ele>
  <time>2012-05-28T13:04:14Z</time>
</trkpt>
<trkpt lat="46.243260000" lon="7.343880000">
  <ele>760.400020</ele>
  <time>2012-05-28T13:04:20Z</time>
</trkpt>
<trkpt lat="46.243280000" lon="7.344090000">
  <ele>761.500000</ele>
  <time>2012-05-28T13:04:24Z</time>
</trkpt>
<trkpt lat="46.243280000" lon="7.344150000">
  <ele>761.775020</ele>
  <time>2012-05-28T13:04:25Z</time>
</trkpt>
<trkpt lat="46.243290000" lon="7.344200000">
  <ele>762.049990</ele>
  <time>2012-05-28T13:04:26Z</time>
</trkpt>
<trkpt lat="46.243290000" lon="7.344260000">
  <ele>762.324950</ele>
  <time>2012-05-28T13:04:27Z</time>
</trkpt>
<trkpt lat="46.243290000" lon="7.344310000">
  <ele>762.599980</ele>
  <time>2012-05-28T13:04:28Z</time>
</trkpt>
<trkpt lat="46.243320000" lon="7.344730000">
  <ele>762.599980</ele>
  <time>2012-05-28T13:04:36Z</time>
</trkpt>
<trkpt lat="46.243330000" lon="7.344790000">
  <ele>763.000000</ele>
  <time>2012-05-28T13:04:37Z</time>
</trkpt>
<trkpt lat="46.243330000" lon="7.344840000">
  <ele>763.399960</ele>
  <time>2012-05-28T13:04:38Z</time>
</trkpt>
<trkpt lat="46.243330000" lon="7.344890000">
  <ele>763.799990</ele>
  <time>2012-05-28T13:04:39Z</time>
</trkpt>
<trkpt lat="46.243340000" lon="7.344940000">
  <ele>764.199950</ele>
  <time>2012-05-28T13:04:40Z</time>
</trkpt>
<trkpt lat="46.243340000" lon="7.345000000">
  <ele>764.599980</ele>
  <time>2012-05-28T13:04:41Z</time>
</trkpt>
<trkpt lat="46.243360000" lon="7.345270000">
  <ele>764.599980</ele>
  <time>2012-05-28T13:04:46Z</time>
</trkpt>
<trkpt lat="46.243370000" lon="7.345430000">
  <ele>765.149960</ele>
  <time>2012-05-28T13:04:49Z</time>
</trkpt>
<trkpt lat="46.243390000" lon="7.345710000">
  <ele>766.066650</ele>
  <time>2012-05-28T13:04:54Z</time>
</trkpt>
<trkpt lat="46.243390000" lon="7.345760000">
  <ele>766.250000</ele>
  <time>2012-05-28T13:04:55Z</time>
</trkpt>
<trkpt lat="46.243400000" lon="7.345820000">
  <ele>766.433350</ele>
  <time>2012-05-28T13:04:56Z</time>
</trkpt>
<trkpt lat="46.243400000" lon="7.345870000">
  <ele>766.616640</ele>
  <time>2012-05-28T13:04:57Z</time>
</trkpt>
<trkpt lat="46.243400000" lon="7.345920000">
  <ele>766.799990</ele>
  <time>2012-05-28T13:04:58Z</time>
</trkpt>
<trkpt lat="46.243420000" lon="7.346200000">
  <ele>766.799990</ele>
  <time>2012-05-28T13:05:03Z</time>
</trkpt>
<trkpt lat="46.243430000" lon="7.346310000">
  <ele>767.349980</ele>
  <time>2012-05-28T13:05:05Z</time>
</trkpt>
<trkpt lat="46.243430000" lon="7.346420000">
  <ele>767.900020</ele>
  <time>2012-05-28T13:05:07Z</time>
</trkpt>
<trkpt lat="46.243440000" lon="7.346480000">
  <ele>768.174990</ele>
  <time>2012-05-28T13:05:08Z</time>
</trkpt>
<trkpt lat="46.243440000" lon="7.346530000">
  <ele>768.450010</ele>
  <time>2012-05-28T13:05:09Z</time>
</trkpt>
<trkpt lat="46.243450000" lon="7.346590000">
  <ele>768.724980</ele>
  <time>2012-05-28T13:05:10Z</time>
</trkpt>
<trkpt lat="46.243450000" lon="7.346640000">
  <ele>769.000000</ele>
  <time>2012-05-28T13:05:11Z</time>
</trkpt>
<trkpt lat="46.243460000" lon="7.346690000">
  <ele>769.000000</ele>
  <time>2012-05-28T13:05:12Z</time>
</trkpt>
<trkpt lat="46.243530000" lon="7.347120000">
  <ele>770.466670</ele>
  <time>2012-05-28T13:05:20Z</time>
</trkpt>
<trkpt lat="46.243550000" lon="7.347170000">
  <ele>770.650020</ele>
  <time>2012-05-28T13:05:21Z</time>
</trkpt>
<trkpt lat="46.243560000" lon="7.347220000">
  <ele>770.833370</ele>
  <time>2012-05-28T13:05:22Z</time>
</trkpt>
<trkpt lat="46.243570000" lon="7.347280000">
  <ele>771.016660</ele>
  <time>2012-05-28T13:05:23Z</time>
</trkpt>
<trkpt lat="46.243580000" lon="7.347330000">
  <ele>771.200010</ele>
  <time>2012-05-28T13:05:24Z</time>
</trkpt>
<trkpt lat="46.243620000" lon="7.347550000">
  <ele>771.200010</ele>
  <time>2012-05-28T13:05:28Z</time>
</trkpt>
<trkpt lat="46.243610000" lon="7.347670000">
  <ele>771.507690</ele>
  <time>2012-05-28T13:05:30Z</time>
</trkpt>
<trkpt lat="46.243600000" lon="7.347790000">
  <ele>771.815370</ele>
  <time>2012-05-28T13:05:32Z</time>
</trkpt>
<trkpt lat="46.243610000" lon="7.347850000">
  <ele>771.969240</ele>
  <time>2012-05-28T13:05:33Z</time>
</trkpt>
<trkpt lat="46.243640000" lon="7.347940000">
  <ele>772.276920</ele>
  <time>2012-05-28T13:05:35Z</time>
</trkpt>
<trkpt lat="46.243720000" lon="7.347980000">
  <ele>772.584660</ele>
  <time>2012-05-28T13:05:37Z</time>
</trkpt>
<trkpt lat="46.243760000" lon="7.347970000">
  <ele>772.738460</ele>
  <time>2012-05-28T13:05:38Z</time>
</trkpt>
<trkpt lat="46.243790000" lon="7.347950000">
  <ele>772.892330</ele>
  <time>2012-05-28T13:05:39Z</time>
</trkpt>
<trkpt lat="46.243830000" lon="7.347910000">
  <ele>773.046140</ele>
  <time>2012-05-28T13:05:40Z</time>
</trkpt>
<trkpt lat="46.243870000" lon="7.347880000">
  <ele>773.200010</ele>
  <time>2012-05-28T13:05:41Z</time>
</trkpt>
<trkpt lat="46.243900000" lon="7.347850000">
  <ele>773.200010</ele>
  <time>2012-05-28T13:05:42Z</time>
</trkpt>
<trkpt lat="46.244070000" lon="7.347810000">
  <ele>773.750000</ele>
  <time>2012-05-28T13:05:46Z</time>
</trkpt>
<trkpt lat="46.244370000" lon="7.347790000">
  <ele>774.850040</ele>
  <time>2012-05-28T13:05:54Z</time>
</trkpt>
<trkpt lat="46.244410000" lon="7.347780000">
  <ele>774.987550</ele>
  <time>2012-05-28T13:05:55Z</time>
</trkpt>
<trkpt lat="46.244440000" lon="7.347780000">
  <ele>775.125000</ele>
  <time>2012-05-28T13:05:56Z</time>
</trkpt>
<trkpt lat="46.244470000" lon="7.347770000">
  <ele>775.262510</ele>
  <time>2012-05-28T13:05:57Z</time>
</trkpt>
<trkpt lat="46.244510000" lon="7.347770000">
  <ele>775.400020</ele>
  <time>2012-05-28T13:05:58Z</time>
</trkpt>
<trkpt lat="46.244590000" lon="7.347760000">
  <ele>775.400020</ele>
  <time>2012-05-28T13:06:01Z</time>
</trkpt>
<trkpt lat="46.244740000" lon="7.347740000">
  <ele>776.584230</ele>
  <time>2012-05-28T13:06:06Z</time>
</trkpt>
<trkpt lat="46.244890000" lon="7.347710000">
  <ele>777.531620</ele>
  <time>2012-05-28T13:06:10Z</time>
</trkpt>
<trkpt lat="46.244920000" lon="7.347700000">
  <ele>777.768430</ele>
  <time>2012-05-28T13:06:11Z</time>
</trkpt>
<trkpt lat="46.244960000" lon="7.347690000">
  <ele>778.005310</ele>
  <time>2012-05-28T13:06:12Z</time>
</trkpt>
<trkpt lat="46.244990000" lon="7.347680000">
  <ele>778.242130</ele>
  <time>2012-05-28T13:06:13Z</time>
</trkpt>
<trkpt lat="46.245030000" lon="7.347670000">
  <ele>778.478940</ele>
  <time>2012-05-28T13:06:14Z</time>
</trkpt>
<trkpt lat="46.245120000" lon="7.347650000">
  <ele>779.189510</ele>
  <time>2012-05-28T13:06:17Z</time>
</trkpt>
<trkpt lat="46.245150000" lon="7.347640000">
  <ele>779.426330</ele>
  <time>2012-05-28T13:06:18Z</time>
</trkpt>
<trkpt lat="46.245180000" lon="7.347630000">
  <ele>779.663210</ele>
  <time>2012-05-28T13:06:19Z</time>
</trkpt>
<trkpt lat="46.245220000" lon="7.347620000">
  <ele>779.900020</ele>
  <time>2012-05-28T13:06:20Z</time>
</trkpt>
<trkpt lat="46.245250000" lon="7.347610000">
  <ele>780.136840</ele>
  <time>2012-05-28T13:06:21Z</time>
</trkpt>
<trkpt lat="46.245380000" lon="7.347560000">
  <ele>781.084230</ele>
  <time>2012-05-28T13:06:25Z</time>
</trkpt>
<trkpt lat="46.245410000" lon="7.347550000">
  <ele>781.321110</ele>
  <time>2012-05-28T13:06:26Z</time>
</trkpt>
<trkpt lat="46.245450000" lon="7.347540000">
  <ele>781.557920</ele>
  <time>2012-05-28T13:06:27Z</time>
</trkpt>
<trkpt lat="46.245480000" lon="7.347520000">
  <ele>781.794740</ele>
  <time>2012-05-28T13:06:28Z</time>
</trkpt>
<trkpt lat="46.245510000" lon="7.347510000">
  <ele>782.031620</ele>
  <time>2012-05-28T13:06:29Z</time>
</trkpt>
<trkpt lat="46.245690000" lon="7.347410000">
  <ele>783.452640</ele>
  <time>2012-05-28T13:06:35Z</time>
</trkpt>
<trkpt lat="46.245710000" lon="7.347390000">
  <ele>783.689510</ele>
  <time>2012-05-28T13:06:36Z</time>
</trkpt>
<trkpt lat="46.245740000" lon="7.347370000">
  <ele>783.926330</ele>
  <time>2012-05-28T13:06:37Z</time>
</trkpt>
<trkpt lat="46.245770000" lon="7.347360000">
  <ele>784.163210</ele>
  <time>2012-05-28T13:06:38Z</time>
</trkpt>
<trkpt lat="46.245790000" lon="7.347340000">
  <ele>784.400020</ele>
  <time>2012-05-28T13:06:39Z</time>
</trkpt>
<trkpt lat="46.245890000" lon="7.347280000">
  <ele>784.400020</ele>
  <time>2012-05-28T13:06:43Z</time>
</trkpt>
<trkpt lat="46.245940000" lon="7.347260000">
  <ele>785.133360</ele>
  <time>2012-05-28T13:06:45Z</time>
</trkpt>
<trkpt lat="46.245970000" lon="7.347250000">
  <ele>785.500000</ele>
  <time>2012-05-28T13:06:46Z</time>
</trkpt>
<trkpt lat="46.246000000" lon="7.347240000">
  <ele>785.866640</ele>
  <time>2012-05-28T13:06:47Z</time>
</trkpt>
<trkpt lat="46.246030000" lon="7.347230000">
  <ele>786.233340</ele>
  <time>2012-05-28T13:06:48Z</time>
</trkpt>
<trkpt lat="46.246060000" lon="7.347230000">
  <ele>786.599980</ele>
  <time>2012-05-28T13:06:49Z</time>
</trkpt>
<trkpt lat="46.246080000" lon="7.347230000">
  <ele>786.599980</ele>
  <time>2012-05-28T13:06:50Z</time>
</trkpt>
<trkpt lat="46.246100000" lon="7.347230000">
  <ele>786.933290</ele>
  <time>2012-05-28T13:06:51Z</time>
</trkpt>
<trkpt lat="46.246120000" lon="7.347240000">
  <ele>787.266660</ele>
  <time>2012-05-28T13:06:52Z</time>
</trkpt>
<trkpt lat="46.246140000" lon="7.347260000">
  <ele>787.599980</ele>
  <time>2012-05-28T13:06:53Z</time>
</trkpt>
<trkpt lat="46.246170000" lon="7.347280000">
  <ele>787.933290</ele>
  <time>2012-05-28T13:06:54Z</time>
</trkpt>
<trkpt lat="46.246190000" lon="7.347300000">
  <ele>788.266660</ele>
  <time>2012-05-28T13:06:55Z</time>
</trkpt>
<trkpt lat="46.246210000" lon="7.347330000">
  <ele>788.599980</ele>
  <time>2012-05-28T13:06:56Z</time>
</trkpt>
<trkpt lat="46.246290000" lon="7.347390000">
  <ele>788.599980</ele>
  <time>2012-05-28T13:06:59Z</time>
</trkpt>
<trkpt lat="46.246310000" lon="7.347410000">
  <ele>789.149960</ele>
  <time>2012-05-28T13:07:00Z</time>
</trkpt>
<trkpt lat="46.246330000" lon="7.347440000">
  <ele>789.699950</ele>
  <time>2012-05-28T13:07:01Z</time>
</trkpt>
<trkpt lat="46.246350000" lon="7.347470000">
  <ele>790.250000</ele>
  <time>2012-05-28T13:07:02Z</time>
</trkpt>
<trkpt lat="46.246380000" lon="7.347510000">
  <ele>790.799990</ele>
  <time>2012-05-28T13:07:03Z</time>
</trkpt>
<trkpt lat="46.246440000" lon="7.347600000">
  <ele>790.799990</ele>
  <time>2012-05-28T13:07:06Z</time>
</trkpt>
<trkpt lat="46.246460000" lon="7.347630000">
  <ele>791.200010</ele>
  <time>2012-05-28T13:07:07Z</time>
</trkpt>
<trkpt lat="46.246480000" lon="7.347660000">
  <ele>791.599980</ele>
  <time>2012-05-28T13:07:08Z</time>
</trkpt>
<trkpt lat="46.246510000" lon="7.347690000">
  <ele>792.000000</ele>
  <time>2012-05-28T13:07:09Z</time>
</trkpt>
<trkpt lat="46.246530000" lon="7.347720000">
  <ele>792.399960</ele>
  <time>2012-05-28T13:07:10Z</time>
</trkpt>
<trkpt lat="46.246560000" lon="7.347750000">
  <ele>792.799990</ele>
  <time>2012-05-28T13:07:11Z</time>
</trkpt>
<trkpt lat="46.246600000" lon="7.347800000">
  <ele>792.799990</ele>
  <time>2012-05-28T13:07:13Z</time>
</trkpt>
<trkpt lat="46.246740000" lon="7.348040000">
  <ele>794.200010</ele>
  <time>2012-05-28T13:07:20Z</time>
</trkpt>
<trkpt lat="46.246760000" lon="7.348070000">
  <ele>794.400020</ele>
  <time>2012-05-28T13:07:21Z</time>
</trkpt>
<trkpt lat="46.246790000" lon="7.348100000">
  <ele>794.599980</ele>
  <time>2012-05-28T13:07:22Z</time>
</trkpt>
<trkpt lat="46.246810000" lon="7.348120000">
  <ele>794.799990</ele>
  <time>2012-05-28T13:07:23Z</time>
</trkpt>
<trkpt lat="46.246840000" lon="7.348150000">
  <ele>795.000000</ele>
  <time>2012-05-28T13:07:24Z</time>
</trkpt>
<trkpt lat="46.246910000" lon="7.348160000">
  <ele>795.000000</ele>
  <time>2012-05-28T13:07:26Z</time>
</trkpt>
<trkpt lat="46.247060000" lon="7.348090000">
  <ele>795.526310</ele>
  <time>2012-05-28T13:07:31Z</time>
</trkpt>
<trkpt lat="46.247280000" lon="7.347930000">
  <ele>796.263180</ele>
  <time>2012-05-28T13:07:38Z</time>
</trkpt>
<trkpt lat="46.247380000" lon="7.347880000">
  <ele>796.578920</ele>
  <time>2012-05-28T13:07:41Z</time>
</trkpt>
<trkpt lat="46.247410000" lon="7.347880000">
  <ele>796.684200</ele>
  <time>2012-05-28T13:07:42Z</time>
</trkpt>
<trkpt lat="46.247440000" lon="7.347870000">
  <ele>796.789490</ele>
  <time>2012-05-28T13:07:43Z</time>
</trkpt>
<trkpt lat="46.247480000" lon="7.347870000">
  <ele>796.894710</ele>
  <time>2012-05-28T13:07:44Z</time>
</trkpt>
<trkpt lat="46.247520000" lon="7.347860000">
  <ele>797.000000</ele>
  <time>2012-05-28T13:07:45Z</time>
</trkpt>
<trkpt lat="46.247700000" lon="7.347860000">
  <ele>797.000000</ele>
  <time>2012-05-28T13:07:50Z</time>
</trkpt>
<trkpt lat="46.247760000" lon="7.347880000">
  <ele>797.799990</ele>
  <time>2012-05-28T13:07:52Z</time>
</trkpt>
<trkpt lat="46.247800000" lon="7.347890000">
  <ele>798.200010</ele>
  <time>2012-05-28T13:07:53Z</time>
</trkpt>
<trkpt lat="46.247830000" lon="7.347910000">
  <ele>798.599980</ele>
  <time>2012-05-28T13:07:54Z</time>
</trkpt>
<trkpt lat="46.247860000" lon="7.347920000">
  <ele>799.000000</ele>
  <time>2012-05-28T13:07:55Z</time>
</trkpt>
<trkpt lat="46.247940000" lon="7.347970000">
  <ele>799.000000</ele>
  <time>2012-05-28T13:07:57Z</time>
</trkpt>
<trkpt lat="46.248070000" lon="7.348060000">
  <ele>799.799990</ele>
  <time>2012-05-28T13:08:01Z</time>
</trkpt>
<trkpt lat="46.248150000" lon="7.348100000">
  <ele>800.200010</ele>
  <time>2012-05-28T13:08:03Z</time>
</trkpt>
<trkpt lat="46.248180000" lon="7.348110000">
  <ele>800.400020</ele>
  <time>2012-05-28T13:08:04Z</time>
</trkpt>
<trkpt lat="46.248220000" lon="7.348120000">
  <ele>800.599980</ele>
  <time>2012-05-28T13:08:05Z</time>
</trkpt>
<trkpt lat="46.248260000" lon="7.348120000">
  <ele>800.799990</ele>
  <time>2012-05-28T13:08:06Z</time>
</trkpt>
<trkpt lat="46.248300000" lon="7.348130000">
  <ele>801.000000</ele>
  <time>2012-05-28T13:08:07Z</time>
</trkpt>
<trkpt lat="46.248460000" lon="7.348150000">
  <ele>801.000000</ele>
  <time>2012-05-28T13:08:11Z</time>
</trkpt>
<trkpt lat="46.248800000" lon="7.348170000">
  <ele>802.718200</ele>
  <time>2012-05-28T13:08:20Z</time>
</trkpt>
<trkpt lat="46.248830000" lon="7.348170000">
  <ele>802.909120</ele>
  <time>2012-05-28T13:08:21Z</time>
</trkpt>
<trkpt lat="46.248870000" lon="7.348170000">
  <ele>803.099980</ele>
  <time>2012-05-28T13:08:22Z</time>
</trkpt>
<trkpt lat="46.248910000" lon="7.348170000">
  <ele>803.290890</ele>
  <time>2012-05-28T13:08:23Z</time>
</trkpt>
<trkpt lat="46.248940000" lon="7.348170000">
  <ele>803.481810</ele>
  <time>2012-05-28T13:08:24Z</time>
</trkpt>
<trkpt lat="46.249110000" lon="7.348160000">
  <ele>804.436400</ele>
  <time>2012-05-28T13:08:29Z</time>
</trkpt>
<trkpt lat="46.249140000" lon="7.348160000">
  <ele>804.627260</ele>
  <time>2012-05-28T13:08:30Z</time>
</trkpt>
<trkpt lat="46.249170000" lon="7.348160000">
  <ele>804.818180</ele>
  <time>2012-05-28T13:08:31Z</time>
</trkpt>
<trkpt lat="46.249200000" lon="7.348160000">
  <ele>805.009090</ele>
  <time>2012-05-28T13:08:32Z</time>
</trkpt>
<trkpt lat="46.249220000" lon="7.348160000">
  <ele>805.200010</ele>
  <time>2012-05-28T13:08:33Z</time>
</trkpt>
<trkpt lat="46.249240000" lon="7.348160000">
  <ele>805.200010</ele>
  <time>2012-05-28T13:08:34Z</time>
</trkpt>
<trkpt lat="46.249320000" lon="7.348140000">
  <ele>806.057130</ele>
  <time>2012-05-28T13:08:37Z</time>
</trkpt>
<trkpt lat="46.249340000" lon="7.348130000">
  <ele>806.342900</ele>
  <time>2012-05-28T13:08:38Z</time>
</trkpt>
<trkpt lat="46.249370000" lon="7.348120000">
  <ele>806.628600</ele>
  <time>2012-05-28T13:08:39Z</time>
</trkpt>
<trkpt lat="46.249400000" lon="7.348100000">
  <ele>806.914310</ele>
  <time>2012-05-28T13:08:40Z</time>
</trkpt>
<trkpt lat="46.249430000" lon="7.348090000">
  <ele>807.200010</ele>
  <time>2012-05-28T13:08:41Z</time>
</trkpt>
<trkpt lat="46.249480000" lon="7.348070000">
  <ele>807.200010</ele>
  <time>2012-05-28T13:08:43Z</time>
</trkpt>
<trkpt lat="46.249510000" lon="7.348060000">
  <ele>807.640010</ele>
  <time>2012-05-28T13:08:44Z</time>
</trkpt>
<trkpt lat="46.249550000" lon="7.348040000">
  <ele>808.080020</ele>
  <time>2012-05-28T13:08:45Z</time>
</trkpt>
<trkpt lat="46.249580000" lon="7.348020000">
  <ele>808.520020</ele>
  <time>2012-05-28T13:08:46Z</time>
</trkpt>
<trkpt lat="46.249600000" lon="7.348000000">
  <ele>808.960020</ele>
  <time>2012-05-28T13:08:47Z</time>
</trkpt>
<trkpt lat="46.249620000" lon="7.347970000">
  <ele>809.400020</ele>
  <time>2012-05-28T13:08:48Z</time>
</trkpt>
<trkpt lat="46.249650000" lon="7.347960000">
  <ele>809.400020</ele>
  <time>2012-05-28T13:08:49Z</time>
</trkpt>
<trkpt lat="46.249730000" lon="7.347970000">
  <ele>810.150020</ele>
  <time>2012-05-28T13:08:52Z</time>
</trkpt>
<trkpt lat="46.249760000" lon="7.348000000">
  <ele>810.400020</ele>
  <time>2012-05-28T13:08:53Z</time>
</trkpt>
<trkpt lat="46.249780000" lon="7.348030000">
  <ele>810.650020</ele>
  <time>2012-05-28T13:08:54Z</time>
</trkpt>
<trkpt lat="46.249810000" lon="7.348060000">
  <ele>810.900020</ele>
  <time>2012-05-28T13:08:55Z</time>
</trkpt>
<trkpt lat="46.249820000" lon="7.348090000">
  <ele>811.150020</ele>
  <time>2012-05-28T13:08:56Z</time>
</trkpt>
<trkpt lat="46.249830000" lon="7.348130000">
  <ele>811.400020</ele>
  <time>2012-05-28T13:08:57Z</time>
</trkpt>
<trkpt lat="46.249850000" lon="7.348240000">
  <ele>811.400020</ele>
  <time>2012-05-28T13:09:00Z</time>
</trkpt>
<trkpt lat="46.249860000" lon="7.348270000">
  <ele>811.800050</ele>
  <time>2012-05-28T13:09:01Z</time>
</trkpt>
<trkpt lat="46.249870000" lon="7.348300000">
  <ele>812.200010</ele>
  <time>2012-05-28T13:09:02Z</time>
</trkpt>
<trkpt lat="46.249870000" lon="7.348340000">
  <ele>812.600040</ele>
  <time>2012-05-28T13:09:03Z</time>
</trkpt>
<trkpt lat="46.249880000" lon="7.348380000">
  <ele>813.000000</ele>
  <time>2012-05-28T13:09:04Z</time>
</trkpt>
<trkpt lat="46.249900000" lon="7.348420000">
  <ele>813.400020</ele>
  <time>2012-05-28T13:09:05Z</time>
</trkpt>
<trkpt lat="46.249930000" lon="7.348530000">
  <ele>813.400020</ele>
  <time>2012-05-28T13:09:08Z</time>
</trkpt>
<trkpt lat="46.250000000" lon="7.348830000">
  <ele>814.672730</ele>
  <time>2012-05-28T13:09:15Z</time>
</trkpt>
<trkpt lat="46.250010000" lon="7.348870000">
  <ele>814.854550</ele>
  <time>2012-05-28T13:09:16Z</time>
</trkpt>
<trkpt lat="46.250020000" lon="7.348910000">
  <ele>815.036380</ele>
  <time>2012-05-28T13:09:17Z</time>
</trkpt>
<trkpt lat="46.250030000" lon="7.348950000">
  <ele>815.218200</ele>
  <time>2012-05-28T13:09:18Z</time>
</trkpt>
<trkpt lat="46.250050000" lon="7.348990000">
  <ele>815.400020</ele>
  <time>2012-05-28T13:09:19Z</time>
</trkpt>
<trkpt lat="46.250110000" lon="7.349210000">
  <ele>815.400020</ele>
  <time>2012-05-28T13:09:24Z</time>
</trkpt>
<trkpt lat="46.250180000" lon="7.349310000">
  <ele>816.257140</ele>
  <time>2012-05-28T13:09:27Z</time>
</trkpt>
<trkpt lat="46.250210000" lon="7.349330000">
  <ele>816.542910</ele>
  <time>2012-05-28T13:09:28Z</time>
</trkpt>
<trkpt lat="46.250240000" lon="7.349350000">
  <ele>816.828610</ele>
  <time>2012-05-28T13:09:29Z</time>
</trkpt>
<trkpt lat="46.250270000" lon="7.349350000">
  <ele>817.114320</ele>
  <time>2012-05-28T13:09:30Z</time>
</trkpt>
<trkpt lat="46.250300000" lon="7.349350000">
  <ele>817.400020</ele>
  <time>2012-05-28T13:09:31Z</time>
</trkpt>
<trkpt lat="46.250360000" lon="7.349330000">
  <ele>817.400020</ele>
  <time>2012-05-28T13:09:33Z</time>
</trkpt>
<trkpt lat="46.250580000" lon="7.349240000">
  <ele>818.683350</ele>
  <time>2012-05-28T13:09:40Z</time>
</trkpt>
<trkpt lat="46.250610000" lon="7.349220000">
  <ele>818.866640</ele>
  <time>2012-05-28T13:09:41Z</time>
</trkpt>
<trkpt lat="46.250640000" lon="7.349210000">
  <ele>819.049990</ele>
  <time>2012-05-28T13:09:42Z</time>
</trkpt>
<trkpt lat="46.250660000" lon="7.349200000">
  <ele>819.233340</ele>
  <time>2012-05-28T13:09:43Z</time>
</trkpt>
<trkpt lat="46.250690000" lon="7.349190000">
  <ele>819.416630</ele>
  <time>2012-05-28T13:09:44Z</time>
</trkpt>
<trkpt lat="46.250720000" lon="7.349170000">
  <ele>819.599980</ele>
  <time>2012-05-28T13:09:45Z</time>
</trkpt>
<trkpt lat="46.250740000" lon="7.349150000">
  <ele>819.599980</ele>
  <time>2012-05-28T13:09:46Z</time>
</trkpt>
<trkpt lat="46.250800000" lon="7.349130000">
  <ele>820.276920</ele>
  <time>2012-05-28T13:09:48Z</time>
</trkpt>
<trkpt lat="46.250830000" lon="7.349120000">
  <ele>820.615360</ele>
  <time>2012-05-28T13:09:49Z</time>
</trkpt>
<trkpt lat="46.250860000" lon="7.349110000">
  <ele>820.953860</ele>
  <time>2012-05-28T13:09:50Z</time>
</trkpt>
<trkpt lat="46.250890000" lon="7.349090000">
  <ele>821.292300</ele>
  <time>2012-05-28T13:09:51Z</time>
</trkpt>
<trkpt lat="46.250910000" lon="7.349080000">
  <ele>821.630740</ele>
  <time>2012-05-28T13:09:52Z</time>
</trkpt>
<trkpt lat="46.251010000" lon="7.349050000">
  <ele>822.984620</ele>
  <time>2012-05-28T13:09:56Z</time>
</trkpt>
<trkpt lat="46.251040000" lon="7.349060000">
  <ele>823.323060</ele>
  <time>2012-05-28T13:09:57Z</time>
</trkpt>
<trkpt lat="46.251070000" lon="7.349070000">
  <ele>823.661560</ele>
  <time>2012-05-28T13:09:58Z</time>
</trkpt>
<trkpt lat="46.251090000" lon="7.349090000">
  <ele>824.000000</ele>
  <time>2012-05-28T13:09:59Z</time>
</trkpt>
<trkpt lat="46.251170000" lon="7.349220000">
  <ele>824.000000</ele>
  <time>2012-05-28T13:10:03Z</time>
</trkpt>
<trkpt lat="46.251270000" lon="7.349540000">
  <ele>822.799990</ele>
  <time>2012-05-28T13:10:09Z</time>
</trkpt>
<trkpt lat="46.251350000" lon="7.349820000">
  <ele>822.000000</ele>
  <time>2012-05-28T13:10:13Z</time>
</trkpt>
<trkpt lat="46.251370000" lon="7.349900000">
  <ele>821.799990</ele>
  <time>2012-05-28T13:10:14Z</time>
</trkpt>
<trkpt lat="46.251380000" lon="7.349980000">
  <ele>821.599980</ele>
  <time>2012-05-28T13:10:15Z</time>
</trkpt>
<trkpt lat="46.251390000" lon="7.350070000">
  <ele>821.400020</ele>
  <time>2012-05-28T13:10:16Z</time>
</trkpt>
<trkpt lat="46.251390000" lon="7.350250000">
  <ele>821.000000</ele>
  <time>2012-05-28T13:10:18Z</time>
</trkpt>
<trkpt lat="46.251380000" lon="7.350350000">
  <ele>820.799990</ele>
  <time>2012-05-28T13:10:19Z</time>
</trkpt>
<trkpt lat="46.251370000" lon="7.350450000">
  <ele>820.600040</ele>
  <time>2012-05-28T13:10:20Z</time>
</trkpt>
<trkpt lat="46.251370000" lon="7.350550000">
  <ele>820.400020</ele>
  <time>2012-05-28T13:10:21Z</time>
</trkpt>
<trkpt lat="46.251380000" lon="7.350770000">
  <ele>820.000000</ele>
  <time>2012-05-28T13:10:23Z</time>
</trkpt>
<trkpt lat="46.251400000" lon="7.350870000">
  <ele>819.799990</ele>
  <time>2012-05-28T13:10:24Z</time>
</trkpt>
<trkpt lat="46.251430000" lon="7.350970000">
  <ele>819.600040</ele>
  <time>2012-05-28T13:10:25Z</time>
</trkpt>
<trkpt lat="46.251470000" lon="7.351070000">
  <ele>819.400020</ele>
  <time>2012-05-28T13:10:26Z</time>
</trkpt>
<trkpt lat="46.251500000" lon="7.351170000">
  <ele>819.200010</ele>
  <time>2012-05-28T13:10:27Z</time>
</trkpt>
<trkpt lat="46.251540000" lon="7.351270000">
  <ele>819.200010</ele>
  <time>2012-05-28T13:10:28Z</time>
</trkpt>
<trkpt lat="46.251730000" lon="7.351750000">
  <ele>818.400020</ele>
  <time>2012-05-28T13:10:33Z</time>
</trkpt>
<trkpt lat="46.251820000" lon="7.352030000">
  <ele>817.919980</ele>
  <time>2012-05-28T13:10:36Z</time>
</trkpt>
<trkpt lat="46.251910000" lon="7.352300000">
  <ele>817.440000</ele>
  <time>2012-05-28T13:10:39Z</time>
</trkpt>
<trkpt lat="46.251930000" lon="7.352380000">
  <ele>817.279970</ele>
  <time>2012-05-28T13:10:40Z</time>
</trkpt>
<trkpt lat="46.251960000" lon="7.352470000">
  <ele>817.120000</ele>
  <time>2012-05-28T13:10:41Z</time>
</trkpt>
<trkpt lat="46.251990000" lon="7.352550000">
  <ele>816.959960</ele>
  <time>2012-05-28T13:10:42Z</time>
</trkpt>
<trkpt lat="46.252020000" lon="7.352630000">
  <ele>816.799990</ele>
  <time>2012-05-28T13:10:43Z</time>
</trkpt>
<trkpt lat="46.252250000" lon="7.353270000">
  <ele>816.799990</ele>
  <time>2012-05-28T13:10:51Z</time>
</trkpt>
<trkpt lat="46.252380000" lon="7.353610000">
  <ele>816.433350</ele>
  <time>2012-05-28T13:10:55Z</time>
</trkpt>
<trkpt lat="46.252530000" lon="7.353940000">
  <ele>816.066650</ele>
  <time>2012-05-28T13:10:59Z</time>
</trkpt>
<trkpt lat="46.252740000" lon="7.354490000">
  <ele>815.424990</ele>
  <time>2012-05-28T13:11:06Z</time>
</trkpt>
<trkpt lat="46.252840000" lon="7.354930000">
  <ele>814.966670</ele>
  <time>2012-05-28T13:11:11Z</time>
</trkpt>
<trkpt lat="46.252850000" lon="7.355010000">
  <ele>814.875000</ele>
  <time>2012-05-28T13:11:12Z</time>
</trkpt>
<trkpt lat="46.252850000" lon="7.355100000">
  <ele>814.783330</ele>
  <time>2012-05-28T13:11:13Z</time>
</trkpt>
<trkpt lat="46.252860000" lon="7.355190000">
  <ele>814.691650</ele>
  <time>2012-05-28T13:11:14Z</time>
</trkpt>
<trkpt lat="46.252860000" lon="7.355280000">
  <ele>814.599980</ele>
  <time>2012-05-28T13:11:15Z</time>
</trkpt>
<trkpt lat="46.252850000" lon="7.355540000">
  <ele>814.599980</ele>
  <time>2012-05-28T13:11:18Z</time>
</trkpt>
<trkpt lat="46.252830000" lon="7.356240000">
  <ele>815.442080</ele>
  <time>2012-05-28T13:11:26Z</time>
</trkpt>
<trkpt lat="46.252930000" lon="7.356830000">
  <ele>816.178890</ele>
  <time>2012-05-28T13:11:33Z</time>
</trkpt>
<trkpt lat="46.252950000" lon="7.356910000">
  <ele>816.284180</ele>
  <time>2012-05-28T13:11:34Z</time>
</trkpt>
<trkpt lat="46.252970000" lon="7.356990000">
  <ele>816.389470</ele>
  <time>2012-05-28T13:11:35Z</time>
</trkpt>
<trkpt lat="46.252990000" lon="7.357070000">
  <ele>816.494690</ele>
  <time>2012-05-28T13:11:36Z</time>
</trkpt>
<trkpt lat="46.253010000" lon="7.357150000">
  <ele>816.599980</ele>
  <time>2012-05-28T13:11:37Z</time>
</trkpt>
<trkpt lat="46.253120000" lon="7.357550000">
  <ele>816.599980</ele>
  <time>2012-05-28T13:11:42Z</time>
</trkpt>
<trkpt lat="46.253260000" lon="7.358120000">
  <ele>817.269530</ele>
  <time>2012-05-28T13:11:49Z</time>
</trkpt>
<trkpt lat="46.253340000" lon="7.358360000">
  <ele>817.556520</ele>
  <time>2012-05-28T13:11:52Z</time>
</trkpt>
<trkpt lat="46.253430000" lon="7.358570000">
  <ele>817.843440</ele>
  <time>2012-05-28T13:11:55Z</time>
</trkpt>
<trkpt lat="46.253530000" lon="7.358760000">
  <ele>818.130430</ele>
  <time>2012-05-28T13:11:58Z</time>
</trkpt>
<trkpt lat="46.253570000" lon="7.358810000">
  <ele>818.226070</ele>
  <time>2012-05-28T13:11:59Z</time>
</trkpt>
<trkpt lat="46.253630000" lon="7.358930000">
  <ele>818.417360</ele>
  <time>2012-05-28T13:12:01Z</time>
</trkpt>
<trkpt lat="46.253670000" lon="7.358980000">
  <ele>818.513000</ele>
  <time>2012-05-28T13:12:02Z</time>
</trkpt>
<trkpt lat="46.253700000" lon="7.359020000">
  <ele>818.608700</ele>
  <time>2012-05-28T13:12:03Z</time>
</trkpt>
<trkpt lat="46.253740000" lon="7.359070000">
  <ele>818.704350</ele>
  <time>2012-05-28T13:12:04Z</time>
</trkpt>
<trkpt lat="46.253770000" lon="7.359130000">
  <ele>818.799990</ele>
  <time>2012-05-28T13:12:05Z</time>
</trkpt>
<trkpt lat="46.253870000" lon="7.359280000">
  <ele>818.799990</ele>
  <time>2012-05-28T13:12:08Z</time>
</trkpt>
<trkpt lat="46.253900000" lon="7.359330000">
  <ele>819.239990</ele>
  <time>2012-05-28T13:12:09Z</time>
</trkpt>
<trkpt lat="46.253930000" lon="7.359380000">
  <ele>819.679990</ele>
  <time>2012-05-28T13:12:10Z</time>
</trkpt>
<trkpt lat="46.253960000" lon="7.359420000">
  <ele>820.120000</ele>
  <time>2012-05-28T13:12:11Z</time>
</trkpt>
<trkpt lat="46.253990000" lon="7.359460000">
  <ele>820.560000</ele>
  <time>2012-05-28T13:12:12Z</time>
</trkpt>
<trkpt lat="46.254020000" lon="7.359500000">
  <ele>821.000000</ele>
  <time>2012-05-28T13:12:13Z</time>
</trkpt>
<trkpt lat="46.254050000" lon="7.359550000">
  <ele>821.000000</ele>
  <time>2012-05-28T13:12:14Z</time>
</trkpt>
<trkpt lat="46.254110000" lon="7.359640000">
  <ele>821.628600</ele>
  <time>2012-05-28T13:12:16Z</time>
</trkpt>
<trkpt lat="46.254140000" lon="7.359690000">
  <ele>821.942870</ele>
  <time>2012-05-28T13:12:17Z</time>
</trkpt>
<trkpt lat="46.254180000" lon="7.359730000">
  <ele>822.257140</ele>
  <time>2012-05-28T13:12:18Z</time>
</trkpt>
<trkpt lat="46.254220000" lon="7.359760000">
  <ele>822.571410</ele>
  <time>2012-05-28T13:12:19Z</time>
</trkpt>
<trkpt lat="46.254250000" lon="7.359790000">
  <ele>822.885740</ele>
  <time>2012-05-28T13:12:20Z</time>
</trkpt>
<trkpt lat="46.254290000" lon="7.359820000">
  <ele>823.200010</ele>
  <time>2012-05-28T13:12:21Z</time>
</trkpt>
<trkpt lat="46.254330000" lon="7.359840000">
  <ele>823.200010</ele>
  <time>2012-05-28T13:12:22Z</time>
</trkpt>
<trkpt lat="46.254380000" lon="7.359860000">
  <ele>823.433350</ele>
  <time>2012-05-28T13:12:23Z</time>
</trkpt>
<trkpt lat="46.254460000" lon="7.359900000">
  <ele>823.900020</ele>
  <time>2012-05-28T13:12:25Z</time>
</trkpt>
<trkpt lat="46.254580000" lon="7.359960000">
  <ele>824.600040</ele>
  <time>2012-05-28T13:12:28Z</time>
</trkpt>
<trkpt lat="46.254620000" lon="7.359990000">
  <ele>824.833370</ele>
  <time>2012-05-28T13:12:29Z</time>
</trkpt>
<trkpt lat="46.254650000" lon="7.360030000">
  <ele>825.066710</ele>
  <time>2012-05-28T13:12:30Z</time>
</trkpt>
<trkpt lat="46.254680000" lon="7.360070000">
  <ele>825.300050</ele>
  <time>2012-05-28T13:12:31Z</time>
</trkpt>
<trkpt lat="46.254710000" lon="7.360110000">
  <ele>825.533330</ele>
  <time>2012-05-28T13:12:32Z</time>
</trkpt>
<trkpt lat="46.254790000" lon="7.360290000">
  <ele>826.466670</ele>
  <time>2012-05-28T13:12:36Z</time>
</trkpt>
<trkpt lat="46.254810000" lon="7.360340000">
  <ele>826.700010</ele>
  <time>2012-05-28T13:12:37Z</time>
</trkpt>
<trkpt lat="46.254840000" lon="7.360390000">
  <ele>826.933350</ele>
  <time>2012-05-28T13:12:38Z</time>
</trkpt>
<trkpt lat="46.254860000" lon="7.360430000">
  <ele>827.166690</ele>
  <time>2012-05-28T13:12:39Z</time>
</trkpt>
<trkpt lat="46.254880000" lon="7.360470000">
  <ele>827.400020</ele>
  <time>2012-05-28T13:12:40Z</time>
</trkpt>
<trkpt lat="46.254960000" lon="7.360600000">
  <ele>827.400020</ele>
  <time>2012-05-28T13:12:43Z</time>
</trkpt>
<trkpt lat="46.254980000" lon="7.360650000">
  <ele>827.685730</ele>
  <time>2012-05-28T13:12:44Z</time>
</trkpt>
<trkpt lat="46.255030000" lon="7.360740000">
  <ele>828.257140</ele>
  <time>2012-05-28T13:12:46Z</time>
</trkpt>
<trkpt lat="46.255050000" lon="7.360790000">
  <ele>828.542910</ele>
  <time>2012-05-28T13:12:47Z</time>
</trkpt>
<trkpt lat="46.255080000" lon="7.360840000">
  <ele>828.828610</ele>
  <time>2012-05-28T13:12:48Z</time>
</trkpt>
<trkpt lat="46.255100000" lon="7.360890000">
  <ele>829.114320</ele>
  <time>2012-05-28T13:12:49Z</time>
</trkpt>
<trkpt lat="46.255130000" lon="7.360940000">
  <ele>829.400020</ele>
  <time>2012-05-28T13:12:50Z</time>
</trkpt>
<trkpt lat="46.255200000" lon="7.361030000">
  <ele>829.400020</ele>
  <time>2012-05-28T13:12:52Z</time>
</trkpt>
<trkpt lat="46.255260000" lon="7.361130000">
  <ele>829.557190</ele>
  <time>2012-05-28T13:12:54Z</time>
</trkpt>
<trkpt lat="46.255430000" lon="7.361380000">
  <ele>829.950010</ele>
  <time>2012-05-28T13:12:59Z</time>
</trkpt>
<trkpt lat="46.255720000" lon="7.361750000">
  <ele>830.578550</ele>
  <time>2012-05-28T13:13:07Z</time>
</trkpt>
<trkpt lat="46.255840000" lon="7.361880000">
  <ele>830.814270</ele>
  <time>2012-05-28T13:13:10Z</time>
</trkpt>
<trkpt lat="46.256010000" lon="7.362010000">
  <ele>831.128540</ele>
  <time>2012-05-28T13:13:14Z</time>
</trkpt>
<trkpt lat="46.256100000" lon="7.362060000">
  <ele>831.285710</ele>
  <time>2012-05-28T13:13:16Z</time>
</trkpt>
<trkpt lat="46.256150000" lon="7.362080000">
  <ele>831.364260</ele>
  <time>2012-05-28T13:13:17Z</time>
</trkpt>
<trkpt lat="46.256190000" lon="7.362110000">
  <ele>831.442810</ele>
  <time>2012-05-28T13:13:18Z</time>
</trkpt>
<trkpt lat="46.256240000" lon="7.362130000">
  <ele>831.521420</ele>
  <time>2012-05-28T13:13:19Z</time>
</trkpt>
<trkpt lat="46.256280000" lon="7.362160000">
  <ele>831.599980</ele>
  <time>2012-05-28T13:13:20Z</time>
</trkpt>
<trkpt lat="46.256320000" lon="7.362190000">
  <ele>831.599980</ele>
  <time>2012-05-28T13:13:21Z</time>
</trkpt>
<trkpt lat="46.256530000" lon="7.362330000">
  <ele>832.695250</ele>
  <time>2012-05-28T13:13:26Z</time>
</trkpt>
<trkpt lat="46.256600000" lon="7.362390000">
  <ele>833.133300</ele>
  <time>2012-05-28T13:13:28Z</time>
</trkpt>
<trkpt lat="46.256680000" lon="7.362470000">
  <ele>833.790470</ele>
  <time>2012-05-28T13:13:31Z</time>
</trkpt>
<trkpt lat="46.256720000" lon="7.362500000">
  <ele>834.009520</ele>
  <time>2012-05-28T13:13:32Z</time>
</trkpt>
<trkpt lat="46.256740000" lon="7.362530000">
  <ele>834.228580</ele>
  <time>2012-05-28T13:13:33Z</time>
</trkpt>
<trkpt lat="46.256770000" lon="7.362560000">
  <ele>834.447630</ele>
  <time>2012-05-28T13:13:34Z</time>
</trkpt>
<trkpt lat="46.256800000" lon="7.362590000">
  <ele>834.666690</ele>
  <time>2012-05-28T13:13:35Z</time>
</trkpt>
<trkpt lat="46.256900000" lon="7.362700000">
  <ele>835.542850</ele>
  <time>2012-05-28T13:13:39Z</time>
</trkpt>
<trkpt lat="46.256930000" lon="7.362720000">
  <ele>835.761900</ele>
  <time>2012-05-28T13:13:40Z</time>
</trkpt>
<trkpt lat="46.256950000" lon="7.362750000">
  <ele>835.980960</ele>
  <time>2012-05-28T13:13:41Z</time>
</trkpt>
<trkpt lat="46.256980000" lon="7.362780000">
  <ele>836.200010</ele>
  <time>2012-05-28T13:13:42Z</time>
</trkpt>
<trkpt lat="46.257030000" lon="7.362830000">
  <ele>836.200010</ele>
  <time>2012-05-28T13:13:44Z</time>
</trkpt>
<trkpt lat="46.257060000" lon="7.362860000">
  <ele>836.640010</ele>
  <time>2012-05-28T13:13:45Z</time>
</trkpt>
<trkpt lat="46.257090000" lon="7.362880000">
  <ele>837.080020</ele>
  <time>2012-05-28T13:13:46Z</time>
</trkpt>
<trkpt lat="46.257110000" lon="7.362900000">
  <ele>837.520020</ele>
  <time>2012-05-28T13:13:47Z</time>
</trkpt>
<trkpt lat="46.257140000" lon="7.362930000">
  <ele>837.960020</ele>
  <time>2012-05-28T13:13:48Z</time>
</trkpt>
<trkpt lat="46.257160000" lon="7.362950000">
  <ele>838.400020</ele>
  <time>2012-05-28T13:13:49Z</time>
</trkpt>
<trkpt lat="46.257210000" lon="7.363020000">
  <ele>838.400020</ele>
  <time>2012-05-28T13:13:51Z</time>
</trkpt>
<trkpt lat="46.257300000" lon="7.363110000">
  <ele>839.225040</ele>
  <time>2012-05-28T13:13:54Z</time>
</trkpt>
<trkpt lat="46.257330000" lon="7.363140000">
  <ele>839.500000</ele>
  <time>2012-05-28T13:13:55Z</time>
</trkpt>
<trkpt lat="46.257350000" lon="7.363170000">
  <ele>839.775020</ele>
  <time>2012-05-28T13:13:56Z</time>
</trkpt>
<trkpt lat="46.257380000" lon="7.363200000">
  <ele>840.050050</ele>
  <time>2012-05-28T13:13:57Z</time>
</trkpt>
<trkpt lat="46.257400000" lon="7.363220000">
  <ele>840.325010</ele>
  <time>2012-05-28T13:13:58Z</time>
</trkpt>
<trkpt lat="46.257500000" lon="7.363340000">
  <ele>841.424990</ele>
  <time>2012-05-28T13:14:02Z</time>
</trkpt>
<trkpt lat="46.257520000" lon="7.363370000">
  <ele>841.700010</ele>
  <time>2012-05-28T13:14:03Z</time>
</trkpt>
<trkpt lat="46.257550000" lon="7.363410000">
  <ele>841.975040</ele>
  <time>2012-05-28T13:14:04Z</time>
</trkpt>
<trkpt lat="46.257560000" lon="7.363450000">
  <ele>842.250000</ele>
  <time>2012-05-28T13:14:05Z</time>
</trkpt>
<trkpt lat="46.257690000" lon="7.363680000">
  <ele>843.900020</ele>
  <time>2012-05-28T13:14:11Z</time>
</trkpt>
<trkpt lat="46.257710000" lon="7.363720000">
  <ele>844.174990</ele>
  <time>2012-05-28T13:14:12Z</time>
</trkpt>
<trkpt lat="46.257730000" lon="7.363760000">
  <ele>844.450010</ele>
  <time>2012-05-28T13:14:13Z</time>
</trkpt>
<trkpt lat="46.257750000" lon="7.363790000">
  <ele>844.724980</ele>
  <time>2012-05-28T13:14:14Z</time>
</trkpt>
<trkpt lat="46.257770000" lon="7.363830000">
  <ele>845.000000</ele>
  <time>2012-05-28T13:14:15Z</time>
</trkpt>
<trkpt lat="46.257860000" lon="7.364050000">
  <ele>845.000000</ele>
  <time>2012-05-28T13:14:20Z</time>
</trkpt>
<trkpt lat="46.257960000" lon="7.364260000">
  <ele>845.500000</ele>
  <time>2012-05-28T13:14:25Z</time>
</trkpt>
<trkpt lat="46.258050000" lon="7.364430000">
  <ele>845.900020</ele>
  <time>2012-05-28T13:14:29Z</time>
</trkpt>
<trkpt lat="46.258180000" lon="7.364700000">
  <ele>846.500000</ele>
  <time>2012-05-28T13:14:35Z</time>
</trkpt>
<trkpt lat="46.258200000" lon="7.364750000">
  <ele>846.599980</ele>
  <time>2012-05-28T13:14:36Z</time>
</trkpt>
<trkpt lat="46.258220000" lon="7.364800000">
  <ele>846.700010</ele>
  <time>2012-05-28T13:14:37Z</time>
</trkpt>
<trkpt lat="46.258250000" lon="7.364840000">
  <ele>846.799990</ele>
  <time>2012-05-28T13:14:38Z</time>
</trkpt>
<trkpt lat="46.258270000" lon="7.364880000">
  <ele>846.900020</ele>
  <time>2012-05-28T13:14:39Z</time>
</trkpt>
<trkpt lat="46.258290000" lon="7.364930000">
  <ele>847.000000</ele>
  <time>2012-05-28T13:14:40Z</time>
</trkpt>
<trkpt lat="46.258410000" lon="7.365140000">
  <ele>847.000000</ele>
  <time>2012-05-28T13:14:45Z</time>
</trkpt>
<trkpt lat="46.258480000" lon="7.365270000">
  <ele>847.599980</ele>
  <time>2012-05-28T13:14:48Z</time>
</trkpt>
<trkpt lat="46.258580000" lon="7.365440000">
  <ele>848.400020</ele>
  <time>2012-05-28T13:14:52Z</time>
</trkpt>
<trkpt lat="46.258610000" lon="7.365480000">
  <ele>848.600040</ele>
  <time>2012-05-28T13:14:53Z</time>
</trkpt>
<trkpt lat="46.258640000" lon="7.365530000">
  <ele>848.799990</ele>
  <time>2012-05-28T13:14:54Z</time>
</trkpt>
<trkpt lat="46.258670000" lon="7.365570000">
  <ele>849.000000</ele>
  <time>2012-05-28T13:14:55Z</time>
</trkpt>
<trkpt lat="46.258690000" lon="7.365610000">
  <ele>849.200010</ele>
  <time>2012-05-28T13:14:56Z</time>
</trkpt>
<trkpt lat="46.258750000" lon="7.365680000">
  <ele>849.200010</ele>
  <time>2012-05-28T13:14:58Z</time>
</trkpt>
<trkpt lat="46.258970000" lon="7.365950000">
  <ele>849.682800</ele>
  <time>2012-05-28T13:15:05Z</time>
</trkpt>
<trkpt lat="46.259210000" lon="7.366260000">
  <ele>850.165530</ele>
  <time>2012-05-28T13:15:12Z</time>
</trkpt>
<trkpt lat="46.259240000" lon="7.366300000">
  <ele>850.234500</ele>
  <time>2012-05-28T13:15:13Z</time>
</trkpt>
<trkpt lat="46.259350000" lon="7.366490000">
  <ele>850.510380</ele>
  <time>2012-05-28T13:15:17Z</time>
</trkpt>
<trkpt lat="46.259380000" lon="7.366540000">
  <ele>850.579350</ele>
  <time>2012-05-28T13:15:18Z</time>
</trkpt>
<trkpt lat="46.259460000" lon="7.366700000">
  <ele>850.786190</ele>
  <time>2012-05-28T13:15:21Z</time>
</trkpt>
<trkpt lat="46.259490000" lon="7.366750000">
  <ele>850.855160</ele>
  <time>2012-05-28T13:15:22Z</time>
</trkpt>
<trkpt lat="46.259520000" lon="7.366800000">
  <ele>850.924130</ele>
  <time>2012-05-28T13:15:23Z</time>
</trkpt>
<trkpt lat="46.259540000" lon="7.366850000">
  <ele>850.993100</ele>
  <time>2012-05-28T13:15:24Z</time>
</trkpt>
<trkpt lat="46.259570000" lon="7.366900000">
  <ele>851.062070</ele>
  <time>2012-05-28T13:15:25Z</time>
</trkpt>
<trkpt lat="46.259600000" lon="7.366940000">
  <ele>851.131040</ele>
  <time>2012-05-28T13:15:26Z</time>
</trkpt>
<trkpt lat="46.259630000" lon="7.366980000">
  <ele>851.200010</ele>
  <time>2012-05-28T13:15:27Z</time>
</trkpt>
<trkpt lat="46.259670000" lon="7.367020000">
  <ele>851.200010</ele>
  <time>2012-05-28T13:15:28Z</time>
</trkpt>
<trkpt lat="46.259740000" lon="7.367060000">
  <ele>851.600040</ele>
  <time>2012-05-28T13:15:30Z</time>
</trkpt>
<trkpt lat="46.259870000" lon="7.367160000">
  <ele>852.400020</ele>
  <time>2012-05-28T13:15:34Z</time>
</trkpt>
<trkpt lat="46.259910000" lon="7.367180000">
  <ele>852.600040</ele>
  <time>2012-05-28T13:15:35Z</time>
</trkpt>
<trkpt lat="46.259940000" lon="7.367200000">
  <ele>852.799990</ele>
  <time>2012-05-28T13:15:36Z</time>
</trkpt>
<trkpt lat="46.259970000" lon="7.367220000">
  <ele>853.000000</ele>
  <time>2012-05-28T13:15:37Z</time>
</trkpt>
<trkpt lat="46.260000000" lon="7.367250000">
  <ele>853.200010</ele>
  <time>2012-05-28T13:15:38Z</time>
</trkpt>
<trkpt lat="46.260110000" lon="7.367340000">
  <ele>853.200010</ele>
  <time>2012-05-28T13:15:41Z</time>
</trkpt>
<trkpt lat="46.260140000" lon="7.367380000">
  <ele>853.266660</ele>
  <time>2012-05-28T13:15:42Z</time>
</trkpt>
<trkpt lat="46.260350000" lon="7.367680000">
  <ele>853.666690</ele>
  <time>2012-05-28T13:15:48Z</time>
</trkpt>
<trkpt lat="46.260600000" lon="7.368080000">
  <ele>854.133360</ele>
  <time>2012-05-28T13:15:55Z</time>
</trkpt>
<trkpt lat="46.260810000" lon="7.368550000">
  <ele>854.666690</ele>
  <time>2012-05-28T13:16:03Z</time>
</trkpt>
<trkpt lat="46.260970000" lon="7.368900000">
  <ele>855.133360</ele>
  <time>2012-05-28T13:16:10Z</time>
</trkpt>
<trkpt lat="46.261010000" lon="7.368950000">
  <ele>855.200010</ele>
  <time>2012-05-28T13:16:11Z</time>
</trkpt>
<trkpt lat="46.261040000" lon="7.369000000">
  <ele>855.266660</ele>
  <time>2012-05-28T13:16:12Z</time>
</trkpt>
<trkpt lat="46.261070000" lon="7.369040000">
  <ele>855.333370</ele>
  <time>2012-05-28T13:16:13Z</time>
</trkpt>
<trkpt lat="46.261100000" lon="7.369080000">
  <ele>855.400020</ele>
  <time>2012-05-28T13:16:14Z</time>
</trkpt>
<trkpt lat="46.261280000" lon="7.369290000">
  <ele>855.400020</ele>
  <time>2012-05-28T13:16:19Z</time>
</trkpt>
<trkpt lat="46.261550000" lon="7.369520000">
  <ele>856.177800</ele>
  <time>2012-05-28T13:16:26Z</time>
</trkpt>
<trkpt lat="46.261640000" lon="7.369580000">
  <ele>856.400020</ele>
  <time>2012-05-28T13:16:28Z</time>
</trkpt>
<trkpt lat="46.261780000" lon="7.369630000">
  <ele>856.733340</ele>
  <time>2012-05-28T13:16:31Z</time>
</trkpt>
<trkpt lat="46.261820000" lon="7.369640000">
  <ele>856.844480</ele>
  <time>2012-05-28T13:16:32Z</time>
</trkpt>
<trkpt lat="46.261870000" lon="7.369640000">
  <ele>856.955570</ele>
  <time>2012-05-28T13:16:33Z</time>
</trkpt>
<trkpt lat="46.261920000" lon="7.369640000">
  <ele>857.066710</ele>
  <time>2012-05-28T13:16:34Z</time>
</trkpt>
<trkpt lat="46.261970000" lon="7.369640000">
  <ele>857.177800</ele>
  <time>2012-05-28T13:16:35Z</time>
</trkpt>
<trkpt lat="46.262020000" lon="7.369630000">
  <ele>857.288940</ele>
  <time>2012-05-28T13:16:36Z</time>
</trkpt>
<trkpt lat="46.262080000" lon="7.369620000">
  <ele>857.400020</ele>
  <time>2012-05-28T13:16:37Z</time>
</trkpt>
<trkpt lat="46.262140000" lon="7.369600000">
  <ele>857.400020</ele>
  <time>2012-05-28T13:16:38Z</time>
</trkpt>
<trkpt lat="46.262310000" lon="7.369530000">
  <ele>855.847050</ele>
  <time>2012-05-28T13:16:41Z</time>
</trkpt>
<trkpt lat="46.262380000" lon="7.369510000">
  <ele>855.329410</ele>
  <time>2012-05-28T13:16:42Z</time>
</trkpt>
<trkpt lat="46.262450000" lon="7.369510000">
  <ele>854.811770</ele>
  <time>2012-05-28T13:16:43Z</time>
</trkpt>
<trkpt lat="46.262520000" lon="7.369520000">
  <ele>854.294130</ele>
  <time>2012-05-28T13:16:44Z</time>
</trkpt>
<trkpt lat="46.262600000" lon="7.369570000">
  <ele>853.776490</ele>
  <time>2012-05-28T13:16:45Z</time>
</trkpt>
<trkpt lat="46.262670000" lon="7.369650000">
  <ele>853.258850</ele>
  <time>2012-05-28T13:16:46Z</time>
</trkpt>
<trkpt lat="46.262730000" lon="7.369750000">
  <ele>852.741150</ele>
  <time>2012-05-28T13:16:47Z</time>
</trkpt>
<trkpt lat="46.262770000" lon="7.369870000">
  <ele>852.223510</ele>
  <time>2012-05-28T13:16:48Z</time>
</trkpt>
<trkpt lat="46.262800000" lon="7.370000000">
  <ele>851.705870</ele>
  <time>2012-05-28T13:16:49Z</time>
</trkpt>
<trkpt lat="46.262810000" lon="7.370130000">
  <ele>851.188230</ele>
  <time>2012-05-28T13:16:50Z</time>
</trkpt>
<trkpt lat="46.262820000" lon="7.370260000">
  <ele>850.670590</ele>
  <time>2012-05-28T13:16:51Z</time>
</trkpt>
<trkpt lat="46.262850000" lon="7.370380000">
  <ele>850.152950</ele>
  <time>2012-05-28T13:16:52Z</time>
</trkpt>
<trkpt lat="46.262910000" lon="7.370500000">
  <ele>849.635250</ele>
  <time>2012-05-28T13:16:53Z</time>
</trkpt>
<trkpt lat="46.262980000" lon="7.370590000">
  <ele>849.117610</ele>
  <time>2012-05-28T13:16:54Z</time>
</trkpt>
<trkpt lat="46.263060000" lon="7.370650000">
  <ele>848.599980</ele>
  <time>2012-05-28T13:16:55Z</time>
</trkpt>
<trkpt lat="46.263240000" lon="7.370720000">
  <ele>848.599980</ele>
  <time>2012-05-28T13:16:57Z</time>
</trkpt>
<trkpt lat="46.263340000" lon="7.370720000">
  <ele>848.099980</ele>
  <time>2012-05-28T13:16:58Z</time>
</trkpt>
<trkpt lat="46.263430000" lon="7.370710000">
  <ele>847.599980</ele>
  <time>2012-05-28T13:16:59Z</time>
</trkpt>
<trkpt lat="46.263530000" lon="7.370710000">
  <ele>847.099980</ele>
  <time>2012-05-28T13:17:00Z</time>
</trkpt>
<trkpt lat="46.263630000" lon="7.370690000">
  <ele>846.599980</ele>
  <time>2012-05-28T13:17:01Z</time>
</trkpt>
<trkpt lat="46.263730000" lon="7.370670000">
  <ele>846.099980</ele>
  <time>2012-05-28T13:17:02Z</time>
</trkpt>
<trkpt lat="46.263820000" lon="7.370640000">
  <ele>845.599980</ele>
  <time>2012-05-28T13:17:03Z</time>
</trkpt>
<trkpt lat="46.263910000" lon="7.370600000">
  <ele>845.099980</ele>
  <time>2012-05-28T13:17:04Z</time>
</trkpt>
<trkpt lat="46.264000000" lon="7.370570000">
  <ele>844.599980</ele>
  <time>2012-05-28T13:17:05Z</time>
</trkpt>
<trkpt lat="46.264080000" lon="7.370560000">
  <ele>844.099980</ele>
  <time>2012-05-28T13:17:06Z</time>
</trkpt>
<trkpt lat="46.264160000" lon="7.370570000">
  <ele>843.599980</ele>
  <time>2012-05-28T13:17:07Z</time>
</trkpt>
<trkpt lat="46.264260000" lon="7.370720000">
  <ele>843.599980</ele>
  <time>2012-05-28T13:17:09Z</time>
</trkpt>
<trkpt lat="46.264250000" lon="7.370810000">
  <ele>843.199950</ele>
  <time>2012-05-28T13:17:10Z</time>
</trkpt>
<trkpt lat="46.264210000" lon="7.370900000">
  <ele>842.799990</ele>
  <time>2012-05-28T13:17:11Z</time>
</trkpt>
<trkpt lat="46.264170000" lon="7.370950000">
  <ele>842.399960</ele>
  <time>2012-05-28T13:17:12Z</time>
</trkpt>
<trkpt lat="46.264110000" lon="7.370990000">
  <ele>842.000000</ele>
  <time>2012-05-28T13:17:13Z</time>
</trkpt>
<trkpt lat="46.264060000" lon="7.371030000">
  <ele>841.599980</ele>
  <time>2012-05-28T13:17:14Z</time>
</trkpt>
<trkpt lat="46.263960000" lon="7.371120000">
  <ele>842.000000</ele>
  <time>2012-05-28T13:17:16Z</time>
</trkpt>
<trkpt lat="46.263910000" lon="7.371160000">
  <ele>842.533330</ele>
  <time>2012-05-28T13:17:17Z</time>
</trkpt>
<trkpt lat="46.263870000" lon="7.371200000">
  <ele>843.066650</ele>
  <time>2012-05-28T13:17:18Z</time>
</trkpt>
<trkpt lat="46.263820000" lon="7.371230000">
  <ele>843.599980</ele>
  <time>2012-05-28T13:17:19Z</time>
</trkpt>
<trkpt lat="46.263780000" lon="7.371260000">
  <ele>843.599980</ele>
  <time>2012-05-28T13:17:20Z</time>
</trkpt>
<trkpt lat="46.263670000" lon="7.371360000">
  <ele>844.666630</ele>
  <time>2012-05-28T13:17:23Z</time>
</trkpt>
<trkpt lat="46.263630000" lon="7.371390000">
  <ele>845.022220</ele>
  <time>2012-05-28T13:17:24Z</time>
</trkpt>
<trkpt lat="46.263590000" lon="7.371420000">
  <ele>845.377750</ele>
  <time>2012-05-28T13:17:25Z</time>
</trkpt>
<trkpt lat="46.263560000" lon="7.371450000">
  <ele>845.733340</ele>
  <time>2012-05-28T13:17:26Z</time>
</trkpt>
<trkpt lat="46.263520000" lon="7.371480000">
  <ele>846.088870</ele>
  <time>2012-05-28T13:17:27Z</time>
</trkpt>
<trkpt lat="46.263450000" lon="7.371550000">
  <ele>846.799990</ele>
  <time>2012-05-28T13:17:29Z</time>
</trkpt>
<trkpt lat="46.263420000" lon="7.371570000">
  <ele>847.155520</ele>
  <time>2012-05-28T13:17:30Z</time>
</trkpt>
<trkpt lat="46.263380000" lon="7.371600000">
  <ele>847.511110</ele>
  <time>2012-05-28T13:17:31Z</time>
</trkpt>
<trkpt lat="46.263340000" lon="7.371630000">
  <ele>847.866640</ele>
  <time>2012-05-28T13:17:32Z</time>
</trkpt>
<trkpt lat="46.263310000" lon="7.371660000">
  <ele>848.222230</ele>
  <time>2012-05-28T13:17:33Z</time>
</trkpt>
<trkpt lat="46.263270000" lon="7.371680000">
  <ele>848.577760</ele>
  <time>2012-05-28T13:17:34Z</time>
</trkpt>
<trkpt lat="46.263230000" lon="7.371700000">
  <ele>848.933350</ele>
  <time>2012-05-28T13:17:35Z</time>
</trkpt>
<trkpt lat="46.263200000" lon="7.371710000">
  <ele>849.288880</ele>
  <time>2012-05-28T13:17:36Z</time>
</trkpt>
<trkpt lat="46.263170000" lon="7.371730000">
  <ele>849.644470</ele>
  <time>2012-05-28T13:17:37Z</time>
</trkpt>
<trkpt lat="46.263130000" lon="7.371730000">
  <ele>850.000000</ele>
  <time>2012-05-28T13:17:38Z</time>
</trkpt>
<trkpt lat="46.263060000" lon="7.371740000">
  <ele>850.000000</ele>
  <time>2012-05-28T13:17:40Z</time>
</trkpt>
<trkpt lat="46.262990000" lon="7.371730000">
  <ele>850.733340</ele>
  <time>2012-05-28T13:17:42Z</time>
</trkpt>
<trkpt lat="46.262960000" lon="7.371730000">
  <ele>851.099980</ele>
  <time>2012-05-28T13:17:43Z</time>
</trkpt>
<trkpt lat="46.262920000" lon="7.371710000">
  <ele>851.466670</ele>
  <time>2012-05-28T13:17:44Z</time>
</trkpt>
<trkpt lat="46.262890000" lon="7.371690000">
  <ele>851.833370</ele>
  <time>2012-05-28T13:17:45Z</time>
</trkpt>
<trkpt lat="46.262850000" lon="7.371670000">
  <ele>852.200010</ele>
  <time>2012-05-28T13:17:46Z</time>
</trkpt>
<trkpt lat="46.262780000" lon="7.371620000">
  <ele>852.200010</ele>
  <time>2012-05-28T13:17:48Z</time>
</trkpt>
<trkpt lat="46.262740000" lon="7.371610000">
  <ele>852.640010</ele>
  <time>2012-05-28T13:17:49Z</time>
</trkpt>
<trkpt lat="46.262710000" lon="7.371590000">
  <ele>853.080020</ele>
  <time>2012-05-28T13:17:50Z</time>
</trkpt>
<trkpt lat="46.262680000" lon="7.371590000">
  <ele>853.520020</ele>
  <time>2012-05-28T13:17:51Z</time>
</trkpt>
<trkpt lat="46.262650000" lon="7.371580000">
  <ele>853.960020</ele>
  <time>2012-05-28T13:17:52Z</time>
</trkpt>
<trkpt lat="46.262620000" lon="7.371560000">
  <ele>854.400020</ele>
  <time>2012-05-28T13:17:53Z</time>
</trkpt>
<trkpt lat="46.262590000" lon="7.371550000">
  <ele>854.400020</ele>
  <time>2012-05-28T13:17:54Z</time>
</trkpt>
<trkpt lat="46.262490000" lon="7.371530000">
  <ele>854.900020</ele>
  <time>2012-05-28T13:17:57Z</time>
</trkpt>
<trkpt lat="46.262390000" lon="7.371550000">
  <ele>855.400020</ele>
  <time>2012-05-28T13:18:00Z</time>
</trkpt>
<trkpt lat="46.262320000" lon="7.371580000">
  <ele>855.733340</ele>
  <time>2012-05-28T13:18:02Z</time>
</trkpt>
<trkpt lat="46.262280000" lon="7.371610000">
  <ele>855.900020</ele>
  <time>2012-05-28T13:18:03Z</time>
</trkpt>
<trkpt lat="46.262250000" lon="7.371630000">
  <ele>856.066710</ele>
  <time>2012-05-28T13:18:04Z</time>
</trkpt>
<trkpt lat="46.262220000" lon="7.371660000">
  <ele>856.233340</ele>
  <time>2012-05-28T13:18:05Z</time>
</trkpt>
<trkpt lat="46.262190000" lon="7.371690000">
  <ele>856.400020</ele>
  <time>2012-05-28T13:18:06Z</time>
</trkpt>
<trkpt lat="46.262040000" lon="7.371940000">
  <ele>856.400020</ele>
  <time>2012-05-28T13:18:12Z</time>
</trkpt>
<trkpt lat="46.262030000" lon="7.371990000">
  <ele>856.685730</ele>
  <time>2012-05-28T13:18:13Z</time>
</trkpt>
<trkpt lat="46.262000000" lon="7.372090000">
  <ele>857.257140</ele>
  <time>2012-05-28T13:18:15Z</time>
</trkpt>
<trkpt lat="46.262000000" lon="7.372140000">
  <ele>857.542910</ele>
  <time>2012-05-28T13:18:16Z</time>
</trkpt>
<trkpt lat="46.261990000" lon="7.372200000">
  <ele>857.828610</ele>
  <time>2012-05-28T13:18:17Z</time>
</trkpt>
<trkpt lat="46.261980000" lon="7.372250000">
  <ele>858.114320</ele>
  <time>2012-05-28T13:18:18Z</time>
</trkpt>
<trkpt lat="46.261980000" lon="7.372310000">
  <ele>858.400020</ele>
  <time>2012-05-28T13:18:19Z</time>
</trkpt>
<trkpt lat="46.261970000" lon="7.372430000">
  <ele>858.400020</ele>
  <time>2012-05-28T13:18:21Z</time>
</trkpt>
<trkpt lat="46.261960000" lon="7.372690000">
  <ele>858.133360</ele>
  <time>2012-05-28T13:18:25Z</time>
</trkpt>
<trkpt lat="46.261950000" lon="7.372750000">
  <ele>858.066710</ele>
  <time>2012-05-28T13:18:26Z</time>
</trkpt>
<trkpt lat="46.261940000" lon="7.373030000">
  <ele>857.800050</ele>
  <time>2012-05-28T13:18:30Z</time>
</trkpt>
<trkpt lat="46.261920000" lon="7.373240000">
  <ele>857.600040</ele>
  <time>2012-05-28T13:18:33Z</time>
</trkpt>
<trkpt lat="46.261910000" lon="7.373380000">
  <ele>857.466670</ele>
  <time>2012-05-28T13:18:35Z</time>
</trkpt>
<trkpt lat="46.261890000" lon="7.373510000">
  <ele>857.333370</ele>
  <time>2012-05-28T13:18:37Z</time>
</trkpt>
<trkpt lat="46.261830000" lon="7.373880000">
  <ele>857.000000</ele>
  <time>2012-05-28T13:18:42Z</time>
</trkpt>
<trkpt lat="46.261810000" lon="7.373950000">
  <ele>856.933350</ele>
  <time>2012-05-28T13:18:43Z</time>
</trkpt>
<trkpt lat="46.261730000" lon="7.374250000">
  <ele>856.666690</ele>
  <time>2012-05-28T13:18:47Z</time>
</trkpt>
<trkpt lat="46.261710000" lon="7.374320000">
  <ele>856.600040</ele>
  <time>2012-05-28T13:18:48Z</time>
</trkpt>
<trkpt lat="46.261690000" lon="7.374390000">
  <ele>856.533390</ele>
  <time>2012-05-28T13:18:49Z</time>
</trkpt>
<trkpt lat="46.261670000" lon="7.374470000">
  <ele>856.466670</ele>
  <time>2012-05-28T13:18:50Z</time>
</trkpt>
<trkpt lat="46.261640000" lon="7.374540000">
  <ele>856.400020</ele>
  <time>2012-05-28T13:18:51Z</time>
</trkpt>
<trkpt lat="46.261460000" lon="7.375130000">
  <ele>856.400020</ele>
  <time>2012-05-28T13:18:59Z</time>
</trkpt>
<trkpt lat="46.261390000" lon="7.375590000">
  <ele>856.928040</ele>
  <time>2012-05-28T13:19:05Z</time>
</trkpt>
<trkpt lat="46.261390000" lon="7.376190000">
  <ele>857.632020</ele>
  <time>2012-05-28T13:19:13Z</time>
</trkpt>
<trkpt lat="46.261380000" lon="7.376670000">
  <ele>858.247990</ele>
  <time>2012-05-28T13:19:20Z</time>
</trkpt>
<trkpt lat="46.261380000" lon="7.376730000">
  <ele>858.336000</ele>
  <time>2012-05-28T13:19:21Z</time>
</trkpt>
<trkpt lat="46.261360000" lon="7.376790000">
  <ele>858.423950</ele>
  <time>2012-05-28T13:19:22Z</time>
</trkpt>
<trkpt lat="46.261360000" lon="7.376850000">
  <ele>858.511960</ele>
  <time>2012-05-28T13:19:23Z</time>
</trkpt>
<trkpt lat="46.261340000" lon="7.376910000">
  <ele>858.599980</ele>
  <time>2012-05-28T13:19:24Z</time>
</trkpt>
<trkpt lat="46.261310000" lon="7.377070000">
  <ele>858.599980</ele>
  <time>2012-05-28T13:19:27Z</time>
</trkpt>
<trkpt lat="46.261290000" lon="7.377180000">
  <ele>859.266660</ele>
  <time>2012-05-28T13:19:29Z</time>
</trkpt>
<trkpt lat="46.261280000" lon="7.377230000">
  <ele>859.599980</ele>
  <time>2012-05-28T13:19:30Z</time>
</trkpt>
<trkpt lat="46.261270000" lon="7.377280000">
  <ele>859.933290</ele>
  <time>2012-05-28T13:19:31Z</time>
</trkpt>
<trkpt lat="46.261260000" lon="7.377330000">
  <ele>860.266660</ele>
  <time>2012-05-28T13:19:32Z</time>
</trkpt>
<trkpt lat="46.261260000" lon="7.377380000">
  <ele>860.599980</ele>
  <time>2012-05-28T13:19:33Z</time>
</trkpt>
<trkpt lat="46.261260000" lon="7.377430000">
  <ele>860.599980</ele>
  <time>2012-05-28T13:19:34Z</time>
</trkpt>
<trkpt lat="46.261250000" lon="7.377540000">
  <ele>861.099980</ele>
  <time>2012-05-28T13:19:36Z</time>
</trkpt>
<trkpt lat="46.261250000" lon="7.377590000">
  <ele>861.349980</ele>
  <time>2012-05-28T13:19:37Z</time>
</trkpt>
<trkpt lat="46.261240000" lon="7.377640000">
  <ele>861.599980</ele>
  <time>2012-05-28T13:19:38Z</time>
</trkpt>
<trkpt lat="46.261240000" lon="7.377690000">
  <ele>861.849980</ele>
  <time>2012-05-28T13:19:39Z</time>
</trkpt>
<trkpt lat="46.261240000" lon="7.377740000">
  <ele>862.099980</ele>
  <time>2012-05-28T13:19:40Z</time>
</trkpt>
<trkpt lat="46.261230000" lon="7.377800000">
  <ele>862.349980</ele>
  <time>2012-05-28T13:19:41Z</time>
</trkpt>
<trkpt lat="46.261230000" lon="7.377850000">
  <ele>862.599980</ele>
  <time>2012-05-28T13:19:42Z</time>
</trkpt>
<trkpt lat="46.261250000" lon="7.377940000">
  <ele>862.599980</ele>
  <time>2012-05-28T13:19:44Z</time>
</trkpt>
<trkpt lat="46.261260000" lon="7.378090000">
  <ele>863.542850</ele>
  <time>2012-05-28T13:19:47Z</time>
</trkpt>
<trkpt lat="46.261270000" lon="7.378140000">
  <ele>863.857120</ele>
  <time>2012-05-28T13:19:48Z</time>
</trkpt>
<trkpt lat="46.261280000" lon="7.378190000">
  <ele>864.171390</ele>
  <time>2012-05-28T13:19:49Z</time>
</trkpt>
<trkpt lat="46.261300000" lon="7.378240000">
  <ele>864.485720</ele>
  <time>2012-05-28T13:19:50Z</time>
</trkpt>
<trkpt lat="46.261300000" lon="7.378300000">
  <ele>864.799990</ele>
  <time>2012-05-28T13:19:51Z</time>
</trkpt>
<trkpt lat="46.261340000" lon="7.378530000">
  <ele>864.799990</ele>
  <time>2012-05-28T13:19:56Z</time>
</trkpt>
<trkpt lat="46.261370000" lon="7.378620000">
  <ele>865.386660</ele>
  <time>2012-05-28T13:19:58Z</time>
</trkpt>
<trkpt lat="46.261380000" lon="7.378680000">
  <ele>865.679990</ele>
  <time>2012-05-28T13:19:59Z</time>
</trkpt>
<trkpt lat="46.261390000" lon="7.378720000">
  <ele>865.973330</ele>
  <time>2012-05-28T13:20:00Z</time>
</trkpt>
<trkpt lat="46.261400000" lon="7.378770000">
  <ele>866.266660</ele>
  <time>2012-05-28T13:20:01Z</time>
</trkpt>
<trkpt lat="46.261410000" lon="7.378820000">
  <ele>866.560000</ele>
  <time>2012-05-28T13:20:02Z</time>
</trkpt>
<trkpt lat="46.261480000" lon="7.379100000">
  <ele>868.320010</ele>
  <time>2012-05-28T13:20:08Z</time>
</trkpt>
<trkpt lat="46.261490000" lon="7.379150000">
  <ele>868.613340</ele>
  <time>2012-05-28T13:20:09Z</time>
</trkpt>
<trkpt lat="46.261500000" lon="7.379190000">
  <ele>868.906680</ele>
  <time>2012-05-28T13:20:10Z</time>
</trkpt>
<trkpt lat="46.261500000" lon="7.379240000">
  <ele>869.200010</ele>
  <time>2012-05-28T13:20:11Z</time>
</trkpt>
<trkpt lat="46.261520000" lon="7.379470000">
  <ele>869.200010</ele>
  <time>2012-05-28T13:20:16Z</time>
</trkpt>
<trkpt lat="46.261520000" lon="7.379560000">
  <ele>869.933350</ele>
  <time>2012-05-28T13:20:18Z</time>
</trkpt>
<trkpt lat="46.261530000" lon="7.379610000">
  <ele>870.300050</ele>
  <time>2012-05-28T13:20:19Z</time>
</trkpt>
<trkpt lat="46.261530000" lon="7.379650000">
  <ele>870.666690</ele>
  <time>2012-05-28T13:20:20Z</time>
</trkpt>
<trkpt lat="46.261530000" lon="7.379690000">
  <ele>871.033330</ele>
  <time>2012-05-28T13:20:21Z</time>
</trkpt>
<trkpt lat="46.261520000" lon="7.379730000">
  <ele>871.400020</ele>
  <time>2012-05-28T13:20:22Z</time>
</trkpt>
<trkpt lat="46.261520000" lon="7.379820000">
  <ele>871.400020</ele>
  <time>2012-05-28T13:20:24Z</time>
</trkpt>
<trkpt lat="46.261520000" lon="7.380020000">
  <ele>872.511110</ele>
  <time>2012-05-28T13:20:29Z</time>
</trkpt>
<trkpt lat="46.261520000" lon="7.380070000">
  <ele>872.733340</ele>
  <time>2012-05-28T13:20:30Z</time>
</trkpt>
<trkpt lat="46.261510000" lon="7.380110000">
  <ele>872.955570</ele>
  <time>2012-05-28T13:20:31Z</time>
</trkpt>
<trkpt lat="46.261510000" lon="7.380160000">
  <ele>873.177800</ele>
  <time>2012-05-28T13:20:32Z</time>
</trkpt>
<trkpt lat="46.261520000" lon="7.380200000">
  <ele>873.400020</ele>
  <time>2012-05-28T13:20:33Z</time>
</trkpt>
<trkpt lat="46.261530000" lon="7.380420000">
  <ele>873.400020</ele>
  <time>2012-05-28T13:20:38Z</time>
</trkpt>
<trkpt lat="46.261540000" lon="7.380560000">
  <ele>874.224980</ele>
  <time>2012-05-28T13:20:41Z</time>
</trkpt>
<trkpt lat="46.261540000" lon="7.380610000">
  <ele>874.500000</ele>
  <time>2012-05-28T13:20:42Z</time>
</trkpt>
<trkpt lat="46.261550000" lon="7.380660000">
  <ele>874.775020</ele>
  <time>2012-05-28T13:20:43Z</time>
</trkpt>
<trkpt lat="46.261550000" lon="7.380700000">
  <ele>875.049990</ele>
  <time>2012-05-28T13:20:44Z</time>
</trkpt>
<trkpt lat="46.261560000" lon="7.380750000">
  <ele>875.324950</ele>
  <time>2012-05-28T13:20:45Z</time>
</trkpt>
<trkpt lat="46.261570000" lon="7.380790000">
  <ele>875.599980</ele>
  <time>2012-05-28T13:20:46Z</time>
</trkpt>
<trkpt lat="46.261590000" lon="7.380830000">
  <ele>875.599980</ele>
  <time>2012-05-28T13:20:47Z</time>
</trkpt>
<trkpt lat="46.261670000" lon="7.381170000">
  <ele>876.883300</ele>
  <time>2012-05-28T13:20:54Z</time>
</trkpt>
<trkpt lat="46.261680000" lon="7.381210000">
  <ele>877.066650</ele>
  <time>2012-05-28T13:20:55Z</time>
</trkpt>
<trkpt lat="46.261700000" lon="7.381250000">
  <ele>877.250000</ele>
  <time>2012-05-28T13:20:56Z</time>
</trkpt>
<trkpt lat="46.261720000" lon="7.381290000">
  <ele>877.433350</ele>
  <time>2012-05-28T13:20:57Z</time>
</trkpt>
<trkpt lat="46.261730000" lon="7.381340000">
  <ele>877.616640</ele>
  <time>2012-05-28T13:20:58Z</time>
</trkpt>
<trkpt lat="46.261750000" lon="7.381390000">
  <ele>877.799990</ele>
  <time>2012-05-28T13:20:59Z</time>
</trkpt>
<trkpt lat="46.261800000" lon="7.381520000">
  <ele>877.799990</ele>
  <time>2012-05-28T13:21:02Z</time>
</trkpt>
<trkpt lat="46.261850000" lon="7.381700000">
  <ele>878.900020</ele>
  <time>2012-05-28T13:21:06Z</time>
</trkpt>
<trkpt lat="46.261860000" lon="7.381740000">
  <ele>879.174990</ele>
  <time>2012-05-28T13:21:07Z</time>
</trkpt>
<trkpt lat="46.261880000" lon="7.381790000">
  <ele>879.450010</ele>
  <time>2012-05-28T13:21:08Z</time>
</trkpt>
<trkpt lat="46.261890000" lon="7.381830000">
  <ele>879.724980</ele>
  <time>2012-05-28T13:21:09Z</time>
</trkpt>
<trkpt lat="46.261900000" lon="7.381870000">
  <ele>880.000000</ele>
  <time>2012-05-28T13:21:10Z</time>
</trkpt>
<trkpt lat="46.261990000" lon="7.382150000">
  <ele>880.000000</ele>
  <time>2012-05-28T13:21:16Z</time>
</trkpt>
<trkpt lat="46.262120000" lon="7.382530000">
  <ele>881.454530</ele>
  <time>2012-05-28T13:21:24Z</time>
</trkpt>
<trkpt lat="46.262140000" lon="7.382580000">
  <ele>881.636350</ele>
  <time>2012-05-28T13:21:25Z</time>
</trkpt>
<trkpt lat="46.262150000" lon="7.382630000">
  <ele>881.818180</ele>
  <time>2012-05-28T13:21:26Z</time>
</trkpt>
<trkpt lat="46.262170000" lon="7.382680000">
  <ele>882.000000</ele>
  <time>2012-05-28T13:21:27Z</time>
</trkpt>
<trkpt lat="46.262270000" lon="7.382970000">
  <ele>882.000000</ele>
  <time>2012-05-28T13:21:33Z</time>
</trkpt>
<trkpt lat="46.262410000" lon="7.383370000">
  <ele>883.257140</ele>
  <time>2012-05-28T13:21:41Z</time>
</trkpt>
<trkpt lat="46.262440000" lon="7.383470000">
  <ele>883.571410</ele>
  <time>2012-05-28T13:21:43Z</time>
</trkpt>
<trkpt lat="46.262450000" lon="7.383520000">
  <ele>883.728580</ele>
  <time>2012-05-28T13:21:44Z</time>
</trkpt>
<trkpt lat="46.262470000" lon="7.383570000">
  <ele>883.885740</ele>
  <time>2012-05-28T13:21:45Z</time>
</trkpt>
<trkpt lat="46.262490000" lon="7.383620000">
  <ele>884.042850</ele>
  <time>2012-05-28T13:21:46Z</time>
</trkpt>
<trkpt lat="46.262500000" lon="7.383670000">
  <ele>884.200010</ele>
  <time>2012-05-28T13:21:47Z</time>
</trkpt>
<trkpt lat="46.262530000" lon="7.383770000">
  <ele>884.200010</ele>
  <time>2012-05-28T13:21:49Z</time>
</trkpt>
<trkpt lat="46.262640000" lon="7.384190000">
  <ele>885.266660</ele>
  <time>2012-05-28T13:21:57Z</time>
</trkpt>
<trkpt lat="46.262670000" lon="7.384350000">
  <ele>885.666690</ele>
  <time>2012-05-28T13:22:00Z</time>
</trkpt>
<trkpt lat="46.262680000" lon="7.384410000">
  <ele>885.799990</ele>
  <time>2012-05-28T13:22:01Z</time>
</trkpt>
<trkpt lat="46.262680000" lon="7.384460000">
  <ele>885.933350</ele>
  <time>2012-05-28T13:22:02Z</time>
</trkpt>
<trkpt lat="46.262680000" lon="7.384510000">
  <ele>886.066650</ele>
  <time>2012-05-28T13:22:03Z</time>
</trkpt>
<trkpt lat="46.262680000" lon="7.384570000">
  <ele>886.200010</ele>
  <time>2012-05-28T13:22:04Z</time>
</trkpt>
<trkpt lat="46.262660000" lon="7.384900000">
  <ele>886.200010</ele>
  <time>2012-05-28T13:22:10Z</time>
</trkpt>
<trkpt lat="46.262570000" lon="7.385340000">
  <ele>887.553890</ele>
  <time>2012-05-28T13:22:18Z</time>
</trkpt>
<trkpt lat="46.262560000" lon="7.385390000">
  <ele>887.723080</ele>
  <time>2012-05-28T13:22:19Z</time>
</trkpt>
<trkpt lat="46.262540000" lon="7.385430000">
  <ele>887.892330</ele>
  <time>2012-05-28T13:22:20Z</time>
</trkpt>
<trkpt lat="46.262520000" lon="7.385480000">
  <ele>888.061580</ele>
  <time>2012-05-28T13:22:21Z</time>
</trkpt>
<trkpt lat="46.262500000" lon="7.385530000">
  <ele>888.230770</ele>
  <time>2012-05-28T13:22:22Z</time>
</trkpt>
<trkpt lat="46.262490000" lon="7.385570000">
  <ele>888.400020</ele>
  <time>2012-05-28T13:22:23Z</time>
</trkpt>
<trkpt lat="46.262430000" lon="7.385650000">
  <ele>888.400020</ele>
  <time>2012-05-28T13:22:25Z</time>
</trkpt>
<trkpt lat="46.262310000" lon="7.385850000">
  <ele>889.246150</ele>
  <time>2012-05-28T13:22:30Z</time>
</trkpt>
<trkpt lat="46.262310000" lon="7.385900000">
  <ele>889.415410</ele>
  <time>2012-05-28T13:22:31Z</time>
</trkpt>
<trkpt lat="46.262360000" lon="7.385970000">
  <ele>889.753850</ele>
  <time>2012-05-28T13:22:33Z</time>
</trkpt>
<trkpt lat="46.262390000" lon="7.386000000">
  <ele>889.923100</ele>
  <time>2012-05-28T13:22:34Z</time>
</trkpt>
<trkpt lat="46.262430000" lon="7.386010000">
  <ele>890.092290</ele>
  <time>2012-05-28T13:22:35Z</time>
</trkpt>
<trkpt lat="46.262470000" lon="7.386000000">
  <ele>890.261540</ele>
  <time>2012-05-28T13:22:36Z</time>
</trkpt>
<trkpt lat="46.262510000" lon="7.386000000">
  <ele>890.430730</ele>
  <time>2012-05-28T13:22:37Z</time>
</trkpt>
<trkpt lat="46.262540000" lon="7.386000000">
  <ele>890.599980</ele>
  <time>2012-05-28T13:22:38Z</time>
</trkpt>
<trkpt lat="46.262670000" lon="7.386030000">
  <ele>890.599980</ele>
  <time>2012-05-28T13:22:42Z</time>
</trkpt>
<trkpt lat="46.262700000" lon="7.386040000">
  <ele>891.000000</ele>
  <time>2012-05-28T13:22:43Z</time>
</trkpt>
<trkpt lat="46.262730000" lon="7.386040000">
  <ele>891.399960</ele>
  <time>2012-05-28T13:22:44Z</time>
</trkpt>
<trkpt lat="46.262760000" lon="7.386040000">
  <ele>891.799990</ele>
  <time>2012-05-28T13:22:45Z</time>
</trkpt>
<trkpt lat="46.262790000" lon="7.386040000">
  <ele>892.199950</ele>
  <time>2012-05-28T13:22:46Z</time>
</trkpt>
<trkpt lat="46.262830000" lon="7.386030000">
  <ele>892.599980</ele>
  <time>2012-05-28T13:22:47Z</time>
</trkpt>
<trkpt lat="46.262910000" lon="7.386010000">
  <ele>892.599980</ele>
  <time>2012-05-28T13:22:50Z</time>
</trkpt>
<trkpt lat="46.263030000" lon="7.385970000">
  <ele>893.699950</ele>
  <time>2012-05-28T13:22:54Z</time>
</trkpt>
<trkpt lat="46.263050000" lon="7.385950000">
  <ele>893.974980</ele>
  <time>2012-05-28T13:22:55Z</time>
</trkpt>
<trkpt lat="46.263080000" lon="7.385930000">
  <ele>894.250000</ele>
  <time>2012-05-28T13:22:56Z</time>
</trkpt>
<trkpt lat="46.263110000" lon="7.385910000">
  <ele>894.524960</ele>
  <time>2012-05-28T13:22:57Z</time>
</trkpt>
<trkpt lat="46.263140000" lon="7.385880000">
  <ele>894.799990</ele>
  <time>2012-05-28T13:22:58Z</time>
</trkpt>
<trkpt lat="46.263260000" lon="7.385780000">
  <ele>894.799990</ele>
  <time>2012-05-28T13:23:03Z</time>
</trkpt>
<trkpt lat="46.263280000" lon="7.385750000">
  <ele>895.400020</ele>
  <time>2012-05-28T13:23:04Z</time>
</trkpt>
<trkpt lat="46.263310000" lon="7.385730000">
  <ele>896.000000</ele>
  <time>2012-05-28T13:23:05Z</time>
</trkpt>
<trkpt lat="46.263320000" lon="7.385690000">
  <ele>896.599980</ele>
  <time>2012-05-28T13:23:06Z</time>
</trkpt>
<trkpt lat="46.263350000" lon="7.385660000">
  <ele>897.200010</ele>
  <time>2012-05-28T13:23:07Z</time>
</trkpt>
<trkpt lat="46.263380000" lon="7.385590000">
  <ele>897.200010</ele>
  <time>2012-05-28T13:23:09Z</time>
</trkpt>
<trkpt lat="46.263430000" lon="7.385440000">
  <ele>898.200010</ele>
  <time>2012-05-28T13:23:13Z</time>
</trkpt>
<trkpt lat="46.263440000" lon="7.385400000">
  <ele>898.450010</ele>
  <time>2012-05-28T13:23:14Z</time>
</trkpt>
<trkpt lat="46.263450000" lon="7.385370000">
  <ele>898.700010</ele>
  <time>2012-05-28T13:23:15Z</time>
</trkpt>
<trkpt lat="46.263460000" lon="7.385330000">
  <ele>898.950010</ele>
  <time>2012-05-28T13:23:16Z</time>
</trkpt>
<trkpt lat="46.263470000" lon="7.385300000">
  <ele>899.200010</ele>
  <time>2012-05-28T13:23:17Z</time>
</trkpt>
<trkpt lat="46.263510000" lon="7.385140000">
  <ele>899.200010</ele>
  <time>2012-05-28T13:23:21Z</time>
</trkpt>
<trkpt lat="46.263520000" lon="7.385040000">
  <ele>899.828610</ele>
  <time>2012-05-28T13:23:23Z</time>
</trkpt>
<trkpt lat="46.263520000" lon="7.385000000">
  <ele>900.142880</ele>
  <time>2012-05-28T13:23:24Z</time>
</trkpt>
<trkpt lat="46.263510000" lon="7.384960000">
  <ele>900.457150</ele>
  <time>2012-05-28T13:23:25Z</time>
</trkpt>
<trkpt lat="46.263510000" lon="7.384920000">
  <ele>900.771420</ele>
  <time>2012-05-28T13:23:26Z</time>
</trkpt>
<trkpt lat="46.263520000" lon="7.384880000">
  <ele>901.085750</ele>
  <time>2012-05-28T13:23:27Z</time>
</trkpt>
<trkpt lat="46.263510000" lon="7.384840000">
  <ele>901.400020</ele>
  <time>2012-05-28T13:23:28Z</time>
</trkpt>
<trkpt lat="46.263520000" lon="7.384800000">
  <ele>901.400020</ele>
  <time>2012-05-28T13:23:29Z</time>
</trkpt>
<trkpt lat="46.263510000" lon="7.384610000">
  <ele>902.622190</ele>
  <time>2012-05-28T13:23:34Z</time>
</trkpt>
<trkpt lat="46.263510000" lon="7.384570000">
  <ele>902.866640</ele>
  <time>2012-05-28T13:23:35Z</time>
</trkpt>
<trkpt lat="46.263500000" lon="7.384540000">
  <ele>903.111080</ele>
  <time>2012-05-28T13:23:36Z</time>
</trkpt>
<trkpt lat="46.263500000" lon="7.384500000">
  <ele>903.355530</ele>
  <time>2012-05-28T13:23:37Z</time>
</trkpt>
<trkpt lat="46.263500000" lon="7.384460000">
  <ele>903.599980</ele>
  <time>2012-05-28T13:23:38Z</time>
</trkpt>
<trkpt lat="46.263490000" lon="7.384310000">
  <ele>903.599980</ele>
  <time>2012-05-28T13:23:42Z</time>
</trkpt>
<trkpt lat="46.263490000" lon="7.384240000">
  <ele>904.333310</ele>
  <time>2012-05-28T13:23:44Z</time>
</trkpt>
<trkpt lat="46.263480000" lon="7.384210000">
  <ele>904.699950</ele>
  <time>2012-05-28T13:23:45Z</time>
</trkpt>
<trkpt lat="46.263480000" lon="7.384170000">
  <ele>905.066650</ele>
  <time>2012-05-28T13:23:46Z</time>
</trkpt>
<trkpt lat="46.263480000" lon="7.384130000">
  <ele>905.433350</ele>
  <time>2012-05-28T13:23:47Z</time>
</trkpt>
<trkpt lat="46.263480000" lon="7.384100000">
  <ele>905.799990</ele>
  <time>2012-05-28T13:23:48Z</time>
</trkpt>
<trkpt lat="46.263470000" lon="7.384060000">
  <ele>905.799990</ele>
  <time>2012-05-28T13:23:49Z</time>
</trkpt>
<trkpt lat="46.263460000" lon="7.383880000">
  <ele>907.022220</ele>
  <time>2012-05-28T13:23:54Z</time>
</trkpt>
<trkpt lat="46.263450000" lon="7.383840000">
  <ele>907.266660</ele>
  <time>2012-05-28T13:23:55Z</time>
</trkpt>
<trkpt lat="46.263450000" lon="7.383800000">
  <ele>907.511110</ele>
  <time>2012-05-28T13:23:56Z</time>
</trkpt>
<trkpt lat="46.263450000" lon="7.383760000">
  <ele>907.755550</ele>
  <time>2012-05-28T13:23:57Z</time>
</trkpt>
<trkpt lat="46.263440000" lon="7.383730000">
  <ele>908.000000</ele>
  <time>2012-05-28T13:23:58Z</time>
</trkpt>
<trkpt lat="46.263420000" lon="7.383560000">
  <ele>908.000000</ele>
  <time>2012-05-28T13:24:03Z</time>
</trkpt>
<trkpt lat="46.263410000" lon="7.383440000">
  <ele>909.000000</ele>
  <time>2012-05-28T13:24:07Z</time>
</trkpt>
<trkpt lat="46.263400000" lon="7.383400000">
  <ele>909.250000</ele>
  <time>2012-05-28T13:24:08Z</time>
</trkpt>
<trkpt lat="46.263400000" lon="7.383350000">
  <ele>909.500000</ele>
  <time>2012-05-28T13:24:09Z</time>
</trkpt>
<trkpt lat="46.263390000" lon="7.383310000">
  <ele>909.750000</ele>
  <time>2012-05-28T13:24:10Z</time>
</trkpt>
<trkpt lat="46.263390000" lon="7.383270000">
  <ele>910.000000</ele>
  <time>2012-05-28T13:24:11Z</time>
</trkpt>
<trkpt lat="46.263370000" lon="7.383190000">
  <ele>910.000000</ele>
  <time>2012-05-28T13:24:13Z</time>
</trkpt>
<trkpt lat="46.263350000" lon="7.383030000">
  <ele>910.988220</ele>
  <time>2012-05-28T13:24:17Z</time>
</trkpt>
<trkpt lat="46.263340000" lon="7.382990000">
  <ele>911.235290</ele>
  <time>2012-05-28T13:24:18Z</time>
</trkpt>
<trkpt lat="46.263330000" lon="7.382950000">
  <ele>911.482360</ele>
  <time>2012-05-28T13:24:19Z</time>
</trkpt>
<trkpt lat="46.263330000" lon="7.382910000">
  <ele>911.729430</ele>
  <time>2012-05-28T13:24:20Z</time>
</trkpt>
<trkpt lat="46.263290000" lon="7.382680000">
  <ele>913.211790</ele>
  <time>2012-05-28T13:24:26Z</time>
</trkpt>
<trkpt lat="46.263280000" lon="7.382640000">
  <ele>913.458860</ele>
  <time>2012-05-28T13:24:27Z</time>
</trkpt>
<trkpt lat="46.263280000" lon="7.382600000">
  <ele>913.705870</ele>
  <time>2012-05-28T13:24:28Z</time>
</trkpt>
<trkpt lat="46.263260000" lon="7.382560000">
  <ele>913.952940</ele>
  <time>2012-05-28T13:24:29Z</time>
</trkpt>
<trkpt lat="46.263250000" lon="7.382530000">
  <ele>914.200010</ele>
  <time>2012-05-28T13:24:30Z</time>
</trkpt>
<trkpt lat="46.263220000" lon="7.382410000">
  <ele>914.200010</ele>
  <time>2012-05-28T13:24:33Z</time>
</trkpt>
<trkpt lat="46.263200000" lon="7.382310000">
  <ele>914.987490</ele>
  <time>2012-05-28T13:24:36Z</time>
</trkpt>
<trkpt lat="46.263190000" lon="7.382280000">
  <ele>915.250000</ele>
  <time>2012-05-28T13:24:37Z</time>
</trkpt>
<trkpt lat="46.263190000" lon="7.382240000">
  <ele>915.512510</ele>
  <time>2012-05-28T13:24:38Z</time>
</trkpt>
<trkpt lat="46.263180000" lon="7.382210000">
  <ele>915.775020</ele>
  <time>2012-05-28T13:24:39Z</time>
</trkpt>
<trkpt lat="46.263180000" lon="7.382170000">
  <ele>916.037540</ele>
  <time>2012-05-28T13:24:40Z</time>
</trkpt>
<trkpt lat="46.263150000" lon="7.381970000">
  <ele>917.350040</ele>
  <time>2012-05-28T13:24:45Z</time>
</trkpt>
<trkpt lat="46.263150000" lon="7.381930000">
  <ele>917.612550</ele>
  <time>2012-05-28T13:24:46Z</time>
</trkpt>
<trkpt lat="46.263150000" lon="7.381890000">
  <ele>917.875000</ele>
  <time>2012-05-28T13:24:47Z</time>
</trkpt>
<trkpt lat="46.263140000" lon="7.381840000">
  <ele>918.137510</ele>
  <time>2012-05-28T13:24:48Z</time>
</trkpt>
<trkpt lat="46.263130000" lon="7.381800000">
  <ele>918.400020</ele>
  <time>2012-05-28T13:24:49Z</time>
</trkpt>
<trkpt lat="46.263130000" lon="7.381640000">
  <ele>918.400020</ele>
  <time>2012-05-28T13:24:53Z</time>
</trkpt>
<trkpt lat="46.263150000" lon="7.381440000">
  <ele>919.309140</ele>
  <time>2012-05-28T13:24:58Z</time>
</trkpt>
<trkpt lat="46.263170000" lon="7.381360000">
  <ele>919.672730</ele>
  <time>2012-05-28T13:25:00Z</time>
</trkpt>
<trkpt lat="46.263180000" lon="7.381320000">
  <ele>919.854550</ele>
  <time>2012-05-28T13:25:01Z</time>
</trkpt>
<trkpt lat="46.263190000" lon="7.381280000">
  <ele>920.036380</ele>
  <time>2012-05-28T13:25:02Z</time>
</trkpt>
<trkpt lat="46.263200000" lon="7.381240000">
  <ele>920.218200</ele>
  <time>2012-05-28T13:25:03Z</time>
</trkpt>
<trkpt lat="46.263200000" lon="7.381190000">
  <ele>920.400020</ele>
  <time>2012-05-28T13:25:04Z</time>
</trkpt>
<trkpt lat="46.263210000" lon="7.381150000">
  <ele>920.400020</ele>
  <time>2012-05-28T13:25:05Z</time>
</trkpt>
<trkpt lat="46.263270000" lon="7.380910000">
  <ele>921.415410</ele>
  <time>2012-05-28T13:25:11Z</time>
</trkpt>
<trkpt lat="46.263310000" lon="7.380800000">
  <ele>921.923100</ele>
  <time>2012-05-28T13:25:14Z</time>
</trkpt>
<trkpt lat="46.263320000" lon="7.380770000">
  <ele>922.092290</ele>
  <time>2012-05-28T13:25:15Z</time>
</trkpt>
<trkpt lat="46.263330000" lon="7.380720000">
  <ele>922.261540</ele>
  <time>2012-05-28T13:25:16Z</time>
</trkpt>
<trkpt lat="46.263340000" lon="7.380680000">
  <ele>922.430730</ele>
  <time>2012-05-28T13:25:17Z</time>
</trkpt>
<trkpt lat="46.263340000" lon="7.380640000">
  <ele>922.599980</ele>
  <time>2012-05-28T13:25:18Z</time>
</trkpt>
<trkpt lat="46.263350000" lon="7.380600000">
  <ele>922.599980</ele>
  <time>2012-05-28T13:25:19Z</time>
</trkpt>
<trkpt lat="46.263380000" lon="7.380360000">
  <ele>924.066650</ele>
  <time>2012-05-28T13:25:25Z</time>
</trkpt>
<trkpt lat="46.263380000" lon="7.380320000">
  <ele>924.311100</ele>
  <time>2012-05-28T13:25:26Z</time>
</trkpt>
<trkpt lat="46.263390000" lon="7.380280000">
  <ele>924.555540</ele>
  <time>2012-05-28T13:25:27Z</time>
</trkpt>
<trkpt lat="46.263390000" lon="7.380240000">
  <ele>924.799990</ele>
  <time>2012-05-28T13:25:28Z</time>
</trkpt>
<trkpt lat="46.263400000" lon="7.380190000">
  <ele>925.044430</ele>
  <time>2012-05-28T13:25:29Z</time>
</trkpt>
<trkpt lat="46.263400000" lon="7.380020000">
  <ele>926.022220</ele>
  <time>2012-05-28T13:25:33Z</time>
</trkpt>
<trkpt lat="46.263400000" lon="7.379970000">
  <ele>926.266660</ele>
  <time>2012-05-28T13:25:34Z</time>
</trkpt>
<trkpt lat="46.263400000" lon="7.379930000">
  <ele>926.511110</ele>
  <time>2012-05-28T13:25:35Z</time>
</trkpt>
<trkpt lat="46.263400000" lon="7.379880000">
  <ele>926.755550</ele>
  <time>2012-05-28T13:25:36Z</time>
</trkpt>
<trkpt lat="46.263400000" lon="7.379840000">
  <ele>927.000000</ele>
  <time>2012-05-28T13:25:37Z</time>
</trkpt>
<trkpt lat="46.263420000" lon="7.379620000">
  <ele>927.000000</ele>
  <time>2012-05-28T13:25:42Z</time>
</trkpt>
<trkpt lat="46.263450000" lon="7.379410000">
  <ele>928.454530</ele>
  <time>2012-05-28T13:25:47Z</time>
</trkpt>
<trkpt lat="46.263450000" lon="7.379360000">
  <ele>928.745480</ele>
  <time>2012-05-28T13:25:48Z</time>
</trkpt>
<trkpt lat="46.263460000" lon="7.379320000">
  <ele>929.036380</ele>
  <time>2012-05-28T13:25:49Z</time>
</trkpt>
<trkpt lat="46.263470000" lon="7.379280000">
  <ele>929.327270</ele>
  <time>2012-05-28T13:25:50Z</time>
</trkpt>
<trkpt lat="46.263470000" lon="7.379240000">
  <ele>929.618160</ele>
  <time>2012-05-28T13:25:51Z</time>
</trkpt>
<trkpt lat="46.263480000" lon="7.379120000">
  <ele>930.490910</ele>
  <time>2012-05-28T13:25:54Z</time>
</trkpt>
<trkpt lat="46.263490000" lon="7.379080000">
  <ele>930.781860</ele>
  <time>2012-05-28T13:25:55Z</time>
</trkpt>
<trkpt lat="46.263490000" lon="7.379030000">
  <ele>931.072750</ele>
  <time>2012-05-28T13:25:56Z</time>
</trkpt>
<trkpt lat="46.263500000" lon="7.379000000">
  <ele>931.363650</ele>
  <time>2012-05-28T13:25:57Z</time>
</trkpt>
<trkpt lat="46.263520000" lon="7.378870000">
  <ele>932.236390</ele>
  <time>2012-05-28T13:26:00Z</time>
</trkpt>
<trkpt lat="46.263530000" lon="7.378840000">
  <ele>932.527280</ele>
  <time>2012-05-28T13:26:01Z</time>
</trkpt>
<trkpt lat="46.263530000" lon="7.378800000">
  <ele>932.818180</ele>
  <time>2012-05-28T13:26:02Z</time>
</trkpt>
<trkpt lat="46.263540000" lon="7.378760000">
  <ele>933.109130</ele>
  <time>2012-05-28T13:26:03Z</time>
</trkpt>
<trkpt lat="46.263540000" lon="7.378720000">
  <ele>933.400020</ele>
  <time>2012-05-28T13:26:04Z</time>
</trkpt>
<trkpt lat="46.263550000" lon="7.378680000">
  <ele>933.400020</ele>
  <time>2012-05-28T13:26:05Z</time>
</trkpt>
<trkpt lat="46.263600000" lon="7.378440000">
  <ele>934.840030</ele>
  <time>2012-05-28T13:26:11Z</time>
</trkpt>
<trkpt lat="46.263610000" lon="7.378400000">
  <ele>935.080020</ele>
  <time>2012-05-28T13:26:12Z</time>
</trkpt>
<trkpt lat="46.263630000" lon="7.378380000">
  <ele>935.320010</ele>
  <time>2012-05-28T13:26:13Z</time>
</trkpt>
<trkpt lat="46.263660000" lon="7.378360000">
  <ele>935.560000</ele>
  <time>2012-05-28T13:26:14Z</time>
</trkpt>
<trkpt lat="46.263690000" lon="7.378360000">
  <ele>935.799990</ele>
  <time>2012-05-28T13:26:15Z</time>
</trkpt>
<trkpt lat="46.263740000" lon="7.378370000">
  <ele>935.799990</ele>
  <time>2012-05-28T13:26:17Z</time>
</trkpt>
<trkpt lat="46.263780000" lon="7.378420000">
  <ele>936.679990</ele>
  <time>2012-05-28T13:26:19Z</time>
</trkpt>
<trkpt lat="46.263800000" lon="7.378460000">
  <ele>937.120000</ele>
  <time>2012-05-28T13:26:20Z</time>
</trkpt>
<trkpt lat="46.263810000" lon="7.378490000">
  <ele>937.560000</ele>
  <time>2012-05-28T13:26:21Z</time>
</trkpt>
<trkpt lat="46.263830000" lon="7.378530000">
  <ele>938.000000</ele>
  <time>2012-05-28T13:26:22Z</time>
</trkpt>
<trkpt lat="46.263840000" lon="7.378560000">
  <ele>938.000000</ele>
  <time>2012-05-28T13:26:23Z</time>
</trkpt>
<trkpt lat="46.263890000" lon="7.378710000">
  <ele>938.888920</ele>
  <time>2012-05-28T13:26:27Z</time>
</trkpt>
<trkpt lat="46.263900000" lon="7.378740000">
  <ele>939.111080</ele>
  <time>2012-05-28T13:26:28Z</time>
</trkpt>
<trkpt lat="46.263900000" lon="7.378780000">
  <ele>939.333310</ele>
  <time>2012-05-28T13:26:29Z</time>
</trkpt>
<trkpt lat="46.263910000" lon="7.378810000">
  <ele>939.555540</ele>
  <time>2012-05-28T13:26:30Z</time>
</trkpt>
<trkpt lat="46.263920000" lon="7.378840000">
  <ele>939.777770</ele>
  <time>2012-05-28T13:26:31Z</time>
</trkpt>
<trkpt lat="46.263990000" lon="7.379050000">
  <ele>941.111080</ele>
  <time>2012-05-28T13:26:37Z</time>
</trkpt>
<trkpt lat="46.264000000" lon="7.379080000">
  <ele>941.333310</ele>
  <time>2012-05-28T13:26:38Z</time>
</trkpt>
<trkpt lat="46.264010000" lon="7.379110000">
  <ele>941.555540</ele>
  <time>2012-05-28T13:26:39Z</time>
</trkpt>
<trkpt lat="46.264020000" lon="7.379150000">
  <ele>941.777770</ele>
  <time>2012-05-28T13:26:40Z</time>
</trkpt>
<trkpt lat="46.264030000" lon="7.379180000">
  <ele>942.000000</ele>
  <time>2012-05-28T13:26:41Z</time>
</trkpt>
<trkpt lat="46.264060000" lon="7.379280000">
  <ele>942.000000</ele>
  <time>2012-05-28T13:26:44Z</time>
</trkpt>
<trkpt lat="46.264080000" lon="7.379340000">
  <ele>942.733340</ele>
  <time>2012-05-28T13:26:46Z</time>
</trkpt>
<trkpt lat="46.264100000" lon="7.379380000">
  <ele>943.099980</ele>
  <time>2012-05-28T13:26:47Z</time>
</trkpt>
<trkpt lat="46.264110000" lon="7.379410000">
  <ele>943.466670</ele>
  <time>2012-05-28T13:26:48Z</time>
</trkpt>
<trkpt lat="46.264120000" lon="7.379440000">
  <ele>943.833370</ele>
  <time>2012-05-28T13:26:49Z</time>
</trkpt>
<trkpt lat="46.264130000" lon="7.379480000">
  <ele>944.200010</ele>
  <time>2012-05-28T13:26:50Z</time>
</trkpt>
<trkpt lat="46.264160000" lon="7.379540000">
  <ele>944.200010</ele>
  <time>2012-05-28T13:26:52Z</time>
</trkpt>
<trkpt lat="46.264190000" lon="7.379640000">
  <ele>945.057130</ele>
  <time>2012-05-28T13:26:55Z</time>
</trkpt>
<trkpt lat="46.264190000" lon="7.379680000">
  <ele>945.342900</ele>
  <time>2012-05-28T13:26:56Z</time>
</trkpt>
<trkpt lat="46.264210000" lon="7.379710000">
  <ele>945.628600</ele>
  <time>2012-05-28T13:26:57Z</time>
</trkpt>
<trkpt lat="46.264210000" lon="7.379740000">
  <ele>945.914310</ele>
  <time>2012-05-28T13:26:58Z</time>
</trkpt>
<trkpt lat="46.264220000" lon="7.379780000">
  <ele>946.200010</ele>
  <time>2012-05-28T13:26:59Z</time>
</trkpt>
<trkpt lat="46.264280000" lon="7.379910000">
  <ele>946.200010</ele>
  <time>2012-05-28T13:27:03Z</time>
</trkpt>
<trkpt lat="46.264290000" lon="7.379940000">
  <ele>946.538450</ele>
  <time>2012-05-28T13:27:04Z</time>
</trkpt>
<trkpt lat="46.264310000" lon="7.379970000">
  <ele>946.876950</ele>
  <time>2012-05-28T13:27:05Z</time>
</trkpt>
<trkpt lat="46.264330000" lon="7.380010000">
  <ele>947.215390</ele>
  <time>2012-05-28T13:27:06Z</time>
</trkpt>
<trkpt lat="46.264340000" lon="7.380040000">
  <ele>947.553830</ele>
  <time>2012-05-28T13:27:07Z</time>
</trkpt>
<trkpt lat="46.264360000" lon="7.380070000">
  <ele>947.892330</ele>
  <time>2012-05-28T13:27:08Z</time>
</trkpt>
<trkpt lat="46.264420000" lon="7.380200000">
  <ele>949.246150</ele>
  <time>2012-05-28T13:27:12Z</time>
</trkpt>
<trkpt lat="46.264440000" lon="7.380230000">
  <ele>949.584590</ele>
  <time>2012-05-28T13:27:13Z</time>
</trkpt>
<trkpt lat="46.264460000" lon="7.380260000">
  <ele>949.923030</ele>
  <time>2012-05-28T13:27:14Z</time>
</trkpt>
<trkpt lat="46.264470000" lon="7.380290000">
  <ele>950.261540</ele>
  <time>2012-05-28T13:27:15Z</time>
</trkpt>
<trkpt lat="46.264490000" lon="7.380320000">
  <ele>950.599980</ele>
  <time>2012-05-28T13:27:16Z</time>
</trkpt>
<trkpt lat="46.264560000" lon="7.380440000">
  <ele>950.599980</ele>
  <time>2012-05-28T13:27:20Z</time>
</trkpt>
<trkpt lat="46.264610000" lon="7.380540000">
  <ele>951.457090</ele>
  <time>2012-05-28T13:27:23Z</time>
</trkpt>
<trkpt lat="46.264630000" lon="7.380570000">
  <ele>951.742860</ele>
  <time>2012-05-28T13:27:24Z</time>
</trkpt>
<trkpt lat="46.264650000" lon="7.380590000">
  <ele>952.028560</ele>
  <time>2012-05-28T13:27:25Z</time>
</trkpt>
<trkpt lat="46.264670000" lon="7.380620000">
  <ele>952.314270</ele>
  <time>2012-05-28T13:27:26Z</time>
</trkpt>
<trkpt lat="46.264680000" lon="7.380650000">
  <ele>952.599980</ele>
  <time>2012-05-28T13:27:27Z</time>
</trkpt>
<trkpt lat="46.264710000" lon="7.380710000">
  <ele>952.599980</ele>
  <time>2012-05-28T13:27:29Z</time>
</trkpt>
<trkpt lat="46.264760000" lon="7.380810000">
  <ele>953.699950</ele>
  <time>2012-05-28T13:27:32Z</time>
</trkpt>
<trkpt lat="46.264780000" lon="7.380850000">
  <ele>954.066650</ele>
  <time>2012-05-28T13:27:33Z</time>
</trkpt>
<trkpt lat="46.264800000" lon="7.380870000">
  <ele>954.433350</ele>
  <time>2012-05-28T13:27:34Z</time>
</trkpt>
<trkpt lat="46.264820000" lon="7.380900000">
  <ele>954.799990</ele>
  <time>2012-05-28T13:27:35Z</time>
</trkpt>
<trkpt lat="46.264830000" lon="7.380940000">
  <ele>954.799990</ele>
  <time>2012-05-28T13:27:36Z</time>
</trkpt>
<trkpt lat="46.264890000" lon="7.381060000">
  <ele>955.799990</ele>
  <time>2012-05-28T13:27:40Z</time>
</trkpt>
<trkpt lat="46.264910000" lon="7.381090000">
  <ele>956.049990</ele>
  <time>2012-05-28T13:27:41Z</time>
</trkpt>
<trkpt lat="46.264930000" lon="7.381120000">
  <ele>956.299990</ele>
  <time>2012-05-28T13:27:42Z</time>
</trkpt>
<trkpt lat="46.264940000" lon="7.381160000">
  <ele>956.549990</ele>
  <time>2012-05-28T13:27:43Z</time>
</trkpt>
<trkpt lat="46.264960000" lon="7.381190000">
  <ele>956.799990</ele>
  <time>2012-05-28T13:27:44Z</time>
</trkpt>
<trkpt lat="46.264970000" lon="7.381220000">
  <ele>956.799990</ele>
  <time>2012-05-28T13:27:45Z</time>
</trkpt>
<trkpt lat="46.265020000" lon="7.381360000">
  <ele>957.799990</ele>
  <time>2012-05-28T13:27:49Z</time>
</trkpt>
<trkpt lat="46.265030000" lon="7.381390000">
  <ele>958.049990</ele>
  <time>2012-05-28T13:27:50Z</time>
</trkpt>
<trkpt lat="46.265050000" lon="7.381420000">
  <ele>958.299990</ele>
  <time>2012-05-28T13:27:51Z</time>
</trkpt>
<trkpt lat="46.265060000" lon="7.381460000">
  <ele>958.549990</ele>
  <time>2012-05-28T13:27:52Z</time>
</trkpt>
<trkpt lat="46.265070000" lon="7.381480000">
  <ele>958.799990</ele>
  <time>2012-05-28T13:27:53Z</time>
</trkpt>
<trkpt lat="46.265090000" lon="7.381520000">
  <ele>958.799990</ele>
  <time>2012-05-28T13:27:54Z</time>
</trkpt>
<trkpt lat="46.265150000" lon="7.381690000">
  <ele>960.022220</ele>
  <time>2012-05-28T13:27:59Z</time>
</trkpt>
<trkpt lat="46.265160000" lon="7.381740000">
  <ele>960.266660</ele>
  <time>2012-05-28T13:28:00Z</time>
</trkpt>
<trkpt lat="46.265170000" lon="7.381770000">
  <ele>960.511110</ele>
  <time>2012-05-28T13:28:01Z</time>
</trkpt>
<trkpt lat="46.265180000" lon="7.381810000">
  <ele>960.755550</ele>
  <time>2012-05-28T13:28:02Z</time>
</trkpt>
<trkpt lat="46.265240000" lon="7.382020000">
  <ele>962.222230</ele>
  <time>2012-05-28T13:28:08Z</time>
</trkpt>
<trkpt lat="46.265250000" lon="7.382060000">
  <ele>962.466670</ele>
  <time>2012-05-28T13:28:09Z</time>
</trkpt>
<trkpt lat="46.265260000" lon="7.382090000">
  <ele>962.711120</ele>
  <time>2012-05-28T13:28:10Z</time>
</trkpt>
<trkpt lat="46.265270000" lon="7.382130000">
  <ele>962.955570</ele>
  <time>2012-05-28T13:28:11Z</time>
</trkpt>
<trkpt lat="46.265280000" lon="7.382170000">
  <ele>963.200010</ele>
  <time>2012-05-28T13:28:12Z</time>
</trkpt>
<trkpt lat="46.265310000" lon="7.382280000">
  <ele>963.200010</ele>
  <time>2012-05-28T13:28:15Z</time>
</trkpt>
<trkpt lat="46.265330000" lon="7.382350000">
  <ele>963.799990</ele>
  <time>2012-05-28T13:28:17Z</time>
</trkpt>
<trkpt lat="46.265340000" lon="7.382390000">
  <ele>964.100040</ele>
  <time>2012-05-28T13:28:18Z</time>
</trkpt>
<trkpt lat="46.265350000" lon="7.382420000">
  <ele>964.400020</ele>
  <time>2012-05-28T13:28:19Z</time>
</trkpt>
<trkpt lat="46.265350000" lon="7.382460000">
  <ele>964.700010</ele>
  <time>2012-05-28T13:28:20Z</time>
</trkpt>
<trkpt lat="46.265360000" lon="7.382500000">
  <ele>965.000000</ele>
  <time>2012-05-28T13:28:21Z</time>
</trkpt>
<trkpt lat="46.265400000" lon="7.382630000">
  <ele>966.200010</ele>
  <time>2012-05-28T13:28:25Z</time>
</trkpt>
<trkpt lat="46.265420000" lon="7.382670000">
  <ele>966.500000</ele>
  <time>2012-05-28T13:28:26Z</time>
</trkpt>
<trkpt lat="46.265430000" lon="7.382700000">
  <ele>966.800050</ele>
  <time>2012-05-28T13:28:27Z</time>
</trkpt>
<trkpt lat="46.265440000" lon="7.382730000">
  <ele>967.100040</ele>
  <time>2012-05-28T13:28:28Z</time>
</trkpt>
<trkpt lat="46.265440000" lon="7.382770000">
  <ele>967.400020</ele>
  <time>2012-05-28T13:28:29Z</time>
</trkpt>
<trkpt lat="46.265480000" lon="7.382870000">
  <ele>967.400020</ele>
  <time>2012-05-28T13:28:32Z</time>
</trkpt>
<trkpt lat="46.265500000" lon="7.382930000">
  <ele>968.066710</ele>
  <time>2012-05-28T13:28:34Z</time>
</trkpt>
<trkpt lat="46.265510000" lon="7.382960000">
  <ele>968.400020</ele>
  <time>2012-05-28T13:28:35Z</time>
</trkpt>
<trkpt lat="46.265520000" lon="7.382990000">
  <ele>968.733340</ele>
  <time>2012-05-28T13:28:36Z</time>
</trkpt>
<trkpt lat="46.265530000" lon="7.383020000">
  <ele>969.066710</ele>
  <time>2012-05-28T13:28:37Z</time>
</trkpt>
<trkpt lat="46.265540000" lon="7.383050000">
  <ele>969.400020</ele>
  <time>2012-05-28T13:28:38Z</time>
</trkpt>
<trkpt lat="46.265580000" lon="7.383140000">
  <ele>969.400020</ele>
  <time>2012-05-28T13:28:41Z</time>
</trkpt>
<trkpt lat="46.265630000" lon="7.383280000">
  <ele>970.500000</ele>
  <time>2012-05-28T13:28:45Z</time>
</trkpt>
<trkpt lat="46.265640000" lon="7.383320000">
  <ele>970.775020</ele>
  <time>2012-05-28T13:28:46Z</time>
</trkpt>
<trkpt lat="46.265660000" lon="7.383350000">
  <ele>971.049990</ele>
  <time>2012-05-28T13:28:47Z</time>
</trkpt>
<trkpt lat="46.265680000" lon="7.383400000">
  <ele>971.599980</ele>
  <time>2012-05-28T13:28:49Z</time>
</trkpt>
<trkpt lat="46.265690000" lon="7.383430000">
  <ele>971.599980</ele>
  <time>2012-05-28T13:28:50Z</time>
</trkpt>
<trkpt lat="46.265750000" lon="7.383560000">
  <ele>972.514280</ele>
  <time>2012-05-28T13:28:54Z</time>
</trkpt>
<trkpt lat="46.265760000" lon="7.383590000">
  <ele>972.742860</ele>
  <time>2012-05-28T13:28:55Z</time>
</trkpt>
<trkpt lat="46.265780000" lon="7.383610000">
  <ele>972.971440</ele>
  <time>2012-05-28T13:28:56Z</time>
</trkpt>
<trkpt lat="46.265800000" lon="7.383640000">
  <ele>973.199950</ele>
  <time>2012-05-28T13:28:57Z</time>
</trkpt>
<trkpt lat="46.265820000" lon="7.383670000">
  <ele>973.428530</ele>
  <time>2012-05-28T13:28:58Z</time>
</trkpt>
<trkpt lat="46.265910000" lon="7.383840000">
  <ele>974.799990</ele>
  <time>2012-05-28T13:29:04Z</time>
</trkpt>
<trkpt lat="46.265930000" lon="7.383870000">
  <ele>975.028560</ele>
  <time>2012-05-28T13:29:05Z</time>
</trkpt>
<trkpt lat="46.265950000" lon="7.383900000">
  <ele>975.257140</ele>
  <time>2012-05-28T13:29:06Z</time>
</trkpt>
<trkpt lat="46.265970000" lon="7.383920000">
  <ele>975.485720</ele>
  <time>2012-05-28T13:29:07Z</time>
</trkpt>
<trkpt lat="46.265990000" lon="7.383950000">
  <ele>975.714290</ele>
  <time>2012-05-28T13:29:08Z</time>
</trkpt>
<trkpt lat="46.266100000" lon="7.384100000">
  <ele>977.085690</ele>
  <time>2012-05-28T13:29:14Z</time>
</trkpt>
<trkpt lat="46.266120000" lon="7.384130000">
  <ele>977.314270</ele>
  <time>2012-05-28T13:29:15Z</time>
</trkpt>
<trkpt lat="46.266140000" lon="7.384150000">
  <ele>977.542850</ele>
  <time>2012-05-28T13:29:16Z</time>
</trkpt>
<trkpt lat="46.266160000" lon="7.384180000">
  <ele>977.771420</ele>
  <time>2012-05-28T13:29:17Z</time>
</trkpt>
<trkpt lat="46.266180000" lon="7.384200000">
  <ele>978.000000</ele>
  <time>2012-05-28T13:29:18Z</time>
</trkpt>
<trkpt lat="46.266290000" lon="7.384330000">
  <ele>978.000000</ele>
  <time>2012-05-28T13:29:23Z</time>
</trkpt>
<trkpt lat="46.266330000" lon="7.384390000">
  <ele>978.733340</ele>
  <time>2012-05-28T13:29:25Z</time>
</trkpt>
<trkpt lat="46.266350000" lon="7.384410000">
  <ele>979.099980</ele>
  <time>2012-05-28T13:29:26Z</time>
</trkpt>
<trkpt lat="46.266370000" lon="7.384440000">
  <ele>979.466670</ele>
  <time>2012-05-28T13:29:27Z</time>
</trkpt>
<trkpt lat="46.266400000" lon="7.384470000">
  <ele>979.833370</ele>
  <time>2012-05-28T13:29:28Z</time>
</trkpt>
<trkpt lat="46.266420000" lon="7.384500000">
  <ele>980.200010</ele>
  <time>2012-05-28T13:29:29Z</time>
</trkpt>
<trkpt lat="46.266520000" lon="7.384620000">
  <ele>980.200010</ele>
  <time>2012-05-28T13:29:34Z</time>
</trkpt>
<trkpt lat="46.266560000" lon="7.384670000">
  <ele>981.080020</ele>
  <time>2012-05-28T13:29:36Z</time>
</trkpt>
<trkpt lat="46.266580000" lon="7.384700000">
  <ele>981.520020</ele>
  <time>2012-05-28T13:29:37Z</time>
</trkpt>
<trkpt lat="46.266600000" lon="7.384730000">
  <ele>981.960020</ele>
  <time>2012-05-28T13:29:38Z</time>
</trkpt>
<trkpt lat="46.266620000" lon="7.384750000">
  <ele>982.400020</ele>
  <time>2012-05-28T13:29:39Z</time>
</trkpt>
<trkpt lat="46.266720000" lon="7.384880000">
  <ele>982.400020</ele>
  <time>2012-05-28T13:29:44Z</time>
</trkpt>
<trkpt lat="46.266770000" lon="7.384930000">
  <ele>983.066710</ele>
  <time>2012-05-28T13:29:46Z</time>
</trkpt>
<trkpt lat="46.266780000" lon="7.384950000">
  <ele>983.400020</ele>
  <time>2012-05-28T13:29:47Z</time>
</trkpt>
<trkpt lat="46.266800000" lon="7.384980000">
  <ele>983.733340</ele>
  <time>2012-05-28T13:29:48Z</time>
</trkpt>
<trkpt lat="46.266820000" lon="7.385010000">
  <ele>984.066710</ele>
  <time>2012-05-28T13:29:49Z</time>
</trkpt>
<trkpt lat="46.266840000" lon="7.385040000">
  <ele>984.400020</ele>
  <time>2012-05-28T13:29:50Z</time>
</trkpt>
<trkpt lat="46.266900000" lon="7.385120000">
  <ele>984.400020</ele>
  <time>2012-05-28T13:29:53Z</time>
</trkpt>
<trkpt lat="46.266970000" lon="7.385180000">
  <ele>985.257140</ele>
  <time>2012-05-28T13:29:56Z</time>
</trkpt>
<trkpt lat="46.266990000" lon="7.385200000">
  <ele>985.542910</ele>
  <time>2012-05-28T13:29:57Z</time>
</trkpt>
<trkpt lat="46.267010000" lon="7.385230000">
  <ele>985.828610</ele>
  <time>2012-05-28T13:29:58Z</time>
</trkpt>
<trkpt lat="46.267020000" lon="7.385260000">
  <ele>986.114320</ele>
  <time>2012-05-28T13:29:59Z</time>
</trkpt>
<trkpt lat="46.267040000" lon="7.385280000">
  <ele>986.400020</ele>
  <time>2012-05-28T13:30:00Z</time>
</trkpt>
<trkpt lat="46.267120000" lon="7.385390000">
  <ele>986.400020</ele>
  <time>2012-05-28T13:30:04Z</time>
</trkpt>
<trkpt lat="46.267150000" lon="7.385430000">
  <ele>987.133360</ele>
  <time>2012-05-28T13:30:06Z</time>
</trkpt>
<trkpt lat="46.267180000" lon="7.385450000">
  <ele>987.500000</ele>
  <time>2012-05-28T13:30:07Z</time>
</trkpt>
<trkpt lat="46.267200000" lon="7.385480000">
  <ele>987.866640</ele>
  <time>2012-05-28T13:30:08Z</time>
</trkpt>
<trkpt lat="46.267220000" lon="7.385500000">
  <ele>988.233340</ele>
  <time>2012-05-28T13:30:09Z</time>
</trkpt>
<trkpt lat="46.267230000" lon="7.385530000">
  <ele>988.599980</ele>
  <time>2012-05-28T13:30:10Z</time>
</trkpt>
<trkpt lat="46.267380000" lon="7.385710000">
  <ele>988.599980</ele>
  <time>2012-05-28T13:30:17Z</time>
</trkpt>
<trkpt lat="46.267400000" lon="7.385730000">
  <ele>989.039980</ele>
  <time>2012-05-28T13:30:18Z</time>
</trkpt>
<trkpt lat="46.267420000" lon="7.385760000">
  <ele>989.479980</ele>
  <time>2012-05-28T13:30:19Z</time>
</trkpt>
<trkpt lat="46.267440000" lon="7.385790000">
  <ele>989.919980</ele>
  <time>2012-05-28T13:30:20Z</time>
</trkpt>
<trkpt lat="46.267460000" lon="7.385810000">
  <ele>990.359990</ele>
  <time>2012-05-28T13:30:21Z</time>
</trkpt>
<trkpt lat="46.267480000" lon="7.385840000">
  <ele>990.799990</ele>
  <time>2012-05-28T13:30:22Z</time>
</trkpt>
<trkpt lat="46.267550000" lon="7.385960000">
  <ele>990.799990</ele>
  <time>2012-05-28T13:30:26Z</time>
</trkpt>
<trkpt lat="46.267570000" lon="7.385990000">
  <ele>991.200010</ele>
  <time>2012-05-28T13:30:27Z</time>
</trkpt>
<trkpt lat="46.267590000" lon="7.386010000">
  <ele>991.599980</ele>
  <time>2012-05-28T13:30:28Z</time>
</trkpt>
<trkpt lat="46.267610000" lon="7.386040000">
  <ele>992.000000</ele>
  <time>2012-05-28T13:30:29Z</time>
</trkpt>
<trkpt lat="46.267630000" lon="7.386070000">
  <ele>992.399960</ele>
  <time>2012-05-28T13:30:30Z</time>
</trkpt>
<trkpt lat="46.267650000" lon="7.386100000">
  <ele>992.799990</ele>
  <time>2012-05-28T13:30:31Z</time>
</trkpt>
<trkpt lat="46.267710000" lon="7.386190000">
  <ele>992.799990</ele>
  <time>2012-05-28T13:30:34Z</time>
</trkpt>
<trkpt lat="46.267780000" lon="7.386300000">
  <ele>993.900020</ele>
  <time>2012-05-28T13:30:38Z</time>
</trkpt>
<trkpt lat="46.267800000" lon="7.386330000">
  <ele>994.174990</ele>
  <time>2012-05-28T13:30:39Z</time>
</trkpt>
<trkpt lat="46.267810000" lon="7.386360000">
  <ele>994.450010</ele>
  <time>2012-05-28T13:30:40Z</time>
</trkpt>
<trkpt lat="46.267830000" lon="7.386400000">
  <ele>994.724980</ele>
  <time>2012-05-28T13:30:41Z</time>
</trkpt>
<trkpt lat="46.267850000" lon="7.386430000">
  <ele>995.000000</ele>
  <time>2012-05-28T13:30:42Z</time>
</trkpt>
<trkpt lat="46.267890000" lon="7.386500000">
  <ele>995.000000</ele>
  <time>2012-05-28T13:30:44Z</time>
</trkpt>
<trkpt lat="46.267970000" lon="7.386660000">
  <ele>996.034480</ele>
  <time>2012-05-28T13:30:49Z</time>
</trkpt>
<trkpt lat="46.267990000" lon="7.386690000">
  <ele>996.241390</ele>
  <time>2012-05-28T13:30:50Z</time>
</trkpt>
<trkpt lat="46.268010000" lon="7.386720000">
  <ele>996.448300</ele>
  <time>2012-05-28T13:30:51Z</time>
</trkpt>
<trkpt lat="46.268020000" lon="7.386750000">
  <ele>996.655150</ele>
  <time>2012-05-28T13:30:52Z</time>
</trkpt>
<trkpt lat="46.268120000" lon="7.386930000">
  <ele>997.896550</ele>
  <time>2012-05-28T13:30:58Z</time>
</trkpt>
<trkpt lat="46.268140000" lon="7.386960000">
  <ele>998.103450</ele>
  <time>2012-05-28T13:30:59Z</time>
</trkpt>
<trkpt lat="46.268150000" lon="7.386990000">
  <ele>998.310360</ele>
  <time>2012-05-28T13:31:00Z</time>
</trkpt>
<trkpt lat="46.268160000" lon="7.387020000">
  <ele>998.517210</ele>
  <time>2012-05-28T13:31:01Z</time>
</trkpt>
<trkpt lat="46.268180000" lon="7.387050000">
  <ele>998.724120</ele>
  <time>2012-05-28T13:31:02Z</time>
</trkpt>
<trkpt lat="46.268280000" lon="7.387270000">
  <ele>1000.172420</ele>
  <time>2012-05-28T13:31:09Z</time>
</trkpt>
<trkpt lat="46.268290000" lon="7.387300000">
  <ele>1000.379330</ele>
  <time>2012-05-28T13:31:10Z</time>
</trkpt>
<trkpt lat="46.268310000" lon="7.387330000">
  <ele>1000.586180</ele>
  <time>2012-05-28T13:31:11Z</time>
</trkpt>
<trkpt lat="46.268320000" lon="7.387370000">
  <ele>1000.793090</ele>
  <time>2012-05-28T13:31:12Z</time>
</trkpt>
<trkpt lat="46.268340000" lon="7.387400000">
  <ele>1001.000000</ele>
  <time>2012-05-28T13:31:13Z</time>
</trkpt>
<trkpt lat="46.268400000" lon="7.387520000">
  <ele>1001.000000</ele>
  <time>2012-05-28T13:31:17Z</time>
</trkpt>
<trkpt lat="46.268410000" lon="7.387570000">
  <ele>1001.440000</ele>
  <time>2012-05-28T13:31:18Z</time>
</trkpt>
<trkpt lat="46.268430000" lon="7.387610000">
  <ele>1001.880000</ele>
  <time>2012-05-28T13:31:19Z</time>
</trkpt>
<trkpt lat="46.268440000" lon="7.387650000">
  <ele>1002.320010</ele>
  <time>2012-05-28T13:31:20Z</time>
</trkpt>
<trkpt lat="46.268460000" lon="7.387690000">
  <ele>1002.760010</ele>
  <time>2012-05-28T13:31:21Z</time>
</trkpt>
<trkpt lat="46.268470000" lon="7.387730000">
  <ele>1003.200010</ele>
  <time>2012-05-28T13:31:22Z</time>
</trkpt>
<trkpt lat="46.268550000" lon="7.387920000">
  <ele>1003.200010</ele>
  <time>2012-05-28T13:31:27Z</time>
</trkpt>
<trkpt lat="46.268570000" lon="7.387960000">
  <ele>1003.481810</ele>
  <time>2012-05-28T13:31:28Z</time>
</trkpt>
<trkpt lat="46.268590000" lon="7.388000000">
  <ele>1003.763670</ele>
  <time>2012-05-28T13:31:29Z</time>
</trkpt>
<trkpt lat="46.268600000" lon="7.388030000">
  <ele>1004.045470</ele>
  <time>2012-05-28T13:31:30Z</time>
</trkpt>
<trkpt lat="46.268620000" lon="7.388070000">
  <ele>1004.327270</ele>
  <time>2012-05-28T13:31:31Z</time>
</trkpt>
<trkpt lat="46.268630000" lon="7.388100000">
  <ele>1004.609130</ele>
  <time>2012-05-28T13:31:32Z</time>
</trkpt>
<trkpt lat="46.268710000" lon="7.388280000">
  <ele>1006.018190</ele>
  <time>2012-05-28T13:31:37Z</time>
</trkpt>
<trkpt lat="46.268730000" lon="7.388310000">
  <ele>1006.300050</ele>
  <time>2012-05-28T13:31:38Z</time>
</trkpt>
<trkpt lat="46.268740000" lon="7.388350000">
  <ele>1006.581850</ele>
  <time>2012-05-28T13:31:39Z</time>
</trkpt>
<trkpt lat="46.268760000" lon="7.388380000">
  <ele>1006.863650</ele>
  <time>2012-05-28T13:31:40Z</time>
</trkpt>
<trkpt lat="46.268780000" lon="7.388420000">
  <ele>1007.145450</ele>
  <time>2012-05-28T13:31:41Z</time>
</trkpt>
<trkpt lat="46.268840000" lon="7.388560000">
  <ele>1008.272770</ele>
  <time>2012-05-28T13:31:45Z</time>
</trkpt>
<trkpt lat="46.268860000" lon="7.388590000">
  <ele>1008.554570</ele>
  <time>2012-05-28T13:31:46Z</time>
</trkpt>
<trkpt lat="46.268880000" lon="7.388630000">
  <ele>1008.836360</ele>
  <time>2012-05-28T13:31:47Z</time>
</trkpt>
<trkpt lat="46.268890000" lon="7.388670000">
  <ele>1009.118230</ele>
  <time>2012-05-28T13:31:48Z</time>
</trkpt>
<trkpt lat="46.268910000" lon="7.388700000">
  <ele>1009.400020</ele>
  <time>2012-05-28T13:31:49Z</time>
</trkpt>
<trkpt lat="46.269010000" lon="7.388820000">
  <ele>1009.400020</ele>
  <time>2012-05-28T13:31:54Z</time>
</trkpt>
<trkpt lat="46.269070000" lon="7.388840000">
  <ele>1010.133360</ele>
  <time>2012-05-28T13:31:56Z</time>
</trkpt>
<trkpt lat="46.269100000" lon="7.388840000">
  <ele>1010.500000</ele>
  <time>2012-05-28T13:31:57Z</time>
</trkpt>
<trkpt lat="46.269120000" lon="7.388830000">
  <ele>1010.866640</ele>
  <time>2012-05-28T13:31:58Z</time>
</trkpt>
<trkpt lat="46.269150000" lon="7.388810000">
  <ele>1011.233340</ele>
  <time>2012-05-28T13:31:59Z</time>
</trkpt>
<trkpt lat="46.269170000" lon="7.388790000">
  <ele>1011.599980</ele>
  <time>2012-05-28T13:32:00Z</time>
</trkpt>
<trkpt lat="46.269220000" lon="7.388690000">
  <ele>1011.599980</ele>
  <time>2012-05-28T13:32:03Z</time>
</trkpt>
<trkpt lat="46.269230000" lon="7.388440000">
  <ele>1012.799990</ele>
  <time>2012-05-28T13:32:09Z</time>
</trkpt>
<trkpt lat="46.269220000" lon="7.388310000">
  <ele>1013.399960</ele>
  <time>2012-05-28T13:32:12Z</time>
</trkpt>
<trkpt lat="46.269220000" lon="7.388270000">
  <ele>1013.599980</ele>
  <time>2012-05-28T13:32:13Z</time>
</trkpt>
<trkpt lat="46.269210000" lon="7.388230000">
  <ele>1013.799990</ele>
  <time>2012-05-28T13:32:14Z</time>
</trkpt>
<trkpt lat="46.269210000" lon="7.388190000">
  <ele>1014.000000</ele>
  <time>2012-05-28T13:32:15Z</time>
</trkpt>
<trkpt lat="46.269210000" lon="7.388160000">
  <ele>1014.199950</ele>
  <time>2012-05-28T13:32:16Z</time>
</trkpt>
<trkpt lat="46.269200000" lon="7.387930000">
  <ele>1015.399960</ele>
  <time>2012-05-28T13:32:22Z</time>
</trkpt>
<trkpt lat="46.269200000" lon="7.387880000">
  <ele>1015.599980</ele>
  <time>2012-05-28T13:32:23Z</time>
</trkpt>
<trkpt lat="46.269190000" lon="7.387840000">
  <ele>1015.799990</ele>
  <time>2012-05-28T13:32:24Z</time>
</trkpt>
<trkpt lat="46.269190000" lon="7.387800000">
  <ele>1016.000000</ele>
  <time>2012-05-28T13:32:25Z</time>
</trkpt>
<trkpt lat="46.269190000" lon="7.387760000">
  <ele>1016.199950</ele>
  <time>2012-05-28T13:32:26Z</time>
</trkpt>
<trkpt lat="46.269180000" lon="7.387560000">
  <ele>1017.200010</ele>
  <time>2012-05-28T13:32:31Z</time>
</trkpt>
<trkpt lat="46.269180000" lon="7.387520000">
  <ele>1017.399960</ele>
  <time>2012-05-28T13:32:32Z</time>
</trkpt>
<trkpt lat="46.269180000" lon="7.387490000">
  <ele>1017.599980</ele>
  <time>2012-05-28T13:32:33Z</time>
</trkpt>
<trkpt lat="46.269170000" lon="7.387450000">
  <ele>1017.799990</ele>
  <time>2012-05-28T13:32:34Z</time>
</trkpt>
<trkpt lat="46.269170000" lon="7.387410000">
  <ele>1018.000000</ele>
  <time>2012-05-28T13:32:35Z</time>
</trkpt>
<trkpt lat="46.269150000" lon="7.387170000">
  <ele>1019.200010</ele>
  <time>2012-05-28T13:32:41Z</time>
</trkpt>
<trkpt lat="46.269150000" lon="7.387140000">
  <ele>1019.399960</ele>
  <time>2012-05-28T13:32:42Z</time>
</trkpt>
<trkpt lat="46.269150000" lon="7.387100000">
  <ele>1019.599980</ele>
  <time>2012-05-28T13:32:43Z</time>
</trkpt>
<trkpt lat="46.269140000" lon="7.387060000">
  <ele>1019.799990</ele>
  <time>2012-05-28T13:32:44Z</time>
</trkpt>
<trkpt lat="46.269140000" lon="7.387020000">
  <ele>1020.000000</ele>
  <time>2012-05-28T13:32:45Z</time>
</trkpt>
<trkpt lat="46.269110000" lon="7.386850000">
  <ele>1021.000000</ele>
  <time>2012-05-28T13:32:50Z</time>
</trkpt>
<trkpt lat="46.269100000" lon="7.386820000">
  <ele>1021.200010</ele>
  <time>2012-05-28T13:32:51Z</time>
</trkpt>
<trkpt lat="46.269090000" lon="7.386780000">
  <ele>1021.399960</ele>
  <time>2012-05-28T13:32:52Z</time>
</trkpt>
<trkpt lat="46.269080000" lon="7.386750000">
  <ele>1021.599980</ele>
  <time>2012-05-28T13:32:53Z</time>
</trkpt>
<trkpt lat="46.269070000" lon="7.386720000">
  <ele>1021.799990</ele>
  <time>2012-05-28T13:32:54Z</time>
</trkpt>
<trkpt lat="46.268980000" lon="7.386490000">
  <ele>1021.799990</ele>
  <time>2012-05-28T13:33:01Z</time>
</trkpt>
<trkpt lat="46.268970000" lon="7.386460000">
  <ele>1022.081790</ele>
  <time>2012-05-28T13:33:02Z</time>
</trkpt>
<trkpt lat="46.268950000" lon="7.386420000">
  <ele>1022.363650</ele>
  <time>2012-05-28T13:33:03Z</time>
</trkpt>
<trkpt lat="46.268940000" lon="7.386390000">
  <ele>1022.645450</ele>
  <time>2012-05-28T13:33:04Z</time>
</trkpt>
<trkpt lat="46.268920000" lon="7.386360000">
  <ele>1022.927250</ele>
  <time>2012-05-28T13:33:05Z</time>
</trkpt>
<trkpt lat="46.268910000" lon="7.386330000">
  <ele>1023.209110</ele>
  <time>2012-05-28T13:33:06Z</time>
</trkpt>
<trkpt lat="46.268830000" lon="7.386170000">
  <ele>1024.618160</ele>
  <time>2012-05-28T13:33:11Z</time>
</trkpt>
<trkpt lat="46.268810000" lon="7.386140000">
  <ele>1024.900020</ele>
  <time>2012-05-28T13:33:12Z</time>
</trkpt>
<trkpt lat="46.268800000" lon="7.386100000">
  <ele>1025.181760</ele>
  <time>2012-05-28T13:33:13Z</time>
</trkpt>
<trkpt lat="46.268790000" lon="7.386070000">
  <ele>1025.463620</ele>
  <time>2012-05-28T13:33:14Z</time>
</trkpt>
<trkpt lat="46.268770000" lon="7.386030000">
  <ele>1025.745480</ele>
  <time>2012-05-28T13:33:15Z</time>
</trkpt>
<trkpt lat="46.268700000" lon="7.385870000">
  <ele>1027.154540</ele>
  <time>2012-05-28T13:33:20Z</time>
</trkpt>
<trkpt lat="46.268690000" lon="7.385840000">
  <ele>1027.436400</ele>
  <time>2012-05-28T13:33:21Z</time>
</trkpt>
<trkpt lat="46.268680000" lon="7.385810000">
  <ele>1027.718140</ele>
  <time>2012-05-28T13:33:22Z</time>
</trkpt>
<trkpt lat="46.268680000" lon="7.385770000">
  <ele>1028.000000</ele>
  <time>2012-05-28T13:33:23Z</time>
</trkpt>
<trkpt lat="46.268650000" lon="7.385620000">
  <ele>1028.000000</ele>
  <time>2012-05-28T13:33:27Z</time>
</trkpt>
<trkpt lat="46.268630000" lon="7.385470000">
  <ele>1029.011720</ele>
  <time>2012-05-28T13:33:31Z</time>
</trkpt>
<trkpt lat="46.268620000" lon="7.385430000">
  <ele>1029.264650</ele>
  <time>2012-05-28T13:33:32Z</time>
</trkpt>
<trkpt lat="46.268620000" lon="7.385390000">
  <ele>1029.517700</ele>
  <time>2012-05-28T13:33:33Z</time>
</trkpt>
<trkpt lat="46.268620000" lon="7.385350000">
  <ele>1029.770630</ele>
  <time>2012-05-28T13:33:34Z</time>
</trkpt>
<trkpt lat="46.268610000" lon="7.385320000">
  <ele>1030.023560</ele>
  <time>2012-05-28T13:33:35Z</time>
</trkpt>
<trkpt lat="46.268600000" lon="7.385120000">
  <ele>1031.288210</ele>
  <time>2012-05-28T13:33:40Z</time>
</trkpt>
<trkpt lat="46.268600000" lon="7.385080000">
  <ele>1031.541140</ele>
  <time>2012-05-28T13:33:41Z</time>
</trkpt>
<trkpt lat="46.268600000" lon="7.385040000">
  <ele>1031.794070</ele>
  <time>2012-05-28T13:33:42Z</time>
</trkpt>
<trkpt lat="46.268600000" lon="7.385000000">
  <ele>1032.047000</ele>
  <time>2012-05-28T13:33:43Z</time>
</trkpt>
<trkpt lat="46.268600000" lon="7.384960000">
  <ele>1032.300050</ele>
  <time>2012-05-28T13:33:44Z</time>
</trkpt>
<trkpt lat="46.268600000" lon="7.384800000">
  <ele>1033.311770</ele>
  <time>2012-05-28T13:33:48Z</time>
</trkpt>
<trkpt lat="46.268600000" lon="7.384760000">
  <ele>1033.564700</ele>
  <time>2012-05-28T13:33:49Z</time>
</trkpt>
<trkpt lat="46.268600000" lon="7.384720000">
  <ele>1033.817630</ele>
  <time>2012-05-28T13:33:50Z</time>
</trkpt>
<trkpt lat="46.268600000" lon="7.384670000">
  <ele>1034.070560</ele>
  <time>2012-05-28T13:33:51Z</time>
</trkpt>
<trkpt lat="46.268600000" lon="7.384630000">
  <ele>1034.323490</ele>
  <time>2012-05-28T13:33:52Z</time>
</trkpt>
<trkpt lat="46.268580000" lon="7.384440000">
  <ele>1035.588260</ele>
  <time>2012-05-28T13:33:57Z</time>
</trkpt>
<trkpt lat="46.268570000" lon="7.384400000">
  <ele>1035.841190</ele>
  <time>2012-05-28T13:33:58Z</time>
</trkpt>
<trkpt lat="46.268560000" lon="7.384360000">
  <ele>1036.094120</ele>
  <time>2012-05-28T13:33:59Z</time>
</trkpt>
<trkpt lat="46.268560000" lon="7.384330000">
  <ele>1036.347050</ele>
  <time>2012-05-28T13:34:00Z</time>
</trkpt>
<trkpt lat="46.268550000" lon="7.384290000">
  <ele>1036.599980</ele>
  <time>2012-05-28T13:34:01Z</time>
</trkpt>
<trkpt lat="46.268500000" lon="7.384070000">
  <ele>1036.599980</ele>
  <time>2012-05-28T13:34:07Z</time>
</trkpt>
<trkpt lat="46.268490000" lon="7.384040000">
  <ele>1037.099980</ele>
  <time>2012-05-28T13:34:08Z</time>
</trkpt>
<trkpt lat="46.268470000" lon="7.384000000">
  <ele>1037.599980</ele>
  <time>2012-05-28T13:34:09Z</time>
</trkpt>
<trkpt lat="46.268460000" lon="7.383970000">
  <ele>1038.099980</ele>
  <time>2012-05-28T13:34:10Z</time>
</trkpt>
<trkpt lat="46.268450000" lon="7.383930000">
  <ele>1038.599980</ele>
  <time>2012-05-28T13:34:11Z</time>
</trkpt>
<trkpt lat="46.268410000" lon="7.383820000">
  <ele>1038.599980</ele>
  <time>2012-05-28T13:34:14Z</time>
</trkpt>
<trkpt lat="46.268390000" lon="7.383790000">
  <ele>1038.885740</ele>
  <time>2012-05-28T13:34:15Z</time>
</trkpt>
<trkpt lat="46.268360000" lon="7.383730000">
  <ele>1039.457150</ele>
  <time>2012-05-28T13:34:17Z</time>
</trkpt>
<trkpt lat="46.268350000" lon="7.383700000">
  <ele>1039.742800</ele>
  <time>2012-05-28T13:34:18Z</time>
</trkpt>
<trkpt lat="46.268330000" lon="7.383670000">
  <ele>1040.028560</ele>
  <time>2012-05-28T13:34:19Z</time>
</trkpt>
<trkpt lat="46.268320000" lon="7.383630000">
  <ele>1040.314210</ele>
  <time>2012-05-28T13:34:20Z</time>
</trkpt>
<trkpt lat="46.268300000" lon="7.383600000">
  <ele>1040.599980</ele>
  <time>2012-05-28T13:34:21Z</time>
</trkpt>
<trkpt lat="46.268270000" lon="7.383530000">
  <ele>1040.599980</ele>
  <time>2012-05-28T13:34:23Z</time>
</trkpt>
<trkpt lat="46.268210000" lon="7.383410000">
  <ele>1041.699950</ele>
  <time>2012-05-28T13:34:27Z</time>
</trkpt>
<trkpt lat="46.268190000" lon="7.383380000">
  <ele>1041.974980</ele>
  <time>2012-05-28T13:34:28Z</time>
</trkpt>
<trkpt lat="46.268180000" lon="7.383350000">
  <ele>1042.250000</ele>
  <time>2012-05-28T13:34:29Z</time>
</trkpt>
<trkpt lat="46.268160000" lon="7.383320000">
  <ele>1042.525020</ele>
  <time>2012-05-28T13:34:30Z</time>
</trkpt>
<trkpt lat="46.268140000" lon="7.383280000">
  <ele>1042.800050</ele>
  <time>2012-05-28T13:34:31Z</time>
</trkpt>
<trkpt lat="46.268130000" lon="7.383250000">
  <ele>1042.800050</ele>
  <time>2012-05-28T13:34:32Z</time>
</trkpt>
<trkpt lat="46.268040000" lon="7.383080000">
  <ele>1043.957890</ele>
  <time>2012-05-28T13:34:37Z</time>
</trkpt>
<trkpt lat="46.268030000" lon="7.383040000">
  <ele>1044.189450</ele>
  <time>2012-05-28T13:34:38Z</time>
</trkpt>
<trkpt lat="46.268010000" lon="7.383010000">
  <ele>1044.421020</ele>
  <time>2012-05-28T13:34:39Z</time>
</trkpt>
<trkpt lat="46.268000000" lon="7.382980000">
  <ele>1044.652590</ele>
  <time>2012-05-28T13:34:40Z</time>
</trkpt>
<trkpt lat="46.267980000" lon="7.382940000">
  <ele>1044.884160</ele>
  <time>2012-05-28T13:34:41Z</time>
</trkpt>
<trkpt lat="46.267900000" lon="7.382730000">
  <ele>1046.273680</ele>
  <time>2012-05-28T13:34:47Z</time>
</trkpt>
<trkpt lat="46.267880000" lon="7.382700000">
  <ele>1046.505250</ele>
  <time>2012-05-28T13:34:48Z</time>
</trkpt>
<trkpt lat="46.267870000" lon="7.382660000">
  <ele>1046.736820</ele>
  <time>2012-05-28T13:34:49Z</time>
</trkpt>
<trkpt lat="46.267860000" lon="7.382630000">
  <ele>1046.968380</ele>
  <time>2012-05-28T13:34:50Z</time>
</trkpt>
<trkpt lat="46.267850000" lon="7.382590000">
  <ele>1047.199950</ele>
  <time>2012-05-28T13:34:51Z</time>
</trkpt>
<trkpt lat="46.267810000" lon="7.382450000">
  <ele>1047.199950</ele>
  <time>2012-05-28T13:34:55Z</time>
</trkpt>
<trkpt lat="46.267800000" lon="7.382370000">
  <ele>1048.079960</ele>
  <time>2012-05-28T13:34:57Z</time>
</trkpt>
<trkpt lat="46.267790000" lon="7.382320000">
  <ele>1048.520020</ele>
  <time>2012-05-28T13:34:58Z</time>
</trkpt>
<trkpt lat="46.267780000" lon="7.382290000">
  <ele>1048.959960</ele>
  <time>2012-05-28T13:34:59Z</time>
</trkpt>
<trkpt lat="46.267780000" lon="7.382250000">
  <ele>1049.400020</ele>
  <time>2012-05-28T13:35:00Z</time>
</trkpt>
<trkpt lat="46.267770000" lon="7.382130000">
  <ele>1049.400020</ele>
  <time>2012-05-28T13:35:03Z</time>
</trkpt>
<trkpt lat="46.267770000" lon="7.382010000">
  <ele>1050.342900</ele>
  <time>2012-05-28T13:35:06Z</time>
</trkpt>
<trkpt lat="46.267760000" lon="7.381960000">
  <ele>1050.657100</ele>
  <time>2012-05-28T13:35:07Z</time>
</trkpt>
<trkpt lat="46.267750000" lon="7.381920000">
  <ele>1050.971440</ele>
  <time>2012-05-28T13:35:08Z</time>
</trkpt>
<trkpt lat="46.267750000" lon="7.381890000">
  <ele>1051.285640</ele>
  <time>2012-05-28T13:35:09Z</time>
</trkpt>
<trkpt lat="46.267750000" lon="7.381850000">
  <ele>1051.599980</ele>
  <time>2012-05-28T13:35:10Z</time>
</trkpt>
<trkpt lat="46.267750000" lon="7.381770000">
  <ele>1051.599980</ele>
  <time>2012-05-28T13:35:12Z</time>
</trkpt>
<trkpt lat="46.267750000" lon="7.381650000">
  <ele>1052.387450</ele>
  <time>2012-05-28T13:35:15Z</time>
</trkpt>
<trkpt lat="46.267750000" lon="7.381610000">
  <ele>1052.650020</ele>
  <time>2012-05-28T13:35:16Z</time>
</trkpt>
<trkpt lat="46.267750000" lon="7.381570000">
  <ele>1052.912480</ele>
  <time>2012-05-28T13:35:17Z</time>
</trkpt>
<trkpt lat="46.267750000" lon="7.381530000">
  <ele>1053.175050</ele>
  <time>2012-05-28T13:35:18Z</time>
</trkpt>
<trkpt lat="46.267740000" lon="7.381490000">
  <ele>1053.437500</ele>
  <time>2012-05-28T13:35:19Z</time>
</trkpt>
<trkpt lat="46.267740000" lon="7.381310000">
  <ele>1054.750000</ele>
  <time>2012-05-28T13:35:24Z</time>
</trkpt>
<trkpt lat="46.267730000" lon="7.381260000">
  <ele>1055.012570</ele>
  <time>2012-05-28T13:35:25Z</time>
</trkpt>
<trkpt lat="46.267730000" lon="7.381220000">
  <ele>1055.275020</ele>
  <time>2012-05-28T13:35:26Z</time>
</trkpt>
<trkpt lat="46.267730000" lon="7.381190000">
  <ele>1055.537600</ele>
  <time>2012-05-28T13:35:27Z</time>
</trkpt>
<trkpt lat="46.267730000" lon="7.381150000">
  <ele>1055.800050</ele>
  <time>2012-05-28T13:35:28Z</time>
</trkpt>
<trkpt lat="46.267720000" lon="7.380990000">
  <ele>1055.800050</ele>
  <time>2012-05-28T13:35:32Z</time>
</trkpt>
<trkpt lat="46.267720000" lon="7.380900000">
  <ele>1056.533330</ele>
  <time>2012-05-28T13:35:34Z</time>
</trkpt>
<trkpt lat="46.267720000" lon="7.380860000">
  <ele>1056.900020</ele>
  <time>2012-05-28T13:35:35Z</time>
</trkpt>
<trkpt lat="46.267720000" lon="7.380820000">
  <ele>1057.266720</ele>
  <time>2012-05-28T13:35:36Z</time>
</trkpt>
<trkpt lat="46.267720000" lon="7.380780000">
  <ele>1057.633300</ele>
  <time>2012-05-28T13:35:37Z</time>
</trkpt>
<trkpt lat="46.267720000" lon="7.380730000">
  <ele>1058.000000</ele>
  <time>2012-05-28T13:35:38Z</time>
</trkpt>
<trkpt lat="46.267720000" lon="7.380690000">
  <ele>1058.000000</ele>
  <time>2012-05-28T13:35:39Z</time>
</trkpt>
<trkpt lat="46.267760000" lon="7.380390000">
  <ele>1059.400020</ele>
  <time>2012-05-28T13:35:46Z</time>
</trkpt>
<trkpt lat="46.267800000" lon="7.380330000">
  <ele>1059.800050</ele>
  <time>2012-05-28T13:35:48Z</time>
</trkpt>
<trkpt lat="46.267830000" lon="7.380320000">
  <ele>1060.000000</ele>
  <time>2012-05-28T13:35:49Z</time>
</trkpt>
<trkpt lat="46.267860000" lon="7.380310000">
  <ele>1060.200070</ele>
  <time>2012-05-28T13:35:50Z</time>
</trkpt>
<trkpt lat="46.267890000" lon="7.380320000">
  <ele>1060.400020</ele>
  <time>2012-05-28T13:35:51Z</time>
</trkpt>
<trkpt lat="46.267980000" lon="7.380390000">
  <ele>1060.400020</ele>
  <time>2012-05-28T13:35:54Z</time>
</trkpt>
<trkpt lat="46.268030000" lon="7.380490000">
  <ele>1061.257200</ele>
  <time>2012-05-28T13:35:57Z</time>
</trkpt>
<trkpt lat="46.268040000" lon="7.380530000">
  <ele>1061.542850</ele>
  <time>2012-05-28T13:35:58Z</time>
</trkpt>
<trkpt lat="46.268050000" lon="7.380570000">
  <ele>1061.828610</ele>
  <time>2012-05-28T13:35:59Z</time>
</trkpt>
<trkpt lat="46.268060000" lon="7.380610000">
  <ele>1062.114260</ele>
  <time>2012-05-28T13:36:00Z</time>
</trkpt>
<trkpt lat="46.268070000" lon="7.380650000">
  <ele>1062.400020</ele>
  <time>2012-05-28T13:36:01Z</time>
</trkpt>
<trkpt lat="46.268130000" lon="7.380910000">
  <ele>1062.400020</ele>
  <time>2012-05-28T13:36:07Z</time>
</trkpt>
<trkpt lat="46.268140000" lon="7.380950000">
  <ele>1062.839970</ele>
  <time>2012-05-28T13:36:08Z</time>
</trkpt>
<trkpt lat="46.268150000" lon="7.380990000">
  <ele>1063.280030</ele>
  <time>2012-05-28T13:36:09Z</time>
</trkpt>
<trkpt lat="46.268150000" lon="7.381030000">
  <ele>1063.719970</ele>
  <time>2012-05-28T13:36:10Z</time>
</trkpt>
<trkpt lat="46.268160000" lon="7.381070000">
  <ele>1064.160030</ele>
  <time>2012-05-28T13:36:11Z</time>
</trkpt>
<trkpt lat="46.268170000" lon="7.381110000">
  <ele>1064.599980</ele>
  <time>2012-05-28T13:36:12Z</time>
</trkpt>
<trkpt lat="46.268200000" lon="7.381220000">
  <ele>1064.599980</ele>
  <time>2012-05-28T13:36:15Z</time>
</trkpt>
<trkpt lat="46.268210000" lon="7.381310000">
  <ele>1065.266600</ele>
  <time>2012-05-28T13:36:17Z</time>
</trkpt>
<trkpt lat="46.268220000" lon="7.381350000">
  <ele>1065.599980</ele>
  <time>2012-05-28T13:36:18Z</time>
</trkpt>
<trkpt lat="46.268230000" lon="7.381390000">
  <ele>1065.933350</ele>
  <time>2012-05-28T13:36:19Z</time>
</trkpt>
<trkpt lat="46.268240000" lon="7.381420000">
  <ele>1066.266600</ele>
  <time>2012-05-28T13:36:20Z</time>
</trkpt>
<trkpt lat="46.268250000" lon="7.381460000">
  <ele>1066.599980</ele>
  <time>2012-05-28T13:36:21Z</time>
</trkpt>
<trkpt lat="46.268260000" lon="7.381540000">
  <ele>1066.599980</ele>
  <time>2012-05-28T13:36:23Z</time>
</trkpt>
<trkpt lat="46.268300000" lon="7.381700000">
  <ele>1067.699950</ele>
  <time>2012-05-28T13:36:27Z</time>
</trkpt>
<trkpt lat="46.268310000" lon="7.381740000">
  <ele>1067.974980</ele>
  <time>2012-05-28T13:36:28Z</time>
</trkpt>
<trkpt lat="46.268310000" lon="7.381780000">
  <ele>1068.250000</ele>
  <time>2012-05-28T13:36:29Z</time>
</trkpt>
<trkpt lat="46.268330000" lon="7.381810000">
  <ele>1068.525020</ele>
  <time>2012-05-28T13:36:30Z</time>
</trkpt>
<trkpt lat="46.268330000" lon="7.381860000">
  <ele>1068.800050</ele>
  <time>2012-05-28T13:36:31Z</time>
</trkpt>
<trkpt lat="46.268340000" lon="7.381900000">
  <ele>1068.800050</ele>
  <time>2012-05-28T13:36:32Z</time>
</trkpt>
<trkpt lat="46.268370000" lon="7.382010000">
  <ele>1069.800050</ele>
  <time>2012-05-28T13:36:35Z</time>
</trkpt>
<trkpt lat="46.268380000" lon="7.382050000">
  <ele>1070.133420</ele>
  <time>2012-05-28T13:36:36Z</time>
</trkpt>
<trkpt lat="46.268390000" lon="7.382090000">
  <ele>1070.466670</ele>
  <time>2012-05-28T13:36:37Z</time>
</trkpt>
<trkpt lat="46.268410000" lon="7.382130000">
  <ele>1070.800050</ele>
  <time>2012-05-28T13:36:38Z</time>
</trkpt>
<trkpt lat="46.268430000" lon="7.382200000">
  <ele>1070.800050</ele>
  <time>2012-05-28T13:36:40Z</time>
</trkpt>
<trkpt lat="46.268460000" lon="7.382270000">
  <ele>1071.466670</ele>
  <time>2012-05-28T13:36:42Z</time>
</trkpt>
<trkpt lat="46.268480000" lon="7.382300000">
  <ele>1071.800050</ele>
  <time>2012-05-28T13:36:43Z</time>
</trkpt>
<trkpt lat="46.268490000" lon="7.382340000">
  <ele>1072.133420</ele>
  <time>2012-05-28T13:36:44Z</time>
</trkpt>
<trkpt lat="46.268510000" lon="7.382370000">
  <ele>1072.466670</ele>
  <time>2012-05-28T13:36:45Z</time>
</trkpt>
<trkpt lat="46.268530000" lon="7.382400000">
  <ele>1072.800050</ele>
  <time>2012-05-28T13:36:46Z</time>
</trkpt>
<trkpt lat="46.268570000" lon="7.382470000">
  <ele>1072.800050</ele>
  <time>2012-05-28T13:36:48Z</time>
</trkpt>
<trkpt lat="46.268670000" lon="7.382620000">
  <ele>1074.022220</ele>
  <time>2012-05-28T13:36:53Z</time>
</trkpt>
<trkpt lat="46.268690000" lon="7.382650000">
  <ele>1074.266720</ele>
  <time>2012-05-28T13:36:54Z</time>
</trkpt>
<trkpt lat="46.268710000" lon="7.382670000">
  <ele>1074.511110</ele>
  <time>2012-05-28T13:36:55Z</time>
</trkpt>
<trkpt lat="46.268730000" lon="7.382690000">
  <ele>1074.755620</ele>
  <time>2012-05-28T13:36:56Z</time>
</trkpt>
<trkpt lat="46.268760000" lon="7.382720000">
  <ele>1075.000000</ele>
  <time>2012-05-28T13:36:57Z</time>
</trkpt>
<trkpt lat="46.268870000" lon="7.382840000">
  <ele>1076.222170</ele>
  <time>2012-05-28T13:37:02Z</time>
</trkpt>
<trkpt lat="46.268890000" lon="7.382870000">
  <ele>1076.466670</ele>
  <time>2012-05-28T13:37:03Z</time>
</trkpt>
<trkpt lat="46.268910000" lon="7.382890000">
  <ele>1076.711060</ele>
  <time>2012-05-28T13:37:04Z</time>
</trkpt>
<trkpt lat="46.268940000" lon="7.382910000">
  <ele>1076.955570</ele>
  <time>2012-05-28T13:37:05Z</time>
</trkpt>
<trkpt lat="46.268960000" lon="7.382930000">
  <ele>1077.199950</ele>
  <time>2012-05-28T13:37:06Z</time>
</trkpt>
<trkpt lat="46.269030000" lon="7.383000000">
  <ele>1077.199950</ele>
  <time>2012-05-28T13:37:09Z</time>
</trkpt>
<trkpt lat="46.269100000" lon="7.383080000">
  <ele>1078.142820</ele>
  <time>2012-05-28T13:37:12Z</time>
</trkpt>
<trkpt lat="46.269120000" lon="7.383100000">
  <ele>1078.457150</ele>
  <time>2012-05-28T13:37:13Z</time>
</trkpt>
<trkpt lat="46.269140000" lon="7.383120000">
  <ele>1078.771480</ele>
  <time>2012-05-28T13:37:14Z</time>
</trkpt>
<trkpt lat="46.269170000" lon="7.383140000">
  <ele>1079.085690</ele>
  <time>2012-05-28T13:37:15Z</time>
</trkpt>
<trkpt lat="46.269180000" lon="7.383160000">
  <ele>1079.400020</ele>
  <time>2012-05-28T13:37:16Z</time>
</trkpt>
<trkpt lat="46.269200000" lon="7.383190000">
  <ele>1079.400020</ele>
  <time>2012-05-28T13:37:17Z</time>
</trkpt>
<trkpt lat="46.269290000" lon="7.383290000">
  <ele>1080.400020</ele>
  <time>2012-05-28T13:37:21Z</time>
</trkpt>
<trkpt lat="46.269320000" lon="7.383310000">
  <ele>1080.650020</ele>
  <time>2012-05-28T13:37:22Z</time>
</trkpt>
<trkpt lat="46.269340000" lon="7.383340000">
  <ele>1080.900020</ele>
  <time>2012-05-28T13:37:23Z</time>
</trkpt>
<trkpt lat="46.269360000" lon="7.383360000">
  <ele>1081.150020</ele>
  <time>2012-05-28T13:37:24Z</time>
</trkpt>
<trkpt lat="46.269380000" lon="7.383390000">
  <ele>1081.400020</ele>
  <time>2012-05-28T13:37:25Z</time>
</trkpt>
<trkpt lat="46.269470000" lon="7.383490000">
  <ele>1081.400020</ele>
  <time>2012-05-28T13:37:29Z</time>
</trkpt>
<trkpt lat="46.269490000" lon="7.383520000">
  <ele>1081.800050</ele>
  <time>2012-05-28T13:37:30Z</time>
</trkpt>
<trkpt lat="46.269520000" lon="7.383540000">
  <ele>1082.200070</ele>
  <time>2012-05-28T13:37:31Z</time>
</trkpt>
<trkpt lat="46.269540000" lon="7.383560000">
  <ele>1082.599980</ele>
  <time>2012-05-28T13:37:32Z</time>
</trkpt>
<trkpt lat="46.269560000" lon="7.383590000">
  <ele>1083.000000</ele>
  <time>2012-05-28T13:37:33Z</time>
</trkpt>
<trkpt lat="46.269580000" lon="7.383620000">
  <ele>1083.400020</ele>
  <time>2012-05-28T13:37:34Z</time>
</trkpt>
<trkpt lat="46.269650000" lon="7.383700000">
  <ele>1083.400020</ele>
  <time>2012-05-28T13:37:37Z</time>
</trkpt>
<trkpt lat="46.269700000" lon="7.383750000">
  <ele>1084.133300</ele>
  <time>2012-05-28T13:37:39Z</time>
</trkpt>
<trkpt lat="46.269720000" lon="7.383780000">
  <ele>1084.500000</ele>
  <time>2012-05-28T13:37:40Z</time>
</trkpt>
<trkpt lat="46.269740000" lon="7.383800000">
  <ele>1084.866700</ele>
  <time>2012-05-28T13:37:41Z</time>
</trkpt>
<trkpt lat="46.269770000" lon="7.383830000">
  <ele>1085.233280</ele>
  <time>2012-05-28T13:37:42Z</time>
</trkpt>
<trkpt lat="46.269790000" lon="7.383860000">
  <ele>1085.599980</ele>
  <time>2012-05-28T13:37:43Z</time>
</trkpt>
<trkpt lat="46.269810000" lon="7.383890000">
  <ele>1085.599980</ele>
  <time>2012-05-28T13:37:44Z</time>
</trkpt>
<trkpt lat="46.269880000" lon="7.383940000">
  <ele>1086.381840</ele>
  <time>2012-05-28T13:37:47Z</time>
</trkpt>
<trkpt lat="46.269910000" lon="7.383970000">
  <ele>1086.642460</ele>
  <time>2012-05-28T13:37:48Z</time>
</trkpt>
<trkpt lat="46.269930000" lon="7.383990000">
  <ele>1086.902950</ele>
  <time>2012-05-28T13:37:49Z</time>
</trkpt>
<trkpt lat="46.269950000" lon="7.384020000">
  <ele>1087.163570</ele>
  <time>2012-05-28T13:37:50Z</time>
</trkpt>
<trkpt lat="46.269980000" lon="7.384050000">
  <ele>1087.424190</ele>
  <time>2012-05-28T13:37:51Z</time>
</trkpt>
<trkpt lat="46.270100000" lon="7.384200000">
  <ele>1088.727290</ele>
  <time>2012-05-28T13:37:56Z</time>
</trkpt>
<trkpt lat="46.270120000" lon="7.384230000">
  <ele>1088.987790</ele>
  <time>2012-05-28T13:37:57Z</time>
</trkpt>
<trkpt lat="46.270140000" lon="7.384260000">
  <ele>1089.248410</ele>
  <time>2012-05-28T13:37:58Z</time>
</trkpt>
<trkpt lat="46.270160000" lon="7.384280000">
  <ele>1089.509030</ele>
  <time>2012-05-28T13:37:59Z</time>
</trkpt>
<trkpt lat="46.270180000" lon="7.384310000">
  <ele>1089.769650</ele>
  <time>2012-05-28T13:38:00Z</time>
</trkpt>
<trkpt lat="46.270290000" lon="7.384440000">
  <ele>1091.072630</ele>
  <time>2012-05-28T13:38:05Z</time>
</trkpt>
<trkpt lat="46.270310000" lon="7.384470000">
  <ele>1091.333250</ele>
  <time>2012-05-28T13:38:06Z</time>
</trkpt>
<trkpt lat="46.270340000" lon="7.384500000">
  <ele>1091.593870</ele>
  <time>2012-05-28T13:38:07Z</time>
</trkpt>
<trkpt lat="46.270360000" lon="7.384530000">
  <ele>1091.854490</ele>
  <time>2012-05-28T13:38:08Z</time>
</trkpt>
<trkpt lat="46.270370000" lon="7.384560000">
  <ele>1092.115110</ele>
  <time>2012-05-28T13:38:09Z</time>
</trkpt>
<trkpt lat="46.270450000" lon="7.384680000">
  <ele>1093.157470</ele>
  <time>2012-05-28T13:38:13Z</time>
</trkpt>
<trkpt lat="46.270470000" lon="7.384710000">
  <ele>1093.418090</ele>
  <time>2012-05-28T13:38:14Z</time>
</trkpt>
<trkpt lat="46.270480000" lon="7.384740000">
  <ele>1093.678710</ele>
  <time>2012-05-28T13:38:15Z</time>
</trkpt>
<trkpt lat="46.270500000" lon="7.384770000">
  <ele>1093.939330</ele>
  <time>2012-05-28T13:38:16Z</time>
</trkpt>
<trkpt lat="46.270520000" lon="7.384800000">
  <ele>1094.199950</ele>
  <time>2012-05-28T13:38:17Z</time>
</trkpt>
<trkpt lat="46.270540000" lon="7.384820000">
  <ele>1094.199950</ele>
  <time>2012-05-28T13:38:18Z</time>
</trkpt>
<trkpt lat="46.270610000" lon="7.384900000">
  <ele>1094.933350</ele>
  <time>2012-05-28T13:38:21Z</time>
</trkpt>
<trkpt lat="46.270660000" lon="7.384930000">
  <ele>1095.422240</ele>
  <time>2012-05-28T13:38:23Z</time>
</trkpt>
<trkpt lat="46.270690000" lon="7.384930000">
  <ele>1095.666630</ele>
  <time>2012-05-28T13:38:24Z</time>
</trkpt>
<trkpt lat="46.270720000" lon="7.384920000">
  <ele>1095.911130</ele>
  <time>2012-05-28T13:38:25Z</time>
</trkpt>
<trkpt lat="46.270750000" lon="7.384910000">
  <ele>1096.155520</ele>
  <time>2012-05-28T13:38:26Z</time>
</trkpt>
<trkpt lat="46.270770000" lon="7.384880000">
  <ele>1096.400020</ele>
  <time>2012-05-28T13:38:27Z</time>
</trkpt>
<trkpt lat="46.270800000" lon="7.384860000">
  <ele>1096.400020</ele>
  <time>2012-05-28T13:38:28Z</time>
</trkpt>
<trkpt lat="46.270830000" lon="7.384660000">
  <ele>1097.047120</ele>
  <time>2012-05-28T13:38:33Z</time>
</trkpt>
<trkpt lat="46.270840000" lon="7.384300000">
  <ele>1098.082400</ele>
  <time>2012-05-28T13:38:41Z</time>
</trkpt>
<trkpt lat="46.270840000" lon="7.384250000">
  <ele>1098.211790</ele>
  <time>2012-05-28T13:38:42Z</time>
</trkpt>
<trkpt lat="46.270840000" lon="7.384200000">
  <ele>1098.341190</ele>
  <time>2012-05-28T13:38:43Z</time>
</trkpt>
<trkpt lat="46.270840000" lon="7.384150000">
  <ele>1098.470580</ele>
  <time>2012-05-28T13:38:44Z</time>
</trkpt>
<trkpt lat="46.270840000" lon="7.384110000">
  <ele>1098.599980</ele>
  <time>2012-05-28T13:38:45Z</time>
</trkpt>
<trkpt lat="46.270850000" lon="7.384020000">
  <ele>1098.599980</ele>
  <time>2012-05-28T13:38:47Z</time>
</trkpt>
<trkpt lat="46.270900000" lon="7.383850000">
  <ele>1099.899900</ele>
  <time>2012-05-28T13:38:51Z</time>
</trkpt>
<trkpt lat="46.270920000" lon="7.383810000">
  <ele>1100.224980</ele>
  <time>2012-05-28T13:38:52Z</time>
</trkpt>
<trkpt lat="46.270940000" lon="7.383770000">
  <ele>1100.549930</ele>
  <time>2012-05-28T13:38:53Z</time>
</trkpt>
<trkpt lat="46.270960000" lon="7.383730000">
  <ele>1100.875000</ele>
  <time>2012-05-28T13:38:54Z</time>
</trkpt>
<trkpt lat="46.270980000" lon="7.383700000">
  <ele>1101.199950</ele>
  <time>2012-05-28T13:38:55Z</time>
</trkpt>
<trkpt lat="46.271010000" lon="7.383620000">
  <ele>1101.199950</ele>
  <time>2012-05-28T13:38:57Z</time>
</trkpt>
<trkpt lat="46.271060000" lon="7.383490000">
  <ele>1102.086910</ele>
  <time>2012-05-28T13:39:00Z</time>
</trkpt>
<trkpt lat="46.271080000" lon="7.383450000">
  <ele>1102.382570</ele>
  <time>2012-05-28T13:39:01Z</time>
</trkpt>
<trkpt lat="46.271100000" lon="7.383420000">
  <ele>1102.678220</ele>
  <time>2012-05-28T13:39:02Z</time>
</trkpt>
<trkpt lat="46.271120000" lon="7.383380000">
  <ele>1102.973880</ele>
  <time>2012-05-28T13:39:03Z</time>
</trkpt>
<trkpt lat="46.271140000" lon="7.383350000">
  <ele>1103.269530</ele>
  <time>2012-05-28T13:39:04Z</time>
</trkpt>
<trkpt lat="46.271240000" lon="7.383170000">
  <ele>1104.747800</ele>
  <time>2012-05-28T13:39:09Z</time>
</trkpt>
<trkpt lat="46.271260000" lon="7.383140000">
  <ele>1105.043460</ele>
  <time>2012-05-28T13:39:10Z</time>
</trkpt>
<trkpt lat="46.271260000" lon="7.383100000">
  <ele>1105.339110</ele>
  <time>2012-05-28T13:39:11Z</time>
</trkpt>
<trkpt lat="46.271280000" lon="7.383060000">
  <ele>1105.634770</ele>
  <time>2012-05-28T13:39:12Z</time>
</trkpt>
<trkpt lat="46.271290000" lon="7.383020000">
  <ele>1105.930420</ele>
  <time>2012-05-28T13:39:13Z</time>
</trkpt>
<trkpt lat="46.271340000" lon="7.382890000">
  <ele>1106.817380</ele>
  <time>2012-05-28T13:39:16Z</time>
</trkpt>
<trkpt lat="46.271350000" lon="7.382850000">
  <ele>1107.113040</ele>
  <time>2012-05-28T13:39:17Z</time>
</trkpt>
<trkpt lat="46.271360000" lon="7.382800000">
  <ele>1107.408690</ele>
  <time>2012-05-28T13:39:18Z</time>
</trkpt>
<trkpt lat="46.271370000" lon="7.382750000">
  <ele>1107.704350</ele>
  <time>2012-05-28T13:39:19Z</time>
</trkpt>
<trkpt lat="46.271370000" lon="7.382710000">
  <ele>1108.000000</ele>
  <time>2012-05-28T13:39:20Z</time>
</trkpt>
<trkpt lat="46.271380000" lon="7.382620000">
  <ele>1108.000000</ele>
  <time>2012-05-28T13:39:22Z</time>
</trkpt>
<trkpt lat="46.271390000" lon="7.382550000">
  <ele>1108.573850</ele>
  <time>2012-05-28T13:39:24Z</time>
</trkpt>
<trkpt lat="46.271400000" lon="7.382510000">
  <ele>1108.860840</ele>
  <time>2012-05-28T13:39:25Z</time>
</trkpt>
<trkpt lat="46.271400000" lon="7.382460000">
  <ele>1109.147830</ele>
  <time>2012-05-28T13:39:26Z</time>
</trkpt>
<trkpt lat="46.271400000" lon="7.382420000">
  <ele>1109.434810</ele>
  <time>2012-05-28T13:39:27Z</time>
</trkpt>
<trkpt lat="46.271400000" lon="7.382380000">
  <ele>1109.721680</ele>
  <time>2012-05-28T13:39:28Z</time>
</trkpt>
<trkpt lat="46.271410000" lon="7.382240000">
  <ele>1110.869510</ele>
  <time>2012-05-28T13:39:32Z</time>
</trkpt>
<trkpt lat="46.271410000" lon="7.382200000">
  <ele>1111.156490</ele>
  <time>2012-05-28T13:39:33Z</time>
</trkpt>
<trkpt lat="46.271410000" lon="7.382160000">
  <ele>1111.443480</ele>
  <time>2012-05-28T13:39:34Z</time>
</trkpt>
<trkpt lat="46.271420000" lon="7.382130000">
  <ele>1111.730470</ele>
  <time>2012-05-28T13:39:35Z</time>
</trkpt>
<trkpt lat="46.271420000" lon="7.382090000">
  <ele>1112.017330</ele>
  <time>2012-05-28T13:39:36Z</time>
</trkpt>
<trkpt lat="46.271460000" lon="7.381910000">
  <ele>1113.452150</ele>
  <time>2012-05-28T13:39:41Z</time>
</trkpt>
<trkpt lat="46.271470000" lon="7.381870000">
  <ele>1113.739140</ele>
  <time>2012-05-28T13:39:42Z</time>
</trkpt>
<trkpt lat="46.271470000" lon="7.381840000">
  <ele>1114.026120</ele>
  <time>2012-05-28T13:39:43Z</time>
</trkpt>
<trkpt lat="46.271480000" lon="7.381800000">
  <ele>1114.312990</ele>
  <time>2012-05-28T13:39:44Z</time>
</trkpt>
<trkpt lat="46.271490000" lon="7.381760000">
  <ele>1114.599980</ele>
  <time>2012-05-28T13:39:45Z</time>
</trkpt>
<trkpt lat="46.271530000" lon="7.381670000">
  <ele>1114.599980</ele>
  <time>2012-05-28T13:39:48Z</time>
</trkpt>
<trkpt lat="46.271540000" lon="7.381630000">
  <ele>1115.000000</ele>
  <time>2012-05-28T13:39:49Z</time>
</trkpt>
<trkpt lat="46.271550000" lon="7.381600000">
  <ele>1115.400020</ele>
  <time>2012-05-28T13:39:50Z</time>
</trkpt>
<trkpt lat="46.271560000" lon="7.381570000">
  <ele>1115.799930</ele>
  <time>2012-05-28T13:39:51Z</time>
</trkpt>
<trkpt lat="46.271580000" lon="7.381540000">
  <ele>1116.199950</ele>
  <time>2012-05-28T13:39:52Z</time>
</trkpt>
<trkpt lat="46.271590000" lon="7.381510000">
  <ele>1116.599980</ele>
  <time>2012-05-28T13:39:53Z</time>
</trkpt>
<trkpt lat="46.271640000" lon="7.381360000">
  <ele>1116.599980</ele>
  <time>2012-05-28T13:39:57Z</time>
</trkpt>
<trkpt lat="46.271650000" lon="7.381330000">
  <ele>1117.000000</ele>
  <time>2012-05-28T13:39:58Z</time>
</trkpt>
<trkpt lat="46.271670000" lon="7.381300000">
  <ele>1117.400020</ele>
  <time>2012-05-28T13:39:59Z</time>
</trkpt>
<trkpt lat="46.271680000" lon="7.381260000">
  <ele>1117.799930</ele>
  <time>2012-05-28T13:40:00Z</time>
</trkpt>
<trkpt lat="46.271700000" lon="7.381230000">
  <ele>1118.199950</ele>
  <time>2012-05-28T13:40:01Z</time>
</trkpt>
<trkpt lat="46.271720000" lon="7.381190000">
  <ele>1118.599980</ele>
  <time>2012-05-28T13:40:02Z</time>
</trkpt>
<trkpt lat="46.271760000" lon="7.381110000">
  <ele>1118.599980</ele>
  <time>2012-05-28T13:40:04Z</time>
</trkpt>
<trkpt lat="46.271870000" lon="7.380970000">
  <ele>1119.461060</ele>
  <time>2012-05-28T13:40:09Z</time>
</trkpt>
<trkpt lat="46.271930000" lon="7.380780000">
  <ele>1120.322270</ele>
  <time>2012-05-28T13:40:14Z</time>
</trkpt>
<trkpt lat="46.271960000" lon="7.380690000">
  <ele>1120.666630</ele>
  <time>2012-05-28T13:40:16Z</time>
</trkpt>
<trkpt lat="46.271980000" lon="7.380650000">
  <ele>1120.838870</ele>
  <time>2012-05-28T13:40:17Z</time>
</trkpt>
<trkpt lat="46.272000000" lon="7.380610000">
  <ele>1121.011110</ele>
  <time>2012-05-28T13:40:18Z</time>
</trkpt>
<trkpt lat="46.272010000" lon="7.380570000">
  <ele>1121.183350</ele>
  <time>2012-05-28T13:40:19Z</time>
</trkpt>
<trkpt lat="46.272030000" lon="7.380540000">
  <ele>1121.355590</ele>
  <time>2012-05-28T13:40:20Z</time>
</trkpt>
<trkpt lat="46.272140000" lon="7.380320000">
  <ele>1122.561160</ele>
  <time>2012-05-28T13:40:27Z</time>
</trkpt>
<trkpt lat="46.272160000" lon="7.380290000">
  <ele>1122.733400</ele>
  <time>2012-05-28T13:40:28Z</time>
</trkpt>
<trkpt lat="46.272180000" lon="7.380260000">
  <ele>1122.905640</ele>
  <time>2012-05-28T13:40:29Z</time>
</trkpt>
<trkpt lat="46.272190000" lon="7.380220000">
  <ele>1123.077760</ele>
  <time>2012-05-28T13:40:30Z</time>
</trkpt>
<trkpt lat="46.272210000" lon="7.380190000">
  <ele>1123.250000</ele>
  <time>2012-05-28T13:40:31Z</time>
</trkpt>
<trkpt lat="46.272280000" lon="7.380030000">
  <ele>1124.111210</ele>
  <time>2012-05-28T13:40:36Z</time>
</trkpt>
<trkpt lat="46.272290000" lon="7.379990000">
  <ele>1124.283330</ele>
  <time>2012-05-28T13:40:37Z</time>
</trkpt>
<trkpt lat="46.272300000" lon="7.379960000">
  <ele>1124.455570</ele>
  <time>2012-05-28T13:40:38Z</time>
</trkpt>
<trkpt lat="46.272310000" lon="7.379920000">
  <ele>1124.627810</ele>
  <time>2012-05-28T13:40:39Z</time>
</trkpt>
<trkpt lat="46.272320000" lon="7.379890000">
  <ele>1124.800050</ele>
  <time>2012-05-28T13:40:40Z</time>
</trkpt>
<trkpt lat="46.272350000" lon="7.379700000">
  <ele>1124.800050</ele>
  <time>2012-05-28T13:40:45Z</time>
</trkpt>
<trkpt lat="46.272360000" lon="7.379660000">
  <ele>1125.239990</ele>
  <time>2012-05-28T13:40:46Z</time>
</trkpt>
<trkpt lat="46.272360000" lon="7.379620000">
  <ele>1125.680050</ele>
  <time>2012-05-28T13:40:47Z</time>
</trkpt>
<trkpt lat="46.272360000" lon="7.379590000">
  <ele>1126.120000</ele>
  <time>2012-05-28T13:40:48Z</time>
</trkpt>
<trkpt lat="46.272360000" lon="7.379550000">
  <ele>1126.560060</ele>
  <time>2012-05-28T13:40:49Z</time>
</trkpt>
<trkpt lat="46.272370000" lon="7.379510000">
  <ele>1127.000000</ele>
  <time>2012-05-28T13:40:50Z</time>
</trkpt>
<trkpt lat="46.272370000" lon="7.379390000">
  <ele>1127.000000</ele>
  <time>2012-05-28T13:40:53Z</time>
</trkpt>
<trkpt lat="46.272380000" lon="7.379240000">
  <ele>1128.066650</ele>
  <time>2012-05-28T13:40:57Z</time>
</trkpt>
<trkpt lat="46.272390000" lon="7.379200000">
  <ele>1128.333370</ele>
  <time>2012-05-28T13:40:58Z</time>
</trkpt>
<trkpt lat="46.272400000" lon="7.379160000">
  <ele>1128.599980</ele>
  <time>2012-05-28T13:40:59Z</time>
</trkpt>
<trkpt lat="46.272400000" lon="7.379120000">
  <ele>1128.866700</ele>
  <time>2012-05-28T13:41:00Z</time>
</trkpt>
<trkpt lat="46.272410000" lon="7.379090000">
  <ele>1129.133300</ele>
  <time>2012-05-28T13:41:01Z</time>
</trkpt>
<trkpt lat="46.272450000" lon="7.378950000">
  <ele>1130.199950</ele>
  <time>2012-05-28T13:41:05Z</time>
</trkpt>
<trkpt lat="46.272470000" lon="7.378920000">
  <ele>1130.466670</ele>
  <time>2012-05-28T13:41:06Z</time>
</trkpt>
<trkpt lat="46.272480000" lon="7.378890000">
  <ele>1130.733400</ele>
  <time>2012-05-28T13:41:07Z</time>
</trkpt>
<trkpt lat="46.272500000" lon="7.378860000">
  <ele>1131.000000</ele>
  <time>2012-05-28T13:41:08Z</time>
</trkpt>
<trkpt lat="46.272520000" lon="7.378830000">
  <ele>1131.266720</ele>
  <time>2012-05-28T13:41:09Z</time>
</trkpt>
<trkpt lat="46.272590000" lon="7.378720000">
  <ele>1132.333370</ele>
  <time>2012-05-28T13:41:13Z</time>
</trkpt>
<trkpt lat="46.272610000" lon="7.378690000">
  <ele>1132.599980</ele>
  <time>2012-05-28T13:41:14Z</time>
</trkpt>
<trkpt lat="46.272630000" lon="7.378670000">
  <ele>1132.866700</ele>
  <time>2012-05-28T13:41:15Z</time>
</trkpt>
<trkpt lat="46.272650000" lon="7.378650000">
  <ele>1133.133300</ele>
  <time>2012-05-28T13:41:16Z</time>
</trkpt>
<trkpt lat="46.272670000" lon="7.378620000">
  <ele>1133.400020</ele>
  <time>2012-05-28T13:41:17Z</time>
</trkpt>
<trkpt lat="46.272770000" lon="7.378560000">
  <ele>1133.400020</ele>
  <time>2012-05-28T13:41:21Z</time>
</trkpt>
<trkpt lat="46.272820000" lon="7.378540000">
  <ele>1134.066650</ele>
  <time>2012-05-28T13:41:23Z</time>
</trkpt>
<trkpt lat="46.272850000" lon="7.378530000">
  <ele>1134.400020</ele>
  <time>2012-05-28T13:41:24Z</time>
</trkpt>
<trkpt lat="46.272880000" lon="7.378520000">
  <ele>1134.733400</ele>
  <time>2012-05-28T13:41:25Z</time>
</trkpt>
<trkpt lat="46.272900000" lon="7.378510000">
  <ele>1135.066650</ele>
  <time>2012-05-28T13:41:26Z</time>
</trkpt>
<trkpt lat="46.272930000" lon="7.378500000">
  <ele>1135.400020</ele>
  <time>2012-05-28T13:41:27Z</time>
</trkpt>
<trkpt lat="46.272950000" lon="7.378500000">
  <ele>1135.400020</ele>
  <time>2012-05-28T13:41:28Z</time>
</trkpt>
<trkpt lat="46.273050000" lon="7.378490000">
  <ele>1136.373900</ele>
  <time>2012-05-28T13:41:32Z</time>
</trkpt>
<trkpt lat="46.273080000" lon="7.378480000">
  <ele>1136.617430</ele>
  <time>2012-05-28T13:41:33Z</time>
</trkpt>
<trkpt lat="46.273100000" lon="7.378480000">
  <ele>1136.860840</ele>
  <time>2012-05-28T13:41:34Z</time>
</trkpt>
<trkpt lat="46.273120000" lon="7.378470000">
  <ele>1137.104370</ele>
  <time>2012-05-28T13:41:35Z</time>
</trkpt>
<trkpt lat="46.273220000" lon="7.378460000">
  <ele>1138.078250</ele>
  <time>2012-05-28T13:41:39Z</time>
</trkpt>
<trkpt lat="46.273250000" lon="7.378460000">
  <ele>1138.321780</ele>
  <time>2012-05-28T13:41:40Z</time>
</trkpt>
<trkpt lat="46.273280000" lon="7.378460000">
  <ele>1138.565190</ele>
  <time>2012-05-28T13:41:41Z</time>
</trkpt>
<trkpt lat="46.273310000" lon="7.378460000">
  <ele>1138.808720</ele>
  <time>2012-05-28T13:41:42Z</time>
</trkpt>
<trkpt lat="46.273330000" lon="7.378450000">
  <ele>1139.052120</ele>
  <time>2012-05-28T13:41:43Z</time>
</trkpt>
<trkpt lat="46.273480000" lon="7.378420000">
  <ele>1140.513060</ele>
  <time>2012-05-28T13:41:49Z</time>
</trkpt>
<trkpt lat="46.273510000" lon="7.378420000">
  <ele>1140.756470</ele>
  <time>2012-05-28T13:41:50Z</time>
</trkpt>
<trkpt lat="46.273530000" lon="7.378410000">
  <ele>1141.000000</ele>
  <time>2012-05-28T13:41:51Z</time>
</trkpt>
<trkpt lat="46.273550000" lon="7.378400000">
  <ele>1141.243530</ele>
  <time>2012-05-28T13:41:52Z</time>
</trkpt>
<trkpt lat="46.273580000" lon="7.378400000">
  <ele>1141.486940</ele>
  <time>2012-05-28T13:41:53Z</time>
</trkpt>
<trkpt lat="46.273710000" lon="7.378360000">
  <ele>1142.704350</ele>
  <time>2012-05-28T13:41:58Z</time>
</trkpt>
<trkpt lat="46.273730000" lon="7.378340000">
  <ele>1142.947880</ele>
  <time>2012-05-28T13:41:59Z</time>
</trkpt>
<trkpt lat="46.273750000" lon="7.378330000">
  <ele>1143.191280</ele>
  <time>2012-05-28T13:42:00Z</time>
</trkpt>
<trkpt lat="46.273780000" lon="7.378320000">
  <ele>1143.434810</ele>
  <time>2012-05-28T13:42:01Z</time>
</trkpt>
<trkpt lat="46.273930000" lon="7.378210000">
  <ele>1144.895630</ele>
  <time>2012-05-28T13:42:07Z</time>
</trkpt>
<trkpt lat="46.273950000" lon="7.378190000">
  <ele>1145.139160</ele>
  <time>2012-05-28T13:42:08Z</time>
</trkpt>
<trkpt lat="46.273980000" lon="7.378160000">
  <ele>1145.382570</ele>
  <time>2012-05-28T13:42:09Z</time>
</trkpt>
<trkpt lat="46.274000000" lon="7.378130000">
  <ele>1145.626100</ele>
  <time>2012-05-28T13:42:10Z</time>
</trkpt>
<trkpt lat="46.274010000" lon="7.378110000">
  <ele>1145.869510</ele>
  <time>2012-05-28T13:42:11Z</time>
</trkpt>
<trkpt lat="46.274110000" lon="7.377960000">
  <ele>1147.086910</ele>
  <time>2012-05-28T13:42:16Z</time>
</trkpt>
<trkpt lat="46.274120000" lon="7.377930000">
  <ele>1147.330440</ele>
  <time>2012-05-28T13:42:17Z</time>
</trkpt>
<trkpt lat="46.274140000" lon="7.377900000">
  <ele>1147.573850</ele>
  <time>2012-05-28T13:42:18Z</time>
</trkpt>
<trkpt lat="46.274160000" lon="7.377860000">
  <ele>1147.817380</ele>
  <time>2012-05-28T13:42:19Z</time>
</trkpt>
<trkpt lat="46.274170000" lon="7.377830000">
  <ele>1148.060790</ele>
  <time>2012-05-28T13:42:20Z</time>
</trkpt>
<trkpt lat="46.274230000" lon="7.377630000">
  <ele>1149.278200</ele>
  <time>2012-05-28T13:42:25Z</time>
</trkpt>
<trkpt lat="46.274240000" lon="7.377590000">
  <ele>1149.521730</ele>
  <time>2012-05-28T13:42:26Z</time>
</trkpt>
<trkpt lat="46.274250000" lon="7.377560000">
  <ele>1149.765140</ele>
  <time>2012-05-28T13:42:27Z</time>
</trkpt>
<trkpt lat="46.274260000" lon="7.377520000">
  <ele>1150.008670</ele>
  <time>2012-05-28T13:42:28Z</time>
</trkpt>
<trkpt lat="46.274270000" lon="7.377480000">
  <ele>1150.252080</ele>
  <time>2012-05-28T13:42:29Z</time>
</trkpt>
<trkpt lat="46.274330000" lon="7.377340000">
  <ele>1151.226070</ele>
  <time>2012-05-28T13:42:33Z</time>
</trkpt>
<trkpt lat="46.274350000" lon="7.377300000">
  <ele>1151.469480</ele>
  <time>2012-05-28T13:42:34Z</time>
</trkpt>
<trkpt lat="46.274360000" lon="7.377260000">
  <ele>1151.713010</ele>
  <time>2012-05-28T13:42:35Z</time>
</trkpt>
<trkpt lat="46.274390000" lon="7.377230000">
  <ele>1151.956420</ele>
  <time>2012-05-28T13:42:36Z</time>
</trkpt>
<trkpt lat="46.274410000" lon="7.377200000">
  <ele>1152.199950</ele>
  <time>2012-05-28T13:42:37Z</time>
</trkpt>
<trkpt lat="46.274490000" lon="7.377110000">
  <ele>1152.199950</ele>
  <time>2012-05-28T13:42:41Z</time>
</trkpt>
<trkpt lat="46.274520000" lon="7.377090000">
  <ele>1152.599980</ele>
  <time>2012-05-28T13:42:42Z</time>
</trkpt>
<trkpt lat="46.274540000" lon="7.377080000">
  <ele>1153.000000</ele>
  <time>2012-05-28T13:42:43Z</time>
</trkpt>
<trkpt lat="46.274560000" lon="7.377060000">
  <ele>1153.399900</ele>
  <time>2012-05-28T13:42:44Z</time>
</trkpt>
<trkpt lat="46.274590000" lon="7.377040000">
  <ele>1153.799930</ele>
  <time>2012-05-28T13:42:45Z</time>
</trkpt>
<trkpt lat="46.274610000" lon="7.377030000">
  <ele>1154.199950</ele>
  <time>2012-05-28T13:42:46Z</time>
</trkpt>
<trkpt lat="46.274650000" lon="7.377000000">
  <ele>1154.199950</ele>
  <time>2012-05-28T13:42:48Z</time>
</trkpt>
<trkpt lat="46.274680000" lon="7.376990000">
  <ele>1154.523070</ele>
  <time>2012-05-28T13:42:49Z</time>
</trkpt>
<trkpt lat="46.274700000" lon="7.376990000">
  <ele>1154.846070</ele>
  <time>2012-05-28T13:42:50Z</time>
</trkpt>
<trkpt lat="46.274730000" lon="7.376980000">
  <ele>1155.169190</ele>
  <time>2012-05-28T13:42:51Z</time>
</trkpt>
<trkpt lat="46.274750000" lon="7.376980000">
  <ele>1155.492310</ele>
  <time>2012-05-28T13:42:52Z</time>
</trkpt>
<trkpt lat="46.274780000" lon="7.376980000">
  <ele>1155.815310</ele>
  <time>2012-05-28T13:42:53Z</time>
</trkpt>
<trkpt lat="46.274890000" lon="7.376970000">
  <ele>1157.107670</ele>
  <time>2012-05-28T13:42:57Z</time>
</trkpt>
<trkpt lat="46.274910000" lon="7.376970000">
  <ele>1157.430790</ele>
  <time>2012-05-28T13:42:58Z</time>
</trkpt>
<trkpt lat="46.274940000" lon="7.376980000">
  <ele>1157.753910</ele>
  <time>2012-05-28T13:42:59Z</time>
</trkpt>
<trkpt lat="46.274960000" lon="7.376980000">
  <ele>1158.076900</ele>
  <time>2012-05-28T13:43:00Z</time>
</trkpt>
<trkpt lat="46.274990000" lon="7.376980000">
  <ele>1158.400020</ele>
  <time>2012-05-28T13:43:01Z</time>
</trkpt>
<trkpt lat="46.275130000" lon="7.377010000">
  <ele>1158.400020</ele>
  <time>2012-05-28T13:43:06Z</time>
</trkpt>
<trkpt lat="46.275180000" lon="7.377020000">
  <ele>1159.133300</ele>
  <time>2012-05-28T13:43:08Z</time>
</trkpt>
<trkpt lat="46.275200000" lon="7.377020000">
  <ele>1159.500000</ele>
  <time>2012-05-28T13:43:09Z</time>
</trkpt>
<trkpt lat="46.275220000" lon="7.377030000">
  <ele>1159.866700</ele>
  <time>2012-05-28T13:43:10Z</time>
</trkpt>
<trkpt lat="46.275250000" lon="7.377030000">
  <ele>1160.233280</ele>
  <time>2012-05-28T13:43:11Z</time>
</trkpt>
<trkpt lat="46.275270000" lon="7.377040000">
  <ele>1160.599980</ele>
  <time>2012-05-28T13:43:12Z</time>
</trkpt>
<trkpt lat="46.275340000" lon="7.377050000">
  <ele>1160.599980</ele>
  <time>2012-05-28T13:43:15Z</time>
</trkpt>
<trkpt lat="46.275400000" lon="7.377070000">
  <ele>1161.333370</ele>
  <time>2012-05-28T13:43:17Z</time>
</trkpt>
<trkpt lat="46.275420000" lon="7.377070000">
  <ele>1161.699950</ele>
  <time>2012-05-28T13:43:18Z</time>
</trkpt>
<trkpt lat="46.275440000" lon="7.377080000">
  <ele>1162.066650</ele>
  <time>2012-05-28T13:43:19Z</time>
</trkpt>
<trkpt lat="46.275470000" lon="7.377080000">
  <ele>1162.433350</ele>
  <time>2012-05-28T13:43:20Z</time>
</trkpt>
<trkpt lat="46.275490000" lon="7.377090000">
  <ele>1162.800050</ele>
  <time>2012-05-28T13:43:21Z</time>
</trkpt>
<trkpt lat="46.275520000" lon="7.377100000">
  <ele>1162.800050</ele>
  <time>2012-05-28T13:43:22Z</time>
</trkpt>
<trkpt lat="46.275640000" lon="7.377130000">
  <ele>1164.022220</ele>
  <time>2012-05-28T13:43:27Z</time>
</trkpt>
<trkpt lat="46.275670000" lon="7.377130000">
  <ele>1164.266720</ele>
  <time>2012-05-28T13:43:28Z</time>
</trkpt>
<trkpt lat="46.275700000" lon="7.377130000">
  <ele>1164.511110</ele>
  <time>2012-05-28T13:43:29Z</time>
</trkpt>
<trkpt lat="46.275720000" lon="7.377130000">
  <ele>1164.755620</ele>
  <time>2012-05-28T13:43:30Z</time>
</trkpt>
<trkpt lat="46.275750000" lon="7.377140000">
  <ele>1165.000000</ele>
  <time>2012-05-28T13:43:31Z</time>
</trkpt>
<trkpt lat="46.275900000" lon="7.377170000">
  <ele>1165.000000</ele>
  <time>2012-05-28T13:43:37Z</time>
</trkpt>
<trkpt lat="46.275930000" lon="7.377170000">
  <ele>1165.500000</ele>
  <time>2012-05-28T13:43:38Z</time>
</trkpt>
<trkpt lat="46.275960000" lon="7.377170000">
  <ele>1166.000000</ele>
  <time>2012-05-28T13:43:39Z</time>
</trkpt>
<trkpt lat="46.275980000" lon="7.377170000">
  <ele>1166.500000</ele>
  <time>2012-05-28T13:43:40Z</time>
</trkpt>
<trkpt lat="46.276010000" lon="7.377170000">
  <ele>1167.000000</ele>
  <time>2012-05-28T13:43:41Z</time>
</trkpt>
<trkpt lat="46.276110000" lon="7.377150000">
  <ele>1167.000000</ele>
  <time>2012-05-28T13:43:45Z</time>
</trkpt>
<trkpt lat="46.276190000" lon="7.377120000">
  <ele>1167.741210</ele>
  <time>2012-05-28T13:43:48Z</time>
</trkpt>
<trkpt lat="46.276220000" lon="7.377110000">
  <ele>1167.988280</ele>
  <time>2012-05-28T13:43:49Z</time>
</trkpt>
<trkpt lat="46.276240000" lon="7.377090000">
  <ele>1168.235230</ele>
  <time>2012-05-28T13:43:50Z</time>
</trkpt>
<trkpt lat="46.276260000" lon="7.377080000">
  <ele>1168.482300</ele>
  <time>2012-05-28T13:43:51Z</time>
</trkpt>
<trkpt lat="46.276290000" lon="7.377060000">
  <ele>1168.729370</ele>
  <time>2012-05-28T13:43:52Z</time>
</trkpt>
<trkpt lat="46.276410000" lon="7.376910000">
  <ele>1170.211670</ele>
  <time>2012-05-28T13:43:58Z</time>
</trkpt>
<trkpt lat="46.276420000" lon="7.376880000">
  <ele>1170.458740</ele>
  <time>2012-05-28T13:43:59Z</time>
</trkpt>
<trkpt lat="46.276450000" lon="7.376840000">
  <ele>1170.705810</ele>
  <time>2012-05-28T13:44:00Z</time>
</trkpt>
<trkpt lat="46.276460000" lon="7.376810000">
  <ele>1170.952880</ele>
  <time>2012-05-28T13:44:01Z</time>
</trkpt>
<trkpt lat="46.276480000" lon="7.376780000">
  <ele>1171.199950</ele>
  <time>2012-05-28T13:44:02Z</time>
</trkpt>
<trkpt lat="46.276520000" lon="7.376680000">
  <ele>1171.199950</ele>
  <time>2012-05-28T13:44:05Z</time>
</trkpt>
<trkpt lat="46.276540000" lon="7.376610000">
  <ele>1171.866580</ele>
  <time>2012-05-28T13:44:07Z</time>
</trkpt>
<trkpt lat="46.276550000" lon="7.376570000">
  <ele>1172.199950</ele>
  <time>2012-05-28T13:44:08Z</time>
</trkpt>
<trkpt lat="46.276570000" lon="7.376530000">
  <ele>1172.533330</ele>
  <time>2012-05-28T13:44:09Z</time>
</trkpt>
<trkpt lat="46.276580000" lon="7.376500000">
  <ele>1172.866580</ele>
  <time>2012-05-28T13:44:10Z</time>
</trkpt>
<trkpt lat="46.276600000" lon="7.376450000">
  <ele>1173.199950</ele>
  <time>2012-05-28T13:44:11Z</time>
</trkpt>
<trkpt lat="46.276610000" lon="7.376420000">
  <ele>1173.199950</ele>
  <time>2012-05-28T13:44:12Z</time>
</trkpt>
<trkpt lat="46.276680000" lon="7.376210000">
  <ele>1174.520020</ele>
  <time>2012-05-28T13:44:18Z</time>
</trkpt>
<trkpt lat="46.276690000" lon="7.376170000">
  <ele>1174.739990</ele>
  <time>2012-05-28T13:44:19Z</time>
</trkpt>
<trkpt lat="46.276710000" lon="7.376130000">
  <ele>1174.959960</ele>
  <time>2012-05-28T13:44:20Z</time>
</trkpt>
<trkpt lat="46.276720000" lon="7.376090000">
  <ele>1175.180050</ele>
  <time>2012-05-28T13:44:21Z</time>
</trkpt>
<trkpt lat="46.276740000" lon="7.376070000">
  <ele>1175.400020</ele>
  <time>2012-05-28T13:44:22Z</time>
</trkpt>
<trkpt lat="46.276800000" lon="7.375980000">
  <ele>1175.400020</ele>
  <time>2012-05-28T13:44:25Z</time>
</trkpt>
<trkpt lat="46.276880000" lon="7.375970000">
  <ele>1176.342900</ele>
  <time>2012-05-28T13:44:28Z</time>
</trkpt>
<trkpt lat="46.276910000" lon="7.375980000">
  <ele>1176.657100</ele>
  <time>2012-05-28T13:44:29Z</time>
</trkpt>
<trkpt lat="46.276930000" lon="7.376000000">
  <ele>1176.971440</ele>
  <time>2012-05-28T13:44:30Z</time>
</trkpt>
<trkpt lat="46.276950000" lon="7.376030000">
  <ele>1177.285640</ele>
  <time>2012-05-28T13:44:31Z</time>
</trkpt>
<trkpt lat="46.276970000" lon="7.376060000">
  <ele>1177.599980</ele>
  <time>2012-05-28T13:44:32Z</time>
</trkpt>
<trkpt lat="46.276970000" lon="7.376090000">
  <ele>1177.599980</ele>
  <time>2012-05-28T13:44:33Z</time>
</trkpt>
<trkpt lat="46.276970000" lon="7.376230000">
  <ele>1178.599980</ele>
  <time>2012-05-28T13:44:37Z</time>
</trkpt>
<trkpt lat="46.276970000" lon="7.376270000">
  <ele>1178.849980</ele>
  <time>2012-05-28T13:44:38Z</time>
</trkpt>
<trkpt lat="46.276960000" lon="7.376300000">
  <ele>1179.099980</ele>
  <time>2012-05-28T13:44:39Z</time>
</trkpt>
<trkpt lat="46.276950000" lon="7.376340000">
  <ele>1179.349980</ele>
  <time>2012-05-28T13:44:40Z</time>
</trkpt>
<trkpt lat="46.276940000" lon="7.376370000">
  <ele>1179.599980</ele>
  <time>2012-05-28T13:44:41Z</time>
</trkpt>
<trkpt lat="46.276890000" lon="7.376510000">
  <ele>1179.599980</ele>
  <time>2012-05-28T13:44:45Z</time>
</trkpt>
<trkpt lat="46.276810000" lon="7.376740000">
  <ele>1181.022220</ele>
  <time>2012-05-28T13:44:51Z</time>
</trkpt>
<trkpt lat="46.276780000" lon="7.376860000">
  <ele>1181.733280</ele>
  <time>2012-05-28T13:44:54Z</time>
</trkpt>
<trkpt lat="46.276770000" lon="7.376900000">
  <ele>1181.970340</ele>
  <time>2012-05-28T13:44:55Z</time>
</trkpt>
<trkpt lat="46.276750000" lon="7.376950000">
  <ele>1182.207400</ele>
  <time>2012-05-28T13:44:56Z</time>
</trkpt>
<trkpt lat="46.276740000" lon="7.376990000">
  <ele>1182.444460</ele>
  <time>2012-05-28T13:44:57Z</time>
</trkpt>
<trkpt lat="46.276730000" lon="7.377040000">
  <ele>1182.681520</ele>
  <time>2012-05-28T13:44:58Z</time>
</trkpt>
<trkpt lat="46.276690000" lon="7.377160000">
  <ele>1183.392580</ele>
  <time>2012-05-28T13:45:01Z</time>
</trkpt>
<trkpt lat="46.276680000" lon="7.377210000">
  <ele>1183.629640</ele>
  <time>2012-05-28T13:45:02Z</time>
</trkpt>
<trkpt lat="46.276670000" lon="7.377250000">
  <ele>1183.866700</ele>
  <time>2012-05-28T13:45:03Z</time>
</trkpt>
<trkpt lat="46.276650000" lon="7.377290000">
  <ele>1184.103640</ele>
  <time>2012-05-28T13:45:04Z</time>
</trkpt>
<trkpt lat="46.276640000" lon="7.377330000">
  <ele>1184.340700</ele>
  <time>2012-05-28T13:45:05Z</time>
</trkpt>
<trkpt lat="46.276600000" lon="7.377450000">
  <ele>1185.051880</ele>
  <time>2012-05-28T13:45:08Z</time>
</trkpt>
<trkpt lat="46.276580000" lon="7.377490000">
  <ele>1185.288940</ele>
  <time>2012-05-28T13:45:09Z</time>
</trkpt>
<trkpt lat="46.276570000" lon="7.377540000">
  <ele>1185.525880</ele>
  <time>2012-05-28T13:45:10Z</time>
</trkpt>
<trkpt lat="46.276550000" lon="7.377580000">
  <ele>1185.762940</ele>
  <time>2012-05-28T13:45:11Z</time>
</trkpt>
<trkpt lat="46.276540000" lon="7.377630000">
  <ele>1186.000000</ele>
  <time>2012-05-28T13:45:12Z</time>
</trkpt>
<trkpt lat="46.276370000" lon="7.377880000">
  <ele>1186.000000</ele>
  <time>2012-05-28T13:45:19Z</time>
</trkpt>
<trkpt lat="46.276280000" lon="7.377970000">
  <ele>1186.857180</ele>
  <time>2012-05-28T13:45:22Z</time>
</trkpt>
<trkpt lat="46.276250000" lon="7.378000000">
  <ele>1187.142820</ele>
  <time>2012-05-28T13:45:23Z</time>
</trkpt>
<trkpt lat="46.276220000" lon="7.378020000">
  <ele>1187.428590</ele>
  <time>2012-05-28T13:45:24Z</time>
</trkpt>
<trkpt lat="46.276180000" lon="7.378040000">
  <ele>1187.714230</ele>
  <time>2012-05-28T13:45:25Z</time>
</trkpt>
<trkpt lat="46.276150000" lon="7.378060000">
  <ele>1188.000000</ele>
  <time>2012-05-28T13:45:26Z</time>
</trkpt>
<trkpt lat="46.276120000" lon="7.378090000">
  <ele>1188.000000</ele>
  <time>2012-05-28T13:45:27Z</time>
</trkpt>
<trkpt lat="46.275940000" lon="7.378310000">
  <ele>1189.099980</ele>
  <time>2012-05-28T13:45:34Z</time>
</trkpt>
<trkpt lat="46.275860000" lon="7.378470000">
  <ele>1189.728520</ele>
  <time>2012-05-28T13:45:38Z</time>
</trkpt>
<trkpt lat="46.275840000" lon="7.378510000">
  <ele>1189.885620</ele>
  <time>2012-05-28T13:45:39Z</time>
</trkpt>
<trkpt lat="46.275830000" lon="7.378550000">
  <ele>1190.042850</ele>
  <time>2012-05-28T13:45:40Z</time>
</trkpt>
<trkpt lat="46.275810000" lon="7.378600000">
  <ele>1190.199950</ele>
  <time>2012-05-28T13:45:41Z</time>
</trkpt>
<trkpt lat="46.275720000" lon="7.378910000">
  <ele>1190.199950</ele>
  <time>2012-05-28T13:45:48Z</time>
</trkpt>
<trkpt lat="46.275680000" lon="7.379050000">
  <ele>1191.057130</ele>
  <time>2012-05-28T13:45:51Z</time>
</trkpt>
<trkpt lat="46.275670000" lon="7.379090000">
  <ele>1191.342770</ele>
  <time>2012-05-28T13:45:52Z</time>
</trkpt>
<trkpt lat="46.275650000" lon="7.379140000">
  <ele>1191.628540</ele>
  <time>2012-05-28T13:45:53Z</time>
</trkpt>
<trkpt lat="46.275640000" lon="7.379190000">
  <ele>1191.914180</ele>
  <time>2012-05-28T13:45:54Z</time>
</trkpt>
<trkpt lat="46.275630000" lon="7.379230000">
  <ele>1192.199950</ele>
  <time>2012-05-28T13:45:55Z</time>
</trkpt>
<trkpt lat="46.275600000" lon="7.379320000">
  <ele>1192.199950</ele>
  <time>2012-05-28T13:45:57Z</time>
</trkpt>
<trkpt lat="46.275490000" lon="7.379680000">
  <ele>1193.654540</ele>
  <time>2012-05-28T13:46:05Z</time>
</trkpt>
<trkpt lat="46.275480000" lon="7.379730000">
  <ele>1193.836300</ele>
  <time>2012-05-28T13:46:06Z</time>
</trkpt>
<trkpt lat="46.275480000" lon="7.379780000">
  <ele>1194.018190</ele>
  <time>2012-05-28T13:46:07Z</time>
</trkpt>
<trkpt lat="46.275470000" lon="7.379830000">
  <ele>1194.199950</ele>
  <time>2012-05-28T13:46:08Z</time>
</trkpt>
<trkpt lat="46.275470000" lon="7.380090000">
  <ele>1194.199950</ele>
  <time>2012-05-28T13:46:13Z</time>
</trkpt>
<trkpt lat="46.275470000" lon="7.380380000">
  <ele>1195.399900</ele>
  <time>2012-05-28T13:46:19Z</time>
</trkpt>
<trkpt lat="46.275470000" lon="7.380430000">
  <ele>1195.599980</ele>
  <time>2012-05-28T13:46:20Z</time>
</trkpt>
<trkpt lat="46.275470000" lon="7.380480000">
  <ele>1195.799930</ele>
  <time>2012-05-28T13:46:21Z</time>
</trkpt>
<trkpt lat="46.275480000" lon="7.380530000">
  <ele>1196.000000</ele>
  <time>2012-05-28T13:46:22Z</time>
</trkpt>
<trkpt lat="46.275490000" lon="7.380580000">
  <ele>1196.199950</ele>
  <time>2012-05-28T13:46:23Z</time>
</trkpt>
<trkpt lat="46.275500000" lon="7.380800000">
  <ele>1196.199950</ele>
  <time>2012-05-28T13:46:27Z</time>
</trkpt>
<trkpt lat="46.275520000" lon="7.381000000">
  <ele>1197.300050</ele>
  <time>2012-05-28T13:46:31Z</time>
</trkpt>
<trkpt lat="46.275520000" lon="7.381060000">
  <ele>1197.574950</ele>
  <time>2012-05-28T13:46:32Z</time>
</trkpt>
<trkpt lat="46.275530000" lon="7.381110000">
  <ele>1197.849980</ele>
  <time>2012-05-28T13:46:33Z</time>
</trkpt>
<trkpt lat="46.275540000" lon="7.381160000">
  <ele>1198.125000</ele>
  <time>2012-05-28T13:46:34Z</time>
</trkpt>
<trkpt lat="46.275540000" lon="7.381210000">
  <ele>1198.400020</ele>
  <time>2012-05-28T13:46:35Z</time>
</trkpt>
<trkpt lat="46.275560000" lon="7.381540000">
  <ele>1198.400020</ele>
  <time>2012-05-28T13:46:41Z</time>
</trkpt>
<trkpt lat="46.275570000" lon="7.381700000">
  <ele>1199.257200</ele>
  <time>2012-05-28T13:46:44Z</time>
</trkpt>
<trkpt lat="46.275570000" lon="7.381750000">
  <ele>1199.542850</ele>
  <time>2012-05-28T13:46:45Z</time>
</trkpt>
<trkpt lat="46.275580000" lon="7.381800000">
  <ele>1199.828610</ele>
  <time>2012-05-28T13:46:46Z</time>
</trkpt>
<trkpt lat="46.275580000" lon="7.381860000">
  <ele>1200.114260</ele>
  <time>2012-05-28T13:46:47Z</time>
</trkpt>
<trkpt lat="46.275590000" lon="7.381910000">
  <ele>1200.400020</ele>
  <time>2012-05-28T13:46:48Z</time>
</trkpt>
<trkpt lat="46.275630000" lon="7.382310000">
  <ele>1200.400020</ele>
  <time>2012-05-28T13:46:56Z</time>
</trkpt>
<trkpt lat="46.275730000" lon="7.382650000">
  <ele>1201.927370</ele>
  <time>2012-05-28T13:47:03Z</time>
</trkpt>
<trkpt lat="46.275740000" lon="7.382700000">
  <ele>1202.145510</ele>
  <time>2012-05-28T13:47:04Z</time>
</trkpt>
<trkpt lat="46.275750000" lon="7.382750000">
  <ele>1202.363650</ele>
  <time>2012-05-28T13:47:05Z</time>
</trkpt>
<trkpt lat="46.275760000" lon="7.382790000">
  <ele>1202.581910</ele>
  <time>2012-05-28T13:47:06Z</time>
</trkpt>
<trkpt lat="46.275780000" lon="7.382840000">
  <ele>1202.800050</ele>
  <time>2012-05-28T13:47:07Z</time>
</trkpt>
<trkpt lat="46.275790000" lon="7.382930000">
  <ele>1202.800050</ele>
  <time>2012-05-28T13:47:09Z</time>
</trkpt>
<trkpt lat="46.275820000" lon="7.383050000">
  <ele>1203.657230</ele>
  <time>2012-05-28T13:47:12Z</time>
</trkpt>
<trkpt lat="46.275830000" lon="7.383090000">
  <ele>1203.942870</ele>
  <time>2012-05-28T13:47:13Z</time>
</trkpt>
<trkpt lat="46.275840000" lon="7.383140000">
  <ele>1204.228640</ele>
  <time>2012-05-28T13:47:14Z</time>
</trkpt>
<trkpt lat="46.275840000" lon="7.383180000">
  <ele>1204.514280</ele>
  <time>2012-05-28T13:47:15Z</time>
</trkpt>
<trkpt lat="46.275850000" lon="7.383220000">
  <ele>1204.800050</ele>
  <time>2012-05-28T13:47:16Z</time>
</trkpt>
<trkpt lat="46.275880000" lon="7.383470000">
  <ele>1204.800050</ele>
  <time>2012-05-28T13:47:22Z</time>
</trkpt>
<trkpt lat="46.275890000" lon="7.383550000">
  <ele>1205.533330</ele>
  <time>2012-05-28T13:47:24Z</time>
</trkpt>
<trkpt lat="46.275890000" lon="7.383600000">
  <ele>1205.900020</ele>
  <time>2012-05-28T13:47:25Z</time>
</trkpt>
<trkpt lat="46.275890000" lon="7.383640000">
  <ele>1206.266720</ele>
  <time>2012-05-28T13:47:26Z</time>
</trkpt>
<trkpt lat="46.275890000" lon="7.383680000">
  <ele>1206.633300</ele>
  <time>2012-05-28T13:47:27Z</time>
</trkpt>
<trkpt lat="46.275890000" lon="7.383720000">
  <ele>1207.000000</ele>
  <time>2012-05-28T13:47:28Z</time>
</trkpt>
<trkpt lat="46.275890000" lon="7.383760000">
  <ele>1207.000000</ele>
  <time>2012-05-28T13:47:29Z</time>
</trkpt>
<trkpt lat="46.275890000" lon="7.383890000">
  <ele>1207.857180</ele>
  <time>2012-05-28T13:47:32Z</time>
</trkpt>
<trkpt lat="46.275890000" lon="7.383940000">
  <ele>1208.142820</ele>
  <time>2012-05-28T13:47:33Z</time>
</trkpt>
<trkpt lat="46.275890000" lon="7.383980000">
  <ele>1208.428590</ele>
  <time>2012-05-28T13:47:34Z</time>
</trkpt>
<trkpt lat="46.275890000" lon="7.384030000">
  <ele>1208.714230</ele>
  <time>2012-05-28T13:47:35Z</time>
</trkpt>
<trkpt lat="46.275900000" lon="7.384070000">
  <ele>1209.000000</ele>
  <time>2012-05-28T13:47:36Z</time>
</trkpt>
<trkpt lat="46.275900000" lon="7.384120000">
  <ele>1209.000000</ele>
  <time>2012-05-28T13:47:37Z</time>
</trkpt>
<trkpt lat="46.275960000" lon="7.384340000">
  <ele>1210.375000</ele>
  <time>2012-05-28T13:47:42Z</time>
</trkpt>
<trkpt lat="46.275970000" lon="7.384380000">
  <ele>1210.650020</ele>
  <time>2012-05-28T13:47:43Z</time>
</trkpt>
<trkpt lat="46.275990000" lon="7.384420000">
  <ele>1210.925050</ele>
  <time>2012-05-28T13:47:44Z</time>
</trkpt>
<trkpt lat="46.276020000" lon="7.384460000">
  <ele>1211.199950</ele>
  <time>2012-05-28T13:47:45Z</time>
</trkpt>
<trkpt lat="46.276100000" lon="7.384600000">
  <ele>1212.300050</ele>
  <time>2012-05-28T13:47:49Z</time>
</trkpt>
<trkpt lat="46.276120000" lon="7.384640000">
  <ele>1212.575070</ele>
  <time>2012-05-28T13:47:50Z</time>
</trkpt>
<trkpt lat="46.276130000" lon="7.384680000">
  <ele>1212.849980</ele>
  <time>2012-05-28T13:47:51Z</time>
</trkpt>
<trkpt lat="46.276150000" lon="7.384720000">
  <ele>1213.125000</ele>
  <time>2012-05-28T13:47:52Z</time>
</trkpt>
<trkpt lat="46.276170000" lon="7.384760000">
  <ele>1213.400020</ele>
  <time>2012-05-28T13:47:53Z</time>
</trkpt>
<trkpt lat="46.276230000" lon="7.384900000">
  <ele>1213.400020</ele>
  <time>2012-05-28T13:47:57Z</time>
</trkpt>
<trkpt lat="46.276280000" lon="7.384980000">
  <ele>1214.066650</ele>
  <time>2012-05-28T13:47:59Z</time>
</trkpt>
<trkpt lat="46.276300000" lon="7.385030000">
  <ele>1214.400020</ele>
  <time>2012-05-28T13:48:00Z</time>
</trkpt>
<trkpt lat="46.276320000" lon="7.385070000">
  <ele>1214.733400</ele>
  <time>2012-05-28T13:48:01Z</time>
</trkpt>
<trkpt lat="46.276340000" lon="7.385110000">
  <ele>1215.066650</ele>
  <time>2012-05-28T13:48:02Z</time>
</trkpt>
<trkpt lat="46.276360000" lon="7.385140000">
  <ele>1215.400020</ele>
  <time>2012-05-28T13:48:03Z</time>
</trkpt>
<trkpt lat="46.276440000" lon="7.385390000">
  <ele>1215.400020</ele>
  <time>2012-05-28T13:48:09Z</time>
</trkpt>
<trkpt lat="46.276450000" lon="7.385430000">
  <ele>1215.880000</ele>
  <time>2012-05-28T13:48:10Z</time>
</trkpt>
<trkpt lat="46.276450000" lon="7.385470000">
  <ele>1216.359990</ele>
  <time>2012-05-28T13:48:11Z</time>
</trkpt>
<trkpt lat="46.276460000" lon="7.385510000">
  <ele>1216.840090</ele>
  <time>2012-05-28T13:48:12Z</time>
</trkpt>
<trkpt lat="46.276460000" lon="7.385560000">
  <ele>1217.320070</ele>
  <time>2012-05-28T13:48:13Z</time>
</trkpt>
<trkpt lat="46.276470000" lon="7.385600000">
  <ele>1217.800050</ele>
  <time>2012-05-28T13:48:14Z</time>
</trkpt>
<trkpt lat="46.276470000" lon="7.385640000">
  <ele>1217.800050</ele>
  <time>2012-05-28T13:48:15Z</time>
</trkpt>
<trkpt lat="46.276490000" lon="7.385800000">
  <ele>1218.800050</ele>
  <time>2012-05-28T13:48:19Z</time>
</trkpt>
<trkpt lat="46.276490000" lon="7.385840000">
  <ele>1219.050050</ele>
  <time>2012-05-28T13:48:20Z</time>
</trkpt>
<trkpt lat="46.276500000" lon="7.385880000">
  <ele>1219.300050</ele>
  <time>2012-05-28T13:48:21Z</time>
</trkpt>
<trkpt lat="46.276510000" lon="7.385910000">
  <ele>1219.550050</ele>
  <time>2012-05-28T13:48:22Z</time>
</trkpt>
<trkpt lat="46.276520000" lon="7.385940000">
  <ele>1219.800050</ele>
  <time>2012-05-28T13:48:23Z</time>
</trkpt>
<trkpt lat="46.276580000" lon="7.386080000">
  <ele>1219.800050</ele>
  <time>2012-05-28T13:48:27Z</time>
</trkpt>
<trkpt lat="46.276630000" lon="7.386170000">
  <ele>1220.900020</ele>
  <time>2012-05-28T13:48:30Z</time>
</trkpt>
<trkpt lat="46.276650000" lon="7.386210000">
  <ele>1221.266720</ele>
  <time>2012-05-28T13:48:31Z</time>
</trkpt>
<trkpt lat="46.276660000" lon="7.386240000">
  <ele>1221.633300</ele>
  <time>2012-05-28T13:48:32Z</time>
</trkpt>
<trkpt lat="46.276680000" lon="7.386270000">
  <ele>1222.000000</ele>
  <time>2012-05-28T13:48:33Z</time>
</trkpt>
<trkpt lat="46.276730000" lon="7.386360000">
  <ele>1222.000000</ele>
  <time>2012-05-28T13:48:36Z</time>
</trkpt>
<trkpt lat="46.276790000" lon="7.386450000">
  <ele>1222.794070</ele>
  <time>2012-05-28T13:48:39Z</time>
</trkpt>
<trkpt lat="46.276810000" lon="7.386480000">
  <ele>1223.058840</ele>
  <time>2012-05-28T13:48:40Z</time>
</trkpt>
<trkpt lat="46.276820000" lon="7.386510000">
  <ele>1223.323490</ele>
  <time>2012-05-28T13:48:41Z</time>
</trkpt>
<trkpt lat="46.276840000" lon="7.386540000">
  <ele>1223.588260</ele>
  <time>2012-05-28T13:48:42Z</time>
</trkpt>
<trkpt lat="46.276860000" lon="7.386560000">
  <ele>1223.852910</ele>
  <time>2012-05-28T13:48:43Z</time>
</trkpt>
<trkpt lat="46.276960000" lon="7.386730000">
  <ele>1225.441160</ele>
  <time>2012-05-28T13:48:49Z</time>
</trkpt>
<trkpt lat="46.276970000" lon="7.386760000">
  <ele>1225.705930</ele>
  <time>2012-05-28T13:48:50Z</time>
</trkpt>
<trkpt lat="46.276990000" lon="7.386790000">
  <ele>1225.970580</ele>
  <time>2012-05-28T13:48:51Z</time>
</trkpt>
<trkpt lat="46.277010000" lon="7.386810000">
  <ele>1226.235350</ele>
  <time>2012-05-28T13:48:52Z</time>
</trkpt>
<trkpt lat="46.277020000" lon="7.386840000">
  <ele>1226.500000</ele>
  <time>2012-05-28T13:48:53Z</time>
</trkpt>
<trkpt lat="46.277090000" lon="7.386960000">
  <ele>1227.558840</ele>
  <time>2012-05-28T13:48:57Z</time>
</trkpt>
<trkpt lat="46.277110000" lon="7.386990000">
  <ele>1227.823490</ele>
  <time>2012-05-28T13:48:58Z</time>
</trkpt>
<trkpt lat="46.277130000" lon="7.387020000">
  <ele>1228.088260</ele>
  <time>2012-05-28T13:48:59Z</time>
</trkpt>
<trkpt lat="46.277140000" lon="7.387040000">
  <ele>1228.352910</ele>
  <time>2012-05-28T13:49:00Z</time>
</trkpt>
<trkpt lat="46.277160000" lon="7.387080000">
  <ele>1228.617680</ele>
  <time>2012-05-28T13:49:01Z</time>
</trkpt>
<trkpt lat="46.277240000" lon="7.387220000">
  <ele>1229.941160</ele>
  <time>2012-05-28T13:49:06Z</time>
</trkpt>
<trkpt lat="46.277260000" lon="7.387250000">
  <ele>1230.205930</ele>
  <time>2012-05-28T13:49:07Z</time>
</trkpt>
<trkpt lat="46.277270000" lon="7.387290000">
  <ele>1230.470580</ele>
  <time>2012-05-28T13:49:08Z</time>
</trkpt>
<trkpt lat="46.277290000" lon="7.387310000">
  <ele>1230.735350</ele>
  <time>2012-05-28T13:49:09Z</time>
</trkpt>
<trkpt lat="46.277310000" lon="7.387340000">
  <ele>1231.000000</ele>
  <time>2012-05-28T13:49:10Z</time>
</trkpt>
<trkpt lat="46.277370000" lon="7.387450000">
  <ele>1231.000000</ele>
  <time>2012-05-28T13:49:14Z</time>
</trkpt>
<trkpt lat="46.277400000" lon="7.387500000">
  <ele>1231.699950</ele>
  <time>2012-05-28T13:49:16Z</time>
</trkpt>
<trkpt lat="46.277420000" lon="7.387530000">
  <ele>1232.050050</ele>
  <time>2012-05-28T13:49:17Z</time>
</trkpt>
<trkpt lat="46.277440000" lon="7.387560000">
  <ele>1232.400020</ele>
  <time>2012-05-28T13:49:18Z</time>
</trkpt>
<trkpt lat="46.277460000" lon="7.387590000">
  <ele>1232.750000</ele>
  <time>2012-05-28T13:49:19Z</time>
</trkpt>
<trkpt lat="46.277480000" lon="7.387620000">
  <ele>1233.099980</ele>
  <time>2012-05-28T13:49:20Z</time>
</trkpt>
<trkpt lat="46.277510000" lon="7.387670000">
  <ele>1233.799930</ele>
  <time>2012-05-28T13:49:22Z</time>
</trkpt>
<trkpt lat="46.277530000" lon="7.387690000">
  <ele>1234.149900</ele>
  <time>2012-05-28T13:49:23Z</time>
</trkpt>
<trkpt lat="46.277540000" lon="7.387720000">
  <ele>1234.500000</ele>
  <time>2012-05-28T13:49:24Z</time>
</trkpt>
<trkpt lat="46.277560000" lon="7.387740000">
  <ele>1234.849980</ele>
  <time>2012-05-28T13:49:25Z</time>
</trkpt>
<trkpt lat="46.277570000" lon="7.387770000">
  <ele>1235.199950</ele>
  <time>2012-05-28T13:49:26Z</time>
</trkpt>
<trkpt lat="46.277590000" lon="7.387800000">
  <ele>1235.199950</ele>
  <time>2012-05-28T13:49:27Z</time>
</trkpt>
<trkpt lat="46.277680000" lon="7.387900000">
  <ele>1236.199950</ele>
  <time>2012-05-28T13:49:31Z</time>
</trkpt>
<trkpt lat="46.277690000" lon="7.387930000">
  <ele>1236.449950</ele>
  <time>2012-05-28T13:49:32Z</time>
</trkpt>
<trkpt lat="46.277710000" lon="7.387960000">
  <ele>1236.699950</ele>
  <time>2012-05-28T13:49:33Z</time>
</trkpt>
<trkpt lat="46.277730000" lon="7.387990000">
  <ele>1236.949950</ele>
  <time>2012-05-28T13:49:34Z</time>
</trkpt>
<trkpt lat="46.277750000" lon="7.388010000">
  <ele>1237.199950</ele>
  <time>2012-05-28T13:49:35Z</time>
</trkpt>
<trkpt lat="46.277840000" lon="7.388110000">
  <ele>1237.199950</ele>
  <time>2012-05-28T13:49:39Z</time>
</trkpt>
<trkpt lat="46.277900000" lon="7.388180000">
  <ele>1237.990230</ele>
  <time>2012-05-28T13:49:42Z</time>
</trkpt>
<trkpt lat="46.277920000" lon="7.388200000">
  <ele>1238.253660</ele>
  <time>2012-05-28T13:49:43Z</time>
</trkpt>
<trkpt lat="46.277940000" lon="7.388230000">
  <ele>1238.517090</ele>
  <time>2012-05-28T13:49:44Z</time>
</trkpt>
<trkpt lat="46.277960000" lon="7.388250000">
  <ele>1238.780400</ele>
  <time>2012-05-28T13:49:45Z</time>
</trkpt>
<trkpt lat="46.277980000" lon="7.388280000">
  <ele>1239.043820</ele>
  <time>2012-05-28T13:49:46Z</time>
</trkpt>
<trkpt lat="46.278060000" lon="7.388380000">
  <ele>1240.097530</ele>
  <time>2012-05-28T13:49:50Z</time>
</trkpt>
<trkpt lat="46.278080000" lon="7.388410000">
  <ele>1240.360960</ele>
  <time>2012-05-28T13:49:51Z</time>
</trkpt>
<trkpt lat="46.278100000" lon="7.388430000">
  <ele>1240.624390</ele>
  <time>2012-05-28T13:49:52Z</time>
</trkpt>
<trkpt lat="46.278110000" lon="7.388460000">
  <ele>1240.887820</ele>
  <time>2012-05-28T13:49:53Z</time>
</trkpt>
<trkpt lat="46.278130000" lon="7.388480000">
  <ele>1241.151250</ele>
  <time>2012-05-28T13:49:54Z</time>
</trkpt>
<trkpt lat="46.278220000" lon="7.388610000">
  <ele>1242.468260</ele>
  <time>2012-05-28T13:49:59Z</time>
</trkpt>
<trkpt lat="46.278240000" lon="7.388640000">
  <ele>1242.731690</ele>
  <time>2012-05-28T13:50:00Z</time>
</trkpt>
<trkpt lat="46.278260000" lon="7.388660000">
  <ele>1242.995120</ele>
  <time>2012-05-28T13:50:01Z</time>
</trkpt>
<trkpt lat="46.278280000" lon="7.388680000">
  <ele>1243.258540</ele>
  <time>2012-05-28T13:50:02Z</time>
</trkpt>
<trkpt lat="46.278300000" lon="7.388700000">
  <ele>1243.521970</ele>
  <time>2012-05-28T13:50:03Z</time>
</trkpt>
<trkpt lat="46.278390000" lon="7.388820000">
  <ele>1244.838990</ele>
  <time>2012-05-28T13:50:08Z</time>
</trkpt>
<trkpt lat="46.278410000" lon="7.388850000">
  <ele>1245.102420</ele>
  <time>2012-05-28T13:50:09Z</time>
</trkpt>
<trkpt lat="46.278430000" lon="7.388870000">
  <ele>1245.365840</ele>
  <time>2012-05-28T13:50:10Z</time>
</trkpt>
<trkpt lat="46.278450000" lon="7.388900000">
  <ele>1245.629270</ele>
  <time>2012-05-28T13:50:11Z</time>
</trkpt>
<trkpt lat="46.278560000" lon="7.389020000">
  <ele>1246.946290</ele>
  <time>2012-05-28T13:50:16Z</time>
</trkpt>
<trkpt lat="46.278580000" lon="7.389050000">
  <ele>1247.209720</ele>
  <time>2012-05-28T13:50:17Z</time>
</trkpt>
<trkpt lat="46.278600000" lon="7.389070000">
  <ele>1247.473140</ele>
  <time>2012-05-28T13:50:18Z</time>
</trkpt>
<trkpt lat="46.278630000" lon="7.389100000">
  <ele>1247.736570</ele>
  <time>2012-05-28T13:50:19Z</time>
</trkpt>
<trkpt lat="46.278650000" lon="7.389120000">
  <ele>1248.000000</ele>
  <time>2012-05-28T13:50:20Z</time>
</trkpt>
<trkpt lat="46.278720000" lon="7.389230000">
  <ele>1248.000000</ele>
  <time>2012-05-28T13:50:24Z</time>
</trkpt>
<trkpt lat="46.278740000" lon="7.389250000">
  <ele>1248.400020</ele>
  <time>2012-05-28T13:50:25Z</time>
</trkpt>
<trkpt lat="46.278760000" lon="7.389280000">
  <ele>1248.800050</ele>
  <time>2012-05-28T13:50:26Z</time>
</trkpt>
<trkpt lat="46.278780000" lon="7.389310000">
  <ele>1249.199950</ele>
  <time>2012-05-28T13:50:27Z</time>
</trkpt>
<trkpt lat="46.278800000" lon="7.389330000">
  <ele>1249.599980</ele>
  <time>2012-05-28T13:50:28Z</time>
</trkpt>
<trkpt lat="46.278820000" lon="7.389360000">
  <ele>1250.000000</ele>
  <time>2012-05-28T13:50:29Z</time>
</trkpt>
<trkpt lat="46.278860000" lon="7.389410000">
  <ele>1250.000000</ele>
  <time>2012-05-28T13:50:31Z</time>
</trkpt>
<trkpt lat="46.278930000" lon="7.389530000">
  <ele>1251.257080</ele>
  <time>2012-05-28T13:50:35Z</time>
</trkpt>
<trkpt lat="46.278950000" lon="7.389560000">
  <ele>1251.571410</ele>
  <time>2012-05-28T13:50:36Z</time>
</trkpt>
<trkpt lat="46.278970000" lon="7.389590000">
  <ele>1251.885620</ele>
  <time>2012-05-28T13:50:37Z</time>
</trkpt>
<trkpt lat="46.278990000" lon="7.389620000">
  <ele>1252.199950</ele>
  <time>2012-05-28T13:50:38Z</time>
</trkpt>
<trkpt lat="46.279010000" lon="7.389650000">
  <ele>1252.199950</ele>
  <time>2012-05-28T13:50:39Z</time>
</trkpt>
<trkpt lat="46.279100000" lon="7.389760000">
  <ele>1253.399900</ele>
  <time>2012-05-28T13:50:43Z</time>
</trkpt>
<trkpt lat="46.279120000" lon="7.389780000">
  <ele>1253.699950</ele>
  <time>2012-05-28T13:50:44Z</time>
</trkpt>
<trkpt lat="46.279140000" lon="7.389810000">
  <ele>1254.000000</ele>
  <time>2012-05-28T13:50:45Z</time>
</trkpt>
<trkpt lat="46.279160000" lon="7.389830000">
  <ele>1254.299930</ele>
  <time>2012-05-28T13:50:46Z</time>
</trkpt>
<trkpt lat="46.279180000" lon="7.389860000">
  <ele>1254.599980</ele>
  <time>2012-05-28T13:50:47Z</time>
</trkpt>
<trkpt lat="46.279200000" lon="7.389880000">
  <ele>1254.599980</ele>
  <time>2012-05-28T13:50:48Z</time>
</trkpt>
<trkpt lat="46.279300000" lon="7.390010000">
  <ele>1255.792240</ele>
  <time>2012-05-28T13:50:53Z</time>
</trkpt>
<trkpt lat="46.279330000" lon="7.390030000">
  <ele>1256.030760</ele>
  <time>2012-05-28T13:50:54Z</time>
</trkpt>
<trkpt lat="46.279350000" lon="7.390050000">
  <ele>1256.269290</ele>
  <time>2012-05-28T13:50:55Z</time>
</trkpt>
<trkpt lat="46.279370000" lon="7.390080000">
  <ele>1256.507690</ele>
  <time>2012-05-28T13:50:56Z</time>
</trkpt>
<trkpt lat="46.279400000" lon="7.390100000">
  <ele>1256.746090</ele>
  <time>2012-05-28T13:50:57Z</time>
</trkpt>
<trkpt lat="46.279490000" lon="7.390180000">
  <ele>1257.699950</ele>
  <time>2012-05-28T13:51:01Z</time>
</trkpt>
<trkpt lat="46.279510000" lon="7.390200000">
  <ele>1257.938480</ele>
  <time>2012-05-28T13:51:02Z</time>
</trkpt>
<trkpt lat="46.279540000" lon="7.390220000">
  <ele>1258.177000</ele>
  <time>2012-05-28T13:51:03Z</time>
</trkpt>
<trkpt lat="46.279560000" lon="7.390240000">
  <ele>1258.415410</ele>
  <time>2012-05-28T13:51:04Z</time>
</trkpt>
<trkpt lat="46.279740000" lon="7.390260000">
  <ele>1259.846190</ele>
  <time>2012-05-28T13:51:10Z</time>
</trkpt>
<trkpt lat="46.279760000" lon="7.390250000">
  <ele>1260.084720</ele>
  <time>2012-05-28T13:51:11Z</time>
</trkpt>
<trkpt lat="46.279790000" lon="7.390250000">
  <ele>1260.323120</ele>
  <time>2012-05-28T13:51:12Z</time>
</trkpt>
<trkpt lat="46.279820000" lon="7.390230000">
  <ele>1260.561520</ele>
  <time>2012-05-28T13:51:13Z</time>
</trkpt>
<trkpt lat="46.279840000" lon="7.390220000">
  <ele>1260.800050</ele>
  <time>2012-05-28T13:51:14Z</time>
</trkpt>
<trkpt lat="46.279920000" lon="7.390180000">
  <ele>1260.800050</ele>
  <time>2012-05-28T13:51:17Z</time>
</trkpt>
<trkpt lat="46.279940000" lon="7.390150000">
  <ele>1261.239990</ele>
  <time>2012-05-28T13:51:18Z</time>
</trkpt>
<trkpt lat="46.279960000" lon="7.390130000">
  <ele>1261.680050</ele>
  <time>2012-05-28T13:51:19Z</time>
</trkpt>
<trkpt lat="46.279990000" lon="7.390100000">
  <ele>1262.120000</ele>
  <time>2012-05-28T13:51:20Z</time>
</trkpt>
<trkpt lat="46.280010000" lon="7.390070000">
  <ele>1262.560060</ele>
  <time>2012-05-28T13:51:21Z</time>
</trkpt>
<trkpt lat="46.280030000" lon="7.390040000">
  <ele>1263.000000</ele>
  <time>2012-05-28T13:51:22Z</time>
</trkpt>
<trkpt lat="46.280080000" lon="7.389940000">
  <ele>1263.000000</ele>
  <time>2012-05-28T13:51:25Z</time>
</trkpt>
<trkpt lat="46.280090000" lon="7.389910000">
  <ele>1263.439940</ele>
  <time>2012-05-28T13:51:26Z</time>
</trkpt>
<trkpt lat="46.280110000" lon="7.389870000">
  <ele>1263.880000</ele>
  <time>2012-05-28T13:51:27Z</time>
</trkpt>
<trkpt lat="46.280120000" lon="7.389830000">
  <ele>1264.319950</ele>
  <time>2012-05-28T13:51:28Z</time>
</trkpt>
<trkpt lat="46.280120000" lon="7.389790000">
  <ele>1264.760010</ele>
  <time>2012-05-28T13:51:29Z</time>
</trkpt>
<trkpt lat="46.280130000" lon="7.389760000">
  <ele>1265.199950</ele>
  <time>2012-05-28T13:51:30Z</time>
</trkpt>
<trkpt lat="46.280130000" lon="7.389720000">
  <ele>1265.199950</ele>
  <time>2012-05-28T13:51:31Z</time>
</trkpt>
<trkpt lat="46.280140000" lon="7.389560000">
  <ele>1266.250000</ele>
  <time>2012-05-28T13:51:35Z</time>
</trkpt>
<trkpt lat="46.280140000" lon="7.389520000">
  <ele>1266.512450</ele>
  <time>2012-05-28T13:51:36Z</time>
</trkpt>
<trkpt lat="46.280140000" lon="7.389470000">
  <ele>1266.775020</ele>
  <time>2012-05-28T13:51:37Z</time>
</trkpt>
<trkpt lat="46.280140000" lon="7.389430000">
  <ele>1267.037480</ele>
  <time>2012-05-28T13:51:38Z</time>
</trkpt>
<trkpt lat="46.280140000" lon="7.389390000">
  <ele>1267.300050</ele>
  <time>2012-05-28T13:51:39Z</time>
</trkpt>
<trkpt lat="46.280140000" lon="7.389220000">
  <ele>1268.349980</ele>
  <time>2012-05-28T13:51:43Z</time>
</trkpt>
<trkpt lat="46.280140000" lon="7.389180000">
  <ele>1268.612550</ele>
  <time>2012-05-28T13:51:44Z</time>
</trkpt>
<trkpt lat="46.280140000" lon="7.389140000">
  <ele>1268.875000</ele>
  <time>2012-05-28T13:51:45Z</time>
</trkpt>
<trkpt lat="46.280140000" lon="7.389100000">
  <ele>1269.137570</ele>
  <time>2012-05-28T13:51:46Z</time>
</trkpt>
<trkpt lat="46.280140000" lon="7.389060000">
  <ele>1269.400020</ele>
  <time>2012-05-28T13:51:47Z</time>
</trkpt>
<trkpt lat="46.280150000" lon="7.388930000">
  <ele>1269.400020</ele>
  <time>2012-05-28T13:51:50Z</time>
</trkpt>
<trkpt lat="46.280140000" lon="7.388830000">
  <ele>1270.133300</ele>
  <time>2012-05-28T13:51:52Z</time>
</trkpt>
<trkpt lat="46.280140000" lon="7.388790000">
  <ele>1270.500000</ele>
  <time>2012-05-28T13:51:53Z</time>
</trkpt>
<trkpt lat="46.280140000" lon="7.388740000">
  <ele>1270.866700</ele>
  <time>2012-05-28T13:51:54Z</time>
</trkpt>
<trkpt lat="46.280140000" lon="7.388700000">
  <ele>1271.233280</ele>
  <time>2012-05-28T13:51:55Z</time>
</trkpt>
<trkpt lat="46.280130000" lon="7.388650000">
  <ele>1271.599980</ele>
  <time>2012-05-28T13:51:56Z</time>
</trkpt>
<trkpt lat="46.280130000" lon="7.388340000">
  <ele>1271.599980</ele>
  <time>2012-05-28T13:52:03Z</time>
</trkpt>
<trkpt lat="46.280130000" lon="7.388300000">
  <ele>1272.040040</ele>
  <time>2012-05-28T13:52:04Z</time>
</trkpt>
<trkpt lat="46.280140000" lon="7.388250000">
  <ele>1272.479980</ele>
  <time>2012-05-28T13:52:05Z</time>
</trkpt>
<trkpt lat="46.280140000" lon="7.388210000">
  <ele>1272.920040</ele>
  <time>2012-05-28T13:52:06Z</time>
</trkpt>
<trkpt lat="46.280150000" lon="7.388170000">
  <ele>1273.359990</ele>
  <time>2012-05-28T13:52:07Z</time>
</trkpt>
<trkpt lat="46.280150000" lon="7.388130000">
  <ele>1273.800050</ele>
  <time>2012-05-28T13:52:08Z</time>
</trkpt>
<trkpt lat="46.280160000" lon="7.388050000">
  <ele>1273.800050</ele>
  <time>2012-05-28T13:52:10Z</time>
</trkpt>
<trkpt lat="46.280190000" lon="7.387930000">
  <ele>1275.057130</ele>
  <time>2012-05-28T13:52:14Z</time>
</trkpt>
<trkpt lat="46.280190000" lon="7.387890000">
  <ele>1275.371460</ele>
  <time>2012-05-28T13:52:15Z</time>
</trkpt>
<trkpt lat="46.280200000" lon="7.387850000">
  <ele>1275.685670</ele>
  <time>2012-05-28T13:52:16Z</time>
</trkpt>
<trkpt lat="46.280210000" lon="7.387810000">
  <ele>1276.000000</ele>
  <time>2012-05-28T13:52:17Z</time>
</trkpt>
<trkpt lat="46.280220000" lon="7.387780000">
  <ele>1276.000000</ele>
  <time>2012-05-28T13:52:18Z</time>
</trkpt>
<trkpt lat="46.280270000" lon="7.387620000">
  <ele>1277.099980</ele>
  <time>2012-05-28T13:52:22Z</time>
</trkpt>
<trkpt lat="46.280280000" lon="7.387590000">
  <ele>1277.375000</ele>
  <time>2012-05-28T13:52:23Z</time>
</trkpt>
<trkpt lat="46.280300000" lon="7.387550000">
  <ele>1277.649900</ele>
  <time>2012-05-28T13:52:24Z</time>
</trkpt>
<trkpt lat="46.280310000" lon="7.387510000">
  <ele>1277.924930</ele>
  <time>2012-05-28T13:52:25Z</time>
</trkpt>
<trkpt lat="46.280320000" lon="7.387460000">
  <ele>1278.199950</ele>
  <time>2012-05-28T13:52:26Z</time>
</trkpt>
<trkpt lat="46.280360000" lon="7.387300000">
  <ele>1278.199950</ele>
  <time>2012-05-28T13:52:30Z</time>
</trkpt>
<trkpt lat="46.280380000" lon="7.387250000">
  <ele>1278.514280</ele>
  <time>2012-05-28T13:52:31Z</time>
</trkpt>
<trkpt lat="46.280380000" lon="7.387200000">
  <ele>1278.828490</ele>
  <time>2012-05-28T13:52:32Z</time>
</trkpt>
<trkpt lat="46.280390000" lon="7.387150000">
  <ele>1279.142820</ele>
  <time>2012-05-28T13:52:33Z</time>
</trkpt>
<trkpt lat="46.280390000" lon="7.387100000">
  <ele>1279.457150</ele>
  <time>2012-05-28T13:52:34Z</time>
</trkpt>
<trkpt lat="46.280390000" lon="7.387050000">
  <ele>1279.771360</ele>
  <time>2012-05-28T13:52:35Z</time>
</trkpt>
<trkpt lat="46.280370000" lon="7.386790000">
  <ele>1281.657100</ele>
  <time>2012-05-28T13:52:41Z</time>
</trkpt>
<trkpt lat="46.280360000" lon="7.386750000">
  <ele>1281.971440</ele>
  <time>2012-05-28T13:52:42Z</time>
</trkpt>
<trkpt lat="46.280350000" lon="7.386710000">
  <ele>1282.285640</ele>
  <time>2012-05-28T13:52:43Z</time>
</trkpt>
<trkpt lat="46.280340000" lon="7.386670000">
  <ele>1282.599980</ele>
  <time>2012-05-28T13:52:44Z</time>
</trkpt>
<trkpt lat="46.280300000" lon="7.386520000">
  <ele>1282.599980</ele>
  <time>2012-05-28T13:52:48Z</time>
</trkpt>
<trkpt lat="46.280260000" lon="7.386370000">
  <ele>1283.713010</ele>
  <time>2012-05-28T13:52:52Z</time>
</trkpt>
<trkpt lat="46.280250000" lon="7.386330000">
  <ele>1283.991330</ele>
  <time>2012-05-28T13:52:53Z</time>
</trkpt>
<trkpt lat="46.280240000" lon="7.386300000">
  <ele>1284.269530</ele>
  <time>2012-05-28T13:52:54Z</time>
</trkpt>
<trkpt lat="46.280230000" lon="7.386260000">
  <ele>1284.547850</ele>
  <time>2012-05-28T13:52:55Z</time>
</trkpt>
<trkpt lat="46.280220000" lon="7.386220000">
  <ele>1284.826050</ele>
  <time>2012-05-28T13:52:56Z</time>
</trkpt>
<trkpt lat="46.280190000" lon="7.386110000">
  <ele>1285.660890</ele>
  <time>2012-05-28T13:52:59Z</time>
</trkpt>
<trkpt lat="46.280180000" lon="7.386070000">
  <ele>1285.939090</ele>
  <time>2012-05-28T13:53:00Z</time>
</trkpt>
<trkpt lat="46.280170000" lon="7.386030000">
  <ele>1286.217410</ele>
  <time>2012-05-28T13:53:01Z</time>
</trkpt>
<trkpt lat="46.280160000" lon="7.385990000">
  <ele>1286.495610</ele>
  <time>2012-05-28T13:53:02Z</time>
</trkpt>
<trkpt lat="46.280160000" lon="7.385950000">
  <ele>1286.773930</ele>
  <time>2012-05-28T13:53:03Z</time>
</trkpt>
<trkpt lat="46.280110000" lon="7.385800000">
  <ele>1287.886960</ele>
  <time>2012-05-28T13:53:07Z</time>
</trkpt>
<trkpt lat="46.280100000" lon="7.385760000">
  <ele>1288.165160</ele>
  <time>2012-05-28T13:53:08Z</time>
</trkpt>
<trkpt lat="46.280090000" lon="7.385710000">
  <ele>1288.443480</ele>
  <time>2012-05-28T13:53:09Z</time>
</trkpt>
<trkpt lat="46.280080000" lon="7.385670000">
  <ele>1288.721680</ele>
  <time>2012-05-28T13:53:10Z</time>
</trkpt>
<trkpt lat="46.280070000" lon="7.385640000">
  <ele>1289.000000</ele>
  <time>2012-05-28T13:53:11Z</time>
</trkpt>
<trkpt lat="46.280050000" lon="7.385560000">
  <ele>1289.000000</ele>
  <time>2012-05-28T13:53:13Z</time>
</trkpt>
<trkpt lat="46.279990000" lon="7.385330000">
  <ele>1290.459470</ele>
  <time>2012-05-28T13:53:19Z</time>
</trkpt>
<trkpt lat="46.279980000" lon="7.385290000">
  <ele>1290.702760</ele>
  <time>2012-05-28T13:53:20Z</time>
</trkpt>
<trkpt lat="46.279980000" lon="7.385250000">
  <ele>1290.945920</ele>
  <time>2012-05-28T13:53:21Z</time>
</trkpt>
<trkpt lat="46.279970000" lon="7.385210000">
  <ele>1291.189210</ele>
  <time>2012-05-28T13:53:22Z</time>
</trkpt>
<trkpt lat="46.279960000" lon="7.385170000">
  <ele>1291.432370</ele>
  <time>2012-05-28T13:53:23Z</time>
</trkpt>
<trkpt lat="46.279930000" lon="7.384980000">
  <ele>1292.648680</ele>
  <time>2012-05-28T13:53:28Z</time>
</trkpt>
<trkpt lat="46.279920000" lon="7.384940000">
  <ele>1292.891850</ele>
  <time>2012-05-28T13:53:29Z</time>
</trkpt>
<trkpt lat="46.279910000" lon="7.384900000">
  <ele>1293.135130</ele>
  <time>2012-05-28T13:53:30Z</time>
</trkpt>
<trkpt lat="46.279910000" lon="7.384860000">
  <ele>1293.378420</ele>
  <time>2012-05-28T13:53:31Z</time>
</trkpt>
<trkpt lat="46.279880000" lon="7.384620000">
  <ele>1294.837890</ele>
  <time>2012-05-28T13:53:37Z</time>
</trkpt>
<trkpt lat="46.279880000" lon="7.384580000">
  <ele>1295.081050</ele>
  <time>2012-05-28T13:53:38Z</time>
</trkpt>
<trkpt lat="46.279870000" lon="7.384540000">
  <ele>1295.324340</ele>
  <time>2012-05-28T13:53:39Z</time>
</trkpt>
<trkpt lat="46.279870000" lon="7.384490000">
  <ele>1295.567630</ele>
  <time>2012-05-28T13:53:40Z</time>
</trkpt>
<trkpt lat="46.279870000" lon="7.384460000">
  <ele>1295.810790</ele>
  <time>2012-05-28T13:53:41Z</time>
</trkpt>
<trkpt lat="46.279850000" lon="7.384260000">
  <ele>1297.026980</ele>
  <time>2012-05-28T13:53:46Z</time>
</trkpt>
<trkpt lat="46.279840000" lon="7.384220000">
  <ele>1297.270260</ele>
  <time>2012-05-28T13:53:47Z</time>
</trkpt>
<trkpt lat="46.279840000" lon="7.384180000">
  <ele>1297.513550</ele>
  <time>2012-05-28T13:53:48Z</time>
</trkpt>
<trkpt lat="46.279830000" lon="7.384140000">
  <ele>1297.756710</ele>
  <time>2012-05-28T13:53:49Z</time>
</trkpt>
<trkpt lat="46.279830000" lon="7.384100000">
  <ele>1298.000000</ele>
  <time>2012-05-28T13:53:50Z</time>
</trkpt>
<trkpt lat="46.279820000" lon="7.383940000">
  <ele>1298.000000</ele>
  <time>2012-05-28T13:53:54Z</time>
</trkpt>
<trkpt lat="46.279820000" lon="7.383900000">
  <ele>1298.500000</ele>
  <time>2012-05-28T13:53:55Z</time>
</trkpt>
<trkpt lat="46.279820000" lon="7.383860000">
  <ele>1299.000000</ele>
  <time>2012-05-28T13:53:56Z</time>
</trkpt>
<trkpt lat="46.279820000" lon="7.383810000">
  <ele>1299.500000</ele>
  <time>2012-05-28T13:53:57Z</time>
</trkpt>
<trkpt lat="46.279820000" lon="7.383770000">
  <ele>1300.000000</ele>
  <time>2012-05-28T13:53:58Z</time>
</trkpt>
<trkpt lat="46.279820000" lon="7.383630000">
  <ele>1300.000000</ele>
  <time>2012-05-28T13:54:01Z</time>
</trkpt>
<trkpt lat="46.279820000" lon="7.383540000">
  <ele>1300.559940</ele>
  <time>2012-05-28T13:54:03Z</time>
</trkpt>
<trkpt lat="46.279820000" lon="7.383500000">
  <ele>1300.839970</ele>
  <time>2012-05-28T13:54:04Z</time>
</trkpt>
<trkpt lat="46.279830000" lon="7.383460000">
  <ele>1301.120000</ele>
  <time>2012-05-28T13:54:05Z</time>
</trkpt>
<trkpt lat="46.279830000" lon="7.383420000">
  <ele>1301.400020</ele>
  <time>2012-05-28T13:54:06Z</time>
</trkpt>
<trkpt lat="46.279840000" lon="7.383390000">
  <ele>1301.679930</ele>
  <time>2012-05-28T13:54:07Z</time>
</trkpt>
<trkpt lat="46.279880000" lon="7.383210000">
  <ele>1303.079960</ele>
  <time>2012-05-28T13:54:12Z</time>
</trkpt>
<trkpt lat="46.279890000" lon="7.383170000">
  <ele>1303.359990</ele>
  <time>2012-05-28T13:54:13Z</time>
</trkpt>
<trkpt lat="46.279900000" lon="7.383130000">
  <ele>1303.640010</ele>
  <time>2012-05-28T13:54:14Z</time>
</trkpt>
<trkpt lat="46.279910000" lon="7.383100000">
  <ele>1303.919920</ele>
  <time>2012-05-28T13:54:15Z</time>
</trkpt>
<trkpt lat="46.279920000" lon="7.383060000">
  <ele>1304.199950</ele>
  <time>2012-05-28T13:54:16Z</time>
</trkpt>
<trkpt lat="46.279960000" lon="7.382940000">
  <ele>1304.199950</ele>
  <time>2012-05-28T13:54:19Z</time>
</trkpt>
<trkpt lat="46.279960000" lon="7.382890000">
  <ele>1304.699950</ele>
  <time>2012-05-28T13:54:20Z</time>
</trkpt>
<trkpt lat="46.279980000" lon="7.382840000">
  <ele>1305.199950</ele>
  <time>2012-05-28T13:54:21Z</time>
</trkpt>
<trkpt lat="46.279990000" lon="7.382800000">
  <ele>1305.699950</ele>
  <time>2012-05-28T13:54:22Z</time>
</trkpt>
<trkpt lat="46.280000000" lon="7.382760000">
  <ele>1306.199950</ele>
  <time>2012-05-28T13:54:23Z</time>
</trkpt>
<trkpt lat="46.280030000" lon="7.382620000">
  <ele>1306.199950</ele>
  <time>2012-05-28T13:54:26Z</time>
</trkpt>
<trkpt lat="46.280090000" lon="7.382490000">
  <ele>1307.199950</ele>
  <time>2012-05-28T13:54:30Z</time>
</trkpt>
<trkpt lat="46.280110000" lon="7.382460000">
  <ele>1307.449950</ele>
  <time>2012-05-28T13:54:31Z</time>
</trkpt>
<trkpt lat="46.280130000" lon="7.382420000">
  <ele>1307.699950</ele>
  <time>2012-05-28T13:54:32Z</time>
</trkpt>
<trkpt lat="46.280150000" lon="7.382390000">
  <ele>1307.949950</ele>
  <time>2012-05-28T13:54:33Z</time>
</trkpt>
<trkpt lat="46.280170000" lon="7.382370000">
  <ele>1308.199950</ele>
  <time>2012-05-28T13:54:34Z</time>
</trkpt>
<trkpt lat="46.280250000" lon="7.382310000">
  <ele>1308.199950</ele>
  <time>2012-05-28T13:54:37Z</time>
</trkpt>
<trkpt lat="46.280340000" lon="7.382260000">
  <ele>1308.967900</ele>
  <time>2012-05-28T13:54:40Z</time>
</trkpt>
<trkpt lat="46.280360000" lon="7.382250000">
  <ele>1309.224000</ele>
  <time>2012-05-28T13:54:41Z</time>
</trkpt>
<trkpt lat="46.280400000" lon="7.382240000">
  <ele>1309.479980</ele>
  <time>2012-05-28T13:54:42Z</time>
</trkpt>
<trkpt lat="46.280420000" lon="7.382230000">
  <ele>1309.735960</ele>
  <time>2012-05-28T13:54:43Z</time>
</trkpt>
<trkpt lat="46.280450000" lon="7.382230000">
  <ele>1309.991940</ele>
  <time>2012-05-28T13:54:44Z</time>
</trkpt>
<trkpt lat="46.280530000" lon="7.382240000">
  <ele>1310.760010</ele>
  <time>2012-05-28T13:54:47Z</time>
</trkpt>
<trkpt lat="46.280550000" lon="7.382240000">
  <ele>1311.015990</ele>
  <time>2012-05-28T13:54:48Z</time>
</trkpt>
<trkpt lat="46.280570000" lon="7.382250000">
  <ele>1311.271970</ele>
  <time>2012-05-28T13:54:49Z</time>
</trkpt>
<trkpt lat="46.280600000" lon="7.382250000">
  <ele>1311.527950</ele>
  <time>2012-05-28T13:54:50Z</time>
</trkpt>
<trkpt lat="46.280620000" lon="7.382250000">
  <ele>1311.783940</ele>
  <time>2012-05-28T13:54:51Z</time>
</trkpt>
<trkpt lat="46.280750000" lon="7.382260000">
  <ele>1313.063960</ele>
  <time>2012-05-28T13:54:56Z</time>
</trkpt>
<trkpt lat="46.280770000" lon="7.382270000">
  <ele>1313.319950</ele>
  <time>2012-05-28T13:54:57Z</time>
</trkpt>
<trkpt lat="46.280790000" lon="7.382280000">
  <ele>1313.575930</ele>
  <time>2012-05-28T13:54:58Z</time>
</trkpt>
<trkpt lat="46.280820000" lon="7.382280000">
  <ele>1313.832030</ele>
  <time>2012-05-28T13:54:59Z</time>
</trkpt>
<trkpt lat="46.280840000" lon="7.382290000">
  <ele>1314.088010</ele>
  <time>2012-05-28T13:55:00Z</time>
</trkpt>
<trkpt lat="46.281050000" lon="7.382330000">
  <ele>1316.135990</ele>
  <time>2012-05-28T13:55:08Z</time>
</trkpt>
<trkpt lat="46.281070000" lon="7.382330000">
  <ele>1316.391970</ele>
  <time>2012-05-28T13:55:09Z</time>
</trkpt>
<trkpt lat="46.281100000" lon="7.382320000">
  <ele>1316.647950</ele>
  <time>2012-05-28T13:55:10Z</time>
</trkpt>
<trkpt lat="46.281120000" lon="7.382320000">
  <ele>1316.903930</ele>
  <time>2012-05-28T13:55:11Z</time>
</trkpt>
<trkpt lat="46.281190000" lon="7.382320000">
  <ele>1317.672000</ele>
  <time>2012-05-28T13:55:14Z</time>
</trkpt>
<trkpt lat="46.281220000" lon="7.382310000">
  <ele>1317.927980</ele>
  <time>2012-05-28T13:55:15Z</time>
</trkpt>
<trkpt lat="46.281240000" lon="7.382310000">
  <ele>1318.183960</ele>
  <time>2012-05-28T13:55:16Z</time>
</trkpt>
<trkpt lat="46.281270000" lon="7.382300000">
  <ele>1318.439940</ele>
  <time>2012-05-28T13:55:17Z</time>
</trkpt>
<trkpt lat="46.281290000" lon="7.382290000">
  <ele>1318.696040</ele>
  <time>2012-05-28T13:55:18Z</time>
</trkpt>
<trkpt lat="46.281400000" lon="7.382200000">
  <ele>1319.975950</ele>
  <time>2012-05-28T13:55:23Z</time>
</trkpt>
<trkpt lat="46.281420000" lon="7.382180000">
  <ele>1320.232060</ele>
  <time>2012-05-28T13:55:24Z</time>
</trkpt>
<trkpt lat="46.281440000" lon="7.382160000">
  <ele>1320.488040</ele>
  <time>2012-05-28T13:55:25Z</time>
</trkpt>
<trkpt lat="46.281460000" lon="7.382140000">
  <ele>1320.744020</ele>
  <time>2012-05-28T13:55:26Z</time>
</trkpt>
<trkpt lat="46.281480000" lon="7.382120000">
  <ele>1321.000000</ele>
  <time>2012-05-28T13:55:27Z</time>
</trkpt>
<trkpt lat="46.281510000" lon="7.382080000">
  <ele>1321.000000</ele>
  <time>2012-05-28T13:55:29Z</time>
</trkpt>
<trkpt lat="46.281580000" lon="7.382010000">
  <ele>1321.959960</ele>
  <time>2012-05-28T13:55:32Z</time>
</trkpt>
<trkpt lat="46.281600000" lon="7.381980000">
  <ele>1322.280030</ele>
  <time>2012-05-28T13:55:33Z</time>
</trkpt>
<trkpt lat="46.281620000" lon="7.381960000">
  <ele>1322.599980</ele>
  <time>2012-05-28T13:55:34Z</time>
</trkpt>
<trkpt lat="46.281640000" lon="7.381940000">
  <ele>1322.920040</ele>
  <time>2012-05-28T13:55:35Z</time>
</trkpt>
<trkpt lat="46.281700000" lon="7.381890000">
  <ele>1323.880000</ele>
  <time>2012-05-28T13:55:38Z</time>
</trkpt>
<trkpt lat="46.281720000" lon="7.381870000">
  <ele>1324.199950</ele>
  <time>2012-05-28T13:55:39Z</time>
</trkpt>
<trkpt lat="46.281740000" lon="7.381840000">
  <ele>1324.520020</ele>
  <time>2012-05-28T13:55:40Z</time>
</trkpt>
<trkpt lat="46.281760000" lon="7.381820000">
  <ele>1324.839970</ele>
  <time>2012-05-28T13:55:41Z</time>
</trkpt>
<trkpt lat="46.281770000" lon="7.381800000">
  <ele>1325.160030</ele>
  <time>2012-05-28T13:55:42Z</time>
</trkpt>
<trkpt lat="46.281810000" lon="7.381710000">
  <ele>1326.120000</ele>
  <time>2012-05-28T13:55:45Z</time>
</trkpt>
<trkpt lat="46.281820000" lon="7.381670000">
  <ele>1326.440060</ele>
  <time>2012-05-28T13:55:46Z</time>
</trkpt>
<trkpt lat="46.281830000" lon="7.381630000">
  <ele>1326.760010</ele>
  <time>2012-05-28T13:55:47Z</time>
</trkpt>
<trkpt lat="46.281850000" lon="7.381590000">
  <ele>1327.080080</ele>
  <time>2012-05-28T13:55:48Z</time>
</trkpt>
<trkpt lat="46.281860000" lon="7.381550000">
  <ele>1327.400020</ele>
  <time>2012-05-28T13:55:49Z</time>
</trkpt>
<trkpt lat="46.281870000" lon="7.381480000">
  <ele>1327.400020</ele>
  <time>2012-05-28T13:55:51Z</time>
</trkpt>
<trkpt lat="46.281870000" lon="7.381350000">
  <ele>1328.289670</ele>
  <time>2012-05-28T13:55:54Z</time>
</trkpt>
<trkpt lat="46.281870000" lon="7.381310000">
  <ele>1328.586180</ele>
  <time>2012-05-28T13:55:55Z</time>
</trkpt>
<trkpt lat="46.281870000" lon="7.381270000">
  <ele>1328.882810</ele>
  <time>2012-05-28T13:55:56Z</time>
</trkpt>
<trkpt lat="46.281870000" lon="7.381230000">
  <ele>1329.179320</ele>
  <time>2012-05-28T13:55:57Z</time>
</trkpt>
<trkpt lat="46.281870000" lon="7.381190000">
  <ele>1329.475830</ele>
  <time>2012-05-28T13:55:58Z</time>
</trkpt>
<trkpt lat="46.281880000" lon="7.381120000">
  <ele>1330.068970</ele>
  <time>2012-05-28T13:56:00Z</time>
</trkpt>
<trkpt lat="46.281870000" lon="7.381080000">
  <ele>1330.365480</ele>
  <time>2012-05-28T13:56:01Z</time>
</trkpt>
<trkpt lat="46.281870000" lon="7.381040000">
  <ele>1330.662110</ele>
  <time>2012-05-28T13:56:02Z</time>
</trkpt>
<trkpt lat="46.281870000" lon="7.381010000">
  <ele>1330.958620</ele>
  <time>2012-05-28T13:56:03Z</time>
</trkpt>
<trkpt lat="46.281870000" lon="7.380970000">
  <ele>1331.255130</ele>
  <time>2012-05-28T13:56:04Z</time>
</trkpt>
<trkpt lat="46.281870000" lon="7.380820000">
  <ele>1332.441410</ele>
  <time>2012-05-28T13:56:08Z</time>
</trkpt>
<trkpt lat="46.281880000" lon="7.380790000">
  <ele>1332.737920</ele>
  <time>2012-05-28T13:56:09Z</time>
</trkpt>
<trkpt lat="46.281880000" lon="7.380750000">
  <ele>1333.034550</ele>
  <time>2012-05-28T13:56:10Z</time>
</trkpt>
<trkpt lat="46.281880000" lon="7.380710000">
  <ele>1333.331050</ele>
  <time>2012-05-28T13:56:11Z</time>
</trkpt>
<trkpt lat="46.281880000" lon="7.380670000">
  <ele>1333.627560</ele>
  <time>2012-05-28T13:56:12Z</time>
</trkpt>
<trkpt lat="46.281890000" lon="7.380530000">
  <ele>1334.813840</ele>
  <time>2012-05-28T13:56:16Z</time>
</trkpt>
<trkpt lat="46.281890000" lon="7.380490000">
  <ele>1335.110350</ele>
  <time>2012-05-28T13:56:17Z</time>
</trkpt>
<trkpt lat="46.281900000" lon="7.380450000">
  <ele>1335.406860</ele>
  <time>2012-05-28T13:56:18Z</time>
</trkpt>
<trkpt lat="46.281910000" lon="7.380420000">
  <ele>1335.703490</ele>
  <time>2012-05-28T13:56:19Z</time>
</trkpt>
<trkpt lat="46.281930000" lon="7.380390000">
  <ele>1336.000000</ele>
  <time>2012-05-28T13:56:20Z</time>
</trkpt>
<trkpt lat="46.281970000" lon="7.380370000">
  <ele>1336.000000</ele>
  <time>2012-05-28T13:56:22Z</time>
</trkpt>
<trkpt lat="46.282020000" lon="7.380420000">
  <ele>1336.880000</ele>
  <time>2012-05-28T13:56:24Z</time>
</trkpt>
<trkpt lat="46.282020000" lon="7.380450000">
  <ele>1337.319950</ele>
  <time>2012-05-28T13:56:25Z</time>
</trkpt>
<trkpt lat="46.282020000" lon="7.380490000">
  <ele>1337.760010</ele>
  <time>2012-05-28T13:56:26Z</time>
</trkpt>
<trkpt lat="46.282010000" lon="7.380520000">
  <ele>1338.199950</ele>
  <time>2012-05-28T13:56:27Z</time>
</trkpt>
<trkpt lat="46.281990000" lon="7.380590000">
  <ele>1338.199950</ele>
  <time>2012-05-28T13:56:29Z</time>
</trkpt>
<trkpt lat="46.281980000" lon="7.380620000">
  <ele>1338.485720</ele>
  <time>2012-05-28T13:56:30Z</time>
</trkpt>
<trkpt lat="46.281970000" lon="7.380690000">
  <ele>1339.057130</ele>
  <time>2012-05-28T13:56:32Z</time>
</trkpt>
<trkpt lat="46.281960000" lon="7.380730000">
  <ele>1339.342770</ele>
  <time>2012-05-28T13:56:33Z</time>
</trkpt>
<trkpt lat="46.281960000" lon="7.380770000">
  <ele>1339.628540</ele>
  <time>2012-05-28T13:56:34Z</time>
</trkpt>
<trkpt lat="46.281960000" lon="7.380810000">
  <ele>1339.914180</ele>
  <time>2012-05-28T13:56:35Z</time>
</trkpt>
<trkpt lat="46.281960000" lon="7.380850000">
  <ele>1340.199950</ele>
  <time>2012-05-28T13:56:36Z</time>
</trkpt>
<trkpt lat="46.281960000" lon="7.380880000">
  <ele>1340.199950</ele>
  <time>2012-05-28T13:56:37Z</time>
</trkpt>
<trkpt lat="46.281990000" lon="7.381030000">
  <ele>1341.300050</ele>
  <time>2012-05-28T13:56:41Z</time>
</trkpt>
<trkpt lat="46.282000000" lon="7.381060000">
  <ele>1341.574950</ele>
  <time>2012-05-28T13:56:42Z</time>
</trkpt>
<trkpt lat="46.282020000" lon="7.381100000">
  <ele>1341.849980</ele>
  <time>2012-05-28T13:56:43Z</time>
</trkpt>
<trkpt lat="46.282040000" lon="7.381140000">
  <ele>1342.125000</ele>
  <time>2012-05-28T13:56:44Z</time>
</trkpt>
<trkpt lat="46.282050000" lon="7.381170000">
  <ele>1342.400020</ele>
  <time>2012-05-28T13:56:45Z</time>
</trkpt>
<trkpt lat="46.282140000" lon="7.381270000">
  <ele>1342.400020</ele>
  <time>2012-05-28T13:56:49Z</time>
</trkpt>
<trkpt lat="46.282180000" lon="7.381310000">
  <ele>1343.133300</ele>
  <time>2012-05-28T13:56:51Z</time>
</trkpt>
<trkpt lat="46.282210000" lon="7.381330000">
  <ele>1343.500000</ele>
  <time>2012-05-28T13:56:52Z</time>
</trkpt>
<trkpt lat="46.282230000" lon="7.381360000">
  <ele>1343.866700</ele>
  <time>2012-05-28T13:56:53Z</time>
</trkpt>
<trkpt lat="46.282250000" lon="7.381390000">
  <ele>1344.233280</ele>
  <time>2012-05-28T13:56:54Z</time>
</trkpt>
<trkpt lat="46.282260000" lon="7.381420000">
  <ele>1344.599980</ele>
  <time>2012-05-28T13:56:55Z</time>
</trkpt>
<trkpt lat="46.282290000" lon="7.381480000">
  <ele>1344.599980</ele>
  <time>2012-05-28T13:56:57Z</time>
</trkpt>
<trkpt lat="46.282320000" lon="7.381540000">
  <ele>1345.266600</ele>
  <time>2012-05-28T13:56:59Z</time>
</trkpt>
<trkpt lat="46.282330000" lon="7.381580000">
  <ele>1345.599980</ele>
  <time>2012-05-28T13:57:00Z</time>
</trkpt>
<trkpt lat="46.282340000" lon="7.381620000">
  <ele>1345.933350</ele>
  <time>2012-05-28T13:57:01Z</time>
</trkpt>
<trkpt lat="46.282350000" lon="7.381650000">
  <ele>1346.266600</ele>
  <time>2012-05-28T13:57:02Z</time>
</trkpt>
<trkpt lat="46.282360000" lon="7.381680000">
  <ele>1346.599980</ele>
  <time>2012-05-28T13:57:03Z</time>
</trkpt>
<trkpt lat="46.282380000" lon="7.381710000">
  <ele>1346.599980</ele>
  <time>2012-05-28T13:57:04Z</time>
</trkpt>
<trkpt lat="46.282410000" lon="7.381800000">
  <ele>1347.542850</ele>
  <time>2012-05-28T13:57:07Z</time>
</trkpt>
<trkpt lat="46.282430000" lon="7.381830000">
  <ele>1347.857180</ele>
  <time>2012-05-28T13:57:08Z</time>
</trkpt>
<trkpt lat="46.282440000" lon="7.381870000">
  <ele>1348.171510</ele>
  <time>2012-05-28T13:57:09Z</time>
</trkpt>
<trkpt lat="46.282440000" lon="7.381900000">
  <ele>1348.485720</ele>
  <time>2012-05-28T13:57:10Z</time>
</trkpt>
<trkpt lat="46.282450000" lon="7.381920000">
  <ele>1348.800050</ele>
  <time>2012-05-28T13:57:11Z</time>
</trkpt>
<trkpt lat="46.282470000" lon="7.382020000">
  <ele>1348.800050</ele>
  <time>2012-05-28T13:57:14Z</time>
</trkpt>
<trkpt lat="46.282500000" lon="7.382090000">
  <ele>1349.466670</ele>
  <time>2012-05-28T13:57:16Z</time>
</trkpt>
<trkpt lat="46.282510000" lon="7.382130000">
  <ele>1349.800050</ele>
  <time>2012-05-28T13:57:17Z</time>
</trkpt>
<trkpt lat="46.282520000" lon="7.382160000">
  <ele>1350.133420</ele>
  <time>2012-05-28T13:57:18Z</time>
</trkpt>
<trkpt lat="46.282530000" lon="7.382190000">
  <ele>1350.466670</ele>
  <time>2012-05-28T13:57:19Z</time>
</trkpt>
<trkpt lat="46.282540000" lon="7.382210000">
  <ele>1350.800050</ele>
  <time>2012-05-28T13:57:20Z</time>
</trkpt>
<trkpt lat="46.282550000" lon="7.382280000">
  <ele>1350.800050</ele>
  <time>2012-05-28T13:57:22Z</time>
</trkpt>
<trkpt lat="46.282570000" lon="7.382320000">
  <ele>1351.150020</ele>
  <time>2012-05-28T13:57:23Z</time>
</trkpt>
<trkpt lat="46.282590000" lon="7.382350000">
  <ele>1351.500000</ele>
  <time>2012-05-28T13:57:24Z</time>
</trkpt>
<trkpt lat="46.282600000" lon="7.382390000">
  <ele>1351.850100</ele>
  <time>2012-05-28T13:57:25Z</time>
</trkpt>
<trkpt lat="46.282610000" lon="7.382420000">
  <ele>1352.200070</ele>
  <time>2012-05-28T13:57:26Z</time>
</trkpt>
<trkpt lat="46.282620000" lon="7.382460000">
  <ele>1352.550050</ele>
  <time>2012-05-28T13:57:27Z</time>
</trkpt>
<trkpt lat="46.282650000" lon="7.382550000">
  <ele>1353.599980</ele>
  <time>2012-05-28T13:57:30Z</time>
</trkpt>
<trkpt lat="46.282650000" lon="7.382580000">
  <ele>1353.949950</ele>
  <time>2012-05-28T13:57:31Z</time>
</trkpt>
<trkpt lat="46.282660000" lon="7.382610000">
  <ele>1354.300050</ele>
  <time>2012-05-28T13:57:32Z</time>
</trkpt>
<trkpt lat="46.282670000" lon="7.382650000">
  <ele>1354.650020</ele>
  <time>2012-05-28T13:57:33Z</time>
</trkpt>
<trkpt lat="46.282680000" lon="7.382680000">
  <ele>1355.000000</ele>
  <time>2012-05-28T13:57:34Z</time>
</trkpt>
<trkpt lat="46.282690000" lon="7.382710000">
  <ele>1355.000000</ele>
  <time>2012-05-28T13:57:35Z</time>
</trkpt>
<trkpt lat="46.282720000" lon="7.382810000">
  <ele>1356.099980</ele>
  <time>2012-05-28T13:57:38Z</time>
</trkpt>
<trkpt lat="46.282730000" lon="7.382840000">
  <ele>1356.466670</ele>
  <time>2012-05-28T13:57:39Z</time>
</trkpt>
<trkpt lat="46.282740000" lon="7.382870000">
  <ele>1356.833250</ele>
  <time>2012-05-28T13:57:40Z</time>
</trkpt>
<trkpt lat="46.282750000" lon="7.382900000">
  <ele>1357.199950</ele>
  <time>2012-05-28T13:57:41Z</time>
</trkpt>
<trkpt lat="46.282760000" lon="7.382960000">
  <ele>1357.199950</ele>
  <time>2012-05-28T13:57:43Z</time>
</trkpt>
<trkpt lat="46.282780000" lon="7.383030000">
  <ele>1357.933350</ele>
  <time>2012-05-28T13:57:45Z</time>
</trkpt>
<trkpt lat="46.282790000" lon="7.383060000">
  <ele>1358.300050</ele>
  <time>2012-05-28T13:57:46Z</time>
</trkpt>
<trkpt lat="46.282800000" lon="7.383090000">
  <ele>1358.666630</ele>
  <time>2012-05-28T13:57:47Z</time>
</trkpt>
<trkpt lat="46.282810000" lon="7.383120000">
  <ele>1359.033330</ele>
  <time>2012-05-28T13:57:48Z</time>
</trkpt>
<trkpt lat="46.282820000" lon="7.383160000">
  <ele>1359.400020</ele>
  <time>2012-05-28T13:57:49Z</time>
</trkpt>
<trkpt lat="46.282840000" lon="7.383190000">
  <ele>1359.400020</ele>
  <time>2012-05-28T13:57:50Z</time>
</trkpt>
<trkpt lat="46.282890000" lon="7.383340000">
  <ele>1360.719970</ele>
  <time>2012-05-28T13:57:55Z</time>
</trkpt>
<trkpt lat="46.282910000" lon="7.383370000">
  <ele>1360.984010</ele>
  <time>2012-05-28T13:57:56Z</time>
</trkpt>
<trkpt lat="46.282920000" lon="7.383400000">
  <ele>1361.248050</ele>
  <time>2012-05-28T13:57:57Z</time>
</trkpt>
<trkpt lat="46.282930000" lon="7.383440000">
  <ele>1361.511960</ele>
  <time>2012-05-28T13:57:58Z</time>
</trkpt>
<trkpt lat="46.282940000" lon="7.383460000">
  <ele>1361.776000</ele>
  <time>2012-05-28T13:57:59Z</time>
</trkpt>
<trkpt lat="46.282980000" lon="7.383550000">
  <ele>1362.567990</ele>
  <time>2012-05-28T13:58:02Z</time>
</trkpt>
<trkpt lat="46.282990000" lon="7.383590000">
  <ele>1362.832030</ele>
  <time>2012-05-28T13:58:03Z</time>
</trkpt>
<trkpt lat="46.283000000" lon="7.383620000">
  <ele>1363.096070</ele>
  <time>2012-05-28T13:58:04Z</time>
</trkpt>
<trkpt lat="46.283010000" lon="7.383650000">
  <ele>1363.359990</ele>
  <time>2012-05-28T13:58:05Z</time>
</trkpt>
<trkpt lat="46.283090000" lon="7.383830000">
  <ele>1364.943970</ele>
  <time>2012-05-28T13:58:11Z</time>
</trkpt>
<trkpt lat="46.283100000" lon="7.383850000">
  <ele>1365.208010</ele>
  <time>2012-05-28T13:58:12Z</time>
</trkpt>
<trkpt lat="46.283120000" lon="7.383880000">
  <ele>1365.472050</ele>
  <time>2012-05-28T13:58:13Z</time>
</trkpt>
<trkpt lat="46.283130000" lon="7.383910000">
  <ele>1365.735960</ele>
  <time>2012-05-28T13:58:14Z</time>
</trkpt>
<trkpt lat="46.283140000" lon="7.383940000">
  <ele>1366.000000</ele>
  <time>2012-05-28T13:58:15Z</time>
</trkpt>
<trkpt lat="46.283200000" lon="7.384070000">
  <ele>1366.000000</ele>
  <time>2012-05-28T13:58:19Z</time>
</trkpt>
<trkpt lat="46.283230000" lon="7.384130000">
  <ele>1366.733280</ele>
  <time>2012-05-28T13:58:21Z</time>
</trkpt>
<trkpt lat="46.283240000" lon="7.384160000">
  <ele>1367.099980</ele>
  <time>2012-05-28T13:58:22Z</time>
</trkpt>
<trkpt lat="46.283250000" lon="7.384190000">
  <ele>1367.466670</ele>
  <time>2012-05-28T13:58:23Z</time>
</trkpt>
<trkpt lat="46.283260000" lon="7.384210000">
  <ele>1367.833250</ele>
  <time>2012-05-28T13:58:24Z</time>
</trkpt>
<trkpt lat="46.283280000" lon="7.384240000">
  <ele>1368.199950</ele>
  <time>2012-05-28T13:58:25Z</time>
</trkpt>
<trkpt lat="46.283300000" lon="7.384300000">
  <ele>1368.199950</ele>
  <time>2012-05-28T13:58:27Z</time>
</trkpt>
<trkpt lat="46.283310000" lon="7.384330000">
  <ele>1368.599980</ele>
  <time>2012-05-28T13:58:28Z</time>
</trkpt>
<trkpt lat="46.283330000" lon="7.384360000">
  <ele>1369.000000</ele>
  <time>2012-05-28T13:58:29Z</time>
</trkpt>
<trkpt lat="46.283340000" lon="7.384390000">
  <ele>1369.399900</ele>
  <time>2012-05-28T13:58:30Z</time>
</trkpt>
<trkpt lat="46.283350000" lon="7.384410000">
  <ele>1369.799930</ele>
  <time>2012-05-28T13:58:31Z</time>
</trkpt>
<trkpt lat="46.283370000" lon="7.384440000">
  <ele>1370.199950</ele>
  <time>2012-05-28T13:58:32Z</time>
</trkpt>
<trkpt lat="46.283410000" lon="7.384520000">
  <ele>1370.199950</ele>
  <time>2012-05-28T13:58:35Z</time>
</trkpt>
<trkpt lat="46.283420000" lon="7.384550000">
  <ele>1370.523070</ele>
  <time>2012-05-28T13:58:36Z</time>
</trkpt>
<trkpt lat="46.283430000" lon="7.384580000">
  <ele>1370.846070</ele>
  <time>2012-05-28T13:58:37Z</time>
</trkpt>
<trkpt lat="46.283450000" lon="7.384610000">
  <ele>1371.169190</ele>
  <time>2012-05-28T13:58:38Z</time>
</trkpt>
<trkpt lat="46.283460000" lon="7.384640000">
  <ele>1371.492310</ele>
  <time>2012-05-28T13:58:39Z</time>
</trkpt>
<trkpt lat="46.283470000" lon="7.384670000">
  <ele>1371.815310</ele>
  <time>2012-05-28T13:58:40Z</time>
</trkpt>
<trkpt lat="46.283520000" lon="7.384750000">
  <ele>1372.784550</ele>
  <time>2012-05-28T13:58:43Z</time>
</trkpt>
<trkpt lat="46.283540000" lon="7.384780000">
  <ele>1373.107670</ele>
  <time>2012-05-28T13:58:44Z</time>
</trkpt>
<trkpt lat="46.283550000" lon="7.384800000">
  <ele>1373.430790</ele>
  <time>2012-05-28T13:58:45Z</time>
</trkpt>
<trkpt lat="46.283570000" lon="7.384830000">
  <ele>1373.753780</ele>
  <time>2012-05-28T13:58:46Z</time>
</trkpt>
<trkpt lat="46.283580000" lon="7.384860000">
  <ele>1374.076900</ele>
  <time>2012-05-28T13:58:47Z</time>
</trkpt>
<trkpt lat="46.283670000" lon="7.384990000">
  <ele>1375.692260</ele>
  <time>2012-05-28T13:58:52Z</time>
</trkpt>
<trkpt lat="46.283690000" lon="7.385020000">
  <ele>1376.015380</ele>
  <time>2012-05-28T13:58:53Z</time>
</trkpt>
<trkpt lat="46.283710000" lon="7.385040000">
  <ele>1376.338380</ele>
  <time>2012-05-28T13:58:54Z</time>
</trkpt>
<trkpt lat="46.283730000" lon="7.385070000">
  <ele>1376.661500</ele>
  <time>2012-05-28T13:58:55Z</time>
</trkpt>
<trkpt lat="46.283760000" lon="7.385110000">
  <ele>1377.307620</ele>
  <time>2012-05-28T13:58:57Z</time>
</trkpt>
<trkpt lat="46.283780000" lon="7.385140000">
  <ele>1377.630740</ele>
  <time>2012-05-28T13:58:58Z</time>
</trkpt>
<trkpt lat="46.283800000" lon="7.385160000">
  <ele>1377.953860</ele>
  <time>2012-05-28T13:58:59Z</time>
</trkpt>
<trkpt lat="46.283820000" lon="7.385190000">
  <ele>1378.276860</ele>
  <time>2012-05-28T13:59:00Z</time>
</trkpt>
<trkpt lat="46.283840000" lon="7.385210000">
  <ele>1378.599980</ele>
  <time>2012-05-28T13:59:01Z</time>
</trkpt>
<trkpt lat="46.283980000" lon="7.385370000">
  <ele>1378.599980</ele>
  <time>2012-05-28T13:59:08Z</time>
</trkpt>
<trkpt lat="46.284020000" lon="7.385410000">
  <ele>1379.180420</ele>
  <time>2012-05-28T13:59:10Z</time>
</trkpt>
<trkpt lat="46.284030000" lon="7.385440000">
  <ele>1379.470580</ele>
  <time>2012-05-28T13:59:11Z</time>
</trkpt>
<trkpt lat="46.284050000" lon="7.385460000">
  <ele>1379.760740</ele>
  <time>2012-05-28T13:59:12Z</time>
</trkpt>
<trkpt lat="46.284070000" lon="7.385480000">
  <ele>1380.050900</ele>
  <time>2012-05-28T13:59:13Z</time>
</trkpt>
<trkpt lat="46.284090000" lon="7.385500000">
  <ele>1380.341190</ele>
  <time>2012-05-28T13:59:14Z</time>
</trkpt>
<trkpt lat="46.284130000" lon="7.385540000">
  <ele>1380.921510</ele>
  <time>2012-05-28T13:59:16Z</time>
</trkpt>
<trkpt lat="46.284150000" lon="7.385560000">
  <ele>1381.211790</ele>
  <time>2012-05-28T13:59:17Z</time>
</trkpt>
<trkpt lat="46.284170000" lon="7.385590000">
  <ele>1381.501950</ele>
  <time>2012-05-28T13:59:18Z</time>
</trkpt>
<trkpt lat="46.284180000" lon="7.385610000">
  <ele>1381.792110</ele>
  <time>2012-05-28T13:59:19Z</time>
</trkpt>
<trkpt lat="46.284240000" lon="7.385670000">
  <ele>1382.662720</ele>
  <time>2012-05-28T13:59:22Z</time>
</trkpt>
<trkpt lat="46.284260000" lon="7.385700000">
  <ele>1382.952880</ele>
  <time>2012-05-28T13:59:23Z</time>
</trkpt>
<trkpt lat="46.284280000" lon="7.385720000">
  <ele>1383.243160</ele>
  <time>2012-05-28T13:59:24Z</time>
</trkpt>
<trkpt lat="46.284300000" lon="7.385740000">
  <ele>1383.533330</ele>
  <time>2012-05-28T13:59:25Z</time>
</trkpt>
<trkpt lat="46.284320000" lon="7.385770000">
  <ele>1383.823490</ele>
  <time>2012-05-28T13:59:26Z</time>
</trkpt>
<trkpt lat="46.284390000" lon="7.385860000">
  <ele>1384.984250</ele>
  <time>2012-05-28T13:59:30Z</time>
</trkpt>
<trkpt lat="46.284410000" lon="7.385880000">
  <ele>1385.274540</ele>
  <time>2012-05-28T13:59:31Z</time>
</trkpt>
<trkpt lat="46.284420000" lon="7.385910000">
  <ele>1385.564700</ele>
  <time>2012-05-28T13:59:32Z</time>
</trkpt>
<trkpt lat="46.284450000" lon="7.385930000">
  <ele>1385.854860</ele>
  <time>2012-05-28T13:59:33Z</time>
</trkpt>
<trkpt lat="46.284470000" lon="7.385960000">
  <ele>1386.145140</ele>
  <time>2012-05-28T13:59:34Z</time>
</trkpt>
<trkpt lat="46.284560000" lon="7.386070000">
  <ele>1387.596070</ele>
  <time>2012-05-28T13:59:39Z</time>
</trkpt>
<trkpt lat="46.284590000" lon="7.386090000">
  <ele>1387.886230</ele>
  <time>2012-05-28T13:59:40Z</time>
</trkpt>
<trkpt lat="46.284610000" lon="7.386110000">
  <ele>1388.176510</ele>
  <time>2012-05-28T13:59:41Z</time>
</trkpt>
<trkpt lat="46.284630000" lon="7.386130000">
  <ele>1388.466670</ele>
  <time>2012-05-28T13:59:42Z</time>
</trkpt>
<trkpt lat="46.284710000" lon="7.386230000">
  <ele>1389.627440</ele>
  <time>2012-05-28T13:59:46Z</time>
</trkpt>
<trkpt lat="46.284730000" lon="7.386260000">
  <ele>1389.917600</ele>
  <time>2012-05-28T13:59:47Z</time>
</trkpt>
<trkpt lat="46.284750000" lon="7.386280000">
  <ele>1390.207890</ele>
  <time>2012-05-28T13:59:48Z</time>
</trkpt>
<trkpt lat="46.284770000" lon="7.386310000">
  <ele>1390.498050</ele>
  <time>2012-05-28T13:59:49Z</time>
</trkpt>
<trkpt lat="46.284790000" lon="7.386330000">
  <ele>1390.788210</ele>
  <time>2012-05-28T13:59:50Z</time>
</trkpt>
<trkpt lat="46.284880000" lon="7.386480000">
  <ele>1392.239260</ele>
  <time>2012-05-28T13:59:55Z</time>
</trkpt>
<trkpt lat="46.284900000" lon="7.386510000">
  <ele>1392.529420</ele>
  <time>2012-05-28T13:59:56Z</time>
</trkpt>
<trkpt lat="46.284920000" lon="7.386530000">
  <ele>1392.819580</ele>
  <time>2012-05-28T13:59:57Z</time>
</trkpt>
<trkpt lat="46.284940000" lon="7.386560000">
  <ele>1393.109860</ele>
  <time>2012-05-28T13:59:58Z</time>
</trkpt>
<trkpt lat="46.284960000" lon="7.386590000">
  <ele>1393.400020</ele>
  <time>2012-05-28T13:59:59Z</time>
</trkpt>
<trkpt lat="46.285030000" lon="7.386720000">
  <ele>1393.400020</ele>
  <time>2012-05-28T14:00:03Z</time>
</trkpt>
<trkpt lat="46.285070000" lon="7.386830000">
  <ele>1394.400020</ele>
  <time>2012-05-28T14:00:06Z</time>
</trkpt>
<trkpt lat="46.285090000" lon="7.386860000">
  <ele>1394.733400</ele>
  <time>2012-05-28T14:00:07Z</time>
</trkpt>
<trkpt lat="46.285100000" lon="7.386890000">
  <ele>1395.066650</ele>
  <time>2012-05-28T14:00:08Z</time>
</trkpt>
<trkpt lat="46.285120000" lon="7.386930000">
  <ele>1395.400020</ele>
  <time>2012-05-28T14:00:09Z</time>
</trkpt>
<trkpt lat="46.285150000" lon="7.386990000">
  <ele>1395.400020</ele>
  <time>2012-05-28T14:00:11Z</time>
</trkpt>
<trkpt lat="46.285220000" lon="7.387110000">
  <ele>1396.415410</ele>
  <time>2012-05-28T14:00:15Z</time>
</trkpt>
<trkpt lat="46.285240000" lon="7.387140000">
  <ele>1396.669190</ele>
  <time>2012-05-28T14:00:16Z</time>
</trkpt>
<trkpt lat="46.285260000" lon="7.387170000">
  <ele>1396.923100</ele>
  <time>2012-05-28T14:00:17Z</time>
</trkpt>
<trkpt lat="46.285270000" lon="7.387200000">
  <ele>1397.177000</ele>
  <time>2012-05-28T14:00:18Z</time>
</trkpt>
<trkpt lat="46.285290000" lon="7.387230000">
  <ele>1397.430790</ele>
  <time>2012-05-28T14:00:19Z</time>
</trkpt>
<trkpt lat="46.285360000" lon="7.387390000">
  <ele>1398.699950</ele>
  <time>2012-05-28T14:00:24Z</time>
</trkpt>
<trkpt lat="46.285380000" lon="7.387420000">
  <ele>1398.953860</ele>
  <time>2012-05-28T14:00:25Z</time>
</trkpt>
<trkpt lat="46.285390000" lon="7.387450000">
  <ele>1399.207760</ele>
  <time>2012-05-28T14:00:26Z</time>
</trkpt>
<trkpt lat="46.285400000" lon="7.387480000">
  <ele>1399.461550</ele>
  <time>2012-05-28T14:00:27Z</time>
</trkpt>
<trkpt lat="46.285420000" lon="7.387510000">
  <ele>1399.715330</ele>
  <time>2012-05-28T14:00:28Z</time>
</trkpt>
<trkpt lat="46.285500000" lon="7.387660000">
  <ele>1400.984620</ele>
  <time>2012-05-28T14:00:33Z</time>
</trkpt>
<trkpt lat="46.285510000" lon="7.387680000">
  <ele>1401.238530</ele>
  <time>2012-05-28T14:00:34Z</time>
</trkpt>
<trkpt lat="46.285530000" lon="7.387710000">
  <ele>1401.492310</ele>
  <time>2012-05-28T14:00:35Z</time>
</trkpt>
<trkpt lat="46.285550000" lon="7.387730000">
  <ele>1401.746090</ele>
  <time>2012-05-28T14:00:36Z</time>
</trkpt>
<trkpt lat="46.285560000" lon="7.387770000">
  <ele>1402.000000</ele>
  <time>2012-05-28T14:00:37Z</time>
</trkpt>
<trkpt lat="46.285620000" lon="7.387890000">
  <ele>1402.000000</ele>
  <time>2012-05-28T14:00:41Z</time>
</trkpt>
<trkpt lat="46.285640000" lon="7.387920000">
  <ele>1402.333370</ele>
  <time>2012-05-28T14:00:42Z</time>
</trkpt>
<trkpt lat="46.285660000" lon="7.387950000">
  <ele>1402.666630</ele>
  <time>2012-05-28T14:00:43Z</time>
</trkpt>
<trkpt lat="46.285680000" lon="7.387980000">
  <ele>1403.000000</ele>
  <time>2012-05-28T14:00:44Z</time>
</trkpt>
<trkpt lat="46.285690000" lon="7.388020000">
  <ele>1403.333370</ele>
  <time>2012-05-28T14:00:45Z</time>
</trkpt>
<trkpt lat="46.285710000" lon="7.388050000">
  <ele>1403.666630</ele>
  <time>2012-05-28T14:00:46Z</time>
</trkpt>
<trkpt lat="46.285730000" lon="7.388080000">
  <ele>1404.000000</ele>
  <time>2012-05-28T14:00:47Z</time>
</trkpt>
<trkpt lat="46.285780000" lon="7.388180000">
  <ele>1404.000000</ele>
  <time>2012-05-28T14:00:50Z</time>
</trkpt>
<trkpt lat="46.285840000" lon="7.388270000">
  <ele>1405.099980</ele>
  <time>2012-05-28T14:00:53Z</time>
</trkpt>
<trkpt lat="46.285850000" lon="7.388300000">
  <ele>1405.466670</ele>
  <time>2012-05-28T14:00:54Z</time>
</trkpt>
<trkpt lat="46.285860000" lon="7.388330000">
  <ele>1405.833250</ele>
  <time>2012-05-28T14:00:55Z</time>
</trkpt>
<trkpt lat="46.285880000" lon="7.388360000">
  <ele>1406.199950</ele>
  <time>2012-05-28T14:00:56Z</time>
</trkpt>
<trkpt lat="46.285890000" lon="7.388390000">
  <ele>1406.199950</ele>
  <time>2012-05-28T14:00:57Z</time>
</trkpt>
<trkpt lat="46.285960000" lon="7.388510000">
  <ele>1407.184570</ele>
  <time>2012-05-28T14:01:01Z</time>
</trkpt>
<trkpt lat="46.285970000" lon="7.388540000">
  <ele>1407.430660</ele>
  <time>2012-05-28T14:01:02Z</time>
</trkpt>
<trkpt lat="46.285990000" lon="7.388570000">
  <ele>1407.676880</ele>
  <time>2012-05-28T14:01:03Z</time>
</trkpt>
<trkpt lat="46.286000000" lon="7.388600000">
  <ele>1407.923100</ele>
  <time>2012-05-28T14:01:04Z</time>
</trkpt>
<trkpt lat="46.286020000" lon="7.388640000">
  <ele>1408.169190</ele>
  <time>2012-05-28T14:01:05Z</time>
</trkpt>
<trkpt lat="46.286120000" lon="7.388820000">
  <ele>1409.646120</ele>
  <time>2012-05-28T14:01:11Z</time>
</trkpt>
<trkpt lat="46.286140000" lon="7.388850000">
  <ele>1409.892330</ele>
  <time>2012-05-28T14:01:12Z</time>
</trkpt>
<trkpt lat="46.286160000" lon="7.388890000">
  <ele>1410.138430</ele>
  <time>2012-05-28T14:01:13Z</time>
</trkpt>
<trkpt lat="46.286170000" lon="7.388920000">
  <ele>1410.384520</ele>
  <time>2012-05-28T14:01:14Z</time>
</trkpt>
<trkpt lat="46.286190000" lon="7.388950000">
  <ele>1410.630740</ele>
  <time>2012-05-28T14:01:15Z</time>
</trkpt>
<trkpt lat="46.286260000" lon="7.389110000">
  <ele>1411.861570</ele>
  <time>2012-05-28T14:01:20Z</time>
</trkpt>
<trkpt lat="46.286270000" lon="7.389140000">
  <ele>1412.107670</ele>
  <time>2012-05-28T14:01:21Z</time>
</trkpt>
<trkpt lat="46.286280000" lon="7.389180000">
  <ele>1412.353760</ele>
  <time>2012-05-28T14:01:22Z</time>
</trkpt>
<trkpt lat="46.286290000" lon="7.389220000">
  <ele>1412.599980</ele>
  <time>2012-05-28T14:01:23Z</time>
</trkpt>
<trkpt lat="46.286350000" lon="7.389340000">
  <ele>1412.599980</ele>
  <time>2012-05-28T14:01:27Z</time>
</trkpt>
<trkpt lat="46.286360000" lon="7.389370000">
  <ele>1413.040040</ele>
  <time>2012-05-28T14:01:28Z</time>
</trkpt>
<trkpt lat="46.286370000" lon="7.389410000">
  <ele>1413.479980</ele>
  <time>2012-05-28T14:01:29Z</time>
</trkpt>
<trkpt lat="46.286390000" lon="7.389440000">
  <ele>1413.920040</ele>
  <time>2012-05-28T14:01:30Z</time>
</trkpt>
<trkpt lat="46.286400000" lon="7.389470000">
  <ele>1414.359990</ele>
  <time>2012-05-28T14:01:31Z</time>
</trkpt>
<trkpt lat="46.286420000" lon="7.389500000">
  <ele>1414.800050</ele>
  <time>2012-05-28T14:01:32Z</time>
</trkpt>
<trkpt lat="46.286440000" lon="7.389570000">
  <ele>1414.800050</ele>
  <time>2012-05-28T14:01:34Z</time>
</trkpt>
<trkpt lat="46.286510000" lon="7.389700000">
  <ele>1415.835330</ele>
  <time>2012-05-28T14:01:38Z</time>
</trkpt>
<trkpt lat="46.286530000" lon="7.389730000">
  <ele>1416.094120</ele>
  <time>2012-05-28T14:01:39Z</time>
</trkpt>
<trkpt lat="46.286550000" lon="7.389760000">
  <ele>1416.352910</ele>
  <time>2012-05-28T14:01:40Z</time>
</trkpt>
<trkpt lat="46.286570000" lon="7.389780000">
  <ele>1416.611820</ele>
  <time>2012-05-28T14:01:41Z</time>
</trkpt>
<trkpt lat="46.286590000" lon="7.389810000">
  <ele>1416.870610</ele>
  <time>2012-05-28T14:01:42Z</time>
</trkpt>
<trkpt lat="46.286690000" lon="7.389940000">
  <ele>1418.164670</ele>
  <time>2012-05-28T14:01:47Z</time>
</trkpt>
<trkpt lat="46.286710000" lon="7.389960000">
  <ele>1418.423460</ele>
  <time>2012-05-28T14:01:48Z</time>
</trkpt>
<trkpt lat="46.286740000" lon="7.389980000">
  <ele>1418.682370</ele>
  <time>2012-05-28T14:01:49Z</time>
</trkpt>
<trkpt lat="46.286750000" lon="7.390010000">
  <ele>1418.941160</ele>
  <time>2012-05-28T14:01:50Z</time>
</trkpt>
<trkpt lat="46.286780000" lon="7.390030000">
  <ele>1419.199950</ele>
  <time>2012-05-28T14:01:51Z</time>
</trkpt>
<trkpt lat="46.286870000" lon="7.390130000">
  <ele>1419.199950</ele>
  <time>2012-05-28T14:01:55Z</time>
</trkpt>
<trkpt lat="46.286880000" lon="7.390160000">
  <ele>1419.599980</ele>
  <time>2012-05-28T14:01:56Z</time>
</trkpt>
<trkpt lat="46.286910000" lon="7.390180000">
  <ele>1420.000000</ele>
  <time>2012-05-28T14:01:57Z</time>
</trkpt>
<trkpt lat="46.286930000" lon="7.390200000">
  <ele>1420.399900</ele>
  <time>2012-05-28T14:01:58Z</time>
</trkpt>
<trkpt lat="46.286950000" lon="7.390230000">
  <ele>1420.799930</ele>
  <time>2012-05-28T14:01:59Z</time>
</trkpt>
<trkpt lat="46.286970000" lon="7.390250000">
  <ele>1421.199950</ele>
  <time>2012-05-28T14:02:00Z</time>
</trkpt>
<trkpt lat="46.286990000" lon="7.390280000">
  <ele>1421.199950</ele>
  <time>2012-05-28T14:02:01Z</time>
</trkpt>
<trkpt lat="46.287090000" lon="7.390370000">
  <ele>1422.266600</ele>
  <time>2012-05-28T14:02:05Z</time>
</trkpt>
<trkpt lat="46.287110000" lon="7.390390000">
  <ele>1422.533330</ele>
  <time>2012-05-28T14:02:06Z</time>
</trkpt>
<trkpt lat="46.287140000" lon="7.390410000">
  <ele>1422.799930</ele>
  <time>2012-05-28T14:02:07Z</time>
</trkpt>
<trkpt lat="46.287160000" lon="7.390440000">
  <ele>1423.066650</ele>
  <time>2012-05-28T14:02:08Z</time>
</trkpt>
<trkpt lat="46.287180000" lon="7.390460000">
  <ele>1423.333250</ele>
  <time>2012-05-28T14:02:09Z</time>
</trkpt>
<trkpt lat="46.287250000" lon="7.390520000">
  <ele>1424.133300</ele>
  <time>2012-05-28T14:02:12Z</time>
</trkpt>
<trkpt lat="46.287270000" lon="7.390550000">
  <ele>1424.399900</ele>
  <time>2012-05-28T14:02:13Z</time>
</trkpt>
<trkpt lat="46.287290000" lon="7.390570000">
  <ele>1424.666630</ele>
  <time>2012-05-28T14:02:14Z</time>
</trkpt>
<trkpt lat="46.287310000" lon="7.390590000">
  <ele>1424.933230</ele>
  <time>2012-05-28T14:02:15Z</time>
</trkpt>
<trkpt lat="46.287330000" lon="7.390610000">
  <ele>1425.199950</ele>
  <time>2012-05-28T14:02:16Z</time>
</trkpt>
<trkpt lat="46.287440000" lon="7.390740000">
  <ele>1425.199950</ele>
  <time>2012-05-28T14:02:21Z</time>
</trkpt>
<trkpt lat="46.287460000" lon="7.390760000">
  <ele>1425.640010</ele>
  <time>2012-05-28T14:02:22Z</time>
</trkpt>
<trkpt lat="46.287480000" lon="7.390790000">
  <ele>1426.079960</ele>
  <time>2012-05-28T14:02:23Z</time>
</trkpt>
<trkpt lat="46.287510000" lon="7.390810000">
  <ele>1426.520020</ele>
  <time>2012-05-28T14:02:24Z</time>
</trkpt>
<trkpt lat="46.287530000" lon="7.390830000">
  <ele>1426.959960</ele>
  <time>2012-05-28T14:02:25Z</time>
</trkpt>
<trkpt lat="46.287550000" lon="7.390870000">
  <ele>1427.400020</ele>
  <time>2012-05-28T14:02:26Z</time>
</trkpt>
<trkpt lat="46.287580000" lon="7.390920000">
  <ele>1427.400020</ele>
  <time>2012-05-28T14:02:28Z</time>
</trkpt>
<trkpt lat="46.287690000" lon="7.391040000">
  <ele>1428.775020</ele>
  <time>2012-05-28T14:02:33Z</time>
</trkpt>
<trkpt lat="46.287720000" lon="7.391070000">
  <ele>1429.050050</ele>
  <time>2012-05-28T14:02:34Z</time>
</trkpt>
<trkpt lat="46.287740000" lon="7.391090000">
  <ele>1429.324950</ele>
  <time>2012-05-28T14:02:35Z</time>
</trkpt>
<trkpt lat="46.287760000" lon="7.391120000">
  <ele>1429.599980</ele>
  <time>2012-05-28T14:02:36Z</time>
</trkpt>
<trkpt lat="46.287780000" lon="7.391130000">
  <ele>1429.599980</ele>
  <time>2012-05-28T14:02:37Z</time>
</trkpt>
<trkpt lat="46.287900000" lon="7.391130000">
  <ele>1430.400020</ele>
  <time>2012-05-28T14:02:41Z</time>
</trkpt>
<trkpt lat="46.287940000" lon="7.391050000">
  <ele>1431.000000</ele>
  <time>2012-05-28T14:02:44Z</time>
</trkpt>
<trkpt lat="46.287950000" lon="7.391000000">
  <ele>1431.200070</ele>
  <time>2012-05-28T14:02:45Z</time>
</trkpt>
<trkpt lat="46.287960000" lon="7.390950000">
  <ele>1431.400020</ele>
  <time>2012-05-28T14:02:46Z</time>
</trkpt>
<trkpt lat="46.287940000" lon="7.390920000">
  <ele>1431.600100</ele>
  <time>2012-05-28T14:02:47Z</time>
</trkpt>
<trkpt lat="46.287920000" lon="7.390880000">
  <ele>1431.800050</ele>
  <time>2012-05-28T14:02:48Z</time>
</trkpt>
<trkpt lat="46.287900000" lon="7.390840000">
  <ele>1431.800050</ele>
  <time>2012-05-28T14:02:49Z</time>
</trkpt>
<trkpt lat="46.287800000" lon="7.390680000">
  <ele>1432.800050</ele>
  <time>2012-05-28T14:02:54Z</time>
</trkpt>
<trkpt lat="46.287750000" lon="7.390570000">
  <ele>1433.400020</ele>
  <time>2012-05-28T14:02:57Z</time>
</trkpt>
<trkpt lat="46.287740000" lon="7.390540000">
  <ele>1433.599980</ele>
  <time>2012-05-28T14:02:58Z</time>
</trkpt>
<trkpt lat="46.287730000" lon="7.390500000">
  <ele>1433.800050</ele>
  <time>2012-05-28T14:02:59Z</time>
</trkpt>
<trkpt lat="46.287720000" lon="7.390460000">
  <ele>1434.000000</ele>
  <time>2012-05-28T14:03:00Z</time>
</trkpt>
<trkpt lat="46.287690000" lon="7.390230000">
  <ele>1434.000000</ele>
  <time>2012-05-28T14:03:06Z</time>
</trkpt>
<trkpt lat="46.287680000" lon="7.390200000">
  <ele>1434.439940</ele>
  <time>2012-05-28T14:03:07Z</time>
</trkpt>
<trkpt lat="46.287670000" lon="7.390160000">
  <ele>1434.880000</ele>
  <time>2012-05-28T14:03:08Z</time>
</trkpt>
<trkpt lat="46.287670000" lon="7.390130000">
  <ele>1435.319950</ele>
  <time>2012-05-28T14:03:09Z</time>
</trkpt>
<trkpt lat="46.287650000" lon="7.390090000">
  <ele>1435.760010</ele>
  <time>2012-05-28T14:03:10Z</time>
</trkpt>
<trkpt lat="46.287640000" lon="7.390050000">
  <ele>1436.199950</ele>
  <time>2012-05-28T14:03:11Z</time>
</trkpt>
<trkpt lat="46.287620000" lon="7.389970000">
  <ele>1436.199950</ele>
  <time>2012-05-28T14:03:13Z</time>
</trkpt>
<trkpt lat="46.287600000" lon="7.389880000">
  <ele>1436.866580</ele>
  <time>2012-05-28T14:03:15Z</time>
</trkpt>
<trkpt lat="46.287590000" lon="7.389840000">
  <ele>1437.199950</ele>
  <time>2012-05-28T14:03:16Z</time>
</trkpt>
<trkpt lat="46.287570000" lon="7.389800000">
  <ele>1437.533330</ele>
  <time>2012-05-28T14:03:17Z</time>
</trkpt>
<trkpt lat="46.287560000" lon="7.389760000">
  <ele>1437.866580</ele>
  <time>2012-05-28T14:03:18Z</time>
</trkpt>
<trkpt lat="46.287550000" lon="7.389710000">
  <ele>1438.199950</ele>
  <time>2012-05-28T14:03:19Z</time>
</trkpt>
<trkpt lat="46.287540000" lon="7.389680000">
  <ele>1438.199950</ele>
  <time>2012-05-28T14:03:20Z</time>
</trkpt>
<trkpt lat="46.287480000" lon="7.389480000">
  <ele>1439.435300</ele>
  <time>2012-05-28T14:03:25Z</time>
</trkpt>
<trkpt lat="46.287470000" lon="7.389440000">
  <ele>1439.682370</ele>
  <time>2012-05-28T14:03:26Z</time>
</trkpt>
<trkpt lat="46.287460000" lon="7.389400000">
  <ele>1439.929440</ele>
  <time>2012-05-28T14:03:27Z</time>
</trkpt>
<trkpt lat="46.287440000" lon="7.389360000">
  <ele>1440.176510</ele>
  <time>2012-05-28T14:03:28Z</time>
</trkpt>
<trkpt lat="46.287360000" lon="7.389140000">
  <ele>1441.411740</ele>
  <time>2012-05-28T14:03:33Z</time>
</trkpt>
<trkpt lat="46.287340000" lon="7.389090000">
  <ele>1441.658810</ele>
  <time>2012-05-28T14:03:34Z</time>
</trkpt>
<trkpt lat="46.287330000" lon="7.389050000">
  <ele>1441.905880</ele>
  <time>2012-05-28T14:03:35Z</time>
</trkpt>
<trkpt lat="46.287320000" lon="7.389010000">
  <ele>1442.152950</ele>
  <time>2012-05-28T14:03:36Z</time>
</trkpt>
<trkpt lat="46.287310000" lon="7.388960000">
  <ele>1442.400020</ele>
  <time>2012-05-28T14:03:37Z</time>
</trkpt>
<trkpt lat="46.287300000" lon="7.388880000">
  <ele>1442.400020</ele>
  <time>2012-05-28T14:03:39Z</time>
</trkpt>
<trkpt lat="46.287290000" lon="7.388760000">
  <ele>1443.342900</ele>
  <time>2012-05-28T14:03:42Z</time>
</trkpt>
<trkpt lat="46.287280000" lon="7.388720000">
  <ele>1443.657100</ele>
  <time>2012-05-28T14:03:43Z</time>
</trkpt>
<trkpt lat="46.287270000" lon="7.388670000">
  <ele>1443.971440</ele>
  <time>2012-05-28T14:03:44Z</time>
</trkpt>
<trkpt lat="46.287260000" lon="7.388640000">
  <ele>1444.285640</ele>
  <time>2012-05-28T14:03:45Z</time>
</trkpt>
<trkpt lat="46.287250000" lon="7.388600000">
  <ele>1444.599980</ele>
  <time>2012-05-28T14:03:46Z</time>
</trkpt>
<trkpt lat="46.287240000" lon="7.388520000">
  <ele>1444.599980</ele>
  <time>2012-05-28T14:03:48Z</time>
</trkpt>
<trkpt lat="46.287210000" lon="7.388450000">
  <ele>1445.266600</ele>
  <time>2012-05-28T14:03:50Z</time>
</trkpt>
<trkpt lat="46.287200000" lon="7.388420000">
  <ele>1445.599980</ele>
  <time>2012-05-28T14:03:51Z</time>
</trkpt>
<trkpt lat="46.287200000" lon="7.388380000">
  <ele>1445.933350</ele>
  <time>2012-05-28T14:03:52Z</time>
</trkpt>
<trkpt lat="46.287190000" lon="7.388340000">
  <ele>1446.266600</ele>
  <time>2012-05-28T14:03:53Z</time>
</trkpt>
<trkpt lat="46.287190000" lon="7.388300000">
  <ele>1446.599980</ele>
  <time>2012-05-28T14:03:54Z</time>
</trkpt>
<trkpt lat="46.287170000" lon="7.388260000">
  <ele>1446.599980</ele>
  <time>2012-05-28T14:03:55Z</time>
</trkpt>
<trkpt lat="46.287140000" lon="7.388060000">
  <ele>1447.699950</ele>
  <time>2012-05-28T14:04:00Z</time>
</trkpt>
<trkpt lat="46.287130000" lon="7.388020000">
  <ele>1447.919920</ele>
  <time>2012-05-28T14:04:01Z</time>
</trkpt>
<trkpt lat="46.287130000" lon="7.387980000">
  <ele>1448.140010</ele>
  <time>2012-05-28T14:04:02Z</time>
</trkpt>
<trkpt lat="46.287130000" lon="7.387930000">
  <ele>1448.359990</ele>
  <time>2012-05-28T14:04:03Z</time>
</trkpt>
<trkpt lat="46.287120000" lon="7.387890000">
  <ele>1448.579960</ele>
  <time>2012-05-28T14:04:04Z</time>
</trkpt>
<trkpt lat="46.287120000" lon="7.387860000">
  <ele>1448.800050</ele>
  <time>2012-05-28T14:04:05Z</time>
</trkpt>
<trkpt lat="46.287120000" lon="7.387620000">
  <ele>1450.120000</ele>
  <time>2012-05-28T14:04:11Z</time>
</trkpt>
<trkpt lat="46.287120000" lon="7.387570000">
  <ele>1450.339970</ele>
  <time>2012-05-28T14:04:12Z</time>
</trkpt>
<trkpt lat="46.287110000" lon="7.387530000">
  <ele>1450.560060</ele>
  <time>2012-05-28T14:04:13Z</time>
</trkpt>
<trkpt lat="46.287110000" lon="7.387500000">
  <ele>1450.780030</ele>
  <time>2012-05-28T14:04:14Z</time>
</trkpt>
<trkpt lat="46.287110000" lon="7.387450000">
  <ele>1451.000000</ele>
  <time>2012-05-28T14:04:15Z</time>
</trkpt>
<trkpt lat="46.287110000" lon="7.387410000">
  <ele>1451.000000</ele>
  <time>2012-05-28T14:04:16Z</time>
</trkpt>
<trkpt lat="46.287110000" lon="7.387250000">
  <ele>1452.000000</ele>
  <time>2012-05-28T14:04:20Z</time>
</trkpt>
<trkpt lat="46.287100000" lon="7.387200000">
  <ele>1452.250000</ele>
  <time>2012-05-28T14:04:21Z</time>
</trkpt>
<trkpt lat="46.287100000" lon="7.387160000">
  <ele>1452.500000</ele>
  <time>2012-05-28T14:04:22Z</time>
</trkpt>
<trkpt lat="46.287100000" lon="7.387120000">
  <ele>1452.750000</ele>
  <time>2012-05-28T14:04:23Z</time>
</trkpt>
<trkpt lat="46.287090000" lon="7.387090000">
  <ele>1453.000000</ele>
  <time>2012-05-28T14:04:24Z</time>
</trkpt>
<trkpt lat="46.287050000" lon="7.387000000">
  <ele>1453.000000</ele>
  <time>2012-05-28T14:04:27Z</time>
</trkpt>
<trkpt lat="46.287000000" lon="7.386860000">
  <ele>1454.000000</ele>
  <time>2012-05-28T14:04:31Z</time>
</trkpt>
<trkpt lat="46.286990000" lon="7.386830000">
  <ele>1454.250000</ele>
  <time>2012-05-28T14:04:32Z</time>
</trkpt>
<trkpt lat="46.286990000" lon="7.386790000">
  <ele>1454.500000</ele>
  <time>2012-05-28T14:04:33Z</time>
</trkpt>
<trkpt lat="46.287010000" lon="7.386740000">
  <ele>1454.750000</ele>
  <time>2012-05-28T14:04:34Z</time>
</trkpt>
<trkpt lat="46.287040000" lon="7.386730000">
  <ele>1455.000000</ele>
  <time>2012-05-28T14:04:35Z</time>
</trkpt>
<trkpt lat="46.287070000" lon="7.386750000">
  <ele>1455.000000</ele>
  <time>2012-05-28T14:04:36Z</time>
</trkpt>
<trkpt lat="46.287130000" lon="7.386880000">
  <ele>1456.257080</ele>
  <time>2012-05-28T14:04:40Z</time>
</trkpt>
<trkpt lat="46.287140000" lon="7.386920000">
  <ele>1456.571410</ele>
  <time>2012-05-28T14:04:41Z</time>
</trkpt>
<trkpt lat="46.287150000" lon="7.386970000">
  <ele>1456.885620</ele>
  <time>2012-05-28T14:04:42Z</time>
</trkpt>
<trkpt lat="46.287160000" lon="7.387010000">
  <ele>1457.199950</ele>
  <time>2012-05-28T14:04:43Z</time>
</trkpt>
<trkpt lat="46.287190000" lon="7.387170000">
  <ele>1457.199950</ele>
  <time>2012-05-28T14:04:47Z</time>
</trkpt>
<trkpt lat="46.287220000" lon="7.387320000">
  <ele>1458.188230</ele>
  <time>2012-05-28T14:04:51Z</time>
</trkpt>
<trkpt lat="46.287230000" lon="7.387360000">
  <ele>1458.435300</ele>
  <time>2012-05-28T14:04:52Z</time>
</trkpt>
<trkpt lat="46.287230000" lon="7.387390000">
  <ele>1458.682370</ele>
  <time>2012-05-28T14:04:53Z</time>
</trkpt>
<trkpt lat="46.287240000" lon="7.387430000">
  <ele>1458.929440</ele>
  <time>2012-05-28T14:04:54Z</time>
</trkpt>
<trkpt lat="46.287250000" lon="7.387470000">
  <ele>1459.176510</ele>
  <time>2012-05-28T14:04:55Z</time>
</trkpt>
<trkpt lat="46.287300000" lon="7.387690000">
  <ele>1460.658810</ele>
  <time>2012-05-28T14:05:01Z</time>
</trkpt>
<trkpt lat="46.287310000" lon="7.387730000">
  <ele>1460.905880</ele>
  <time>2012-05-28T14:05:02Z</time>
</trkpt>
<trkpt lat="46.287320000" lon="7.387770000">
  <ele>1461.152950</ele>
  <time>2012-05-28T14:05:03Z</time>
</trkpt>
<trkpt lat="46.287330000" lon="7.387810000">
  <ele>1461.400020</ele>
  <time>2012-05-28T14:05:04Z</time>
</trkpt>
<trkpt lat="46.287390000" lon="7.387990000">
  <ele>1461.400020</ele>
  <time>2012-05-28T14:05:08Z</time>
</trkpt>
<trkpt lat="46.287420000" lon="7.388080000">
  <ele>1462.046140</ele>
  <time>2012-05-28T14:05:10Z</time>
</trkpt>
<trkpt lat="46.287440000" lon="7.388120000">
  <ele>1462.369260</ele>
  <time>2012-05-28T14:05:11Z</time>
</trkpt>
<trkpt lat="46.287460000" lon="7.388160000">
  <ele>1462.692260</ele>
  <time>2012-05-28T14:05:12Z</time>
</trkpt>
<trkpt lat="46.287480000" lon="7.388200000">
  <ele>1463.015380</ele>
  <time>2012-05-28T14:05:13Z</time>
</trkpt>
<trkpt lat="46.287490000" lon="7.388250000">
  <ele>1463.338500</ele>
  <time>2012-05-28T14:05:14Z</time>
</trkpt>
<trkpt lat="46.287540000" lon="7.388370000">
  <ele>1464.307740</ele>
  <time>2012-05-28T14:05:17Z</time>
</trkpt>
<trkpt lat="46.287560000" lon="7.388400000">
  <ele>1464.630740</ele>
  <time>2012-05-28T14:05:18Z</time>
</trkpt>
<trkpt lat="46.287590000" lon="7.388440000">
  <ele>1464.953860</ele>
  <time>2012-05-28T14:05:19Z</time>
</trkpt>
<trkpt lat="46.287610000" lon="7.388470000">
  <ele>1465.276860</ele>
  <time>2012-05-28T14:05:20Z</time>
</trkpt>
<trkpt lat="46.287630000" lon="7.388510000">
  <ele>1465.599980</ele>
  <time>2012-05-28T14:05:21Z</time>
</trkpt>
<trkpt lat="46.287750000" lon="7.388670000">
  <ele>1465.599980</ele>
  <time>2012-05-28T14:05:26Z</time>
</trkpt>
<trkpt lat="46.287770000" lon="7.388710000">
  <ele>1466.150020</ele>
  <time>2012-05-28T14:05:27Z</time>
</trkpt>
<trkpt lat="46.287800000" lon="7.388750000">
  <ele>1466.699950</ele>
  <time>2012-05-28T14:05:28Z</time>
</trkpt>
<trkpt lat="46.287820000" lon="7.388780000">
  <ele>1467.250000</ele>
  <time>2012-05-28T14:05:29Z</time>
</trkpt>
<trkpt lat="46.287850000" lon="7.388810000">
  <ele>1467.800050</ele>
  <time>2012-05-28T14:05:30Z</time>
</trkpt>
<trkpt lat="46.287940000" lon="7.388930000">
  <ele>1467.800050</ele>
  <time>2012-05-28T14:05:34Z</time>
</trkpt>
<trkpt lat="46.287990000" lon="7.389000000">
  <ele>1468.466670</ele>
  <time>2012-05-28T14:05:36Z</time>
</trkpt>
<trkpt lat="46.288010000" lon="7.389030000">
  <ele>1468.800050</ele>
  <time>2012-05-28T14:05:37Z</time>
</trkpt>
<trkpt lat="46.288040000" lon="7.389070000">
  <ele>1469.133420</ele>
  <time>2012-05-28T14:05:38Z</time>
</trkpt>
<trkpt lat="46.288060000" lon="7.389100000">
  <ele>1469.466670</ele>
  <time>2012-05-28T14:05:39Z</time>
</trkpt>
<trkpt lat="46.288080000" lon="7.389140000">
  <ele>1469.800050</ele>
  <time>2012-05-28T14:05:40Z</time>
</trkpt>
<trkpt lat="46.288110000" lon="7.389170000">
  <ele>1469.800050</ele>
  <time>2012-05-28T14:05:41Z</time>
</trkpt>
<trkpt lat="46.288190000" lon="7.389260000">
  <ele>1470.672730</ele>
  <time>2012-05-28T14:05:44Z</time>
</trkpt>
<trkpt lat="46.288200000" lon="7.389300000">
  <ele>1470.963620</ele>
  <time>2012-05-28T14:05:45Z</time>
</trkpt>
<trkpt lat="46.288230000" lon="7.389330000">
  <ele>1471.254520</ele>
  <time>2012-05-28T14:05:46Z</time>
</trkpt>
<trkpt lat="46.288250000" lon="7.389370000">
  <ele>1471.545530</ele>
  <time>2012-05-28T14:05:47Z</time>
</trkpt>
<trkpt lat="46.288280000" lon="7.389410000">
  <ele>1471.836430</ele>
  <time>2012-05-28T14:05:48Z</time>
</trkpt>
<trkpt lat="46.288380000" lon="7.389600000">
  <ele>1473.290890</ele>
  <time>2012-05-28T14:05:53Z</time>
</trkpt>
<trkpt lat="46.288400000" lon="7.389640000">
  <ele>1473.581790</ele>
  <time>2012-05-28T14:05:54Z</time>
</trkpt>
<trkpt lat="46.288420000" lon="7.389680000">
  <ele>1473.872680</ele>
  <time>2012-05-28T14:05:55Z</time>
</trkpt>
<trkpt lat="46.288440000" lon="7.389710000">
  <ele>1474.163570</ele>
  <time>2012-05-28T14:05:56Z</time>
</trkpt>
<trkpt lat="46.288490000" lon="7.389830000">
  <ele>1475.036380</ele>
  <time>2012-05-28T14:05:59Z</time>
</trkpt>
<trkpt lat="46.288510000" lon="7.389870000">
  <ele>1475.327270</ele>
  <time>2012-05-28T14:06:00Z</time>
</trkpt>
<trkpt lat="46.288540000" lon="7.389910000">
  <ele>1475.618160</ele>
  <time>2012-05-28T14:06:01Z</time>
</trkpt>
<trkpt lat="46.288560000" lon="7.389940000">
  <ele>1475.909060</ele>
  <time>2012-05-28T14:06:02Z</time>
</trkpt>
<trkpt lat="46.288580000" lon="7.389980000">
  <ele>1476.199950</ele>
  <time>2012-05-28T14:06:03Z</time>
</trkpt>
<trkpt lat="46.288620000" lon="7.390050000">
  <ele>1476.199950</ele>
  <time>2012-05-28T14:06:05Z</time>
</trkpt>
<trkpt lat="46.288680000" lon="7.390140000">
  <ele>1476.933350</ele>
  <time>2012-05-28T14:06:07Z</time>
</trkpt>
<trkpt lat="46.288700000" lon="7.390170000">
  <ele>1477.300050</ele>
  <time>2012-05-28T14:06:08Z</time>
</trkpt>
<trkpt lat="46.288730000" lon="7.390210000">
  <ele>1477.666630</ele>
  <time>2012-05-28T14:06:09Z</time>
</trkpt>
<trkpt lat="46.288750000" lon="7.390240000">
  <ele>1478.033330</ele>
  <time>2012-05-28T14:06:10Z</time>
</trkpt>
<trkpt lat="46.288780000" lon="7.390270000">
  <ele>1478.400020</ele>
  <time>2012-05-28T14:06:11Z</time>
</trkpt>
<trkpt lat="46.288800000" lon="7.390310000">
  <ele>1478.400020</ele>
  <time>2012-05-28T14:06:12Z</time>
</trkpt>
<trkpt lat="46.288870000" lon="7.390400000">
  <ele>1479.283330</ele>
  <time>2012-05-28T14:06:15Z</time>
</trkpt>
<trkpt lat="46.288890000" lon="7.390430000">
  <ele>1479.577760</ele>
  <time>2012-05-28T14:06:16Z</time>
</trkpt>
<trkpt lat="46.288920000" lon="7.390460000">
  <ele>1479.872190</ele>
  <time>2012-05-28T14:06:17Z</time>
</trkpt>
<trkpt lat="46.288940000" lon="7.390490000">
  <ele>1480.166750</ele>
  <time>2012-05-28T14:06:18Z</time>
</trkpt>
<trkpt lat="46.288970000" lon="7.390520000">
  <ele>1480.461180</ele>
  <time>2012-05-28T14:06:19Z</time>
</trkpt>
<trkpt lat="46.289100000" lon="7.390650000">
  <ele>1481.638920</ele>
  <time>2012-05-28T14:06:23Z</time>
</trkpt>
<trkpt lat="46.289120000" lon="7.390680000">
  <ele>1481.933350</ele>
  <time>2012-05-28T14:06:24Z</time>
</trkpt>
<trkpt lat="46.289150000" lon="7.390710000">
  <ele>1482.227780</ele>
  <time>2012-05-28T14:06:25Z</time>
</trkpt>
<trkpt lat="46.289180000" lon="7.390740000">
  <ele>1482.522220</ele>
  <time>2012-05-28T14:06:26Z</time>
</trkpt>
<trkpt lat="46.289210000" lon="7.390770000">
  <ele>1482.816650</ele>
  <time>2012-05-28T14:06:27Z</time>
</trkpt>
<trkpt lat="46.289310000" lon="7.390910000">
  <ele>1483.994510</ele>
  <time>2012-05-28T14:06:31Z</time>
</trkpt>
<trkpt lat="46.289330000" lon="7.390940000">
  <ele>1484.288940</ele>
  <time>2012-05-28T14:06:32Z</time>
</trkpt>
<trkpt lat="46.289360000" lon="7.390980000">
  <ele>1484.583370</ele>
  <time>2012-05-28T14:06:33Z</time>
</trkpt>
<trkpt lat="46.289380000" lon="7.391010000">
  <ele>1484.877810</ele>
  <time>2012-05-28T14:06:34Z</time>
</trkpt>
<trkpt lat="46.289410000" lon="7.391050000">
  <ele>1485.172240</ele>
  <time>2012-05-28T14:06:35Z</time>
</trkpt>
<trkpt lat="46.289470000" lon="7.391150000">
  <ele>1486.055540</ele>
  <time>2012-05-28T14:06:38Z</time>
</trkpt>
<trkpt lat="46.289500000" lon="7.391180000">
  <ele>1486.349980</ele>
  <time>2012-05-28T14:06:39Z</time>
</trkpt>
<trkpt lat="46.289520000" lon="7.391220000">
  <ele>1486.644410</ele>
  <time>2012-05-28T14:06:40Z</time>
</trkpt>
<trkpt lat="46.289540000" lon="7.391250000">
  <ele>1486.938840</ele>
  <time>2012-05-28T14:06:41Z</time>
</trkpt>
<trkpt lat="46.289560000" lon="7.391290000">
  <ele>1487.233400</ele>
  <time>2012-05-28T14:06:42Z</time>
</trkpt>
<trkpt lat="46.289610000" lon="7.391360000">
  <ele>1487.822270</ele>
  <time>2012-05-28T14:06:44Z</time>
</trkpt>
<trkpt lat="46.289630000" lon="7.391390000">
  <ele>1488.116700</ele>
  <time>2012-05-28T14:06:45Z</time>
</trkpt>
<trkpt lat="46.289650000" lon="7.391430000">
  <ele>1488.411130</ele>
  <time>2012-05-28T14:06:46Z</time>
</trkpt>
<trkpt lat="46.289680000" lon="7.391460000">
  <ele>1488.705570</ele>
  <time>2012-05-28T14:06:47Z</time>
</trkpt>
<trkpt lat="46.289710000" lon="7.391480000">
  <ele>1489.000000</ele>
  <time>2012-05-28T14:06:48Z</time>
</trkpt>
<trkpt lat="46.289830000" lon="7.391660000">
  <ele>1489.000000</ele>
  <time>2012-05-28T14:06:53Z</time>
</trkpt>
<trkpt lat="46.289890000" lon="7.391720000">
  <ele>1489.666630</ele>
  <time>2012-05-28T14:06:55Z</time>
</trkpt>
<trkpt lat="46.289920000" lon="7.391750000">
  <ele>1490.000000</ele>
  <time>2012-05-28T14:06:56Z</time>
</trkpt>
<trkpt lat="46.289950000" lon="7.391780000">
  <ele>1490.333370</ele>
  <time>2012-05-28T14:06:57Z</time>
</trkpt>
<trkpt lat="46.289990000" lon="7.391810000">
  <ele>1490.666630</ele>
  <time>2012-05-28T14:06:58Z</time>
</trkpt>
<trkpt lat="46.290020000" lon="7.391850000">
  <ele>1491.000000</ele>
  <time>2012-05-28T14:06:59Z</time>
</trkpt>
<trkpt lat="46.290240000" lon="7.392080000">
  <ele>1491.000000</ele>
  <time>2012-05-28T14:07:06Z</time>
</trkpt>
<trkpt lat="46.290300000" lon="7.392150000">
  <ele>1491.666630</ele>
  <time>2012-05-28T14:07:08Z</time>
</trkpt>
<trkpt lat="46.290330000" lon="7.392180000">
  <ele>1492.000000</ele>
  <time>2012-05-28T14:07:09Z</time>
</trkpt>
<trkpt lat="46.290360000" lon="7.392210000">
  <ele>1492.333370</ele>
  <time>2012-05-28T14:07:10Z</time>
</trkpt>
<trkpt lat="46.290380000" lon="7.392240000">
  <ele>1492.666630</ele>
  <time>2012-05-28T14:07:11Z</time>
</trkpt>
<trkpt lat="46.290400000" lon="7.392280000">
  <ele>1493.000000</ele>
  <time>2012-05-28T14:07:12Z</time>
</trkpt>
<trkpt lat="46.290460000" lon="7.392340000">
  <ele>1493.000000</ele>
  <time>2012-05-28T14:07:14Z</time>
</trkpt>
<trkpt lat="46.290490000" lon="7.392380000">
  <ele>1493.439940</ele>
  <time>2012-05-28T14:07:15Z</time>
</trkpt>
<trkpt lat="46.290510000" lon="7.392410000">
  <ele>1493.880000</ele>
  <time>2012-05-28T14:07:16Z</time>
</trkpt>
<trkpt lat="46.290530000" lon="7.392450000">
  <ele>1494.319950</ele>
  <time>2012-05-28T14:07:17Z</time>
</trkpt>
<trkpt lat="46.290550000" lon="7.392480000">
  <ele>1494.760010</ele>
  <time>2012-05-28T14:07:18Z</time>
</trkpt>
<trkpt lat="46.290580000" lon="7.392520000">
  <ele>1495.199950</ele>
  <time>2012-05-28T14:07:19Z</time>
</trkpt>
<trkpt lat="46.290650000" lon="7.392630000">
  <ele>1495.199950</ele>
  <time>2012-05-28T14:07:22Z</time>
</trkpt>
<trkpt lat="46.290660000" lon="7.392660000">
  <ele>1495.518430</ele>
  <time>2012-05-28T14:07:23Z</time>
</trkpt>
<trkpt lat="46.290700000" lon="7.392710000">
  <ele>1495.837040</ele>
  <time>2012-05-28T14:07:24Z</time>
</trkpt>
<trkpt lat="46.290720000" lon="7.392740000">
  <ele>1496.155520</ele>
  <time>2012-05-28T14:07:25Z</time>
</trkpt>
<trkpt lat="46.290750000" lon="7.392780000">
  <ele>1496.474000</ele>
  <time>2012-05-28T14:07:26Z</time>
</trkpt>
<trkpt lat="46.290770000" lon="7.392820000">
  <ele>1496.792600</ele>
  <time>2012-05-28T14:07:27Z</time>
</trkpt>
<trkpt lat="46.290870000" lon="7.392990000">
  <ele>1498.066650</ele>
  <time>2012-05-28T14:07:31Z</time>
</trkpt>
<trkpt lat="46.290900000" lon="7.393030000">
  <ele>1498.385130</ele>
  <time>2012-05-28T14:07:32Z</time>
</trkpt>
<trkpt lat="46.290920000" lon="7.393060000">
  <ele>1498.703740</ele>
  <time>2012-05-28T14:07:33Z</time>
</trkpt>
<trkpt lat="46.290950000" lon="7.393100000">
  <ele>1499.022220</ele>
  <time>2012-05-28T14:07:34Z</time>
</trkpt>
<trkpt lat="46.291020000" lon="7.393220000">
  <ele>1499.977780</ele>
  <time>2012-05-28T14:07:37Z</time>
</trkpt>
<trkpt lat="46.291050000" lon="7.393250000">
  <ele>1500.296260</ele>
  <time>2012-05-28T14:07:38Z</time>
</trkpt>
<trkpt lat="46.291080000" lon="7.393290000">
  <ele>1500.614870</ele>
  <time>2012-05-28T14:07:39Z</time>
</trkpt>
<trkpt lat="46.291100000" lon="7.393320000">
  <ele>1500.933350</ele>
  <time>2012-05-28T14:07:40Z</time>
</trkpt>
<trkpt lat="46.291140000" lon="7.393350000">
  <ele>1501.251830</ele>
  <time>2012-05-28T14:07:41Z</time>
</trkpt>
<trkpt lat="46.291260000" lon="7.393480000">
  <ele>1502.526000</ele>
  <time>2012-05-28T14:07:45Z</time>
</trkpt>
<trkpt lat="46.291300000" lon="7.393510000">
  <ele>1502.844480</ele>
  <time>2012-05-28T14:07:46Z</time>
</trkpt>
<trkpt lat="46.291340000" lon="7.393530000">
  <ele>1503.162960</ele>
  <time>2012-05-28T14:07:47Z</time>
</trkpt>
<trkpt lat="46.291370000" lon="7.393550000">
  <ele>1503.481570</ele>
  <time>2012-05-28T14:07:48Z</time>
</trkpt>
<trkpt lat="46.291400000" lon="7.393580000">
  <ele>1503.800050</ele>
  <time>2012-05-28T14:07:49Z</time>
</trkpt>
<trkpt lat="46.291440000" lon="7.393610000">
  <ele>1503.800050</ele>
  <time>2012-05-28T14:07:50Z</time>
</trkpt>
<trkpt lat="46.291510000" lon="7.393640000">
  <ele>1504.407470</ele>
  <time>2012-05-28T14:07:52Z</time>
</trkpt>
<trkpt lat="46.291550000" lon="7.393650000">
  <ele>1504.711180</ele>
  <time>2012-05-28T14:07:53Z</time>
</trkpt>
<trkpt lat="46.291580000" lon="7.393670000">
  <ele>1505.014890</ele>
  <time>2012-05-28T14:07:54Z</time>
</trkpt>
<trkpt lat="46.291620000" lon="7.393680000">
  <ele>1505.318600</ele>
  <time>2012-05-28T14:07:55Z</time>
</trkpt>
<trkpt lat="46.291660000" lon="7.393690000">
  <ele>1505.622310</ele>
  <time>2012-05-28T14:07:56Z</time>
</trkpt>
<trkpt lat="46.291690000" lon="7.393710000">
  <ele>1505.925900</ele>
  <time>2012-05-28T14:07:57Z</time>
</trkpt>
<trkpt lat="46.291720000" lon="7.393730000">
  <ele>1506.229610</ele>
  <time>2012-05-28T14:07:58Z</time>
</trkpt>
<trkpt lat="46.291760000" lon="7.393730000">
  <ele>1506.533330</ele>
  <time>2012-05-28T14:07:59Z</time>
</trkpt>
<trkpt lat="46.291790000" lon="7.393740000">
  <ele>1506.837040</ele>
  <time>2012-05-28T14:08:00Z</time>
</trkpt>
<trkpt lat="46.291820000" lon="7.393750000">
  <ele>1507.140750</ele>
  <time>2012-05-28T14:08:01Z</time>
</trkpt>
<trkpt lat="46.291920000" lon="7.393770000">
  <ele>1508.051880</ele>
  <time>2012-05-28T14:08:04Z</time>
</trkpt>
<trkpt lat="46.291950000" lon="7.393770000">
  <ele>1508.355590</ele>
  <time>2012-05-28T14:08:05Z</time>
</trkpt>
<trkpt lat="46.291990000" lon="7.393770000">
  <ele>1508.659300</ele>
  <time>2012-05-28T14:08:06Z</time>
</trkpt>
<trkpt lat="46.292020000" lon="7.393780000">
  <ele>1508.963010</ele>
  <time>2012-05-28T14:08:07Z</time>
</trkpt>
<trkpt lat="46.292050000" lon="7.393780000">
  <ele>1509.266720</ele>
  <time>2012-05-28T14:08:08Z</time>
</trkpt>
<trkpt lat="46.292220000" lon="7.393790000">
  <ele>1510.785160</ele>
  <time>2012-05-28T14:08:13Z</time>
</trkpt>
<trkpt lat="46.292270000" lon="7.393790000">
  <ele>1511.088870</ele>
  <time>2012-05-28T14:08:14Z</time>
</trkpt>
<trkpt lat="46.292300000" lon="7.393790000">
  <ele>1511.392580</ele>
  <time>2012-05-28T14:08:15Z</time>
</trkpt>
<trkpt lat="46.292340000" lon="7.393790000">
  <ele>1511.696290</ele>
  <time>2012-05-28T14:08:16Z</time>
</trkpt>
<trkpt lat="46.292380000" lon="7.393800000">
  <ele>1512.000000</ele>
  <time>2012-05-28T14:08:17Z</time>
</trkpt>
<trkpt lat="46.292490000" lon="7.393820000">
  <ele>1512.000000</ele>
  <time>2012-05-28T14:08:20Z</time>
</trkpt>
<trkpt lat="46.292520000" lon="7.393830000">
  <ele>1512.550050</ele>
  <time>2012-05-28T14:08:21Z</time>
</trkpt>
<trkpt lat="46.292550000" lon="7.393850000">
  <ele>1513.099980</ele>
  <time>2012-05-28T14:08:22Z</time>
</trkpt>
<trkpt lat="46.292590000" lon="7.393860000">
  <ele>1513.649900</ele>
  <time>2012-05-28T14:08:23Z</time>
</trkpt>
<trkpt lat="46.292610000" lon="7.393870000">
  <ele>1514.199950</ele>
  <time>2012-05-28T14:08:24Z</time>
</trkpt>
<trkpt lat="46.292640000" lon="7.393900000">
  <ele>1514.199950</ele>
  <time>2012-05-28T14:08:25Z</time>
</trkpt>
<trkpt lat="46.292680000" lon="7.393920000">
  <ele>1514.549930</ele>
  <time>2012-05-28T14:08:26Z</time>
</trkpt>
<trkpt lat="46.292720000" lon="7.393940000">
  <ele>1514.899900</ele>
  <time>2012-05-28T14:08:27Z</time>
</trkpt>
<trkpt lat="46.292760000" lon="7.393950000">
  <ele>1515.250000</ele>
  <time>2012-05-28T14:08:28Z</time>
</trkpt>
<trkpt lat="46.292790000" lon="7.393970000">
  <ele>1515.599980</ele>
  <time>2012-05-28T14:08:29Z</time>
</trkpt>
<trkpt lat="46.292830000" lon="7.394000000">
  <ele>1515.949950</ele>
  <time>2012-05-28T14:08:30Z</time>
</trkpt>
<trkpt lat="46.292930000" lon="7.394030000">
  <ele>1517.000000</ele>
  <time>2012-05-28T14:08:33Z</time>
</trkpt>
<trkpt lat="46.292970000" lon="7.394040000">
  <ele>1517.349980</ele>
  <time>2012-05-28T14:08:34Z</time>
</trkpt>
<trkpt lat="46.293000000" lon="7.394050000">
  <ele>1517.699950</ele>
  <time>2012-05-28T14:08:35Z</time>
</trkpt>
<trkpt lat="46.293040000" lon="7.394060000">
  <ele>1518.050050</ele>
  <time>2012-05-28T14:08:36Z</time>
</trkpt>
<trkpt lat="46.293080000" lon="7.394070000">
  <ele>1518.400020</ele>
  <time>2012-05-28T14:08:37Z</time>
</trkpt>
<trkpt lat="46.293110000" lon="7.394090000">
  <ele>1518.400020</ele>
  <time>2012-05-28T14:08:38Z</time>
</trkpt>
<trkpt lat="46.293210000" lon="7.394120000">
  <ele>1519.269040</ele>
  <time>2012-05-28T14:08:41Z</time>
</trkpt>
<trkpt lat="46.293240000" lon="7.394140000">
  <ele>1519.558590</ele>
  <time>2012-05-28T14:08:42Z</time>
</trkpt>
<trkpt lat="46.293270000" lon="7.394170000">
  <ele>1519.848270</ele>
  <time>2012-05-28T14:08:43Z</time>
</trkpt>
<trkpt lat="46.293300000" lon="7.394190000">
  <ele>1520.137940</ele>
  <time>2012-05-28T14:08:44Z</time>
</trkpt>
<trkpt lat="46.293320000" lon="7.394220000">
  <ele>1520.427610</ele>
  <time>2012-05-28T14:08:45Z</time>
</trkpt>
<trkpt lat="46.293400000" lon="7.394400000">
  <ele>1521.586180</ele>
  <time>2012-05-28T14:08:49Z</time>
</trkpt>
<trkpt lat="46.293400000" lon="7.394450000">
  <ele>1521.875850</ele>
  <time>2012-05-28T14:08:50Z</time>
</trkpt>
<trkpt lat="46.293410000" lon="7.394500000">
  <ele>1522.165530</ele>
  <time>2012-05-28T14:08:51Z</time>
</trkpt>
<trkpt lat="46.293420000" lon="7.394550000">
  <ele>1522.455200</ele>
  <time>2012-05-28T14:08:52Z</time>
</trkpt>
<trkpt lat="46.293430000" lon="7.394600000">
  <ele>1522.744870</ele>
  <time>2012-05-28T14:08:53Z</time>
</trkpt>
<trkpt lat="46.293450000" lon="7.394700000">
  <ele>1523.324220</ele>
  <time>2012-05-28T14:08:55Z</time>
</trkpt>
<trkpt lat="46.293460000" lon="7.394750000">
  <ele>1523.613890</ele>
  <time>2012-05-28T14:08:56Z</time>
</trkpt>
<trkpt lat="46.293480000" lon="7.394800000">
  <ele>1523.903440</ele>
  <time>2012-05-28T14:08:57Z</time>
</trkpt>
<trkpt lat="46.293500000" lon="7.394850000">
  <ele>1524.193120</ele>
  <time>2012-05-28T14:08:58Z</time>
</trkpt>
<trkpt lat="46.293530000" lon="7.394890000">
  <ele>1524.482790</ele>
  <time>2012-05-28T14:08:59Z</time>
</trkpt>
<trkpt lat="46.293640000" lon="7.395030000">
  <ele>1525.641480</ele>
  <time>2012-05-28T14:09:03Z</time>
</trkpt>
<trkpt lat="46.293670000" lon="7.395060000">
  <ele>1525.931030</ele>
  <time>2012-05-28T14:09:04Z</time>
</trkpt>
<trkpt lat="46.293720000" lon="7.395090000">
  <ele>1526.220700</ele>
  <time>2012-05-28T14:09:05Z</time>
</trkpt>
<trkpt lat="46.293750000" lon="7.395120000">
  <ele>1526.510380</ele>
  <time>2012-05-28T14:09:06Z</time>
</trkpt>
<trkpt lat="46.293790000" lon="7.395150000">
  <ele>1526.800050</ele>
  <time>2012-05-28T14:09:07Z</time>
</trkpt>
<trkpt lat="46.293880000" lon="7.395200000">
  <ele>1526.800050</ele>
  <time>2012-05-28T14:09:09Z</time>
</trkpt>
<trkpt lat="46.293920000" lon="7.395230000">
  <ele>1527.150020</ele>
  <time>2012-05-28T14:09:10Z</time>
</trkpt>
<trkpt lat="46.293950000" lon="7.395260000">
  <ele>1527.500000</ele>
  <time>2012-05-28T14:09:11Z</time>
</trkpt>
<trkpt lat="46.293980000" lon="7.395290000">
  <ele>1527.850100</ele>
  <time>2012-05-28T14:09:12Z</time>
</trkpt>
<trkpt lat="46.294010000" lon="7.395330000">
  <ele>1528.200070</ele>
  <time>2012-05-28T14:09:13Z</time>
</trkpt>
<trkpt lat="46.294030000" lon="7.395360000">
  <ele>1528.550050</ele>
  <time>2012-05-28T14:09:14Z</time>
</trkpt>
<trkpt lat="46.294070000" lon="7.395470000">
  <ele>1529.599980</ele>
  <time>2012-05-28T14:09:17Z</time>
</trkpt>
<trkpt lat="46.294080000" lon="7.395510000">
  <ele>1529.949950</ele>
  <time>2012-05-28T14:09:18Z</time>
</trkpt>
<trkpt lat="46.294090000" lon="7.395550000">
  <ele>1530.300050</ele>
  <time>2012-05-28T14:09:19Z</time>
</trkpt>
<trkpt lat="46.294110000" lon="7.395580000">
  <ele>1530.650020</ele>
  <time>2012-05-28T14:09:20Z</time>
</trkpt>
<trkpt lat="46.294130000" lon="7.395610000">
  <ele>1531.000000</ele>
  <time>2012-05-28T14:09:21Z</time>
</trkpt>
<trkpt lat="46.294160000" lon="7.395640000">
  <ele>1531.000000</ele>
  <time>2012-05-28T14:09:22Z</time>
</trkpt>
<trkpt lat="46.294290000" lon="7.395810000">
  <ele>1527.985470</ele>
  <time>2012-05-28T14:09:26Z</time>
</trkpt>
<trkpt lat="46.294320000" lon="7.395850000">
  <ele>1527.231810</ele>
  <time>2012-05-28T14:09:27Z</time>
</trkpt>
<trkpt lat="46.294340000" lon="7.395890000">
  <ele>1526.478150</ele>
  <time>2012-05-28T14:09:28Z</time>
</trkpt>
<trkpt lat="46.294380000" lon="7.395930000">
  <ele>1525.724490</ele>
  <time>2012-05-28T14:09:29Z</time>
</trkpt>
<trkpt lat="46.294420000" lon="7.395980000">
  <ele>1524.970830</ele>
  <time>2012-05-28T14:09:30Z</time>
</trkpt>
<trkpt lat="46.294460000" lon="7.396010000">
  <ele>1524.217160</ele>
  <time>2012-05-28T14:09:31Z</time>
</trkpt>
<trkpt lat="46.294510000" lon="7.396050000">
  <ele>1523.463620</ele>
  <time>2012-05-28T14:09:32Z</time>
</trkpt>
<trkpt lat="46.294560000" lon="7.396080000">
  <ele>1522.709960</ele>
  <time>2012-05-28T14:09:33Z</time>
</trkpt>
<trkpt lat="46.294620000" lon="7.396110000">
  <ele>1521.956300</ele>
  <time>2012-05-28T14:09:34Z</time>
</trkpt>
<trkpt lat="46.294670000" lon="7.396130000">
  <ele>1521.202640</ele>
  <time>2012-05-28T14:09:35Z</time>
</trkpt>
<trkpt lat="46.294720000" lon="7.396140000">
  <ele>1520.448970</ele>
  <time>2012-05-28T14:09:36Z</time>
</trkpt>
<trkpt lat="46.294770000" lon="7.396150000">
  <ele>1519.695310</ele>
  <time>2012-05-28T14:09:37Z</time>
</trkpt>
<trkpt lat="46.294830000" lon="7.396150000">
  <ele>1518.941770</ele>
  <time>2012-05-28T14:09:38Z</time>
</trkpt>
<trkpt lat="46.294880000" lon="7.396150000">
  <ele>1518.188110</ele>
  <time>2012-05-28T14:09:39Z</time>
</trkpt>
<trkpt lat="46.294930000" lon="7.396140000">
  <ele>1517.434450</ele>
  <time>2012-05-28T14:09:40Z</time>
</trkpt>
<trkpt lat="46.294980000" lon="7.396130000">
  <ele>1516.680790</ele>
  <time>2012-05-28T14:09:41Z</time>
</trkpt>
<trkpt lat="46.295030000" lon="7.396120000">
  <ele>1515.927120</ele>
  <time>2012-05-28T14:09:42Z</time>
</trkpt>
<trkpt lat="46.295080000" lon="7.396110000">
  <ele>1515.173460</ele>
  <time>2012-05-28T14:09:43Z</time>
</trkpt>
<trkpt lat="46.295140000" lon="7.396100000">
  <ele>1514.419800</ele>
  <time>2012-05-28T14:09:44Z</time>
</trkpt>
<trkpt lat="46.295190000" lon="7.396100000">
  <ele>1513.666260</ele>
  <time>2012-05-28T14:09:45Z</time>
</trkpt>
<trkpt lat="46.295250000" lon="7.396100000">
  <ele>1512.912600</ele>
  <time>2012-05-28T14:09:46Z</time>
</trkpt>
<trkpt lat="46.295300000" lon="7.396110000">
  <ele>1512.158940</ele>
  <time>2012-05-28T14:09:47Z</time>
</trkpt>
<trkpt lat="46.295350000" lon="7.396120000">
  <ele>1511.405270</ele>
  <time>2012-05-28T14:09:48Z</time>
</trkpt>
<trkpt lat="46.295400000" lon="7.396140000">
  <ele>1510.651610</ele>
  <time>2012-05-28T14:09:49Z</time>
</trkpt>
<trkpt lat="46.295450000" lon="7.396160000">
  <ele>1509.897950</ele>
  <time>2012-05-28T14:09:50Z</time>
</trkpt>
<trkpt lat="46.295500000" lon="7.396180000">
  <ele>1509.144410</ele>
  <time>2012-05-28T14:09:51Z</time>
</trkpt>
<trkpt lat="46.295540000" lon="7.396200000">
  <ele>1508.390750</ele>
  <time>2012-05-28T14:09:52Z</time>
</trkpt>
<trkpt lat="46.295590000" lon="7.396230000">
  <ele>1507.637080</ele>
  <time>2012-05-28T14:09:53Z</time>
</trkpt>
<trkpt lat="46.295650000" lon="7.396260000">
  <ele>1506.883420</ele>
  <time>2012-05-28T14:09:54Z</time>
</trkpt>
<trkpt lat="46.295700000" lon="7.396280000">
  <ele>1506.129760</ele>
  <time>2012-05-28T14:09:55Z</time>
</trkpt>
<trkpt lat="46.295750000" lon="7.396290000">
  <ele>1505.376100</ele>
  <time>2012-05-28T14:09:56Z</time>
</trkpt>
<trkpt lat="46.295800000" lon="7.396320000">
  <ele>1504.622560</ele>
  <time>2012-05-28T14:09:57Z</time>
</trkpt>
<trkpt lat="46.295850000" lon="7.396350000">
  <ele>1503.868900</ele>
  <time>2012-05-28T14:09:58Z</time>
</trkpt>
<trkpt lat="46.295890000" lon="7.396390000">
  <ele>1503.115230</ele>
  <time>2012-05-28T14:09:59Z</time>
</trkpt>
<trkpt lat="46.295940000" lon="7.396420000">
  <ele>1502.361570</ele>
  <time>2012-05-28T14:10:00Z</time>
</trkpt>
<trkpt lat="46.296000000" lon="7.396450000">
  <ele>1501.607910</ele>
  <time>2012-05-28T14:10:01Z</time>
</trkpt>
<trkpt lat="46.296050000" lon="7.396490000">
  <ele>1500.854250</ele>
  <time>2012-05-28T14:10:02Z</time>
</trkpt>
<trkpt lat="46.296100000" lon="7.396520000">
  <ele>1500.100710</ele>
  <time>2012-05-28T14:10:03Z</time>
</trkpt>
<trkpt lat="46.296150000" lon="7.396560000">
  <ele>1499.347050</ele>
  <time>2012-05-28T14:10:04Z</time>
</trkpt>
<trkpt lat="46.296180000" lon="7.396620000">
  <ele>1498.593380</ele>
  <time>2012-05-28T14:10:05Z</time>
</trkpt>
<trkpt lat="46.296200000" lon="7.396680000">
  <ele>1497.839720</ele>
  <time>2012-05-28T14:10:06Z</time>
</trkpt>
<trkpt lat="46.296220000" lon="7.396750000">
  <ele>1497.086060</ele>
  <time>2012-05-28T14:10:07Z</time>
</trkpt>
<trkpt lat="46.296220000" lon="7.396830000">
  <ele>1496.332400</ele>
  <time>2012-05-28T14:10:08Z</time>
</trkpt>
<trkpt lat="46.296220000" lon="7.396910000">
  <ele>1495.578740</ele>
  <time>2012-05-28T14:10:09Z</time>
</trkpt>
<trkpt lat="46.296200000" lon="7.396990000">
  <ele>1494.825200</ele>
  <time>2012-05-28T14:10:10Z</time>
</trkpt>
<trkpt lat="46.296180000" lon="7.397070000">
  <ele>1494.071530</ele>
  <time>2012-05-28T14:10:11Z</time>
</trkpt>
<trkpt lat="46.296150000" lon="7.397160000">
  <ele>1493.317870</ele>
  <time>2012-05-28T14:10:12Z</time>
</trkpt>
<trkpt lat="46.296130000" lon="7.397250000">
  <ele>1492.564210</ele>
  <time>2012-05-28T14:10:13Z</time>
</trkpt>
<trkpt lat="46.296110000" lon="7.397340000">
  <ele>1491.810550</ele>
  <time>2012-05-28T14:10:14Z</time>
</trkpt>
<trkpt lat="46.296110000" lon="7.397440000">
  <ele>1491.056880</ele>
  <time>2012-05-28T14:10:15Z</time>
</trkpt>
<trkpt lat="46.296120000" lon="7.397530000">
  <ele>1490.303340</ele>
  <time>2012-05-28T14:10:16Z</time>
</trkpt>
<trkpt lat="46.296130000" lon="7.397640000">
  <ele>1489.549680</ele>
  <time>2012-05-28T14:10:17Z</time>
</trkpt>
<trkpt lat="46.296160000" lon="7.397730000">
  <ele>1488.796020</ele>
  <time>2012-05-28T14:10:18Z</time>
</trkpt>
<trkpt lat="46.296190000" lon="7.397820000">
  <ele>1488.042360</ele>
  <time>2012-05-28T14:10:19Z</time>
</trkpt>
<trkpt lat="46.296220000" lon="7.397920000">
  <ele>1487.288700</ele>
  <time>2012-05-28T14:10:20Z</time>
</trkpt>
<trkpt lat="46.296250000" lon="7.398010000">
  <ele>1486.535030</ele>
  <time>2012-05-28T14:10:21Z</time>
</trkpt>
<trkpt lat="46.296270000" lon="7.398090000">
  <ele>1485.781490</ele>
  <time>2012-05-28T14:10:22Z</time>
</trkpt>
<trkpt lat="46.296300000" lon="7.398160000">
  <ele>1485.027830</ele>
  <time>2012-05-28T14:10:23Z</time>
</trkpt>
<trkpt lat="46.296320000" lon="7.398230000">
  <ele>1484.274170</ele>
  <time>2012-05-28T14:10:24Z</time>
</trkpt>
<trkpt lat="46.296340000" lon="7.398300000">
  <ele>1483.520510</ele>
  <time>2012-05-28T14:10:25Z</time>
</trkpt>
<trkpt lat="46.296380000" lon="7.398370000">
  <ele>1482.766850</ele>
  <time>2012-05-28T14:10:26Z</time>
</trkpt>
<trkpt lat="46.296410000" lon="7.398460000">
  <ele>1482.013180</ele>
  <time>2012-05-28T14:10:27Z</time>
</trkpt>
<trkpt lat="46.296430000" lon="7.398570000">
  <ele>1481.259520</ele>
  <time>2012-05-28T14:10:28Z</time>
</trkpt>
<trkpt lat="46.296460000" lon="7.398670000">
  <ele>1480.505980</ele>
  <time>2012-05-28T14:10:29Z</time>
</trkpt>
<trkpt lat="46.296490000" lon="7.398780000">
  <ele>1479.752320</ele>
  <time>2012-05-28T14:10:30Z</time>
</trkpt>
<trkpt lat="46.296500000" lon="7.398900000">
  <ele>1478.998660</ele>
  <time>2012-05-28T14:10:31Z</time>
</trkpt>
<trkpt lat="46.296510000" lon="7.399020000">
  <ele>1478.245000</ele>
  <time>2012-05-28T14:10:32Z</time>
</trkpt>
<trkpt lat="46.296500000" lon="7.399140000">
  <ele>1477.491330</ele>
  <time>2012-05-28T14:10:33Z</time>
</trkpt>
<trkpt lat="46.296490000" lon="7.399250000">
  <ele>1476.737670</ele>
  <time>2012-05-28T14:10:34Z</time>
</trkpt>
<trkpt lat="46.296480000" lon="7.399360000">
  <ele>1475.984130</ele>
  <time>2012-05-28T14:10:35Z</time>
</trkpt>
<trkpt lat="46.296480000" lon="7.399460000">
  <ele>1475.230470</ele>
  <time>2012-05-28T14:10:36Z</time>
</trkpt>
<trkpt lat="46.296490000" lon="7.399560000">
  <ele>1474.476810</ele>
  <time>2012-05-28T14:10:37Z</time>
</trkpt>
<trkpt lat="46.296510000" lon="7.399660000">
  <ele>1473.723140</ele>
  <time>2012-05-28T14:10:38Z</time>
</trkpt>
<trkpt lat="46.296530000" lon="7.399760000">
  <ele>1472.969480</ele>
  <time>2012-05-28T14:10:39Z</time>
</trkpt>
<trkpt lat="46.296540000" lon="7.399870000">
  <ele>1472.215820</ele>
  <time>2012-05-28T14:10:40Z</time>
</trkpt>
<trkpt lat="46.296520000" lon="7.399970000">
  <ele>1471.462280</ele>
  <time>2012-05-28T14:10:41Z</time>
</trkpt>
<trkpt lat="46.296480000" lon="7.400040000">
  <ele>1470.708620</ele>
  <time>2012-05-28T14:10:42Z</time>
</trkpt>
<trkpt lat="46.296410000" lon="7.400110000">
  <ele>1469.954960</ele>
  <time>2012-05-28T14:10:43Z</time>
</trkpt>
<trkpt lat="46.296340000" lon="7.400180000">
  <ele>1469.201290</ele>
  <time>2012-05-28T14:10:44Z</time>
</trkpt>
<trkpt lat="46.296310000" lon="7.400260000">
  <ele>1468.447630</ele>
  <time>2012-05-28T14:10:45Z</time>
</trkpt>
<trkpt lat="46.296290000" lon="7.400360000">
  <ele>1467.693970</ele>
  <time>2012-05-28T14:10:46Z</time>
</trkpt>
<trkpt lat="46.296290000" lon="7.400470000">
  <ele>1466.940430</ele>
  <time>2012-05-28T14:10:47Z</time>
</trkpt>
<trkpt lat="46.296330000" lon="7.400570000">
  <ele>1466.186770</ele>
  <time>2012-05-28T14:10:48Z</time>
</trkpt>
<trkpt lat="46.296360000" lon="7.400670000">
  <ele>1465.433110</ele>
  <time>2012-05-28T14:10:49Z</time>
</trkpt>
<trkpt lat="46.296400000" lon="7.400750000">
  <ele>1464.679440</ele>
  <time>2012-05-28T14:10:50Z</time>
</trkpt>
<trkpt lat="46.296440000" lon="7.400850000">
  <ele>1463.925780</ele>
  <time>2012-05-28T14:10:51Z</time>
</trkpt>
<trkpt lat="46.296490000" lon="7.400940000">
  <ele>1463.172120</ele>
  <time>2012-05-28T14:10:52Z</time>
</trkpt>
<trkpt lat="46.296530000" lon="7.401030000">
  <ele>1462.418460</ele>
  <time>2012-05-28T14:10:53Z</time>
</trkpt>
<trkpt lat="46.296570000" lon="7.401130000">
  <ele>1461.664920</ele>
  <time>2012-05-28T14:10:54Z</time>
</trkpt>
<trkpt lat="46.296610000" lon="7.401230000">
  <ele>1460.911250</ele>
  <time>2012-05-28T14:10:55Z</time>
</trkpt>
<trkpt lat="46.296640000" lon="7.401340000">
  <ele>1460.157590</ele>
  <time>2012-05-28T14:10:56Z</time>
</trkpt>
<trkpt lat="46.296670000" lon="7.401460000">
  <ele>1459.403930</ele>
  <time>2012-05-28T14:10:57Z</time>
</trkpt>
<trkpt lat="46.296710000" lon="7.401560000">
  <ele>1458.650270</ele>
  <time>2012-05-28T14:10:58Z</time>
</trkpt>
<trkpt lat="46.296750000" lon="7.401660000">
  <ele>1457.896610</ele>
  <time>2012-05-28T14:10:59Z</time>
</trkpt>
<trkpt lat="46.296790000" lon="7.401750000">
  <ele>1457.143070</ele>
  <time>2012-05-28T14:11:00Z</time>
</trkpt>
<trkpt lat="46.296840000" lon="7.401840000">
  <ele>1456.389400</ele>
  <time>2012-05-28T14:11:01Z</time>
</trkpt>
<trkpt lat="46.296880000" lon="7.401940000">
  <ele>1455.635740</ele>
  <time>2012-05-28T14:11:02Z</time>
</trkpt>
<trkpt lat="46.296940000" lon="7.402050000">
  <ele>1454.882080</ele>
  <time>2012-05-28T14:11:03Z</time>
</trkpt>
<trkpt lat="46.296990000" lon="7.402150000">
  <ele>1454.128420</ele>
  <time>2012-05-28T14:11:04Z</time>
</trkpt>
<trkpt lat="46.297050000" lon="7.402250000">
  <ele>1453.374760</ele>
  <time>2012-05-28T14:11:05Z</time>
</trkpt>
<trkpt lat="46.297110000" lon="7.402350000">
  <ele>1452.621220</ele>
  <time>2012-05-28T14:11:06Z</time>
</trkpt>
<trkpt lat="46.297160000" lon="7.402460000">
  <ele>1451.867550</ele>
  <time>2012-05-28T14:11:07Z</time>
</trkpt>
<trkpt lat="46.297200000" lon="7.402560000">
  <ele>1451.113890</ele>
  <time>2012-05-28T14:11:08Z</time>
</trkpt>
<trkpt lat="46.297250000" lon="7.402680000">
  <ele>1450.360230</ele>
  <time>2012-05-28T14:11:09Z</time>
</trkpt>
<trkpt lat="46.297290000" lon="7.402790000">
  <ele>1449.606570</ele>
  <time>2012-05-28T14:11:10Z</time>
</trkpt>
<trkpt lat="46.297340000" lon="7.402910000">
  <ele>1448.852910</ele>
  <time>2012-05-28T14:11:11Z</time>
</trkpt>
<trkpt lat="46.297410000" lon="7.403010000">
  <ele>1448.099240</ele>
  <time>2012-05-28T14:11:12Z</time>
</trkpt>
<trkpt lat="46.297480000" lon="7.403110000">
  <ele>1447.345700</ele>
  <time>2012-05-28T14:11:13Z</time>
</trkpt>
<trkpt lat="46.297560000" lon="7.403190000">
  <ele>1446.592040</ele>
  <time>2012-05-28T14:11:14Z</time>
</trkpt>
<trkpt lat="46.297640000" lon="7.403270000">
  <ele>1445.838380</ele>
  <time>2012-05-28T14:11:15Z</time>
</trkpt>
<trkpt lat="46.297700000" lon="7.403370000">
  <ele>1445.084720</ele>
  <time>2012-05-28T14:11:16Z</time>
</trkpt>
<trkpt lat="46.297760000" lon="7.403470000">
  <ele>1444.331050</ele>
  <time>2012-05-28T14:11:17Z</time>
</trkpt>
<trkpt lat="46.297810000" lon="7.403590000">
  <ele>1443.577390</ele>
  <time>2012-05-28T14:11:18Z</time>
</trkpt>
<trkpt lat="46.297850000" lon="7.403700000">
  <ele>1442.823850</ele>
  <time>2012-05-28T14:11:19Z</time>
</trkpt>
<trkpt lat="46.297890000" lon="7.403800000">
  <ele>1442.070190</ele>
  <time>2012-05-28T14:11:20Z</time>
</trkpt>
<trkpt lat="46.297940000" lon="7.403920000">
  <ele>1441.316530</ele>
  <time>2012-05-28T14:11:21Z</time>
</trkpt>
<trkpt lat="46.297980000" lon="7.404030000">
  <ele>1440.562870</ele>
  <time>2012-05-28T14:11:22Z</time>
</trkpt>
<trkpt lat="46.298030000" lon="7.404140000">
  <ele>1439.809200</ele>
  <time>2012-05-28T14:11:23Z</time>
</trkpt>
<trkpt lat="46.298100000" lon="7.404250000">
  <ele>1439.055540</ele>
  <time>2012-05-28T14:11:24Z</time>
</trkpt>
<trkpt lat="46.298170000" lon="7.404350000">
  <ele>1438.302000</ele>
  <time>2012-05-28T14:11:25Z</time>
</trkpt>
<trkpt lat="46.298240000" lon="7.404450000">
  <ele>1437.548340</ele>
  <time>2012-05-28T14:11:26Z</time>
</trkpt>
<trkpt lat="46.298310000" lon="7.404540000">
  <ele>1436.794680</ele>
  <time>2012-05-28T14:11:27Z</time>
</trkpt>
<trkpt lat="46.298390000" lon="7.404630000">
  <ele>1436.041020</ele>
  <time>2012-05-28T14:11:28Z</time>
</trkpt>
<trkpt lat="46.298470000" lon="7.404720000">
  <ele>1435.287350</ele>
  <time>2012-05-28T14:11:29Z</time>
</trkpt>
<trkpt lat="46.298550000" lon="7.404820000">
  <ele>1434.533690</ele>
  <time>2012-05-28T14:11:30Z</time>
</trkpt>
<trkpt lat="46.298620000" lon="7.404910000">
  <ele>1433.780150</ele>
  <time>2012-05-28T14:11:31Z</time>
</trkpt>
<trkpt lat="46.298700000" lon="7.405000000">
  <ele>1433.026490</ele>
  <time>2012-05-28T14:11:32Z</time>
</trkpt>
<trkpt lat="46.298780000" lon="7.405090000">
  <ele>1432.272830</ele>
  <time>2012-05-28T14:11:33Z</time>
</trkpt>
<trkpt lat="46.298870000" lon="7.405180000">
  <ele>1431.519170</ele>
  <time>2012-05-28T14:11:34Z</time>
</trkpt>
<trkpt lat="46.298950000" lon="7.405250000">
  <ele>1430.765500</ele>
  <time>2012-05-28T14:11:35Z</time>
</trkpt>
<trkpt lat="46.299030000" lon="7.405310000">
  <ele>1430.011840</ele>
  <time>2012-05-28T14:11:36Z</time>
</trkpt>
<trkpt lat="46.299110000" lon="7.405350000">
  <ele>1429.258180</ele>
  <time>2012-05-28T14:11:37Z</time>
</trkpt>
<trkpt lat="46.299200000" lon="7.405360000">
  <ele>1428.504640</ele>
  <time>2012-05-28T14:11:38Z</time>
</trkpt>
<trkpt lat="46.299280000" lon="7.405360000">
  <ele>1427.750980</ele>
  <time>2012-05-28T14:11:39Z</time>
</trkpt>
<trkpt lat="46.299360000" lon="7.405330000">
  <ele>1426.997310</ele>
  <time>2012-05-28T14:11:40Z</time>
</trkpt>
<trkpt lat="46.299440000" lon="7.405320000">
  <ele>1426.243650</ele>
  <time>2012-05-28T14:11:41Z</time>
</trkpt>
<trkpt lat="46.299510000" lon="7.405340000">
  <ele>1425.489990</ele>
  <time>2012-05-28T14:11:42Z</time>
</trkpt>
<trkpt lat="46.299570000" lon="7.405410000">
  <ele>1424.736330</ele>
  <time>2012-05-28T14:11:43Z</time>
</trkpt>
<trkpt lat="46.299590000" lon="7.405510000">
  <ele>1423.982790</ele>
  <time>2012-05-28T14:11:44Z</time>
</trkpt>
<trkpt lat="46.299570000" lon="7.405610000">
  <ele>1423.229130</ele>
  <time>2012-05-28T14:11:45Z</time>
</trkpt>
<trkpt lat="46.299550000" lon="7.405690000">
  <ele>1422.475460</ele>
  <time>2012-05-28T14:11:46Z</time>
</trkpt>
<trkpt lat="46.299510000" lon="7.405730000">
  <ele>1421.721800</ele>
  <time>2012-05-28T14:11:47Z</time>
</trkpt>
<trkpt lat="46.299470000" lon="7.405760000">
  <ele>1420.968140</ele>
  <time>2012-05-28T14:11:48Z</time>
</trkpt>
<trkpt lat="46.299400000" lon="7.405770000">
  <ele>1420.214480</ele>
  <time>2012-05-28T14:11:49Z</time>
</trkpt>
<trkpt lat="46.299260000" lon="7.405720000">
  <ele>1419.460940</ele>
  <time>2012-05-28T14:11:50Z</time>
</trkpt>
<trkpt lat="46.299160000" lon="7.405680000">
  <ele>1418.707280</ele>
  <time>2012-05-28T14:11:51Z</time>
</trkpt>
<trkpt lat="46.299060000" lon="7.405680000">
  <ele>1417.953610</ele>
  <time>2012-05-28T14:11:52Z</time>
</trkpt>
<trkpt lat="46.298970000" lon="7.405690000">
  <ele>1417.199950</ele>
  <time>2012-05-28T14:11:53Z</time>
</trkpt>
<trkpt lat="46.298880000" lon="7.405720000">
  <ele>1417.199950</ele>
  <time>2012-05-28T14:11:54Z</time>
</trkpt>
<trkpt lat="46.298800000" lon="7.405770000">
  <ele>1416.760010</ele>
  <time>2012-05-28T14:11:55Z</time>
</trkpt>
<trkpt lat="46.298710000" lon="7.405830000">
  <ele>1416.319950</ele>
  <time>2012-05-28T14:11:56Z</time>
</trkpt>
<trkpt lat="46.298650000" lon="7.405900000">
  <ele>1415.880000</ele>
  <time>2012-05-28T14:11:57Z</time>
</trkpt>
<trkpt lat="46.298580000" lon="7.405970000">
  <ele>1415.439940</ele>
  <time>2012-05-28T14:11:58Z</time>
</trkpt>
<trkpt lat="46.298530000" lon="7.406040000">
  <ele>1415.000000</ele>
  <time>2012-05-28T14:11:59Z</time>
</trkpt>
<trkpt lat="46.298400000" lon="7.406160000">
  <ele>1415.000000</ele>
  <time>2012-05-28T14:12:01Z</time>
</trkpt>
<trkpt lat="46.298260000" lon="7.406220000">
  <ele>1415.400020</ele>
  <time>2012-05-28T14:12:03Z</time>
</trkpt>
<trkpt lat="46.298130000" lon="7.406260000">
  <ele>1415.800050</ele>
  <time>2012-05-28T14:12:05Z</time>
</trkpt>
<trkpt lat="46.297970000" lon="7.406310000">
  <ele>1416.400020</ele>
  <time>2012-05-28T14:12:08Z</time>
</trkpt>
<trkpt lat="46.297940000" lon="7.406330000">
  <ele>1416.599980</ele>
  <time>2012-05-28T14:12:09Z</time>
</trkpt>
<trkpt lat="46.297900000" lon="7.406340000">
  <ele>1416.800050</ele>
  <time>2012-05-28T14:12:10Z</time>
</trkpt>
<trkpt lat="46.297850000" lon="7.406350000">
  <ele>1417.000000</ele>
  <time>2012-05-28T14:12:11Z</time>
</trkpt>
<trkpt lat="46.297810000" lon="7.406360000">
  <ele>1417.200070</ele>
  <time>2012-05-28T14:12:12Z</time>
</trkpt>
<trkpt lat="46.297770000" lon="7.406370000">
  <ele>1417.400020</ele>
  <time>2012-05-28T14:12:13Z</time>
</trkpt>
<trkpt lat="46.297610000" lon="7.406400000">
  <ele>1417.400020</ele>
  <time>2012-05-28T14:12:17Z</time>
</trkpt>
<trkpt lat="46.297490000" lon="7.406430000">
  <ele>1418.133300</ele>
  <time>2012-05-28T14:12:20Z</time>
</trkpt>
<trkpt lat="46.297440000" lon="7.406420000">
  <ele>1418.622190</ele>
  <time>2012-05-28T14:12:22Z</time>
</trkpt>
<trkpt lat="46.297420000" lon="7.406430000">
  <ele>1418.866700</ele>
  <time>2012-05-28T14:12:23Z</time>
</trkpt>
<trkpt lat="46.297410000" lon="7.406440000">
  <ele>1419.111080</ele>
  <time>2012-05-28T14:12:24Z</time>
</trkpt>
<trkpt lat="46.297410000" lon="7.406440000">
  <ele>1419.355590</ele>
  <time>2012-05-28T14:12:25Z</time>
</trkpt>
<trkpt lat="46.297410000" lon="7.406440000">
  <ele>1419.599980</ele>
  <time>2012-05-28T14:12:26Z</time>
</trkpt>
<trkpt lat="46.297410000" lon="7.406440000">
  <ele>1419.599980</ele>
  <time>2012-05-28T14:12:29Z</time>
</trkpt>
<trkpt lat="46.297410000" lon="7.406440000">
  <ele>1417.557620</ele>
  <time>2012-05-28T14:12:43Z</time>
</trkpt>
<trkpt lat="46.297410000" lon="7.406440000">
  <ele>1416.682370</ele>
  <time>2012-05-28T14:12:49Z</time>
</trkpt>
<trkpt lat="46.297410000" lon="7.406440000">
  <ele>1415.515260</ele>
  <time>2012-05-28T14:12:57Z</time>
</trkpt>
<trkpt lat="46.297410000" lon="7.406430000">
  <ele>1413.910520</ele>
  <time>2012-05-28T14:13:08Z</time>
</trkpt>
<trkpt lat="46.297410000" lon="7.406430000">
  <ele>1412.014040</ele>
  <time>2012-05-28T14:13:21Z</time>
</trkpt>
<trkpt lat="46.297350000" lon="7.406450000">
  <ele>1411.138790</ele>
  <time>2012-05-28T14:13:27Z</time>
</trkpt>
<trkpt lat="46.297200000" lon="7.406470000">
  <ele>1410.409420</ele>
  <time>2012-05-28T14:13:32Z</time>
</trkpt>
<trkpt lat="46.297160000" lon="7.406480000">
  <ele>1410.263430</ele>
  <time>2012-05-28T14:13:33Z</time>
</trkpt>
<trkpt lat="46.297120000" lon="7.406470000">
  <ele>1410.117550</ele>
  <time>2012-05-28T14:13:34Z</time>
</trkpt>
<trkpt lat="46.297010000" lon="7.406390000">
  <ele>1409.825810</ele>
  <time>2012-05-28T14:13:36Z</time>
</trkpt>
<trkpt lat="46.296970000" lon="7.406340000">
  <ele>1409.679930</ele>
  <time>2012-05-28T14:13:37Z</time>
</trkpt>
<trkpt lat="46.296920000" lon="7.406280000">
  <ele>1409.534060</ele>
  <time>2012-05-28T14:13:38Z</time>
</trkpt>
<trkpt lat="46.296880000" lon="7.406220000">
  <ele>1409.388180</ele>
  <time>2012-05-28T14:13:39Z</time>
</trkpt>
<trkpt lat="46.296830000" lon="7.406170000">
  <ele>1409.242310</ele>
  <time>2012-05-28T14:13:40Z</time>
</trkpt>
<trkpt lat="46.296780000" lon="7.406120000">
  <ele>1409.096440</ele>
  <time>2012-05-28T14:13:41Z</time>
</trkpt>
<trkpt lat="46.296730000" lon="7.406060000">
  <ele>1408.950560</ele>
  <time>2012-05-28T14:13:42Z</time>
</trkpt>
<trkpt lat="46.296670000" lon="7.406020000">
  <ele>1408.804690</ele>
  <time>2012-05-28T14:13:43Z</time>
</trkpt>
<trkpt lat="46.296600000" lon="7.405980000">
  <ele>1408.658810</ele>
  <time>2012-05-28T14:13:44Z</time>
</trkpt>
<trkpt lat="46.296520000" lon="7.405970000">
  <ele>1408.512940</ele>
  <time>2012-05-28T14:13:45Z</time>
</trkpt>
<trkpt lat="46.296440000" lon="7.405970000">
  <ele>1408.367070</ele>
  <time>2012-05-28T14:13:46Z</time>
</trkpt>
<trkpt lat="46.296360000" lon="7.405970000">
  <ele>1408.221070</ele>
  <time>2012-05-28T14:13:47Z</time>
</trkpt>
<trkpt lat="46.296280000" lon="7.406010000">
  <ele>1408.075200</ele>
  <time>2012-05-28T14:13:48Z</time>
</trkpt>
<trkpt lat="46.296200000" lon="7.406050000">
  <ele>1407.929320</ele>
  <time>2012-05-28T14:13:49Z</time>
</trkpt>
<trkpt lat="46.296120000" lon="7.406090000">
  <ele>1407.783450</ele>
  <time>2012-05-28T14:13:50Z</time>
</trkpt>
<trkpt lat="46.296020000" lon="7.406110000">
  <ele>1407.637570</ele>
  <time>2012-05-28T14:13:51Z</time>
</trkpt>
<trkpt lat="46.295940000" lon="7.406100000">
  <ele>1407.491700</ele>
  <time>2012-05-28T14:13:52Z</time>
</trkpt>
<trkpt lat="46.295850000" lon="7.406090000">
  <ele>1407.345830</ele>
  <time>2012-05-28T14:13:53Z</time>
</trkpt>
<trkpt lat="46.295760000" lon="7.406080000">
  <ele>1407.199950</ele>
  <time>2012-05-28T14:13:54Z</time>
</trkpt>
<trkpt lat="46.295550000" lon="7.406020000">
  <ele>1407.199950</ele>
  <time>2012-05-28T14:13:57Z</time>
</trkpt>
<trkpt lat="46.295460000" lon="7.405980000">
  <ele>1406.131590</ele>
  <time>2012-05-28T14:13:58Z</time>
</trkpt>
<trkpt lat="46.295370000" lon="7.405910000">
  <ele>1405.063110</ele>
  <time>2012-05-28T14:13:59Z</time>
</trkpt>
<trkpt lat="46.295290000" lon="7.405850000">
  <ele>1403.994630</ele>
  <time>2012-05-28T14:14:00Z</time>
</trkpt>
<trkpt lat="46.295200000" lon="7.405770000">
  <ele>1402.926270</ele>
  <time>2012-05-28T14:14:01Z</time>
</trkpt>
<trkpt lat="46.295120000" lon="7.405690000">
  <ele>1401.857910</ele>
  <time>2012-05-28T14:14:02Z</time>
</trkpt>
<trkpt lat="46.295040000" lon="7.405600000">
  <ele>1400.789430</ele>
  <time>2012-05-28T14:14:03Z</time>
</trkpt>
<trkpt lat="46.294960000" lon="7.405510000">
  <ele>1399.720950</ele>
  <time>2012-05-28T14:14:04Z</time>
</trkpt>
<trkpt lat="46.294890000" lon="7.405410000">
  <ele>1398.652590</ele>
  <time>2012-05-28T14:14:05Z</time>
</trkpt>
<trkpt lat="46.294820000" lon="7.405290000">
  <ele>1397.584230</ele>
  <time>2012-05-28T14:14:06Z</time>
</trkpt>
<trkpt lat="46.294750000" lon="7.405180000">
  <ele>1396.515750</ele>
  <time>2012-05-28T14:14:07Z</time>
</trkpt>
<trkpt lat="46.294670000" lon="7.405070000">
  <ele>1395.447270</ele>
  <time>2012-05-28T14:14:08Z</time>
</trkpt>
<trkpt lat="46.294600000" lon="7.404980000">
  <ele>1394.378910</ele>
  <time>2012-05-28T14:14:09Z</time>
</trkpt>
<trkpt lat="46.294510000" lon="7.404900000">
  <ele>1393.310550</ele>
  <time>2012-05-28T14:14:10Z</time>
</trkpt>
<trkpt lat="46.294420000" lon="7.404830000">
  <ele>1392.242070</ele>
  <time>2012-05-28T14:14:11Z</time>
</trkpt>
<trkpt lat="46.294320000" lon="7.404770000">
  <ele>1391.173580</ele>
  <time>2012-05-28T14:14:12Z</time>
</trkpt>
<trkpt lat="46.294230000" lon="7.404700000">
  <ele>1390.105220</ele>
  <time>2012-05-28T14:14:13Z</time>
</trkpt>
<trkpt lat="46.294140000" lon="7.404610000">
  <ele>1389.036870</ele>
  <time>2012-05-28T14:14:14Z</time>
</trkpt>
<trkpt lat="46.294060000" lon="7.404500000">
  <ele>1387.968380</ele>
  <time>2012-05-28T14:14:15Z</time>
</trkpt>
<trkpt lat="46.293980000" lon="7.404400000">
  <ele>1386.899900</ele>
  <time>2012-05-28T14:14:16Z</time>
</trkpt>
<trkpt lat="46.293900000" lon="7.404310000">
  <ele>1385.831540</ele>
  <time>2012-05-28T14:14:17Z</time>
</trkpt>
<trkpt lat="46.293820000" lon="7.404220000">
  <ele>1384.763180</ele>
  <time>2012-05-28T14:14:18Z</time>
</trkpt>
<trkpt lat="46.293740000" lon="7.404130000">
  <ele>1383.694700</ele>
  <time>2012-05-28T14:14:19Z</time>
</trkpt>
<trkpt lat="46.293670000" lon="7.404030000">
  <ele>1382.626220</ele>
  <time>2012-05-28T14:14:20Z</time>
</trkpt>
<trkpt lat="46.293610000" lon="7.403920000">
  <ele>1381.557860</ele>
  <time>2012-05-28T14:14:21Z</time>
</trkpt>
<trkpt lat="46.293570000" lon="7.403770000">
  <ele>1380.489500</ele>
  <time>2012-05-28T14:14:22Z</time>
</trkpt>
<trkpt lat="46.293540000" lon="7.403630000">
  <ele>1379.421020</ele>
  <time>2012-05-28T14:14:23Z</time>
</trkpt>
<trkpt lat="46.293540000" lon="7.403470000">
  <ele>1378.352540</ele>
  <time>2012-05-28T14:14:24Z</time>
</trkpt>
<trkpt lat="46.293540000" lon="7.403330000">
  <ele>1377.284180</ele>
  <time>2012-05-28T14:14:25Z</time>
</trkpt>
<trkpt lat="46.293540000" lon="7.403180000">
  <ele>1376.215820</ele>
  <time>2012-05-28T14:14:26Z</time>
</trkpt>
<trkpt lat="46.293530000" lon="7.403040000">
  <ele>1375.147340</ele>
  <time>2012-05-28T14:14:27Z</time>
</trkpt>
<trkpt lat="46.293500000" lon="7.402910000">
  <ele>1374.078860</ele>
  <time>2012-05-28T14:14:28Z</time>
</trkpt>
<trkpt lat="46.293430000" lon="7.402830000">
  <ele>1373.010500</ele>
  <time>2012-05-28T14:14:29Z</time>
</trkpt>
<trkpt lat="46.293330000" lon="7.402760000">
  <ele>1371.942140</ele>
  <time>2012-05-28T14:14:30Z</time>
</trkpt>
<trkpt lat="46.293240000" lon="7.402700000">
  <ele>1370.873660</ele>
  <time>2012-05-28T14:14:31Z</time>
</trkpt>
<trkpt lat="46.293150000" lon="7.402640000">
  <ele>1369.805180</ele>
  <time>2012-05-28T14:14:32Z</time>
</trkpt>
<trkpt lat="46.293080000" lon="7.402580000">
  <ele>1368.736820</ele>
  <time>2012-05-28T14:14:33Z</time>
</trkpt>
<trkpt lat="46.293000000" lon="7.402520000">
  <ele>1367.668460</ele>
  <time>2012-05-28T14:14:34Z</time>
</trkpt>
<trkpt lat="46.292930000" lon="7.402500000">
  <ele>1366.599980</ele>
  <time>2012-05-28T14:14:35Z</time>
</trkpt>
<trkpt lat="46.292850000" lon="7.402640000">
  <ele>1366.599980</ele>
  <time>2012-05-28T14:14:37Z</time>
</trkpt>
<trkpt lat="46.292820000" lon="7.402800000">
  <ele>1364.289430</ele>
  <time>2012-05-28T14:14:39Z</time>
</trkpt>
<trkpt lat="46.292850000" lon="7.402920000">
  <ele>1363.134160</ele>
  <time>2012-05-28T14:14:40Z</time>
</trkpt>
<trkpt lat="46.292880000" lon="7.403040000">
  <ele>1361.978760</ele>
  <time>2012-05-28T14:14:41Z</time>
</trkpt>
<trkpt lat="46.292850000" lon="7.403160000">
  <ele>1360.823490</ele>
  <time>2012-05-28T14:14:42Z</time>
</trkpt>
<trkpt lat="46.292820000" lon="7.403280000">
  <ele>1359.668210</ele>
  <time>2012-05-28T14:14:43Z</time>
</trkpt>
<trkpt lat="46.292800000" lon="7.403380000">
  <ele>1358.512940</ele>
  <time>2012-05-28T14:14:44Z</time>
</trkpt>
<trkpt lat="46.292750000" lon="7.403470000">
  <ele>1357.357670</ele>
  <time>2012-05-28T14:14:45Z</time>
</trkpt>
<trkpt lat="46.292660000" lon="7.403510000">
  <ele>1356.202390</ele>
  <time>2012-05-28T14:14:46Z</time>
</trkpt>
<trkpt lat="46.292600000" lon="7.403580000">
  <ele>1355.047000</ele>
  <time>2012-05-28T14:14:47Z</time>
</trkpt>
<trkpt lat="46.292570000" lon="7.403680000">
  <ele>1353.891720</ele>
  <time>2012-05-28T14:14:48Z</time>
</trkpt>
<trkpt lat="46.292580000" lon="7.403820000">
  <ele>1352.736450</ele>
  <time>2012-05-28T14:14:49Z</time>
</trkpt>
<trkpt lat="46.292610000" lon="7.403950000">
  <ele>1351.581180</ele>
  <time>2012-05-28T14:14:50Z</time>
</trkpt>
<trkpt lat="46.292640000" lon="7.404090000">
  <ele>1350.425900</ele>
  <time>2012-05-28T14:14:51Z</time>
</trkpt>
<trkpt lat="46.292670000" lon="7.404230000">
  <ele>1349.270630</ele>
  <time>2012-05-28T14:14:52Z</time>
</trkpt>
<trkpt lat="46.292730000" lon="7.404370000">
  <ele>1348.115230</ele>
  <time>2012-05-28T14:14:53Z</time>
</trkpt>
<trkpt lat="46.292800000" lon="7.404510000">
  <ele>1346.959960</ele>
  <time>2012-05-28T14:14:54Z</time>
</trkpt>
<trkpt lat="46.292850000" lon="7.404660000">
  <ele>1345.804690</ele>
  <time>2012-05-28T14:14:55Z</time>
</trkpt>
<trkpt lat="46.292930000" lon="7.404800000">
  <ele>1344.649410</ele>
  <time>2012-05-28T14:14:56Z</time>
</trkpt>
<trkpt lat="46.292980000" lon="7.404970000">
  <ele>1343.494140</ele>
  <time>2012-05-28T14:14:57Z</time>
</trkpt>
<trkpt lat="46.293030000" lon="7.405130000">
  <ele>1342.338870</ele>
  <time>2012-05-28T14:14:58Z</time>
</trkpt>
<trkpt lat="46.293080000" lon="7.405280000">
  <ele>1341.183470</ele>
  <time>2012-05-28T14:14:59Z</time>
</trkpt>
<trkpt lat="46.293120000" lon="7.405450000">
  <ele>1340.028200</ele>
  <time>2012-05-28T14:15:00Z</time>
</trkpt>
<trkpt lat="46.293160000" lon="7.405610000">
  <ele>1338.872920</ele>
  <time>2012-05-28T14:15:01Z</time>
</trkpt>
<trkpt lat="46.293200000" lon="7.405770000">
  <ele>1337.717650</ele>
  <time>2012-05-28T14:15:02Z</time>
</trkpt>
<trkpt lat="46.293240000" lon="7.405930000">
  <ele>1336.562380</ele>
  <time>2012-05-28T14:15:03Z</time>
</trkpt>
<trkpt lat="46.293290000" lon="7.406080000">
  <ele>1335.407100</ele>
  <time>2012-05-28T14:15:04Z</time>
</trkpt>
<trkpt lat="46.293310000" lon="7.406240000">
  <ele>1334.251710</ele>
  <time>2012-05-28T14:15:05Z</time>
</trkpt>
<trkpt lat="46.293330000" lon="7.406400000">
  <ele>1333.096440</ele>
  <time>2012-05-28T14:15:06Z</time>
</trkpt>
<trkpt lat="46.293330000" lon="7.406570000">
  <ele>1331.941160</ele>
  <time>2012-05-28T14:15:07Z</time>
</trkpt>
<trkpt lat="46.293310000" lon="7.406740000">
  <ele>1330.785890</ele>
  <time>2012-05-28T14:15:08Z</time>
</trkpt>
<trkpt lat="46.293290000" lon="7.406910000">
  <ele>1329.630620</ele>
  <time>2012-05-28T14:15:09Z</time>
</trkpt>
<trkpt lat="46.293280000" lon="7.407080000">
  <ele>1328.475340</ele>
  <time>2012-05-28T14:15:10Z</time>
</trkpt>
<trkpt lat="46.293280000" lon="7.407240000">
  <ele>1327.319950</ele>
  <time>2012-05-28T14:15:11Z</time>
</trkpt>
<trkpt lat="46.293300000" lon="7.407400000">
  <ele>1326.164670</ele>
  <time>2012-05-28T14:15:12Z</time>
</trkpt>
<trkpt lat="46.293330000" lon="7.407560000">
  <ele>1325.009400</ele>
  <time>2012-05-28T14:15:13Z</time>
</trkpt>
<trkpt lat="46.293390000" lon="7.407710000">
  <ele>1323.854130</ele>
  <time>2012-05-28T14:15:14Z</time>
</trkpt>
<trkpt lat="46.293440000" lon="7.407870000">
  <ele>1322.698850</ele>
  <time>2012-05-28T14:15:15Z</time>
</trkpt>
<trkpt lat="46.293490000" lon="7.408020000">
  <ele>1321.543580</ele>
  <time>2012-05-28T14:15:16Z</time>
</trkpt>
<trkpt lat="46.293560000" lon="7.408150000">
  <ele>1320.388180</ele>
  <time>2012-05-28T14:15:17Z</time>
</trkpt>
<trkpt lat="46.293640000" lon="7.408270000">
  <ele>1319.232910</ele>
  <time>2012-05-28T14:15:18Z</time>
</trkpt>
<trkpt lat="46.293730000" lon="7.408380000">
  <ele>1318.077640</ele>
  <time>2012-05-28T14:15:19Z</time>
</trkpt>
<trkpt lat="46.293840000" lon="7.408470000">
  <ele>1316.922360</ele>
  <time>2012-05-28T14:15:20Z</time>
</trkpt>
<trkpt lat="46.293950000" lon="7.408570000">
  <ele>1315.767090</ele>
  <time>2012-05-28T14:15:21Z</time>
</trkpt>
<trkpt lat="46.294060000" lon="7.408670000">
  <ele>1314.611820</ele>
  <time>2012-05-28T14:15:22Z</time>
</trkpt>
<trkpt lat="46.294160000" lon="7.408780000">
  <ele>1313.456420</ele>
  <time>2012-05-28T14:15:23Z</time>
</trkpt>
<trkpt lat="46.294260000" lon="7.408890000">
  <ele>1312.301150</ele>
  <time>2012-05-28T14:15:24Z</time>
</trkpt>
<trkpt lat="46.294350000" lon="7.409010000">
  <ele>1311.145870</ele>
  <time>2012-05-28T14:15:25Z</time>
</trkpt>
<trkpt lat="46.294410000" lon="7.409140000">
  <ele>1309.990600</ele>
  <time>2012-05-28T14:15:26Z</time>
</trkpt>
<trkpt lat="46.294480000" lon="7.409290000">
  <ele>1308.835330</ele>
  <time>2012-05-28T14:15:27Z</time>
</trkpt>
<trkpt lat="46.294520000" lon="7.409460000">
  <ele>1307.680050</ele>
  <time>2012-05-28T14:15:28Z</time>
</trkpt>
<trkpt lat="46.294560000" lon="7.409630000">
  <ele>1306.524660</ele>
  <time>2012-05-28T14:15:29Z</time>
</trkpt>
<trkpt lat="46.294570000" lon="7.409820000">
  <ele>1305.369380</ele>
  <time>2012-05-28T14:15:30Z</time>
</trkpt>
<trkpt lat="46.294580000" lon="7.410010000">
  <ele>1304.214110</ele>
  <time>2012-05-28T14:15:31Z</time>
</trkpt>
<trkpt lat="46.294580000" lon="7.410200000">
  <ele>1303.058840</ele>
  <time>2012-05-28T14:15:32Z</time>
</trkpt>
<trkpt lat="46.294600000" lon="7.410400000">
  <ele>1301.903560</ele>
  <time>2012-05-28T14:15:33Z</time>
</trkpt>
<trkpt lat="46.294650000" lon="7.410580000">
  <ele>1300.748290</ele>
  <time>2012-05-28T14:15:34Z</time>
</trkpt>
<trkpt lat="46.294680000" lon="7.410770000">
  <ele>1299.592900</ele>
  <time>2012-05-28T14:15:35Z</time>
</trkpt>
<trkpt lat="46.294700000" lon="7.410970000">
  <ele>1298.437620</ele>
  <time>2012-05-28T14:15:36Z</time>
</trkpt>
<trkpt lat="46.294720000" lon="7.411160000">
  <ele>1297.282350</ele>
  <time>2012-05-28T14:15:37Z</time>
</trkpt>
<trkpt lat="46.294720000" lon="7.411360000">
  <ele>1296.127080</ele>
  <time>2012-05-28T14:15:38Z</time>
</trkpt>
<trkpt lat="46.294720000" lon="7.411600000">
  <ele>1294.971800</ele>
  <time>2012-05-28T14:15:39Z</time>
</trkpt>
<trkpt lat="46.294740000" lon="7.411780000">
  <ele>1293.816530</ele>
  <time>2012-05-28T14:15:40Z</time>
</trkpt>
<trkpt lat="46.294780000" lon="7.411950000">
  <ele>1292.661130</ele>
  <time>2012-05-28T14:15:41Z</time>
</trkpt>
<trkpt lat="46.294820000" lon="7.412130000">
  <ele>1291.505860</ele>
  <time>2012-05-28T14:15:42Z</time>
</trkpt>
<trkpt lat="46.294860000" lon="7.412300000">
  <ele>1290.350590</ele>
  <time>2012-05-28T14:15:43Z</time>
</trkpt>
<trkpt lat="46.294930000" lon="7.412480000">
  <ele>1289.195310</ele>
  <time>2012-05-28T14:15:44Z</time>
</trkpt>
<trkpt lat="46.294990000" lon="7.412650000">
  <ele>1288.040040</ele>
  <time>2012-05-28T14:15:45Z</time>
</trkpt>
<trkpt lat="46.295050000" lon="7.412830000">
  <ele>1286.884770</ele>
  <time>2012-05-28T14:15:46Z</time>
</trkpt>
<trkpt lat="46.295110000" lon="7.413000000">
  <ele>1285.729370</ele>
  <time>2012-05-28T14:15:47Z</time>
</trkpt>
<trkpt lat="46.295170000" lon="7.413170000">
  <ele>1284.574100</ele>
  <time>2012-05-28T14:15:48Z</time>
</trkpt>
<trkpt lat="46.295240000" lon="7.413320000">
  <ele>1283.418820</ele>
  <time>2012-05-28T14:15:49Z</time>
</trkpt>
<trkpt lat="46.295310000" lon="7.413460000">
  <ele>1282.263550</ele>
  <time>2012-05-28T14:15:50Z</time>
</trkpt>
<trkpt lat="46.295390000" lon="7.413610000">
  <ele>1281.108280</ele>
  <time>2012-05-28T14:15:51Z</time>
</trkpt>
<trkpt lat="46.295470000" lon="7.413760000">
  <ele>1279.953000</ele>
  <time>2012-05-28T14:15:52Z</time>
</trkpt>
<trkpt lat="46.295540000" lon="7.413910000">
  <ele>1278.797610</ele>
  <time>2012-05-28T14:15:53Z</time>
</trkpt>
<trkpt lat="46.295620000" lon="7.414050000">
  <ele>1277.642330</ele>
  <time>2012-05-28T14:15:54Z</time>
</trkpt>
<trkpt lat="46.295680000" lon="7.414190000">
  <ele>1276.487060</ele>
  <time>2012-05-28T14:15:55Z</time>
</trkpt>
<trkpt lat="46.295740000" lon="7.414340000">
  <ele>1275.331790</ele>
  <time>2012-05-28T14:15:56Z</time>
</trkpt>
<trkpt lat="46.295790000" lon="7.414480000">
  <ele>1274.176510</ele>
  <time>2012-05-28T14:15:57Z</time>
</trkpt>
<trkpt lat="46.295840000" lon="7.414610000">
  <ele>1273.021240</ele>
  <time>2012-05-28T14:15:58Z</time>
</trkpt>
<trkpt lat="46.295890000" lon="7.414700000">
  <ele>1271.865840</ele>
  <time>2012-05-28T14:15:59Z</time>
</trkpt>
<trkpt lat="46.295930000" lon="7.414780000">
  <ele>1270.710570</ele>
  <time>2012-05-28T14:16:00Z</time>
</trkpt>
<trkpt lat="46.295950000" lon="7.414850000">
  <ele>1269.555300</ele>
  <time>2012-05-28T14:16:01Z</time>
</trkpt>
<trkpt lat="46.295940000" lon="7.414900000">
  <ele>1268.400020</ele>
  <time>2012-05-28T14:16:02Z</time>
</trkpt>
<trkpt lat="46.295910000" lon="7.414930000">
  <ele>1268.800050</ele>
  <time>2012-05-28T14:16:03Z</time>
</trkpt>
<trkpt lat="46.295860000" lon="7.414930000">
  <ele>1269.466670</ele>
  <time>2012-05-28T14:16:04Z</time>
</trkpt>
<trkpt lat="46.295810000" lon="7.414860000">
  <ele>1270.133420</ele>
  <time>2012-05-28T14:16:05Z</time>
</trkpt>
<trkpt lat="46.295790000" lon="7.414770000">
  <ele>1270.800050</ele>
  <time>2012-05-28T14:16:06Z</time>
</trkpt>
<trkpt lat="46.295770000" lon="7.414660000">
  <ele>1270.800050</ele>
  <time>2012-05-28T14:16:07Z</time>
</trkpt>
<trkpt lat="46.295750000" lon="7.414550000">
  <ele>1269.632450</ele>
  <time>2012-05-28T14:16:08Z</time>
</trkpt>
<trkpt lat="46.295720000" lon="7.414450000">
  <ele>1268.464970</ele>
  <time>2012-05-28T14:16:09Z</time>
</trkpt>
<trkpt lat="46.295680000" lon="7.414340000">
  <ele>1267.297360</ele>
  <time>2012-05-28T14:16:10Z</time>
</trkpt>
<trkpt lat="46.295640000" lon="7.414250000">
  <ele>1266.129760</ele>
  <time>2012-05-28T14:16:11Z</time>
</trkpt>
<trkpt lat="46.295580000" lon="7.414190000">
  <ele>1264.962160</ele>
  <time>2012-05-28T14:16:12Z</time>
</trkpt>
<trkpt lat="46.295500000" lon="7.414160000">
  <ele>1263.794680</ele>
  <time>2012-05-28T14:16:13Z</time>
</trkpt>
<trkpt lat="46.295380000" lon="7.414180000">
  <ele>1262.627080</ele>
  <time>2012-05-28T14:16:14Z</time>
</trkpt>
<trkpt lat="46.295260000" lon="7.414210000">
  <ele>1261.459470</ele>
  <time>2012-05-28T14:16:15Z</time>
</trkpt>
<trkpt lat="46.295120000" lon="7.414250000">
  <ele>1260.291870</ele>
  <time>2012-05-28T14:16:16Z</time>
</trkpt>
<trkpt lat="46.295000000" lon="7.414280000">
  <ele>1259.124390</ele>
  <time>2012-05-28T14:16:17Z</time>
</trkpt>
<trkpt lat="46.294880000" lon="7.414310000">
  <ele>1257.956790</ele>
  <time>2012-05-28T14:16:18Z</time>
</trkpt>
<trkpt lat="46.294750000" lon="7.414330000">
  <ele>1256.789180</ele>
  <time>2012-05-28T14:16:19Z</time>
</trkpt>
<trkpt lat="46.294640000" lon="7.414350000">
  <ele>1255.621700</ele>
  <time>2012-05-28T14:16:20Z</time>
</trkpt>
<trkpt lat="46.294530000" lon="7.414370000">
  <ele>1254.454100</ele>
  <time>2012-05-28T14:16:21Z</time>
</trkpt>
<trkpt lat="46.294420000" lon="7.414380000">
  <ele>1253.286500</ele>
  <time>2012-05-28T14:16:22Z</time>
</trkpt>
<trkpt lat="46.294310000" lon="7.414350000">
  <ele>1252.118900</ele>
  <time>2012-05-28T14:16:23Z</time>
</trkpt>
<trkpt lat="46.294200000" lon="7.414300000">
  <ele>1250.951420</ele>
  <time>2012-05-28T14:16:24Z</time>
</trkpt>
<trkpt lat="46.294110000" lon="7.414210000">
  <ele>1249.783810</ele>
  <time>2012-05-28T14:16:25Z</time>
</trkpt>
<trkpt lat="46.294010000" lon="7.414090000">
  <ele>1248.616210</ele>
  <time>2012-05-28T14:16:26Z</time>
</trkpt>
<trkpt lat="46.293930000" lon="7.413960000">
  <ele>1247.448610</ele>
  <time>2012-05-28T14:16:27Z</time>
</trkpt>
<trkpt lat="46.293830000" lon="7.413830000">
  <ele>1246.281130</ele>
  <time>2012-05-28T14:16:28Z</time>
</trkpt>
<trkpt lat="46.293750000" lon="7.413690000">
  <ele>1245.113530</ele>
  <time>2012-05-28T14:16:29Z</time>
</trkpt>
<trkpt lat="46.293660000" lon="7.413570000">
  <ele>1243.945920</ele>
  <time>2012-05-28T14:16:30Z</time>
</trkpt>
<trkpt lat="46.293570000" lon="7.413460000">
  <ele>1242.778320</ele>
  <time>2012-05-28T14:16:31Z</time>
</trkpt>
<trkpt lat="46.293480000" lon="7.413370000">
  <ele>1241.610840</ele>
  <time>2012-05-28T14:16:32Z</time>
</trkpt>
<trkpt lat="46.293370000" lon="7.413300000">
  <ele>1240.443240</ele>
  <time>2012-05-28T14:16:33Z</time>
</trkpt>
<trkpt lat="46.293250000" lon="7.413270000">
  <ele>1239.275630</ele>
  <time>2012-05-28T14:16:34Z</time>
</trkpt>
<trkpt lat="46.293140000" lon="7.413270000">
  <ele>1238.108150</ele>
  <time>2012-05-28T14:16:35Z</time>
</trkpt>
<trkpt lat="46.293010000" lon="7.413300000">
  <ele>1236.940550</ele>
  <time>2012-05-28T14:16:36Z</time>
</trkpt>
<trkpt lat="46.292900000" lon="7.413360000">
  <ele>1235.772950</ele>
  <time>2012-05-28T14:16:37Z</time>
</trkpt>
<trkpt lat="46.292790000" lon="7.413450000">
  <ele>1234.605350</ele>
  <time>2012-05-28T14:16:38Z</time>
</trkpt>
<trkpt lat="46.292680000" lon="7.413550000">
  <ele>1233.437870</ele>
  <time>2012-05-28T14:16:39Z</time>
</trkpt>
<trkpt lat="46.292580000" lon="7.413650000">
  <ele>1232.270260</ele>
  <time>2012-05-28T14:16:40Z</time>
</trkpt>
<trkpt lat="46.292470000" lon="7.413730000">
  <ele>1231.102660</ele>
  <time>2012-05-28T14:16:41Z</time>
</trkpt>
<trkpt lat="46.292350000" lon="7.413780000">
  <ele>1229.935060</ele>
  <time>2012-05-28T14:16:42Z</time>
</trkpt>
<trkpt lat="46.292240000" lon="7.413800000">
  <ele>1228.767580</ele>
  <time>2012-05-28T14:16:43Z</time>
</trkpt>
<trkpt lat="46.292120000" lon="7.413800000">
  <ele>1227.599980</ele>
  <time>2012-05-28T14:16:44Z</time>
</trkpt>
<trkpt lat="46.291890000" lon="7.413720000">
  <ele>1227.599980</ele>
  <time>2012-05-28T14:16:46Z</time>
</trkpt>
<trkpt lat="46.291780000" lon="7.413660000">
  <ele>1227.140010</ele>
  <time>2012-05-28T14:16:47Z</time>
</trkpt>
<trkpt lat="46.291680000" lon="7.413580000">
  <ele>1226.679930</ele>
  <time>2012-05-28T14:16:48Z</time>
</trkpt>
<trkpt lat="46.291580000" lon="7.413510000">
  <ele>1226.219970</ele>
  <time>2012-05-28T14:16:49Z</time>
</trkpt>
<trkpt lat="46.291480000" lon="7.413450000">
  <ele>1225.760010</ele>
  <time>2012-05-28T14:16:50Z</time>
</trkpt>
<trkpt lat="46.291380000" lon="7.413410000">
  <ele>1225.300050</ele>
  <time>2012-05-28T14:16:51Z</time>
</trkpt>
<trkpt lat="46.291280000" lon="7.413360000">
  <ele>1224.839970</ele>
  <time>2012-05-28T14:16:52Z</time>
</trkpt>
<trkpt lat="46.291170000" lon="7.413290000">
  <ele>1224.380000</ele>
  <time>2012-05-28T14:16:53Z</time>
</trkpt>
<trkpt lat="46.291070000" lon="7.413220000">
  <ele>1223.920040</ele>
  <time>2012-05-28T14:16:54Z</time>
</trkpt>
<trkpt lat="46.290970000" lon="7.413160000">
  <ele>1223.459960</ele>
  <time>2012-05-28T14:16:55Z</time>
</trkpt>
<trkpt lat="46.290880000" lon="7.413100000">
  <ele>1223.000000</ele>
  <time>2012-05-28T14:16:56Z</time>
</trkpt>
<trkpt lat="46.290790000" lon="7.413010000">
  <ele>1223.000000</ele>
  <time>2012-05-28T14:16:57Z</time>
</trkpt>
<trkpt lat="46.290720000" lon="7.412890000">
  <ele>1221.808350</ele>
  <time>2012-05-28T14:16:58Z</time>
</trkpt>
<trkpt lat="46.290670000" lon="7.412750000">
  <ele>1220.616700</ele>
  <time>2012-05-28T14:16:59Z</time>
</trkpt>
<trkpt lat="46.290620000" lon="7.412590000">
  <ele>1219.425050</ele>
  <time>2012-05-28T14:17:00Z</time>
</trkpt>
<trkpt lat="46.290570000" lon="7.412430000">
  <ele>1218.233400</ele>
  <time>2012-05-28T14:17:01Z</time>
</trkpt>
<trkpt lat="46.290490000" lon="7.412290000">
  <ele>1217.041630</ele>
  <time>2012-05-28T14:17:02Z</time>
</trkpt>
<trkpt lat="46.290390000" lon="7.412170000">
  <ele>1215.849980</ele>
  <time>2012-05-28T14:17:03Z</time>
</trkpt>
<trkpt lat="46.290290000" lon="7.412060000">
  <ele>1214.658330</ele>
  <time>2012-05-28T14:17:04Z</time>
</trkpt>
<trkpt lat="46.290180000" lon="7.411960000">
  <ele>1213.466670</ele>
  <time>2012-05-28T14:17:05Z</time>
</trkpt>
<trkpt lat="46.290090000" lon="7.411850000">
  <ele>1212.275020</ele>
  <time>2012-05-28T14:17:06Z</time>
</trkpt>
<trkpt lat="46.290010000" lon="7.411720000">
  <ele>1211.083370</ele>
  <time>2012-05-28T14:17:07Z</time>
</trkpt>
<trkpt lat="46.289950000" lon="7.411560000">
  <ele>1209.891720</ele>
  <time>2012-05-28T14:17:08Z</time>
</trkpt>
<trkpt lat="46.289890000" lon="7.411400000">
  <ele>1208.699950</ele>
  <time>2012-05-28T14:17:09Z</time>
</trkpt>
<trkpt lat="46.289840000" lon="7.411220000">
  <ele>1207.508300</ele>
  <time>2012-05-28T14:17:10Z</time>
</trkpt>
<trkpt lat="46.289790000" lon="7.411040000">
  <ele>1206.316650</ele>
  <time>2012-05-28T14:17:11Z</time>
</trkpt>
<trkpt lat="46.289750000" lon="7.410860000">
  <ele>1205.125000</ele>
  <time>2012-05-28T14:17:12Z</time>
</trkpt>
<trkpt lat="46.289710000" lon="7.410670000">
  <ele>1203.933350</ele>
  <time>2012-05-28T14:17:13Z</time>
</trkpt>
<trkpt lat="46.289670000" lon="7.410480000">
  <ele>1202.741700</ele>
  <time>2012-05-28T14:17:14Z</time>
</trkpt>
<trkpt lat="46.289620000" lon="7.410290000">
  <ele>1201.550050</ele>
  <time>2012-05-28T14:17:15Z</time>
</trkpt>
<trkpt lat="46.289590000" lon="7.410100000">
  <ele>1200.358400</ele>
  <time>2012-05-28T14:17:16Z</time>
</trkpt>
<trkpt lat="46.289550000" lon="7.409910000">
  <ele>1199.166750</ele>
  <time>2012-05-28T14:17:17Z</time>
</trkpt>
<trkpt lat="46.289510000" lon="7.409730000">
  <ele>1197.974980</ele>
  <time>2012-05-28T14:17:18Z</time>
</trkpt>
<trkpt lat="46.289460000" lon="7.409550000">
  <ele>1196.783330</ele>
  <time>2012-05-28T14:17:19Z</time>
</trkpt>
<trkpt lat="46.289410000" lon="7.409370000">
  <ele>1195.591670</ele>
  <time>2012-05-28T14:17:20Z</time>
</trkpt>
<trkpt lat="46.289360000" lon="7.409200000">
  <ele>1194.400020</ele>
  <time>2012-05-28T14:17:21Z</time>
</trkpt>
<trkpt lat="46.289310000" lon="7.409040000">
  <ele>1193.208370</ele>
  <time>2012-05-28T14:17:22Z</time>
</trkpt>
<trkpt lat="46.289260000" lon="7.408880000">
  <ele>1192.016720</ele>
  <time>2012-05-28T14:17:23Z</time>
</trkpt>
<trkpt lat="46.289200000" lon="7.408710000">
  <ele>1190.825070</ele>
  <time>2012-05-28T14:17:24Z</time>
</trkpt>
<trkpt lat="46.289140000" lon="7.408560000">
  <ele>1189.633300</ele>
  <time>2012-05-28T14:17:25Z</time>
</trkpt>
<trkpt lat="46.289070000" lon="7.408430000">
  <ele>1188.441650</ele>
  <time>2012-05-28T14:17:26Z</time>
</trkpt>
<trkpt lat="46.288990000" lon="7.408310000">
  <ele>1187.250000</ele>
  <time>2012-05-28T14:17:27Z</time>
</trkpt>
<trkpt lat="46.288890000" lon="7.408200000">
  <ele>1186.058350</ele>
  <time>2012-05-28T14:17:28Z</time>
</trkpt>
<trkpt lat="46.288800000" lon="7.408070000">
  <ele>1184.866700</ele>
  <time>2012-05-28T14:17:29Z</time>
</trkpt>
<trkpt lat="46.288710000" lon="7.407950000">
  <ele>1183.675050</ele>
  <time>2012-05-28T14:17:30Z</time>
</trkpt>
<trkpt lat="46.288630000" lon="7.407820000">
  <ele>1182.483400</ele>
  <time>2012-05-28T14:17:31Z</time>
</trkpt>
<trkpt lat="46.288550000" lon="7.407690000">
  <ele>1181.291750</ele>
  <time>2012-05-28T14:17:32Z</time>
</trkpt>
<trkpt lat="46.288480000" lon="7.407570000">
  <ele>1180.100100</ele>
  <time>2012-05-28T14:17:33Z</time>
</trkpt>
<trkpt lat="46.288380000" lon="7.407480000">
  <ele>1178.908330</ele>
  <time>2012-05-28T14:17:34Z</time>
</trkpt>
<trkpt lat="46.288280000" lon="7.407430000">
  <ele>1177.716670</ele>
  <time>2012-05-28T14:17:35Z</time>
</trkpt>
<trkpt lat="46.288180000" lon="7.407400000">
  <ele>1176.525020</ele>
  <time>2012-05-28T14:17:36Z</time>
</trkpt>
<trkpt lat="46.288090000" lon="7.407370000">
  <ele>1175.333370</ele>
  <time>2012-05-28T14:17:37Z</time>
</trkpt>
<trkpt lat="46.288000000" lon="7.407340000">
  <ele>1174.141720</ele>
  <time>2012-05-28T14:17:38Z</time>
</trkpt>
<trkpt lat="46.287910000" lon="7.407330000">
  <ele>1172.950070</ele>
  <time>2012-05-28T14:17:39Z</time>
</trkpt>
<trkpt lat="46.287830000" lon="7.407340000">
  <ele>1171.758420</ele>
  <time>2012-05-28T14:17:40Z</time>
</trkpt>
<trkpt lat="46.287760000" lon="7.407340000">
  <ele>1170.566650</ele>
  <time>2012-05-28T14:17:41Z</time>
</trkpt>
<trkpt lat="46.287700000" lon="7.407350000">
  <ele>1169.375000</ele>
  <time>2012-05-28T14:17:42Z</time>
</trkpt>
<trkpt lat="46.287650000" lon="7.407370000">
  <ele>1168.183350</ele>
  <time>2012-05-28T14:17:43Z</time>
</trkpt>
<trkpt lat="46.287610000" lon="7.407390000">
  <ele>1166.991700</ele>
  <time>2012-05-28T14:17:44Z</time>
</trkpt>
<trkpt lat="46.287560000" lon="7.407400000">
  <ele>1165.800050</ele>
  <time>2012-05-28T14:17:45Z</time>
</trkpt>
<trkpt lat="46.287430000" lon="7.407410000">
  <ele>1165.800050</ele>
  <time>2012-05-28T14:17:49Z</time>
</trkpt>
<trkpt lat="46.287370000" lon="7.407370000">
  <ele>1164.857180</ele>
  <time>2012-05-28T14:17:52Z</time>
</trkpt>
<trkpt lat="46.287360000" lon="7.407350000">
  <ele>1164.542850</ele>
  <time>2012-05-28T14:17:53Z</time>
</trkpt>
<trkpt lat="46.287350000" lon="7.407330000">
  <ele>1164.228520</ele>
  <time>2012-05-28T14:17:54Z</time>
</trkpt>
<trkpt lat="46.287340000" lon="7.407320000">
  <ele>1163.914310</ele>
  <time>2012-05-28T14:17:55Z</time>
</trkpt>
<trkpt lat="46.287330000" lon="7.407310000">
  <ele>1163.599980</ele>
  <time>2012-05-28T14:17:56Z</time>
</trkpt>
<trkpt lat="46.287330000" lon="7.407300000">
  <ele>1163.599980</ele>
  <time>2012-05-28T14:18:01Z</time>
</trkpt>
<trkpt lat="46.287280000" lon="7.407260000">
  <ele>1161.009640</ele>
  <time>2012-05-28T14:18:04Z</time>
</trkpt>
<trkpt lat="46.287240000" lon="7.407230000">
  <ele>1160.146120</ele>
  <time>2012-05-28T14:18:05Z</time>
</trkpt>
<trkpt lat="46.287200000" lon="7.407190000">
  <ele>1159.282710</ele>
  <time>2012-05-28T14:18:06Z</time>
</trkpt>
<trkpt lat="46.287160000" lon="7.407150000">
  <ele>1158.419190</ele>
  <time>2012-05-28T14:18:07Z</time>
</trkpt>
<trkpt lat="46.287110000" lon="7.407120000">
  <ele>1157.555790</ele>
  <time>2012-05-28T14:18:08Z</time>
</trkpt>
<trkpt lat="46.287060000" lon="7.407090000">
  <ele>1156.692260</ele>
  <time>2012-05-28T14:18:09Z</time>
</trkpt>
<trkpt lat="46.287010000" lon="7.407050000">
  <ele>1155.828860</ele>
  <time>2012-05-28T14:18:10Z</time>
</trkpt>
<trkpt lat="46.286950000" lon="7.407020000">
  <ele>1154.965330</ele>
  <time>2012-05-28T14:18:11Z</time>
</trkpt>
<trkpt lat="46.286900000" lon="7.406980000">
  <ele>1154.101930</ele>
  <time>2012-05-28T14:18:12Z</time>
</trkpt>
<trkpt lat="46.286850000" lon="7.406940000">
  <ele>1153.238400</ele>
  <time>2012-05-28T14:18:13Z</time>
</trkpt>
<trkpt lat="46.286790000" lon="7.406910000">
  <ele>1152.375000</ele>
  <time>2012-05-28T14:18:14Z</time>
</trkpt>
<trkpt lat="46.286740000" lon="7.406860000">
  <ele>1151.511470</ele>
  <time>2012-05-28T14:18:15Z</time>
</trkpt>
<trkpt lat="46.286690000" lon="7.406790000">
  <ele>1150.648070</ele>
  <time>2012-05-28T14:18:16Z</time>
</trkpt>
<trkpt lat="46.286660000" lon="7.406710000">
  <ele>1149.784550</ele>
  <time>2012-05-28T14:18:17Z</time>
</trkpt>
<trkpt lat="46.286620000" lon="7.406600000">
  <ele>1148.921140</ele>
  <time>2012-05-28T14:18:18Z</time>
</trkpt>
<trkpt lat="46.286600000" lon="7.406490000">
  <ele>1148.057740</ele>
  <time>2012-05-28T14:18:19Z</time>
</trkpt>
<trkpt lat="46.286590000" lon="7.406360000">
  <ele>1147.194210</ele>
  <time>2012-05-28T14:18:20Z</time>
</trkpt>
<trkpt lat="46.286590000" lon="7.406240000">
  <ele>1146.330810</ele>
  <time>2012-05-28T14:18:21Z</time>
</trkpt>
<trkpt lat="46.286590000" lon="7.406120000">
  <ele>1145.467290</ele>
  <time>2012-05-28T14:18:22Z</time>
</trkpt>
<trkpt lat="46.286580000" lon="7.406000000">
  <ele>1144.603880</ele>
  <time>2012-05-28T14:18:23Z</time>
</trkpt>
<trkpt lat="46.286560000" lon="7.405890000">
  <ele>1143.740360</ele>
  <time>2012-05-28T14:18:24Z</time>
</trkpt>
<trkpt lat="46.286530000" lon="7.405790000">
  <ele>1142.876950</ele>
  <time>2012-05-28T14:18:25Z</time>
</trkpt>
<trkpt lat="46.286480000" lon="7.405700000">
  <ele>1142.013430</ele>
  <time>2012-05-28T14:18:26Z</time>
</trkpt>
<trkpt lat="46.286410000" lon="7.405640000">
  <ele>1141.150020</ele>
  <time>2012-05-28T14:18:27Z</time>
</trkpt>
<trkpt lat="46.286330000" lon="7.405610000">
  <ele>1140.286500</ele>
  <time>2012-05-28T14:18:28Z</time>
</trkpt>
<trkpt lat="46.286250000" lon="7.405630000">
  <ele>1139.423100</ele>
  <time>2012-05-28T14:18:29Z</time>
</trkpt>
<trkpt lat="46.286170000" lon="7.405670000">
  <ele>1138.559570</ele>
  <time>2012-05-28T14:18:30Z</time>
</trkpt>
<trkpt lat="46.286090000" lon="7.405720000">
  <ele>1137.696170</ele>
  <time>2012-05-28T14:18:31Z</time>
</trkpt>
<trkpt lat="46.286010000" lon="7.405780000">
  <ele>1136.832640</ele>
  <time>2012-05-28T14:18:32Z</time>
</trkpt>
<trkpt lat="46.285920000" lon="7.405850000">
  <ele>1135.969240</ele>
  <time>2012-05-28T14:18:33Z</time>
</trkpt>
<trkpt lat="46.285830000" lon="7.405910000">
  <ele>1135.105710</ele>
  <time>2012-05-28T14:18:34Z</time>
</trkpt>
<trkpt lat="46.285740000" lon="7.405970000">
  <ele>1134.242310</ele>
  <time>2012-05-28T14:18:35Z</time>
</trkpt>
<trkpt lat="46.285640000" lon="7.406040000">
  <ele>1133.378910</ele>
  <time>2012-05-28T14:18:36Z</time>
</trkpt>
<trkpt lat="46.285540000" lon="7.406120000">
  <ele>1132.515380</ele>
  <time>2012-05-28T14:18:37Z</time>
</trkpt>
<trkpt lat="46.285440000" lon="7.406210000">
  <ele>1131.651980</ele>
  <time>2012-05-28T14:18:38Z</time>
</trkpt>
<trkpt lat="46.285340000" lon="7.406300000">
  <ele>1130.788450</ele>
  <time>2012-05-28T14:18:39Z</time>
</trkpt>
<trkpt lat="46.285240000" lon="7.406370000">
  <ele>1129.925050</ele>
  <time>2012-05-28T14:18:40Z</time>
</trkpt>
<trkpt lat="46.285120000" lon="7.406430000">
  <ele>1129.061520</ele>
  <time>2012-05-28T14:18:41Z</time>
</trkpt>
<trkpt lat="46.285020000" lon="7.406480000">
  <ele>1128.198120</ele>
  <time>2012-05-28T14:18:42Z</time>
</trkpt>
<trkpt lat="46.284920000" lon="7.406530000">
  <ele>1127.334590</ele>
  <time>2012-05-28T14:18:43Z</time>
</trkpt>
<trkpt lat="46.284810000" lon="7.406560000">
  <ele>1126.471190</ele>
  <time>2012-05-28T14:18:44Z</time>
</trkpt>
<trkpt lat="46.284710000" lon="7.406570000">
  <ele>1125.607670</ele>
  <time>2012-05-28T14:18:45Z</time>
</trkpt>
<trkpt lat="46.284600000" lon="7.406550000">
  <ele>1124.744260</ele>
  <time>2012-05-28T14:18:46Z</time>
</trkpt>
<trkpt lat="46.284490000" lon="7.406520000">
  <ele>1123.880740</ele>
  <time>2012-05-28T14:18:47Z</time>
</trkpt>
<trkpt lat="46.284370000" lon="7.406470000">
  <ele>1123.017330</ele>
  <time>2012-05-28T14:18:48Z</time>
</trkpt>
<trkpt lat="46.284260000" lon="7.406420000">
  <ele>1122.153810</ele>
  <time>2012-05-28T14:18:49Z</time>
</trkpt>
<trkpt lat="46.284140000" lon="7.406370000">
  <ele>1121.290410</ele>
  <time>2012-05-28T14:18:50Z</time>
</trkpt>
<trkpt lat="46.284030000" lon="7.406330000">
  <ele>1120.426880</ele>
  <time>2012-05-28T14:18:51Z</time>
</trkpt>
<trkpt lat="46.283910000" lon="7.406280000">
  <ele>1119.563480</ele>
  <time>2012-05-28T14:18:52Z</time>
</trkpt>
<trkpt lat="46.283800000" lon="7.406230000">
  <ele>1118.699950</ele>
  <time>2012-05-28T14:18:53Z</time>
</trkpt>
<trkpt lat="46.283700000" lon="7.406200000">
  <ele>1117.836550</ele>
  <time>2012-05-28T14:18:54Z</time>
</trkpt>
<trkpt lat="46.283590000" lon="7.406190000">
  <ele>1116.973140</ele>
  <time>2012-05-28T14:18:55Z</time>
</trkpt>
<trkpt lat="46.283490000" lon="7.406210000">
  <ele>1116.109620</ele>
  <time>2012-05-28T14:18:56Z</time>
</trkpt>
<trkpt lat="46.283390000" lon="7.406230000">
  <ele>1115.246220</ele>
  <time>2012-05-28T14:18:57Z</time>
</trkpt>
<trkpt lat="46.283290000" lon="7.406270000">
  <ele>1114.382690</ele>
  <time>2012-05-28T14:18:58Z</time>
</trkpt>
<trkpt lat="46.283200000" lon="7.406310000">
  <ele>1113.519290</ele>
  <time>2012-05-28T14:18:59Z</time>
</trkpt>
<trkpt lat="46.283120000" lon="7.406370000">
  <ele>1112.655760</ele>
  <time>2012-05-28T14:19:00Z</time>
</trkpt>
<trkpt lat="46.283040000" lon="7.406440000">
  <ele>1111.792360</ele>
  <time>2012-05-28T14:19:01Z</time>
</trkpt>
<trkpt lat="46.282970000" lon="7.406510000">
  <ele>1110.928830</ele>
  <time>2012-05-28T14:19:02Z</time>
</trkpt>
<trkpt lat="46.282910000" lon="7.406590000">
  <ele>1110.065430</ele>
  <time>2012-05-28T14:19:03Z</time>
</trkpt>
<trkpt lat="46.282840000" lon="7.406690000">
  <ele>1109.201900</ele>
  <time>2012-05-28T14:19:04Z</time>
</trkpt>
<trkpt lat="46.282780000" lon="7.406810000">
  <ele>1108.338500</ele>
  <time>2012-05-28T14:19:05Z</time>
</trkpt>
<trkpt lat="46.282730000" lon="7.406930000">
  <ele>1107.474980</ele>
  <time>2012-05-28T14:19:06Z</time>
</trkpt>
<trkpt lat="46.282690000" lon="7.407060000">
  <ele>1106.611570</ele>
  <time>2012-05-28T14:19:07Z</time>
</trkpt>
<trkpt lat="46.282660000" lon="7.407200000">
  <ele>1105.748050</ele>
  <time>2012-05-28T14:19:08Z</time>
</trkpt>
<trkpt lat="46.282640000" lon="7.407350000">
  <ele>1104.884640</ele>
  <time>2012-05-28T14:19:09Z</time>
</trkpt>
<trkpt lat="46.282630000" lon="7.407490000">
  <ele>1104.021120</ele>
  <time>2012-05-28T14:19:10Z</time>
</trkpt>
<trkpt lat="46.282640000" lon="7.407620000">
  <ele>1103.157710</ele>
  <time>2012-05-28T14:19:11Z</time>
</trkpt>
<trkpt lat="46.282650000" lon="7.407740000">
  <ele>1102.294310</ele>
  <time>2012-05-28T14:19:12Z</time>
</trkpt>
<trkpt lat="46.282670000" lon="7.407860000">
  <ele>1101.430790</ele>
  <time>2012-05-28T14:19:13Z</time>
</trkpt>
<trkpt lat="46.282690000" lon="7.407960000">
  <ele>1100.567380</ele>
  <time>2012-05-28T14:19:14Z</time>
</trkpt>
<trkpt lat="46.282710000" lon="7.408060000">
  <ele>1099.703860</ele>
  <time>2012-05-28T14:19:15Z</time>
</trkpt>
<trkpt lat="46.282750000" lon="7.408260000">
  <ele>1097.976930</ele>
  <time>2012-05-28T14:19:17Z</time>
</trkpt>
<trkpt lat="46.282770000" lon="7.408350000">
  <ele>1097.113530</ele>
  <time>2012-05-28T14:19:18Z</time>
</trkpt>
<trkpt lat="46.282790000" lon="7.408450000">
  <ele>1096.250000</ele>
  <time>2012-05-28T14:19:19Z</time>
</trkpt>
<trkpt lat="46.282810000" lon="7.408560000">
  <ele>1095.386600</ele>
  <time>2012-05-28T14:19:20Z</time>
</trkpt>
<trkpt lat="46.282830000" lon="7.408670000">
  <ele>1094.523070</ele>
  <time>2012-05-28T14:19:21Z</time>
</trkpt>
<trkpt lat="46.282840000" lon="7.408780000">
  <ele>1093.659670</ele>
  <time>2012-05-28T14:19:22Z</time>
</trkpt>
<trkpt lat="46.282850000" lon="7.408900000">
  <ele>1092.796140</ele>
  <time>2012-05-28T14:19:23Z</time>
</trkpt>
<trkpt lat="46.282850000" lon="7.409010000">
  <ele>1091.932740</ele>
  <time>2012-05-28T14:19:24Z</time>
</trkpt>
<trkpt lat="46.282840000" lon="7.409110000">
  <ele>1091.069210</ele>
  <time>2012-05-28T14:19:25Z</time>
</trkpt>
<trkpt lat="46.282850000" lon="7.409190000">
  <ele>1090.205810</ele>
  <time>2012-05-28T14:19:26Z</time>
</trkpt>
<trkpt lat="46.282860000" lon="7.409270000">
  <ele>1089.342290</ele>
  <time>2012-05-28T14:19:27Z</time>
</trkpt>
<trkpt lat="46.282880000" lon="7.409350000">
  <ele>1088.478880</ele>
  <time>2012-05-28T14:19:28Z</time>
</trkpt>
<trkpt lat="46.282920000" lon="7.409430000">
  <ele>1087.615480</ele>
  <time>2012-05-28T14:19:29Z</time>
</trkpt>
<trkpt lat="46.282960000" lon="7.409500000">
  <ele>1086.751950</ele>
  <time>2012-05-28T14:19:30Z</time>
</trkpt>
<trkpt lat="46.283020000" lon="7.409550000">
  <ele>1085.888550</ele>
  <time>2012-05-28T14:19:31Z</time>
</trkpt>
<trkpt lat="46.283100000" lon="7.409590000">
  <ele>1085.025020</ele>
  <time>2012-05-28T14:19:32Z</time>
</trkpt>
<trkpt lat="46.283180000" lon="7.409580000">
  <ele>1084.161620</ele>
  <time>2012-05-28T14:19:33Z</time>
</trkpt>
<trkpt lat="46.283260000" lon="7.409550000">
  <ele>1083.298100</ele>
  <time>2012-05-28T14:19:34Z</time>
</trkpt>
<trkpt lat="46.283340000" lon="7.409490000">
  <ele>1082.434690</ele>
  <time>2012-05-28T14:19:35Z</time>
</trkpt>
<trkpt lat="46.283420000" lon="7.409410000">
  <ele>1081.571170</ele>
  <time>2012-05-28T14:19:36Z</time>
</trkpt>
<trkpt lat="46.283490000" lon="7.409310000">
  <ele>1080.707760</ele>
  <time>2012-05-28T14:19:37Z</time>
</trkpt>
<trkpt lat="46.283570000" lon="7.409200000">
  <ele>1079.844240</ele>
  <time>2012-05-28T14:19:38Z</time>
</trkpt>
<trkpt lat="46.283640000" lon="7.409100000">
  <ele>1078.980830</ele>
  <time>2012-05-28T14:19:39Z</time>
</trkpt>
<trkpt lat="46.283710000" lon="7.409010000">
  <ele>1078.117310</ele>
  <time>2012-05-28T14:19:40Z</time>
</trkpt>
<trkpt lat="46.283790000" lon="7.408950000">
  <ele>1077.253910</ele>
  <time>2012-05-28T14:19:41Z</time>
</trkpt>
<trkpt lat="46.283870000" lon="7.408910000">
  <ele>1076.390380</ele>
  <time>2012-05-28T14:19:42Z</time>
</trkpt>
<trkpt lat="46.283950000" lon="7.408900000">
  <ele>1075.526980</ele>
  <time>2012-05-28T14:19:43Z</time>
</trkpt>
<trkpt lat="46.284030000" lon="7.408920000">
  <ele>1074.663450</ele>
  <time>2012-05-28T14:19:44Z</time>
</trkpt>
<trkpt lat="46.284080000" lon="7.408990000">
  <ele>1073.800050</ele>
  <time>2012-05-28T14:19:45Z</time>
</trkpt>
<trkpt lat="46.284100000" lon="7.409160000">
  <ele>1073.800050</ele>
  <time>2012-05-28T14:19:47Z</time>
</trkpt>
<trkpt lat="46.284080000" lon="7.409270000">
  <ele>1072.908570</ele>
  <time>2012-05-28T14:19:48Z</time>
</trkpt>
<trkpt lat="46.284050000" lon="7.409380000">
  <ele>1072.017210</ele>
  <time>2012-05-28T14:19:49Z</time>
</trkpt>
<trkpt lat="46.284030000" lon="7.409510000">
  <ele>1071.125730</ele>
  <time>2012-05-28T14:19:50Z</time>
</trkpt>
<trkpt lat="46.284020000" lon="7.409660000">
  <ele>1070.234380</ele>
  <time>2012-05-28T14:19:51Z</time>
</trkpt>
<trkpt lat="46.284020000" lon="7.409810000">
  <ele>1069.342900</ele>
  <time>2012-05-28T14:19:52Z</time>
</trkpt>
<trkpt lat="46.284020000" lon="7.409970000">
  <ele>1068.451420</ele>
  <time>2012-05-28T14:19:53Z</time>
</trkpt>
<trkpt lat="46.284020000" lon="7.410140000">
  <ele>1067.560060</ele>
  <time>2012-05-28T14:19:54Z</time>
</trkpt>
<trkpt lat="46.284020000" lon="7.410290000">
  <ele>1066.668580</ele>
  <time>2012-05-28T14:19:55Z</time>
</trkpt>
<trkpt lat="46.284010000" lon="7.410430000">
  <ele>1065.777220</ele>
  <time>2012-05-28T14:19:56Z</time>
</trkpt>
<trkpt lat="46.284010000" lon="7.410580000">
  <ele>1064.885740</ele>
  <time>2012-05-28T14:19:57Z</time>
</trkpt>
<trkpt lat="46.284000000" lon="7.410730000">
  <ele>1063.994260</ele>
  <time>2012-05-28T14:19:58Z</time>
</trkpt>
<trkpt lat="46.284000000" lon="7.410890000">
  <ele>1063.102910</ele>
  <time>2012-05-28T14:19:59Z</time>
</trkpt>
<trkpt lat="46.284020000" lon="7.411020000">
  <ele>1062.211430</ele>
  <time>2012-05-28T14:20:00Z</time>
</trkpt>
<trkpt lat="46.284030000" lon="7.411140000">
  <ele>1061.320070</ele>
  <time>2012-05-28T14:20:01Z</time>
</trkpt>
<trkpt lat="46.284040000" lon="7.411240000">
  <ele>1060.428590</ele>
  <time>2012-05-28T14:20:02Z</time>
</trkpt>
<trkpt lat="46.284070000" lon="7.411340000">
  <ele>1059.537110</ele>
  <time>2012-05-28T14:20:03Z</time>
</trkpt>
<trkpt lat="46.284100000" lon="7.411450000">
  <ele>1058.645750</ele>
  <time>2012-05-28T14:20:04Z</time>
</trkpt>
<trkpt lat="46.284130000" lon="7.411570000">
  <ele>1057.754270</ele>
  <time>2012-05-28T14:20:05Z</time>
</trkpt>
<trkpt lat="46.284150000" lon="7.411710000">
  <ele>1056.862920</ele>
  <time>2012-05-28T14:20:06Z</time>
</trkpt>
<trkpt lat="46.284140000" lon="7.411830000">
  <ele>1055.971440</ele>
  <time>2012-05-28T14:20:07Z</time>
</trkpt>
<trkpt lat="46.284110000" lon="7.411950000">
  <ele>1055.079960</ele>
  <time>2012-05-28T14:20:08Z</time>
</trkpt>
<trkpt lat="46.284080000" lon="7.412060000">
  <ele>1054.188600</ele>
  <time>2012-05-28T14:20:09Z</time>
</trkpt>
<trkpt lat="46.284040000" lon="7.412170000">
  <ele>1053.297120</ele>
  <time>2012-05-28T14:20:10Z</time>
</trkpt>
<trkpt lat="46.284000000" lon="7.412270000">
  <ele>1052.405760</ele>
  <time>2012-05-28T14:20:11Z</time>
</trkpt>
<trkpt lat="46.283970000" lon="7.412370000">
  <ele>1051.514280</ele>
  <time>2012-05-28T14:20:12Z</time>
</trkpt>
<trkpt lat="46.283940000" lon="7.412470000">
  <ele>1050.622800</ele>
  <time>2012-05-28T14:20:13Z</time>
</trkpt>
<trkpt lat="46.283910000" lon="7.412570000">
  <ele>1049.731450</ele>
  <time>2012-05-28T14:20:14Z</time>
</trkpt>
<trkpt lat="46.283870000" lon="7.412650000">
  <ele>1048.839970</ele>
  <time>2012-05-28T14:20:15Z</time>
</trkpt>
<trkpt lat="46.283820000" lon="7.412710000">
  <ele>1047.948610</ele>
  <time>2012-05-28T14:20:16Z</time>
</trkpt>
<trkpt lat="46.283760000" lon="7.412760000">
  <ele>1047.057130</ele>
  <time>2012-05-28T14:20:17Z</time>
</trkpt>
<trkpt lat="46.283720000" lon="7.412800000">
  <ele>1046.165650</ele>
  <time>2012-05-28T14:20:18Z</time>
</trkpt>
<trkpt lat="46.283690000" lon="7.412860000">
  <ele>1045.274290</ele>
  <time>2012-05-28T14:20:19Z</time>
</trkpt>
<trkpt lat="46.283690000" lon="7.412940000">
  <ele>1044.382810</ele>
  <time>2012-05-28T14:20:20Z</time>
</trkpt>
<trkpt lat="46.283710000" lon="7.413010000">
  <ele>1043.491460</ele>
  <time>2012-05-28T14:20:21Z</time>
</trkpt>
<trkpt lat="46.283740000" lon="7.413090000">
  <ele>1042.599980</ele>
  <time>2012-05-28T14:20:22Z</time>
</trkpt>
<trkpt lat="46.283770000" lon="7.413160000">
  <ele>1042.599980</ele>
  <time>2012-05-28T14:20:23Z</time>
</trkpt>
<trkpt lat="46.283830000" lon="7.413330000">
  <ele>1041.539060</ele>
  <time>2012-05-28T14:20:25Z</time>
</trkpt>
<trkpt lat="46.283860000" lon="7.413410000">
  <ele>1041.008670</ele>
  <time>2012-05-28T14:20:26Z</time>
</trkpt>
<trkpt lat="46.283890000" lon="7.413500000">
  <ele>1040.478270</ele>
  <time>2012-05-28T14:20:27Z</time>
</trkpt>
<trkpt lat="46.283920000" lon="7.413600000">
  <ele>1039.947750</ele>
  <time>2012-05-28T14:20:28Z</time>
</trkpt>
<trkpt lat="46.283960000" lon="7.413700000">
  <ele>1039.417360</ele>
  <time>2012-05-28T14:20:29Z</time>
</trkpt>
<trkpt lat="46.283990000" lon="7.413790000">
  <ele>1038.886960</ele>
  <time>2012-05-28T14:20:30Z</time>
</trkpt>
<trkpt lat="46.284030000" lon="7.413900000">
  <ele>1038.356570</ele>
  <time>2012-05-28T14:20:31Z</time>
</trkpt>
<trkpt lat="46.284070000" lon="7.414000000">
  <ele>1037.826050</ele>
  <time>2012-05-28T14:20:32Z</time>
</trkpt>
<trkpt lat="46.284110000" lon="7.414090000">
  <ele>1037.295650</ele>
  <time>2012-05-28T14:20:33Z</time>
</trkpt>
<trkpt lat="46.284150000" lon="7.414190000">
  <ele>1036.765260</ele>
  <time>2012-05-28T14:20:34Z</time>
</trkpt>
<trkpt lat="46.284190000" lon="7.414290000">
  <ele>1036.234740</ele>
  <time>2012-05-28T14:20:35Z</time>
</trkpt>
<trkpt lat="46.284240000" lon="7.414390000">
  <ele>1035.704350</ele>
  <time>2012-05-28T14:20:36Z</time>
</trkpt>
<trkpt lat="46.284280000" lon="7.414490000">
  <ele>1035.173950</ele>
  <time>2012-05-28T14:20:37Z</time>
</trkpt>
<trkpt lat="46.284320000" lon="7.414590000">
  <ele>1034.643430</ele>
  <time>2012-05-28T14:20:38Z</time>
</trkpt>
<trkpt lat="46.284370000" lon="7.414700000">
  <ele>1034.113040</ele>
  <time>2012-05-28T14:20:39Z</time>
</trkpt>
<trkpt lat="46.284420000" lon="7.414800000">
  <ele>1033.582640</ele>
  <time>2012-05-28T14:20:40Z</time>
</trkpt>
<trkpt lat="46.284470000" lon="7.414900000">
  <ele>1033.052250</ele>
  <time>2012-05-28T14:20:41Z</time>
</trkpt>
<trkpt lat="46.284540000" lon="7.414980000">
  <ele>1032.521730</ele>
  <time>2012-05-28T14:20:42Z</time>
</trkpt>
<trkpt lat="46.284610000" lon="7.415050000">
  <ele>1031.991330</ele>
  <time>2012-05-28T14:20:43Z</time>
</trkpt>
<trkpt lat="46.284690000" lon="7.415090000">
  <ele>1031.460940</ele>
  <time>2012-05-28T14:20:44Z</time>
</trkpt>
<trkpt lat="46.284760000" lon="7.415130000">
  <ele>1030.930420</ele>
  <time>2012-05-28T14:20:45Z</time>
</trkpt>
<trkpt lat="46.284830000" lon="7.415160000">
  <ele>1030.400020</ele>
  <time>2012-05-28T14:20:46Z</time>
</trkpt>
<trkpt lat="46.285010000" lon="7.415250000">
  <ele>1030.800050</ele>
  <time>2012-05-28T14:20:49Z</time>
</trkpt>
<trkpt lat="46.285070000" lon="7.415270000">
  <ele>1031.250000</ele>
  <time>2012-05-28T14:20:50Z</time>
</trkpt>
<trkpt lat="46.285130000" lon="7.415290000">
  <ele>1031.699950</ele>
  <time>2012-05-28T14:20:51Z</time>
</trkpt>
<trkpt lat="46.285180000" lon="7.415320000">
  <ele>1032.150020</ele>
  <time>2012-05-28T14:20:52Z</time>
</trkpt>
<trkpt lat="46.285230000" lon="7.415340000">
  <ele>1032.599980</ele>
  <time>2012-05-28T14:20:53Z</time>
</trkpt>
<trkpt lat="46.285320000" lon="7.415380000">
  <ele>1032.599980</ele>
  <time>2012-05-28T14:20:55Z</time>
</trkpt>
<trkpt lat="46.285370000" lon="7.415400000">
  <ele>1032.966670</ele>
  <time>2012-05-28T14:20:56Z</time>
</trkpt>
<trkpt lat="46.285410000" lon="7.415420000">
  <ele>1033.333370</ele>
  <time>2012-05-28T14:20:57Z</time>
</trkpt>
<trkpt lat="46.285450000" lon="7.415440000">
  <ele>1033.699950</ele>
  <time>2012-05-28T14:20:58Z</time>
</trkpt>
<trkpt lat="46.285500000" lon="7.415460000">
  <ele>1034.066650</ele>
  <time>2012-05-28T14:20:59Z</time>
</trkpt>
<trkpt lat="46.285540000" lon="7.415480000">
  <ele>1034.433350</ele>
  <time>2012-05-28T14:21:00Z</time>
</trkpt>
<trkpt lat="46.285580000" lon="7.415500000">
  <ele>1034.800050</ele>
  <time>2012-05-28T14:21:01Z</time>
</trkpt>
<trkpt lat="46.285640000" lon="7.415550000">
  <ele>1034.800050</ele>
  <time>2012-05-28T14:21:03Z</time>
</trkpt>
<trkpt lat="46.285800000" lon="7.415610000">
  <ele>1034.773680</ele>
  <time>2012-05-28T14:21:07Z</time>
</trkpt>
<trkpt lat="46.285870000" lon="7.415640000">
  <ele>1034.760380</ele>
  <time>2012-05-28T14:21:09Z</time>
</trkpt>
<trkpt lat="46.286010000" lon="7.415700000">
  <ele>1034.734010</ele>
  <time>2012-05-28T14:21:13Z</time>
</trkpt>
<trkpt lat="46.285170000" lon="7.415330000">
  <ele>1032.000000</ele>
  <time>2012-05-28T14:28:07Z</time>
</trkpt>
<trkpt lat="46.285220000" lon="7.415360000">
  <ele>1032.000000</ele>
  <time>2012-05-28T14:28:08Z</time>
</trkpt>
<trkpt lat="46.285310000" lon="7.415390000">
  <ele>1032.160030</ele>
  <time>2012-05-28T14:28:10Z</time>
</trkpt>
<trkpt lat="46.285490000" lon="7.415470000">
  <ele>1032.479980</ele>
  <time>2012-05-28T14:28:14Z</time>
</trkpt>
<trkpt lat="46.285790000" lon="7.415590000">
  <ele>1033.040040</ele>
  <time>2012-05-28T14:28:21Z</time>
</trkpt>
<trkpt lat="46.285950000" lon="7.415670000">
  <ele>1033.359990</ele>
  <time>2012-05-28T14:28:25Z</time>
</trkpt>
<trkpt lat="46.286000000" lon="7.415690000">
  <ele>1033.439940</ele>
  <time>2012-05-28T14:28:26Z</time>
</trkpt>
<trkpt lat="46.286040000" lon="7.415700000">
  <ele>1033.520020</ele>
  <time>2012-05-28T14:28:27Z</time>
</trkpt>
<trkpt lat="46.286080000" lon="7.415720000">
  <ele>1033.599980</ele>
  <time>2012-05-28T14:28:28Z</time>
</trkpt>
<trkpt lat="46.286120000" lon="7.415740000">
  <ele>1033.680050</ele>
  <time>2012-05-28T14:28:29Z</time>
</trkpt>
<trkpt lat="46.286160000" lon="7.415770000">
  <ele>1033.760010</ele>
  <time>2012-05-28T14:28:30Z</time>
</trkpt>
<trkpt lat="46.286200000" lon="7.415780000">
  <ele>1033.839970</ele>
  <time>2012-05-28T14:28:31Z</time>
</trkpt>
<trkpt lat="46.286240000" lon="7.415800000">
  <ele>1033.920040</ele>
  <time>2012-05-28T14:28:32Z</time>
</trkpt>
<trkpt lat="46.286270000" lon="7.415820000">
  <ele>1034.000000</ele>
  <time>2012-05-28T14:28:33Z</time>
</trkpt>
<trkpt lat="46.286320000" lon="7.415830000">
  <ele>1034.000000</ele>
  <time>2012-05-28T14:28:34Z</time>
</trkpt>
<trkpt lat="46.286400000" lon="7.415870000">
  <ele>1034.235350</ele>
  <time>2012-05-28T14:28:36Z</time>
</trkpt>
<trkpt lat="46.286440000" lon="7.415890000">
  <ele>1034.352910</ele>
  <time>2012-05-28T14:28:37Z</time>
</trkpt>
<trkpt lat="46.286480000" lon="7.415900000">
  <ele>1034.470580</ele>
  <time>2012-05-28T14:28:38Z</time>
</trkpt>
<trkpt lat="46.286510000" lon="7.415920000">
  <ele>1034.588260</ele>
  <time>2012-05-28T14:28:39Z</time>
</trkpt>
<trkpt lat="46.286590000" lon="7.415950000">
  <ele>1034.823490</ele>
  <time>2012-05-28T14:28:41Z</time>
</trkpt>
<trkpt lat="46.286630000" lon="7.415970000">
  <ele>1034.941160</ele>
  <time>2012-05-28T14:28:42Z</time>
</trkpt>
<trkpt lat="46.286720000" lon="7.416000000">
  <ele>1035.176510</ele>
  <time>2012-05-28T14:28:44Z</time>
</trkpt>
<trkpt lat="46.286800000" lon="7.416020000">
  <ele>1035.411740</ele>
  <time>2012-05-28T14:28:46Z</time>
</trkpt>
<trkpt lat="46.286840000" lon="7.416040000">
  <ele>1035.529420</ele>
  <time>2012-05-28T14:28:47Z</time>
</trkpt>
<trkpt lat="46.286880000" lon="7.416060000">
  <ele>1035.647090</ele>
  <time>2012-05-28T14:28:48Z</time>
</trkpt>
<trkpt lat="46.286920000" lon="7.416070000">
  <ele>1035.764650</ele>
  <time>2012-05-28T14:28:49Z</time>
</trkpt>
<trkpt lat="46.286970000" lon="7.416080000">
  <ele>1036.000000</ele>
  <time>2012-05-28T14:28:51Z</time>
</trkpt>
<trkpt lat="46.287170000" lon="7.416160000">
  <ele>1036.000000</ele>
  <time>2012-05-28T14:28:56Z</time>
</trkpt>
<trkpt lat="46.287380000" lon="7.416220000">
  <ele>1037.222170</ele>
  <time>2012-05-28T14:29:01Z</time>
</trkpt>
<trkpt lat="46.287430000" lon="7.416230000">
  <ele>1037.466670</ele>
  <time>2012-05-28T14:29:02Z</time>
</trkpt>
<trkpt lat="46.287470000" lon="7.416250000">
  <ele>1037.711060</ele>
  <time>2012-05-28T14:29:03Z</time>
</trkpt>
<trkpt lat="46.287510000" lon="7.416260000">
  <ele>1037.955570</ele>
  <time>2012-05-28T14:29:04Z</time>
</trkpt>
<trkpt lat="46.287540000" lon="7.416280000">
  <ele>1038.199950</ele>
  <time>2012-05-28T14:29:05Z</time>
</trkpt>
<trkpt lat="46.287700000" lon="7.416350000">
  <ele>1038.199950</ele>
  <time>2012-05-28T14:29:09Z</time>
</trkpt>
<trkpt lat="46.287870000" lon="7.416440000">
  <ele>1038.733280</ele>
  <time>2012-05-28T14:29:13Z</time>
</trkpt>
<trkpt lat="46.287930000" lon="7.416520000">
  <ele>1039.000000</ele>
  <time>2012-05-28T14:29:15Z</time>
</trkpt>
<trkpt lat="46.288010000" lon="7.416670000">
  <ele>1039.399900</ele>
  <time>2012-05-28T14:29:18Z</time>
</trkpt>
<trkpt lat="46.288050000" lon="7.416760000">
  <ele>1039.666630</ele>
  <time>2012-05-28T14:29:20Z</time>
</trkpt>
<trkpt lat="46.288070000" lon="7.416810000">
  <ele>1039.799930</ele>
  <time>2012-05-28T14:29:21Z</time>
</trkpt>
<trkpt lat="46.288090000" lon="7.416860000">
  <ele>1039.933230</ele>
  <time>2012-05-28T14:29:22Z</time>
</trkpt>
<trkpt lat="46.288110000" lon="7.416900000">
  <ele>1040.066650</ele>
  <time>2012-05-28T14:29:23Z</time>
</trkpt>
<trkpt lat="46.288130000" lon="7.416940000">
  <ele>1040.199950</ele>
  <time>2012-05-28T14:29:24Z</time>
</trkpt>
<trkpt lat="46.288200000" lon="7.417070000">
  <ele>1040.199950</ele>
  <time>2012-05-28T14:29:27Z</time>
</trkpt>
<trkpt lat="46.288270000" lon="7.417240000">
  <ele>1041.300050</ele>
  <time>2012-05-28T14:29:31Z</time>
</trkpt>
<trkpt lat="46.288290000" lon="7.417290000">
  <ele>1041.574950</ele>
  <time>2012-05-28T14:29:32Z</time>
</trkpt>
<trkpt lat="46.288310000" lon="7.417330000">
  <ele>1041.849980</ele>
  <time>2012-05-28T14:29:33Z</time>
</trkpt>
<trkpt lat="46.288330000" lon="7.417370000">
  <ele>1042.125000</ele>
  <time>2012-05-28T14:29:34Z</time>
</trkpt>
<trkpt lat="46.288340000" lon="7.417420000">
  <ele>1042.400020</ele>
  <time>2012-05-28T14:29:35Z</time>
</trkpt>
<trkpt lat="46.288420000" lon="7.417580000">
  <ele>1042.400020</ele>
  <time>2012-05-28T14:29:39Z</time>
</trkpt>
<trkpt lat="46.288490000" lon="7.417690000">
  <ele>1043.500000</ele>
  <time>2012-05-28T14:29:42Z</time>
</trkpt>
<trkpt lat="46.288510000" lon="7.417720000">
  <ele>1043.866700</ele>
  <time>2012-05-28T14:29:43Z</time>
</trkpt>
<trkpt lat="46.288540000" lon="7.417760000">
  <ele>1044.233280</ele>
  <time>2012-05-28T14:29:44Z</time>
</trkpt>
<trkpt lat="46.288550000" lon="7.417800000">
  <ele>1044.599980</ele>
  <time>2012-05-28T14:29:45Z</time>
</trkpt>
<trkpt lat="46.288620000" lon="7.418070000">
  <ele>1044.599980</ele>
  <time>2012-05-28T14:29:51Z</time>
</trkpt>
<trkpt lat="46.288650000" lon="7.418160000">
  <ele>1045.266600</ele>
  <time>2012-05-28T14:29:53Z</time>
</trkpt>
<trkpt lat="46.288660000" lon="7.418210000">
  <ele>1045.599980</ele>
  <time>2012-05-28T14:29:54Z</time>
</trkpt>
<trkpt lat="46.288670000" lon="7.418260000">
  <ele>1045.933350</ele>
  <time>2012-05-28T14:29:55Z</time>
</trkpt>
<trkpt lat="46.288680000" lon="7.418310000">
  <ele>1046.266600</ele>
  <time>2012-05-28T14:29:56Z</time>
</trkpt>
<trkpt lat="46.288690000" lon="7.418360000">
  <ele>1046.599980</ele>
  <time>2012-05-28T14:29:57Z</time>
</trkpt>
<trkpt lat="46.288790000" lon="7.418770000">
  <ele>1046.599980</ele>
  <time>2012-05-28T14:30:05Z</time>
</trkpt>
<trkpt lat="46.288890000" lon="7.419120000">
  <ele>1047.699950</ele>
  <time>2012-05-28T14:30:12Z</time>
</trkpt>
<trkpt lat="46.288970000" lon="7.419260000">
  <ele>1048.171510</ele>
  <time>2012-05-28T14:30:15Z</time>
</trkpt>
<trkpt lat="46.288990000" lon="7.419300000">
  <ele>1048.328610</ele>
  <time>2012-05-28T14:30:16Z</time>
</trkpt>
<trkpt lat="46.289020000" lon="7.419340000">
  <ele>1048.485720</ele>
  <time>2012-05-28T14:30:17Z</time>
</trkpt>
<trkpt lat="46.289050000" lon="7.419380000">
  <ele>1048.642940</ele>
  <time>2012-05-28T14:30:18Z</time>
</trkpt>
<trkpt lat="46.289090000" lon="7.419430000">
  <ele>1048.800050</ele>
  <time>2012-05-28T14:30:19Z</time>
</trkpt>
<trkpt lat="46.289210000" lon="7.419660000">
  <ele>1048.800050</ele>
  <time>2012-05-28T14:30:24Z</time>
</trkpt>
<trkpt lat="46.289380000" lon="7.419910000">
  <ele>1049.742920</ele>
  <time>2012-05-28T14:30:30Z</time>
</trkpt>
<trkpt lat="46.289410000" lon="7.419930000">
  <ele>1049.900020</ele>
  <time>2012-05-28T14:30:31Z</time>
</trkpt>
<trkpt lat="46.289540000" lon="7.419980000">
  <ele>1050.371460</ele>
  <time>2012-05-28T14:30:34Z</time>
</trkpt>
<trkpt lat="46.289570000" lon="7.419980000">
  <ele>1050.528560</ele>
  <time>2012-05-28T14:30:35Z</time>
</trkpt>
<trkpt lat="46.289620000" lon="7.419990000">
  <ele>1050.685670</ele>
  <time>2012-05-28T14:30:36Z</time>
</trkpt>
<trkpt lat="46.289660000" lon="7.419990000">
  <ele>1050.842900</ele>
  <time>2012-05-28T14:30:37Z</time>
</trkpt>
<trkpt lat="46.289700000" lon="7.419990000">
  <ele>1051.000000</ele>
  <time>2012-05-28T14:30:38Z</time>
</trkpt>
<trkpt lat="46.289910000" lon="7.420010000">
  <ele>1051.000000</ele>
  <time>2012-05-28T14:30:43Z</time>
</trkpt>
<trkpt lat="46.289950000" lon="7.420010000">
  <ele>1051.212040</ele>
  <time>2012-05-28T14:30:44Z</time>
</trkpt>
<trkpt lat="46.290230000" lon="7.420080000">
  <ele>1052.696040</ele>
  <time>2012-05-28T14:30:51Z</time>
</trkpt>
<trkpt lat="46.290390000" lon="7.420130000">
  <ele>1053.543950</ele>
  <time>2012-05-28T14:30:55Z</time>
</trkpt>
<trkpt lat="46.290420000" lon="7.420140000">
  <ele>1053.755980</ele>
  <time>2012-05-28T14:30:56Z</time>
</trkpt>
<trkpt lat="46.290450000" lon="7.420160000">
  <ele>1053.968020</ele>
  <time>2012-05-28T14:30:57Z</time>
</trkpt>
<trkpt lat="46.290480000" lon="7.420170000">
  <ele>1054.179930</ele>
  <time>2012-05-28T14:30:58Z</time>
</trkpt>
<trkpt lat="46.290650000" lon="7.420250000">
  <ele>1055.452030</ele>
  <time>2012-05-28T14:31:04Z</time>
</trkpt>
<trkpt lat="46.290670000" lon="7.420260000">
  <ele>1055.663940</ele>
  <time>2012-05-28T14:31:05Z</time>
</trkpt>
<trkpt lat="46.290700000" lon="7.420270000">
  <ele>1055.875980</ele>
  <time>2012-05-28T14:31:06Z</time>
</trkpt>
<trkpt lat="46.290720000" lon="7.420280000">
  <ele>1056.088010</ele>
  <time>2012-05-28T14:31:07Z</time>
</trkpt>
<trkpt lat="46.290740000" lon="7.420290000">
  <ele>1056.300050</ele>
  <time>2012-05-28T14:31:08Z</time>
</trkpt>
<trkpt lat="46.290830000" lon="7.420330000">
  <ele>1057.147950</ele>
  <time>2012-05-28T14:31:12Z</time>
</trkpt>
<trkpt lat="46.290860000" lon="7.420330000">
  <ele>1057.359990</ele>
  <time>2012-05-28T14:31:13Z</time>
</trkpt>
<trkpt lat="46.290880000" lon="7.420330000">
  <ele>1057.572020</ele>
  <time>2012-05-28T14:31:14Z</time>
</trkpt>
<trkpt lat="46.290900000" lon="7.420340000">
  <ele>1057.783940</ele>
  <time>2012-05-28T14:31:15Z</time>
</trkpt>
<trkpt lat="46.290930000" lon="7.420350000">
  <ele>1057.995970</ele>
  <time>2012-05-28T14:31:16Z</time>
</trkpt>
<trkpt lat="46.291040000" lon="7.420410000">
  <ele>1059.056030</ele>
  <time>2012-05-28T14:31:21Z</time>
</trkpt>
<trkpt lat="46.291060000" lon="7.420420000">
  <ele>1059.267940</ele>
  <time>2012-05-28T14:31:22Z</time>
</trkpt>
<trkpt lat="46.291080000" lon="7.420440000">
  <ele>1059.479980</ele>
  <time>2012-05-28T14:31:23Z</time>
</trkpt>
<trkpt lat="46.291110000" lon="7.420450000">
  <ele>1059.692020</ele>
  <time>2012-05-28T14:31:24Z</time>
</trkpt>
<trkpt lat="46.291130000" lon="7.420460000">
  <ele>1059.903930</ele>
  <time>2012-05-28T14:31:25Z</time>
</trkpt>
<trkpt lat="46.291200000" lon="7.420540000">
  <ele>1060.751950</ele>
  <time>2012-05-28T14:31:29Z</time>
</trkpt>
<trkpt lat="46.291220000" lon="7.420560000">
  <ele>1060.963990</ele>
  <time>2012-05-28T14:31:30Z</time>
</trkpt>
<trkpt lat="46.291240000" lon="7.420580000">
  <ele>1061.176030</ele>
  <time>2012-05-28T14:31:31Z</time>
</trkpt>
<trkpt lat="46.291260000" lon="7.420600000">
  <ele>1061.387940</ele>
  <time>2012-05-28T14:31:32Z</time>
</trkpt>
<trkpt lat="46.291280000" lon="7.420620000">
  <ele>1061.599980</ele>
  <time>2012-05-28T14:31:33Z</time>
</trkpt>
<trkpt lat="46.291330000" lon="7.420680000">
  <ele>1061.599980</ele>
  <time>2012-05-28T14:31:36Z</time>
</trkpt>
<trkpt lat="46.291420000" lon="7.420760000">
  <ele>1062.800050</ele>
  <time>2012-05-28T14:31:40Z</time>
</trkpt>
<trkpt lat="46.291440000" lon="7.420780000">
  <ele>1063.099980</ele>
  <time>2012-05-28T14:31:41Z</time>
</trkpt>
<trkpt lat="46.291450000" lon="7.420800000">
  <ele>1063.400020</ele>
  <time>2012-05-28T14:31:42Z</time>
</trkpt>
<trkpt lat="46.291480000" lon="7.420830000">
  <ele>1063.699950</ele>
  <time>2012-05-28T14:31:43Z</time>
</trkpt>
<trkpt lat="46.291500000" lon="7.420840000">
  <ele>1064.000000</ele>
  <time>2012-05-28T14:31:44Z</time>
</trkpt>
<trkpt lat="46.291580000" lon="7.420910000">
  <ele>1064.000000</ele>
  <time>2012-05-28T14:31:48Z</time>
</trkpt>
<trkpt lat="46.291610000" lon="7.420920000">
  <ele>1064.439940</ele>
  <time>2012-05-28T14:31:49Z</time>
</trkpt>
<trkpt lat="46.291630000" lon="7.420950000">
  <ele>1064.880000</ele>
  <time>2012-05-28T14:31:50Z</time>
</trkpt>
<trkpt lat="46.291660000" lon="7.420960000">
  <ele>1065.319950</ele>
  <time>2012-05-28T14:31:51Z</time>
</trkpt>
<trkpt lat="46.291680000" lon="7.420980000">
  <ele>1065.760010</ele>
  <time>2012-05-28T14:31:52Z</time>
</trkpt>
<trkpt lat="46.291710000" lon="7.421000000">
  <ele>1066.199950</ele>
  <time>2012-05-28T14:31:53Z</time>
</trkpt>
<trkpt lat="46.291730000" lon="7.421030000">
  <ele>1066.199950</ele>
  <time>2012-05-28T14:31:54Z</time>
</trkpt>
<trkpt lat="46.291770000" lon="7.421050000">
  <ele>1066.724980</ele>
  <time>2012-05-28T14:31:56Z</time>
</trkpt>
<trkpt lat="46.291800000" lon="7.421060000">
  <ele>1066.987430</ele>
  <time>2012-05-28T14:31:57Z</time>
</trkpt>
<trkpt lat="46.291820000" lon="7.421080000">
  <ele>1067.250000</ele>
  <time>2012-05-28T14:31:58Z</time>
</trkpt>
<trkpt lat="46.291850000" lon="7.421090000">
  <ele>1067.512450</ele>
  <time>2012-05-28T14:31:59Z</time>
</trkpt>
<trkpt lat="46.291870000" lon="7.421100000">
  <ele>1067.775020</ele>
  <time>2012-05-28T14:32:00Z</time>
</trkpt>
<trkpt lat="46.292020000" lon="7.421160000">
  <ele>1069.612550</ele>
  <time>2012-05-28T14:32:07Z</time>
</trkpt>
<trkpt lat="46.292050000" lon="7.421170000">
  <ele>1069.875000</ele>
  <time>2012-05-28T14:32:08Z</time>
</trkpt>
<trkpt lat="46.292060000" lon="7.421180000">
  <ele>1070.137570</ele>
  <time>2012-05-28T14:32:09Z</time>
</trkpt>
<trkpt lat="46.292080000" lon="7.421180000">
  <ele>1070.400020</ele>
  <time>2012-05-28T14:32:10Z</time>
</trkpt>
<trkpt lat="46.292140000" lon="7.421210000">
  <ele>1070.400020</ele>
  <time>2012-05-28T14:32:13Z</time>
</trkpt>
<trkpt lat="46.292230000" lon="7.421260000">
  <ele>1071.400020</ele>
  <time>2012-05-28T14:32:17Z</time>
</trkpt>
<trkpt lat="46.292250000" lon="7.421270000">
  <ele>1071.650020</ele>
  <time>2012-05-28T14:32:18Z</time>
</trkpt>
<trkpt lat="46.292270000" lon="7.421280000">
  <ele>1071.900020</ele>
  <time>2012-05-28T14:32:19Z</time>
</trkpt>
<trkpt lat="46.292290000" lon="7.421290000">
  <ele>1072.150020</ele>
  <time>2012-05-28T14:32:20Z</time>
</trkpt>
<trkpt lat="46.292310000" lon="7.421300000">
  <ele>1072.400020</ele>
  <time>2012-05-28T14:32:21Z</time>
</trkpt>
<trkpt lat="46.292370000" lon="7.421330000">
  <ele>1073.400020</ele>
  <time>2012-05-28T14:32:25Z</time>
</trkpt>
<trkpt lat="46.292390000" lon="7.421330000">
  <ele>1073.650020</ele>
  <time>2012-05-28T14:32:26Z</time>
</trkpt>
<trkpt lat="46.292420000" lon="7.421330000">
  <ele>1073.900020</ele>
  <time>2012-05-28T14:32:27Z</time>
</trkpt>
<trkpt lat="46.292450000" lon="7.421330000">
  <ele>1074.150020</ele>
  <time>2012-05-28T14:32:28Z</time>
</trkpt>
<trkpt lat="46.292470000" lon="7.421330000">
  <ele>1074.400020</ele>
  <time>2012-05-28T14:32:29Z</time>
</trkpt>
<trkpt lat="46.292530000" lon="7.421330000">
  <ele>1074.400020</ele>
  <time>2012-05-28T14:32:31Z</time>
</trkpt>
<trkpt lat="46.292630000" lon="7.421330000">
  <ele>1075.435300</ele>
  <time>2012-05-28T14:32:35Z</time>
</trkpt>
<trkpt lat="46.292660000" lon="7.421330000">
  <ele>1075.694090</ele>
  <time>2012-05-28T14:32:36Z</time>
</trkpt>
<trkpt lat="46.292680000" lon="7.421330000">
  <ele>1075.953000</ele>
  <time>2012-05-28T14:32:37Z</time>
</trkpt>
<trkpt lat="46.292710000" lon="7.421330000">
  <ele>1076.211790</ele>
  <time>2012-05-28T14:32:38Z</time>
</trkpt>
<trkpt lat="46.292730000" lon="7.421330000">
  <ele>1076.470580</ele>
  <time>2012-05-28T14:32:39Z</time>
</trkpt>
<trkpt lat="46.292840000" lon="7.421340000">
  <ele>1077.764770</ele>
  <time>2012-05-28T14:32:44Z</time>
</trkpt>
<trkpt lat="46.292860000" lon="7.421350000">
  <ele>1078.023560</ele>
  <time>2012-05-28T14:32:45Z</time>
</trkpt>
<trkpt lat="46.292880000" lon="7.421350000">
  <ele>1078.282350</ele>
  <time>2012-05-28T14:32:46Z</time>
</trkpt>
<trkpt lat="46.292910000" lon="7.421350000">
  <ele>1078.541260</ele>
  <time>2012-05-28T14:32:47Z</time>
</trkpt>
<trkpt lat="46.292940000" lon="7.421360000">
  <ele>1078.800050</ele>
  <time>2012-05-28T14:32:48Z</time>
</trkpt>
<trkpt lat="46.293020000" lon="7.421380000">
  <ele>1078.800050</ele>
  <time>2012-05-28T14:32:51Z</time>
</trkpt>
<trkpt lat="46.293050000" lon="7.421380000">
  <ele>1079.085820</ele>
  <time>2012-05-28T14:32:52Z</time>
</trkpt>
<trkpt lat="46.293070000" lon="7.421380000">
  <ele>1079.371460</ele>
  <time>2012-05-28T14:32:53Z</time>
</trkpt>
<trkpt lat="46.293090000" lon="7.421380000">
  <ele>1079.657230</ele>
  <time>2012-05-28T14:32:54Z</time>
</trkpt>
<trkpt lat="46.293130000" lon="7.421390000">
  <ele>1079.942870</ele>
  <time>2012-05-28T14:32:55Z</time>
</trkpt>
<trkpt lat="46.293150000" lon="7.421390000">
  <ele>1080.228640</ele>
  <time>2012-05-28T14:32:56Z</time>
</trkpt>
<trkpt lat="46.293170000" lon="7.421400000">
  <ele>1080.514280</ele>
  <time>2012-05-28T14:32:57Z</time>
</trkpt>
<trkpt lat="46.293190000" lon="7.421400000">
  <ele>1080.800050</ele>
  <time>2012-05-28T14:32:58Z</time>
</trkpt>
<trkpt lat="46.293220000" lon="7.421400000">
  <ele>1080.800050</ele>
  <time>2012-05-28T14:32:59Z</time>
</trkpt>
<trkpt lat="46.293310000" lon="7.421390000">
  <ele>1081.228640</ele>
  <time>2012-05-28T14:33:02Z</time>
</trkpt>
<trkpt lat="46.293340000" lon="7.421390000">
  <ele>1081.371460</ele>
  <time>2012-05-28T14:33:03Z</time>
</trkpt>
<trkpt lat="46.293400000" lon="7.421390000">
  <ele>1081.657230</ele>
  <time>2012-05-28T14:33:05Z</time>
</trkpt>
<trkpt lat="46.293480000" lon="7.421390000">
  <ele>1082.085820</ele>
  <time>2012-05-28T14:33:08Z</time>
</trkpt>
<trkpt lat="46.293510000" lon="7.421390000">
  <ele>1082.228640</ele>
  <time>2012-05-28T14:33:09Z</time>
</trkpt>
<trkpt lat="46.293540000" lon="7.421400000">
  <ele>1082.371460</ele>
  <time>2012-05-28T14:33:10Z</time>
</trkpt>
<trkpt lat="46.293560000" lon="7.421400000">
  <ele>1082.514280</ele>
  <time>2012-05-28T14:33:11Z</time>
</trkpt>
<trkpt lat="46.293590000" lon="7.421400000">
  <ele>1082.657230</ele>
  <time>2012-05-28T14:33:12Z</time>
</trkpt>
<trkpt lat="46.293620000" lon="7.421410000">
  <ele>1082.800050</ele>
  <time>2012-05-28T14:33:13Z</time>
</trkpt>
<trkpt lat="46.293680000" lon="7.421410000">
  <ele>1082.800050</ele>
  <time>2012-05-28T14:33:15Z</time>
</trkpt>
<trkpt lat="46.293750000" lon="7.421420000">
  <ele>1083.093380</ele>
  <time>2012-05-28T14:33:17Z</time>
</trkpt>
<trkpt lat="46.293820000" lon="7.421440000">
  <ele>1083.386720</ele>
  <time>2012-05-28T14:33:19Z</time>
</trkpt>
<trkpt lat="46.293880000" lon="7.421460000">
  <ele>1083.680050</ele>
  <time>2012-05-28T14:33:21Z</time>
</trkpt>
<trkpt lat="46.293950000" lon="7.421480000">
  <ele>1083.973390</ele>
  <time>2012-05-28T14:33:23Z</time>
</trkpt>
<trkpt lat="46.294030000" lon="7.421500000">
  <ele>1084.413330</ele>
  <time>2012-05-28T14:33:26Z</time>
</trkpt>
<trkpt lat="46.294060000" lon="7.421510000">
  <ele>1084.560060</ele>
  <time>2012-05-28T14:33:27Z</time>
</trkpt>
<trkpt lat="46.294090000" lon="7.421520000">
  <ele>1084.706670</ele>
  <time>2012-05-28T14:33:28Z</time>
</trkpt>
<trkpt lat="46.294120000" lon="7.421530000">
  <ele>1084.853390</ele>
  <time>2012-05-28T14:33:29Z</time>
</trkpt>
<trkpt lat="46.294160000" lon="7.421540000">
  <ele>1085.000000</ele>
  <time>2012-05-28T14:33:30Z</time>
</trkpt>
<trkpt lat="46.294320000" lon="7.421580000">
  <ele>1085.000000</ele>
  <time>2012-05-28T14:33:35Z</time>
</trkpt>
<trkpt lat="46.294530000" lon="7.421560000">
  <ele>1086.199950</ele>
  <time>2012-05-28T14:33:41Z</time>
</trkpt>
<trkpt lat="46.294560000" lon="7.421540000">
  <ele>1086.400020</ele>
  <time>2012-05-28T14:33:42Z</time>
</trkpt>
<trkpt lat="46.294580000" lon="7.421530000">
  <ele>1086.599980</ele>
  <time>2012-05-28T14:33:43Z</time>
</trkpt>
<trkpt lat="46.294610000" lon="7.421510000">
  <ele>1086.800050</ele>
  <time>2012-05-28T14:33:44Z</time>
</trkpt>
<trkpt lat="46.294640000" lon="7.421490000">
  <ele>1087.000000</ele>
  <time>2012-05-28T14:33:45Z</time>
</trkpt>
<trkpt lat="46.294720000" lon="7.421440000">
  <ele>1087.000000</ele>
  <time>2012-05-28T14:33:48Z</time>
</trkpt>
<trkpt lat="46.294800000" lon="7.421390000">
  <ele>1087.857180</ele>
  <time>2012-05-28T14:33:51Z</time>
</trkpt>
<trkpt lat="46.294830000" lon="7.421380000">
  <ele>1088.142820</ele>
  <time>2012-05-28T14:33:52Z</time>
</trkpt>
<trkpt lat="46.294850000" lon="7.421360000">
  <ele>1088.428590</ele>
  <time>2012-05-28T14:33:53Z</time>
</trkpt>
<trkpt lat="46.294870000" lon="7.421350000">
  <ele>1088.714230</ele>
  <time>2012-05-28T14:33:54Z</time>
</trkpt>
<trkpt lat="46.294890000" lon="7.421330000">
  <ele>1089.000000</ele>
  <time>2012-05-28T14:33:55Z</time>
</trkpt>
<trkpt lat="46.294940000" lon="7.421280000">
  <ele>1089.000000</ele>
  <time>2012-05-28T14:33:58Z</time>
</trkpt>
<trkpt lat="46.295070000" lon="7.421200000">
  <ele>1090.000000</ele>
  <time>2012-05-28T14:34:03Z</time>
</trkpt>
<trkpt lat="46.295120000" lon="7.421180000">
  <ele>1090.400020</ele>
  <time>2012-05-28T14:34:05Z</time>
</trkpt>
<trkpt lat="46.295140000" lon="7.421160000">
  <ele>1090.599980</ele>
  <time>2012-05-28T14:34:06Z</time>
</trkpt>
<trkpt lat="46.295170000" lon="7.421140000">
  <ele>1090.799930</ele>
  <time>2012-05-28T14:34:07Z</time>
</trkpt>
<trkpt lat="46.295200000" lon="7.421120000">
  <ele>1091.000000</ele>
  <time>2012-05-28T14:34:08Z</time>
</trkpt>
<trkpt lat="46.295220000" lon="7.421100000">
  <ele>1091.199950</ele>
  <time>2012-05-28T14:34:09Z</time>
</trkpt>
<trkpt lat="46.295240000" lon="7.421080000">
  <ele>1091.199950</ele>
  <time>2012-05-28T14:34:10Z</time>
</trkpt>
<trkpt lat="46.295270000" lon="7.421070000">
  <ele>1091.799930</ele>
  <time>2012-05-28T14:34:11Z</time>
</trkpt>
<trkpt lat="46.295280000" lon="7.421050000">
  <ele>1092.399900</ele>
  <time>2012-05-28T14:34:12Z</time>
</trkpt>
<trkpt lat="46.295310000" lon="7.421040000">
  <ele>1093.000000</ele>
  <time>2012-05-28T14:34:13Z</time>
</trkpt>
<trkpt lat="46.295330000" lon="7.421020000">
  <ele>1093.599980</ele>
  <time>2012-05-28T14:34:14Z</time>
</trkpt>
<trkpt lat="46.295380000" lon="7.420990000">
  <ele>1093.599980</ele>
  <time>2012-05-28T14:34:16Z</time>
</trkpt>
<trkpt lat="46.295450000" lon="7.420930000">
  <ele>1094.599980</ele>
  <time>2012-05-28T14:34:20Z</time>
</trkpt>
<trkpt lat="46.295460000" lon="7.420910000">
  <ele>1094.849980</ele>
  <time>2012-05-28T14:34:21Z</time>
</trkpt>
<trkpt lat="46.295480000" lon="7.420900000">
  <ele>1095.099980</ele>
  <time>2012-05-28T14:34:22Z</time>
</trkpt>
<trkpt lat="46.295510000" lon="7.420890000">
  <ele>1095.349980</ele>
  <time>2012-05-28T14:34:23Z</time>
</trkpt>
<trkpt lat="46.295530000" lon="7.420870000">
  <ele>1095.599980</ele>
  <time>2012-05-28T14:34:24Z</time>
</trkpt>
<trkpt lat="46.295580000" lon="7.420850000">
  <ele>1095.599980</ele>
  <time>2012-05-28T14:34:26Z</time>
</trkpt>
<trkpt lat="46.295720000" lon="7.420740000">
  <ele>1096.799930</ele>
  <time>2012-05-28T14:34:32Z</time>
</trkpt>
<trkpt lat="46.295730000" lon="7.420710000">
  <ele>1097.000000</ele>
  <time>2012-05-28T14:34:33Z</time>
</trkpt>
<trkpt lat="46.295760000" lon="7.420680000">
  <ele>1097.199950</ele>
  <time>2012-05-28T14:34:34Z</time>
</trkpt>
<trkpt lat="46.295770000" lon="7.420660000">
  <ele>1097.400020</ele>
  <time>2012-05-28T14:34:35Z</time>
</trkpt>
<trkpt lat="46.295800000" lon="7.420630000">
  <ele>1097.599980</ele>
  <time>2012-05-28T14:34:36Z</time>
</trkpt>
<trkpt lat="46.295860000" lon="7.420580000">
  <ele>1097.599980</ele>
  <time>2012-05-28T14:34:38Z</time>
</trkpt>
<trkpt lat="46.295880000" lon="7.420550000">
  <ele>1097.875000</ele>
  <time>2012-05-28T14:34:39Z</time>
</trkpt>
<trkpt lat="46.295950000" lon="7.420480000">
  <ele>1098.699950</ele>
  <time>2012-05-28T14:34:42Z</time>
</trkpt>
<trkpt lat="46.295970000" lon="7.420470000">
  <ele>1098.974980</ele>
  <time>2012-05-28T14:34:43Z</time>
</trkpt>
<trkpt lat="46.295980000" lon="7.420450000">
  <ele>1099.250000</ele>
  <time>2012-05-28T14:34:44Z</time>
</trkpt>
<trkpt lat="46.295990000" lon="7.420430000">
  <ele>1099.525020</ele>
  <time>2012-05-28T14:34:45Z</time>
</trkpt>
<trkpt lat="46.296020000" lon="7.420430000">
  <ele>1099.800050</ele>
  <time>2012-05-28T14:34:46Z</time>
</trkpt>
<trkpt lat="46.296100000" lon="7.420450000">
  <ele>1099.800050</ele>
  <time>2012-05-28T14:34:49Z</time>
</trkpt>
<trkpt lat="46.296130000" lon="7.420460000">
  <ele>1100.075070</ele>
  <time>2012-05-28T14:34:50Z</time>
</trkpt>
<trkpt lat="46.296200000" lon="7.420520000">
  <ele>1100.900020</ele>
  <time>2012-05-28T14:34:53Z</time>
</trkpt>
<trkpt lat="46.296230000" lon="7.420550000">
  <ele>1101.175050</ele>
  <time>2012-05-28T14:34:54Z</time>
</trkpt>
<trkpt lat="46.296250000" lon="7.420580000">
  <ele>1101.449950</ele>
  <time>2012-05-28T14:34:55Z</time>
</trkpt>
<trkpt lat="46.296280000" lon="7.420610000">
  <ele>1101.724980</ele>
  <time>2012-05-28T14:34:56Z</time>
</trkpt>
<trkpt lat="46.296290000" lon="7.420640000">
  <ele>1102.000000</ele>
  <time>2012-05-28T14:34:57Z</time>
</trkpt>
<trkpt lat="46.296340000" lon="7.420700000">
  <ele>1102.000000</ele>
  <time>2012-05-28T14:34:59Z</time>
</trkpt>
<trkpt lat="46.296400000" lon="7.420810000">
  <ele>1102.599980</ele>
  <time>2012-05-28T14:35:02Z</time>
</trkpt>
<trkpt lat="46.296480000" lon="7.420890000">
  <ele>1103.199950</ele>
  <time>2012-05-28T14:35:05Z</time>
</trkpt>
<trkpt lat="46.296510000" lon="7.420920000">
  <ele>1103.400020</ele>
  <time>2012-05-28T14:35:06Z</time>
</trkpt>
<trkpt lat="46.296540000" lon="7.420940000">
  <ele>1103.599980</ele>
  <time>2012-05-28T14:35:07Z</time>
</trkpt>
<trkpt lat="46.296570000" lon="7.420960000">
  <ele>1103.800050</ele>
  <time>2012-05-28T14:35:08Z</time>
</trkpt>
<trkpt lat="46.296600000" lon="7.420980000">
  <ele>1104.000000</ele>
  <time>2012-05-28T14:35:09Z</time>
</trkpt>
<trkpt lat="46.296810000" lon="7.421120000">
  <ele>1104.000000</ele>
  <time>2012-05-28T14:35:16Z</time>
</trkpt>
<trkpt lat="46.297020000" lon="7.421260000">
  <ele>1104.978880</ele>
  <time>2012-05-28T14:35:22Z</time>
</trkpt>
<trkpt lat="46.297050000" lon="7.421290000">
  <ele>1105.142090</ele>
  <time>2012-05-28T14:35:23Z</time>
</trkpt>
<trkpt lat="46.297160000" lon="7.421470000">
  <ele>1105.794680</ele>
  <time>2012-05-28T14:35:27Z</time>
</trkpt>
<trkpt lat="46.297200000" lon="7.421670000">
  <ele>1106.447390</ele>
  <time>2012-05-28T14:35:31Z</time>
</trkpt>
<trkpt lat="46.297210000" lon="7.421730000">
  <ele>1106.610470</ele>
  <time>2012-05-28T14:35:32Z</time>
</trkpt>
<trkpt lat="46.297240000" lon="7.421880000">
  <ele>1107.099980</ele>
  <time>2012-05-28T14:35:35Z</time>
</trkpt>
<trkpt lat="46.297250000" lon="7.421940000">
  <ele>1107.263180</ele>
  <time>2012-05-28T14:35:36Z</time>
</trkpt>
<trkpt lat="46.297260000" lon="7.421980000">
  <ele>1107.426270</ele>
  <time>2012-05-28T14:35:37Z</time>
</trkpt>
<trkpt lat="46.297270000" lon="7.422030000">
  <ele>1107.589480</ele>
  <time>2012-05-28T14:35:38Z</time>
</trkpt>
<trkpt lat="46.297290000" lon="7.422060000">
  <ele>1107.752560</ele>
  <time>2012-05-28T14:35:39Z</time>
</trkpt>
<trkpt lat="46.297310000" lon="7.422200000">
  <ele>1108.405270</ele>
  <time>2012-05-28T14:35:43Z</time>
</trkpt>
<trkpt lat="46.297320000" lon="7.422240000">
  <ele>1108.568360</ele>
  <time>2012-05-28T14:35:44Z</time>
</trkpt>
<trkpt lat="46.297330000" lon="7.422270000">
  <ele>1108.731570</ele>
  <time>2012-05-28T14:35:45Z</time>
</trkpt>
<trkpt lat="46.297340000" lon="7.422300000">
  <ele>1108.894650</ele>
  <time>2012-05-28T14:35:46Z</time>
</trkpt>
<trkpt lat="46.297360000" lon="7.422330000">
  <ele>1109.057860</ele>
  <time>2012-05-28T14:35:47Z</time>
</trkpt>
<trkpt lat="46.297420000" lon="7.422450000">
  <ele>1109.710450</ele>
  <time>2012-05-28T14:35:51Z</time>
</trkpt>
<trkpt lat="46.297430000" lon="7.422480000">
  <ele>1109.873660</ele>
  <time>2012-05-28T14:35:52Z</time>
</trkpt>
<trkpt lat="46.297440000" lon="7.422510000">
  <ele>1110.036740</ele>
  <time>2012-05-28T14:35:53Z</time>
</trkpt>
<trkpt lat="46.297450000" lon="7.422540000">
  <ele>1110.199950</ele>
  <time>2012-05-28T14:35:54Z</time>
</trkpt>
<trkpt lat="46.297510000" lon="7.422650000">
  <ele>1110.199950</ele>
  <time>2012-05-28T14:35:58Z</time>
</trkpt>
<trkpt lat="46.297520000" lon="7.422680000">
  <ele>1110.514280</ele>
  <time>2012-05-28T14:35:59Z</time>
</trkpt>
<trkpt lat="46.297550000" lon="7.422740000">
  <ele>1111.142820</ele>
  <time>2012-05-28T14:36:01Z</time>
</trkpt>
<trkpt lat="46.297570000" lon="7.422760000">
  <ele>1111.457150</ele>
  <time>2012-05-28T14:36:02Z</time>
</trkpt>
<trkpt lat="46.297580000" lon="7.422790000">
  <ele>1111.771480</ele>
  <time>2012-05-28T14:36:03Z</time>
</trkpt>
<trkpt lat="46.297600000" lon="7.422830000">
  <ele>1112.085690</ele>
  <time>2012-05-28T14:36:04Z</time>
</trkpt>
<trkpt lat="46.297620000" lon="7.422860000">
  <ele>1112.400020</ele>
  <time>2012-05-28T14:36:05Z</time>
</trkpt>
<trkpt lat="46.297640000" lon="7.422890000">
  <ele>1112.400020</ele>
  <time>2012-05-28T14:36:06Z</time>
</trkpt>
<trkpt lat="46.297710000" lon="7.423000000">
  <ele>1113.388310</ele>
  <time>2012-05-28T14:36:10Z</time>
</trkpt>
<trkpt lat="46.297730000" lon="7.423020000">
  <ele>1113.635250</ele>
  <time>2012-05-28T14:36:11Z</time>
</trkpt>
<trkpt lat="46.297740000" lon="7.423040000">
  <ele>1113.882320</ele>
  <time>2012-05-28T14:36:12Z</time>
</trkpt>
<trkpt lat="46.297770000" lon="7.423060000">
  <ele>1114.129390</ele>
  <time>2012-05-28T14:36:13Z</time>
</trkpt>
<trkpt lat="46.297790000" lon="7.423070000">
  <ele>1114.376460</ele>
  <time>2012-05-28T14:36:14Z</time>
</trkpt>
<trkpt lat="46.297900000" lon="7.423150000">
  <ele>1115.611690</ele>
  <time>2012-05-28T14:36:19Z</time>
</trkpt>
<trkpt lat="46.297920000" lon="7.423160000">
  <ele>1115.858760</ele>
  <time>2012-05-28T14:36:20Z</time>
</trkpt>
<trkpt lat="46.297940000" lon="7.423170000">
  <ele>1116.105830</ele>
  <time>2012-05-28T14:36:21Z</time>
</trkpt>
<trkpt lat="46.297970000" lon="7.423190000">
  <ele>1116.352910</ele>
  <time>2012-05-28T14:36:22Z</time>
</trkpt>
<trkpt lat="46.297990000" lon="7.423200000">
  <ele>1116.599980</ele>
  <time>2012-05-28T14:36:23Z</time>
</trkpt>
<trkpt lat="46.298070000" lon="7.423230000">
  <ele>1116.599980</ele>
  <time>2012-05-28T14:36:26Z</time>
</trkpt>
<trkpt lat="46.298230000" lon="7.423340000">
  <ele>1117.699950</ele>
  <time>2012-05-28T14:36:33Z</time>
</trkpt>
<trkpt lat="46.298300000" lon="7.423390000">
  <ele>1118.171510</ele>
  <time>2012-05-28T14:36:36Z</time>
</trkpt>
<trkpt lat="46.298320000" lon="7.423400000">
  <ele>1118.328610</ele>
  <time>2012-05-28T14:36:37Z</time>
</trkpt>
<trkpt lat="46.298350000" lon="7.423410000">
  <ele>1118.485720</ele>
  <time>2012-05-28T14:36:38Z</time>
</trkpt>
<trkpt lat="46.298370000" lon="7.423420000">
  <ele>1118.642940</ele>
  <time>2012-05-28T14:36:39Z</time>
</trkpt>
<trkpt lat="46.298390000" lon="7.423440000">
  <ele>1118.800050</ele>
  <time>2012-05-28T14:36:40Z</time>
</trkpt>
<trkpt lat="46.298440000" lon="7.423450000">
  <ele>1118.800050</ele>
  <time>2012-05-28T14:36:42Z</time>
</trkpt>
<trkpt lat="46.298500000" lon="7.423460000">
  <ele>1119.657230</ele>
  <time>2012-05-28T14:36:45Z</time>
</trkpt>
<trkpt lat="46.298510000" lon="7.423460000">
  <ele>1119.942870</ele>
  <time>2012-05-28T14:36:46Z</time>
</trkpt>
<trkpt lat="46.298530000" lon="7.423460000">
  <ele>1120.228640</ele>
  <time>2012-05-28T14:36:47Z</time>
</trkpt>
<trkpt lat="46.298540000" lon="7.423480000">
  <ele>1120.514280</ele>
  <time>2012-05-28T14:36:48Z</time>
</trkpt>
<trkpt lat="46.298560000" lon="7.423490000">
  <ele>1120.800050</ele>
  <time>2012-05-28T14:36:49Z</time>
</trkpt>
<trkpt lat="46.298640000" lon="7.423530000">
  <ele>1120.800050</ele>
  <time>2012-05-28T14:36:53Z</time>
</trkpt>
<trkpt lat="46.298780000" lon="7.423570000">
  <ele>1121.900020</ele>
  <time>2012-05-28T14:36:57Z</time>
</trkpt>
<trkpt lat="46.298810000" lon="7.423580000">
  <ele>1122.175050</ele>
  <time>2012-05-28T14:36:58Z</time>
</trkpt>
<trkpt lat="46.298840000" lon="7.423590000">
  <ele>1122.449950</ele>
  <time>2012-05-28T14:36:59Z</time>
</trkpt>
<trkpt lat="46.298870000" lon="7.423600000">
  <ele>1122.724980</ele>
  <time>2012-05-28T14:37:00Z</time>
</trkpt>
<trkpt lat="46.298890000" lon="7.423610000">
  <ele>1123.000000</ele>
  <time>2012-05-28T14:37:01Z</time>
</trkpt>
<trkpt lat="46.298980000" lon="7.423610000">
  <ele>1123.000000</ele>
  <time>2012-05-28T14:37:04Z</time>
</trkpt>
<trkpt lat="46.299030000" lon="7.423610000">
  <ele>1123.800050</ele>
  <time>2012-05-28T14:37:06Z</time>
</trkpt>
<trkpt lat="46.299050000" lon="7.423610000">
  <ele>1124.199950</ele>
  <time>2012-05-28T14:37:07Z</time>
</trkpt>
<trkpt lat="46.299080000" lon="7.423620000">
  <ele>1124.599980</ele>
  <time>2012-05-28T14:37:08Z</time>
</trkpt>
<trkpt lat="46.299110000" lon="7.423610000">
  <ele>1125.000000</ele>
  <time>2012-05-28T14:37:09Z</time>
</trkpt>
<trkpt lat="46.299130000" lon="7.423610000">
  <ele>1125.400020</ele>
  <time>2012-05-28T14:37:10Z</time>
</trkpt>
<trkpt lat="46.299210000" lon="7.423610000">
  <ele>1125.400020</ele>
  <time>2012-05-28T14:37:14Z</time>
</trkpt>
<trkpt lat="46.299290000" lon="7.423600000">
  <ele>1126.342900</ele>
  <time>2012-05-28T14:37:17Z</time>
</trkpt>
<trkpt lat="46.299320000" lon="7.423590000">
  <ele>1126.657100</ele>
  <time>2012-05-28T14:37:18Z</time>
</trkpt>
<trkpt lat="46.299350000" lon="7.423580000">
  <ele>1126.971440</ele>
  <time>2012-05-28T14:37:19Z</time>
</trkpt>
<trkpt lat="46.299370000" lon="7.423580000">
  <ele>1127.285640</ele>
  <time>2012-05-28T14:37:20Z</time>
</trkpt>
<trkpt lat="46.299400000" lon="7.423570000">
  <ele>1127.599980</ele>
  <time>2012-05-28T14:37:21Z</time>
</trkpt>
<trkpt lat="46.299480000" lon="7.423540000">
  <ele>1127.599980</ele>
  <time>2012-05-28T14:37:25Z</time>
</trkpt>
<trkpt lat="46.299520000" lon="7.423520000">
  <ele>1128.400020</ele>
  <time>2012-05-28T14:37:27Z</time>
</trkpt>
<trkpt lat="46.299550000" lon="7.423520000">
  <ele>1128.799930</ele>
  <time>2012-05-28T14:37:28Z</time>
</trkpt>
<trkpt lat="46.299580000" lon="7.423510000">
  <ele>1129.199950</ele>
  <time>2012-05-28T14:37:29Z</time>
</trkpt>
<trkpt lat="46.299590000" lon="7.423500000">
  <ele>1129.599980</ele>
  <time>2012-05-28T14:37:30Z</time>
</trkpt>
<trkpt lat="46.299660000" lon="7.423480000">
  <ele>1129.599980</ele>
  <time>2012-05-28T14:37:34Z</time>
</trkpt>
<trkpt lat="46.299690000" lon="7.423470000">
  <ele>1130.040040</ele>
  <time>2012-05-28T14:37:35Z</time>
</trkpt>
<trkpt lat="46.299710000" lon="7.423460000">
  <ele>1130.479980</ele>
  <time>2012-05-28T14:37:36Z</time>
</trkpt>
<trkpt lat="46.299740000" lon="7.423450000">
  <ele>1130.920040</ele>
  <time>2012-05-28T14:37:37Z</time>
</trkpt>
<trkpt lat="46.299760000" lon="7.423430000">
  <ele>1131.359990</ele>
  <time>2012-05-28T14:37:38Z</time>
</trkpt>
<trkpt lat="46.299780000" lon="7.423420000">
  <ele>1131.800050</ele>
  <time>2012-05-28T14:37:39Z</time>
</trkpt>
<trkpt lat="46.299800000" lon="7.423400000">
  <ele>1131.800050</ele>
  <time>2012-05-28T14:37:40Z</time>
</trkpt>
<trkpt lat="46.299850000" lon="7.423330000">
  <ele>1132.800050</ele>
  <time>2012-05-28T14:37:44Z</time>
</trkpt>
<trkpt lat="46.299870000" lon="7.423320000">
  <ele>1133.050050</ele>
  <time>2012-05-28T14:37:45Z</time>
</trkpt>
<trkpt lat="46.299890000" lon="7.423290000">
  <ele>1133.300050</ele>
  <time>2012-05-28T14:37:46Z</time>
</trkpt>
<trkpt lat="46.299940000" lon="7.423260000">
  <ele>1133.550050</ele>
  <time>2012-05-28T14:37:47Z</time>
</trkpt>
<trkpt lat="46.299960000" lon="7.423240000">
  <ele>1133.800050</ele>
  <time>2012-05-28T14:37:48Z</time>
</trkpt>
<trkpt lat="46.300060000" lon="7.423160000">
  <ele>1133.800050</ele>
  <time>2012-05-28T14:37:52Z</time>
</trkpt>
<trkpt lat="46.300080000" lon="7.423140000">
  <ele>1134.300050</ele>
  <time>2012-05-28T14:37:53Z</time>
</trkpt>
<trkpt lat="46.300100000" lon="7.423110000">
  <ele>1134.800050</ele>
  <time>2012-05-28T14:37:54Z</time>
</trkpt>
<trkpt lat="46.300120000" lon="7.423090000">
  <ele>1135.300050</ele>
  <time>2012-05-28T14:37:55Z</time>
</trkpt>
<trkpt lat="46.300140000" lon="7.423070000">
  <ele>1135.800050</ele>
  <time>2012-05-28T14:37:56Z</time>
</trkpt>
<trkpt lat="46.300190000" lon="7.423030000">
  <ele>1135.800050</ele>
  <time>2012-05-28T14:37:58Z</time>
</trkpt>
<trkpt lat="46.300290000" lon="7.422930000">
  <ele>1137.133300</ele>
  <time>2012-05-28T14:38:03Z</time>
</trkpt>
<trkpt lat="46.300300000" lon="7.422910000">
  <ele>1137.400020</ele>
  <time>2012-05-28T14:38:04Z</time>
</trkpt>
<trkpt lat="46.300330000" lon="7.422900000">
  <ele>1137.666630</ele>
  <time>2012-05-28T14:38:05Z</time>
</trkpt>
<trkpt lat="46.300350000" lon="7.422910000">
  <ele>1137.933350</ele>
  <time>2012-05-28T14:38:06Z</time>
</trkpt>
<trkpt lat="46.300380000" lon="7.422920000">
  <ele>1138.199950</ele>
  <time>2012-05-28T14:38:07Z</time>
</trkpt>
<trkpt lat="46.300420000" lon="7.422940000">
  <ele>1138.199950</ele>
  <time>2012-05-28T14:38:09Z</time>
</trkpt>
<trkpt lat="46.300490000" lon="7.422970000">
  <ele>1139.039920</ele>
  <time>2012-05-28T14:38:12Z</time>
</trkpt>
<trkpt lat="46.300510000" lon="7.422970000">
  <ele>1139.319950</ele>
  <time>2012-05-28T14:38:13Z</time>
</trkpt>
<trkpt lat="46.300530000" lon="7.422980000">
  <ele>1139.599980</ele>
  <time>2012-05-28T14:38:14Z</time>
</trkpt>
<trkpt lat="46.300550000" lon="7.422980000">
  <ele>1139.880000</ele>
  <time>2012-05-28T14:38:15Z</time>
</trkpt>
<trkpt lat="46.300560000" lon="7.422970000">
  <ele>1140.160030</ele>
  <time>2012-05-28T14:38:16Z</time>
</trkpt>
<trkpt lat="46.300640000" lon="7.422950000">
  <ele>1141.280030</ele>
  <time>2012-05-28T14:38:20Z</time>
</trkpt>
<trkpt lat="46.300650000" lon="7.422940000">
  <ele>1141.560060</ele>
  <time>2012-05-28T14:38:21Z</time>
</trkpt>
<trkpt lat="46.300660000" lon="7.422940000">
  <ele>1141.839970</ele>
  <time>2012-05-28T14:38:22Z</time>
</trkpt>
<trkpt lat="46.300690000" lon="7.422920000">
  <ele>1142.120000</ele>
  <time>2012-05-28T14:38:23Z</time>
</trkpt>
<trkpt lat="46.300700000" lon="7.422920000">
  <ele>1142.400020</ele>
  <time>2012-05-28T14:38:24Z</time>
</trkpt>
<trkpt lat="46.300770000" lon="7.422870000">
  <ele>1142.400020</ele>
  <time>2012-05-28T14:38:27Z</time>
</trkpt>
<trkpt lat="46.300900000" lon="7.422830000">
  <ele>1143.400020</ele>
  <time>2012-05-28T14:38:31Z</time>
</trkpt>
<trkpt lat="46.300920000" lon="7.422810000">
  <ele>1143.650020</ele>
  <time>2012-05-28T14:38:32Z</time>
</trkpt>
<trkpt lat="46.300950000" lon="7.422800000">
  <ele>1143.900020</ele>
  <time>2012-05-28T14:38:33Z</time>
</trkpt>
<trkpt lat="46.300970000" lon="7.422780000">
  <ele>1144.150020</ele>
  <time>2012-05-28T14:38:34Z</time>
</trkpt>
<trkpt lat="46.300990000" lon="7.422760000">
  <ele>1144.400020</ele>
  <time>2012-05-28T14:38:35Z</time>
</trkpt>
<trkpt lat="46.301030000" lon="7.422730000">
  <ele>1144.400020</ele>
  <time>2012-05-28T14:38:37Z</time>
</trkpt>
<trkpt lat="46.301070000" lon="7.422710000">
  <ele>1145.133300</ele>
  <time>2012-05-28T14:38:39Z</time>
</trkpt>
<trkpt lat="46.301100000" lon="7.422710000">
  <ele>1145.500000</ele>
  <time>2012-05-28T14:38:40Z</time>
</trkpt>
<trkpt lat="46.301120000" lon="7.422720000">
  <ele>1145.866700</ele>
  <time>2012-05-28T14:38:41Z</time>
</trkpt>
<trkpt lat="46.301140000" lon="7.422730000">
  <ele>1146.233280</ele>
  <time>2012-05-28T14:38:42Z</time>
</trkpt>
<trkpt lat="46.301170000" lon="7.422750000">
  <ele>1146.599980</ele>
  <time>2012-05-28T14:38:43Z</time>
</trkpt>
<trkpt lat="46.301180000" lon="7.422780000">
  <ele>1146.599980</ele>
  <time>2012-05-28T14:38:44Z</time>
</trkpt>
<trkpt lat="46.301200000" lon="7.422850000">
  <ele>1147.099980</ele>
  <time>2012-05-28T14:38:46Z</time>
</trkpt>
<trkpt lat="46.301200000" lon="7.422940000">
  <ele>1147.599980</ele>
  <time>2012-05-28T14:38:48Z</time>
</trkpt>
<trkpt lat="46.301210000" lon="7.422980000">
  <ele>1147.849980</ele>
  <time>2012-05-28T14:38:49Z</time>
</trkpt>
<trkpt lat="46.301210000" lon="7.423030000">
  <ele>1148.099980</ele>
  <time>2012-05-28T14:38:50Z</time>
</trkpt>
<trkpt lat="46.301220000" lon="7.423080000">
  <ele>1148.349980</ele>
  <time>2012-05-28T14:38:51Z</time>
</trkpt>
<trkpt lat="46.301230000" lon="7.423130000">
  <ele>1148.599980</ele>
  <time>2012-05-28T14:38:52Z</time>
</trkpt>
<trkpt lat="46.301310000" lon="7.423330000">
  <ele>1148.599980</ele>
  <time>2012-05-28T14:38:57Z</time>
</trkpt>
<trkpt lat="46.301360000" lon="7.423400000">
  <ele>1148.665160</ele>
  <time>2012-05-28T14:39:00Z</time>
</trkpt>
<trkpt lat="46.301430000" lon="7.423500000">
  <ele>1148.730470</ele>
  <time>2012-05-28T14:39:03Z</time>
</trkpt>
<trkpt lat="46.301500000" lon="7.423580000">
  <ele>1148.795650</ele>
  <time>2012-05-28T14:39:06Z</time>
</trkpt>
<trkpt lat="46.301540000" lon="7.423630000">
  <ele>1148.839110</ele>
  <time>2012-05-28T14:39:08Z</time>
</trkpt>
<trkpt lat="46.301560000" lon="7.423650000">
  <ele>1148.860840</ele>
  <time>2012-05-28T14:39:09Z</time>
</trkpt>
<trkpt lat="46.301720000" lon="7.423800000">
  <ele>1148.991330</ele>
  <time>2012-05-28T14:39:15Z</time>
</trkpt>
<trkpt lat="46.301880000" lon="7.423980000">
  <ele>1149.121700</ele>
  <time>2012-05-28T14:39:21Z</time>
</trkpt>
<trkpt lat="46.301910000" lon="7.424010000">
  <ele>1149.143430</ele>
  <time>2012-05-28T14:39:22Z</time>
</trkpt>
<trkpt lat="46.302000000" lon="7.424110000">
  <ele>1149.208620</ele>
  <time>2012-05-28T14:39:25Z</time>
</trkpt>
<trkpt lat="46.302020000" lon="7.424150000">
  <ele>1149.230470</ele>
  <time>2012-05-28T14:39:26Z</time>
</trkpt>
<trkpt lat="46.302080000" lon="7.424230000">
  <ele>1149.273930</ele>
  <time>2012-05-28T14:39:28Z</time>
</trkpt>
<trkpt lat="46.302100000" lon="7.424290000">
  <ele>1149.295650</ele>
  <time>2012-05-28T14:39:29Z</time>
</trkpt>
<trkpt lat="46.302120000" lon="7.424350000">
  <ele>1149.317380</ele>
  <time>2012-05-28T14:39:30Z</time>
</trkpt>
<trkpt lat="46.302140000" lon="7.424400000">
  <ele>1149.339110</ele>
  <time>2012-05-28T14:39:31Z</time>
</trkpt>
<trkpt lat="46.302160000" lon="7.424460000">
  <ele>1149.360840</ele>
  <time>2012-05-28T14:39:32Z</time>
</trkpt>
<trkpt lat="46.302180000" lon="7.424520000">
  <ele>1149.382570</ele>
  <time>2012-05-28T14:39:33Z</time>
</trkpt>
<trkpt lat="46.302200000" lon="7.424580000">
  <ele>1149.404300</ele>
  <time>2012-05-28T14:39:34Z</time>
</trkpt>
<trkpt lat="46.302230000" lon="7.424700000">
  <ele>1149.447750</ele>
  <time>2012-05-28T14:39:36Z</time>
</trkpt>
<trkpt lat="46.302280000" lon="7.424880000">
  <ele>1149.513060</ele>
  <time>2012-05-28T14:39:39Z</time>
</trkpt>
<trkpt lat="46.302340000" lon="7.424990000">
  <ele>1149.556520</ele>
  <time>2012-05-28T14:39:41Z</time>
</trkpt>
<trkpt lat="46.302400000" lon="7.425080000">
  <ele>1149.599980</ele>
  <time>2012-05-28T14:39:43Z</time>
</trkpt>
<trkpt lat="46.302480000" lon="7.425160000">
  <ele>1149.643430</ele>
  <time>2012-05-28T14:39:45Z</time>
</trkpt>
<trkpt lat="46.302600000" lon="7.425280000">
  <ele>1149.708620</ele>
  <time>2012-05-28T14:39:48Z</time>
</trkpt>
<trkpt lat="46.302640000" lon="7.425310000">
  <ele>1149.730470</ele>
  <time>2012-05-28T14:39:49Z</time>
</trkpt>
<trkpt lat="46.302780000" lon="7.425410000">
  <ele>1149.795650</ele>
  <time>2012-05-28T14:39:52Z</time>
</trkpt>
<trkpt lat="46.303040000" lon="7.425620000">
  <ele>1149.926030</ele>
  <time>2012-05-28T14:39:58Z</time>
</trkpt>
<trkpt lat="46.303070000" lon="7.425690000">
  <ele>1149.947750</ele>
  <time>2012-05-28T14:39:59Z</time>
</trkpt>
<trkpt lat="46.303150000" lon="7.425860000">
  <ele>1150.013060</ele>
  <time>2012-05-28T14:40:02Z</time>
</trkpt>
<trkpt lat="46.303180000" lon="7.425910000">
  <ele>1150.034790</ele>
  <time>2012-05-28T14:40:03Z</time>
</trkpt>
<trkpt lat="46.303230000" lon="7.426030000">
  <ele>1150.078250</ele>
  <time>2012-05-28T14:40:05Z</time>
</trkpt>
<trkpt lat="46.303400000" lon="7.426360000">
  <ele>1150.208620</ele>
  <time>2012-05-28T14:40:11Z</time>
</trkpt>
<trkpt lat="46.303420000" lon="7.426420000">
  <ele>1150.230470</ele>
  <time>2012-05-28T14:40:12Z</time>
</trkpt>
<trkpt lat="46.303590000" lon="7.426740000">
  <ele>1150.360840</ele>
  <time>2012-05-28T14:40:18Z</time>
</trkpt>
<trkpt lat="46.303790000" lon="7.427130000">
  <ele>1150.513060</ele>
  <time>2012-05-28T14:40:25Z</time>
</trkpt>
<trkpt lat="46.303820000" lon="7.427190000">
  <ele>1150.534790</ele>
  <time>2012-05-28T14:40:26Z</time>
</trkpt>
<trkpt lat="46.303850000" lon="7.427240000">
  <ele>1150.556520</ele>
  <time>2012-05-28T14:40:27Z</time>
</trkpt>
<trkpt lat="46.303880000" lon="7.427290000">
  <ele>1150.578250</ele>
  <time>2012-05-28T14:40:28Z</time>
</trkpt>
<trkpt lat="46.303920000" lon="7.427340000">
  <ele>1150.599980</ele>
  <time>2012-05-28T14:40:29Z</time>
</trkpt>
<trkpt lat="46.304020000" lon="7.427470000">
  <ele>1150.599980</ele>
  <time>2012-05-28T14:40:32Z</time>
</trkpt>
<trkpt lat="46.304060000" lon="7.427510000">
  <ele>1150.822140</ele>
  <time>2012-05-28T14:40:33Z</time>
</trkpt>
<trkpt lat="46.304130000" lon="7.427580000">
  <ele>1151.266600</ele>
  <time>2012-05-28T14:40:35Z</time>
</trkpt>
<trkpt lat="46.304210000" lon="7.427670000">
  <ele>1151.711060</ele>
  <time>2012-05-28T14:40:37Z</time>
</trkpt>
<trkpt lat="46.304240000" lon="7.427710000">
  <ele>1151.933350</ele>
  <time>2012-05-28T14:40:38Z</time>
</trkpt>
<trkpt lat="46.304270000" lon="7.427760000">
  <ele>1152.155520</ele>
  <time>2012-05-28T14:40:39Z</time>
</trkpt>
<trkpt lat="46.304310000" lon="7.427790000">
  <ele>1152.377810</ele>
  <time>2012-05-28T14:40:40Z</time>
</trkpt>
<trkpt lat="46.304340000" lon="7.427820000">
  <ele>1152.599980</ele>
  <time>2012-05-28T14:40:41Z</time>
</trkpt>
<trkpt lat="46.304420000" lon="7.427880000">
  <ele>1152.599980</ele>
  <time>2012-05-28T14:40:43Z</time>
</trkpt>
<trkpt lat="46.304530000" lon="7.427970000">
  <ele>1153.349980</ele>
  <time>2012-05-28T14:40:46Z</time>
</trkpt>
<trkpt lat="46.304570000" lon="7.428010000">
  <ele>1153.599980</ele>
  <time>2012-05-28T14:40:47Z</time>
</trkpt>
<trkpt lat="46.304600000" lon="7.428040000">
  <ele>1153.849980</ele>
  <time>2012-05-28T14:40:48Z</time>
</trkpt>
<trkpt lat="46.304640000" lon="7.428070000">
  <ele>1154.099980</ele>
  <time>2012-05-28T14:40:49Z</time>
</trkpt>
<trkpt lat="46.304680000" lon="7.428090000">
  <ele>1154.349980</ele>
  <time>2012-05-28T14:40:50Z</time>
</trkpt>
<trkpt lat="46.304710000" lon="7.428110000">
  <ele>1154.599980</ele>
  <time>2012-05-28T14:40:51Z</time>
</trkpt>
<trkpt lat="46.304820000" lon="7.428110000">
  <ele>1154.599980</ele>
  <time>2012-05-28T14:40:54Z</time>
</trkpt>
<trkpt lat="46.305000000" lon="7.428000000">
  <ele>1154.165160</ele>
  <time>2012-05-28T14:40:59Z</time>
</trkpt>
<trkpt lat="46.305040000" lon="7.427970000">
  <ele>1154.078250</ele>
  <time>2012-05-28T14:41:00Z</time>
</trkpt>
<trkpt lat="46.305210000" lon="7.427880000">
  <ele>1153.730470</ele>
  <time>2012-05-28T14:41:04Z</time>
</trkpt>
<trkpt lat="46.305410000" lon="7.427780000">
  <ele>1153.382570</ele>
  <time>2012-05-28T14:41:08Z</time>
</trkpt>
<trkpt lat="46.305470000" lon="7.427770000">
  <ele>1153.295650</ele>
  <time>2012-05-28T14:41:09Z</time>
</trkpt>
<trkpt lat="46.305640000" lon="7.427760000">
  <ele>1153.034790</ele>
  <time>2012-05-28T14:41:12Z</time>
</trkpt>
<trkpt lat="46.305710000" lon="7.427770000">
  <ele>1152.947750</ele>
  <time>2012-05-28T14:41:13Z</time>
</trkpt>
<trkpt lat="46.305770000" lon="7.427790000">
  <ele>1152.860840</ele>
  <time>2012-05-28T14:41:14Z</time>
</trkpt>
<trkpt lat="46.305830000" lon="7.427810000">
  <ele>1152.773930</ele>
  <time>2012-05-28T14:41:15Z</time>
</trkpt>
<trkpt lat="46.305890000" lon="7.427820000">
  <ele>1152.686890</ele>
  <time>2012-05-28T14:41:16Z</time>
</trkpt>
<trkpt lat="46.305950000" lon="7.427810000">
  <ele>1152.599980</ele>
  <time>2012-05-28T14:41:17Z</time>
</trkpt>
<trkpt lat="46.306020000" lon="7.427760000">
  <ele>1152.599980</ele>
  <time>2012-05-28T14:41:18Z</time>
</trkpt>
<trkpt lat="46.306070000" lon="7.427680000">
  <ele>1152.033330</ele>
  <time>2012-05-28T14:41:19Z</time>
</trkpt>
<trkpt lat="46.306110000" lon="7.427580000">
  <ele>1151.466670</ele>
  <time>2012-05-28T14:41:20Z</time>
</trkpt>
<trkpt lat="46.306140000" lon="7.427470000">
  <ele>1150.900020</ele>
  <time>2012-05-28T14:41:21Z</time>
</trkpt>
<trkpt lat="46.306180000" lon="7.427360000">
  <ele>1150.333370</ele>
  <time>2012-05-28T14:41:22Z</time>
</trkpt>
<trkpt lat="46.306220000" lon="7.427240000">
  <ele>1149.766720</ele>
  <time>2012-05-28T14:41:23Z</time>
</trkpt>
<trkpt lat="46.306260000" lon="7.427150000">
  <ele>1149.199950</ele>
  <time>2012-05-28T14:41:24Z</time>
</trkpt>
<trkpt lat="46.306300000" lon="7.427080000">
  <ele>1148.633300</ele>
  <time>2012-05-28T14:41:25Z</time>
</trkpt>
<trkpt lat="46.306340000" lon="7.427010000">
  <ele>1148.066650</ele>
  <time>2012-05-28T14:41:26Z</time>
</trkpt>
<trkpt lat="46.306380000" lon="7.426950000">
  <ele>1147.500000</ele>
  <time>2012-05-28T14:41:27Z</time>
</trkpt>
<trkpt lat="46.306440000" lon="7.426910000">
  <ele>1146.933350</ele>
  <time>2012-05-28T14:41:28Z</time>
</trkpt>
<trkpt lat="46.306490000" lon="7.426870000">
  <ele>1146.366700</ele>
  <time>2012-05-28T14:41:29Z</time>
</trkpt>
<trkpt lat="46.306550000" lon="7.426820000">
  <ele>1145.800050</ele>
  <time>2012-05-28T14:41:30Z</time>
</trkpt>
<trkpt lat="46.306760000" lon="7.426690000">
  <ele>1145.800050</ele>
  <time>2012-05-28T14:41:34Z</time>
</trkpt>
<trkpt lat="46.306810000" lon="7.426650000">
  <ele>1145.942870</ele>
  <time>2012-05-28T14:41:35Z</time>
</trkpt>
<trkpt lat="46.306950000" lon="7.426550000">
  <ele>1146.371460</ele>
  <time>2012-05-28T14:41:38Z</time>
</trkpt>
<trkpt lat="46.307050000" lon="7.426480000">
  <ele>1146.657230</ele>
  <time>2012-05-28T14:41:40Z</time>
</trkpt>
<trkpt lat="46.307090000" lon="7.426460000">
  <ele>1146.800050</ele>
  <time>2012-05-28T14:41:41Z</time>
</trkpt>
<trkpt lat="46.307150000" lon="7.426450000">
  <ele>1146.942870</ele>
  <time>2012-05-28T14:41:42Z</time>
</trkpt>
<trkpt lat="46.307250000" lon="7.426490000">
  <ele>1147.228640</ele>
  <time>2012-05-28T14:41:44Z</time>
</trkpt>
<trkpt lat="46.307300000" lon="7.426540000">
  <ele>1147.371460</ele>
  <time>2012-05-28T14:41:45Z</time>
</trkpt>
<trkpt lat="46.307340000" lon="7.426590000">
  <ele>1147.514280</ele>
  <time>2012-05-28T14:41:46Z</time>
</trkpt>
<trkpt lat="46.307350000" lon="7.426660000">
  <ele>1147.657230</ele>
  <time>2012-05-28T14:41:47Z</time>
</trkpt>
<trkpt lat="46.307360000" lon="7.426740000">
  <ele>1147.800050</ele>
  <time>2012-05-28T14:41:48Z</time>
</trkpt>
<trkpt lat="46.307340000" lon="7.426870000">
  <ele>1147.800050</ele>
  <time>2012-05-28T14:41:50Z</time>
</trkpt>
<trkpt lat="46.307330000" lon="7.426930000">
  <ele>1148.114380</ele>
  <time>2012-05-28T14:41:51Z</time>
</trkpt>
<trkpt lat="46.307310000" lon="7.427060000">
  <ele>1148.742920</ele>
  <time>2012-05-28T14:41:53Z</time>
</trkpt>
<trkpt lat="46.307300000" lon="7.427130000">
  <ele>1149.057130</ele>
  <time>2012-05-28T14:41:54Z</time>
</trkpt>
<trkpt lat="46.307300000" lon="7.427190000">
  <ele>1149.371460</ele>
  <time>2012-05-28T14:41:55Z</time>
</trkpt>
<trkpt lat="46.307290000" lon="7.427250000">
  <ele>1149.685670</ele>
  <time>2012-05-28T14:41:56Z</time>
</trkpt>
<trkpt lat="46.307280000" lon="7.427310000">
  <ele>1150.000000</ele>
  <time>2012-05-28T14:41:57Z</time>
</trkpt>
<trkpt lat="46.307280000" lon="7.427370000">
  <ele>1150.000000</ele>
  <time>2012-05-28T14:41:58Z</time>
</trkpt>
<trkpt lat="46.307270000" lon="7.427470000">
  <ele>1150.628540</ele>
  <time>2012-05-28T14:42:00Z</time>
</trkpt>
<trkpt lat="46.307260000" lon="7.427590000">
  <ele>1151.257080</ele>
  <time>2012-05-28T14:42:02Z</time>
</trkpt>
<trkpt lat="46.307270000" lon="7.427650000">
  <ele>1151.571410</ele>
  <time>2012-05-28T14:42:03Z</time>
</trkpt>
<trkpt lat="46.307260000" lon="7.427700000">
  <ele>1151.885620</ele>
  <time>2012-05-28T14:42:04Z</time>
</trkpt>
<trkpt lat="46.307260000" lon="7.427760000">
  <ele>1152.199950</ele>
  <time>2012-05-28T14:42:05Z</time>
</trkpt>
<trkpt lat="46.307270000" lon="7.427820000">
  <ele>1152.199950</ele>
  <time>2012-05-28T14:42:06Z</time>
</trkpt>
<trkpt lat="46.307240000" lon="7.428080000">
  <ele>1153.079960</ele>
  <time>2012-05-28T14:42:10Z</time>
</trkpt>
<trkpt lat="46.307220000" lon="7.428130000">
  <ele>1153.300050</ele>
  <time>2012-05-28T14:42:11Z</time>
</trkpt>
<trkpt lat="46.307220000" lon="7.428190000">
  <ele>1153.520020</ele>
  <time>2012-05-28T14:42:12Z</time>
</trkpt>
<trkpt lat="46.307210000" lon="7.428250000">
  <ele>1153.739990</ele>
  <time>2012-05-28T14:42:13Z</time>
</trkpt>
<trkpt lat="46.307200000" lon="7.428300000">
  <ele>1153.959960</ele>
  <time>2012-05-28T14:42:14Z</time>
</trkpt>
<trkpt lat="46.307190000" lon="7.428360000">
  <ele>1154.180050</ele>
  <time>2012-05-28T14:42:15Z</time>
</trkpt>
<trkpt lat="46.307170000" lon="7.428410000">
  <ele>1154.400020</ele>
  <time>2012-05-28T14:42:16Z</time>
</trkpt>
<trkpt lat="46.307170000" lon="7.428470000">
  <ele>1154.400020</ele>
  <time>2012-05-28T14:42:17Z</time>
</trkpt>
<trkpt lat="46.307150000" lon="7.428670000">
  <ele>1155.400020</ele>
  <time>2012-05-28T14:42:21Z</time>
</trkpt>
<trkpt lat="46.307160000" lon="7.428730000">
  <ele>1155.650020</ele>
  <time>2012-05-28T14:42:22Z</time>
</trkpt>
<trkpt lat="46.307160000" lon="7.428780000">
  <ele>1155.900020</ele>
  <time>2012-05-28T14:42:23Z</time>
</trkpt>
<trkpt lat="46.307170000" lon="7.428830000">
  <ele>1156.150020</ele>
  <time>2012-05-28T14:42:24Z</time>
</trkpt>
<trkpt lat="46.307180000" lon="7.428880000">
  <ele>1156.400020</ele>
  <time>2012-05-28T14:42:25Z</time>
</trkpt>
<trkpt lat="46.307210000" lon="7.429020000">
  <ele>1156.400020</ele>
  <time>2012-05-28T14:42:28Z</time>
</trkpt>
<trkpt lat="46.307220000" lon="7.429120000">
  <ele>1156.960080</ele>
  <time>2012-05-28T14:42:30Z</time>
</trkpt>
<trkpt lat="46.307220000" lon="7.429170000">
  <ele>1157.239990</ele>
  <time>2012-05-28T14:42:31Z</time>
</trkpt>
<trkpt lat="46.307220000" lon="7.429210000">
  <ele>1157.520020</ele>
  <time>2012-05-28T14:42:32Z</time>
</trkpt>
<trkpt lat="46.307210000" lon="7.429270000">
  <ele>1157.800050</ele>
  <time>2012-05-28T14:42:33Z</time>
</trkpt>
<trkpt lat="46.307210000" lon="7.429320000">
  <ele>1158.080080</ele>
  <time>2012-05-28T14:42:34Z</time>
</trkpt>
<trkpt lat="46.307190000" lon="7.429570000">
  <ele>1159.479980</ele>
  <time>2012-05-28T14:42:39Z</time>
</trkpt>
<trkpt lat="46.307190000" lon="7.429620000">
  <ele>1159.760010</ele>
  <time>2012-05-28T14:42:40Z</time>
</trkpt>
<trkpt lat="46.307190000" lon="7.429660000">
  <ele>1160.040040</ele>
  <time>2012-05-28T14:42:41Z</time>
</trkpt>
<trkpt lat="46.307190000" lon="7.429710000">
  <ele>1160.320070</ele>
  <time>2012-05-28T14:42:42Z</time>
</trkpt>
<trkpt lat="46.307190000" lon="7.429750000">
  <ele>1160.600100</ele>
  <time>2012-05-28T14:42:43Z</time>
</trkpt>
<trkpt lat="46.307220000" lon="7.429910000">
  <ele>1161.720090</ele>
  <time>2012-05-28T14:42:47Z</time>
</trkpt>
<trkpt lat="46.307240000" lon="7.429950000">
  <ele>1162.000000</ele>
  <time>2012-05-28T14:42:48Z</time>
</trkpt>
<trkpt lat="46.307270000" lon="7.429980000">
  <ele>1162.280030</ele>
  <time>2012-05-28T14:42:49Z</time>
</trkpt>
<trkpt lat="46.307290000" lon="7.430000000">
  <ele>1162.560060</ele>
  <time>2012-05-28T14:42:50Z</time>
</trkpt>
<trkpt lat="46.307330000" lon="7.430010000">
  <ele>1162.840090</ele>
  <time>2012-05-28T14:42:51Z</time>
</trkpt>
<trkpt lat="46.307420000" lon="7.430040000">
  <ele>1163.680050</ele>
  <time>2012-05-28T14:42:54Z</time>
</trkpt>
<trkpt lat="46.307450000" lon="7.430050000">
  <ele>1163.960080</ele>
  <time>2012-05-28T14:42:55Z</time>
</trkpt>
<trkpt lat="46.307470000" lon="7.430060000">
  <ele>1164.239990</ele>
  <time>2012-05-28T14:42:56Z</time>
</trkpt>
<trkpt lat="46.307500000" lon="7.430060000">
  <ele>1164.520020</ele>
  <time>2012-05-28T14:42:57Z</time>
</trkpt>
<trkpt lat="46.307530000" lon="7.430060000">
  <ele>1164.800050</ele>
  <time>2012-05-28T14:42:58Z</time>
</trkpt>
<trkpt lat="46.307560000" lon="7.430070000">
  <ele>1164.800050</ele>
  <time>2012-05-28T14:42:59Z</time>
</trkpt>
<trkpt lat="46.307680000" lon="7.430120000">
  <ele>1165.900020</ele>
  <time>2012-05-28T14:43:03Z</time>
</trkpt>
<trkpt lat="46.307700000" lon="7.430140000">
  <ele>1166.175050</ele>
  <time>2012-05-28T14:43:04Z</time>
</trkpt>
<trkpt lat="46.307710000" lon="7.430190000">
  <ele>1166.449950</ele>
  <time>2012-05-28T14:43:05Z</time>
</trkpt>
<trkpt lat="46.307740000" lon="7.430230000">
  <ele>1166.724980</ele>
  <time>2012-05-28T14:43:06Z</time>
</trkpt>
<trkpt lat="46.307750000" lon="7.430270000">
  <ele>1167.000000</ele>
  <time>2012-05-28T14:43:07Z</time>
</trkpt>
<trkpt lat="46.307780000" lon="7.430350000">
  <ele>1167.000000</ele>
  <time>2012-05-28T14:43:09Z</time>
</trkpt>
<trkpt lat="46.307800000" lon="7.430410000">
  <ele>1167.347410</ele>
  <time>2012-05-28T14:43:10Z</time>
</trkpt>
<trkpt lat="46.307810000" lon="7.430450000">
  <ele>1167.694700</ele>
  <time>2012-05-28T14:43:11Z</time>
</trkpt>
<trkpt lat="46.307820000" lon="7.430470000">
  <ele>1168.042110</ele>
  <time>2012-05-28T14:43:12Z</time>
</trkpt>
<trkpt lat="46.307830000" lon="7.430510000">
  <ele>1168.389530</ele>
  <time>2012-05-28T14:43:13Z</time>
</trkpt>
<trkpt lat="46.307850000" lon="7.430540000">
  <ele>1168.736820</ele>
  <time>2012-05-28T14:43:14Z</time>
</trkpt>
<trkpt lat="46.307900000" lon="7.430600000">
  <ele>1169.431520</ele>
  <time>2012-05-28T14:43:16Z</time>
</trkpt>
<trkpt lat="46.307910000" lon="7.430620000">
  <ele>1169.778930</ele>
  <time>2012-05-28T14:43:17Z</time>
</trkpt>
<trkpt lat="46.307940000" lon="7.430640000">
  <ele>1170.126340</ele>
  <time>2012-05-28T14:43:18Z</time>
</trkpt>
<trkpt lat="46.307960000" lon="7.430670000">
  <ele>1170.473630</ele>
  <time>2012-05-28T14:43:19Z</time>
</trkpt>
<trkpt lat="46.308060000" lon="7.430790000">
  <ele>1172.210450</ele>
  <time>2012-05-28T14:43:24Z</time>
</trkpt>
<trkpt lat="46.308090000" lon="7.430810000">
  <ele>1172.557860</ele>
  <time>2012-05-28T14:43:25Z</time>
</trkpt>
<trkpt lat="46.308130000" lon="7.430820000">
  <ele>1172.905270</ele>
  <time>2012-05-28T14:43:26Z</time>
</trkpt>
<trkpt lat="46.308170000" lon="7.430820000">
  <ele>1173.252560</ele>
  <time>2012-05-28T14:43:27Z</time>
</trkpt>
<trkpt lat="46.308200000" lon="7.430830000">
  <ele>1173.599980</ele>
  <time>2012-05-28T14:43:28Z</time>
</trkpt>
<trkpt lat="46.308240000" lon="7.430840000">
  <ele>1173.599980</ele>
  <time>2012-05-28T14:43:29Z</time>
</trkpt>
<trkpt lat="46.308290000" lon="7.430870000">
  <ele>1174.199950</ele>
  <time>2012-05-28T14:43:31Z</time>
</trkpt>
<trkpt lat="46.308350000" lon="7.430880000">
  <ele>1174.800050</ele>
  <time>2012-05-28T14:43:33Z</time>
</trkpt>
<trkpt lat="46.308380000" lon="7.430880000">
  <ele>1175.099980</ele>
  <time>2012-05-28T14:43:34Z</time>
</trkpt>
<trkpt lat="46.308410000" lon="7.430880000">
  <ele>1175.400020</ele>
  <time>2012-05-28T14:43:35Z</time>
</trkpt>
<trkpt lat="46.308440000" lon="7.430880000">
  <ele>1175.699950</ele>
  <time>2012-05-28T14:43:36Z</time>
</trkpt>
<trkpt lat="46.308480000" lon="7.430890000">
  <ele>1176.000000</ele>
  <time>2012-05-28T14:43:37Z</time>
</trkpt>
<trkpt lat="46.308550000" lon="7.430900000">
  <ele>1176.900020</ele>
  <time>2012-05-28T14:43:40Z</time>
</trkpt>
<trkpt lat="46.308570000" lon="7.430920000">
  <ele>1177.200070</ele>
  <time>2012-05-28T14:43:41Z</time>
</trkpt>
<trkpt lat="46.308590000" lon="7.430930000">
  <ele>1177.500000</ele>
  <time>2012-05-28T14:43:42Z</time>
</trkpt>
<trkpt lat="46.308620000" lon="7.430940000">
  <ele>1177.800050</ele>
  <time>2012-05-28T14:43:43Z</time>
</trkpt>
<trkpt lat="46.308690000" lon="7.430990000">
  <ele>1177.800050</ele>
  <time>2012-05-28T14:43:46Z</time>
</trkpt>
<trkpt lat="46.308730000" lon="7.431010000">
  <ele>1178.533330</ele>
  <time>2012-05-28T14:43:48Z</time>
</trkpt>
<trkpt lat="46.308750000" lon="7.431020000">
  <ele>1178.900020</ele>
  <time>2012-05-28T14:43:49Z</time>
</trkpt>
<trkpt lat="46.308780000" lon="7.431040000">
  <ele>1179.266720</ele>
  <time>2012-05-28T14:43:50Z</time>
</trkpt>
<trkpt lat="46.308800000" lon="7.431050000">
  <ele>1179.633300</ele>
  <time>2012-05-28T14:43:51Z</time>
</trkpt>
<trkpt lat="46.308810000" lon="7.431060000">
  <ele>1180.000000</ele>
  <time>2012-05-28T14:43:52Z</time>
</trkpt>
<trkpt lat="46.308860000" lon="7.431110000">
  <ele>1180.000000</ele>
  <time>2012-05-28T14:43:55Z</time>
</trkpt>
<trkpt lat="46.308870000" lon="7.431130000">
  <ele>1180.646120</ele>
  <time>2012-05-28T14:43:57Z</time>
</trkpt>
<trkpt lat="46.308870000" lon="7.431150000">
  <ele>1180.969240</ele>
  <time>2012-05-28T14:43:58Z</time>
</trkpt>
<trkpt lat="46.308880000" lon="7.431170000">
  <ele>1181.292240</ele>
  <time>2012-05-28T14:43:59Z</time>
</trkpt>
<trkpt lat="46.308900000" lon="7.431190000">
  <ele>1181.615360</ele>
  <time>2012-05-28T14:44:00Z</time>
</trkpt>
<trkpt lat="46.308920000" lon="7.431210000">
  <ele>1181.938480</ele>
  <time>2012-05-28T14:44:01Z</time>
</trkpt>
<trkpt lat="46.308980000" lon="7.431270000">
  <ele>1183.230710</ele>
  <time>2012-05-28T14:44:05Z</time>
</trkpt>
<trkpt lat="46.308990000" lon="7.431270000">
  <ele>1183.553830</ele>
  <time>2012-05-28T14:44:06Z</time>
</trkpt>
<trkpt lat="46.309020000" lon="7.431280000">
  <ele>1183.876830</ele>
  <time>2012-05-28T14:44:07Z</time>
</trkpt>
<trkpt lat="46.309030000" lon="7.431290000">
  <ele>1184.199950</ele>
  <time>2012-05-28T14:44:08Z</time>
</trkpt>
<trkpt lat="46.309090000" lon="7.431350000">
  <ele>1184.199950</ele>
  <time>2012-05-28T14:44:12Z</time>
</trkpt>
<trkpt lat="46.309120000" lon="7.431370000">
  <ele>1184.885620</ele>
  <time>2012-05-28T14:44:14Z</time>
</trkpt>
<trkpt lat="46.309140000" lon="7.431380000">
  <ele>1185.228520</ele>
  <time>2012-05-28T14:44:15Z</time>
</trkpt>
<trkpt lat="46.309160000" lon="7.431390000">
  <ele>1185.571410</ele>
  <time>2012-05-28T14:44:16Z</time>
</trkpt>
<trkpt lat="46.309190000" lon="7.431400000">
  <ele>1185.914310</ele>
  <time>2012-05-28T14:44:17Z</time>
</trkpt>
<trkpt lat="46.309220000" lon="7.431390000">
  <ele>1186.257080</ele>
  <time>2012-05-28T14:44:18Z</time>
</trkpt>
<trkpt lat="46.309240000" lon="7.431400000">
  <ele>1186.599980</ele>
  <time>2012-05-28T14:44:19Z</time>
</trkpt>
<trkpt lat="46.309280000" lon="7.431390000">
  <ele>1186.599980</ele>
  <time>2012-05-28T14:44:22Z</time>
</trkpt>
<trkpt lat="46.309340000" lon="7.431400000">
  <ele>1187.542850</ele>
  <time>2012-05-28T14:44:25Z</time>
</trkpt>
<trkpt lat="46.309360000" lon="7.431400000">
  <ele>1187.857180</ele>
  <time>2012-05-28T14:44:26Z</time>
</trkpt>
<trkpt lat="46.309380000" lon="7.431390000">
  <ele>1188.171510</ele>
  <time>2012-05-28T14:44:27Z</time>
</trkpt>
<trkpt lat="46.309410000" lon="7.431380000">
  <ele>1188.485720</ele>
  <time>2012-05-28T14:44:28Z</time>
</trkpt>
<trkpt lat="46.309430000" lon="7.431380000">
  <ele>1188.800050</ele>
  <time>2012-05-28T14:44:29Z</time>
</trkpt>
<trkpt lat="46.309520000" lon="7.431380000">
  <ele>1188.800050</ele>
  <time>2012-05-28T14:44:34Z</time>
</trkpt>
<trkpt lat="46.309540000" lon="7.431390000">
  <ele>1189.200070</ele>
  <time>2012-05-28T14:44:35Z</time>
</trkpt>
<trkpt lat="46.309550000" lon="7.431390000">
  <ele>1189.600100</ele>
  <time>2012-05-28T14:44:36Z</time>
</trkpt>
<trkpt lat="46.309570000" lon="7.431400000">
  <ele>1190.000000</ele>
  <time>2012-05-28T14:44:37Z</time>
</trkpt>
<trkpt lat="46.309590000" lon="7.431400000">
  <ele>1190.400020</ele>
  <time>2012-05-28T14:44:38Z</time>
</trkpt>
<trkpt lat="46.309620000" lon="7.431410000">
  <ele>1190.800050</ele>
  <time>2012-05-28T14:44:39Z</time>
</trkpt>
<trkpt lat="46.309650000" lon="7.431420000">
  <ele>1190.800050</ele>
  <time>2012-05-28T14:44:40Z</time>
</trkpt>
<trkpt lat="46.309750000" lon="7.431450000">
  <ele>1191.688960</ele>
  <time>2012-05-28T14:44:44Z</time>
</trkpt>
<trkpt lat="46.309760000" lon="7.431470000">
  <ele>1191.911130</ele>
  <time>2012-05-28T14:44:45Z</time>
</trkpt>
<trkpt lat="46.309790000" lon="7.431480000">
  <ele>1192.133420</ele>
  <time>2012-05-28T14:44:46Z</time>
</trkpt>
<trkpt lat="46.309810000" lon="7.431510000">
  <ele>1192.355590</ele>
  <time>2012-05-28T14:44:47Z</time>
</trkpt>
<trkpt lat="46.309830000" lon="7.431530000">
  <ele>1192.577880</ele>
  <time>2012-05-28T14:44:48Z</time>
</trkpt>
<trkpt lat="46.309850000" lon="7.431550000">
  <ele>1192.800050</ele>
  <time>2012-05-28T14:44:49Z</time>
</trkpt>
<trkpt lat="46.309890000" lon="7.431570000">
  <ele>1192.800050</ele>
  <time>2012-05-28T14:44:50Z</time>
</trkpt>
<trkpt lat="46.310010000" lon="7.431690000">
  <ele>1193.900020</ele>
  <time>2012-05-28T14:44:54Z</time>
</trkpt>
<trkpt lat="46.310050000" lon="7.431730000">
  <ele>1194.175050</ele>
  <time>2012-05-28T14:44:55Z</time>
</trkpt>
<trkpt lat="46.310080000" lon="7.431770000">
  <ele>1194.449950</ele>
  <time>2012-05-28T14:44:56Z</time>
</trkpt>
<trkpt lat="46.310100000" lon="7.431810000">
  <ele>1194.724980</ele>
  <time>2012-05-28T14:44:57Z</time>
</trkpt>
<trkpt lat="46.310120000" lon="7.431840000">
  <ele>1195.000000</ele>
  <time>2012-05-28T14:44:58Z</time>
</trkpt>
<trkpt lat="46.310140000" lon="7.431890000">
  <ele>1195.000000</ele>
  <time>2012-05-28T14:45:00Z</time>
</trkpt>
<trkpt lat="46.310170000" lon="7.431960000">
  <ele>1195.525020</ele>
  <time>2012-05-28T14:45:02Z</time>
</trkpt>
<trkpt lat="46.310180000" lon="7.431980000">
  <ele>1195.787480</ele>
  <time>2012-05-28T14:45:03Z</time>
</trkpt>
<trkpt lat="46.310210000" lon="7.432010000">
  <ele>1196.050050</ele>
  <time>2012-05-28T14:45:04Z</time>
</trkpt>
<trkpt lat="46.310240000" lon="7.432040000">
  <ele>1196.312500</ele>
  <time>2012-05-28T14:45:05Z</time>
</trkpt>
<trkpt lat="46.310270000" lon="7.432060000">
  <ele>1196.574950</ele>
  <time>2012-05-28T14:45:06Z</time>
</trkpt>
<trkpt lat="46.310400000" lon="7.432180000">
  <ele>1198.149900</ele>
  <time>2012-05-28T14:45:12Z</time>
</trkpt>
<trkpt lat="46.310410000" lon="7.432190000">
  <ele>1198.412480</ele>
  <time>2012-05-28T14:45:13Z</time>
</trkpt>
<trkpt lat="46.310420000" lon="7.432200000">
  <ele>1198.674930</ele>
  <time>2012-05-28T14:45:14Z</time>
</trkpt>
<trkpt lat="46.310440000" lon="7.432220000">
  <ele>1198.937500</ele>
  <time>2012-05-28T14:45:15Z</time>
</trkpt>
<trkpt lat="46.310450000" lon="7.432250000">
  <ele>1199.199950</ele>
  <time>2012-05-28T14:45:16Z</time>
</trkpt>
<trkpt lat="46.310470000" lon="7.432310000">
  <ele>1199.199950</ele>
  <time>2012-05-28T14:45:18Z</time>
</trkpt>
<trkpt lat="46.310490000" lon="7.432410000">
  <ele>1200.142820</ele>
  <time>2012-05-28T14:45:21Z</time>
</trkpt>
<trkpt lat="46.310490000" lon="7.432440000">
  <ele>1200.457150</ele>
  <time>2012-05-28T14:45:22Z</time>
</trkpt>
<trkpt lat="46.310490000" lon="7.432470000">
  <ele>1200.771480</ele>
  <time>2012-05-28T14:45:23Z</time>
</trkpt>
<trkpt lat="46.310490000" lon="7.432500000">
  <ele>1201.085690</ele>
  <time>2012-05-28T14:45:24Z</time>
</trkpt>
<trkpt lat="46.310490000" lon="7.432540000">
  <ele>1201.400020</ele>
  <time>2012-05-28T14:45:25Z</time>
</trkpt>
<trkpt lat="46.310500000" lon="7.432680000">
  <ele>1201.400020</ele>
  <time>2012-05-28T14:45:29Z</time>
</trkpt>
<trkpt lat="46.310490000" lon="7.432740000">
  <ele>1202.066650</ele>
  <time>2012-05-28T14:45:31Z</time>
</trkpt>
<trkpt lat="46.310490000" lon="7.432770000">
  <ele>1202.400020</ele>
  <time>2012-05-28T14:45:32Z</time>
</trkpt>
<trkpt lat="46.310490000" lon="7.432800000">
  <ele>1202.733400</ele>
  <time>2012-05-28T14:45:33Z</time>
</trkpt>
<trkpt lat="46.310490000" lon="7.432830000">
  <ele>1203.066650</ele>
  <time>2012-05-28T14:45:34Z</time>
</trkpt>
<trkpt lat="46.310500000" lon="7.432870000">
  <ele>1203.400020</ele>
  <time>2012-05-28T14:45:35Z</time>
</trkpt>
<trkpt lat="46.310510000" lon="7.432930000">
  <ele>1203.400020</ele>
  <time>2012-05-28T14:45:37Z</time>
</trkpt>
<trkpt lat="46.310540000" lon="7.433040000">
  <ele>1204.224980</ele>
  <time>2012-05-28T14:45:40Z</time>
</trkpt>
<trkpt lat="46.310550000" lon="7.433070000">
  <ele>1204.500000</ele>
  <time>2012-05-28T14:45:41Z</time>
</trkpt>
<trkpt lat="46.310570000" lon="7.433090000">
  <ele>1204.775020</ele>
  <time>2012-05-28T14:45:42Z</time>
</trkpt>
<trkpt lat="46.310590000" lon="7.433120000">
  <ele>1205.050050</ele>
  <time>2012-05-28T14:45:43Z</time>
</trkpt>
<trkpt lat="46.310600000" lon="7.433150000">
  <ele>1205.325070</ele>
  <time>2012-05-28T14:45:44Z</time>
</trkpt>
<trkpt lat="46.310690000" lon="7.433270000">
  <ele>1206.700070</ele>
  <time>2012-05-28T14:45:49Z</time>
</trkpt>
<trkpt lat="46.310710000" lon="7.433300000">
  <ele>1206.975100</ele>
  <time>2012-05-28T14:45:50Z</time>
</trkpt>
<trkpt lat="46.310730000" lon="7.433320000">
  <ele>1207.250000</ele>
  <time>2012-05-28T14:45:51Z</time>
</trkpt>
<trkpt lat="46.310750000" lon="7.433340000">
  <ele>1207.525020</ele>
  <time>2012-05-28T14:45:52Z</time>
</trkpt>
<trkpt lat="46.310770000" lon="7.433350000">
  <ele>1207.800050</ele>
  <time>2012-05-28T14:45:53Z</time>
</trkpt>
<trkpt lat="46.310830000" lon="7.433400000">
  <ele>1207.800050</ele>
  <time>2012-05-28T14:45:56Z</time>
</trkpt>
<trkpt lat="46.310930000" lon="7.433430000">
  <ele>1208.911130</ele>
  <time>2012-05-28T14:46:01Z</time>
</trkpt>
<trkpt lat="46.310950000" lon="7.433440000">
  <ele>1209.133420</ele>
  <time>2012-05-28T14:46:02Z</time>
</trkpt>
<trkpt lat="46.310970000" lon="7.433450000">
  <ele>1209.355590</ele>
  <time>2012-05-28T14:46:03Z</time>
</trkpt>
<trkpt lat="46.310990000" lon="7.433460000">
  <ele>1209.577880</ele>
  <time>2012-05-28T14:46:04Z</time>
</trkpt>
<trkpt lat="46.311010000" lon="7.433460000">
  <ele>1209.800050</ele>
  <time>2012-05-28T14:46:05Z</time>
</trkpt>
<trkpt lat="46.311080000" lon="7.433470000">
  <ele>1209.800050</ele>
  <time>2012-05-28T14:46:08Z</time>
</trkpt>
<trkpt lat="46.311160000" lon="7.433490000">
  <ele>1210.900020</ele>
  <time>2012-05-28T14:46:11Z</time>
</trkpt>
<trkpt lat="46.311180000" lon="7.433500000">
  <ele>1211.266720</ele>
  <time>2012-05-28T14:46:12Z</time>
</trkpt>
<trkpt lat="46.311200000" lon="7.433500000">
  <ele>1211.633300</ele>
  <time>2012-05-28T14:46:13Z</time>
</trkpt>
<trkpt lat="46.311230000" lon="7.433510000">
  <ele>1212.000000</ele>
  <time>2012-05-28T14:46:14Z</time>
</trkpt>
<trkpt lat="46.311240000" lon="7.433520000">
  <ele>1212.000000</ele>
  <time>2012-05-28T14:46:15Z</time>
</trkpt>
<trkpt lat="46.311360000" lon="7.433580000">
  <ele>1213.333370</ele>
  <time>2012-05-28T14:46:20Z</time>
</trkpt>
<trkpt lat="46.311380000" lon="7.433590000">
  <ele>1213.599980</ele>
  <time>2012-05-28T14:46:21Z</time>
</trkpt>
<trkpt lat="46.311400000" lon="7.433610000">
  <ele>1213.866700</ele>
  <time>2012-05-28T14:46:22Z</time>
</trkpt>
<trkpt lat="46.311420000" lon="7.433620000">
  <ele>1214.133300</ele>
  <time>2012-05-28T14:46:23Z</time>
</trkpt>
<trkpt lat="46.311440000" lon="7.433630000">
  <ele>1214.400020</ele>
  <time>2012-05-28T14:46:24Z</time>
</trkpt>
<trkpt lat="46.311540000" lon="7.433650000">
  <ele>1214.400020</ele>
  <time>2012-05-28T14:46:28Z</time>
</trkpt>
<trkpt lat="46.311570000" lon="7.433660000">
  <ele>1214.839970</ele>
  <time>2012-05-28T14:46:29Z</time>
</trkpt>
<trkpt lat="46.311590000" lon="7.433660000">
  <ele>1215.280030</ele>
  <time>2012-05-28T14:46:30Z</time>
</trkpt>
<trkpt lat="46.311610000" lon="7.433670000">
  <ele>1215.719970</ele>
  <time>2012-05-28T14:46:31Z</time>
</trkpt>
<trkpt lat="46.311640000" lon="7.433670000">
  <ele>1216.160030</ele>
  <time>2012-05-28T14:46:32Z</time>
</trkpt>
<trkpt lat="46.311660000" lon="7.433670000">
  <ele>1216.599980</ele>
  <time>2012-05-28T14:46:33Z</time>
</trkpt>
<trkpt lat="46.311730000" lon="7.433660000">
  <ele>1216.599980</ele>
  <time>2012-05-28T14:46:36Z</time>
</trkpt>
<trkpt lat="46.311800000" lon="7.433680000">
  <ele>1217.408690</ele>
  <time>2012-05-28T14:46:39Z</time>
</trkpt>
<trkpt lat="46.311830000" lon="7.433690000">
  <ele>1217.678220</ele>
  <time>2012-05-28T14:46:40Z</time>
</trkpt>
<trkpt lat="46.311860000" lon="7.433700000">
  <ele>1217.947880</ele>
  <time>2012-05-28T14:46:41Z</time>
</trkpt>
<trkpt lat="46.311870000" lon="7.433720000">
  <ele>1218.217410</ele>
  <time>2012-05-28T14:46:42Z</time>
</trkpt>
<trkpt lat="46.311900000" lon="7.433740000">
  <ele>1218.486940</ele>
  <time>2012-05-28T14:46:43Z</time>
</trkpt>
<trkpt lat="46.311960000" lon="7.433870000">
  <ele>1219.834840</ele>
  <time>2012-05-28T14:46:48Z</time>
</trkpt>
<trkpt lat="46.311970000" lon="7.433900000">
  <ele>1220.104370</ele>
  <time>2012-05-28T14:46:49Z</time>
</trkpt>
<trkpt lat="46.311980000" lon="7.433940000">
  <ele>1220.373900</ele>
  <time>2012-05-28T14:46:50Z</time>
</trkpt>
<trkpt lat="46.311990000" lon="7.433970000">
  <ele>1220.643550</ele>
  <time>2012-05-28T14:46:51Z</time>
</trkpt>
<trkpt lat="46.312000000" lon="7.433990000">
  <ele>1220.913090</ele>
  <time>2012-05-28T14:46:52Z</time>
</trkpt>
<trkpt lat="46.312030000" lon="7.434090000">
  <ele>1221.721800</ele>
  <time>2012-05-28T14:46:55Z</time>
</trkpt>
<trkpt lat="46.312030000" lon="7.434120000">
  <ele>1221.991330</ele>
  <time>2012-05-28T14:46:56Z</time>
</trkpt>
<trkpt lat="46.312040000" lon="7.434140000">
  <ele>1222.260860</ele>
  <time>2012-05-28T14:46:57Z</time>
</trkpt>
<trkpt lat="46.312050000" lon="7.434180000">
  <ele>1222.530520</ele>
  <time>2012-05-28T14:46:58Z</time>
</trkpt>
<trkpt lat="46.312080000" lon="7.434190000">
  <ele>1222.800050</ele>
  <time>2012-05-28T14:46:59Z</time>
</trkpt>
<trkpt lat="46.312100000" lon="7.434210000">
  <ele>1222.800050</ele>
  <time>2012-05-28T14:47:00Z</time>
</trkpt>
<trkpt lat="46.312170000" lon="7.434290000">
  <ele>1223.657230</ele>
  <time>2012-05-28T14:47:03Z</time>
</trkpt>
<trkpt lat="46.312190000" lon="7.434310000">
  <ele>1223.942870</ele>
  <time>2012-05-28T14:47:04Z</time>
</trkpt>
<trkpt lat="46.312210000" lon="7.434320000">
  <ele>1224.228640</ele>
  <time>2012-05-28T14:47:05Z</time>
</trkpt>
<trkpt lat="46.312220000" lon="7.434340000">
  <ele>1224.514280</ele>
  <time>2012-05-28T14:47:06Z</time>
</trkpt>
<trkpt lat="46.312240000" lon="7.434350000">
  <ele>1224.800050</ele>
  <time>2012-05-28T14:47:07Z</time>
</trkpt>
<trkpt lat="46.312350000" lon="7.434430000">
  <ele>1224.800050</ele>
  <time>2012-05-28T14:47:12Z</time>
</trkpt>
<trkpt lat="46.312390000" lon="7.434460000">
  <ele>1225.533330</ele>
  <time>2012-05-28T14:47:14Z</time>
</trkpt>
<trkpt lat="46.312410000" lon="7.434480000">
  <ele>1225.900020</ele>
  <time>2012-05-28T14:47:15Z</time>
</trkpt>
<trkpt lat="46.312430000" lon="7.434500000">
  <ele>1226.266720</ele>
  <time>2012-05-28T14:47:16Z</time>
</trkpt>
<trkpt lat="46.312450000" lon="7.434510000">
  <ele>1226.633300</ele>
  <time>2012-05-28T14:47:17Z</time>
</trkpt>
<trkpt lat="46.312470000" lon="7.434520000">
  <ele>1227.000000</ele>
  <time>2012-05-28T14:47:18Z</time>
</trkpt>
<trkpt lat="46.312490000" lon="7.434540000">
  <ele>1227.000000</ele>
  <time>2012-05-28T14:47:19Z</time>
</trkpt>
<trkpt lat="46.312570000" lon="7.434650000">
  <ele>1228.235230</ele>
  <time>2012-05-28T14:47:24Z</time>
</trkpt>
<trkpt lat="46.312590000" lon="7.434670000">
  <ele>1228.482300</ele>
  <time>2012-05-28T14:47:25Z</time>
</trkpt>
<trkpt lat="46.312610000" lon="7.434700000">
  <ele>1228.729370</ele>
  <time>2012-05-28T14:47:26Z</time>
</trkpt>
<trkpt lat="46.312620000" lon="7.434730000">
  <ele>1228.976440</ele>
  <time>2012-05-28T14:47:27Z</time>
</trkpt>
<trkpt lat="46.312730000" lon="7.434830000">
  <ele>1230.211670</ele>
  <time>2012-05-28T14:47:32Z</time>
</trkpt>
<trkpt lat="46.312760000" lon="7.434850000">
  <ele>1230.458740</ele>
  <time>2012-05-28T14:47:33Z</time>
</trkpt>
<trkpt lat="46.312770000" lon="7.434860000">
  <ele>1230.705810</ele>
  <time>2012-05-28T14:47:34Z</time>
</trkpt>
<trkpt lat="46.312780000" lon="7.434870000">
  <ele>1230.952880</ele>
  <time>2012-05-28T14:47:35Z</time>
</trkpt>
<trkpt lat="46.312790000" lon="7.434870000">
  <ele>1231.199950</ele>
  <time>2012-05-28T14:47:36Z</time>
</trkpt>
<trkpt lat="46.312900000" lon="7.434840000">
  <ele>1231.199950</ele>
  <time>2012-05-28T14:47:40Z</time>
</trkpt>
<trkpt lat="46.312950000" lon="7.434830000">
  <ele>1231.750000</ele>
  <time>2012-05-28T14:47:42Z</time>
</trkpt>
<trkpt lat="46.312980000" lon="7.434820000">
  <ele>1232.024900</ele>
  <time>2012-05-28T14:47:43Z</time>
</trkpt>
<trkpt lat="46.313000000" lon="7.434820000">
  <ele>1232.299930</ele>
  <time>2012-05-28T14:47:44Z</time>
</trkpt>
<trkpt lat="46.313010000" lon="7.434820000">
  <ele>1232.574950</ele>
  <time>2012-05-28T14:47:45Z</time>
</trkpt>
<trkpt lat="46.313040000" lon="7.434820000">
  <ele>1232.849980</ele>
  <time>2012-05-28T14:47:46Z</time>
</trkpt>
<trkpt lat="46.313180000" lon="7.434880000">
  <ele>1234.500000</ele>
  <time>2012-05-28T14:47:52Z</time>
</trkpt>
<trkpt lat="46.313210000" lon="7.434900000">
  <ele>1234.775020</ele>
  <time>2012-05-28T14:47:53Z</time>
</trkpt>
<trkpt lat="46.313230000" lon="7.434910000">
  <ele>1235.049930</ele>
  <time>2012-05-28T14:47:54Z</time>
</trkpt>
<trkpt lat="46.313250000" lon="7.434930000">
  <ele>1235.324950</ele>
  <time>2012-05-28T14:47:55Z</time>
</trkpt>
<trkpt lat="46.313280000" lon="7.434940000">
  <ele>1235.599980</ele>
  <time>2012-05-28T14:47:56Z</time>
</trkpt>
<trkpt lat="46.313350000" lon="7.434990000">
  <ele>1235.599980</ele>
  <time>2012-05-28T14:47:59Z</time>
</trkpt>
<trkpt lat="46.313370000" lon="7.435000000">
  <ele>1236.040040</ele>
  <time>2012-05-28T14:48:00Z</time>
</trkpt>
<trkpt lat="46.313400000" lon="7.435000000">
  <ele>1236.479980</ele>
  <time>2012-05-28T14:48:01Z</time>
</trkpt>
<trkpt lat="46.313420000" lon="7.435020000">
  <ele>1236.920040</ele>
  <time>2012-05-28T14:48:02Z</time>
</trkpt>
<trkpt lat="46.313450000" lon="7.435020000">
  <ele>1237.359990</ele>
  <time>2012-05-28T14:48:03Z</time>
</trkpt>
<trkpt lat="46.313470000" lon="7.435020000">
  <ele>1237.800050</ele>
  <time>2012-05-28T14:48:04Z</time>
</trkpt>
<trkpt lat="46.313490000" lon="7.435030000">
  <ele>1237.800050</ele>
  <time>2012-05-28T14:48:05Z</time>
</trkpt>
<trkpt lat="46.313610000" lon="7.435040000">
  <ele>1239.000000</ele>
  <time>2012-05-28T14:48:10Z</time>
</trkpt>
<trkpt lat="46.313660000" lon="7.435050000">
  <ele>1239.479980</ele>
  <time>2012-05-28T14:48:12Z</time>
</trkpt>
<trkpt lat="46.313690000" lon="7.435060000">
  <ele>1239.719970</ele>
  <time>2012-05-28T14:48:13Z</time>
</trkpt>
<trkpt lat="46.313710000" lon="7.435070000">
  <ele>1239.959960</ele>
  <time>2012-05-28T14:48:14Z</time>
</trkpt>
<trkpt lat="46.313730000" lon="7.435100000">
  <ele>1240.199950</ele>
  <time>2012-05-28T14:48:15Z</time>
</trkpt>
<trkpt lat="46.313750000" lon="7.435120000">
  <ele>1240.199950</ele>
  <time>2012-05-28T14:48:16Z</time>
</trkpt>
<trkpt lat="46.313780000" lon="7.435190000">
  <ele>1240.771360</ele>
  <time>2012-05-28T14:48:18Z</time>
</trkpt>
<trkpt lat="46.313780000" lon="7.435220000">
  <ele>1241.057130</ele>
  <time>2012-05-28T14:48:19Z</time>
</trkpt>
<trkpt lat="46.313790000" lon="7.435250000">
  <ele>1241.342770</ele>
  <time>2012-05-28T14:48:20Z</time>
</trkpt>
<trkpt lat="46.313800000" lon="7.435280000">
  <ele>1241.628540</ele>
  <time>2012-05-28T14:48:21Z</time>
</trkpt>
<trkpt lat="46.313810000" lon="7.435310000">
  <ele>1241.914180</ele>
  <time>2012-05-28T14:48:22Z</time>
</trkpt>
<trkpt lat="46.313850000" lon="7.435420000">
  <ele>1243.057130</ele>
  <time>2012-05-28T14:48:26Z</time>
</trkpt>
<trkpt lat="46.313870000" lon="7.435450000">
  <ele>1243.342770</ele>
  <time>2012-05-28T14:48:27Z</time>
</trkpt>
<trkpt lat="46.313880000" lon="7.435490000">
  <ele>1243.628540</ele>
  <time>2012-05-28T14:48:28Z</time>
</trkpt>
<trkpt lat="46.313890000" lon="7.435510000">
  <ele>1243.914180</ele>
  <time>2012-05-28T14:48:29Z</time>
</trkpt>
<trkpt lat="46.313910000" lon="7.435540000">
  <ele>1244.199950</ele>
  <time>2012-05-28T14:48:30Z</time>
</trkpt>
<trkpt lat="46.313970000" lon="7.435630000">
  <ele>1244.199950</ele>
  <time>2012-05-28T14:48:34Z</time>
</trkpt>
<trkpt lat="46.313980000" lon="7.435650000">
  <ele>1244.640010</ele>
  <time>2012-05-28T14:48:35Z</time>
</trkpt>
<trkpt lat="46.313990000" lon="7.435670000">
  <ele>1245.079960</ele>
  <time>2012-05-28T14:48:36Z</time>
</trkpt>
<trkpt lat="46.314000000" lon="7.435690000">
  <ele>1245.520020</ele>
  <time>2012-05-28T14:48:37Z</time>
</trkpt>
<trkpt lat="46.314020000" lon="7.435710000">
  <ele>1245.959960</ele>
  <time>2012-05-28T14:48:38Z</time>
</trkpt>
<trkpt lat="46.314050000" lon="7.435740000">
  <ele>1246.400020</ele>
  <time>2012-05-28T14:48:39Z</time>
</trkpt>
<trkpt lat="46.314100000" lon="7.435780000">
  <ele>1246.400020</ele>
  <time>2012-05-28T14:48:41Z</time>
</trkpt>
<trkpt lat="46.314150000" lon="7.435830000">
  <ele>1247.257200</ele>
  <time>2012-05-28T14:48:44Z</time>
</trkpt>
<trkpt lat="46.314180000" lon="7.435840000">
  <ele>1247.542850</ele>
  <time>2012-05-28T14:48:45Z</time>
</trkpt>
<trkpt lat="46.314200000" lon="7.435860000">
  <ele>1247.828610</ele>
  <time>2012-05-28T14:48:46Z</time>
</trkpt>
<trkpt lat="46.314220000" lon="7.435880000">
  <ele>1248.114260</ele>
  <time>2012-05-28T14:48:47Z</time>
</trkpt>
<trkpt lat="46.314240000" lon="7.435900000">
  <ele>1248.400020</ele>
  <time>2012-05-28T14:48:48Z</time>
</trkpt>
<trkpt lat="46.314300000" lon="7.436010000">
  <ele>1248.400020</ele>
  <time>2012-05-28T14:48:52Z</time>
</trkpt>
<trkpt lat="46.314340000" lon="7.436060000">
  <ele>1249.133300</ele>
  <time>2012-05-28T14:48:54Z</time>
</trkpt>
<trkpt lat="46.314360000" lon="7.436090000">
  <ele>1249.500000</ele>
  <time>2012-05-28T14:48:55Z</time>
</trkpt>
<trkpt lat="46.314380000" lon="7.436110000">
  <ele>1249.866700</ele>
  <time>2012-05-28T14:48:56Z</time>
</trkpt>
<trkpt lat="46.314400000" lon="7.436130000">
  <ele>1250.233280</ele>
  <time>2012-05-28T14:48:57Z</time>
</trkpt>
<trkpt lat="46.314410000" lon="7.436150000">
  <ele>1250.599980</ele>
  <time>2012-05-28T14:48:58Z</time>
</trkpt>
<trkpt lat="46.314450000" lon="7.436200000">
  <ele>1250.599980</ele>
  <time>2012-05-28T14:49:00Z</time>
</trkpt>
<trkpt lat="46.314540000" lon="7.436270000">
  <ele>1251.971440</ele>
  <time>2012-05-28T14:49:04Z</time>
</trkpt>
<trkpt lat="46.314560000" lon="7.436280000">
  <ele>1252.314330</ele>
  <time>2012-05-28T14:49:05Z</time>
</trkpt>
<trkpt lat="46.314580000" lon="7.436300000">
  <ele>1252.657100</ele>
  <time>2012-05-28T14:49:06Z</time>
</trkpt>
<trkpt lat="46.314610000" lon="7.436310000">
  <ele>1253.000000</ele>
  <time>2012-05-28T14:49:07Z</time>
</trkpt>
<trkpt lat="46.314720000" lon="7.436400000">
  <ele>1253.000000</ele>
  <time>2012-05-28T14:49:12Z</time>
</trkpt>
<trkpt lat="46.314740000" lon="7.436410000">
  <ele>1253.262450</ele>
  <time>2012-05-28T14:49:13Z</time>
</trkpt>
<trkpt lat="46.314760000" lon="7.436440000">
  <ele>1253.525020</ele>
  <time>2012-05-28T14:49:14Z</time>
</trkpt>
<trkpt lat="46.314790000" lon="7.436450000">
  <ele>1253.787480</ele>
  <time>2012-05-28T14:49:15Z</time>
</trkpt>
<trkpt lat="46.314820000" lon="7.436450000">
  <ele>1254.050050</ele>
  <time>2012-05-28T14:49:16Z</time>
</trkpt>
<trkpt lat="46.314830000" lon="7.436470000">
  <ele>1254.312500</ele>
  <time>2012-05-28T14:49:17Z</time>
</trkpt>
<trkpt lat="46.315010000" lon="7.436530000">
  <ele>1256.149900</ele>
  <time>2012-05-28T14:49:24Z</time>
</trkpt>
<trkpt lat="46.315030000" lon="7.436540000">
  <ele>1256.412480</ele>
  <time>2012-05-28T14:49:25Z</time>
</trkpt>
<trkpt lat="46.315050000" lon="7.436560000">
  <ele>1256.674930</ele>
  <time>2012-05-28T14:49:26Z</time>
</trkpt>
<trkpt lat="46.315070000" lon="7.436560000">
  <ele>1256.937500</ele>
  <time>2012-05-28T14:49:27Z</time>
</trkpt>
<trkpt lat="46.315090000" lon="7.436580000">
  <ele>1257.199950</ele>
  <time>2012-05-28T14:49:28Z</time>
</trkpt>
<trkpt lat="46.315140000" lon="7.436610000">
  <ele>1257.199950</ele>
  <time>2012-05-28T14:49:30Z</time>
</trkpt>
<trkpt lat="46.315070000" lon="7.436620000">
  <ele>1257.815310</ele>
  <time>2012-05-28T14:49:32Z</time>
</trkpt>
<trkpt lat="46.315030000" lon="7.436630000">
  <ele>1258.123050</ele>
  <time>2012-05-28T14:49:33Z</time>
</trkpt>
<trkpt lat="46.315050000" lon="7.436660000">
  <ele>1258.430660</ele>
  <time>2012-05-28T14:49:34Z</time>
</trkpt>
<trkpt lat="46.315070000" lon="7.436680000">
  <ele>1258.738400</ele>
  <time>2012-05-28T14:49:35Z</time>
</trkpt>
<trkpt lat="46.315070000" lon="7.436710000">
  <ele>1259.046140</ele>
  <time>2012-05-28T14:49:36Z</time>
</trkpt>
<trkpt lat="46.315030000" lon="7.436790000">
  <ele>1259.969240</ele>
  <time>2012-05-28T14:49:39Z</time>
</trkpt>
<trkpt lat="46.315010000" lon="7.436810000">
  <ele>1260.276860</ele>
  <time>2012-05-28T14:49:40Z</time>
</trkpt>
<trkpt lat="46.315000000" lon="7.436830000">
  <ele>1260.584590</ele>
  <time>2012-05-28T14:49:41Z</time>
</trkpt>
<trkpt lat="46.315000000" lon="7.436860000">
  <ele>1260.892210</ele>
  <time>2012-05-28T14:49:42Z</time>
</trkpt>
<trkpt lat="46.314990000" lon="7.436900000">
  <ele>1261.199950</ele>
  <time>2012-05-28T14:49:43Z</time>
</trkpt>
<trkpt lat="46.315000000" lon="7.436980000">
  <ele>1261.199950</ele>
  <time>2012-05-28T14:49:46Z</time>
</trkpt>
<trkpt lat="46.315020000" lon="7.437080000">
  <ele>1262.457150</ele>
  <time>2012-05-28T14:49:50Z</time>
</trkpt>
<trkpt lat="46.315030000" lon="7.437090000">
  <ele>1262.771480</ele>
  <time>2012-05-28T14:49:51Z</time>
</trkpt>
<trkpt lat="46.315040000" lon="7.437100000">
  <ele>1263.085690</ele>
  <time>2012-05-28T14:49:52Z</time>
</trkpt>
<trkpt lat="46.315050000" lon="7.437120000">
  <ele>1263.400020</ele>
  <time>2012-05-28T14:49:53Z</time>
</trkpt>
<trkpt lat="46.315090000" lon="7.437210000">
  <ele>1263.400020</ele>
  <time>2012-05-28T14:49:56Z</time>
</trkpt>
<trkpt lat="46.315130000" lon="7.437290000">
  <ele>1264.187500</ele>
  <time>2012-05-28T14:49:59Z</time>
</trkpt>
<trkpt lat="46.315140000" lon="7.437330000">
  <ele>1264.449950</ele>
  <time>2012-05-28T14:50:00Z</time>
</trkpt>
<trkpt lat="46.315160000" lon="7.437360000">
  <ele>1264.712520</ele>
  <time>2012-05-28T14:50:01Z</time>
</trkpt>
<trkpt lat="46.315170000" lon="7.437400000">
  <ele>1264.974980</ele>
  <time>2012-05-28T14:50:02Z</time>
</trkpt>
<trkpt lat="46.315190000" lon="7.437430000">
  <ele>1265.237550</ele>
  <time>2012-05-28T14:50:03Z</time>
</trkpt>
<trkpt lat="46.315250000" lon="7.437620000">
  <ele>1266.550050</ele>
  <time>2012-05-28T14:50:08Z</time>
</trkpt>
<trkpt lat="46.315260000" lon="7.437650000">
  <ele>1266.812500</ele>
  <time>2012-05-28T14:50:09Z</time>
</trkpt>
<trkpt lat="46.315270000" lon="7.437680000">
  <ele>1267.074950</ele>
  <time>2012-05-28T14:50:10Z</time>
</trkpt>
<trkpt lat="46.315300000" lon="7.437710000">
  <ele>1267.337520</ele>
  <time>2012-05-28T14:50:11Z</time>
</trkpt>
<trkpt lat="46.315320000" lon="7.437740000">
  <ele>1267.599980</ele>
  <time>2012-05-28T14:50:12Z</time>
</trkpt>
<trkpt lat="46.315360000" lon="7.437790000">
  <ele>1267.599980</ele>
  <time>2012-05-28T14:50:14Z</time>
</trkpt>
<trkpt lat="46.315440000" lon="7.437850000">
  <ele>1268.699950</ele>
  <time>2012-05-28T14:50:17Z</time>
</trkpt>
<trkpt lat="46.315460000" lon="7.437870000">
  <ele>1269.066650</ele>
  <time>2012-05-28T14:50:18Z</time>
</trkpt>
<trkpt lat="46.315480000" lon="7.437890000">
  <ele>1269.433350</ele>
  <time>2012-05-28T14:50:19Z</time>
</trkpt>
<trkpt lat="46.315510000" lon="7.437900000">
  <ele>1269.800050</ele>
  <time>2012-05-28T14:50:20Z</time>
</trkpt>
<trkpt lat="46.315520000" lon="7.437920000">
  <ele>1269.800050</ele>
  <time>2012-05-28T14:50:21Z</time>
</trkpt>
<trkpt lat="46.315600000" lon="7.438020000">
  <ele>1271.022220</ele>
  <time>2012-05-28T14:50:26Z</time>
</trkpt>
<trkpt lat="46.315610000" lon="7.438050000">
  <ele>1271.266720</ele>
  <time>2012-05-28T14:50:27Z</time>
</trkpt>
<trkpt lat="46.315620000" lon="7.438080000">
  <ele>1271.511110</ele>
  <time>2012-05-28T14:50:28Z</time>
</trkpt>
<trkpt lat="46.315640000" lon="7.438100000">
  <ele>1271.755620</ele>
  <time>2012-05-28T14:50:29Z</time>
</trkpt>
<trkpt lat="46.315650000" lon="7.438130000">
  <ele>1272.000000</ele>
  <time>2012-05-28T14:50:30Z</time>
</trkpt>
<trkpt lat="46.315690000" lon="7.438210000">
  <ele>1272.000000</ele>
  <time>2012-05-28T14:50:33Z</time>
</trkpt>
<trkpt lat="46.315700000" lon="7.438230000">
  <ele>1272.275020</ele>
  <time>2012-05-28T14:50:34Z</time>
</trkpt>
<trkpt lat="46.315780000" lon="7.438300000">
  <ele>1273.099980</ele>
  <time>2012-05-28T14:50:37Z</time>
</trkpt>
<trkpt lat="46.315800000" lon="7.438330000">
  <ele>1273.375000</ele>
  <time>2012-05-28T14:50:38Z</time>
</trkpt>
<trkpt lat="46.315830000" lon="7.438350000">
  <ele>1273.649900</ele>
  <time>2012-05-28T14:50:39Z</time>
</trkpt>
<trkpt lat="46.315850000" lon="7.438360000">
  <ele>1273.924930</ele>
  <time>2012-05-28T14:50:40Z</time>
</trkpt>
<trkpt lat="46.315870000" lon="7.438370000">
  <ele>1274.199950</ele>
  <time>2012-05-28T14:50:41Z</time>
</trkpt>
<trkpt lat="46.315900000" lon="7.438400000">
  <ele>1274.199950</ele>
  <time>2012-05-28T14:50:43Z</time>
</trkpt>
<trkpt lat="46.315920000" lon="7.438420000">
  <ele>1274.533330</ele>
  <time>2012-05-28T14:50:44Z</time>
</trkpt>
<trkpt lat="46.315940000" lon="7.438440000">
  <ele>1274.866580</ele>
  <time>2012-05-28T14:50:45Z</time>
</trkpt>
<trkpt lat="46.315960000" lon="7.438450000">
  <ele>1275.199950</ele>
  <time>2012-05-28T14:50:46Z</time>
</trkpt>
<trkpt lat="46.315980000" lon="7.438460000">
  <ele>1275.533330</ele>
  <time>2012-05-28T14:50:47Z</time>
</trkpt>
<trkpt lat="46.315990000" lon="7.438470000">
  <ele>1275.866580</ele>
  <time>2012-05-28T14:50:48Z</time>
</trkpt>
<trkpt lat="46.316010000" lon="7.438480000">
  <ele>1276.199950</ele>
  <time>2012-05-28T14:50:49Z</time>
</trkpt>
<trkpt lat="46.316040000" lon="7.438500000">
  <ele>1276.199950</ele>
  <time>2012-05-28T14:50:51Z</time>
</trkpt>
<trkpt lat="46.316140000" lon="7.438540000">
  <ele>1277.199950</ele>
  <time>2012-05-28T14:50:55Z</time>
</trkpt>
<trkpt lat="46.316160000" lon="7.438560000">
  <ele>1277.449950</ele>
  <time>2012-05-28T14:50:56Z</time>
</trkpt>
<trkpt lat="46.316180000" lon="7.438570000">
  <ele>1277.699950</ele>
  <time>2012-05-28T14:50:57Z</time>
</trkpt>
<trkpt lat="46.316210000" lon="7.438590000">
  <ele>1277.949950</ele>
  <time>2012-05-28T14:50:58Z</time>
</trkpt>
<trkpt lat="46.316230000" lon="7.438600000">
  <ele>1278.199950</ele>
  <time>2012-05-28T14:50:59Z</time>
</trkpt>
<trkpt lat="46.316290000" lon="7.438630000">
  <ele>1278.199950</ele>
  <time>2012-05-28T14:51:02Z</time>
</trkpt>
<trkpt lat="46.316360000" lon="7.438690000">
  <ele>1279.199950</ele>
  <time>2012-05-28T14:51:05Z</time>
</trkpt>
<trkpt lat="46.316380000" lon="7.438700000">
  <ele>1279.533330</ele>
  <time>2012-05-28T14:51:06Z</time>
</trkpt>
<trkpt lat="46.316410000" lon="7.438730000">
  <ele>1279.866580</ele>
  <time>2012-05-28T14:51:07Z</time>
</trkpt>
<trkpt lat="46.316430000" lon="7.438740000">
  <ele>1280.199950</ele>
  <time>2012-05-28T14:51:08Z</time>
</trkpt>
<trkpt lat="46.316460000" lon="7.438760000">
  <ele>1280.199950</ele>
  <time>2012-05-28T14:51:09Z</time>
</trkpt>
<trkpt lat="46.316530000" lon="7.438820000">
  <ele>1281.057130</ele>
  <time>2012-05-28T14:51:12Z</time>
</trkpt>
<trkpt lat="46.316550000" lon="7.438840000">
  <ele>1281.342770</ele>
  <time>2012-05-28T14:51:13Z</time>
</trkpt>
<trkpt lat="46.316580000" lon="7.438860000">
  <ele>1281.628540</ele>
  <time>2012-05-28T14:51:14Z</time>
</trkpt>
<trkpt lat="46.316600000" lon="7.438870000">
  <ele>1281.914180</ele>
  <time>2012-05-28T14:51:15Z</time>
</trkpt>
<trkpt lat="46.316620000" lon="7.438890000">
  <ele>1282.199950</ele>
  <time>2012-05-28T14:51:16Z</time>
</trkpt>
<trkpt lat="46.316650000" lon="7.438900000">
  <ele>1282.199950</ele>
  <time>2012-05-28T14:51:17Z</time>
</trkpt>
<trkpt lat="46.316720000" lon="7.438910000">
  <ele>1283.142820</ele>
  <time>2012-05-28T14:51:20Z</time>
</trkpt>
<trkpt lat="46.316750000" lon="7.438900000">
  <ele>1283.457150</ele>
  <time>2012-05-28T14:51:21Z</time>
</trkpt>
<trkpt lat="46.316770000" lon="7.438890000">
  <ele>1283.771480</ele>
  <time>2012-05-28T14:51:22Z</time>
</trkpt>
<trkpt lat="46.316800000" lon="7.438890000">
  <ele>1284.085690</ele>
  <time>2012-05-28T14:51:23Z</time>
</trkpt>
<trkpt lat="46.316820000" lon="7.438880000">
  <ele>1284.400020</ele>
  <time>2012-05-28T14:51:24Z</time>
</trkpt>
<trkpt lat="46.316910000" lon="7.438860000">
  <ele>1284.400020</ele>
  <time>2012-05-28T14:51:28Z</time>
</trkpt>
<trkpt lat="46.316930000" lon="7.438850000">
  <ele>1284.949950</ele>
  <time>2012-05-28T14:51:29Z</time>
</trkpt>
<trkpt lat="46.316960000" lon="7.438840000">
  <ele>1285.500000</ele>
  <time>2012-05-28T14:51:30Z</time>
</trkpt>
<trkpt lat="46.316980000" lon="7.438830000">
  <ele>1286.050050</ele>
  <time>2012-05-28T14:51:31Z</time>
</trkpt>
<trkpt lat="46.317000000" lon="7.438820000">
  <ele>1286.599980</ele>
  <time>2012-05-28T14:51:32Z</time>
</trkpt>
<trkpt lat="46.317070000" lon="7.438800000">
  <ele>1286.599980</ele>
  <time>2012-05-28T14:51:35Z</time>
</trkpt>
<trkpt lat="46.317070000" lon="7.438810000">
  <ele>1286.923100</ele>
  <time>2012-05-28T14:51:36Z</time>
</trkpt>
<trkpt lat="46.317090000" lon="7.438810000">
  <ele>1287.246090</ele>
  <time>2012-05-28T14:51:37Z</time>
</trkpt>
<trkpt lat="46.317110000" lon="7.438830000">
  <ele>1287.569210</ele>
  <time>2012-05-28T14:51:38Z</time>
</trkpt>
<trkpt lat="46.317140000" lon="7.438860000">
  <ele>1287.892330</ele>
  <time>2012-05-28T14:51:39Z</time>
</trkpt>
<trkpt lat="46.317160000" lon="7.438890000">
  <ele>1288.215330</ele>
  <time>2012-05-28T14:51:40Z</time>
</trkpt>
<trkpt lat="46.317170000" lon="7.438920000">
  <ele>1288.538450</ele>
  <time>2012-05-28T14:51:41Z</time>
</trkpt>
<trkpt lat="46.317210000" lon="7.439020000">
  <ele>1289.507690</ele>
  <time>2012-05-28T14:51:44Z</time>
</trkpt>
<trkpt lat="46.317220000" lon="7.439060000">
  <ele>1289.830810</ele>
  <time>2012-05-28T14:51:45Z</time>
</trkpt>
<trkpt lat="46.317230000" lon="7.439090000">
  <ele>1290.153930</ele>
  <time>2012-05-28T14:51:46Z</time>
</trkpt>
<trkpt lat="46.317230000" lon="7.439120000">
  <ele>1290.476930</ele>
  <time>2012-05-28T14:51:47Z</time>
</trkpt>
<trkpt lat="46.317250000" lon="7.439150000">
  <ele>1290.800050</ele>
  <time>2012-05-28T14:51:48Z</time>
</trkpt>
<trkpt lat="46.317320000" lon="7.439240000">
  <ele>1290.800050</ele>
  <time>2012-05-28T14:51:52Z</time>
</trkpt>
<trkpt lat="46.317340000" lon="7.439250000">
  <ele>1291.133420</ele>
  <time>2012-05-28T14:51:53Z</time>
</trkpt>
<trkpt lat="46.317360000" lon="7.439270000">
  <ele>1291.466670</ele>
  <time>2012-05-28T14:51:54Z</time>
</trkpt>
<trkpt lat="46.317380000" lon="7.439290000">
  <ele>1291.800050</ele>
  <time>2012-05-28T14:51:55Z</time>
</trkpt>
<trkpt lat="46.317400000" lon="7.439310000">
  <ele>1292.133420</ele>
  <time>2012-05-28T14:51:56Z</time>
</trkpt>
<trkpt lat="46.317460000" lon="7.439380000">
  <ele>1293.466670</ele>
  <time>2012-05-28T14:52:00Z</time>
</trkpt>
<trkpt lat="46.317480000" lon="7.439390000">
  <ele>1293.800050</ele>
  <time>2012-05-28T14:52:01Z</time>
</trkpt>
<trkpt lat="46.317500000" lon="7.439410000">
  <ele>1294.133420</ele>
  <time>2012-05-28T14:52:02Z</time>
</trkpt>
<trkpt lat="46.317520000" lon="7.439430000">
  <ele>1294.466670</ele>
  <time>2012-05-28T14:52:03Z</time>
</trkpt>
<trkpt lat="46.317540000" lon="7.439440000">
  <ele>1294.800050</ele>
  <time>2012-05-28T14:52:04Z</time>
</trkpt>
<trkpt lat="46.317600000" lon="7.439540000">
  <ele>1294.800050</ele>
  <time>2012-05-28T14:52:08Z</time>
</trkpt>
<trkpt lat="46.317630000" lon="7.439620000">
  <ele>1295.587520</ele>
  <time>2012-05-28T14:52:11Z</time>
</trkpt>
<trkpt lat="46.317640000" lon="7.439640000">
  <ele>1295.850100</ele>
  <time>2012-05-28T14:52:12Z</time>
</trkpt>
<trkpt lat="46.317650000" lon="7.439660000">
  <ele>1296.112550</ele>
  <time>2012-05-28T14:52:13Z</time>
</trkpt>
<trkpt lat="46.317650000" lon="7.439690000">
  <ele>1296.375000</ele>
  <time>2012-05-28T14:52:14Z</time>
</trkpt>
<trkpt lat="46.317660000" lon="7.439710000">
  <ele>1296.637570</ele>
  <time>2012-05-28T14:52:15Z</time>
</trkpt>
<trkpt lat="46.317760000" lon="7.439850000">
  <ele>1298.212520</ele>
  <time>2012-05-28T14:52:21Z</time>
</trkpt>
<trkpt lat="46.317780000" lon="7.439870000">
  <ele>1298.474980</ele>
  <time>2012-05-28T14:52:22Z</time>
</trkpt>
<trkpt lat="46.317810000" lon="7.439890000">
  <ele>1298.737550</ele>
  <time>2012-05-28T14:52:23Z</time>
</trkpt>
<trkpt lat="46.317840000" lon="7.439910000">
  <ele>1299.000000</ele>
  <time>2012-05-28T14:52:24Z</time>
</trkpt>
<trkpt lat="46.317920000" lon="7.439950000">
  <ele>1299.000000</ele>
  <time>2012-05-28T14:52:28Z</time>
</trkpt>
<trkpt lat="46.317960000" lon="7.439960000">
  <ele>1299.666630</ele>
  <time>2012-05-28T14:52:30Z</time>
</trkpt>
<trkpt lat="46.317980000" lon="7.439950000">
  <ele>1300.000000</ele>
  <time>2012-05-28T14:52:31Z</time>
</trkpt>
<trkpt lat="46.318000000" lon="7.439940000">
  <ele>1300.333370</ele>
  <time>2012-05-28T14:52:32Z</time>
</trkpt>
<trkpt lat="46.318020000" lon="7.439940000">
  <ele>1300.666630</ele>
  <time>2012-05-28T14:52:33Z</time>
</trkpt>
<trkpt lat="46.318050000" lon="7.439940000">
  <ele>1301.000000</ele>
  <time>2012-05-28T14:52:34Z</time>
</trkpt>
<trkpt lat="46.318130000" lon="7.439870000">
  <ele>1301.000000</ele>
  <time>2012-05-28T14:52:38Z</time>
</trkpt>
<trkpt lat="46.318230000" lon="7.439800000">
  <ele>1302.375000</ele>
  <time>2012-05-28T14:52:43Z</time>
</trkpt>
<trkpt lat="46.318250000" lon="7.439780000">
  <ele>1302.649900</ele>
  <time>2012-05-28T14:52:44Z</time>
</trkpt>
<trkpt lat="46.318280000" lon="7.439760000">
  <ele>1302.924930</ele>
  <time>2012-05-28T14:52:45Z</time>
</trkpt>
<trkpt lat="46.318300000" lon="7.439740000">
  <ele>1303.199950</ele>
  <time>2012-05-28T14:52:46Z</time>
</trkpt>
<trkpt lat="46.318400000" lon="7.439600000">
  <ele>1303.199950</ele>
  <time>2012-05-28T14:52:52Z</time>
</trkpt>
<trkpt lat="46.318420000" lon="7.439580000">
  <ele>1303.599980</ele>
  <time>2012-05-28T14:52:53Z</time>
</trkpt>
<trkpt lat="46.318430000" lon="7.439560000">
  <ele>1304.000000</ele>
  <time>2012-05-28T14:52:54Z</time>
</trkpt>
<trkpt lat="46.318440000" lon="7.439540000">
  <ele>1304.399900</ele>
  <time>2012-05-28T14:52:55Z</time>
</trkpt>
<trkpt lat="46.318460000" lon="7.439530000">
  <ele>1304.799930</ele>
  <time>2012-05-28T14:52:56Z</time>
</trkpt>
<trkpt lat="46.318480000" lon="7.439520000">
  <ele>1305.199950</ele>
  <time>2012-05-28T14:52:57Z</time>
</trkpt>
<trkpt lat="46.318520000" lon="7.439500000">
  <ele>1305.199950</ele>
  <time>2012-05-28T14:52:59Z</time>
</trkpt>
<trkpt lat="46.318530000" lon="7.439520000">
  <ele>1305.529910</ele>
  <time>2012-05-28T14:53:00Z</time>
</trkpt>
<trkpt lat="46.318560000" lon="7.439540000">
  <ele>1305.859990</ele>
  <time>2012-05-28T14:53:01Z</time>
</trkpt>
<trkpt lat="46.318570000" lon="7.439560000">
  <ele>1306.189940</ele>
  <time>2012-05-28T14:53:02Z</time>
</trkpt>
<trkpt lat="46.318590000" lon="7.439570000">
  <ele>1306.520020</ele>
  <time>2012-05-28T14:53:03Z</time>
</trkpt>
<trkpt lat="46.318600000" lon="7.439590000">
  <ele>1306.849980</ele>
  <time>2012-05-28T14:53:04Z</time>
</trkpt>
<trkpt lat="46.318610000" lon="7.439600000">
  <ele>1307.179930</ele>
  <time>2012-05-28T14:53:05Z</time>
</trkpt>
<trkpt lat="46.318650000" lon="7.439640000">
  <ele>1308.170040</ele>
  <time>2012-05-28T14:53:08Z</time>
</trkpt>
<trkpt lat="46.318660000" lon="7.439650000">
  <ele>1308.500000</ele>
  <time>2012-05-28T14:53:09Z</time>
</trkpt>
<trkpt lat="46.318670000" lon="7.439660000">
  <ele>1308.829960</ele>
  <time>2012-05-28T14:53:10Z</time>
</trkpt>
<trkpt lat="46.318680000" lon="7.439680000">
  <ele>1309.160030</ele>
  <time>2012-05-28T14:53:11Z</time>
</trkpt>
<trkpt lat="46.318740000" lon="7.439780000">
  <ele>1310.479980</ele>
  <time>2012-05-28T14:53:15Z</time>
</trkpt>
<trkpt lat="46.318770000" lon="7.439810000">
  <ele>1310.810060</ele>
  <time>2012-05-28T14:53:16Z</time>
</trkpt>
<trkpt lat="46.318780000" lon="7.439840000">
  <ele>1311.140010</ele>
  <time>2012-05-28T14:53:17Z</time>
</trkpt>
<trkpt lat="46.318810000" lon="7.439870000">
  <ele>1311.470090</ele>
  <time>2012-05-28T14:53:18Z</time>
</trkpt>
<trkpt lat="46.318820000" lon="7.439900000">
  <ele>1311.800050</ele>
  <time>2012-05-28T14:53:19Z</time>
</trkpt>
<trkpt lat="46.318870000" lon="7.440000000">
  <ele>1311.800050</ele>
  <time>2012-05-28T14:53:22Z</time>
</trkpt>
<trkpt lat="46.318900000" lon="7.440060000">
  <ele>1312.533330</ele>
  <time>2012-05-28T14:53:24Z</time>
</trkpt>
<trkpt lat="46.318900000" lon="7.440080000">
  <ele>1312.900020</ele>
  <time>2012-05-28T14:53:25Z</time>
</trkpt>
<trkpt lat="46.318920000" lon="7.440100000">
  <ele>1313.266720</ele>
  <time>2012-05-28T14:53:26Z</time>
</trkpt>
<trkpt lat="46.318930000" lon="7.440120000">
  <ele>1313.633300</ele>
  <time>2012-05-28T14:53:27Z</time>
</trkpt>
<trkpt lat="46.318950000" lon="7.440150000">
  <ele>1314.000000</ele>
  <time>2012-05-28T14:53:28Z</time>
</trkpt>
<trkpt lat="46.319000000" lon="7.440240000">
  <ele>1314.000000</ele>
  <time>2012-05-28T14:53:32Z</time>
</trkpt>
<trkpt lat="46.319030000" lon="7.440300000">
  <ele>1314.666630</ele>
  <time>2012-05-28T14:53:34Z</time>
</trkpt>
<trkpt lat="46.319050000" lon="7.440320000">
  <ele>1315.000000</ele>
  <time>2012-05-28T14:53:35Z</time>
</trkpt>
<trkpt lat="46.319070000" lon="7.440330000">
  <ele>1315.333370</ele>
  <time>2012-05-28T14:53:36Z</time>
</trkpt>
<trkpt lat="46.319080000" lon="7.440350000">
  <ele>1315.666630</ele>
  <time>2012-05-28T14:53:37Z</time>
</trkpt>
<trkpt lat="46.319100000" lon="7.440370000">
  <ele>1316.000000</ele>
  <time>2012-05-28T14:53:38Z</time>
</trkpt>
<trkpt lat="46.319120000" lon="7.440400000">
  <ele>1316.000000</ele>
  <time>2012-05-28T14:53:39Z</time>
</trkpt>
<trkpt lat="46.319160000" lon="7.440440000">
  <ele>1316.550050</ele>
  <time>2012-05-28T14:53:41Z</time>
</trkpt>
<trkpt lat="46.319190000" lon="7.440470000">
  <ele>1317.099980</ele>
  <time>2012-05-28T14:53:43Z</time>
</trkpt>
<trkpt lat="46.319200000" lon="7.440500000">
  <ele>1317.375000</ele>
  <time>2012-05-28T14:53:44Z</time>
</trkpt>
<trkpt lat="46.319210000" lon="7.440530000">
  <ele>1317.649900</ele>
  <time>2012-05-28T14:53:45Z</time>
</trkpt>
<trkpt lat="46.319230000" lon="7.440560000">
  <ele>1317.924930</ele>
  <time>2012-05-28T14:53:46Z</time>
</trkpt>
<trkpt lat="46.319250000" lon="7.440590000">
  <ele>1318.199950</ele>
  <time>2012-05-28T14:53:47Z</time>
</trkpt>
<trkpt lat="46.319270000" lon="7.440610000">
  <ele>1318.199950</ele>
  <time>2012-05-28T14:53:48Z</time>
</trkpt>
<trkpt lat="46.319350000" lon="7.440740000">
  <ele>1319.400020</ele>
  <time>2012-05-28T14:53:54Z</time>
</trkpt>
<trkpt lat="46.319360000" lon="7.440760000">
  <ele>1319.599980</ele>
  <time>2012-05-28T14:53:55Z</time>
</trkpt>
<trkpt lat="46.319370000" lon="7.440780000">
  <ele>1319.800050</ele>
  <time>2012-05-28T14:53:56Z</time>
</trkpt>
<trkpt lat="46.319380000" lon="7.440800000">
  <ele>1320.000000</ele>
  <time>2012-05-28T14:53:57Z</time>
</trkpt>
<trkpt lat="46.319400000" lon="7.440820000">
  <ele>1320.200070</ele>
  <time>2012-05-28T14:53:58Z</time>
</trkpt>
<trkpt lat="46.319420000" lon="7.440830000">
  <ele>1320.400020</ele>
  <time>2012-05-28T14:53:59Z</time>
</trkpt>
<trkpt lat="46.319460000" lon="7.440860000">
  <ele>1320.400020</ele>
  <time>2012-05-28T14:54:01Z</time>
</trkpt>
<trkpt lat="46.319540000" lon="7.440910000">
  <ele>1321.500000</ele>
  <time>2012-05-28T14:54:05Z</time>
</trkpt>
<trkpt lat="46.319560000" lon="7.440920000">
  <ele>1321.775020</ele>
  <time>2012-05-28T14:54:06Z</time>
</trkpt>
<trkpt lat="46.319580000" lon="7.440920000">
  <ele>1322.050050</ele>
  <time>2012-05-28T14:54:07Z</time>
</trkpt>
<trkpt lat="46.319590000" lon="7.440930000">
  <ele>1322.324950</ele>
  <time>2012-05-28T14:54:08Z</time>
</trkpt>
<trkpt lat="46.319600000" lon="7.440930000">
  <ele>1322.599980</ele>
  <time>2012-05-28T14:54:09Z</time>
</trkpt>
<trkpt lat="46.319720000" lon="7.440950000">
  <ele>1322.599980</ele>
  <time>2012-05-28T14:54:15Z</time>
</trkpt>
<trkpt lat="46.319780000" lon="7.440960000">
  <ele>1323.500000</ele>
  <time>2012-05-28T14:54:18Z</time>
</trkpt>
<trkpt lat="46.319800000" lon="7.440970000">
  <ele>1323.799930</ele>
  <time>2012-05-28T14:54:19Z</time>
</trkpt>
<trkpt lat="46.319820000" lon="7.440980000">
  <ele>1324.099980</ele>
  <time>2012-05-28T14:54:20Z</time>
</trkpt>
<trkpt lat="46.319850000" lon="7.440980000">
  <ele>1324.400020</ele>
  <time>2012-05-28T14:54:21Z</time>
</trkpt>
<trkpt lat="46.319870000" lon="7.440990000">
  <ele>1324.699950</ele>
  <time>2012-05-28T14:54:22Z</time>
</trkpt>
<trkpt lat="46.319950000" lon="7.440990000">
  <ele>1325.599980</ele>
  <time>2012-05-28T14:54:25Z</time>
</trkpt>
<trkpt lat="46.319970000" lon="7.441000000">
  <ele>1325.899900</ele>
  <time>2012-05-28T14:54:26Z</time>
</trkpt>
<trkpt lat="46.319990000" lon="7.441000000">
  <ele>1326.199950</ele>
  <time>2012-05-28T14:54:27Z</time>
</trkpt>
<trkpt lat="46.320010000" lon="7.441000000">
  <ele>1326.500000</ele>
  <time>2012-05-28T14:54:28Z</time>
</trkpt>
<trkpt lat="46.320030000" lon="7.441000000">
  <ele>1326.799930</ele>
  <time>2012-05-28T14:54:29Z</time>
</trkpt>
<trkpt lat="46.320090000" lon="7.440980000">
  <ele>1328.000000</ele>
  <time>2012-05-28T14:54:33Z</time>
</trkpt>
<trkpt lat="46.320100000" lon="7.440970000">
  <ele>1328.299930</ele>
  <time>2012-05-28T14:54:34Z</time>
</trkpt>
<trkpt lat="46.320110000" lon="7.440960000">
  <ele>1328.599980</ele>
  <time>2012-05-28T14:54:35Z</time>
</trkpt>
<trkpt lat="46.320130000" lon="7.440960000">
  <ele>1328.899900</ele>
  <time>2012-05-28T14:54:36Z</time>
</trkpt>
<trkpt lat="46.320140000" lon="7.440950000">
  <ele>1329.199950</ele>
  <time>2012-05-28T14:54:37Z</time>
</trkpt>
<trkpt lat="46.320160000" lon="7.440950000">
  <ele>1329.199950</ele>
  <time>2012-05-28T14:54:38Z</time>
</trkpt>
<trkpt lat="46.320210000" lon="7.440950000">
  <ele>1329.640010</ele>
  <time>2012-05-28T14:54:40Z</time>
</trkpt>
<trkpt lat="46.320300000" lon="7.440950000">
  <ele>1330.520020</ele>
  <time>2012-05-28T14:54:44Z</time>
</trkpt>
<trkpt lat="46.320320000" lon="7.440940000">
  <ele>1330.739990</ele>
  <time>2012-05-28T14:54:45Z</time>
</trkpt>
<trkpt lat="46.320340000" lon="7.440940000">
  <ele>1330.959960</ele>
  <time>2012-05-28T14:54:46Z</time>
</trkpt>
<trkpt lat="46.320360000" lon="7.440940000">
  <ele>1331.180050</ele>
  <time>2012-05-28T14:54:47Z</time>
</trkpt>
<trkpt lat="46.320360000" lon="7.440930000">
  <ele>1331.400020</ele>
  <time>2012-05-28T14:54:48Z</time>
</trkpt>
<trkpt lat="46.320370000" lon="7.440920000">
  <ele>1331.400020</ele>
  <time>2012-05-28T14:54:50Z</time>
</trkpt>
<trkpt lat="46.320410000" lon="7.440910000">
  <ele>1332.150020</ele>
  <time>2012-05-28T14:54:53Z</time>
</trkpt>
<trkpt lat="46.320420000" lon="7.440910000">
  <ele>1332.400020</ele>
  <time>2012-05-28T14:54:54Z</time>
</trkpt>
<trkpt lat="46.320440000" lon="7.440910000">
  <ele>1332.650020</ele>
  <time>2012-05-28T14:54:55Z</time>
</trkpt>
<trkpt lat="46.320460000" lon="7.440910000">
  <ele>1332.900020</ele>
  <time>2012-05-28T14:54:56Z</time>
</trkpt>
<trkpt lat="46.320480000" lon="7.440920000">
  <ele>1333.150020</ele>
  <time>2012-05-28T14:54:57Z</time>
</trkpt>
<trkpt lat="46.320620000" lon="7.440970000">
  <ele>1334.400020</ele>
  <time>2012-05-28T14:55:02Z</time>
</trkpt>
<trkpt lat="46.320670000" lon="7.440990000">
  <ele>1334.650020</ele>
  <time>2012-05-28T14:55:03Z</time>
</trkpt>
<trkpt lat="46.320690000" lon="7.441000000">
  <ele>1334.900020</ele>
  <time>2012-05-28T14:55:04Z</time>
</trkpt>
<trkpt lat="46.320710000" lon="7.441010000">
  <ele>1335.150020</ele>
  <time>2012-05-28T14:55:05Z</time>
</trkpt>
<trkpt lat="46.320730000" lon="7.441030000">
  <ele>1335.400020</ele>
  <time>2012-05-28T14:55:06Z</time>
</trkpt>
<trkpt lat="46.320770000" lon="7.441070000">
  <ele>1335.400020</ele>
  <time>2012-05-28T14:55:08Z</time>
</trkpt>
<trkpt lat="46.320800000" lon="7.441110000">
  <ele>1336.280030</ele>
  <time>2012-05-28T14:55:10Z</time>
</trkpt>
<trkpt lat="46.320820000" lon="7.441130000">
  <ele>1336.719970</ele>
  <time>2012-05-28T14:55:11Z</time>
</trkpt>
<trkpt lat="46.320840000" lon="7.441170000">
  <ele>1337.160030</ele>
  <time>2012-05-28T14:55:12Z</time>
</trkpt>
<trkpt lat="46.320860000" lon="7.441200000">
  <ele>1337.599980</ele>
  <time>2012-05-28T14:55:13Z</time>
</trkpt>
<trkpt lat="46.320900000" lon="7.441240000">
  <ele>1337.599980</ele>
  <time>2012-05-28T14:55:14Z</time>
</trkpt>
<trkpt lat="46.320970000" lon="7.441360000">
  <ele>1338.599980</ele>
  <time>2012-05-28T14:55:18Z</time>
</trkpt>
<trkpt lat="46.320980000" lon="7.441380000">
  <ele>1338.849980</ele>
  <time>2012-05-28T14:55:19Z</time>
</trkpt>
<trkpt lat="46.320990000" lon="7.441410000">
  <ele>1339.099980</ele>
  <time>2012-05-28T14:55:20Z</time>
</trkpt>
<trkpt lat="46.321010000" lon="7.441430000">
  <ele>1339.349980</ele>
  <time>2012-05-28T14:55:21Z</time>
</trkpt>
<trkpt lat="46.321020000" lon="7.441450000">
  <ele>1339.599980</ele>
  <time>2012-05-28T14:55:22Z</time>
</trkpt>
<trkpt lat="46.321110000" lon="7.441550000">
  <ele>1339.599980</ele>
  <time>2012-05-28T14:55:26Z</time>
</trkpt>
<trkpt lat="46.321250000" lon="7.441710000">
  <ele>1340.920040</ele>
  <time>2012-05-28T14:55:32Z</time>
</trkpt>
<trkpt lat="46.321280000" lon="7.441740000">
  <ele>1341.140010</ele>
  <time>2012-05-28T14:55:33Z</time>
</trkpt>
<trkpt lat="46.321300000" lon="7.441760000">
  <ele>1341.359990</ele>
  <time>2012-05-28T14:55:34Z</time>
</trkpt>
<trkpt lat="46.321320000" lon="7.441780000">
  <ele>1341.580080</ele>
  <time>2012-05-28T14:55:35Z</time>
</trkpt>
<trkpt lat="46.321340000" lon="7.441800000">
  <ele>1341.800050</ele>
  <time>2012-05-28T14:55:36Z</time>
</trkpt>
<trkpt lat="46.321340000" lon="7.441820000">
  <ele>1341.800050</ele>
  <time>2012-05-28T14:55:37Z</time>
</trkpt>
<trkpt lat="46.321370000" lon="7.441830000">
  <ele>1342.533330</ele>
  <time>2012-05-28T14:55:40Z</time>
</trkpt>
<trkpt lat="46.321410000" lon="7.441800000">
  <ele>1343.022220</ele>
  <time>2012-05-28T14:55:42Z</time>
</trkpt>
<trkpt lat="46.321430000" lon="7.441780000">
  <ele>1343.266720</ele>
  <time>2012-05-28T14:55:43Z</time>
</trkpt>
<trkpt lat="46.321450000" lon="7.441740000">
  <ele>1343.511110</ele>
  <time>2012-05-28T14:55:44Z</time>
</trkpt>
<trkpt lat="46.321470000" lon="7.441710000">
  <ele>1343.755620</ele>
  <time>2012-05-28T14:55:45Z</time>
</trkpt>
<trkpt lat="46.321490000" lon="7.441680000">
  <ele>1344.000000</ele>
  <time>2012-05-28T14:55:46Z</time>
</trkpt>
<trkpt lat="46.321500000" lon="7.441650000">
  <ele>1344.000000</ele>
  <time>2012-05-28T14:55:47Z</time>
</trkpt>
<trkpt lat="46.321510000" lon="7.441620000">
  <ele>1344.153810</ele>
  <time>2012-05-28T14:55:48Z</time>
</trkpt>
<trkpt lat="46.321470000" lon="7.441510000">
  <ele>1344.769290</ele>
  <time>2012-05-28T14:55:52Z</time>
</trkpt>
<trkpt lat="46.321410000" lon="7.441410000">
  <ele>1345.384640</ele>
  <time>2012-05-28T14:55:56Z</time>
</trkpt>
<trkpt lat="46.321400000" lon="7.441390000">
  <ele>1345.538450</ele>
  <time>2012-05-28T14:55:57Z</time>
</trkpt>
<trkpt lat="46.321380000" lon="7.441370000">
  <ele>1345.692260</ele>
  <time>2012-05-28T14:55:58Z</time>
</trkpt>
<trkpt lat="46.321370000" lon="7.441350000">
  <ele>1345.846190</ele>
  <time>2012-05-28T14:55:59Z</time>
</trkpt>
<trkpt lat="46.321360000" lon="7.441320000">
  <ele>1346.000000</ele>
  <time>2012-05-28T14:56:00Z</time>
</trkpt>
<trkpt lat="46.321290000" lon="7.441210000">
  <ele>1346.000000</ele>
  <time>2012-05-28T14:56:04Z</time>
</trkpt>
<trkpt lat="46.321270000" lon="7.441150000">
  <ele>1346.733280</ele>
  <time>2012-05-28T14:56:06Z</time>
</trkpt>
<trkpt lat="46.321260000" lon="7.441130000">
  <ele>1347.099980</ele>
  <time>2012-05-28T14:56:07Z</time>
</trkpt>
<trkpt lat="46.321250000" lon="7.441100000">
  <ele>1347.466670</ele>
  <time>2012-05-28T14:56:08Z</time>
</trkpt>
<trkpt lat="46.321240000" lon="7.441070000">
  <ele>1347.833250</ele>
  <time>2012-05-28T14:56:09Z</time>
</trkpt>
<trkpt lat="46.321230000" lon="7.441050000">
  <ele>1348.199950</ele>
  <time>2012-05-28T14:56:10Z</time>
</trkpt>
<trkpt lat="46.321170000" lon="7.440870000">
  <ele>1348.199950</ele>
  <time>2012-05-28T14:56:16Z</time>
</trkpt>
<trkpt lat="46.321160000" lon="7.440840000">
  <ele>1348.599980</ele>
  <time>2012-05-28T14:56:17Z</time>
</trkpt>
<trkpt lat="46.321160000" lon="7.440810000">
  <ele>1349.000000</ele>
  <time>2012-05-28T14:56:18Z</time>
</trkpt>
<trkpt lat="46.321150000" lon="7.440780000">
  <ele>1349.399900</ele>
  <time>2012-05-28T14:56:19Z</time>
</trkpt>
<trkpt lat="46.321130000" lon="7.440760000">
  <ele>1349.799930</ele>
  <time>2012-05-28T14:56:20Z</time>
</trkpt>
<trkpt lat="46.321110000" lon="7.440730000">
  <ele>1350.199950</ele>
  <time>2012-05-28T14:56:21Z</time>
</trkpt>
<trkpt lat="46.321080000" lon="7.440680000">
  <ele>1350.199950</ele>
  <time>2012-05-28T14:56:23Z</time>
</trkpt>
<trkpt lat="46.321000000" lon="7.440590000">
  <ele>1351.000000</ele>
  <time>2012-05-28T14:56:27Z</time>
</trkpt>
<trkpt lat="46.320980000" lon="7.440580000">
  <ele>1351.199950</ele>
  <time>2012-05-28T14:56:28Z</time>
</trkpt>
<trkpt lat="46.320930000" lon="7.440530000">
  <ele>1351.599980</ele>
  <time>2012-05-28T14:56:30Z</time>
</trkpt>
<trkpt lat="46.320910000" lon="7.440510000">
  <ele>1351.800050</ele>
  <time>2012-05-28T14:56:31Z</time>
</trkpt>
<trkpt lat="46.320880000" lon="7.440480000">
  <ele>1352.000000</ele>
  <time>2012-05-28T14:56:32Z</time>
</trkpt>
<trkpt lat="46.320850000" lon="7.440450000">
  <ele>1352.200070</ele>
  <time>2012-05-28T14:56:33Z</time>
</trkpt>
<trkpt lat="46.320820000" lon="7.440430000">
  <ele>1352.400020</ele>
  <time>2012-05-28T14:56:34Z</time>
</trkpt>
<trkpt lat="46.320790000" lon="7.440410000">
  <ele>1352.400020</ele>
  <time>2012-05-28T14:56:35Z</time>
</trkpt>
<trkpt lat="46.320720000" lon="7.440400000">
  <ele>1353.141240</ele>
  <time>2012-05-28T14:56:38Z</time>
</trkpt>
<trkpt lat="46.320690000" lon="7.440410000">
  <ele>1353.388310</ele>
  <time>2012-05-28T14:56:39Z</time>
</trkpt>
<trkpt lat="46.320640000" lon="7.440410000">
  <ele>1353.882320</ele>
  <time>2012-05-28T14:56:41Z</time>
</trkpt>
<trkpt lat="46.320630000" lon="7.440410000">
  <ele>1354.129390</ele>
  <time>2012-05-28T14:56:42Z</time>
</trkpt>
<trkpt lat="46.320610000" lon="7.440400000">
  <ele>1354.376460</ele>
  <time>2012-05-28T14:56:43Z</time>
</trkpt>
<trkpt lat="46.320580000" lon="7.440400000">
  <ele>1354.623540</ele>
  <time>2012-05-28T14:56:44Z</time>
</trkpt>
<trkpt lat="46.320560000" lon="7.440400000">
  <ele>1354.870610</ele>
  <time>2012-05-28T14:56:45Z</time>
</trkpt>
<trkpt lat="46.320510000" lon="7.440380000">
  <ele>1355.611690</ele>
  <time>2012-05-28T14:56:48Z</time>
</trkpt>
<trkpt lat="46.320490000" lon="7.440370000">
  <ele>1355.858760</ele>
  <time>2012-05-28T14:56:49Z</time>
</trkpt>
<trkpt lat="46.320460000" lon="7.440360000">
  <ele>1356.105830</ele>
  <time>2012-05-28T14:56:50Z</time>
</trkpt>
<trkpt lat="46.320420000" lon="7.440350000">
  <ele>1356.352910</ele>
  <time>2012-05-28T14:56:51Z</time>
</trkpt>
<trkpt lat="46.320390000" lon="7.440350000">
  <ele>1356.599980</ele>
  <time>2012-05-28T14:56:52Z</time>
</trkpt>
<trkpt lat="46.320300000" lon="7.440320000">
  <ele>1356.599980</ele>
  <time>2012-05-28T14:56:55Z</time>
</trkpt>
<trkpt lat="46.320260000" lon="7.440290000">
  <ele>1357.173340</ele>
  <time>2012-05-28T14:56:57Z</time>
</trkpt>
<trkpt lat="46.320230000" lon="7.440290000">
  <ele>1357.459960</ele>
  <time>2012-05-28T14:56:58Z</time>
</trkpt>
<trkpt lat="46.320200000" lon="7.440280000">
  <ele>1357.746580</ele>
  <time>2012-05-28T14:56:59Z</time>
</trkpt>
<trkpt lat="46.320180000" lon="7.440270000">
  <ele>1358.033330</ele>
  <time>2012-05-28T14:57:00Z</time>
</trkpt>
<trkpt lat="46.320160000" lon="7.440270000">
  <ele>1358.319950</ele>
  <time>2012-05-28T14:57:01Z</time>
</trkpt>
<trkpt lat="46.320060000" lon="7.440250000">
  <ele>1359.179930</ele>
  <time>2012-05-28T14:57:04Z</time>
</trkpt>
<trkpt lat="46.320040000" lon="7.440240000">
  <ele>1359.466670</ele>
  <time>2012-05-28T14:57:05Z</time>
</trkpt>
<trkpt lat="46.320010000" lon="7.440230000">
  <ele>1359.753300</ele>
  <time>2012-05-28T14:57:06Z</time>
</trkpt>
<trkpt lat="46.320000000" lon="7.440220000">
  <ele>1360.039920</ele>
  <time>2012-05-28T14:57:07Z</time>
</trkpt>
<trkpt lat="46.319980000" lon="7.440210000">
  <ele>1360.326660</ele>
  <time>2012-05-28T14:57:08Z</time>
</trkpt>
<trkpt lat="46.319880000" lon="7.440140000">
  <ele>1362.046630</ele>
  <time>2012-05-28T14:57:14Z</time>
</trkpt>
<trkpt lat="46.319850000" lon="7.440120000">
  <ele>1362.333250</ele>
  <time>2012-05-28T14:57:15Z</time>
</trkpt>
<trkpt lat="46.319830000" lon="7.440110000">
  <ele>1362.620000</ele>
  <time>2012-05-28T14:57:16Z</time>
</trkpt>
<trkpt lat="46.319810000" lon="7.440090000">
  <ele>1362.906620</ele>
  <time>2012-05-28T14:57:17Z</time>
</trkpt>
<trkpt lat="46.319770000" lon="7.440060000">
  <ele>1363.193240</ele>
  <time>2012-05-28T14:57:18Z</time>
</trkpt>
<trkpt lat="46.319680000" lon="7.439980000">
  <ele>1364.053340</ele>
  <time>2012-05-28T14:57:21Z</time>
</trkpt>
<trkpt lat="46.319660000" lon="7.439950000">
  <ele>1364.339970</ele>
  <time>2012-05-28T14:57:22Z</time>
</trkpt>
<trkpt lat="46.319640000" lon="7.439920000">
  <ele>1364.626590</ele>
  <time>2012-05-28T14:57:23Z</time>
</trkpt>
<trkpt lat="46.319630000" lon="7.439900000">
  <ele>1364.913330</ele>
  <time>2012-05-28T14:57:24Z</time>
</trkpt>
<trkpt lat="46.319620000" lon="7.439870000">
  <ele>1365.199950</ele>
  <time>2012-05-28T14:57:25Z</time>
</trkpt>
<trkpt lat="46.319570000" lon="7.439780000">
  <ele>1365.199950</ele>
  <time>2012-05-28T14:57:29Z</time>
</trkpt>
<trkpt lat="46.319500000" lon="7.439680000">
  <ele>1366.199950</ele>
  <time>2012-05-28T14:57:33Z</time>
</trkpt>
<trkpt lat="46.319480000" lon="7.439650000">
  <ele>1366.449950</ele>
  <time>2012-05-28T14:57:34Z</time>
</trkpt>
<trkpt lat="46.319470000" lon="7.439630000">
  <ele>1366.699950</ele>
  <time>2012-05-28T14:57:35Z</time>
</trkpt>
<trkpt lat="46.319460000" lon="7.439600000">
  <ele>1366.949950</ele>
  <time>2012-05-28T14:57:36Z</time>
</trkpt>
<trkpt lat="46.319450000" lon="7.439580000">
  <ele>1367.199950</ele>
  <time>2012-05-28T14:57:37Z</time>
</trkpt>
<trkpt lat="46.319410000" lon="7.439480000">
  <ele>1367.199950</ele>
  <time>2012-05-28T14:57:41Z</time>
</trkpt>
<trkpt lat="46.319400000" lon="7.439430000">
  <ele>1368.079960</ele>
  <time>2012-05-28T14:57:43Z</time>
</trkpt>
<trkpt lat="46.319400000" lon="7.439400000">
  <ele>1368.520020</ele>
  <time>2012-05-28T14:57:44Z</time>
</trkpt>
<trkpt lat="46.319390000" lon="7.439370000">
  <ele>1368.959960</ele>
  <time>2012-05-28T14:57:45Z</time>
</trkpt>
<trkpt lat="46.319380000" lon="7.439340000">
  <ele>1369.400020</ele>
  <time>2012-05-28T14:57:46Z</time>
</trkpt>
<trkpt lat="46.319370000" lon="7.439310000">
  <ele>1369.400020</ele>
  <time>2012-05-28T14:57:47Z</time>
</trkpt>
<trkpt lat="46.319350000" lon="7.439210000">
  <ele>1370.400020</ele>
  <time>2012-05-28T14:57:51Z</time>
</trkpt>
<trkpt lat="46.319350000" lon="7.439180000">
  <ele>1370.650020</ele>
  <time>2012-05-28T14:57:52Z</time>
</trkpt>
<trkpt lat="46.319340000" lon="7.439140000">
  <ele>1370.900020</ele>
  <time>2012-05-28T14:57:53Z</time>
</trkpt>
<trkpt lat="46.319330000" lon="7.439100000">
  <ele>1371.150020</ele>
  <time>2012-05-28T14:57:54Z</time>
</trkpt>
<trkpt lat="46.319330000" lon="7.439070000">
  <ele>1371.400020</ele>
  <time>2012-05-28T14:57:55Z</time>
</trkpt>
<trkpt lat="46.319290000" lon="7.438930000">
  <ele>1371.400020</ele>
  <time>2012-05-28T14:57:59Z</time>
</trkpt>
<trkpt lat="46.319290000" lon="7.438900000">
  <ele>1371.800050</ele>
  <time>2012-05-28T14:58:00Z</time>
</trkpt>
<trkpt lat="46.319290000" lon="7.438870000">
  <ele>1372.200070</ele>
  <time>2012-05-28T14:58:01Z</time>
</trkpt>
<trkpt lat="46.319290000" lon="7.438850000">
  <ele>1372.599980</ele>
  <time>2012-05-28T14:58:02Z</time>
</trkpt>
<trkpt lat="46.319290000" lon="7.438820000">
  <ele>1373.000000</ele>
  <time>2012-05-28T14:58:03Z</time>
</trkpt>
<trkpt lat="46.319280000" lon="7.438790000">
  <ele>1373.400020</ele>
  <time>2012-05-28T14:58:04Z</time>
</trkpt>
<trkpt lat="46.319210000" lon="7.438720000">
  <ele>1373.400020</ele>
  <time>2012-05-28T14:58:08Z</time>
</trkpt>
<trkpt lat="46.319160000" lon="7.438680000">
  <ele>1374.342900</ele>
  <time>2012-05-28T14:58:11Z</time>
</trkpt>
<trkpt lat="46.319150000" lon="7.438670000">
  <ele>1374.657100</ele>
  <time>2012-05-28T14:58:12Z</time>
</trkpt>
<trkpt lat="46.319130000" lon="7.438650000">
  <ele>1374.971440</ele>
  <time>2012-05-28T14:58:13Z</time>
</trkpt>
<trkpt lat="46.319120000" lon="7.438640000">
  <ele>1375.285640</ele>
  <time>2012-05-28T14:58:14Z</time>
</trkpt>
<trkpt lat="46.319090000" lon="7.438620000">
  <ele>1375.599980</ele>
  <time>2012-05-28T14:58:15Z</time>
</trkpt>
<trkpt lat="46.319000000" lon="7.438530000">
  <ele>1375.599980</ele>
  <time>2012-05-28T14:58:20Z</time>
</trkpt>
<trkpt lat="46.318970000" lon="7.438480000">
  <ele>1376.266600</ele>
  <time>2012-05-28T14:58:22Z</time>
</trkpt>
<trkpt lat="46.318940000" lon="7.438450000">
  <ele>1376.599980</ele>
  <time>2012-05-28T14:58:23Z</time>
</trkpt>
<trkpt lat="46.318910000" lon="7.438410000">
  <ele>1376.933350</ele>
  <time>2012-05-28T14:58:24Z</time>
</trkpt>
<trkpt lat="46.318880000" lon="7.438380000">
  <ele>1377.266600</ele>
  <time>2012-05-28T14:58:25Z</time>
</trkpt>
<trkpt lat="46.318870000" lon="7.438350000">
  <ele>1377.599980</ele>
  <time>2012-05-28T14:58:26Z</time>
</trkpt>
<trkpt lat="46.318830000" lon="7.438280000">
  <ele>1377.599980</ele>
  <time>2012-05-28T14:58:28Z</time>
</trkpt>
<trkpt lat="46.318780000" lon="7.438160000">
  <ele>1378.857180</ele>
  <time>2012-05-28T14:58:32Z</time>
</trkpt>
<trkpt lat="46.318770000" lon="7.438130000">
  <ele>1379.171510</ele>
  <time>2012-05-28T14:58:33Z</time>
</trkpt>
<trkpt lat="46.318770000" lon="7.438110000">
  <ele>1379.485720</ele>
  <time>2012-05-28T14:58:34Z</time>
</trkpt>
<trkpt lat="46.318770000" lon="7.438080000">
  <ele>1379.800050</ele>
  <time>2012-05-28T14:58:35Z</time>
</trkpt>
<trkpt lat="46.318710000" lon="7.437950000">
  <ele>1379.800050</ele>
  <time>2012-05-28T14:58:41Z</time>
</trkpt>
<trkpt lat="46.318680000" lon="7.437920000">
  <ele>1380.333370</ele>
  <time>2012-05-28T14:58:43Z</time>
</trkpt>
<trkpt lat="46.318660000" lon="7.437900000">
  <ele>1380.600100</ele>
  <time>2012-05-28T14:58:44Z</time>
</trkpt>
<trkpt lat="46.318650000" lon="7.437890000">
  <ele>1380.866700</ele>
  <time>2012-05-28T14:58:45Z</time>
</trkpt>
<trkpt lat="46.318630000" lon="7.437880000">
  <ele>1381.133300</ele>
  <time>2012-05-28T14:58:46Z</time>
</trkpt>
<trkpt lat="46.318570000" lon="7.437840000">
  <ele>1381.400020</ele>
  <time>2012-05-28T14:58:47Z</time>
</trkpt>
<trkpt lat="46.318390000" lon="7.437720000">
  <ele>1382.733400</ele>
  <time>2012-05-28T14:58:52Z</time>
</trkpt>
<trkpt lat="46.318370000" lon="7.437700000">
  <ele>1383.000000</ele>
  <time>2012-05-28T14:58:53Z</time>
</trkpt>
<trkpt lat="46.318350000" lon="7.437680000">
  <ele>1383.266600</ele>
  <time>2012-05-28T14:58:54Z</time>
</trkpt>
<trkpt lat="46.318330000" lon="7.437670000">
  <ele>1383.533330</ele>
  <time>2012-05-28T14:58:55Z</time>
</trkpt>
<trkpt lat="46.318320000" lon="7.437650000">
  <ele>1383.800050</ele>
  <time>2012-05-28T14:58:56Z</time>
</trkpt>
<trkpt lat="46.318230000" lon="7.437540000">
  <ele>1385.133300</ele>
  <time>2012-05-28T14:59:01Z</time>
</trkpt>
<trkpt lat="46.318210000" lon="7.437520000">
  <ele>1385.399900</ele>
  <time>2012-05-28T14:59:02Z</time>
</trkpt>
<trkpt lat="46.318200000" lon="7.437500000">
  <ele>1385.666630</ele>
  <time>2012-05-28T14:59:03Z</time>
</trkpt>
<trkpt lat="46.318180000" lon="7.437480000">
  <ele>1385.933350</ele>
  <time>2012-05-28T14:59:04Z</time>
</trkpt>
<trkpt lat="46.318150000" lon="7.437470000">
  <ele>1386.199950</ele>
  <time>2012-05-28T14:59:05Z</time>
</trkpt>
<trkpt lat="46.318080000" lon="7.437450000">
  <ele>1386.199950</ele>
  <time>2012-05-28T14:59:08Z</time>
</trkpt>
<trkpt lat="46.318000000" lon="7.437390000">
  <ele>1387.278200</ele>
  <time>2012-05-28T14:59:12Z</time>
</trkpt>
<trkpt lat="46.317980000" lon="7.437370000">
  <ele>1387.547850</ele>
  <time>2012-05-28T14:59:13Z</time>
</trkpt>
<trkpt lat="46.317960000" lon="7.437360000">
  <ele>1387.817380</ele>
  <time>2012-05-28T14:59:14Z</time>
</trkpt>
<trkpt lat="46.317940000" lon="7.437340000">
  <ele>1388.086910</ele>
  <time>2012-05-28T14:59:15Z</time>
</trkpt>
<trkpt lat="46.317920000" lon="7.437320000">
  <ele>1388.356450</ele>
  <time>2012-05-28T14:59:16Z</time>
</trkpt>
<trkpt lat="46.317890000" lon="7.437240000">
  <ele>1389.434810</ele>
  <time>2012-05-28T14:59:20Z</time>
</trkpt>
<trkpt lat="46.317880000" lon="7.437220000">
  <ele>1389.704350</ele>
  <time>2012-05-28T14:59:21Z</time>
</trkpt>
<trkpt lat="46.317870000" lon="7.437190000">
  <ele>1389.973880</ele>
  <time>2012-05-28T14:59:22Z</time>
</trkpt>
<trkpt lat="46.317860000" lon="7.437170000">
  <ele>1390.243530</ele>
  <time>2012-05-28T14:59:23Z</time>
</trkpt>
<trkpt lat="46.317830000" lon="7.437090000">
  <ele>1391.321780</ele>
  <time>2012-05-28T14:59:27Z</time>
</trkpt>
<trkpt lat="46.317820000" lon="7.437070000">
  <ele>1391.591310</ele>
  <time>2012-05-28T14:59:28Z</time>
</trkpt>
<trkpt lat="46.317810000" lon="7.437050000">
  <ele>1391.860840</ele>
  <time>2012-05-28T14:59:29Z</time>
</trkpt>
<trkpt lat="46.317800000" lon="7.437030000">
  <ele>1392.130490</ele>
  <time>2012-05-28T14:59:30Z</time>
</trkpt>
<trkpt lat="46.317790000" lon="7.437000000">
  <ele>1392.400020</ele>
  <time>2012-05-28T14:59:31Z</time>
</trkpt>
<trkpt lat="46.317790000" lon="7.436980000">
  <ele>1392.400020</ele>
  <time>2012-05-28T14:59:32Z</time>
</trkpt>
<trkpt lat="46.317770000" lon="7.436900000">
  <ele>1393.257200</ele>
  <time>2012-05-28T14:59:35Z</time>
</trkpt>
<trkpt lat="46.317760000" lon="7.436880000">
  <ele>1393.542850</ele>
  <time>2012-05-28T14:59:36Z</time>
</trkpt>
<trkpt lat="46.317750000" lon="7.436860000">
  <ele>1393.828610</ele>
  <time>2012-05-28T14:59:37Z</time>
</trkpt>
<trkpt lat="46.317740000" lon="7.436840000">
  <ele>1394.114260</ele>
  <time>2012-05-28T14:59:38Z</time>
</trkpt>
<trkpt lat="46.317740000" lon="7.436810000">
  <ele>1394.400020</ele>
  <time>2012-05-28T14:59:39Z</time>
</trkpt>
<trkpt lat="46.317700000" lon="7.436670000">
  <ele>1394.400020</ele>
  <time>2012-05-28T14:59:44Z</time>
</trkpt>
<trkpt lat="46.317700000" lon="7.436650000">
  <ele>1394.949950</ele>
  <time>2012-05-28T14:59:45Z</time>
</trkpt>
<trkpt lat="46.317700000" lon="7.436630000">
  <ele>1395.500000</ele>
  <time>2012-05-28T14:59:46Z</time>
</trkpt>
<trkpt lat="46.317700000" lon="7.436610000">
  <ele>1396.050050</ele>
  <time>2012-05-28T14:59:47Z</time>
</trkpt>
<trkpt lat="46.317690000" lon="7.436590000">
  <ele>1396.599980</ele>
  <time>2012-05-28T14:59:48Z</time>
</trkpt>
<trkpt lat="46.317660000" lon="7.436550000">
  <ele>1396.599980</ele>
  <time>2012-05-28T14:59:50Z</time>
</trkpt>
<trkpt lat="46.317540000" lon="7.436520000">
  <ele>1397.472660</ele>
  <time>2012-05-28T14:59:54Z</time>
</trkpt>
<trkpt lat="46.317500000" lon="7.436510000">
  <ele>1397.690920</ele>
  <time>2012-05-28T14:59:55Z</time>
</trkpt>
<trkpt lat="46.317450000" lon="7.436510000">
  <ele>1398.127320</ele>
  <time>2012-05-28T14:59:57Z</time>
</trkpt>
<trkpt lat="46.317420000" lon="7.436510000">
  <ele>1398.345460</ele>
  <time>2012-05-28T14:59:58Z</time>
</trkpt>
<trkpt lat="46.317400000" lon="7.436510000">
  <ele>1398.563600</ele>
  <time>2012-05-28T14:59:59Z</time>
</trkpt>
<trkpt lat="46.317380000" lon="7.436500000">
  <ele>1398.781860</ele>
  <time>2012-05-28T15:00:00Z</time>
</trkpt>
<trkpt lat="46.317360000" lon="7.436500000">
  <ele>1399.000000</ele>
  <time>2012-05-28T15:00:01Z</time>
</trkpt>
<trkpt lat="46.317350000" lon="7.436480000">
  <ele>1399.000000</ele>
  <time>2012-05-28T15:00:02Z</time>
</trkpt>
<trkpt lat="46.317290000" lon="7.436410000">
  <ele>1399.824950</ele>
  <time>2012-05-28T15:00:05Z</time>
</trkpt>
<trkpt lat="46.317270000" lon="7.436370000">
  <ele>1400.099980</ele>
  <time>2012-05-28T15:00:06Z</time>
</trkpt>
<trkpt lat="46.317260000" lon="7.436340000">
  <ele>1400.375000</ele>
  <time>2012-05-28T15:00:07Z</time>
</trkpt>
<trkpt lat="46.317250000" lon="7.436320000">
  <ele>1400.650020</ele>
  <time>2012-05-28T15:00:08Z</time>
</trkpt>
<trkpt lat="46.317230000" lon="7.436300000">
  <ele>1400.925050</ele>
  <time>2012-05-28T15:00:09Z</time>
</trkpt>
<trkpt lat="46.317170000" lon="7.436170000">
  <ele>1402.300050</ele>
  <time>2012-05-28T15:00:14Z</time>
</trkpt>
<trkpt lat="46.317160000" lon="7.436140000">
  <ele>1402.575070</ele>
  <time>2012-05-28T15:00:15Z</time>
</trkpt>
<trkpt lat="46.317150000" lon="7.436110000">
  <ele>1402.849980</ele>
  <time>2012-05-28T15:00:16Z</time>
</trkpt>
<trkpt lat="46.317130000" lon="7.436080000">
  <ele>1403.125000</ele>
  <time>2012-05-28T15:00:17Z</time>
</trkpt>
<trkpt lat="46.317120000" lon="7.436050000">
  <ele>1403.400020</ele>
  <time>2012-05-28T15:00:18Z</time>
</trkpt>
<trkpt lat="46.317100000" lon="7.435980000">
  <ele>1403.400020</ele>
  <time>2012-05-28T15:00:21Z</time>
</trkpt>
<trkpt lat="46.317080000" lon="7.435860000">
  <ele>1404.500000</ele>
  <time>2012-05-28T15:00:25Z</time>
</trkpt>
<trkpt lat="46.317070000" lon="7.435830000">
  <ele>1404.775020</ele>
  <time>2012-05-28T15:00:26Z</time>
</trkpt>
<trkpt lat="46.317070000" lon="7.435800000">
  <ele>1405.050050</ele>
  <time>2012-05-28T15:00:27Z</time>
</trkpt>
<trkpt lat="46.317070000" lon="7.435760000">
  <ele>1405.324950</ele>
  <time>2012-05-28T15:00:28Z</time>
</trkpt>
<trkpt lat="46.317070000" lon="7.435730000">
  <ele>1405.599980</ele>
  <time>2012-05-28T15:00:29Z</time>
</trkpt>
<trkpt lat="46.317020000" lon="7.435560000">
  <ele>1405.599980</ele>
  <time>2012-05-28T15:00:34Z</time>
</trkpt>
<trkpt lat="46.317010000" lon="7.435530000">
  <ele>1406.150020</ele>
  <time>2012-05-28T15:00:35Z</time>
</trkpt>
<trkpt lat="46.317000000" lon="7.435490000">
  <ele>1406.699950</ele>
  <time>2012-05-28T15:00:36Z</time>
</trkpt>
<trkpt lat="46.316990000" lon="7.435470000">
  <ele>1407.250000</ele>
  <time>2012-05-28T15:00:37Z</time>
</trkpt>
<trkpt lat="46.316980000" lon="7.435440000">
  <ele>1407.800050</ele>
  <time>2012-05-28T15:00:38Z</time>
</trkpt>
<trkpt lat="46.316960000" lon="7.435420000">
  <ele>1407.800050</ele>
  <time>2012-05-28T15:00:39Z</time>
</trkpt>
<trkpt lat="46.316880000" lon="7.435320000">
  <ele>1408.900020</ele>
  <time>2012-05-28T15:00:43Z</time>
</trkpt>
<trkpt lat="46.316860000" lon="7.435290000">
  <ele>1409.175050</ele>
  <time>2012-05-28T15:00:44Z</time>
</trkpt>
<trkpt lat="46.316830000" lon="7.435270000">
  <ele>1409.449950</ele>
  <time>2012-05-28T15:00:45Z</time>
</trkpt>
<trkpt lat="46.316800000" lon="7.435250000">
  <ele>1409.724980</ele>
  <time>2012-05-28T15:00:46Z</time>
</trkpt>
<trkpt lat="46.316770000" lon="7.435230000">
  <ele>1410.000000</ele>
  <time>2012-05-28T15:00:47Z</time>
</trkpt>
<trkpt lat="46.316730000" lon="7.435180000">
  <ele>1410.000000</ele>
  <time>2012-05-28T15:00:49Z</time>
</trkpt>
<trkpt lat="46.316620000" lon="7.435040000">
  <ele>1411.294070</ele>
  <time>2012-05-28T15:00:54Z</time>
</trkpt>
<trkpt lat="46.316610000" lon="7.435010000">
  <ele>1411.552980</ele>
  <time>2012-05-28T15:00:55Z</time>
</trkpt>
<trkpt lat="46.316590000" lon="7.434980000">
  <ele>1411.811770</ele>
  <time>2012-05-28T15:00:56Z</time>
</trkpt>
<trkpt lat="46.316580000" lon="7.434950000">
  <ele>1412.070560</ele>
  <time>2012-05-28T15:00:57Z</time>
</trkpt>
<trkpt lat="46.316570000" lon="7.434920000">
  <ele>1412.329470</ele>
  <time>2012-05-28T15:00:58Z</time>
</trkpt>
<trkpt lat="46.316530000" lon="7.434790000">
  <ele>1413.364750</ele>
  <time>2012-05-28T15:01:02Z</time>
</trkpt>
<trkpt lat="46.316520000" lon="7.434760000">
  <ele>1413.623540</ele>
  <time>2012-05-28T15:01:03Z</time>
</trkpt>
<trkpt lat="46.316520000" lon="7.434730000">
  <ele>1413.882320</ele>
  <time>2012-05-28T15:01:04Z</time>
</trkpt>
<trkpt lat="46.316510000" lon="7.434710000">
  <ele>1414.141240</ele>
  <time>2012-05-28T15:01:05Z</time>
</trkpt>
<trkpt lat="46.316510000" lon="7.434690000">
  <ele>1414.400020</ele>
  <time>2012-05-28T15:01:06Z</time>
</trkpt>
<trkpt lat="46.316490000" lon="7.434650000">
  <ele>1414.400020</ele>
  <time>2012-05-28T15:01:08Z</time>
</trkpt>
<trkpt lat="46.316470000" lon="7.434640000">
  <ele>1414.622190</ele>
  <time>2012-05-28T15:01:09Z</time>
</trkpt>
<trkpt lat="46.316400000" lon="7.434550000">
  <ele>1415.511110</ele>
  <time>2012-05-28T15:01:13Z</time>
</trkpt>
<trkpt lat="46.316380000" lon="7.434530000">
  <ele>1415.733400</ele>
  <time>2012-05-28T15:01:14Z</time>
</trkpt>
<trkpt lat="46.316370000" lon="7.434510000">
  <ele>1415.955570</ele>
  <time>2012-05-28T15:01:15Z</time>
</trkpt>
<trkpt lat="46.316350000" lon="7.434490000">
  <ele>1416.177860</ele>
  <time>2012-05-28T15:01:16Z</time>
</trkpt>
<trkpt lat="46.316320000" lon="7.434460000">
  <ele>1416.400020</ele>
  <time>2012-05-28T15:01:17Z</time>
</trkpt>
<trkpt lat="46.316250000" lon="7.434370000">
  <ele>1416.400020</ele>
  <time>2012-05-28T15:01:20Z</time>
</trkpt>
<trkpt lat="46.316390000" lon="7.434440000">
  <ele>1417.239990</ele>
  <time>2012-05-28T15:01:23Z</time>
</trkpt>
<trkpt lat="46.316400000" lon="7.434420000">
  <ele>1417.520020</ele>
  <time>2012-05-28T15:01:24Z</time>
</trkpt>
<trkpt lat="46.316400000" lon="7.434390000">
  <ele>1417.800050</ele>
  <time>2012-05-28T15:01:25Z</time>
</trkpt>
<trkpt lat="46.316390000" lon="7.434370000">
  <ele>1418.079960</ele>
  <time>2012-05-28T15:01:26Z</time>
</trkpt>
<trkpt lat="46.316370000" lon="7.434230000">
  <ele>1419.479980</ele>
  <time>2012-05-28T15:01:31Z</time>
</trkpt>
<trkpt lat="46.316370000" lon="7.434210000">
  <ele>1419.760010</ele>
  <time>2012-05-28T15:01:32Z</time>
</trkpt>
<trkpt lat="46.316370000" lon="7.434180000">
  <ele>1420.040040</ele>
  <time>2012-05-28T15:01:33Z</time>
</trkpt>
<trkpt lat="46.316370000" lon="7.434150000">
  <ele>1420.319950</ele>
  <time>2012-05-28T15:01:34Z</time>
</trkpt>
<trkpt lat="46.316370000" lon="7.434120000">
  <ele>1420.599980</ele>
  <time>2012-05-28T15:01:35Z</time>
</trkpt>
<trkpt lat="46.316360000" lon="7.434090000">
  <ele>1420.599980</ele>
  <time>2012-05-28T15:01:36Z</time>
</trkpt>
<trkpt lat="46.316340000" lon="7.433920000">
  <ele>1421.822270</ele>
  <time>2012-05-28T15:01:41Z</time>
</trkpt>
<trkpt lat="46.316330000" lon="7.433890000">
  <ele>1422.066650</ele>
  <time>2012-05-28T15:01:42Z</time>
</trkpt>
<trkpt lat="46.316330000" lon="7.433860000">
  <ele>1422.311160</ele>
  <time>2012-05-28T15:01:43Z</time>
</trkpt>
<trkpt lat="46.316330000" lon="7.433830000">
  <ele>1422.555540</ele>
  <time>2012-05-28T15:01:44Z</time>
</trkpt>
<trkpt lat="46.316330000" lon="7.433800000">
  <ele>1422.800050</ele>
  <time>2012-05-28T15:01:45Z</time>
</trkpt>
<trkpt lat="46.316320000" lon="7.433730000">
  <ele>1422.800050</ele>
  <time>2012-05-28T15:01:47Z</time>
</trkpt>
<trkpt lat="46.316300000" lon="7.433660000">
  <ele>1423.466670</ele>
  <time>2012-05-28T15:01:49Z</time>
</trkpt>
<trkpt lat="46.316300000" lon="7.433630000">
  <ele>1423.800050</ele>
  <time>2012-05-28T15:01:50Z</time>
</trkpt>
<trkpt lat="46.316280000" lon="7.433590000">
  <ele>1424.133420</ele>
  <time>2012-05-28T15:01:51Z</time>
</trkpt>
<trkpt lat="46.316250000" lon="7.433540000">
  <ele>1424.466670</ele>
  <time>2012-05-28T15:01:52Z</time>
</trkpt>
<trkpt lat="46.316230000" lon="7.433500000">
  <ele>1424.800050</ele>
  <time>2012-05-28T15:01:53Z</time>
</trkpt>
<trkpt lat="46.316180000" lon="7.433390000">
  <ele>1424.800050</ele>
  <time>2012-05-28T15:01:56Z</time>
</trkpt>
<trkpt lat="46.316140000" lon="7.433230000">
  <ele>1426.022220</ele>
  <time>2012-05-28T15:02:01Z</time>
</trkpt>
<trkpt lat="46.316140000" lon="7.433200000">
  <ele>1426.266720</ele>
  <time>2012-05-28T15:02:02Z</time>
</trkpt>
<trkpt lat="46.316130000" lon="7.433170000">
  <ele>1426.511110</ele>
  <time>2012-05-28T15:02:03Z</time>
</trkpt>
<trkpt lat="46.316120000" lon="7.433140000">
  <ele>1426.755620</ele>
  <time>2012-05-28T15:02:04Z</time>
</trkpt>
<trkpt lat="46.316120000" lon="7.433110000">
  <ele>1427.000000</ele>
  <time>2012-05-28T15:02:05Z</time>
</trkpt>
<trkpt lat="46.316090000" lon="7.432980000">
  <ele>1427.000000</ele>
  <time>2012-05-28T15:02:09Z</time>
</trkpt>
<trkpt lat="46.316070000" lon="7.432950000">
  <ele>1427.439940</ele>
  <time>2012-05-28T15:02:10Z</time>
</trkpt>
<trkpt lat="46.316060000" lon="7.432920000">
  <ele>1427.880000</ele>
  <time>2012-05-28T15:02:11Z</time>
</trkpt>
<trkpt lat="46.316060000" lon="7.432890000">
  <ele>1428.319950</ele>
  <time>2012-05-28T15:02:12Z</time>
</trkpt>
<trkpt lat="46.316040000" lon="7.432860000">
  <ele>1428.760010</ele>
  <time>2012-05-28T15:02:13Z</time>
</trkpt>
<trkpt lat="46.316040000" lon="7.432830000">
  <ele>1429.199950</ele>
  <time>2012-05-28T15:02:14Z</time>
</trkpt>
<trkpt lat="46.316020000" lon="7.432770000">
  <ele>1429.199950</ele>
  <time>2012-05-28T15:02:16Z</time>
</trkpt>
<trkpt lat="46.315990000" lon="7.432680000">
  <ele>1430.142820</ele>
  <time>2012-05-28T15:02:19Z</time>
</trkpt>
<trkpt lat="46.315970000" lon="7.432660000">
  <ele>1430.457150</ele>
  <time>2012-05-28T15:02:20Z</time>
</trkpt>
<trkpt lat="46.315950000" lon="7.432630000">
  <ele>1430.771480</ele>
  <time>2012-05-28T15:02:21Z</time>
</trkpt>
<trkpt lat="46.315930000" lon="7.432600000">
  <ele>1431.085690</ele>
  <time>2012-05-28T15:02:22Z</time>
</trkpt>
<trkpt lat="46.315910000" lon="7.432570000">
  <ele>1431.400020</ele>
  <time>2012-05-28T15:02:23Z</time>
</trkpt>
<trkpt lat="46.315830000" lon="7.432450000">
  <ele>1431.400020</ele>
  <time>2012-05-28T15:02:28Z</time>
</trkpt>
<trkpt lat="46.315800000" lon="7.432400000">
  <ele>1432.000000</ele>
  <time>2012-05-28T15:02:30Z</time>
</trkpt>
<trkpt lat="46.315790000" lon="7.432390000">
  <ele>1432.300050</ele>
  <time>2012-05-28T15:02:31Z</time>
</trkpt>
<trkpt lat="46.315770000" lon="7.432360000">
  <ele>1432.599980</ele>
  <time>2012-05-28T15:02:32Z</time>
</trkpt>
<trkpt lat="46.315760000" lon="7.432340000">
  <ele>1432.900020</ele>
  <time>2012-05-28T15:02:33Z</time>
</trkpt>
<trkpt lat="46.315750000" lon="7.432320000">
  <ele>1433.199950</ele>
  <time>2012-05-28T15:02:34Z</time>
</trkpt>
<trkpt lat="46.315670000" lon="7.432210000">
  <ele>1434.699950</ele>
  <time>2012-05-28T15:02:39Z</time>
</trkpt>
<trkpt lat="46.315650000" lon="7.432190000">
  <ele>1435.000000</ele>
  <time>2012-05-28T15:02:40Z</time>
</trkpt>
<trkpt lat="46.315630000" lon="7.432170000">
  <ele>1435.299930</ele>
  <time>2012-05-28T15:02:41Z</time>
</trkpt>
<trkpt lat="46.315620000" lon="7.432150000">
  <ele>1435.599980</ele>
  <time>2012-05-28T15:02:42Z</time>
</trkpt>
<trkpt lat="46.315570000" lon="7.432080000">
  <ele>1435.599980</ele>
  <time>2012-05-28T15:02:45Z</time>
</trkpt>
<trkpt lat="46.315510000" lon="7.432000000">
  <ele>1436.376460</ele>
  <time>2012-05-28T15:02:48Z</time>
</trkpt>
<trkpt lat="46.315490000" lon="7.431970000">
  <ele>1436.635250</ele>
  <time>2012-05-28T15:02:49Z</time>
</trkpt>
<trkpt lat="46.315480000" lon="7.431930000">
  <ele>1436.894040</ele>
  <time>2012-05-28T15:02:50Z</time>
</trkpt>
<trkpt lat="46.315460000" lon="7.431900000">
  <ele>1437.152950</ele>
  <time>2012-05-28T15:02:51Z</time>
</trkpt>
<trkpt lat="46.315440000" lon="7.431860000">
  <ele>1437.411740</ele>
  <time>2012-05-28T15:02:52Z</time>
</trkpt>
<trkpt lat="46.315360000" lon="7.431700000">
  <ele>1438.964720</ele>
  <time>2012-05-28T15:02:58Z</time>
</trkpt>
<trkpt lat="46.315350000" lon="7.431660000">
  <ele>1439.223510</ele>
  <time>2012-05-28T15:02:59Z</time>
</trkpt>
<trkpt lat="46.315330000" lon="7.431630000">
  <ele>1439.482300</ele>
  <time>2012-05-28T15:03:00Z</time>
</trkpt>
<trkpt lat="46.315320000" lon="7.431600000">
  <ele>1439.741210</ele>
  <time>2012-05-28T15:03:01Z</time>
</trkpt>
<trkpt lat="46.315310000" lon="7.431570000">
  <ele>1440.000000</ele>
  <time>2012-05-28T15:03:02Z</time>
</trkpt>
<trkpt lat="46.315270000" lon="7.431440000">
  <ele>1440.000000</ele>
  <time>2012-05-28T15:03:06Z</time>
</trkpt>
<trkpt lat="46.315260000" lon="7.431410000">
  <ele>1440.439940</ele>
  <time>2012-05-28T15:03:07Z</time>
</trkpt>
<trkpt lat="46.315250000" lon="7.431380000">
  <ele>1440.880000</ele>
  <time>2012-05-28T15:03:08Z</time>
</trkpt>
<trkpt lat="46.315240000" lon="7.431360000">
  <ele>1441.319950</ele>
  <time>2012-05-28T15:03:09Z</time>
</trkpt>
<trkpt lat="46.315230000" lon="7.431330000">
  <ele>1441.760010</ele>
  <time>2012-05-28T15:03:10Z</time>
</trkpt>
<trkpt lat="46.315220000" lon="7.431300000">
  <ele>1442.199950</ele>
  <time>2012-05-28T15:03:11Z</time>
</trkpt>
<trkpt lat="46.315200000" lon="7.431230000">
  <ele>1442.199950</ele>
  <time>2012-05-28T15:03:13Z</time>
</trkpt>
<trkpt lat="46.315180000" lon="7.431070000">
  <ele>1443.422240</ele>
  <time>2012-05-28T15:03:18Z</time>
</trkpt>
<trkpt lat="46.315170000" lon="7.431040000">
  <ele>1443.666630</ele>
  <time>2012-05-28T15:03:19Z</time>
</trkpt>
<trkpt lat="46.315160000" lon="7.431000000">
  <ele>1443.911130</ele>
  <time>2012-05-28T15:03:20Z</time>
</trkpt>
<trkpt lat="46.315150000" lon="7.430970000">
  <ele>1444.155520</ele>
  <time>2012-05-28T15:03:21Z</time>
</trkpt>
<trkpt lat="46.315140000" lon="7.430940000">
  <ele>1444.400020</ele>
  <time>2012-05-28T15:03:22Z</time>
</trkpt>
<trkpt lat="46.315120000" lon="7.430890000">
  <ele>1444.400020</ele>
  <time>2012-05-28T15:03:24Z</time>
</trkpt>
<trkpt lat="46.315090000" lon="7.430800000">
  <ele>1445.320070</ele>
  <time>2012-05-28T15:03:27Z</time>
</trkpt>
<trkpt lat="46.315080000" lon="7.430770000">
  <ele>1445.626710</ele>
  <time>2012-05-28T15:03:28Z</time>
</trkpt>
<trkpt lat="46.315070000" lon="7.430740000">
  <ele>1445.933350</ele>
  <time>2012-05-28T15:03:29Z</time>
</trkpt>
<trkpt lat="46.315060000" lon="7.430720000">
  <ele>1446.239990</ele>
  <time>2012-05-28T15:03:30Z</time>
</trkpt>
<trkpt lat="46.315010000" lon="7.430530000">
  <ele>1447.773320</ele>
  <time>2012-05-28T15:03:35Z</time>
</trkpt>
<trkpt lat="46.314990000" lon="7.430490000">
  <ele>1448.079960</ele>
  <time>2012-05-28T15:03:36Z</time>
</trkpt>
<trkpt lat="46.314970000" lon="7.430450000">
  <ele>1448.386720</ele>
  <time>2012-05-28T15:03:37Z</time>
</trkpt>
<trkpt lat="46.314950000" lon="7.430420000">
  <ele>1448.693360</ele>
  <time>2012-05-28T15:03:38Z</time>
</trkpt>
<trkpt lat="46.314930000" lon="7.430380000">
  <ele>1449.000000</ele>
  <time>2012-05-28T15:03:39Z</time>
</trkpt>
<trkpt lat="46.314900000" lon="7.430270000">
  <ele>1449.000000</ele>
  <time>2012-05-28T15:03:42Z</time>
</trkpt>
<trkpt lat="46.314890000" lon="7.430230000">
  <ele>1449.400020</ele>
  <time>2012-05-28T15:03:43Z</time>
</trkpt>
<trkpt lat="46.314880000" lon="7.430200000">
  <ele>1449.800050</ele>
  <time>2012-05-28T15:03:44Z</time>
</trkpt>
<trkpt lat="46.314880000" lon="7.430160000">
  <ele>1450.199950</ele>
  <time>2012-05-28T15:03:45Z</time>
</trkpt>
<trkpt lat="46.314870000" lon="7.430130000">
  <ele>1450.599980</ele>
  <time>2012-05-28T15:03:46Z</time>
</trkpt>
<trkpt lat="46.314860000" lon="7.430100000">
  <ele>1451.000000</ele>
  <time>2012-05-28T15:03:47Z</time>
</trkpt>
<trkpt lat="46.314850000" lon="7.430070000">
  <ele>1451.000000</ele>
  <time>2012-05-28T15:03:48Z</time>
</trkpt>
<trkpt lat="46.314840000" lon="7.430000000">
  <ele>1451.800050</ele>
  <time>2012-05-28T15:03:50Z</time>
</trkpt>
<trkpt lat="46.314830000" lon="7.429980000">
  <ele>1452.199950</ele>
  <time>2012-05-28T15:03:51Z</time>
</trkpt>
<trkpt lat="46.314820000" lon="7.429950000">
  <ele>1452.599980</ele>
  <time>2012-05-28T15:03:52Z</time>
</trkpt>
<trkpt lat="46.314810000" lon="7.429920000">
  <ele>1453.000000</ele>
  <time>2012-05-28T15:03:53Z</time>
</trkpt>
<trkpt lat="46.314770000" lon="7.429830000">
  <ele>1453.000000</ele>
  <time>2012-05-28T15:03:56Z</time>
</trkpt>
<trkpt lat="46.314760000" lon="7.429800000">
  <ele>1453.439940</ele>
  <time>2012-05-28T15:03:57Z</time>
</trkpt>
<trkpt lat="46.314750000" lon="7.429770000">
  <ele>1453.880000</ele>
  <time>2012-05-28T15:03:58Z</time>
</trkpt>
<trkpt lat="46.314720000" lon="7.429750000">
  <ele>1454.319950</ele>
  <time>2012-05-28T15:03:59Z</time>
</trkpt>
<trkpt lat="46.314710000" lon="7.429720000">
  <ele>1454.760010</ele>
  <time>2012-05-28T15:04:00Z</time>
</trkpt>
<trkpt lat="46.314700000" lon="7.429690000">
  <ele>1455.199950</ele>
  <time>2012-05-28T15:04:01Z</time>
</trkpt>
<trkpt lat="46.314660000" lon="7.429610000">
  <ele>1455.199950</ele>
  <time>2012-05-28T15:04:04Z</time>
</trkpt>
<trkpt lat="46.314620000" lon="7.429520000">
  <ele>1455.987430</ele>
  <time>2012-05-28T15:04:07Z</time>
</trkpt>
<trkpt lat="46.314610000" lon="7.429490000">
  <ele>1456.250000</ele>
  <time>2012-05-28T15:04:08Z</time>
</trkpt>
<trkpt lat="46.314600000" lon="7.429460000">
  <ele>1456.512450</ele>
  <time>2012-05-28T15:04:09Z</time>
</trkpt>
<trkpt lat="46.314590000" lon="7.429430000">
  <ele>1456.775020</ele>
  <time>2012-05-28T15:04:10Z</time>
</trkpt>
<trkpt lat="46.314580000" lon="7.429400000">
  <ele>1457.037480</ele>
  <time>2012-05-28T15:04:11Z</time>
</trkpt>
<trkpt lat="46.314520000" lon="7.429220000">
  <ele>1458.612550</ele>
  <time>2012-05-28T15:04:17Z</time>
</trkpt>
<trkpt lat="46.314500000" lon="7.429180000">
  <ele>1458.875000</ele>
  <time>2012-05-28T15:04:18Z</time>
</trkpt>
<trkpt lat="46.314480000" lon="7.429150000">
  <ele>1459.137570</ele>
  <time>2012-05-28T15:04:19Z</time>
</trkpt>
<trkpt lat="46.314460000" lon="7.429110000">
  <ele>1459.400020</ele>
  <time>2012-05-28T15:04:20Z</time>
</trkpt>
<trkpt lat="46.314410000" lon="7.428950000">
  <ele>1459.400020</ele>
  <time>2012-05-28T15:04:25Z</time>
</trkpt>
<trkpt lat="46.314390000" lon="7.428880000">
  <ele>1460.066650</ele>
  <time>2012-05-28T15:04:27Z</time>
</trkpt>
<trkpt lat="46.314380000" lon="7.428850000">
  <ele>1460.400020</ele>
  <time>2012-05-28T15:04:28Z</time>
</trkpt>
<trkpt lat="46.314380000" lon="7.428820000">
  <ele>1460.733400</ele>
  <time>2012-05-28T15:04:29Z</time>
</trkpt>
<trkpt lat="46.314380000" lon="7.428790000">
  <ele>1461.066650</ele>
  <time>2012-05-28T15:04:30Z</time>
</trkpt>
<trkpt lat="46.314380000" lon="7.428760000">
  <ele>1461.400020</ele>
  <time>2012-05-28T15:04:31Z</time>
</trkpt>
<trkpt lat="46.314350000" lon="7.428550000">
  <ele>1461.400020</ele>
  <time>2012-05-28T15:04:37Z</time>
</trkpt>
<trkpt lat="46.314350000" lon="7.428520000">
  <ele>1461.839970</ele>
  <time>2012-05-28T15:04:38Z</time>
</trkpt>
<trkpt lat="46.314340000" lon="7.428480000">
  <ele>1462.280030</ele>
  <time>2012-05-28T15:04:39Z</time>
</trkpt>
<trkpt lat="46.314340000" lon="7.428450000">
  <ele>1462.719970</ele>
  <time>2012-05-28T15:04:40Z</time>
</trkpt>
<trkpt lat="46.314330000" lon="7.428410000">
  <ele>1463.160030</ele>
  <time>2012-05-28T15:04:41Z</time>
</trkpt>
<trkpt lat="46.314330000" lon="7.428380000">
  <ele>1463.599980</ele>
  <time>2012-05-28T15:04:42Z</time>
</trkpt>
<trkpt lat="46.314310000" lon="7.428320000">
  <ele>1463.599980</ele>
  <time>2012-05-28T15:04:44Z</time>
</trkpt>
<trkpt lat="46.314300000" lon="7.428250000">
  <ele>1464.333370</ele>
  <time>2012-05-28T15:04:46Z</time>
</trkpt>
<trkpt lat="46.314290000" lon="7.428220000">
  <ele>1464.699950</ele>
  <time>2012-05-28T15:04:47Z</time>
</trkpt>
<trkpt lat="46.314290000" lon="7.428180000">
  <ele>1465.066650</ele>
  <time>2012-05-28T15:04:48Z</time>
</trkpt>
<trkpt lat="46.314280000" lon="7.428140000">
  <ele>1465.433350</ele>
  <time>2012-05-28T15:04:49Z</time>
</trkpt>
<trkpt lat="46.314270000" lon="7.428110000">
  <ele>1465.800050</ele>
  <time>2012-05-28T15:04:50Z</time>
</trkpt>
<trkpt lat="46.314260000" lon="7.428070000">
  <ele>1465.800050</ele>
  <time>2012-05-28T15:04:51Z</time>
</trkpt>
<trkpt lat="46.314230000" lon="7.427970000">
  <ele>1466.587520</ele>
  <time>2012-05-28T15:04:54Z</time>
</trkpt>
<trkpt lat="46.314220000" lon="7.427940000">
  <ele>1466.850100</ele>
  <time>2012-05-28T15:04:55Z</time>
</trkpt>
<trkpt lat="46.314220000" lon="7.427910000">
  <ele>1467.112550</ele>
  <time>2012-05-28T15:04:56Z</time>
</trkpt>
<trkpt lat="46.314210000" lon="7.427880000">
  <ele>1467.375000</ele>
  <time>2012-05-28T15:04:57Z</time>
</trkpt>
<trkpt lat="46.314190000" lon="7.427850000">
  <ele>1467.637570</ele>
  <time>2012-05-28T15:04:58Z</time>
</trkpt>
<trkpt lat="46.314120000" lon="7.427680000">
  <ele>1469.212520</ele>
  <time>2012-05-28T15:05:04Z</time>
</trkpt>
<trkpt lat="46.314100000" lon="7.427650000">
  <ele>1469.474980</ele>
  <time>2012-05-28T15:05:05Z</time>
</trkpt>
<trkpt lat="46.314090000" lon="7.427610000">
  <ele>1469.737550</ele>
  <time>2012-05-28T15:05:06Z</time>
</trkpt>
<trkpt lat="46.314080000" lon="7.427580000">
  <ele>1470.000000</ele>
  <time>2012-05-28T15:05:07Z</time>
</trkpt>
<trkpt lat="46.314010000" lon="7.427430000">
  <ele>1470.000000</ele>
  <time>2012-05-28T15:05:12Z</time>
</trkpt>
<trkpt lat="46.314000000" lon="7.427410000">
  <ele>1470.400020</ele>
  <time>2012-05-28T15:05:13Z</time>
</trkpt>
<trkpt lat="46.313990000" lon="7.427380000">
  <ele>1470.800050</ele>
  <time>2012-05-28T15:05:14Z</time>
</trkpt>
<trkpt lat="46.313980000" lon="7.427350000">
  <ele>1471.199950</ele>
  <time>2012-05-28T15:05:15Z</time>
</trkpt>
<trkpt lat="46.313960000" lon="7.427320000">
  <ele>1471.599980</ele>
  <time>2012-05-28T15:05:16Z</time>
</trkpt>
<trkpt lat="46.313950000" lon="7.427290000">
  <ele>1472.000000</ele>
  <time>2012-05-28T15:05:17Z</time>
</trkpt>
<trkpt lat="46.313920000" lon="7.427230000">
  <ele>1472.000000</ele>
  <time>2012-05-28T15:05:19Z</time>
</trkpt>
<trkpt lat="46.313900000" lon="7.427140000">
  <ele>1472.824950</ele>
  <time>2012-05-28T15:05:22Z</time>
</trkpt>
<trkpt lat="46.313890000" lon="7.427110000">
  <ele>1473.099980</ele>
  <time>2012-05-28T15:05:23Z</time>
</trkpt>
<trkpt lat="46.313880000" lon="7.427080000">
  <ele>1473.375000</ele>
  <time>2012-05-28T15:05:24Z</time>
</trkpt>
<trkpt lat="46.313870000" lon="7.427040000">
  <ele>1473.650020</ele>
  <time>2012-05-28T15:05:25Z</time>
</trkpt>
<trkpt lat="46.313870000" lon="7.427010000">
  <ele>1473.925050</ele>
  <time>2012-05-28T15:05:26Z</time>
</trkpt>
<trkpt lat="46.313810000" lon="7.426820000">
  <ele>1475.575070</ele>
  <time>2012-05-28T15:05:32Z</time>
</trkpt>
<trkpt lat="46.313800000" lon="7.426780000">
  <ele>1475.849980</ele>
  <time>2012-05-28T15:05:33Z</time>
</trkpt>
<trkpt lat="46.313790000" lon="7.426740000">
  <ele>1476.125000</ele>
  <time>2012-05-28T15:05:34Z</time>
</trkpt>
<trkpt lat="46.313790000" lon="7.426710000">
  <ele>1476.400020</ele>
  <time>2012-05-28T15:05:35Z</time>
</trkpt>
<trkpt lat="46.313770000" lon="7.426570000">
  <ele>1476.400020</ele>
  <time>2012-05-28T15:05:39Z</time>
</trkpt>
<trkpt lat="46.313760000" lon="7.426490000">
  <ele>1477.066650</ele>
  <time>2012-05-28T15:05:41Z</time>
</trkpt>
<trkpt lat="46.313760000" lon="7.426460000">
  <ele>1477.400020</ele>
  <time>2012-05-28T15:05:42Z</time>
</trkpt>
<trkpt lat="46.313760000" lon="7.426430000">
  <ele>1477.733400</ele>
  <time>2012-05-28T15:05:43Z</time>
</trkpt>
<trkpt lat="46.313770000" lon="7.426400000">
  <ele>1478.066650</ele>
  <time>2012-05-28T15:05:44Z</time>
</trkpt>
<trkpt lat="46.313760000" lon="7.426370000">
  <ele>1478.400020</ele>
  <time>2012-05-28T15:05:45Z</time>
</trkpt>
<trkpt lat="46.313760000" lon="7.426290000">
  <ele>1479.066650</ele>
  <time>2012-05-28T15:05:47Z</time>
</trkpt>
<trkpt lat="46.313760000" lon="7.426260000">
  <ele>1479.400020</ele>
  <time>2012-05-28T15:05:48Z</time>
</trkpt>
<trkpt lat="46.313760000" lon="7.426230000">
  <ele>1479.733400</ele>
  <time>2012-05-28T15:05:49Z</time>
</trkpt>
<trkpt lat="46.313760000" lon="7.426190000">
  <ele>1480.066650</ele>
  <time>2012-05-28T15:05:50Z</time>
</trkpt>
<trkpt lat="46.313760000" lon="7.426150000">
  <ele>1480.400020</ele>
  <time>2012-05-28T15:05:51Z</time>
</trkpt>
<trkpt lat="46.313750000" lon="7.425980000">
  <ele>1480.400020</ele>
  <time>2012-05-28T15:05:56Z</time>
</trkpt>
<trkpt lat="46.313760000" lon="7.425940000">
  <ele>1480.949950</ele>
  <time>2012-05-28T15:05:57Z</time>
</trkpt>
<trkpt lat="46.313760000" lon="7.425900000">
  <ele>1481.500000</ele>
  <time>2012-05-28T15:05:58Z</time>
</trkpt>
<trkpt lat="46.313750000" lon="7.425860000">
  <ele>1482.050050</ele>
  <time>2012-05-28T15:05:59Z</time>
</trkpt>
<trkpt lat="46.313750000" lon="7.425830000">
  <ele>1482.599980</ele>
  <time>2012-05-28T15:06:00Z</time>
</trkpt>
<trkpt lat="46.313750000" lon="7.425690000">
  <ele>1482.599980</ele>
  <time>2012-05-28T15:06:04Z</time>
</trkpt>
<trkpt lat="46.313750000" lon="7.425650000">
  <ele>1483.000000</ele>
  <time>2012-05-28T15:06:05Z</time>
</trkpt>
<trkpt lat="46.313750000" lon="7.425620000">
  <ele>1483.400020</ele>
  <time>2012-05-28T15:06:06Z</time>
</trkpt>
<trkpt lat="46.313750000" lon="7.425580000">
  <ele>1483.799930</ele>
  <time>2012-05-28T15:06:07Z</time>
</trkpt>
<trkpt lat="46.313750000" lon="7.425550000">
  <ele>1484.199950</ele>
  <time>2012-05-28T15:06:08Z</time>
</trkpt>
<trkpt lat="46.313750000" lon="7.425510000">
  <ele>1484.599980</ele>
  <time>2012-05-28T15:06:09Z</time>
</trkpt>
<trkpt lat="46.313740000" lon="7.425420000">
  <ele>1484.599980</ele>
  <time>2012-05-28T15:06:12Z</time>
</trkpt>
<trkpt lat="46.313740000" lon="7.425390000">
  <ele>1485.040040</ele>
  <time>2012-05-28T15:06:13Z</time>
</trkpt>
<trkpt lat="46.313730000" lon="7.425350000">
  <ele>1485.479980</ele>
  <time>2012-05-28T15:06:14Z</time>
</trkpt>
<trkpt lat="46.313730000" lon="7.425320000">
  <ele>1485.920040</ele>
  <time>2012-05-28T15:06:15Z</time>
</trkpt>
<trkpt lat="46.313720000" lon="7.425290000">
  <ele>1486.359990</ele>
  <time>2012-05-28T15:06:16Z</time>
</trkpt>
<trkpt lat="46.313710000" lon="7.425250000">
  <ele>1486.800050</ele>
  <time>2012-05-28T15:06:17Z</time>
</trkpt>
<trkpt lat="46.313680000" lon="7.425150000">
  <ele>1486.800050</ele>
  <time>2012-05-28T15:06:20Z</time>
</trkpt>
<trkpt lat="46.313670000" lon="7.425120000">
  <ele>1487.239990</ele>
  <time>2012-05-28T15:06:21Z</time>
</trkpt>
<trkpt lat="46.313670000" lon="7.425090000">
  <ele>1487.680050</ele>
  <time>2012-05-28T15:06:22Z</time>
</trkpt>
<trkpt lat="46.313660000" lon="7.425050000">
  <ele>1488.120000</ele>
  <time>2012-05-28T15:06:23Z</time>
</trkpt>
<trkpt lat="46.313660000" lon="7.425010000">
  <ele>1488.560060</ele>
  <time>2012-05-28T15:06:24Z</time>
</trkpt>
<trkpt lat="46.313650000" lon="7.424980000">
  <ele>1489.000000</ele>
  <time>2012-05-28T15:06:25Z</time>
</trkpt>
<trkpt lat="46.313630000" lon="7.424870000">
  <ele>1489.000000</ele>
  <time>2012-05-28T15:06:28Z</time>
</trkpt>
<trkpt lat="46.313610000" lon="7.424780000">
  <ele>1489.787480</ele>
  <time>2012-05-28T15:06:31Z</time>
</trkpt>
<trkpt lat="46.313600000" lon="7.424750000">
  <ele>1490.050050</ele>
  <time>2012-05-28T15:06:32Z</time>
</trkpt>
<trkpt lat="46.313590000" lon="7.424710000">
  <ele>1490.312500</ele>
  <time>2012-05-28T15:06:33Z</time>
</trkpt>
<trkpt lat="46.313590000" lon="7.424680000">
  <ele>1490.574950</ele>
  <time>2012-05-28T15:06:34Z</time>
</trkpt>
<trkpt lat="46.313580000" lon="7.424650000">
  <ele>1490.837520</ele>
  <time>2012-05-28T15:06:35Z</time>
</trkpt>
<trkpt lat="46.313530000" lon="7.424490000">
  <ele>1492.149900</ele>
  <time>2012-05-28T15:06:40Z</time>
</trkpt>
<trkpt lat="46.313520000" lon="7.424460000">
  <ele>1492.412480</ele>
  <time>2012-05-28T15:06:41Z</time>
</trkpt>
<trkpt lat="46.313520000" lon="7.424420000">
  <ele>1492.674930</ele>
  <time>2012-05-28T15:06:42Z</time>
</trkpt>
<trkpt lat="46.313510000" lon="7.424390000">
  <ele>1492.937500</ele>
  <time>2012-05-28T15:06:43Z</time>
</trkpt>
<trkpt lat="46.313500000" lon="7.424360000">
  <ele>1493.199950</ele>
  <time>2012-05-28T15:06:44Z</time>
</trkpt>
<trkpt lat="46.313470000" lon="7.424240000">
  <ele>1493.199950</ele>
  <time>2012-05-28T15:06:48Z</time>
</trkpt>
<trkpt lat="46.313460000" lon="7.424210000">
  <ele>1493.640010</ele>
  <time>2012-05-28T15:06:49Z</time>
</trkpt>
<trkpt lat="46.313450000" lon="7.424170000">
  <ele>1494.079960</ele>
  <time>2012-05-28T15:06:50Z</time>
</trkpt>
<trkpt lat="46.313430000" lon="7.424140000">
  <ele>1494.520020</ele>
  <time>2012-05-28T15:06:51Z</time>
</trkpt>
<trkpt lat="46.313430000" lon="7.424110000">
  <ele>1494.959960</ele>
  <time>2012-05-28T15:06:52Z</time>
</trkpt>
<trkpt lat="46.313430000" lon="7.424070000">
  <ele>1495.400020</ele>
  <time>2012-05-28T15:06:53Z</time>
</trkpt>
<trkpt lat="46.313400000" lon="7.423970000">
  <ele>1495.400020</ele>
  <time>2012-05-28T15:06:56Z</time>
</trkpt>
<trkpt lat="46.313380000" lon="7.423880000">
  <ele>1496.239990</ele>
  <time>2012-05-28T15:06:59Z</time>
</trkpt>
<trkpt lat="46.313370000" lon="7.423850000">
  <ele>1496.520020</ele>
  <time>2012-05-28T15:07:00Z</time>
</trkpt>
<trkpt lat="46.313370000" lon="7.423810000">
  <ele>1496.800050</ele>
  <time>2012-05-28T15:07:01Z</time>
</trkpt>
<trkpt lat="46.313360000" lon="7.423790000">
  <ele>1497.079960</ele>
  <time>2012-05-28T15:07:02Z</time>
</trkpt>
<trkpt lat="46.313360000" lon="7.423760000">
  <ele>1497.359990</ele>
  <time>2012-05-28T15:07:03Z</time>
</trkpt>
<trkpt lat="46.313320000" lon="7.423610000">
  <ele>1498.760010</ele>
  <time>2012-05-28T15:07:08Z</time>
</trkpt>
<trkpt lat="46.313300000" lon="7.423580000">
  <ele>1499.040040</ele>
  <time>2012-05-28T15:07:09Z</time>
</trkpt>
<trkpt lat="46.313290000" lon="7.423550000">
  <ele>1499.319950</ele>
  <time>2012-05-28T15:07:10Z</time>
</trkpt>
<trkpt lat="46.313270000" lon="7.423520000">
  <ele>1499.599980</ele>
  <time>2012-05-28T15:07:11Z</time>
</trkpt>
<trkpt lat="46.313230000" lon="7.423390000">
  <ele>1499.599980</ele>
  <time>2012-05-28T15:07:15Z</time>
</trkpt>
<trkpt lat="46.313220000" lon="7.423320000">
  <ele>1500.333370</ele>
  <time>2012-05-28T15:07:17Z</time>
</trkpt>
<trkpt lat="46.313220000" lon="7.423290000">
  <ele>1500.699950</ele>
  <time>2012-05-28T15:07:18Z</time>
</trkpt>
<trkpt lat="46.313220000" lon="7.423250000">
  <ele>1501.066650</ele>
  <time>2012-05-28T15:07:19Z</time>
</trkpt>
<trkpt lat="46.313220000" lon="7.423220000">
  <ele>1501.433350</ele>
  <time>2012-05-28T15:07:20Z</time>
</trkpt>
<trkpt lat="46.313210000" lon="7.423180000">
  <ele>1501.800050</ele>
  <time>2012-05-28T15:07:21Z</time>
</trkpt>
<trkpt lat="46.313210000" lon="7.422980000">
  <ele>1501.800050</ele>
  <time>2012-05-28T15:07:27Z</time>
</trkpt>
<trkpt lat="46.313210000" lon="7.422870000">
  <ele>1502.599980</ele>
  <time>2012-05-28T15:07:30Z</time>
</trkpt>
<trkpt lat="46.313220000" lon="7.422860000">
  <ele>1502.866700</ele>
  <time>2012-05-28T15:07:31Z</time>
</trkpt>
<trkpt lat="46.313260000" lon="7.422900000">
  <ele>1503.400020</ele>
  <time>2012-05-28T15:07:33Z</time>
</trkpt>
<trkpt lat="46.313260000" lon="7.422930000">
  <ele>1503.666630</ele>
  <time>2012-05-28T15:07:34Z</time>
</trkpt>
<trkpt lat="46.313270000" lon="7.422970000">
  <ele>1503.933350</ele>
  <time>2012-05-28T15:07:35Z</time>
</trkpt>
<trkpt lat="46.313270000" lon="7.423000000">
  <ele>1504.199950</ele>
  <time>2012-05-28T15:07:36Z</time>
</trkpt>
<trkpt lat="46.313260000" lon="7.423040000">
  <ele>1504.199950</ele>
  <time>2012-05-28T15:07:37Z</time>
</trkpt>
<trkpt lat="46.313260000" lon="7.423120000">
  <ele>1504.514280</ele>
  <time>2012-05-28T15:07:39Z</time>
</trkpt>
<trkpt lat="46.313260000" lon="7.423320000">
  <ele>1505.300050</ele>
  <time>2012-05-28T15:07:44Z</time>
</trkpt>
<trkpt lat="46.313300000" lon="7.423420000">
  <ele>1505.771480</ele>
  <time>2012-05-28T15:07:47Z</time>
</trkpt>
<trkpt lat="46.313320000" lon="7.423450000">
  <ele>1505.928590</ele>
  <time>2012-05-28T15:07:48Z</time>
</trkpt>
<trkpt lat="46.313340000" lon="7.423480000">
  <ele>1506.085690</ele>
  <time>2012-05-28T15:07:49Z</time>
</trkpt>
<trkpt lat="46.313350000" lon="7.423510000">
  <ele>1506.242920</ele>
  <time>2012-05-28T15:07:50Z</time>
</trkpt>
<trkpt lat="46.313370000" lon="7.423530000">
  <ele>1506.400020</ele>
  <time>2012-05-28T15:07:51Z</time>
</trkpt>
<trkpt lat="46.313450000" lon="7.423670000">
  <ele>1506.400020</ele>
  <time>2012-05-28T15:07:55Z</time>
</trkpt>
<trkpt lat="46.313500000" lon="7.423820000">
  <ele>1507.466670</ele>
  <time>2012-05-28T15:07:59Z</time>
</trkpt>
<trkpt lat="46.313500000" lon="7.423850000">
  <ele>1507.733400</ele>
  <time>2012-05-28T15:08:00Z</time>
</trkpt>
<trkpt lat="46.313510000" lon="7.423890000">
  <ele>1508.000000</ele>
  <time>2012-05-28T15:08:01Z</time>
</trkpt>
<trkpt lat="46.313520000" lon="7.423930000">
  <ele>1508.266720</ele>
  <time>2012-05-28T15:08:02Z</time>
</trkpt>
<trkpt lat="46.313570000" lon="7.424080000">
  <ele>1509.333370</ele>
  <time>2012-05-28T15:08:06Z</time>
</trkpt>
<trkpt lat="46.313580000" lon="7.424120000">
  <ele>1509.599980</ele>
  <time>2012-05-28T15:08:07Z</time>
</trkpt>
<trkpt lat="46.313590000" lon="7.424150000">
  <ele>1509.866700</ele>
  <time>2012-05-28T15:08:08Z</time>
</trkpt>
<trkpt lat="46.313610000" lon="7.424180000">
  <ele>1510.133300</ele>
  <time>2012-05-28T15:08:09Z</time>
</trkpt>
<trkpt lat="46.313620000" lon="7.424210000">
  <ele>1510.400020</ele>
  <time>2012-05-28T15:08:10Z</time>
</trkpt>
<trkpt lat="46.313650000" lon="7.424260000">
  <ele>1510.400020</ele>
  <time>2012-05-28T15:08:12Z</time>
</trkpt>
<trkpt lat="46.313660000" lon="7.424280000">
  <ele>1510.839970</ele>
  <time>2012-05-28T15:08:13Z</time>
</trkpt>
<trkpt lat="46.313670000" lon="7.424310000">
  <ele>1511.280030</ele>
  <time>2012-05-28T15:08:14Z</time>
</trkpt>
<trkpt lat="46.313690000" lon="7.424330000">
  <ele>1511.719970</ele>
  <time>2012-05-28T15:08:15Z</time>
</trkpt>
<trkpt lat="46.313710000" lon="7.424360000">
  <ele>1512.160030</ele>
  <time>2012-05-28T15:08:16Z</time>
</trkpt>
<trkpt lat="46.313720000" lon="7.424390000">
  <ele>1512.599980</ele>
  <time>2012-05-28T15:08:17Z</time>
</trkpt>
<trkpt lat="46.313740000" lon="7.424410000">
  <ele>1512.599980</ele>
  <time>2012-05-28T15:08:18Z</time>
</trkpt>
<trkpt lat="46.313860000" lon="7.424540000">
  <ele>1514.066650</ele>
  <time>2012-05-28T15:08:24Z</time>
</trkpt>
<trkpt lat="46.313880000" lon="7.424570000">
  <ele>1514.311160</ele>
  <time>2012-05-28T15:08:25Z</time>
</trkpt>
<trkpt lat="46.313890000" lon="7.424600000">
  <ele>1514.555540</ele>
  <time>2012-05-28T15:08:26Z</time>
</trkpt>
<trkpt lat="46.313910000" lon="7.424630000">
  <ele>1514.800050</ele>
  <time>2012-05-28T15:08:27Z</time>
</trkpt>
<trkpt lat="46.313950000" lon="7.424730000">
  <ele>1514.800050</ele>
  <time>2012-05-28T15:08:30Z</time>
</trkpt>
<trkpt lat="46.313960000" lon="7.424800000">
  <ele>1515.533330</ele>
  <time>2012-05-28T15:08:32Z</time>
</trkpt>
<trkpt lat="46.313960000" lon="7.424840000">
  <ele>1515.900020</ele>
  <time>2012-05-28T15:08:33Z</time>
</trkpt>
<trkpt lat="46.313980000" lon="7.424870000">
  <ele>1516.266720</ele>
  <time>2012-05-28T15:08:34Z</time>
</trkpt>
<trkpt lat="46.313980000" lon="7.424900000">
  <ele>1516.633300</ele>
  <time>2012-05-28T15:08:35Z</time>
</trkpt>
<trkpt lat="46.313990000" lon="7.424930000">
  <ele>1517.000000</ele>
  <time>2012-05-28T15:08:36Z</time>
</trkpt>
<trkpt lat="46.314010000" lon="7.425070000">
  <ele>1517.000000</ele>
  <time>2012-05-28T15:08:40Z</time>
</trkpt>
<trkpt lat="46.314030000" lon="7.425140000">
  <ele>1517.666630</ele>
  <time>2012-05-28T15:08:42Z</time>
</trkpt>
<trkpt lat="46.314030000" lon="7.425180000">
  <ele>1518.000000</ele>
  <time>2012-05-28T15:08:43Z</time>
</trkpt>
<trkpt lat="46.314040000" lon="7.425210000">
  <ele>1518.333370</ele>
  <time>2012-05-28T15:08:44Z</time>
</trkpt>
<trkpt lat="46.314040000" lon="7.425250000">
  <ele>1518.666630</ele>
  <time>2012-05-28T15:08:45Z</time>
</trkpt>
<trkpt lat="46.314040000" lon="7.425290000">
  <ele>1519.000000</ele>
  <time>2012-05-28T15:08:46Z</time>
</trkpt>
<trkpt lat="46.314040000" lon="7.425360000">
  <ele>1519.000000</ele>
  <time>2012-05-28T15:08:48Z</time>
</trkpt>
<trkpt lat="46.314040000" lon="7.425460000">
  <ele>1519.839970</ele>
  <time>2012-05-28T15:08:51Z</time>
</trkpt>
<trkpt lat="46.314040000" lon="7.425490000">
  <ele>1520.120000</ele>
  <time>2012-05-28T15:08:52Z</time>
</trkpt>
<trkpt lat="46.314040000" lon="7.425520000">
  <ele>1520.400020</ele>
  <time>2012-05-28T15:08:53Z</time>
</trkpt>
<trkpt lat="46.314040000" lon="7.425560000">
  <ele>1520.679930</ele>
  <time>2012-05-28T15:08:54Z</time>
</trkpt>
<trkpt lat="46.314040000" lon="7.425590000">
  <ele>1520.959960</ele>
  <time>2012-05-28T15:08:55Z</time>
</trkpt>
<trkpt lat="46.314060000" lon="7.425730000">
  <ele>1522.079960</ele>
  <time>2012-05-28T15:08:59Z</time>
</trkpt>
<trkpt lat="46.314070000" lon="7.425760000">
  <ele>1522.359990</ele>
  <time>2012-05-28T15:09:00Z</time>
</trkpt>
<trkpt lat="46.314080000" lon="7.425790000">
  <ele>1522.640010</ele>
  <time>2012-05-28T15:09:01Z</time>
</trkpt>
<trkpt lat="46.314080000" lon="7.425820000">
  <ele>1522.919920</ele>
  <time>2012-05-28T15:09:02Z</time>
</trkpt>
<trkpt lat="46.314100000" lon="7.425840000">
  <ele>1523.199950</ele>
  <time>2012-05-28T15:09:03Z</time>
</trkpt>
<trkpt lat="46.314140000" lon="7.425930000">
  <ele>1523.199950</ele>
  <time>2012-05-28T15:09:06Z</time>
</trkpt>
<trkpt lat="46.314150000" lon="7.425960000">
  <ele>1523.640010</ele>
  <time>2012-05-28T15:09:07Z</time>
</trkpt>
<trkpt lat="46.314160000" lon="7.426000000">
  <ele>1524.079960</ele>
  <time>2012-05-28T15:09:08Z</time>
</trkpt>
<trkpt lat="46.314170000" lon="7.426030000">
  <ele>1524.520020</ele>
  <time>2012-05-28T15:09:09Z</time>
</trkpt>
<trkpt lat="46.314180000" lon="7.426060000">
  <ele>1524.959960</ele>
  <time>2012-05-28T15:09:10Z</time>
</trkpt>
<trkpt lat="46.314190000" lon="7.426090000">
  <ele>1525.400020</ele>
  <time>2012-05-28T15:09:11Z</time>
</trkpt>
<trkpt lat="46.314200000" lon="7.426130000">
  <ele>1525.400020</ele>
  <time>2012-05-28T15:09:12Z</time>
</trkpt>
<trkpt lat="46.314240000" lon="7.426270000">
  <ele>1526.622190</ele>
  <time>2012-05-28T15:09:17Z</time>
</trkpt>
<trkpt lat="46.314250000" lon="7.426300000">
  <ele>1526.866700</ele>
  <time>2012-05-28T15:09:18Z</time>
</trkpt>
<trkpt lat="46.314260000" lon="7.426330000">
  <ele>1527.111080</ele>
  <time>2012-05-28T15:09:19Z</time>
</trkpt>
<trkpt lat="46.314270000" lon="7.426350000">
  <ele>1527.355590</ele>
  <time>2012-05-28T15:09:20Z</time>
</trkpt>
<trkpt lat="46.314270000" lon="7.426380000">
  <ele>1527.599980</ele>
  <time>2012-05-28T15:09:21Z</time>
</trkpt>
<trkpt lat="46.314310000" lon="7.426460000">
  <ele>1527.599980</ele>
  <time>2012-05-28T15:09:24Z</time>
</trkpt>
<trkpt lat="46.314330000" lon="7.426490000">
  <ele>1528.000000</ele>
  <time>2012-05-28T15:09:25Z</time>
</trkpt>
<trkpt lat="46.314340000" lon="7.426520000">
  <ele>1528.400020</ele>
  <time>2012-05-28T15:09:26Z</time>
</trkpt>
<trkpt lat="46.314340000" lon="7.426550000">
  <ele>1528.799930</ele>
  <time>2012-05-28T15:09:27Z</time>
</trkpt>
<trkpt lat="46.314350000" lon="7.426580000">
  <ele>1529.199950</ele>
  <time>2012-05-28T15:09:28Z</time>
</trkpt>
<trkpt lat="46.314360000" lon="7.426610000">
  <ele>1529.599980</ele>
  <time>2012-05-28T15:09:29Z</time>
</trkpt>
<trkpt lat="46.314380000" lon="7.426670000">
  <ele>1529.599980</ele>
  <time>2012-05-28T15:09:31Z</time>
</trkpt>
<trkpt lat="46.314420000" lon="7.426750000">
  <ele>1530.479980</ele>
  <time>2012-05-28T15:09:34Z</time>
</trkpt>
<trkpt lat="46.314430000" lon="7.426780000">
  <ele>1530.773320</ele>
  <time>2012-05-28T15:09:35Z</time>
</trkpt>
<trkpt lat="46.314450000" lon="7.426810000">
  <ele>1531.066650</ele>
  <time>2012-05-28T15:09:36Z</time>
</trkpt>
<trkpt lat="46.314460000" lon="7.426840000">
  <ele>1531.359990</ele>
  <time>2012-05-28T15:09:37Z</time>
</trkpt>
<trkpt lat="46.314480000" lon="7.426870000">
  <ele>1531.653320</ele>
  <time>2012-05-28T15:09:38Z</time>
</trkpt>
<trkpt lat="46.314540000" lon="7.426990000">
  <ele>1532.826660</ele>
  <time>2012-05-28T15:09:42Z</time>
</trkpt>
<trkpt lat="46.314560000" lon="7.427010000">
  <ele>1533.120000</ele>
  <time>2012-05-28T15:09:43Z</time>
</trkpt>
<trkpt lat="46.314580000" lon="7.427030000">
  <ele>1533.413330</ele>
  <time>2012-05-28T15:09:44Z</time>
</trkpt>
<trkpt lat="46.314590000" lon="7.427060000">
  <ele>1533.706670</ele>
  <time>2012-05-28T15:09:45Z</time>
</trkpt>
<trkpt lat="46.314610000" lon="7.427080000">
  <ele>1534.000000</ele>
  <time>2012-05-28T15:09:46Z</time>
</trkpt>
<trkpt lat="46.314670000" lon="7.427190000">
  <ele>1534.000000</ele>
  <time>2012-05-28T15:09:50Z</time>
</trkpt>
<trkpt lat="46.314700000" lon="7.427230000">
  <ele>1534.599980</ele>
  <time>2012-05-28T15:09:52Z</time>
</trkpt>
<trkpt lat="46.314710000" lon="7.427250000">
  <ele>1534.900020</ele>
  <time>2012-05-28T15:09:53Z</time>
</trkpt>
<trkpt lat="46.314730000" lon="7.427280000">
  <ele>1535.199950</ele>
  <time>2012-05-28T15:09:54Z</time>
</trkpt>
<trkpt lat="46.314750000" lon="7.427300000">
  <ele>1535.500000</ele>
  <time>2012-05-28T15:09:55Z</time>
</trkpt>
<trkpt lat="46.314770000" lon="7.427320000">
  <ele>1535.800050</ele>
  <time>2012-05-28T15:09:56Z</time>
</trkpt>
<trkpt lat="46.314830000" lon="7.427430000">
  <ele>1537.000000</ele>
  <time>2012-05-28T15:10:00Z</time>
</trkpt>
<trkpt lat="46.314850000" lon="7.427450000">
  <ele>1537.300050</ele>
  <time>2012-05-28T15:10:01Z</time>
</trkpt>
<trkpt lat="46.314860000" lon="7.427480000">
  <ele>1537.599980</ele>
  <time>2012-05-28T15:10:02Z</time>
</trkpt>
<trkpt lat="46.314880000" lon="7.427520000">
  <ele>1537.900020</ele>
  <time>2012-05-28T15:10:03Z</time>
</trkpt>
<trkpt lat="46.314900000" lon="7.427550000">
  <ele>1538.199950</ele>
  <time>2012-05-28T15:10:04Z</time>
</trkpt>
<trkpt lat="46.314960000" lon="7.427670000">
  <ele>1539.400020</ele>
  <time>2012-05-28T15:10:08Z</time>
</trkpt>
<trkpt lat="46.314980000" lon="7.427690000">
  <ele>1539.699950</ele>
  <time>2012-05-28T15:10:09Z</time>
</trkpt>
<trkpt lat="46.315000000" lon="7.427720000">
  <ele>1540.000000</ele>
  <time>2012-05-28T15:10:10Z</time>
</trkpt>
<trkpt lat="46.315020000" lon="7.427750000">
  <ele>1540.299930</ele>
  <time>2012-05-28T15:10:11Z</time>
</trkpt>
<trkpt lat="46.315030000" lon="7.427770000">
  <ele>1540.599980</ele>
  <time>2012-05-28T15:10:12Z</time>
</trkpt>
<trkpt lat="46.315110000" lon="7.427870000">
  <ele>1540.599980</ele>
  <time>2012-05-28T15:10:16Z</time>
</trkpt>
<trkpt lat="46.315130000" lon="7.427910000">
  <ele>1541.000000</ele>
  <time>2012-05-28T15:10:17Z</time>
</trkpt>
<trkpt lat="46.315150000" lon="7.427930000">
  <ele>1541.400020</ele>
  <time>2012-05-28T15:10:18Z</time>
</trkpt>
<trkpt lat="46.315170000" lon="7.427960000">
  <ele>1541.799930</ele>
  <time>2012-05-28T15:10:19Z</time>
</trkpt>
<trkpt lat="46.315180000" lon="7.427970000">
  <ele>1542.199950</ele>
  <time>2012-05-28T15:10:20Z</time>
</trkpt>
<trkpt lat="46.315190000" lon="7.428000000">
  <ele>1542.599980</ele>
  <time>2012-05-28T15:10:21Z</time>
</trkpt>
<trkpt lat="46.315200000" lon="7.428030000">
  <ele>1542.599980</ele>
  <time>2012-05-28T15:10:22Z</time>
</trkpt>
<trkpt lat="46.315270000" lon="7.428180000">
  <ele>1543.666630</ele>
  <time>2012-05-28T15:10:26Z</time>
</trkpt>
<trkpt lat="46.315290000" lon="7.428220000">
  <ele>1543.933350</ele>
  <time>2012-05-28T15:10:27Z</time>
</trkpt>
<trkpt lat="46.315320000" lon="7.428250000">
  <ele>1544.199950</ele>
  <time>2012-05-28T15:10:28Z</time>
</trkpt>
<trkpt lat="46.315330000" lon="7.428290000">
  <ele>1544.466670</ele>
  <time>2012-05-28T15:10:29Z</time>
</trkpt>
<trkpt lat="46.315410000" lon="7.428470000">
  <ele>1545.800050</ele>
  <time>2012-05-28T15:10:34Z</time>
</trkpt>
<trkpt lat="46.315430000" lon="7.428500000">
  <ele>1546.066650</ele>
  <time>2012-05-28T15:10:35Z</time>
</trkpt>
<trkpt lat="46.315450000" lon="7.428530000">
  <ele>1546.333370</ele>
  <time>2012-05-28T15:10:36Z</time>
</trkpt>
<trkpt lat="46.315460000" lon="7.428560000">
  <ele>1546.599980</ele>
  <time>2012-05-28T15:10:37Z</time>
</trkpt>
<trkpt lat="46.315480000" lon="7.428590000">
  <ele>1546.866700</ele>
  <time>2012-05-28T15:10:38Z</time>
</trkpt>
<trkpt lat="46.315540000" lon="7.428700000">
  <ele>1547.933350</ele>
  <time>2012-05-28T15:10:42Z</time>
</trkpt>
<trkpt lat="46.315550000" lon="7.428730000">
  <ele>1548.199950</ele>
  <time>2012-05-28T15:10:43Z</time>
</trkpt>
<trkpt lat="46.315570000" lon="7.428760000">
  <ele>1548.466670</ele>
  <time>2012-05-28T15:10:44Z</time>
</trkpt>
<trkpt lat="46.315590000" lon="7.428780000">
  <ele>1548.733280</ele>
  <time>2012-05-28T15:10:45Z</time>
</trkpt>
<trkpt lat="46.315610000" lon="7.428800000">
  <ele>1549.000000</ele>
  <time>2012-05-28T15:10:46Z</time>
</trkpt>
<trkpt lat="46.315650000" lon="7.428860000">
  <ele>1549.000000</ele>
  <time>2012-05-28T15:10:48Z</time>
</trkpt>
<trkpt lat="46.315710000" lon="7.428950000">
  <ele>1549.900020</ele>
  <time>2012-05-28T15:10:51Z</time>
</trkpt>
<trkpt lat="46.315730000" lon="7.428980000">
  <ele>1550.199950</ele>
  <time>2012-05-28T15:10:52Z</time>
</trkpt>
<trkpt lat="46.315750000" lon="7.429010000">
  <ele>1550.500000</ele>
  <time>2012-05-28T15:10:53Z</time>
</trkpt>
<trkpt lat="46.315770000" lon="7.429040000">
  <ele>1550.799930</ele>
  <time>2012-05-28T15:10:54Z</time>
</trkpt>
<trkpt lat="46.315830000" lon="7.429150000">
  <ele>1552.000000</ele>
  <time>2012-05-28T15:10:58Z</time>
</trkpt>
<trkpt lat="46.315850000" lon="7.429180000">
  <ele>1552.299930</ele>
  <time>2012-05-28T15:10:59Z</time>
</trkpt>
<trkpt lat="46.315860000" lon="7.429200000">
  <ele>1552.599980</ele>
  <time>2012-05-28T15:11:00Z</time>
</trkpt>
<trkpt lat="46.315880000" lon="7.429230000">
  <ele>1552.899900</ele>
  <time>2012-05-28T15:11:01Z</time>
</trkpt>
<trkpt lat="46.315900000" lon="7.429250000">
  <ele>1553.199950</ele>
  <time>2012-05-28T15:11:02Z</time>
</trkpt>
<trkpt lat="46.315980000" lon="7.429340000">
  <ele>1553.199950</ele>
  <time>2012-05-28T15:11:06Z</time>
</trkpt>
<trkpt lat="46.316010000" lon="7.429360000">
  <ele>1553.511110</ele>
  <time>2012-05-28T15:11:07Z</time>
</trkpt>
<trkpt lat="46.316030000" lon="7.429390000">
  <ele>1553.822140</ele>
  <time>2012-05-28T15:11:08Z</time>
</trkpt>
<trkpt lat="46.316060000" lon="7.429420000">
  <ele>1554.133300</ele>
  <time>2012-05-28T15:11:09Z</time>
</trkpt>
<trkpt lat="46.316080000" lon="7.429450000">
  <ele>1554.444460</ele>
  <time>2012-05-28T15:11:10Z</time>
</trkpt>
<trkpt lat="46.316100000" lon="7.429480000">
  <ele>1554.755490</ele>
  <time>2012-05-28T15:11:11Z</time>
</trkpt>
<trkpt lat="46.316180000" lon="7.429600000">
  <ele>1556.000000</ele>
  <time>2012-05-28T15:11:15Z</time>
</trkpt>
<trkpt lat="46.316200000" lon="7.429630000">
  <ele>1556.311040</ele>
  <time>2012-05-28T15:11:16Z</time>
</trkpt>
<trkpt lat="46.316210000" lon="7.429660000">
  <ele>1556.622190</ele>
  <time>2012-05-28T15:11:17Z</time>
</trkpt>
<trkpt lat="46.316230000" lon="7.429680000">
  <ele>1556.933350</ele>
  <time>2012-05-28T15:11:18Z</time>
</trkpt>
<trkpt lat="46.316290000" lon="7.429750000">
  <ele>1557.866580</ele>
  <time>2012-05-28T15:11:21Z</time>
</trkpt>
<trkpt lat="46.316310000" lon="7.429770000">
  <ele>1558.177730</ele>
  <time>2012-05-28T15:11:22Z</time>
</trkpt>
<trkpt lat="46.316330000" lon="7.429790000">
  <ele>1558.488890</ele>
  <time>2012-05-28T15:11:23Z</time>
</trkpt>
<trkpt lat="46.316360000" lon="7.429810000">
  <ele>1558.799930</ele>
  <time>2012-05-28T15:11:24Z</time>
</trkpt>
<trkpt lat="46.316390000" lon="7.429820000">
  <ele>1559.111080</ele>
  <time>2012-05-28T15:11:25Z</time>
</trkpt>
<trkpt lat="46.316500000" lon="7.429870000">
  <ele>1560.355470</ele>
  <time>2012-05-28T15:11:29Z</time>
</trkpt>
<trkpt lat="46.316530000" lon="7.429880000">
  <ele>1560.666630</ele>
  <time>2012-05-28T15:11:30Z</time>
</trkpt>
<trkpt lat="46.316550000" lon="7.429900000">
  <ele>1560.977780</ele>
  <time>2012-05-28T15:11:31Z</time>
</trkpt>
<trkpt lat="46.316570000" lon="7.429920000">
  <ele>1561.288820</ele>
  <time>2012-05-28T15:11:32Z</time>
</trkpt>
<trkpt lat="46.316590000" lon="7.429940000">
  <ele>1561.599980</ele>
  <time>2012-05-28T15:11:33Z</time>
</trkpt>
<trkpt lat="46.316640000" lon="7.429990000">
  <ele>1561.599980</ele>
  <time>2012-05-28T15:11:35Z</time>
</trkpt>
<trkpt lat="46.316700000" lon="7.430050000">
  <ele>1562.472660</ele>
  <time>2012-05-28T15:11:38Z</time>
</trkpt>
<trkpt lat="46.316720000" lon="7.430070000">
  <ele>1562.763670</ele>
  <time>2012-05-28T15:11:39Z</time>
</trkpt>
<trkpt lat="46.316740000" lon="7.430090000">
  <ele>1563.054570</ele>
  <time>2012-05-28T15:11:40Z</time>
</trkpt>
<trkpt lat="46.316760000" lon="7.430120000">
  <ele>1563.345460</ele>
  <time>2012-05-28T15:11:41Z</time>
</trkpt>
<trkpt lat="46.316780000" lon="7.430130000">
  <ele>1563.636350</ele>
  <time>2012-05-28T15:11:42Z</time>
</trkpt>
<trkpt lat="46.316870000" lon="7.430190000">
  <ele>1564.800050</ele>
  <time>2012-05-28T15:11:46Z</time>
</trkpt>
<trkpt lat="46.316890000" lon="7.430210000">
  <ele>1565.090940</ele>
  <time>2012-05-28T15:11:47Z</time>
</trkpt>
<trkpt lat="46.316910000" lon="7.430230000">
  <ele>1565.381840</ele>
  <time>2012-05-28T15:11:48Z</time>
</trkpt>
<trkpt lat="46.316930000" lon="7.430250000">
  <ele>1565.672730</ele>
  <time>2012-05-28T15:11:49Z</time>
</trkpt>
<trkpt lat="46.316950000" lon="7.430270000">
  <ele>1565.963620</ele>
  <time>2012-05-28T15:11:50Z</time>
</trkpt>
<trkpt lat="46.317010000" lon="7.430320000">
  <ele>1566.836300</ele>
  <time>2012-05-28T15:11:53Z</time>
</trkpt>
<trkpt lat="46.317020000" lon="7.430350000">
  <ele>1567.127320</ele>
  <time>2012-05-28T15:11:54Z</time>
</trkpt>
<trkpt lat="46.317040000" lon="7.430370000">
  <ele>1567.418210</ele>
  <time>2012-05-28T15:11:55Z</time>
</trkpt>
<trkpt lat="46.317050000" lon="7.430400000">
  <ele>1567.709110</ele>
  <time>2012-05-28T15:11:56Z</time>
</trkpt>
<trkpt lat="46.317070000" lon="7.430430000">
  <ele>1568.000000</ele>
  <time>2012-05-28T15:11:57Z</time>
</trkpt>
<trkpt lat="46.317080000" lon="7.430470000">
  <ele>1568.000000</ele>
  <time>2012-05-28T15:11:58Z</time>
</trkpt>
<trkpt lat="46.317120000" lon="7.430600000">
  <ele>1569.066650</ele>
  <time>2012-05-28T15:12:02Z</time>
</trkpt>
<trkpt lat="46.317140000" lon="7.430630000">
  <ele>1569.333370</ele>
  <time>2012-05-28T15:12:03Z</time>
</trkpt>
<trkpt lat="46.317160000" lon="7.430660000">
  <ele>1569.599980</ele>
  <time>2012-05-28T15:12:04Z</time>
</trkpt>
<trkpt lat="46.317180000" lon="7.430680000">
  <ele>1569.866700</ele>
  <time>2012-05-28T15:12:05Z</time>
</trkpt>
<trkpt lat="46.317200000" lon="7.430710000">
  <ele>1570.133300</ele>
  <time>2012-05-28T15:12:06Z</time>
</trkpt>
<trkpt lat="46.317210000" lon="7.430750000">
  <ele>1570.400020</ele>
  <time>2012-05-28T15:12:07Z</time>
</trkpt>
<trkpt lat="46.317250000" lon="7.430820000">
  <ele>1570.400020</ele>
  <time>2012-05-28T15:12:09Z</time>
</trkpt>
<trkpt lat="46.317280000" lon="7.430880000">
  <ele>1571.066650</ele>
  <time>2012-05-28T15:12:11Z</time>
</trkpt>
<trkpt lat="46.317290000" lon="7.430920000">
  <ele>1571.400020</ele>
  <time>2012-05-28T15:12:12Z</time>
</trkpt>
<trkpt lat="46.317310000" lon="7.430950000">
  <ele>1571.733400</ele>
  <time>2012-05-28T15:12:13Z</time>
</trkpt>
<trkpt lat="46.317320000" lon="7.430980000">
  <ele>1572.066650</ele>
  <time>2012-05-28T15:12:14Z</time>
</trkpt>
<trkpt lat="46.317330000" lon="7.431020000">
  <ele>1572.400020</ele>
  <time>2012-05-28T15:12:15Z</time>
</trkpt>
<trkpt lat="46.317340000" lon="7.431060000">
  <ele>1572.400020</ele>
  <time>2012-05-28T15:12:16Z</time>
</trkpt>
<trkpt lat="46.317390000" lon="7.431160000">
  <ele>1573.342900</ele>
  <time>2012-05-28T15:12:19Z</time>
</trkpt>
<trkpt lat="46.317400000" lon="7.431190000">
  <ele>1573.657100</ele>
  <time>2012-05-28T15:12:20Z</time>
</trkpt>
<trkpt lat="46.317410000" lon="7.431220000">
  <ele>1573.971440</ele>
  <time>2012-05-28T15:12:21Z</time>
</trkpt>
<trkpt lat="46.317420000" lon="7.431260000">
  <ele>1574.285640</ele>
  <time>2012-05-28T15:12:22Z</time>
</trkpt>
<trkpt lat="46.317430000" lon="7.431300000">
  <ele>1574.599980</ele>
  <time>2012-05-28T15:12:23Z</time>
</trkpt>
<trkpt lat="46.317440000" lon="7.431330000">
  <ele>1574.599980</ele>
  <time>2012-05-28T15:12:24Z</time>
</trkpt>
<trkpt lat="46.317510000" lon="7.431540000">
  <ele>1576.066650</ele>
  <time>2012-05-28T15:12:30Z</time>
</trkpt>
<trkpt lat="46.317520000" lon="7.431570000">
  <ele>1576.311160</ele>
  <time>2012-05-28T15:12:31Z</time>
</trkpt>
<trkpt lat="46.317530000" lon="7.431600000">
  <ele>1576.555540</ele>
  <time>2012-05-28T15:12:32Z</time>
</trkpt>
<trkpt lat="46.317550000" lon="7.431630000">
  <ele>1576.800050</ele>
  <time>2012-05-28T15:12:33Z</time>
</trkpt>
<trkpt lat="46.317650000" lon="7.431740000">
  <ele>1576.800050</ele>
  <time>2012-05-28T15:12:38Z</time>
</trkpt>
<trkpt lat="46.318020000" lon="7.432150000">
  <ele>1582.312500</ele>
  <time>2012-05-28T15:12:59Z</time>
</trkpt>
<trkpt lat="46.318050000" lon="7.432230000">
  <ele>1582.574950</ele>
  <time>2012-05-28T15:13:00Z</time>
</trkpt>
<trkpt lat="46.318070000" lon="7.432270000">
  <ele>1582.837520</ele>
  <time>2012-05-28T15:13:01Z</time>
</trkpt>
<trkpt lat="46.318090000" lon="7.432290000">
  <ele>1583.099980</ele>
  <time>2012-05-28T15:13:02Z</time>
</trkpt>
<trkpt lat="46.318180000" lon="7.432360000">
  <ele>1584.149900</ele>
  <time>2012-05-28T15:13:06Z</time>
</trkpt>
<trkpt lat="46.318200000" lon="7.432390000">
  <ele>1584.412480</ele>
  <time>2012-05-28T15:13:07Z</time>
</trkpt>
<trkpt lat="46.318210000" lon="7.432420000">
  <ele>1584.674930</ele>
  <time>2012-05-28T15:13:08Z</time>
</trkpt>
<trkpt lat="46.318230000" lon="7.432450000">
  <ele>1584.937500</ele>
  <time>2012-05-28T15:13:09Z</time>
</trkpt>
<trkpt lat="46.318240000" lon="7.432470000">
  <ele>1585.199950</ele>
  <time>2012-05-28T15:13:10Z</time>
</trkpt>
<trkpt lat="46.318360000" lon="7.432590000">
  <ele>1585.199950</ele>
  <time>2012-05-28T15:13:16Z</time>
</trkpt>
<trkpt lat="46.318410000" lon="7.432630000">
  <ele>1586.079960</ele>
  <time>2012-05-28T15:13:18Z</time>
</trkpt>
<trkpt lat="46.318420000" lon="7.432650000">
  <ele>1586.520020</ele>
  <time>2012-05-28T15:13:19Z</time>
</trkpt>
<trkpt lat="46.318450000" lon="7.432660000">
  <ele>1586.959960</ele>
  <time>2012-05-28T15:13:20Z</time>
</trkpt>
<trkpt lat="46.318470000" lon="7.432680000">
  <ele>1587.400020</ele>
  <time>2012-05-28T15:13:21Z</time>
</trkpt>
<trkpt lat="46.318530000" lon="7.432730000">
  <ele>1587.400020</ele>
  <time>2012-05-28T15:13:24Z</time>
</trkpt>
<trkpt lat="46.318600000" lon="7.432790000">
  <ele>1588.342900</ele>
  <time>2012-05-28T15:13:27Z</time>
</trkpt>
<trkpt lat="46.318610000" lon="7.432810000">
  <ele>1588.657100</ele>
  <time>2012-05-28T15:13:28Z</time>
</trkpt>
<trkpt lat="46.318630000" lon="7.432830000">
  <ele>1588.971440</ele>
  <time>2012-05-28T15:13:29Z</time>
</trkpt>
<trkpt lat="46.318660000" lon="7.432850000">
  <ele>1589.285640</ele>
  <time>2012-05-28T15:13:30Z</time>
</trkpt>
<trkpt lat="46.318680000" lon="7.432870000">
  <ele>1589.599980</ele>
  <time>2012-05-28T15:13:31Z</time>
</trkpt>
<trkpt lat="46.318790000" lon="7.432980000">
  <ele>1589.599980</ele>
  <time>2012-05-28T15:13:37Z</time>
</trkpt>
<trkpt lat="46.318810000" lon="7.433000000">
  <ele>1590.040040</ele>
  <time>2012-05-28T15:13:38Z</time>
</trkpt>
<trkpt lat="46.318830000" lon="7.433020000">
  <ele>1590.479980</ele>
  <time>2012-05-28T15:13:39Z</time>
</trkpt>
<trkpt lat="46.318850000" lon="7.433040000">
  <ele>1590.920040</ele>
  <time>2012-05-28T15:13:40Z</time>
</trkpt>
<trkpt lat="46.318870000" lon="7.433050000">
  <ele>1591.359990</ele>
  <time>2012-05-28T15:13:41Z</time>
</trkpt>
<trkpt lat="46.318890000" lon="7.433060000">
  <ele>1591.800050</ele>
  <time>2012-05-28T15:13:42Z</time>
</trkpt>
<trkpt lat="46.318920000" lon="7.433080000">
  <ele>1591.800050</ele>
  <time>2012-05-28T15:13:43Z</time>
</trkpt>
<trkpt lat="46.318940000" lon="7.433090000">
  <ele>1592.400020</ele>
  <time>2012-05-28T15:13:44Z</time>
</trkpt>
<trkpt lat="46.318970000" lon="7.433100000">
  <ele>1593.000000</ele>
  <time>2012-05-28T15:13:45Z</time>
</trkpt>
<trkpt lat="46.318990000" lon="7.433100000">
  <ele>1593.599980</ele>
  <time>2012-05-28T15:13:46Z</time>
</trkpt>
<trkpt lat="46.319020000" lon="7.433090000">
  <ele>1594.199950</ele>
  <time>2012-05-28T15:13:47Z</time>
</trkpt>
<trkpt lat="46.319080000" lon="7.433100000">
  <ele>1594.199950</ele>
  <time>2012-05-28T15:13:50Z</time>
</trkpt>
<trkpt lat="46.319200000" lon="7.433120000">
  <ele>1595.311040</ele>
  <time>2012-05-28T15:13:55Z</time>
</trkpt>
<trkpt lat="46.319230000" lon="7.433130000">
  <ele>1595.533330</ele>
  <time>2012-05-28T15:13:56Z</time>
</trkpt>
<trkpt lat="46.319260000" lon="7.433130000">
  <ele>1595.755490</ele>
  <time>2012-05-28T15:13:57Z</time>
</trkpt>
<trkpt lat="46.319280000" lon="7.433140000">
  <ele>1595.977780</ele>
  <time>2012-05-28T15:13:58Z</time>
</trkpt>
<trkpt lat="46.319300000" lon="7.433140000">
  <ele>1596.199950</ele>
  <time>2012-05-28T15:13:59Z</time>
</trkpt>
<trkpt lat="46.319370000" lon="7.433170000">
  <ele>1596.199950</ele>
  <time>2012-05-28T15:14:02Z</time>
</trkpt>
<trkpt lat="46.319460000" lon="7.433190000">
  <ele>1597.133300</ele>
  <time>2012-05-28T15:14:06Z</time>
</trkpt>
<trkpt lat="46.319480000" lon="7.433200000">
  <ele>1597.366700</ele>
  <time>2012-05-28T15:14:07Z</time>
</trkpt>
<trkpt lat="46.319500000" lon="7.433200000">
  <ele>1597.599980</ele>
  <time>2012-05-28T15:14:08Z</time>
</trkpt>
<trkpt lat="46.319530000" lon="7.433210000">
  <ele>1597.833250</ele>
  <time>2012-05-28T15:14:09Z</time>
</trkpt>
<trkpt lat="46.319550000" lon="7.433200000">
  <ele>1598.066650</ele>
  <time>2012-05-28T15:14:10Z</time>
</trkpt>
<trkpt lat="46.319690000" lon="7.433220000">
  <ele>1599.466670</ele>
  <time>2012-05-28T15:14:16Z</time>
</trkpt>
<trkpt lat="46.319710000" lon="7.433220000">
  <ele>1599.699950</ele>
  <time>2012-05-28T15:14:17Z</time>
</trkpt>
<trkpt lat="46.319730000" lon="7.433220000">
  <ele>1599.933350</ele>
  <time>2012-05-28T15:14:18Z</time>
</trkpt>
<trkpt lat="46.319750000" lon="7.433220000">
  <ele>1600.166750</ele>
  <time>2012-05-28T15:14:19Z</time>
</trkpt>
<trkpt lat="46.319780000" lon="7.433220000">
  <ele>1600.400020</ele>
  <time>2012-05-28T15:14:20Z</time>
</trkpt>
<trkpt lat="46.319810000" lon="7.433220000">
  <ele>1600.400020</ele>
  <time>2012-05-28T15:14:21Z</time>
</trkpt>
<trkpt lat="46.319880000" lon="7.433250000">
  <ele>1601.257200</ele>
  <time>2012-05-28T15:14:24Z</time>
</trkpt>
<trkpt lat="46.319900000" lon="7.433260000">
  <ele>1601.542850</ele>
  <time>2012-05-28T15:14:25Z</time>
</trkpt>
<trkpt lat="46.319920000" lon="7.433270000">
  <ele>1601.828610</ele>
  <time>2012-05-28T15:14:26Z</time>
</trkpt>
<trkpt lat="46.319950000" lon="7.433290000">
  <ele>1602.114260</ele>
  <time>2012-05-28T15:14:27Z</time>
</trkpt>
<trkpt lat="46.319970000" lon="7.433310000">
  <ele>1602.400020</ele>
  <time>2012-05-28T15:14:28Z</time>
</trkpt>
<trkpt lat="46.320030000" lon="7.433410000">
  <ele>1602.400020</ele>
  <time>2012-05-28T15:14:32Z</time>
</trkpt>
<trkpt lat="46.320050000" lon="7.433430000">
  <ele>1603.000000</ele>
  <time>2012-05-28T15:14:33Z</time>
</trkpt>
<trkpt lat="46.320060000" lon="7.433450000">
  <ele>1603.600100</ele>
  <time>2012-05-28T15:14:34Z</time>
</trkpt>
<trkpt lat="46.320080000" lon="7.433480000">
  <ele>1604.200070</ele>
  <time>2012-05-28T15:14:35Z</time>
</trkpt>
<trkpt lat="46.320100000" lon="7.433500000">
  <ele>1604.800050</ele>
  <time>2012-05-28T15:14:36Z</time>
</trkpt>
<trkpt lat="46.320180000" lon="7.433570000">
  <ele>1604.800050</ele>
  <time>2012-05-28T15:14:40Z</time>
</trkpt>
<trkpt lat="46.320220000" lon="7.433600000">
  <ele>1605.599980</ele>
  <time>2012-05-28T15:14:42Z</time>
</trkpt>
<trkpt lat="46.320240000" lon="7.433620000">
  <ele>1606.000000</ele>
  <time>2012-05-28T15:14:43Z</time>
</trkpt>
<trkpt lat="46.320260000" lon="7.433630000">
  <ele>1606.400020</ele>
  <time>2012-05-28T15:14:44Z</time>
</trkpt>
<trkpt lat="46.320290000" lon="7.433650000">
  <ele>1606.799930</ele>
  <time>2012-05-28T15:14:45Z</time>
</trkpt>
<trkpt lat="46.320300000" lon="7.433660000">
  <ele>1607.199950</ele>
  <time>2012-05-28T15:14:46Z</time>
</trkpt>
<trkpt lat="46.320350000" lon="7.433700000">
  <ele>1607.199950</ele>
  <time>2012-05-28T15:14:48Z</time>
</trkpt>
<trkpt lat="46.320420000" lon="7.433740000">
  <ele>1607.938480</ele>
  <time>2012-05-28T15:14:51Z</time>
</trkpt>
<trkpt lat="46.320440000" lon="7.433750000">
  <ele>1608.184570</ele>
  <time>2012-05-28T15:14:52Z</time>
</trkpt>
<trkpt lat="46.320470000" lon="7.433760000">
  <ele>1608.430660</ele>
  <time>2012-05-28T15:14:53Z</time>
</trkpt>
<trkpt lat="46.320490000" lon="7.433770000">
  <ele>1608.676880</ele>
  <time>2012-05-28T15:14:54Z</time>
</trkpt>
<trkpt lat="46.320510000" lon="7.433780000">
  <ele>1608.923100</ele>
  <time>2012-05-28T15:14:55Z</time>
</trkpt>
<trkpt lat="46.320650000" lon="7.433860000">
  <ele>1610.399900</ele>
  <time>2012-05-28T15:15:01Z</time>
</trkpt>
<trkpt lat="46.320670000" lon="7.433880000">
  <ele>1610.646120</ele>
  <time>2012-05-28T15:15:02Z</time>
</trkpt>
<trkpt lat="46.320680000" lon="7.433900000">
  <ele>1610.892330</ele>
  <time>2012-05-28T15:15:03Z</time>
</trkpt>
<trkpt lat="46.320700000" lon="7.433920000">
  <ele>1611.138430</ele>
  <time>2012-05-28T15:15:04Z</time>
</trkpt>
<trkpt lat="46.320720000" lon="7.433950000">
  <ele>1611.384520</ele>
  <time>2012-05-28T15:15:05Z</time>
</trkpt>
<trkpt lat="46.320800000" lon="7.434070000">
  <ele>1612.615360</ele>
  <time>2012-05-28T15:15:10Z</time>
</trkpt>
<trkpt lat="46.320820000" lon="7.434090000">
  <ele>1612.861570</ele>
  <time>2012-05-28T15:15:11Z</time>
</trkpt>
<trkpt lat="46.320840000" lon="7.434110000">
  <ele>1613.107670</ele>
  <time>2012-05-28T15:15:12Z</time>
</trkpt>
<trkpt lat="46.320860000" lon="7.434130000">
  <ele>1613.353760</ele>
  <time>2012-05-28T15:15:13Z</time>
</trkpt>
<trkpt lat="46.320880000" lon="7.434160000">
  <ele>1613.599980</ele>
  <time>2012-05-28T15:15:14Z</time>
</trkpt>
<trkpt lat="46.320910000" lon="7.434200000">
  <ele>1613.599980</ele>
  <time>2012-05-28T15:15:16Z</time>
</trkpt>
<trkpt lat="46.321020000" lon="7.434350000">
  <ele>1614.933350</ele>
  <time>2012-05-28T15:15:22Z</time>
</trkpt>
<trkpt lat="46.321040000" lon="7.434380000">
  <ele>1615.155520</ele>
  <time>2012-05-28T15:15:23Z</time>
</trkpt>
<trkpt lat="46.321050000" lon="7.434410000">
  <ele>1615.377810</ele>
  <time>2012-05-28T15:15:24Z</time>
</trkpt>
<trkpt lat="46.321070000" lon="7.434430000">
  <ele>1615.599980</ele>
  <time>2012-05-28T15:15:25Z</time>
</trkpt>
<trkpt lat="46.321170000" lon="7.434520000">
  <ele>1615.599980</ele>
  <time>2012-05-28T15:15:30Z</time>
</trkpt>
<trkpt lat="46.321190000" lon="7.434530000">
  <ele>1616.040040</ele>
  <time>2012-05-28T15:15:31Z</time>
</trkpt>
<trkpt lat="46.321210000" lon="7.434540000">
  <ele>1616.479980</ele>
  <time>2012-05-28T15:15:32Z</time>
</trkpt>
<trkpt lat="46.321230000" lon="7.434550000">
  <ele>1616.920040</ele>
  <time>2012-05-28T15:15:33Z</time>
</trkpt>
<trkpt lat="46.321250000" lon="7.434550000">
  <ele>1617.359990</ele>
  <time>2012-05-28T15:15:34Z</time>
</trkpt>
<trkpt lat="46.321280000" lon="7.434550000">
  <ele>1617.800050</ele>
  <time>2012-05-28T15:15:35Z</time>
</trkpt>
<trkpt lat="46.321300000" lon="7.434550000">
  <ele>1617.800050</ele>
  <time>2012-05-28T15:15:36Z</time>
</trkpt>
<trkpt lat="46.321460000" lon="7.434550000">
  <ele>1619.200070</ele>
  <time>2012-05-28T15:15:43Z</time>
</trkpt>
<trkpt lat="46.321490000" lon="7.434560000">
  <ele>1619.400020</ele>
  <time>2012-05-28T15:15:44Z</time>
</trkpt>
<trkpt lat="46.321510000" lon="7.434560000">
  <ele>1619.599980</ele>
  <time>2012-05-28T15:15:45Z</time>
</trkpt>
<trkpt lat="46.321540000" lon="7.434550000">
  <ele>1619.800050</ele>
  <time>2012-05-28T15:15:46Z</time>
</trkpt>
<trkpt lat="46.321570000" lon="7.434560000">
  <ele>1620.000000</ele>
  <time>2012-05-28T15:15:47Z</time>
</trkpt>
<trkpt lat="46.321660000" lon="7.434580000">
  <ele>1620.000000</ele>
  <time>2012-05-28T15:15:50Z</time>
</trkpt>
<trkpt lat="46.321700000" lon="7.434580000">
  <ele>1620.527950</ele>
  <time>2012-05-28T15:15:52Z</time>
</trkpt>
<trkpt lat="46.321730000" lon="7.434590000">
  <ele>1620.791990</ele>
  <time>2012-05-28T15:15:53Z</time>
</trkpt>
<trkpt lat="46.321750000" lon="7.434600000">
  <ele>1621.056030</ele>
  <time>2012-05-28T15:15:54Z</time>
</trkpt>
<trkpt lat="46.321780000" lon="7.434610000">
  <ele>1621.319950</ele>
  <time>2012-05-28T15:15:55Z</time>
</trkpt>
<trkpt lat="46.321800000" lon="7.434630000">
  <ele>1621.583980</ele>
  <time>2012-05-28T15:15:56Z</time>
</trkpt>
<trkpt lat="46.321950000" lon="7.434650000">
  <ele>1623.167970</ele>
  <time>2012-05-28T15:16:02Z</time>
</trkpt>
<trkpt lat="46.321980000" lon="7.434660000">
  <ele>1623.432010</ele>
  <time>2012-05-28T15:16:03Z</time>
</trkpt>
<trkpt lat="46.322010000" lon="7.434650000">
  <ele>1623.696040</ele>
  <time>2012-05-28T15:16:04Z</time>
</trkpt>
<trkpt lat="46.322030000" lon="7.434650000">
  <ele>1623.959960</ele>
  <time>2012-05-28T15:16:05Z</time>
</trkpt>
<trkpt lat="46.322060000" lon="7.434650000">
  <ele>1624.224000</ele>
  <time>2012-05-28T15:16:06Z</time>
</trkpt>
<trkpt lat="46.322150000" lon="7.434660000">
  <ele>1625.543950</ele>
  <time>2012-05-28T15:16:11Z</time>
</trkpt>
<trkpt lat="46.322170000" lon="7.434660000">
  <ele>1625.807980</ele>
  <time>2012-05-28T15:16:12Z</time>
</trkpt>
<trkpt lat="46.322190000" lon="7.434670000">
  <ele>1626.072020</ele>
  <time>2012-05-28T15:16:13Z</time>
</trkpt>
<trkpt lat="46.322220000" lon="7.434670000">
  <ele>1626.335940</ele>
  <time>2012-05-28T15:16:14Z</time>
</trkpt>
<trkpt lat="46.322240000" lon="7.434680000">
  <ele>1626.599980</ele>
  <time>2012-05-28T15:16:15Z</time>
</trkpt>
<trkpt lat="46.322300000" lon="7.434700000">
  <ele>1626.599980</ele>
  <time>2012-05-28T15:16:17Z</time>
</trkpt>
<trkpt lat="46.322350000" lon="7.434710000">
  <ele>1627.333370</ele>
  <time>2012-05-28T15:16:19Z</time>
</trkpt>
<trkpt lat="46.322380000" lon="7.434720000">
  <ele>1627.699950</ele>
  <time>2012-05-28T15:16:20Z</time>
</trkpt>
<trkpt lat="46.322410000" lon="7.434720000">
  <ele>1628.066650</ele>
  <time>2012-05-28T15:16:21Z</time>
</trkpt>
<trkpt lat="46.322440000" lon="7.434720000">
  <ele>1628.433350</ele>
  <time>2012-05-28T15:16:22Z</time>
</trkpt>
<trkpt lat="46.322480000" lon="7.434720000">
  <ele>1628.800050</ele>
  <time>2012-05-28T15:16:23Z</time>
</trkpt>
<trkpt lat="46.322590000" lon="7.434690000">
  <ele>1628.800050</ele>
  <time>2012-05-28T15:16:27Z</time>
</trkpt>
<trkpt lat="46.322670000" lon="7.434660000">
  <ele>1629.769290</ele>
  <time>2012-05-28T15:16:30Z</time>
</trkpt>
<trkpt lat="46.322700000" lon="7.434660000">
  <ele>1630.092290</ele>
  <time>2012-05-28T15:16:31Z</time>
</trkpt>
<trkpt lat="46.322720000" lon="7.434640000">
  <ele>1630.415410</ele>
  <time>2012-05-28T15:16:32Z</time>
</trkpt>
<trkpt lat="46.322740000" lon="7.434630000">
  <ele>1630.738530</ele>
  <time>2012-05-28T15:16:33Z</time>
</trkpt>
<trkpt lat="46.322770000" lon="7.434630000">
  <ele>1631.061520</ele>
  <time>2012-05-28T15:16:34Z</time>
</trkpt>
<trkpt lat="46.322820000" lon="7.434610000">
  <ele>1631.707760</ele>
  <time>2012-05-28T15:16:36Z</time>
</trkpt>
<trkpt lat="46.322840000" lon="7.434610000">
  <ele>1632.030760</ele>
  <time>2012-05-28T15:16:37Z</time>
</trkpt>
<trkpt lat="46.322860000" lon="7.434600000">
  <ele>1632.353880</ele>
  <time>2012-05-28T15:16:38Z</time>
</trkpt>
<trkpt lat="46.322890000" lon="7.434600000">
  <ele>1632.676880</ele>
  <time>2012-05-28T15:16:39Z</time>
</trkpt>
<trkpt lat="46.322910000" lon="7.434590000">
  <ele>1633.000000</ele>
  <time>2012-05-28T15:16:40Z</time>
</trkpt>
<trkpt lat="46.322930000" lon="7.434590000">
  <ele>1633.000000</ele>
  <time>2012-05-28T15:16:41Z</time>
</trkpt>
<trkpt lat="46.323100000" lon="7.434580000">
  <ele>1634.400020</ele>
  <time>2012-05-28T15:16:48Z</time>
</trkpt>
<trkpt lat="46.323120000" lon="7.434580000">
  <ele>1634.599980</ele>
  <time>2012-05-28T15:16:49Z</time>
</trkpt>
<trkpt lat="46.323150000" lon="7.434590000">
  <ele>1634.799930</ele>
  <time>2012-05-28T15:16:50Z</time>
</trkpt>
<trkpt lat="46.323170000" lon="7.434580000">
  <ele>1635.000000</ele>
  <time>2012-05-28T15:16:51Z</time>
</trkpt>
<trkpt lat="46.323190000" lon="7.434580000">
  <ele>1635.199950</ele>
  <time>2012-05-28T15:16:52Z</time>
</trkpt>
<trkpt lat="46.323220000" lon="7.434580000">
  <ele>1635.199950</ele>
  <time>2012-05-28T15:16:53Z</time>
</trkpt>
<trkpt lat="46.323280000" lon="7.434580000">
  <ele>1635.987430</ele>
  <time>2012-05-28T15:16:56Z</time>
</trkpt>
<trkpt lat="46.323310000" lon="7.434580000">
  <ele>1636.250000</ele>
  <time>2012-05-28T15:16:57Z</time>
</trkpt>
<trkpt lat="46.323330000" lon="7.434570000">
  <ele>1636.512450</ele>
  <time>2012-05-28T15:16:58Z</time>
</trkpt>
<trkpt lat="46.323360000" lon="7.434570000">
  <ele>1636.775020</ele>
  <time>2012-05-28T15:16:59Z</time>
</trkpt>
<trkpt lat="46.323380000" lon="7.434560000">
  <ele>1637.037480</ele>
  <time>2012-05-28T15:17:00Z</time>
</trkpt>
<trkpt lat="46.323510000" lon="7.434550000">
  <ele>1638.349980</ele>
  <time>2012-05-28T15:17:05Z</time>
</trkpt>
<trkpt lat="46.323540000" lon="7.434550000">
  <ele>1638.612550</ele>
  <time>2012-05-28T15:17:06Z</time>
</trkpt>
<trkpt lat="46.323560000" lon="7.434550000">
  <ele>1638.875000</ele>
  <time>2012-05-28T15:17:07Z</time>
</trkpt>
<trkpt lat="46.323580000" lon="7.434550000">
  <ele>1639.137570</ele>
  <time>2012-05-28T15:17:08Z</time>
</trkpt>
<trkpt lat="46.323600000" lon="7.434540000">
  <ele>1639.400020</ele>
  <time>2012-05-28T15:17:09Z</time>
</trkpt>
<trkpt lat="46.323660000" lon="7.434540000">
  <ele>1639.400020</ele>
  <time>2012-05-28T15:17:11Z</time>
</trkpt>
<trkpt lat="46.323730000" lon="7.434520000">
  <ele>1640.193600</ele>
  <time>2012-05-28T15:17:14Z</time>
</trkpt>
<trkpt lat="46.323760000" lon="7.434520000">
  <ele>1640.458130</ele>
  <time>2012-05-28T15:17:15Z</time>
</trkpt>
<trkpt lat="46.323780000" lon="7.434510000">
  <ele>1640.722660</ele>
  <time>2012-05-28T15:17:16Z</time>
</trkpt>
<trkpt lat="46.323800000" lon="7.434510000">
  <ele>1640.987060</ele>
  <time>2012-05-28T15:17:17Z</time>
</trkpt>
<trkpt lat="46.323820000" lon="7.434510000">
  <ele>1641.251590</ele>
  <time>2012-05-28T15:17:18Z</time>
</trkpt>
<trkpt lat="46.323960000" lon="7.434470000">
  <ele>1642.838750</ele>
  <time>2012-05-28T15:17:24Z</time>
</trkpt>
<trkpt lat="46.323980000" lon="7.434470000">
  <ele>1643.103270</ele>
  <time>2012-05-28T15:17:25Z</time>
</trkpt>
<trkpt lat="46.324010000" lon="7.434470000">
  <ele>1643.367800</ele>
  <time>2012-05-28T15:17:26Z</time>
</trkpt>
<trkpt lat="46.324030000" lon="7.434460000">
  <ele>1643.632200</ele>
  <time>2012-05-28T15:17:27Z</time>
</trkpt>
<trkpt lat="46.324050000" lon="7.434450000">
  <ele>1643.896730</ele>
  <time>2012-05-28T15:17:28Z</time>
</trkpt>
<trkpt lat="46.324100000" lon="7.434440000">
  <ele>1644.425780</ele>
  <time>2012-05-28T15:17:30Z</time>
</trkpt>
<trkpt lat="46.324120000" lon="7.434440000">
  <ele>1644.690310</ele>
  <time>2012-05-28T15:17:31Z</time>
</trkpt>
<trkpt lat="46.324150000" lon="7.434430000">
  <ele>1644.954830</ele>
  <time>2012-05-28T15:17:32Z</time>
</trkpt>
<trkpt lat="46.324170000" lon="7.434420000">
  <ele>1645.219360</ele>
  <time>2012-05-28T15:17:33Z</time>
</trkpt>
<trkpt lat="46.324200000" lon="7.434410000">
  <ele>1645.483890</ele>
  <time>2012-05-28T15:17:34Z</time>
</trkpt>
<trkpt lat="46.324300000" lon="7.434380000">
  <ele>1646.541870</ele>
  <time>2012-05-28T15:17:38Z</time>
</trkpt>
<trkpt lat="46.324320000" lon="7.434370000">
  <ele>1646.806400</ele>
  <time>2012-05-28T15:17:39Z</time>
</trkpt>
<trkpt lat="46.324340000" lon="7.434360000">
  <ele>1647.070920</ele>
  <time>2012-05-28T15:17:40Z</time>
</trkpt>
<trkpt lat="46.324360000" lon="7.434350000">
  <ele>1647.335450</ele>
  <time>2012-05-28T15:17:41Z</time>
</trkpt>
<trkpt lat="46.324380000" lon="7.434340000">
  <ele>1647.599980</ele>
  <time>2012-05-28T15:17:42Z</time>
</trkpt>
<trkpt lat="46.324500000" lon="7.434280000">
  <ele>1647.599980</ele>
  <time>2012-05-28T15:17:47Z</time>
</trkpt>
<trkpt lat="46.324570000" lon="7.434250000">
  <ele>1648.460820</ele>
  <time>2012-05-28T15:17:50Z</time>
</trkpt>
<trkpt lat="46.324590000" lon="7.434260000">
  <ele>1648.747800</ele>
  <time>2012-05-28T15:17:51Z</time>
</trkpt>
<trkpt lat="46.324620000" lon="7.434260000">
  <ele>1649.034790</ele>
  <time>2012-05-28T15:17:52Z</time>
</trkpt>
<trkpt lat="46.324650000" lon="7.434270000">
  <ele>1649.321660</ele>
  <time>2012-05-28T15:17:53Z</time>
</trkpt>
<trkpt lat="46.324670000" lon="7.434280000">
  <ele>1649.608640</ele>
  <time>2012-05-28T15:17:54Z</time>
</trkpt>
<trkpt lat="46.324750000" lon="7.434320000">
  <ele>1650.756470</ele>
  <time>2012-05-28T15:17:58Z</time>
</trkpt>
<trkpt lat="46.324780000" lon="7.434330000">
  <ele>1651.043460</ele>
  <time>2012-05-28T15:17:59Z</time>
</trkpt>
<trkpt lat="46.324800000" lon="7.434350000">
  <ele>1651.330440</ele>
  <time>2012-05-28T15:18:00Z</time>
</trkpt>
<trkpt lat="46.324830000" lon="7.434370000">
  <ele>1651.617310</ele>
  <time>2012-05-28T15:18:01Z</time>
</trkpt>
<trkpt lat="46.324850000" lon="7.434390000">
  <ele>1651.904300</ele>
  <time>2012-05-28T15:18:02Z</time>
</trkpt>
<trkpt lat="46.324940000" lon="7.434440000">
  <ele>1653.052120</ele>
  <time>2012-05-28T15:18:06Z</time>
</trkpt>
<trkpt lat="46.324950000" lon="7.434460000">
  <ele>1653.339110</ele>
  <time>2012-05-28T15:18:07Z</time>
</trkpt>
<trkpt lat="46.324980000" lon="7.434460000">
  <ele>1653.626100</ele>
  <time>2012-05-28T15:18:08Z</time>
</trkpt>
<trkpt lat="46.325000000" lon="7.434470000">
  <ele>1653.912960</ele>
  <time>2012-05-28T15:18:09Z</time>
</trkpt>
<trkpt lat="46.325020000" lon="7.434480000">
  <ele>1654.199950</ele>
  <time>2012-05-28T15:18:10Z</time>
</trkpt>
<trkpt lat="46.325040000" lon="7.434500000">
  <ele>1654.199950</ele>
  <time>2012-05-28T15:18:11Z</time>
</trkpt>
<trkpt lat="46.325130000" lon="7.434520000">
  <ele>1655.235230</ele>
  <time>2012-05-28T15:18:15Z</time>
</trkpt>
<trkpt lat="46.325150000" lon="7.434530000">
  <ele>1655.494020</ele>
  <time>2012-05-28T15:18:16Z</time>
</trkpt>
<trkpt lat="46.325180000" lon="7.434550000">
  <ele>1655.752930</ele>
  <time>2012-05-28T15:18:17Z</time>
</trkpt>
<trkpt lat="46.325200000" lon="7.434560000">
  <ele>1656.011720</ele>
  <time>2012-05-28T15:18:18Z</time>
</trkpt>
<trkpt lat="46.325220000" lon="7.434570000">
  <ele>1656.270510</ele>
  <time>2012-05-28T15:18:19Z</time>
</trkpt>
<trkpt lat="46.325320000" lon="7.434640000">
  <ele>1657.564700</ele>
  <time>2012-05-28T15:18:24Z</time>
</trkpt>
<trkpt lat="46.325340000" lon="7.434660000">
  <ele>1657.823490</ele>
  <time>2012-05-28T15:18:25Z</time>
</trkpt>
<trkpt lat="46.325370000" lon="7.434680000">
  <ele>1658.082280</ele>
  <time>2012-05-28T15:18:26Z</time>
</trkpt>
<trkpt lat="46.325390000" lon="7.434700000">
  <ele>1658.341190</ele>
  <time>2012-05-28T15:18:27Z</time>
</trkpt>
<trkpt lat="46.325410000" lon="7.434710000">
  <ele>1658.599980</ele>
  <time>2012-05-28T15:18:28Z</time>
</trkpt>
<trkpt lat="46.325470000" lon="7.434750000">
  <ele>1658.599980</ele>
  <time>2012-05-28T15:18:31Z</time>
</trkpt>
<trkpt lat="46.325530000" lon="7.434780000">
  <ele>1659.375000</ele>
  <time>2012-05-28T15:18:34Z</time>
</trkpt>
<trkpt lat="46.325560000" lon="7.434790000">
  <ele>1659.633300</ele>
  <time>2012-05-28T15:18:35Z</time>
</trkpt>
<trkpt lat="46.325580000" lon="7.434800000">
  <ele>1659.891600</ele>
  <time>2012-05-28T15:18:36Z</time>
</trkpt>
<trkpt lat="46.325600000" lon="7.434810000">
  <ele>1660.150020</ele>
  <time>2012-05-28T15:18:37Z</time>
</trkpt>
<trkpt lat="46.325630000" lon="7.434820000">
  <ele>1660.408330</ele>
  <time>2012-05-28T15:18:38Z</time>
</trkpt>
<trkpt lat="46.325740000" lon="7.434860000">
  <ele>1661.699950</ele>
  <time>2012-05-28T15:18:43Z</time>
</trkpt>
<trkpt lat="46.325760000" lon="7.434860000">
  <ele>1661.958370</ele>
  <time>2012-05-28T15:18:44Z</time>
</trkpt>
<trkpt lat="46.325780000" lon="7.434870000">
  <ele>1662.216670</ele>
  <time>2012-05-28T15:18:45Z</time>
</trkpt>
<trkpt lat="46.325800000" lon="7.434880000">
  <ele>1662.474980</ele>
  <time>2012-05-28T15:18:46Z</time>
</trkpt>
<trkpt lat="46.325820000" lon="7.434890000">
  <ele>1662.733400</ele>
  <time>2012-05-28T15:18:47Z</time>
</trkpt>
<trkpt lat="46.325900000" lon="7.434940000">
  <ele>1663.766720</ele>
  <time>2012-05-28T15:18:51Z</time>
</trkpt>
<trkpt lat="46.325920000" lon="7.434950000">
  <ele>1664.025020</ele>
  <time>2012-05-28T15:18:52Z</time>
</trkpt>
<trkpt lat="46.325940000" lon="7.434960000">
  <ele>1664.283330</ele>
  <time>2012-05-28T15:18:53Z</time>
</trkpt>
<trkpt lat="46.325950000" lon="7.434980000">
  <ele>1664.541750</ele>
  <time>2012-05-28T15:18:54Z</time>
</trkpt>
<trkpt lat="46.325970000" lon="7.435000000">
  <ele>1664.800050</ele>
  <time>2012-05-28T15:18:55Z</time>
</trkpt>
<trkpt lat="46.326030000" lon="7.435070000">
  <ele>1664.800050</ele>
  <time>2012-05-28T15:18:59Z</time>
</trkpt>
<trkpt lat="46.326060000" lon="7.435110000">
  <ele>1665.533330</ele>
  <time>2012-05-28T15:19:01Z</time>
</trkpt>
<trkpt lat="46.326080000" lon="7.435130000">
  <ele>1665.900020</ele>
  <time>2012-05-28T15:19:02Z</time>
</trkpt>
<trkpt lat="46.326090000" lon="7.435160000">
  <ele>1666.266720</ele>
  <time>2012-05-28T15:19:03Z</time>
</trkpt>
<trkpt lat="46.326100000" lon="7.435180000">
  <ele>1666.633300</ele>
  <time>2012-05-28T15:19:04Z</time>
</trkpt>
<trkpt lat="46.326100000" lon="7.435210000">
  <ele>1667.000000</ele>
  <time>2012-05-28T15:19:05Z</time>
</trkpt>
<trkpt lat="46.326120000" lon="7.435320000">
  <ele>1667.000000</ele>
  <time>2012-05-28T15:19:08Z</time>
</trkpt>
<trkpt lat="46.326130000" lon="7.435360000">
  <ele>1667.285770</ele>
  <time>2012-05-28T15:19:09Z</time>
</trkpt>
<trkpt lat="46.326130000" lon="7.435390000">
  <ele>1667.571410</ele>
  <time>2012-05-28T15:19:10Z</time>
</trkpt>
<trkpt lat="46.326140000" lon="7.435420000">
  <ele>1667.857180</ele>
  <time>2012-05-28T15:19:11Z</time>
</trkpt>
<trkpt lat="46.326150000" lon="7.435460000">
  <ele>1668.142820</ele>
  <time>2012-05-28T15:19:12Z</time>
</trkpt>
<trkpt lat="46.326160000" lon="7.435490000">
  <ele>1668.428590</ele>
  <time>2012-05-28T15:19:13Z</time>
</trkpt>
<trkpt lat="46.326210000" lon="7.435650000">
  <ele>1669.857180</ele>
  <time>2012-05-28T15:19:18Z</time>
</trkpt>
<trkpt lat="46.326230000" lon="7.435680000">
  <ele>1670.142820</ele>
  <time>2012-05-28T15:19:19Z</time>
</trkpt>
<trkpt lat="46.326250000" lon="7.435710000">
  <ele>1670.428590</ele>
  <time>2012-05-28T15:19:20Z</time>
</trkpt>
<trkpt lat="46.326260000" lon="7.435740000">
  <ele>1670.714230</ele>
  <time>2012-05-28T15:19:21Z</time>
</trkpt>
<trkpt lat="46.326280000" lon="7.435770000">
  <ele>1671.000000</ele>
  <time>2012-05-28T15:19:22Z</time>
</trkpt>
<trkpt lat="46.326330000" lon="7.435880000">
  <ele>1671.000000</ele>
  <time>2012-05-28T15:19:26Z</time>
</trkpt>
<trkpt lat="46.326360000" lon="7.435930000">
  <ele>1671.733280</ele>
  <time>2012-05-28T15:19:28Z</time>
</trkpt>
<trkpt lat="46.326370000" lon="7.435970000">
  <ele>1672.099980</ele>
  <time>2012-05-28T15:19:29Z</time>
</trkpt>
<trkpt lat="46.326390000" lon="7.435990000">
  <ele>1672.466670</ele>
  <time>2012-05-28T15:19:30Z</time>
</trkpt>
<trkpt lat="46.326400000" lon="7.436020000">
  <ele>1672.833250</ele>
  <time>2012-05-28T15:19:31Z</time>
</trkpt>
<trkpt lat="46.326420000" lon="7.436050000">
  <ele>1673.199950</ele>
  <time>2012-05-28T15:19:32Z</time>
</trkpt>
<trkpt lat="46.326440000" lon="7.436090000">
  <ele>1673.199950</ele>
  <time>2012-05-28T15:19:33Z</time>
</trkpt>
<trkpt lat="46.326480000" lon="7.436170000">
  <ele>1674.057130</ele>
  <time>2012-05-28T15:19:36Z</time>
</trkpt>
<trkpt lat="46.326490000" lon="7.436200000">
  <ele>1674.342770</ele>
  <time>2012-05-28T15:19:37Z</time>
</trkpt>
<trkpt lat="46.326510000" lon="7.436220000">
  <ele>1674.628540</ele>
  <time>2012-05-28T15:19:38Z</time>
</trkpt>
<trkpt lat="46.326520000" lon="7.436250000">
  <ele>1674.914180</ele>
  <time>2012-05-28T15:19:39Z</time>
</trkpt>
<trkpt lat="46.326530000" lon="7.436280000">
  <ele>1675.199950</ele>
  <time>2012-05-28T15:19:40Z</time>
</trkpt>
<trkpt lat="46.326580000" lon="7.436440000">
  <ele>1675.199950</ele>
  <time>2012-05-28T15:19:45Z</time>
</trkpt>
<trkpt lat="46.326590000" lon="7.436470000">
  <ele>1675.599980</ele>
  <time>2012-05-28T15:19:46Z</time>
</trkpt>
<trkpt lat="46.326600000" lon="7.436500000">
  <ele>1676.000000</ele>
  <time>2012-05-28T15:19:47Z</time>
</trkpt>
<trkpt lat="46.326610000" lon="7.436520000">
  <ele>1676.399900</ele>
  <time>2012-05-28T15:19:48Z</time>
</trkpt>
<trkpt lat="46.326610000" lon="7.436560000">
  <ele>1676.799930</ele>
  <time>2012-05-28T15:19:49Z</time>
</trkpt>
<trkpt lat="46.326620000" lon="7.436590000">
  <ele>1677.199950</ele>
  <time>2012-05-28T15:19:50Z</time>
</trkpt>
<trkpt lat="46.326640000" lon="7.436640000">
  <ele>1677.199950</ele>
  <time>2012-05-28T15:19:52Z</time>
</trkpt>
<trkpt lat="46.326660000" lon="7.436700000">
  <ele>1677.828490</ele>
  <time>2012-05-28T15:19:54Z</time>
</trkpt>
<trkpt lat="46.326670000" lon="7.436720000">
  <ele>1678.142820</ele>
  <time>2012-05-28T15:19:55Z</time>
</trkpt>
<trkpt lat="46.326680000" lon="7.436750000">
  <ele>1678.457150</ele>
  <time>2012-05-28T15:19:56Z</time>
</trkpt>
<trkpt lat="46.326700000" lon="7.436780000">
  <ele>1678.771360</ele>
  <time>2012-05-28T15:19:57Z</time>
</trkpt>
<trkpt lat="46.326710000" lon="7.436800000">
  <ele>1679.085690</ele>
  <time>2012-05-28T15:19:58Z</time>
</trkpt>
<trkpt lat="46.326780000" lon="7.436880000">
  <ele>1680.342770</ele>
  <time>2012-05-28T15:20:02Z</time>
</trkpt>
<trkpt lat="46.326800000" lon="7.436900000">
  <ele>1680.657100</ele>
  <time>2012-05-28T15:20:03Z</time>
</trkpt>
<trkpt lat="46.326820000" lon="7.436910000">
  <ele>1680.971440</ele>
  <time>2012-05-28T15:20:04Z</time>
</trkpt>
<trkpt lat="46.326840000" lon="7.436930000">
  <ele>1681.285640</ele>
  <time>2012-05-28T15:20:05Z</time>
</trkpt>
<trkpt lat="46.326860000" lon="7.436940000">
  <ele>1681.599980</ele>
  <time>2012-05-28T15:20:06Z</time>
</trkpt>
<trkpt lat="46.326930000" lon="7.437020000">
  <ele>1681.599980</ele>
  <time>2012-05-28T15:20:10Z</time>
</trkpt>
<trkpt lat="46.326980000" lon="7.437080000">
  <ele>1682.542850</ele>
  <time>2012-05-28T15:20:13Z</time>
</trkpt>
<trkpt lat="46.326990000" lon="7.437100000">
  <ele>1682.857180</ele>
  <time>2012-05-28T15:20:14Z</time>
</trkpt>
<trkpt lat="46.327010000" lon="7.437120000">
  <ele>1683.171510</ele>
  <time>2012-05-28T15:20:15Z</time>
</trkpt>
<trkpt lat="46.327020000" lon="7.437150000">
  <ele>1683.485720</ele>
  <time>2012-05-28T15:20:16Z</time>
</trkpt>
<trkpt lat="46.327030000" lon="7.437170000">
  <ele>1683.800050</ele>
  <time>2012-05-28T15:20:17Z</time>
</trkpt>
<trkpt lat="46.327040000" lon="7.437200000">
  <ele>1683.800050</ele>
  <time>2012-05-28T15:20:18Z</time>
</trkpt>
<trkpt lat="46.327070000" lon="7.437310000">
  <ele>1684.920040</ele>
  <time>2012-05-28T15:20:22Z</time>
</trkpt>
<trkpt lat="46.327080000" lon="7.437340000">
  <ele>1685.200070</ele>
  <time>2012-05-28T15:20:23Z</time>
</trkpt>
<trkpt lat="46.327090000" lon="7.437370000">
  <ele>1685.479980</ele>
  <time>2012-05-28T15:20:24Z</time>
</trkpt>
<trkpt lat="46.327100000" lon="7.437400000">
  <ele>1685.760010</ele>
  <time>2012-05-28T15:20:25Z</time>
</trkpt>
<trkpt lat="46.327170000" lon="7.437500000">
  <ele>1686.880000</ele>
  <time>2012-05-28T15:20:29Z</time>
</trkpt>
<trkpt lat="46.327190000" lon="7.437530000">
  <ele>1687.160030</ele>
  <time>2012-05-28T15:20:30Z</time>
</trkpt>
<trkpt lat="46.327210000" lon="7.437550000">
  <ele>1687.440060</ele>
  <time>2012-05-28T15:20:31Z</time>
</trkpt>
<trkpt lat="46.327220000" lon="7.437570000">
  <ele>1687.719970</ele>
  <time>2012-05-28T15:20:32Z</time>
</trkpt>
<trkpt lat="46.327240000" lon="7.437590000">
  <ele>1688.000000</ele>
  <time>2012-05-28T15:20:33Z</time>
</trkpt>
<trkpt lat="46.327330000" lon="7.437660000">
  <ele>1688.000000</ele>
  <time>2012-05-28T15:20:37Z</time>
</trkpt>
<trkpt lat="46.327420000" lon="7.437710000">
  <ele>1689.120000</ele>
  <time>2012-05-28T15:20:41Z</time>
</trkpt>
<trkpt lat="46.327440000" lon="7.437720000">
  <ele>1689.400020</ele>
  <time>2012-05-28T15:20:42Z</time>
</trkpt>
<trkpt lat="46.327470000" lon="7.437730000">
  <ele>1689.680050</ele>
  <time>2012-05-28T15:20:43Z</time>
</trkpt>
<trkpt lat="46.327480000" lon="7.437740000">
  <ele>1689.959960</ele>
  <time>2012-05-28T15:20:44Z</time>
</trkpt>
<trkpt lat="46.327500000" lon="7.437750000">
  <ele>1690.239990</ele>
  <time>2012-05-28T15:20:45Z</time>
</trkpt>
<trkpt lat="46.327590000" lon="7.437810000">
  <ele>1691.359990</ele>
  <time>2012-05-28T15:20:49Z</time>
</trkpt>
<trkpt lat="46.327610000" lon="7.437820000">
  <ele>1691.640010</ele>
  <time>2012-05-28T15:20:50Z</time>
</trkpt>
<trkpt lat="46.327630000" lon="7.437840000">
  <ele>1691.920040</ele>
  <time>2012-05-28T15:20:51Z</time>
</trkpt>
<trkpt lat="46.327660000" lon="7.437860000">
  <ele>1692.199950</ele>
  <time>2012-05-28T15:20:52Z</time>
</trkpt>
<trkpt lat="46.327680000" lon="7.437870000">
  <ele>1692.479980</ele>
  <time>2012-05-28T15:20:53Z</time>
</trkpt>
<trkpt lat="46.327720000" lon="7.437900000">
  <ele>1693.040040</ele>
  <time>2012-05-28T15:20:55Z</time>
</trkpt>
<trkpt lat="46.327740000" lon="7.437920000">
  <ele>1693.320070</ele>
  <time>2012-05-28T15:20:56Z</time>
</trkpt>
<trkpt lat="46.327770000" lon="7.437930000">
  <ele>1693.599980</ele>
  <time>2012-05-28T15:20:57Z</time>
</trkpt>
<trkpt lat="46.327790000" lon="7.437950000">
  <ele>1693.880000</ele>
  <time>2012-05-28T15:20:58Z</time>
</trkpt>
<trkpt lat="46.327810000" lon="7.437950000">
  <ele>1694.160030</ele>
  <time>2012-05-28T15:20:59Z</time>
</trkpt>
<trkpt lat="46.327910000" lon="7.437960000">
  <ele>1695.280030</ele>
  <time>2012-05-28T15:21:03Z</time>
</trkpt>
<trkpt lat="46.327930000" lon="7.437980000">
  <ele>1695.560060</ele>
  <time>2012-05-28T15:21:04Z</time>
</trkpt>
<trkpt lat="46.327960000" lon="7.437980000">
  <ele>1695.839970</ele>
  <time>2012-05-28T15:21:05Z</time>
</trkpt>
<trkpt lat="46.327980000" lon="7.437980000">
  <ele>1696.120000</ele>
  <time>2012-05-28T15:21:06Z</time>
</trkpt>
<trkpt lat="46.328010000" lon="7.437990000">
  <ele>1696.400020</ele>
  <time>2012-05-28T15:21:07Z</time>
</trkpt>
<trkpt lat="46.328070000" lon="7.438010000">
  <ele>1696.400020</ele>
  <time>2012-05-28T15:21:10Z</time>
</trkpt>
<trkpt lat="46.328090000" lon="7.438010000">
  <ele>1696.900020</ele>
  <time>2012-05-28T15:21:11Z</time>
</trkpt>
<trkpt lat="46.328110000" lon="7.438030000">
  <ele>1697.400020</ele>
  <time>2012-05-28T15:21:12Z</time>
</trkpt>
<trkpt lat="46.328140000" lon="7.438050000">
  <ele>1697.900020</ele>
  <time>2012-05-28T15:21:13Z</time>
</trkpt>
<trkpt lat="46.328170000" lon="7.438060000">
  <ele>1698.400020</ele>
  <time>2012-05-28T15:21:14Z</time>
</trkpt>
<trkpt lat="46.328210000" lon="7.438080000">
  <ele>1698.400020</ele>
  <time>2012-05-28T15:21:16Z</time>
</trkpt>
<trkpt lat="46.328270000" lon="7.438150000">
  <ele>1699.400020</ele>
  <time>2012-05-28T15:21:20Z</time>
</trkpt>
<trkpt lat="46.328290000" lon="7.438170000">
  <ele>1699.650020</ele>
  <time>2012-05-28T15:21:21Z</time>
</trkpt>
<trkpt lat="46.328310000" lon="7.438190000">
  <ele>1699.900020</ele>
  <time>2012-05-28T15:21:22Z</time>
</trkpt>
<trkpt lat="46.328330000" lon="7.438200000">
  <ele>1700.150020</ele>
  <time>2012-05-28T15:21:23Z</time>
</trkpt>
<trkpt lat="46.328360000" lon="7.438220000">
  <ele>1700.400020</ele>
  <time>2012-05-28T15:21:24Z</time>
</trkpt>
<trkpt lat="46.328450000" lon="7.438260000">
  <ele>1700.400020</ele>
  <time>2012-05-28T15:21:28Z</time>
</trkpt>
<trkpt lat="46.328510000" lon="7.438270000">
  <ele>1701.133300</ele>
  <time>2012-05-28T15:21:31Z</time>
</trkpt>
<trkpt lat="46.328550000" lon="7.438280000">
  <ele>1701.622190</ele>
  <time>2012-05-28T15:21:33Z</time>
</trkpt>
<trkpt lat="46.328580000" lon="7.438280000">
  <ele>1701.866700</ele>
  <time>2012-05-28T15:21:34Z</time>
</trkpt>
<trkpt lat="46.328600000" lon="7.438280000">
  <ele>1702.111080</ele>
  <time>2012-05-28T15:21:35Z</time>
</trkpt>
<trkpt lat="46.328620000" lon="7.438270000">
  <ele>1702.355590</ele>
  <time>2012-05-28T15:21:36Z</time>
</trkpt>
<trkpt lat="46.328650000" lon="7.438280000">
  <ele>1702.599980</ele>
  <time>2012-05-28T15:21:37Z</time>
</trkpt>
<trkpt lat="46.328670000" lon="7.438280000">
  <ele>1702.599980</ele>
  <time>2012-05-28T15:21:38Z</time>
</trkpt>
<trkpt lat="46.328690000" lon="7.438280000">
  <ele>1703.040040</ele>
  <time>2012-05-28T15:21:39Z</time>
</trkpt>
<trkpt lat="46.328710000" lon="7.438280000">
  <ele>1703.479980</ele>
  <time>2012-05-28T15:21:40Z</time>
</trkpt>
<trkpt lat="46.328740000" lon="7.438280000">
  <ele>1703.920040</ele>
  <time>2012-05-28T15:21:41Z</time>
</trkpt>
<trkpt lat="46.328760000" lon="7.438290000">
  <ele>1704.359990</ele>
  <time>2012-05-28T15:21:42Z</time>
</trkpt>
<trkpt lat="46.328780000" lon="7.438280000">
  <ele>1704.800050</ele>
  <time>2012-05-28T15:21:43Z</time>
</trkpt>
<trkpt lat="46.328970000" lon="7.438260000">
  <ele>1704.800050</ele>
  <time>2012-05-28T15:21:51Z</time>
</trkpt>
<trkpt lat="46.329040000" lon="7.438250000">
  <ele>1706.120000</ele>
  <time>2012-05-28T15:21:54Z</time>
</trkpt>
<trkpt lat="46.329060000" lon="7.438250000">
  <ele>1706.560060</ele>
  <time>2012-05-28T15:21:55Z</time>
</trkpt>
<trkpt lat="46.329090000" lon="7.438250000">
  <ele>1707.000000</ele>
  <time>2012-05-28T15:21:56Z</time>
</trkpt>
<trkpt lat="46.329120000" lon="7.438250000">
  <ele>1707.439940</ele>
  <time>2012-05-28T15:21:57Z</time>
</trkpt>
<trkpt lat="46.329150000" lon="7.438250000">
  <ele>1707.880000</ele>
  <time>2012-05-28T15:21:58Z</time>
</trkpt>
<trkpt lat="46.329180000" lon="7.438250000">
  <ele>1708.319950</ele>
  <time>2012-05-28T15:21:59Z</time>
</trkpt>
<trkpt lat="46.329200000" lon="7.438250000">
  <ele>1708.760010</ele>
  <time>2012-05-28T15:22:00Z</time>
</trkpt>
<trkpt lat="46.329220000" lon="7.438240000">
  <ele>1709.199950</ele>
  <time>2012-05-28T15:22:01Z</time>
</trkpt>
<trkpt lat="46.329270000" lon="7.438230000">
  <ele>1709.199950</ele>
  <time>2012-05-28T15:22:03Z</time>
</trkpt>
<trkpt lat="46.329330000" lon="7.438220000">
  <ele>1710.228520</ele>
  <time>2012-05-28T15:22:06Z</time>
</trkpt>
<trkpt lat="46.329360000" lon="7.438220000">
  <ele>1710.571410</ele>
  <time>2012-05-28T15:22:07Z</time>
</trkpt>
<trkpt lat="46.329380000" lon="7.438210000">
  <ele>1710.914310</ele>
  <time>2012-05-28T15:22:08Z</time>
</trkpt>
<trkpt lat="46.329410000" lon="7.438210000">
  <ele>1711.257080</ele>
  <time>2012-05-28T15:22:09Z</time>
</trkpt>
<trkpt lat="46.329430000" lon="7.438210000">
  <ele>1711.599980</ele>
  <time>2012-05-28T15:22:10Z</time>
</trkpt>
<trkpt lat="46.329540000" lon="7.438180000">
  <ele>1711.599980</ele>
  <time>2012-05-28T15:22:15Z</time>
</trkpt>
<trkpt lat="46.329610000" lon="7.438160000">
  <ele>1712.542850</ele>
  <time>2012-05-28T15:22:18Z</time>
</trkpt>
<trkpt lat="46.329630000" lon="7.438160000">
  <ele>1712.857180</ele>
  <time>2012-05-28T15:22:19Z</time>
</trkpt>
<trkpt lat="46.329650000" lon="7.438160000">
  <ele>1713.171510</ele>
  <time>2012-05-28T15:22:20Z</time>
</trkpt>
<trkpt lat="46.329680000" lon="7.438160000">
  <ele>1713.485720</ele>
  <time>2012-05-28T15:22:21Z</time>
</trkpt>
<trkpt lat="46.329700000" lon="7.438160000">
  <ele>1713.800050</ele>
  <time>2012-05-28T15:22:22Z</time>
</trkpt>
<trkpt lat="46.329800000" lon="7.438180000">
  <ele>1713.800050</ele>
  <time>2012-05-28T15:22:27Z</time>
</trkpt>
<trkpt lat="46.329830000" lon="7.438180000">
  <ele>1714.181880</ele>
  <time>2012-05-28T15:22:28Z</time>
</trkpt>
<trkpt lat="46.329850000" lon="7.438190000">
  <ele>1714.563720</ele>
  <time>2012-05-28T15:22:29Z</time>
</trkpt>
<trkpt lat="46.329870000" lon="7.438190000">
  <ele>1714.945430</ele>
  <time>2012-05-28T15:22:30Z</time>
</trkpt>
<trkpt lat="46.329900000" lon="7.438200000">
  <ele>1715.327270</ele>
  <time>2012-05-28T15:22:31Z</time>
</trkpt>
<trkpt lat="46.329920000" lon="7.438220000">
  <ele>1715.709110</ele>
  <time>2012-05-28T15:22:32Z</time>
</trkpt>
<trkpt lat="46.329960000" lon="7.438240000">
  <ele>1716.472780</ele>
  <time>2012-05-28T15:22:34Z</time>
</trkpt>
<trkpt lat="46.329980000" lon="7.438240000">
  <ele>1716.854610</ele>
  <time>2012-05-28T15:22:35Z</time>
</trkpt>
<trkpt lat="46.330000000" lon="7.438250000">
  <ele>1717.236330</ele>
  <time>2012-05-28T15:22:36Z</time>
</trkpt>
<trkpt lat="46.330020000" lon="7.438260000">
  <ele>1717.618160</ele>
  <time>2012-05-28T15:22:37Z</time>
</trkpt>
<trkpt lat="46.330040000" lon="7.438260000">
  <ele>1718.000000</ele>
  <time>2012-05-28T15:22:38Z</time>
</trkpt>
<trkpt lat="46.330090000" lon="7.438260000">
  <ele>1718.000000</ele>
  <time>2012-05-28T15:22:40Z</time>
</trkpt>
<trkpt lat="46.330100000" lon="7.438250000">
  <ele>1718.285770</ele>
  <time>2012-05-28T15:22:41Z</time>
</trkpt>
<trkpt lat="46.330150000" lon="7.438230000">
  <ele>1718.857180</ele>
  <time>2012-05-28T15:22:43Z</time>
</trkpt>
<trkpt lat="46.330170000" lon="7.438230000">
  <ele>1719.142820</ele>
  <time>2012-05-28T15:22:44Z</time>
</trkpt>
<trkpt lat="46.330190000" lon="7.438220000">
  <ele>1719.428590</ele>
  <time>2012-05-28T15:22:45Z</time>
</trkpt>
<trkpt lat="46.330220000" lon="7.438220000">
  <ele>1719.714230</ele>
  <time>2012-05-28T15:22:46Z</time>
</trkpt>
<trkpt lat="46.330240000" lon="7.438210000">
  <ele>1720.000000</ele>
  <time>2012-05-28T15:22:47Z</time>
</trkpt>
<trkpt lat="46.330320000" lon="7.438190000">
  <ele>1720.000000</ele>
  <time>2012-05-28T15:22:50Z</time>
</trkpt>
<trkpt lat="46.330390000" lon="7.438170000">
  <ele>1720.857180</ele>
  <time>2012-05-28T15:22:53Z</time>
</trkpt>
<trkpt lat="46.330420000" lon="7.438160000">
  <ele>1721.142820</ele>
  <time>2012-05-28T15:22:54Z</time>
</trkpt>
<trkpt lat="46.330440000" lon="7.438160000">
  <ele>1721.428590</ele>
  <time>2012-05-28T15:22:55Z</time>
</trkpt>
<trkpt lat="46.330460000" lon="7.438150000">
  <ele>1721.714230</ele>
  <time>2012-05-28T15:22:56Z</time>
</trkpt>
<trkpt lat="46.330480000" lon="7.438160000">
  <ele>1722.000000</ele>
  <time>2012-05-28T15:22:57Z</time>
</trkpt>
<trkpt lat="46.330610000" lon="7.438180000">
  <ele>1722.000000</ele>
  <time>2012-05-28T15:23:03Z</time>
</trkpt>
<trkpt lat="46.330630000" lon="7.438190000">
  <ele>1722.479980</ele>
  <time>2012-05-28T15:23:04Z</time>
</trkpt>
<trkpt lat="46.330650000" lon="7.438200000">
  <ele>1722.959960</ele>
  <time>2012-05-28T15:23:05Z</time>
</trkpt>
<trkpt lat="46.330670000" lon="7.438210000">
  <ele>1723.440060</ele>
  <time>2012-05-28T15:23:06Z</time>
</trkpt>
<trkpt lat="46.330690000" lon="7.438230000">
  <ele>1723.920040</ele>
  <time>2012-05-28T15:23:07Z</time>
</trkpt>
<trkpt lat="46.330710000" lon="7.438240000">
  <ele>1724.400020</ele>
  <time>2012-05-28T15:23:08Z</time>
</trkpt>
<trkpt lat="46.330750000" lon="7.438270000">
  <ele>1724.400020</ele>
  <time>2012-05-28T15:23:10Z</time>
</trkpt>
<trkpt lat="46.330760000" lon="7.438290000">
  <ele>1724.800050</ele>
  <time>2012-05-28T15:23:11Z</time>
</trkpt>
<trkpt lat="46.330780000" lon="7.438290000">
  <ele>1725.200070</ele>
  <time>2012-05-28T15:23:12Z</time>
</trkpt>
<trkpt lat="46.330800000" lon="7.438300000">
  <ele>1725.599980</ele>
  <time>2012-05-28T15:23:13Z</time>
</trkpt>
<trkpt lat="46.330820000" lon="7.438310000">
  <ele>1726.000000</ele>
  <time>2012-05-28T15:23:14Z</time>
</trkpt>
<trkpt lat="46.330830000" lon="7.438320000">
  <ele>1726.400020</ele>
  <time>2012-05-28T15:23:15Z</time>
</trkpt>
<trkpt lat="46.330900000" lon="7.438360000">
  <ele>1726.400020</ele>
  <time>2012-05-28T15:23:18Z</time>
</trkpt>
<trkpt lat="46.330990000" lon="7.438400000">
  <ele>1727.400020</ele>
  <time>2012-05-28T15:23:22Z</time>
</trkpt>
<trkpt lat="46.331010000" lon="7.438410000">
  <ele>1727.650020</ele>
  <time>2012-05-28T15:23:23Z</time>
</trkpt>
<trkpt lat="46.331030000" lon="7.438430000">
  <ele>1727.900020</ele>
  <time>2012-05-28T15:23:24Z</time>
</trkpt>
<trkpt lat="46.331050000" lon="7.438440000">
  <ele>1728.150020</ele>
  <time>2012-05-28T15:23:25Z</time>
</trkpt>
<trkpt lat="46.331070000" lon="7.438460000">
  <ele>1728.400020</ele>
  <time>2012-05-28T15:23:26Z</time>
</trkpt>
<trkpt lat="46.331140000" lon="7.438490000">
  <ele>1728.400020</ele>
  <time>2012-05-28T15:23:29Z</time>
</trkpt>
<trkpt lat="46.331180000" lon="7.438500000">
  <ele>1729.066650</ele>
  <time>2012-05-28T15:23:31Z</time>
</trkpt>
<trkpt lat="46.331200000" lon="7.438500000">
  <ele>1729.400020</ele>
  <time>2012-05-28T15:23:32Z</time>
</trkpt>
<trkpt lat="46.331230000" lon="7.438500000">
  <ele>1729.733400</ele>
  <time>2012-05-28T15:23:33Z</time>
</trkpt>
<trkpt lat="46.331250000" lon="7.438500000">
  <ele>1730.066650</ele>
  <time>2012-05-28T15:23:34Z</time>
</trkpt>
<trkpt lat="46.331270000" lon="7.438510000">
  <ele>1730.400020</ele>
  <time>2012-05-28T15:23:35Z</time>
</trkpt>
<trkpt lat="46.331290000" lon="7.438500000">
  <ele>1730.400020</ele>
  <time>2012-05-28T15:23:36Z</time>
</trkpt>
<trkpt lat="46.331390000" lon="7.438510000">
  <ele>1731.657100</ele>
  <time>2012-05-28T15:23:40Z</time>
</trkpt>
<trkpt lat="46.331420000" lon="7.438510000">
  <ele>1731.971440</ele>
  <time>2012-05-28T15:23:41Z</time>
</trkpt>
<trkpt lat="46.331440000" lon="7.438510000">
  <ele>1732.285640</ele>
  <time>2012-05-28T15:23:42Z</time>
</trkpt>
<trkpt lat="46.331460000" lon="7.438520000">
  <ele>1732.599980</ele>
  <time>2012-05-28T15:23:43Z</time>
</trkpt>
<trkpt lat="46.331520000" lon="7.438530000">
  <ele>1732.599980</ele>
  <time>2012-05-28T15:23:46Z</time>
</trkpt>
<trkpt lat="46.331540000" lon="7.438530000">
  <ele>1733.000000</ele>
  <time>2012-05-28T15:23:47Z</time>
</trkpt>
<trkpt lat="46.331570000" lon="7.438520000">
  <ele>1733.400020</ele>
  <time>2012-05-28T15:23:48Z</time>
</trkpt>
<trkpt lat="46.331590000" lon="7.438520000">
  <ele>1733.799930</ele>
  <time>2012-05-28T15:23:49Z</time>
</trkpt>
<trkpt lat="46.331620000" lon="7.438510000">
  <ele>1734.199950</ele>
  <time>2012-05-28T15:23:50Z</time>
</trkpt>
<trkpt lat="46.331630000" lon="7.438490000">
  <ele>1734.599980</ele>
  <time>2012-05-28T15:23:51Z</time>
</trkpt>
<trkpt lat="46.331690000" lon="7.438440000">
  <ele>1734.599980</ele>
  <time>2012-05-28T15:23:54Z</time>
</trkpt>
<trkpt lat="46.331720000" lon="7.438390000">
  <ele>1735.079960</ele>
  <time>2012-05-28T15:23:56Z</time>
</trkpt>
<trkpt lat="46.331780000" lon="7.438300000">
  <ele>1736.040040</ele>
  <time>2012-05-28T15:24:00Z</time>
</trkpt>
<trkpt lat="46.331780000" lon="7.438270000">
  <ele>1736.280030</ele>
  <time>2012-05-28T15:24:01Z</time>
</trkpt>
<trkpt lat="46.331790000" lon="7.438240000">
  <ele>1736.520020</ele>
  <time>2012-05-28T15:24:02Z</time>
</trkpt>
<trkpt lat="46.331800000" lon="7.438210000">
  <ele>1736.760010</ele>
  <time>2012-05-28T15:24:03Z</time>
</trkpt>
<trkpt lat="46.331810000" lon="7.438180000">
  <ele>1737.000000</ele>
  <time>2012-05-28T15:24:04Z</time>
</trkpt>
<trkpt lat="46.331900000" lon="7.438040000">
  <ele>1737.000000</ele>
  <time>2012-05-28T15:24:10Z</time>
</trkpt>
<trkpt lat="46.331940000" lon="7.438050000">
  <ele>1737.777830</ele>
  <time>2012-05-28T15:24:12Z</time>
</trkpt>
<trkpt lat="46.331950000" lon="7.438060000">
  <ele>1738.166630</ele>
  <time>2012-05-28T15:24:13Z</time>
</trkpt>
<trkpt lat="46.331970000" lon="7.438080000">
  <ele>1738.555540</ele>
  <time>2012-05-28T15:24:14Z</time>
</trkpt>
<trkpt lat="46.331980000" lon="7.438100000">
  <ele>1738.944460</ele>
  <time>2012-05-28T15:24:15Z</time>
</trkpt>
<trkpt lat="46.331990000" lon="7.438120000">
  <ele>1739.333370</ele>
  <time>2012-05-28T15:24:16Z</time>
</trkpt>
<trkpt lat="46.332000000" lon="7.438140000">
  <ele>1739.722170</ele>
  <time>2012-05-28T15:24:17Z</time>
</trkpt>
<trkpt lat="46.332010000" lon="7.438170000">
  <ele>1740.111080</ele>
  <time>2012-05-28T15:24:18Z</time>
</trkpt>
<trkpt lat="46.332020000" lon="7.438190000">
  <ele>1740.500000</ele>
  <time>2012-05-28T15:24:19Z</time>
</trkpt>
<trkpt lat="46.332040000" lon="7.438200000">
  <ele>1740.888920</ele>
  <time>2012-05-28T15:24:20Z</time>
</trkpt>
<trkpt lat="46.332070000" lon="7.438230000">
  <ele>1741.277830</ele>
  <time>2012-05-28T15:24:21Z</time>
</trkpt>
<trkpt lat="46.332120000" lon="7.438270000">
  <ele>1742.444460</ele>
  <time>2012-05-28T15:24:24Z</time>
</trkpt>
<trkpt lat="46.332140000" lon="7.438280000">
  <ele>1742.833370</ele>
  <time>2012-05-28T15:24:25Z</time>
</trkpt>
<trkpt lat="46.332160000" lon="7.438290000">
  <ele>1743.222170</ele>
  <time>2012-05-28T15:24:26Z</time>
</trkpt>
<trkpt lat="46.332180000" lon="7.438290000">
  <ele>1743.611080</ele>
  <time>2012-05-28T15:24:27Z</time>
</trkpt>
<trkpt lat="46.332210000" lon="7.438300000">
  <ele>1744.000000</ele>
  <time>2012-05-28T15:24:28Z</time>
</trkpt>
<trkpt lat="46.332300000" lon="7.438290000">
  <ele>1744.000000</ele>
  <time>2012-05-28T15:24:32Z</time>
</trkpt>
<trkpt lat="46.332400000" lon="7.438240000">
  <ele>1745.111080</ele>
  <time>2012-05-28T15:24:37Z</time>
</trkpt>
<trkpt lat="46.332420000" lon="7.438230000">
  <ele>1745.333370</ele>
  <time>2012-05-28T15:24:38Z</time>
</trkpt>
<trkpt lat="46.332440000" lon="7.438210000">
  <ele>1745.555540</ele>
  <time>2012-05-28T15:24:39Z</time>
</trkpt>
<trkpt lat="46.332460000" lon="7.438190000">
  <ele>1745.777830</ele>
  <time>2012-05-28T15:24:40Z</time>
</trkpt>
<trkpt lat="46.332480000" lon="7.438160000">
  <ele>1746.000000</ele>
  <time>2012-05-28T15:24:41Z</time>
</trkpt>
<trkpt lat="46.332520000" lon="7.438080000">
  <ele>1746.000000</ele>
  <time>2012-05-28T15:24:44Z</time>
</trkpt>
<trkpt lat="46.332550000" lon="7.437960000">
  <ele>1747.314330</ele>
  <time>2012-05-28T15:24:48Z</time>
</trkpt>
<trkpt lat="46.332570000" lon="7.437900000">
  <ele>1747.971440</ele>
  <time>2012-05-28T15:24:50Z</time>
</trkpt>
<trkpt lat="46.332580000" lon="7.437870000">
  <ele>1748.300050</ele>
  <time>2012-05-28T15:24:51Z</time>
</trkpt>
<trkpt lat="46.332590000" lon="7.437830000">
  <ele>1748.628540</ele>
  <time>2012-05-28T15:24:52Z</time>
</trkpt>
<trkpt lat="46.332600000" lon="7.437800000">
  <ele>1748.957150</ele>
  <time>2012-05-28T15:24:53Z</time>
</trkpt>
<trkpt lat="46.332600000" lon="7.437770000">
  <ele>1749.285640</ele>
  <time>2012-05-28T15:24:54Z</time>
</trkpt>
<trkpt lat="46.332610000" lon="7.437740000">
  <ele>1749.614260</ele>
  <time>2012-05-28T15:24:55Z</time>
</trkpt>
<trkpt lat="46.332610000" lon="7.437700000">
  <ele>1749.942870</ele>
  <time>2012-05-28T15:24:56Z</time>
</trkpt>
<trkpt lat="46.332630000" lon="7.437670000">
  <ele>1750.271360</ele>
  <time>2012-05-28T15:24:57Z</time>
</trkpt>
<trkpt lat="46.332640000" lon="7.437640000">
  <ele>1750.599980</ele>
  <time>2012-05-28T15:24:58Z</time>
</trkpt>
<trkpt lat="46.332660000" lon="7.437510000">
  <ele>1750.599980</ele>
  <time>2012-05-28T15:25:02Z</time>
</trkpt>
<trkpt lat="46.332660000" lon="7.437480000">
  <ele>1750.688840</ele>
  <time>2012-05-28T15:25:03Z</time>
</trkpt>
<trkpt lat="46.332710000" lon="7.437390000">
  <ele>1750.955570</ele>
  <time>2012-05-28T15:25:06Z</time>
</trkpt>
<trkpt lat="46.332740000" lon="7.437340000">
  <ele>1751.133300</ele>
  <time>2012-05-28T15:25:08Z</time>
</trkpt>
<trkpt lat="46.332750000" lon="7.437280000">
  <ele>1751.311160</ele>
  <time>2012-05-28T15:25:10Z</time>
</trkpt>
<trkpt lat="46.332760000" lon="7.437250000">
  <ele>1751.400020</ele>
  <time>2012-05-28T15:25:11Z</time>
</trkpt>
</trkseg>
</trk>
</gpx>
